<?xml version='1.0' encoding='UTF-8'?><gpx version="1.1" creator="JPX - https://github.com/jenetics/jpx" xmlns="http://www.topografix.com/GPX/1/1"><trk><trkseg><trkpt lat="40.8939626" lon="14.287831"><ele>80.0</ele><time>2026-03-29T05:56:40.604Z</time></trkpt><trkpt lat="40.8942217" lon="14.2874683"><ele>80.0</ele><time>2026-03-29T05:56:58.501Z</time></trkpt><trkpt lat="40.8940833" lon="14.2876267"><ele>80.0</ele><time>2026-03-29T05:56:59.499Z</time></trkpt><trkpt lat="40.8940483" lon="14.2877133"><ele>80.0</ele><time>2026-03-29T05:57:02.503Z</time></trkpt><trkpt lat="40.89398" lon="14.2876517"><ele>80.0</ele><time>2026-03-29T05:57:20.296Z</time></trkpt><trkpt lat="40.8939533" lon="14.2875483"><ele>80.0</ele><time>2026-03-29T05:57:23.297Z</time></trkpt><trkpt lat="40.89393" lon="14.2874467"><ele>80.0</ele><time>2026-03-29T05:57:26.295Z</time></trkpt><trkpt lat="40.8939017" lon="14.2873633"><ele>80.0</ele><time>2026-03-29T05:57:28.294Z</time></trkpt><trkpt lat="40.8938767" lon="14.2872833"><ele>80.0</ele><time>2026-03-29T05:57:30.295Z</time></trkpt><trkpt lat="40.893845" lon="14.2871867"><ele>80.0</ele><time>2026-03-29T05:57:32.295Z</time></trkpt><trkpt lat="40.8938033" lon="14.28708"><ele>80.0</ele><time>2026-03-29T05:57:34.295Z</time></trkpt><trkpt lat="40.89376" lon="14.2869733"><ele>80.0</ele><time>2026-03-29T05:57:36.295Z</time></trkpt><trkpt lat="40.89372" lon="14.2868867"><ele>80.0</ele><time>2026-03-29T05:57:38.296Z</time></trkpt><trkpt lat="40.893695" lon="14.2868033"><ele>80.0</ele><time>2026-03-29T05:57:40.296Z</time></trkpt><trkpt lat="40.8936583" lon="14.2867117"><ele>80.0</ele><time>2026-03-29T05:57:42.296Z</time></trkpt><trkpt lat="40.8936267" lon="14.28661"><ele>80.0</ele><time>2026-03-29T05:57:44.297Z</time></trkpt><trkpt lat="40.8935983" lon="14.2865133"><ele>80.0</ele><time>2026-03-29T05:57:46.297Z</time></trkpt><trkpt lat="40.8935717" lon="14.2864017"><ele>80.0</ele><time>2026-03-29T05:57:48.295Z</time></trkpt><trkpt lat="40.8935417" lon="14.2863"><ele>80.0</ele><time>2026-03-29T05:57:50.296Z</time></trkpt><trkpt lat="40.8935467" lon="14.2862"><ele>80.0</ele><time>2026-03-29T05:57:53.296Z</time></trkpt><trkpt lat="40.8936133" lon="14.2861883"><ele>80.16666666666667</ele><time>2026-03-29T05:57:56.295Z</time></trkpt><trkpt lat="40.8936967" lon="14.286185"><ele>80.33333333333334</ele><time>2026-03-29T05:57:59.297Z</time></trkpt><trkpt lat="40.89378" lon="14.2861833"><ele>80.5</ele><time>2026-03-29T05:58:02.296Z</time></trkpt><trkpt lat="40.893875" lon="14.2861883"><ele>80.66666666666667</ele><time>2026-03-29T05:58:05.295Z</time></trkpt><trkpt lat="40.8939417" lon="14.28619"><ele>80.83333333333333</ele><time>2026-03-29T05:58:07.297Z</time></trkpt><trkpt lat="40.894015" lon="14.2861917"><ele>81.0</ele><time>2026-03-29T05:58:09.297Z</time></trkpt><trkpt lat="40.894095" lon="14.2861917"><ele>81.0</ele><time>2026-03-29T05:58:11.297Z</time></trkpt><trkpt lat="40.894185" lon="14.2861833"><ele>81.0</ele><time>2026-03-29T05:58:13.297Z</time></trkpt><trkpt lat="40.8942667" lon="14.2861733"><ele>81.0</ele><time>2026-03-29T05:58:15.295Z</time></trkpt><trkpt lat="40.8943483" lon="14.2861733"><ele>81.0</ele><time>2026-03-29T05:58:17.296Z</time></trkpt><trkpt lat="40.8944417" lon="14.2862117"><ele>81.0</ele><time>2026-03-29T05:58:19.298Z</time></trkpt><trkpt lat="40.8945183" lon="14.286255"><ele>81.0</ele><time>2026-03-29T05:58:21.294Z</time></trkpt><trkpt lat="40.8946" lon="14.2862867"><ele>80.83333333333333</ele><time>2026-03-29T05:58:23.297Z</time></trkpt><trkpt lat="40.8946667" lon="14.2863033"><ele>80.66666666666667</ele><time>2026-03-29T05:58:25.295Z</time></trkpt><trkpt lat="40.8947533" lon="14.2863067"><ele>80.5</ele><time>2026-03-29T05:58:27.295Z</time></trkpt><trkpt lat="40.8948333" lon="14.2863167"><ele>80.33333333333334</ele><time>2026-03-29T05:58:29.298Z</time></trkpt><trkpt lat="40.8949383" lon="14.286305"><ele>80.16666666666667</ele><time>2026-03-29T05:58:31.296Z</time></trkpt><trkpt lat="40.8950133" lon="14.2863"><ele>80.0</ele><time>2026-03-29T05:58:32.294Z</time></trkpt><trkpt lat="40.8950783" lon="14.2863"><ele>79.66666666666667</ele><time>2026-03-29T05:58:33.296Z</time></trkpt><trkpt lat="40.8951467" lon="14.2863067"><ele>79.33333333333334</ele><time>2026-03-29T05:58:34.296Z</time></trkpt><trkpt lat="40.89521" lon="14.286305"><ele>79.0</ele><time>2026-03-29T05:58:35.297Z</time></trkpt><trkpt lat="40.8952733" lon="14.2863017"><ele>78.66666666666667</ele><time>2026-03-29T05:58:36.294Z</time></trkpt><trkpt lat="40.8953883" lon="14.2863"><ele>78.33333333333333</ele><time>2026-03-29T05:58:38.295Z</time></trkpt><trkpt lat="40.8954933" lon="14.286305"><ele>78.0</ele><time>2026-03-29T05:58:40.295Z</time></trkpt><trkpt lat="40.8955983" lon="14.2863167"><ele>78.0</ele><time>2026-03-29T05:58:42.295Z</time></trkpt><trkpt lat="40.8957067" lon="14.28633"><ele>78.0</ele><time>2026-03-29T05:58:44.296Z</time></trkpt><trkpt lat="40.8958267" lon="14.2863367"><ele>78.0</ele><time>2026-03-29T05:58:46.295Z</time></trkpt><trkpt lat="40.8958917" lon="14.2863367"><ele>78.0</ele><time>2026-03-29T05:58:47.297Z</time></trkpt><trkpt lat="40.8959567" lon="14.2863433"><ele>78.0</ele><time>2026-03-29T05:58:48.297Z</time></trkpt><trkpt lat="40.8960683" lon="14.28635"><ele>78.4</ele><time>2026-03-29T05:58:50.297Z</time></trkpt><trkpt lat="40.8961633" lon="14.28638"><ele>78.8</ele><time>2026-03-29T05:58:52.296Z</time></trkpt><trkpt lat="40.8962533" lon="14.2864167"><ele>79.2</ele><time>2026-03-29T05:58:54.296Z</time></trkpt><trkpt lat="40.896345" lon="14.286455"><ele>79.6</ele><time>2026-03-29T05:58:56.295Z</time></trkpt><trkpt lat="40.8964433" lon="14.286485"><ele>80.0</ele><time>2026-03-29T05:58:58.297Z</time></trkpt><trkpt lat="40.8965183" lon="14.2865133"><ele>80.2</ele><time>2026-03-29T05:59:00.297Z</time></trkpt><trkpt lat="40.8965767" lon="14.2865483"><ele>80.4</ele><time>2026-03-29T05:59:03.297Z</time></trkpt><trkpt lat="40.896655" lon="14.286555"><ele>80.6</ele><time>2026-03-29T05:59:09.296Z</time></trkpt><trkpt lat="40.8967233" lon="14.2864917"><ele>80.8</ele><time>2026-03-29T05:59:11.295Z</time></trkpt><trkpt lat="40.8967983" lon="14.2863767"><ele>81.0</ele><time>2026-03-29T05:59:13.296Z</time></trkpt><trkpt lat="40.896885" lon="14.2862533"><ele>81.19999999999999</ele><time>2026-03-29T05:59:15.297Z</time></trkpt><trkpt lat="40.89697" lon="14.2861217"><ele>81.39999999999999</ele><time>2026-03-29T05:59:17.297Z</time></trkpt><trkpt lat="40.8970183" lon="14.286045"><ele>81.6</ele><time>2026-03-29T05:59:18.297Z</time></trkpt><trkpt lat="40.8970983" lon="14.2859317"><ele>81.8</ele><time>2026-03-29T05:59:20.297Z</time></trkpt><trkpt lat="40.897145" lon="14.2858667"><ele>82.0</ele><time>2026-03-29T05:59:21.297Z</time></trkpt><trkpt lat="40.897225" lon="14.2857367"><ele>82.0</ele><time>2026-03-29T05:59:23.297Z</time></trkpt><trkpt lat="40.89727" lon="14.2856683"><ele>82.0</ele><time>2026-03-29T05:59:24.297Z</time></trkpt><trkpt lat="40.897315" lon="14.2855967"><ele>82.0</ele><time>2026-03-29T05:59:25.297Z</time></trkpt><trkpt lat="40.8973567" lon="14.28553"><ele>82.0</ele><time>2026-03-29T05:59:26.296Z</time></trkpt><trkpt lat="40.8974367" lon="14.2854117"><ele>82.0</ele><time>2026-03-29T05:59:28.297Z</time></trkpt><trkpt lat="40.8974767" lon="14.2853467"><ele>82.0</ele><time>2026-03-29T05:59:29.297Z</time></trkpt><trkpt lat="40.8975533" lon="14.2852367"><ele>81.6</ele><time>2026-03-29T05:59:31.297Z</time></trkpt><trkpt lat="40.8976317" lon="14.2851233"><ele>81.19999999999999</ele><time>2026-03-29T05:59:33.296Z</time></trkpt><trkpt lat="40.8976883" lon="14.2850617"><ele>80.8</ele><time>2026-03-29T05:59:34.297Z</time></trkpt><trkpt lat="40.8977417" lon="14.28498"><ele>80.4</ele><time>2026-03-29T05:59:35.297Z</time></trkpt><trkpt lat="40.8978067" lon="14.2848717"><ele>80.0</ele><time>2026-03-29T05:59:37.297Z</time></trkpt><trkpt lat="40.897865" lon="14.2847733"><ele>80.0</ele><time>2026-03-29T05:59:39.295Z</time></trkpt><trkpt lat="40.8979417" lon="14.2846983"><ele>80.0</ele><time>2026-03-29T05:59:41.298Z</time></trkpt><trkpt lat="40.8979917" lon="14.2846383"><ele>80.0</ele><time>2026-03-29T05:59:43.295Z</time></trkpt><trkpt lat="40.8980617" lon="14.2846083"><ele>80.0</ele><time>2026-03-29T05:59:47.296Z</time></trkpt><trkpt lat="40.898125" lon="14.2846417"><ele>80.0</ele><time>2026-03-29T05:59:50.295Z</time></trkpt><trkpt lat="40.8981767" lon="14.284695"><ele>80.0</ele><time>2026-03-29T05:59:52.294Z</time></trkpt><trkpt lat="40.8982467" lon="14.2847767"><ele>80.0</ele><time>2026-03-29T05:59:54.297Z</time></trkpt><trkpt lat="40.89833" lon="14.284855"><ele>80.0</ele><time>2026-03-29T05:59:56.296Z</time></trkpt><trkpt lat="40.8984017" lon="14.2849467"><ele>80.0</ele><time>2026-03-29T05:59:58.297Z</time></trkpt><trkpt lat="40.8984767" lon="14.2850283"><ele>80.0</ele><time>2026-03-29T06:00:00.297Z</time></trkpt><trkpt lat="40.8985333" lon="14.2851133"><ele>80.0</ele><time>2026-03-29T06:00:02.294Z</time></trkpt><trkpt lat="40.8985917" lon="14.2851967"><ele>80.5</ele><time>2026-03-29T06:00:04.294Z</time></trkpt><trkpt lat="40.8986517" lon="14.2852767"><ele>81.0</ele><time>2026-03-29T06:00:06.296Z</time></trkpt><trkpt lat="40.898735" lon="14.2853167"><ele>81.5</ele><time>2026-03-29T06:00:08.294Z</time></trkpt><trkpt lat="40.8987933" lon="14.2853483"><ele>82.0</ele><time>2026-03-29T06:00:09.294Z</time></trkpt><trkpt lat="40.8988933" lon="14.285405"><ele>82.5</ele><time>2026-03-29T06:00:11.295Z</time></trkpt><trkpt lat="40.8989667" lon="14.28547"><ele>83.0</ele><time>2026-03-29T06:00:13.294Z</time></trkpt><trkpt lat="40.899055" lon="14.285555"><ele>83.25</ele><time>2026-03-29T06:00:15.294Z</time></trkpt><trkpt lat="40.899105" lon="14.2856067"><ele>83.5</ele><time>2026-03-29T06:00:16.294Z</time></trkpt><trkpt lat="40.8993017" lon="14.2857033"><ele>83.75</ele><time>2026-03-29T06:00:19.294Z</time></trkpt><trkpt lat="40.89942" lon="14.285735"><ele>84.0</ele><time>2026-03-29T06:00:21.297Z</time></trkpt><trkpt lat="40.8994817" lon="14.2857567"><ele>84.0</ele><time>2026-03-29T06:00:22.294Z</time></trkpt><trkpt lat="40.899545" lon="14.28577"><ele>84.0</ele><time>2026-03-29T06:00:23.295Z</time></trkpt><trkpt lat="40.8996683" lon="14.2858117"><ele>84.0</ele><time>2026-03-29T06:00:25.295Z</time></trkpt><trkpt lat="40.8997867" lon="14.285865"><ele>84.0</ele><time>2026-03-29T06:00:27.294Z</time></trkpt><trkpt lat="40.8998867" lon="14.28591"><ele>84.0</ele><time>2026-03-29T06:00:29.294Z</time></trkpt><trkpt lat="40.8999617" lon="14.285935"><ele>84.0</ele><time>2026-03-29T06:00:31.295Z</time></trkpt><trkpt lat="40.9000583" lon="14.2859617"><ele>84.0</ele><time>2026-03-29T06:00:33.294Z</time></trkpt><trkpt lat="40.900135" lon="14.2859667"><ele>84.0</ele><time>2026-03-29T06:00:35.294Z</time></trkpt><trkpt lat="40.9002317" lon="14.2859667"><ele>84.0</ele><time>2026-03-29T06:00:37.294Z</time></trkpt><trkpt lat="40.900335" lon="14.285955"><ele>84.0</ele><time>2026-03-29T06:00:39.299Z</time></trkpt><trkpt lat="40.9004367" lon="14.285975"><ele>84.4</ele><time>2026-03-29T06:00:41.294Z</time></trkpt><trkpt lat="40.9005317" lon="14.285965"><ele>84.80000000000001</ele><time>2026-03-29T06:00:43.294Z</time></trkpt><trkpt lat="40.9006133" lon="14.285995"><ele>85.19999999999999</ele><time>2026-03-29T06:00:45.294Z</time></trkpt><trkpt lat="40.900705" lon="14.2860117"><ele>85.6</ele><time>2026-03-29T06:00:47.294Z</time></trkpt><trkpt lat="40.9008067" lon="14.2859983"><ele>86.0</ele><time>2026-03-29T06:00:49.294Z</time></trkpt><trkpt lat="40.9009133" lon="14.2859917"><ele>85.83333333333334</ele><time>2026-03-29T06:00:51.294Z</time></trkpt><trkpt lat="40.9010033" lon="14.2859783"><ele>85.66666666666667</ele><time>2026-03-29T06:00:53.295Z</time></trkpt><trkpt lat="40.90109" lon="14.2859483"><ele>85.5</ele><time>2026-03-29T06:00:55.296Z</time></trkpt><trkpt lat="40.90119" lon="14.2859133"><ele>85.33333333333333</ele><time>2026-03-29T06:00:57.296Z</time></trkpt><trkpt lat="40.9012517" lon="14.2858933"><ele>85.16666666666666</ele><time>2026-03-29T06:00:58.296Z</time></trkpt><trkpt lat="40.9013183" lon="14.2858617"><ele>85.0</ele><time>2026-03-29T06:00:59.295Z</time></trkpt><trkpt lat="40.9013783" lon="14.28583"><ele>85.0</ele><time>2026-03-29T06:01:00.296Z</time></trkpt><trkpt lat="40.901485" lon="14.28579"><ele>85.0</ele><time>2026-03-29T06:01:02.296Z</time></trkpt><trkpt lat="40.90158" lon="14.28575"><ele>85.0</ele><time>2026-03-29T06:01:04.295Z</time></trkpt><trkpt lat="40.90166" lon="14.285705"><ele>85.0</ele><time>2026-03-29T06:01:06.296Z</time></trkpt><trkpt lat="40.9017483" lon="14.2856783"><ele>85.0</ele><time>2026-03-29T06:01:08.296Z</time></trkpt><trkpt lat="40.901855" lon="14.28565"><ele>85.2</ele><time>2026-03-29T06:01:10.296Z</time></trkpt><trkpt lat="40.9019533" lon="14.2856333"><ele>85.4</ele><time>2026-03-29T06:01:12.297Z</time></trkpt><trkpt lat="40.9020433" lon="14.285635"><ele>85.6</ele><time>2026-03-29T06:01:14.296Z</time></trkpt><trkpt lat="40.9021417" lon="14.2856217"><ele>85.8</ele><time>2026-03-29T06:01:16.295Z</time></trkpt><trkpt lat="40.9022583" lon="14.2855933"><ele>86.0</ele><time>2026-03-29T06:01:18.294Z</time></trkpt><trkpt lat="40.9023717" lon="14.285555"><ele>85.6</ele><time>2026-03-29T06:01:20.295Z</time></trkpt><trkpt lat="40.9024817" lon="14.2855167"><ele>85.19999999999999</ele><time>2026-03-29T06:01:22.294Z</time></trkpt><trkpt lat="40.90257" lon="14.2854933"><ele>84.80000000000001</ele><time>2026-03-29T06:01:23.296Z</time></trkpt><trkpt lat="40.9026883" lon="14.2854717"><ele>84.4</ele><time>2026-03-29T06:01:25.296Z</time></trkpt><trkpt lat="40.9027917" lon="14.2854633"><ele>84.0</ele><time>2026-03-29T06:01:27.295Z</time></trkpt><trkpt lat="40.90287" lon="14.2854533"><ele>84.0</ele><time>2026-03-29T06:01:29.296Z</time></trkpt><trkpt lat="40.9029333" lon="14.2854333"><ele>84.0</ele><time>2026-03-29T06:01:31.296Z</time></trkpt><trkpt lat="40.9030233" lon="14.2854"><ele>84.0</ele><time>2026-03-29T06:01:33.297Z</time></trkpt><trkpt lat="40.9030933" lon="14.2854"><ele>84.0</ele><time>2026-03-29T06:01:35.297Z</time></trkpt><trkpt lat="40.9031633" lon="14.285395"><ele>84.0</ele><time>2026-03-29T06:01:37.295Z</time></trkpt><trkpt lat="40.9032417" lon="14.285385"><ele>84.0</ele><time>2026-03-29T06:01:39.296Z</time></trkpt><trkpt lat="40.9033117" lon="14.285365"><ele>84.0</ele><time>2026-03-29T06:01:41.297Z</time></trkpt><trkpt lat="40.9034033" lon="14.28532"><ele>83.2</ele><time>2026-03-29T06:01:43.297Z</time></trkpt><trkpt lat="40.9035367" lon="14.2852283"><ele>82.4</ele><time>2026-03-29T06:01:45.295Z</time></trkpt><trkpt lat="40.903615" lon="14.2851883"><ele>81.6</ele><time>2026-03-29T06:01:46.296Z</time></trkpt><trkpt lat="40.9037133" lon="14.2851767"><ele>80.8</ele><time>2026-03-29T06:01:47.296Z</time></trkpt><trkpt lat="40.90379" lon="14.2851683"><ele>80.0</ele><time>2026-03-29T06:01:48.295Z</time></trkpt><trkpt lat="40.9038583" lon="14.2851533"><ele>80.0</ele><time>2026-03-29T06:01:49.296Z</time></trkpt><trkpt lat="40.9039267" lon="14.2851367"><ele>80.0</ele><time>2026-03-29T06:01:50.297Z</time></trkpt><trkpt lat="40.903995" lon="14.2851167"><ele>80.0</ele><time>2026-03-29T06:01:51.297Z</time></trkpt><trkpt lat="40.9040717" lon="14.2851017"><ele>80.0</ele><time>2026-03-29T06:01:52.297Z</time></trkpt><trkpt lat="40.9041433" lon="14.2850883"><ele>80.0</ele><time>2026-03-29T06:01:53.297Z</time></trkpt><trkpt lat="40.9042383" lon="14.285065"><ele>80.0</ele><time>2026-03-29T06:01:54.295Z</time></trkpt><trkpt lat="40.90433" lon="14.2850417"><ele>79.85714285714286</ele><time>2026-03-29T06:01:55.296Z</time></trkpt><trkpt lat="40.9044" lon="14.2850233"><ele>79.71428571428572</ele><time>2026-03-29T06:01:56.296Z</time></trkpt><trkpt lat="40.9044683" lon="14.285005"><ele>79.57142857142858</ele><time>2026-03-29T06:01:57.296Z</time></trkpt><trkpt lat="40.904545" lon="14.2849817"><ele>79.42857142857143</ele><time>2026-03-29T06:01:58.295Z</time></trkpt><trkpt lat="40.9046117" lon="14.284965"><ele>79.28571428571429</ele><time>2026-03-29T06:01:59.296Z</time></trkpt><trkpt lat="40.9046767" lon="14.284945"><ele>79.14285714285715</ele><time>2026-03-29T06:02:00.295Z</time></trkpt><trkpt lat="40.9047467" lon="14.2849233"><ele>79.0</ele><time>2026-03-29T06:02:01.297Z</time></trkpt><trkpt lat="40.90481" lon="14.284905"><ele>79.0</ele><time>2026-03-29T06:02:02.296Z</time></trkpt><trkpt lat="40.9049267" lon="14.284875"><ele>79.0</ele><time>2026-03-29T06:02:04.297Z</time></trkpt><trkpt lat="40.9049883" lon="14.2848533"><ele>79.0</ele><time>2026-03-29T06:02:05.298Z</time></trkpt><trkpt lat="40.9050567" lon="14.2848367"><ele>79.0</ele><time>2026-03-29T06:02:06.295Z</time></trkpt><trkpt lat="40.905175" lon="14.2848067"><ele>79.0</ele><time>2026-03-29T06:02:08.295Z</time></trkpt><trkpt lat="40.9052867" lon="14.2847817"><ele>79.0</ele><time>2026-03-29T06:02:10.296Z</time></trkpt><trkpt lat="40.9054033" lon="14.2847517"><ele>79.0</ele><time>2026-03-29T06:02:12.296Z</time></trkpt><trkpt lat="40.9055217" lon="14.284725"><ele>79.0</ele><time>2026-03-29T06:02:14.296Z</time></trkpt><trkpt lat="40.9056433" lon="14.2847183"><ele>79.0</ele><time>2026-03-29T06:02:16.296Z</time></trkpt><trkpt lat="40.9057083" lon="14.2847117"><ele>79.0</ele><time>2026-03-29T06:02:17.297Z</time></trkpt><trkpt lat="40.905775" lon="14.2847067"><ele>79.00000000000001</ele><time>2026-03-29T06:02:18.296Z</time></trkpt><trkpt lat="40.9058433" lon="14.28471"><ele>79.0</ele><time>2026-03-29T06:02:19.297Z</time></trkpt><trkpt lat="40.9059083" lon="14.2847167"><ele>79.0</ele><time>2026-03-29T06:02:20.296Z</time></trkpt><trkpt lat="40.90598" lon="14.28473"><ele>79.0</ele><time>2026-03-29T06:02:21.295Z</time></trkpt><trkpt lat="40.9060467" lon="14.28474"><ele>79.0</ele><time>2026-03-29T06:02:22.295Z</time></trkpt><trkpt lat="40.906115" lon="14.2847533"><ele>79.00000000000001</ele><time>2026-03-29T06:02:23.296Z</time></trkpt><trkpt lat="40.90618" lon="14.2847783"><ele>79.0</ele><time>2026-03-29T06:02:24.296Z</time></trkpt><trkpt lat="40.906295" lon="14.2848067"><ele>78.83333333333333</ele><time>2026-03-29T06:02:26.296Z</time></trkpt><trkpt lat="40.9064083" lon="14.2848417"><ele>78.66666666666666</ele><time>2026-03-29T06:02:28.296Z</time></trkpt><trkpt lat="40.9064717" lon="14.2848733"><ele>78.5</ele><time>2026-03-29T06:02:29.296Z</time></trkpt><trkpt lat="40.906535" lon="14.284905"><ele>78.33333333333333</ele><time>2026-03-29T06:02:30.295Z</time></trkpt><trkpt lat="40.9065967" lon="14.2849417"><ele>78.16666666666667</ele><time>2026-03-29T06:02:31.297Z</time></trkpt><trkpt lat="40.9066567" lon="14.284985"><ele>78.0</ele><time>2026-03-29T06:02:32.295Z</time></trkpt><trkpt lat="40.9067167" lon="14.2850317"><ele>77.42857142857143</ele><time>2026-03-29T06:02:33.296Z</time></trkpt><trkpt lat="40.9067867" lon="14.2850817"><ele>76.85714285714285</ele><time>2026-03-29T06:02:34.295Z</time></trkpt><trkpt lat="40.906845" lon="14.2851283"><ele>76.28571428571428</ele><time>2026-03-29T06:02:35.295Z</time></trkpt><trkpt lat="40.9069033" lon="14.285175"><ele>75.71428571428572</ele><time>2026-03-29T06:02:36.296Z</time></trkpt><trkpt lat="40.90697" lon="14.2852217"><ele>75.14285714285714</ele><time>2026-03-29T06:02:37.297Z</time></trkpt><trkpt lat="40.9070317" lon="14.285275"><ele>74.57142857142857</ele><time>2026-03-29T06:02:38.295Z</time></trkpt><trkpt lat="40.9070933" lon="14.2853317"><ele>74.0</ele><time>2026-03-29T06:02:39.295Z</time></trkpt><trkpt lat="40.90716" lon="14.2853817"><ele>74.0</ele><time>2026-03-29T06:02:40.296Z</time></trkpt><trkpt lat="40.9072167" lon="14.2854267"><ele>74.0</ele><time>2026-03-29T06:02:41.295Z</time></trkpt><trkpt lat="40.9073333" lon="14.2855267"><ele>74.0</ele><time>2026-03-29T06:02:43.296Z</time></trkpt><trkpt lat="40.9073967" lon="14.2855717"><ele>74.0</ele><time>2026-03-29T06:02:44.295Z</time></trkpt><trkpt lat="40.9074583" lon="14.2856133"><ele>74.0</ele><time>2026-03-29T06:02:45.297Z</time></trkpt><trkpt lat="40.9075183" lon="14.2856583"><ele>74.0</ele><time>2026-03-29T06:02:46.297Z</time></trkpt><trkpt lat="40.9075783" lon="14.2857033"><ele>73.28571428571429</ele><time>2026-03-29T06:02:47.296Z</time></trkpt><trkpt lat="40.907635" lon="14.2857483"><ele>72.57142857142857</ele><time>2026-03-29T06:02:48.296Z</time></trkpt><trkpt lat="40.907695" lon="14.2857967"><ele>71.85714285714286</ele><time>2026-03-29T06:02:49.296Z</time></trkpt><trkpt lat="40.907755" lon="14.2858467"><ele>71.14285714285714</ele><time>2026-03-29T06:02:50.295Z</time></trkpt><trkpt lat="40.907815" lon="14.2858933"><ele>70.42857142857143</ele><time>2026-03-29T06:02:51.295Z</time></trkpt><trkpt lat="40.9078783" lon="14.285945"><ele>69.71428571428572</ele><time>2026-03-29T06:02:52.295Z</time></trkpt><trkpt lat="40.9079417" lon="14.286"><ele>69.0</ele><time>2026-03-29T06:02:53.295Z</time></trkpt><trkpt lat="40.9080083" lon="14.286055"><ele>69.0</ele><time>2026-03-29T06:02:54.296Z</time></trkpt><trkpt lat="40.908075" lon="14.28611"><ele>69.0</ele><time>2026-03-29T06:02:55.296Z</time></trkpt><trkpt lat="40.9081417" lon="14.2861667"><ele>69.0</ele><time>2026-03-29T06:02:56.295Z</time></trkpt><trkpt lat="40.9082117" lon="14.2862217"><ele>69.0</ele><time>2026-03-29T06:02:57.295Z</time></trkpt><trkpt lat="40.90828" lon="14.2862733"><ele>69.0</ele><time>2026-03-29T06:02:58.295Z</time></trkpt><trkpt lat="40.90835" lon="14.28633"><ele>69.0</ele><time>2026-03-29T06:02:59.295Z</time></trkpt><trkpt lat="40.9084217" lon="14.2863917"><ele>69.16666666666667</ele><time>2026-03-29T06:03:00.295Z</time></trkpt><trkpt lat="40.90849" lon="14.2864483"><ele>69.33333333333333</ele><time>2026-03-29T06:03:01.296Z</time></trkpt><trkpt lat="40.9085567" lon="14.2865083"><ele>69.5</ele><time>2026-03-29T06:03:02.295Z</time></trkpt><trkpt lat="40.9086267" lon="14.286565"><ele>69.66666666666666</ele><time>2026-03-29T06:03:03.295Z</time></trkpt><trkpt lat="40.908695" lon="14.28662"><ele>69.83333333333333</ele><time>2026-03-29T06:03:04.296Z</time></trkpt><trkpt lat="40.9087617" lon="14.2866767"><ele>70.0</ele><time>2026-03-29T06:03:05.297Z</time></trkpt><trkpt lat="40.9088267" lon="14.2867383"><ele>70.0</ele><time>2026-03-29T06:03:06.296Z</time></trkpt><trkpt lat="40.908895" lon="14.2867967"><ele>70.0</ele><time>2026-03-29T06:03:07.297Z</time></trkpt><trkpt lat="40.9089667" lon="14.2868567"><ele>70.0</ele><time>2026-03-29T06:03:08.295Z</time></trkpt><trkpt lat="40.9090383" lon="14.2869133"><ele>70.0</ele><time>2026-03-29T06:03:09.295Z</time></trkpt><trkpt lat="40.9091067" lon="14.286975"><ele>70.0</ele><time>2026-03-29T06:03:10.294Z</time></trkpt><trkpt lat="40.9091767" lon="14.2870367"><ele>70.0</ele><time>2026-03-29T06:03:11.295Z</time></trkpt><trkpt lat="40.909245" lon="14.2870867"><ele>69.83333333333333</ele><time>2026-03-29T06:03:12.295Z</time></trkpt><trkpt lat="40.90931" lon="14.287135"><ele>69.66666666666666</ele><time>2026-03-29T06:03:13.297Z</time></trkpt><trkpt lat="40.9093817" lon="14.2871883"><ele>69.5</ele><time>2026-03-29T06:03:14.295Z</time></trkpt><trkpt lat="40.9094517" lon="14.2872433"><ele>69.33333333333333</ele><time>2026-03-29T06:03:15.294Z</time></trkpt><trkpt lat="40.9095183" lon="14.2872967"><ele>69.16666666666667</ele><time>2026-03-29T06:03:16.295Z</time></trkpt><trkpt lat="40.9095883" lon="14.2873483"><ele>69.0</ele><time>2026-03-29T06:03:17.295Z</time></trkpt><trkpt lat="40.9096617" lon="14.2874067"><ele>68.83333333333333</ele><time>2026-03-29T06:03:18.295Z</time></trkpt><trkpt lat="40.9097333" lon="14.2874567"><ele>68.66666666666667</ele><time>2026-03-29T06:03:19.296Z</time></trkpt><trkpt lat="40.9098083" lon="14.2875067"><ele>68.5</ele><time>2026-03-29T06:03:20.296Z</time></trkpt><trkpt lat="40.90988" lon="14.287565"><ele>68.33333333333334</ele><time>2026-03-29T06:03:21.295Z</time></trkpt><trkpt lat="40.9099533" lon="14.2876317"><ele>68.16666666666667</ele><time>2026-03-29T06:03:22.296Z</time></trkpt><trkpt lat="40.9100267" lon="14.2876967"><ele>68.0</ele><time>2026-03-29T06:03:23.295Z</time></trkpt><trkpt lat="40.9101017" lon="14.2877583"><ele>67.5</ele><time>2026-03-29T06:03:24.295Z</time></trkpt><trkpt lat="40.910175" lon="14.28782"><ele>67.0</ele><time>2026-03-29T06:03:25.295Z</time></trkpt><trkpt lat="40.9102467" lon="14.2878733"><ele>66.5</ele><time>2026-03-29T06:03:26.296Z</time></trkpt><trkpt lat="40.9103133" lon="14.2879267"><ele>66.0</ele><time>2026-03-29T06:03:27.295Z</time></trkpt><trkpt lat="40.910375" lon="14.2879767"><ele>65.5</ele><time>2026-03-29T06:03:28.295Z</time></trkpt><trkpt lat="40.9104333" lon="14.2880333"><ele>65.0</ele><time>2026-03-29T06:03:29.296Z</time></trkpt><trkpt lat="40.9104867" lon="14.288105"><ele>65.0</ele><time>2026-03-29T06:03:31.297Z</time></trkpt><trkpt lat="40.9104667" lon="14.2882033"><ele>65.0</ele><time>2026-03-29T06:03:34.297Z</time></trkpt><trkpt lat="40.91038" lon="14.288225"><ele>65.0</ele><time>2026-03-29T06:03:37.296Z</time></trkpt><trkpt lat="40.910295" lon="14.2882317"><ele>65.0</ele><time>2026-03-29T06:03:40.295Z</time></trkpt><trkpt lat="40.9102283" lon="14.2882283"><ele>65.0</ele><time>2026-03-29T06:03:43.297Z</time></trkpt><trkpt lat="40.910165" lon="14.288235"><ele>65.0</ele><time>2026-03-29T06:03:46.296Z</time></trkpt><trkpt lat="40.9100883" lon="14.28823"><ele>65.16666666666667</ele><time>2026-03-29T06:03:49.297Z</time></trkpt><trkpt lat="40.910005" lon="14.288245"><ele>65.33333333333334</ele><time>2026-03-29T06:03:52.296Z</time></trkpt><trkpt lat="40.909935" lon="14.28826"><ele>65.5</ele><time>2026-03-29T06:03:55.297Z</time></trkpt><trkpt lat="40.909845" lon="14.2882767"><ele>65.66666666666667</ele><time>2026-03-29T06:03:58.296Z</time></trkpt><trkpt lat="40.9097783" lon="14.28828"><ele>65.83333333333333</ele><time>2026-03-29T06:04:00.296Z</time></trkpt><trkpt lat="40.909695" lon="14.2882883"><ele>66.0</ele><time>2026-03-29T06:04:02.295Z</time></trkpt><trkpt lat="40.90962" lon="14.2883"><ele>66.0</ele><time>2026-03-29T06:04:04.297Z</time></trkpt><trkpt lat="40.9095467" lon="14.2883133"><ele>66.0</ele><time>2026-03-29T06:04:06.295Z</time></trkpt><trkpt lat="40.9094767" lon="14.2883283"><ele>66.0</ele><time>2026-03-29T06:04:08.297Z</time></trkpt><trkpt lat="40.9094067" lon="14.2883383"><ele>66.0</ele><time>2026-03-29T06:04:10.296Z</time></trkpt><trkpt lat="40.90932" lon="14.2883433"><ele>66.0</ele><time>2026-03-29T06:04:13.296Z</time></trkpt><trkpt lat="40.90922" lon="14.2883483"><ele>66.0</ele><time>2026-03-29T06:04:16.295Z</time></trkpt><trkpt lat="40.9091567" lon="14.28835"><ele>67.0</ele><time>2026-03-29T06:04:18.295Z</time></trkpt><trkpt lat="40.909085" lon="14.2883533"><ele>68.0</ele><time>2026-03-29T06:04:21.295Z</time></trkpt><trkpt lat="40.9090133" lon="14.2883617"><ele>69.0</ele><time>2026-03-29T06:04:24.296Z</time></trkpt><trkpt lat="40.9089383" lon="14.2883717"><ele>70.0</ele><time>2026-03-29T06:04:27.296Z</time></trkpt><trkpt lat="40.9088617" lon="14.28838"><ele>71.0</ele><time>2026-03-29T06:04:30.297Z</time></trkpt><trkpt lat="40.9089867" lon="14.2884383"><ele>72.0</ele><time>2026-03-29T06:05:46.297Z</time></trkpt><trkpt lat="40.9090233" lon="14.28854"><ele>72.0</ele><time>2026-03-29T06:07:04.295Z</time></trkpt><trkpt lat="40.9090817" lon="14.2884967"><ele>72.0</ele><time>2026-03-29T06:07:07.297Z</time></trkpt><trkpt lat="40.9091683" lon="14.2884633"><ele>72.0</ele><time>2026-03-29T06:07:10.298Z</time></trkpt><trkpt lat="40.90924" lon="14.2884333"><ele>72.0</ele><time>2026-03-29T06:07:12.298Z</time></trkpt><trkpt lat="40.9093183" lon="14.2884067"><ele>72.0</ele><time>2026-03-29T06:07:14.296Z</time></trkpt><trkpt lat="40.9093933" lon="14.2883883"><ele>72.0</ele><time>2026-03-29T06:07:16.297Z</time></trkpt><trkpt lat="40.90948" lon="14.2883683"><ele>71.0</ele><time>2026-03-29T06:07:18.297Z</time></trkpt><trkpt lat="40.90957" lon="14.28835"><ele>70.0</ele><time>2026-03-29T06:07:20.297Z</time></trkpt><trkpt lat="40.9096433" lon="14.2883417"><ele>69.0</ele><time>2026-03-29T06:07:22.297Z</time></trkpt><trkpt lat="40.9097183" lon="14.2883233"><ele>68.0</ele><time>2026-03-29T06:07:24.296Z</time></trkpt><trkpt lat="40.9098" lon="14.2883133"><ele>67.0</ele><time>2026-03-29T06:07:26.297Z</time></trkpt><trkpt lat="40.9098867" lon="14.2882983"><ele>66.0</ele><time>2026-03-29T06:07:28.296Z</time></trkpt><trkpt lat="40.90998" lon="14.288295"><ele>66.0</ele><time>2026-03-29T06:07:30.297Z</time></trkpt><trkpt lat="40.9100617" lon="14.288275"><ele>66.0</ele><time>2026-03-29T06:07:32.297Z</time></trkpt><trkpt lat="40.9101617" lon="14.2882183"><ele>66.0</ele><time>2026-03-29T06:07:34.296Z</time></trkpt><trkpt lat="40.9102667" lon="14.2882133"><ele>66.0</ele><time>2026-03-29T06:07:36.297Z</time></trkpt><trkpt lat="40.9103333" lon="14.28821"><ele>66.0</ele><time>2026-03-29T06:07:37.297Z</time></trkpt><trkpt lat="40.91045" lon="14.2882283"><ele>65.83333333333333</ele><time>2026-03-29T06:07:39.297Z</time></trkpt><trkpt lat="40.9105717" lon="14.2882483"><ele>65.66666666666667</ele><time>2026-03-29T06:07:41.298Z</time></trkpt><trkpt lat="40.910635" lon="14.2882717"><ele>65.5</ele><time>2026-03-29T06:07:42.297Z</time></trkpt><trkpt lat="40.9106983" lon="14.2883017"><ele>65.33333333333334</ele><time>2026-03-29T06:07:43.297Z</time></trkpt><trkpt lat="40.91076" lon="14.288325"><ele>65.16666666666667</ele><time>2026-03-29T06:07:44.297Z</time></trkpt><trkpt lat="40.91082" lon="14.2883667"><ele>65.0</ele><time>2026-03-29T06:07:45.297Z</time></trkpt><trkpt lat="40.91088" lon="14.288405"><ele>64.66666666666667</ele><time>2026-03-29T06:07:46.297Z</time></trkpt><trkpt lat="40.9109433" lon="14.288445"><ele>64.33333333333334</ele><time>2026-03-29T06:07:47.299Z</time></trkpt><trkpt lat="40.91101" lon="14.288485"><ele>64.0</ele><time>2026-03-29T06:07:48.297Z</time></trkpt><trkpt lat="40.9110733" lon="14.288535"><ele>63.66666666666667</ele><time>2026-03-29T06:07:49.297Z</time></trkpt><trkpt lat="40.9111367" lon="14.2885817"><ele>63.333333333333336</ele><time>2026-03-29T06:07:50.297Z</time></trkpt><trkpt lat="40.911205" lon="14.2886383"><ele>63.0</ele><time>2026-03-29T06:07:51.297Z</time></trkpt><trkpt lat="40.911275" lon="14.2887017"><ele>63.0</ele><time>2026-03-29T06:07:52.296Z</time></trkpt><trkpt lat="40.9113417" lon="14.2887583"><ele>63.0</ele><time>2026-03-29T06:07:53.297Z</time></trkpt><trkpt lat="40.911405" lon="14.2888067"><ele>63.0</ele><time>2026-03-29T06:07:54.297Z</time></trkpt><trkpt lat="40.9114717" lon="14.28886"><ele>63.0</ele><time>2026-03-29T06:07:55.297Z</time></trkpt><trkpt lat="40.91154" lon="14.288915"><ele>63.0</ele><time>2026-03-29T06:07:56.297Z</time></trkpt><trkpt lat="40.9116133" lon="14.2889717"><ele>63.0</ele><time>2026-03-29T06:07:57.297Z</time></trkpt><trkpt lat="40.9116867" lon="14.28904"><ele>63.0</ele><time>2026-03-29T06:07:58.296Z</time></trkpt><trkpt lat="40.9117533" lon="14.2890933"><ele>63.0</ele><time>2026-03-29T06:07:59.297Z</time></trkpt><trkpt lat="40.9118167" lon="14.289145"><ele>63.0</ele><time>2026-03-29T06:08:00.297Z</time></trkpt><trkpt lat="40.9118817" lon="14.289195"><ele>63.0</ele><time>2026-03-29T06:08:01.297Z</time></trkpt><trkpt lat="40.91195" lon="14.28926"><ele>63.0</ele><time>2026-03-29T06:08:02.297Z</time></trkpt><trkpt lat="40.9120217" lon="14.2893233"><ele>63.0</ele><time>2026-03-29T06:08:03.297Z</time></trkpt><trkpt lat="40.9120933" lon="14.2893767"><ele>63.0</ele><time>2026-03-29T06:08:04.297Z</time></trkpt><trkpt lat="40.912165" lon="14.2894333"><ele>63.0</ele><time>2026-03-29T06:08:05.297Z</time></trkpt><trkpt lat="40.912235" lon="14.2894933"><ele>63.0</ele><time>2026-03-29T06:08:06.295Z</time></trkpt><trkpt lat="40.912305" lon="14.2895533"><ele>63.0</ele><time>2026-03-29T06:08:07.296Z</time></trkpt><trkpt lat="40.9123817" lon="14.2895917"><ele>63.0</ele><time>2026-03-29T06:08:08.297Z</time></trkpt><trkpt lat="40.9124533" lon="14.2896417"><ele>63.0</ele><time>2026-03-29T06:08:09.295Z</time></trkpt><trkpt lat="40.9125217" lon="14.28969"><ele>63.0</ele><time>2026-03-29T06:08:10.296Z</time></trkpt><trkpt lat="40.9126033" lon="14.2897867"><ele>63.0</ele><time>2026-03-29T06:08:11.297Z</time></trkpt><trkpt lat="40.91267" lon="14.2898483"><ele>63.0</ele><time>2026-03-29T06:08:12.295Z</time></trkpt><trkpt lat="40.91273" lon="14.2899133"><ele>63.0</ele><time>2026-03-29T06:08:13.298Z</time></trkpt><trkpt lat="40.9127967" lon="14.2899833"><ele>63.0</ele><time>2026-03-29T06:08:14.297Z</time></trkpt><trkpt lat="40.9128567" lon="14.2900317"><ele>63.0</ele><time>2026-03-29T06:08:15.296Z</time></trkpt><trkpt lat="40.9129233" lon="14.2900767"><ele>63.0</ele><time>2026-03-29T06:08:16.297Z</time></trkpt><trkpt lat="40.9129817" lon="14.2901183"><ele>63.0</ele><time>2026-03-29T06:08:17.296Z</time></trkpt><trkpt lat="40.9130467" lon="14.2901517"><ele>63.0</ele><time>2026-03-29T06:08:18.297Z</time></trkpt><trkpt lat="40.91312" lon="14.29018"><ele>63.0</ele><time>2026-03-29T06:08:19.295Z</time></trkpt><trkpt lat="40.9131883" lon="14.2902083"><ele>63.0</ele><time>2026-03-29T06:08:20.295Z</time></trkpt><trkpt lat="40.9132567" lon="14.2902417"><ele>63.0</ele><time>2026-03-29T06:08:21.296Z</time></trkpt><trkpt lat="40.91333" lon="14.2902967"><ele>63.0</ele><time>2026-03-29T06:08:22.295Z</time></trkpt><trkpt lat="40.9134033" lon="14.290335"><ele>62.85714285714286</ele><time>2026-03-29T06:08:23.295Z</time></trkpt><trkpt lat="40.9134717" lon="14.290365"><ele>62.714285714285715</ele><time>2026-03-29T06:08:24.297Z</time></trkpt><trkpt lat="40.913535" lon="14.2903933"><ele>62.57142857142857</ele><time>2026-03-29T06:08:25.296Z</time></trkpt><trkpt lat="40.9136067" lon="14.2904333"><ele>62.42857142857143</ele><time>2026-03-29T06:08:26.297Z</time></trkpt><trkpt lat="40.9136733" lon="14.2904667"><ele>62.28571428571429</ele><time>2026-03-29T06:08:27.296Z</time></trkpt><trkpt lat="40.913735" lon="14.2904967"><ele>62.142857142857146</ele><time>2026-03-29T06:08:28.297Z</time></trkpt><trkpt lat="40.9138" lon="14.29052"><ele>62.0</ele><time>2026-03-29T06:08:29.296Z</time></trkpt><trkpt lat="40.913865" lon="14.290535"><ele>62.00000000000001</ele><time>2026-03-29T06:08:30.297Z</time></trkpt><trkpt lat="40.9139367" lon="14.2905417"><ele>62.0</ele><time>2026-03-29T06:08:31.297Z</time></trkpt><trkpt lat="40.91401" lon="14.2905467"><ele>62.0</ele><time>2026-03-29T06:08:32.297Z</time></trkpt><trkpt lat="40.9140883" lon="14.2905517"><ele>62.0</ele><time>2026-03-29T06:08:33.296Z</time></trkpt><trkpt lat="40.9141667" lon="14.2905617"><ele>62.00000000000001</ele><time>2026-03-29T06:08:34.297Z</time></trkpt><trkpt lat="40.91425" lon="14.2905833"><ele>62.0</ele><time>2026-03-29T06:08:35.296Z</time></trkpt><trkpt lat="40.914335" lon="14.2905967"><ele>61.50000000000001</ele><time>2026-03-29T06:08:36.297Z</time></trkpt><trkpt lat="40.9144233" lon="14.2906117"><ele>61.0</ele><time>2026-03-29T06:08:37.297Z</time></trkpt><trkpt lat="40.914505" lon="14.29061"><ele>60.5</ele><time>2026-03-29T06:08:38.297Z</time></trkpt><trkpt lat="40.9145833" lon="14.290605"><ele>60.0</ele><time>2026-03-29T06:08:39.297Z</time></trkpt><trkpt lat="40.91466" lon="14.290595"><ele>59.50000000000001</ele><time>2026-03-29T06:08:40.297Z</time></trkpt><trkpt lat="40.91474" lon="14.290595"><ele>59.0</ele><time>2026-03-29T06:08:41.296Z</time></trkpt><trkpt lat="40.9148217" lon="14.2905933"><ele>59.00000000000001</ele><time>2026-03-29T06:08:42.297Z</time></trkpt><trkpt lat="40.9149017" lon="14.290595"><ele>59.0</ele><time>2026-03-29T06:08:43.298Z</time></trkpt><trkpt lat="40.9149833" lon="14.29059"><ele>59.0</ele><time>2026-03-29T06:08:44.297Z</time></trkpt><trkpt lat="40.9150583" lon="14.2905867"><ele>59.0</ele><time>2026-03-29T06:08:45.296Z</time></trkpt><trkpt lat="40.9151333" lon="14.2905817"><ele>59.00000000000001</ele><time>2026-03-29T06:08:46.296Z</time></trkpt><trkpt lat="40.915205" lon="14.290575"><ele>59.0</ele><time>2026-03-29T06:08:47.296Z</time></trkpt><trkpt lat="40.9152767" lon="14.2905717"><ele>59.00000000000001</ele><time>2026-03-29T06:08:48.297Z</time></trkpt><trkpt lat="40.9153533" lon="14.2905717"><ele>59.0</ele><time>2026-03-29T06:08:49.298Z</time></trkpt><trkpt lat="40.9154283" lon="14.29057"><ele>59.0</ele><time>2026-03-29T06:08:50.297Z</time></trkpt><trkpt lat="40.9155033" lon="14.2905667"><ele>59.0</ele><time>2026-03-29T06:08:51.297Z</time></trkpt><trkpt lat="40.9155783" lon="14.290555"><ele>59.00000000000001</ele><time>2026-03-29T06:08:52.296Z</time></trkpt><trkpt lat="40.915655" lon="14.2905567"><ele>59.0</ele><time>2026-03-29T06:08:53.297Z</time></trkpt><trkpt lat="40.915735" lon="14.2905583"><ele>59.00000000000001</ele><time>2026-03-29T06:08:54.297Z</time></trkpt><trkpt lat="40.915815" lon="14.2905633"><ele>59.0</ele><time>2026-03-29T06:08:55.298Z</time></trkpt><trkpt lat="40.915895" lon="14.29057"><ele>59.0</ele><time>2026-03-29T06:08:56.297Z</time></trkpt><trkpt lat="40.91597" lon="14.2905833"><ele>59.0</ele><time>2026-03-29T06:08:57.296Z</time></trkpt><trkpt lat="40.9160433" lon="14.29061"><ele>59.00000000000001</ele><time>2026-03-29T06:08:58.297Z</time></trkpt><trkpt lat="40.916115" lon="14.2906417"><ele>59.0</ele><time>2026-03-29T06:08:59.296Z</time></trkpt><trkpt lat="40.9161883" lon="14.2906783"><ele>58.71428571428571</ele><time>2026-03-29T06:09:00.297Z</time></trkpt><trkpt lat="40.91626" lon="14.2907167"><ele>58.42857142857143</ele><time>2026-03-29T06:09:01.297Z</time></trkpt><trkpt lat="40.9163267" lon="14.2907583"><ele>58.14285714285714</ele><time>2026-03-29T06:09:02.297Z</time></trkpt><trkpt lat="40.91639" lon="14.2907967"><ele>57.857142857142854</ele><time>2026-03-29T06:09:03.295Z</time></trkpt><trkpt lat="40.9164533" lon="14.2908367"><ele>57.57142857142857</ele><time>2026-03-29T06:09:04.296Z</time></trkpt><trkpt lat="40.916515" lon="14.2908733"><ele>57.285714285714285</ele><time>2026-03-29T06:09:05.297Z</time></trkpt><trkpt lat="40.9165767" lon="14.290905"><ele>57.0</ele><time>2026-03-29T06:09:06.295Z</time></trkpt><trkpt lat="40.91664" lon="14.2909367"><ele>57.0</ele><time>2026-03-29T06:09:07.298Z</time></trkpt><trkpt lat="40.9167017" lon="14.2909733"><ele>57.0</ele><time>2026-03-29T06:09:08.295Z</time></trkpt><trkpt lat="40.916765" lon="14.291005"><ele>57.0</ele><time>2026-03-29T06:09:09.297Z</time></trkpt><trkpt lat="40.9168283" lon="14.2910383"><ele>57.0</ele><time>2026-03-29T06:09:10.296Z</time></trkpt><trkpt lat="40.916945" lon="14.2911067"><ele>57.0</ele><time>2026-03-29T06:09:12.297Z</time></trkpt><trkpt lat="40.9170033" lon="14.2911467"><ele>57.0</ele><time>2026-03-29T06:09:13.298Z</time></trkpt><trkpt lat="40.9171167" lon="14.291215"><ele>57.0</ele><time>2026-03-29T06:09:15.296Z</time></trkpt><trkpt lat="40.9171733" lon="14.2912533"><ele>57.0</ele><time>2026-03-29T06:09:16.297Z</time></trkpt><trkpt lat="40.9172817" lon="14.2913283"><ele>57.0</ele><time>2026-03-29T06:09:18.296Z</time></trkpt><trkpt lat="40.91739" lon="14.291405"><ele>57.0</ele><time>2026-03-29T06:09:20.295Z</time></trkpt><trkpt lat="40.9174467" lon="14.2914433"><ele>57.0</ele><time>2026-03-29T06:09:21.296Z</time></trkpt><trkpt lat="40.9175633" lon="14.29152"><ele>56.666666666666664</ele><time>2026-03-29T06:09:23.297Z</time></trkpt><trkpt lat="40.9176267" lon="14.29156"><ele>56.33333333333333</ele><time>2026-03-29T06:09:24.297Z</time></trkpt><trkpt lat="40.9176867" lon="14.2916"><ele>56.0</ele><time>2026-03-29T06:09:25.297Z</time></trkpt><trkpt lat="40.917745" lon="14.2916367"><ele>55.666666666666664</ele><time>2026-03-29T06:09:26.297Z</time></trkpt><trkpt lat="40.9178017" lon="14.2916767"><ele>55.33333333333333</ele><time>2026-03-29T06:09:27.296Z</time></trkpt><trkpt lat="40.9179183" lon="14.2917383"><ele>55.0</ele><time>2026-03-29T06:09:29.297Z</time></trkpt><trkpt lat="40.9179767" lon="14.2917733"><ele>54.99999999999999</ele><time>2026-03-29T06:09:30.297Z</time></trkpt><trkpt lat="40.9180367" lon="14.2918067"><ele>55.0</ele><time>2026-03-29T06:09:31.297Z</time></trkpt><trkpt lat="40.9181533" lon="14.29185"><ele>55.0</ele><time>2026-03-29T06:09:33.297Z</time></trkpt><trkpt lat="40.9182667" lon="14.2918983"><ele>55.0</ele><time>2026-03-29T06:09:35.298Z</time></trkpt><trkpt lat="40.9183267" lon="14.2919267"><ele>54.99999999999999</ele><time>2026-03-29T06:09:36.297Z</time></trkpt><trkpt lat="40.91839" lon="14.2919467"><ele>55.0</ele><time>2026-03-29T06:09:37.297Z</time></trkpt><trkpt lat="40.91845" lon="14.2919767"><ele>54.99999999999999</ele><time>2026-03-29T06:09:38.296Z</time></trkpt><trkpt lat="40.9185117" lon="14.292005"><ele>55.0</ele><time>2026-03-29T06:09:39.295Z</time></trkpt><trkpt lat="40.918575" lon="14.2920317"><ele>55.0</ele><time>2026-03-29T06:09:40.297Z</time></trkpt><trkpt lat="40.9186933" lon="14.29207"><ele>55.0</ele><time>2026-03-29T06:09:42.297Z</time></trkpt><trkpt lat="40.9187533" lon="14.2920967"><ele>55.0</ele><time>2026-03-29T06:09:43.297Z</time></trkpt><trkpt lat="40.918815" lon="14.292125"><ele>54.99999999999999</ele><time>2026-03-29T06:09:44.295Z</time></trkpt><trkpt lat="40.9188767" lon="14.292155"><ele>55.0</ele><time>2026-03-29T06:09:45.296Z</time></trkpt><trkpt lat="40.9189383" lon="14.2921783"><ele>55.0</ele><time>2026-03-29T06:09:46.295Z</time></trkpt><trkpt lat="40.9189983" lon="14.2922083"><ele>55.0</ele><time>2026-03-29T06:09:47.297Z</time></trkpt><trkpt lat="40.9190583" lon="14.2922383"><ele>55.0</ele><time>2026-03-29T06:09:48.297Z</time></trkpt><trkpt lat="40.919175" lon="14.2922933"><ele>55.0</ele><time>2026-03-29T06:09:50.297Z</time></trkpt><trkpt lat="40.9192933" lon="14.2923433"><ele>55.0</ele><time>2026-03-29T06:09:52.297Z</time></trkpt><trkpt lat="40.919415" lon="14.292405"><ele>54.71428571428571</ele><time>2026-03-29T06:09:54.297Z</time></trkpt><trkpt lat="40.9194767" lon="14.2924417"><ele>54.42857142857143</ele><time>2026-03-29T06:09:55.298Z</time></trkpt><trkpt lat="40.919535" lon="14.292485"><ele>54.14285714285714</ele><time>2026-03-29T06:09:56.297Z</time></trkpt><trkpt lat="40.9195933" lon="14.292535"><ele>53.857142857142854</ele><time>2026-03-29T06:09:57.296Z</time></trkpt><trkpt lat="40.9196483" lon="14.2925933"><ele>53.57142857142857</ele><time>2026-03-29T06:09:58.297Z</time></trkpt><trkpt lat="40.9197033" lon="14.2926433"><ele>53.285714285714285</ele><time>2026-03-29T06:09:59.298Z</time></trkpt><trkpt lat="40.9197583" lon="14.2926967"><ele>53.0</ele><time>2026-03-29T06:10:00.297Z</time></trkpt><trkpt lat="40.919815" lon="14.29275"><ele>53.0</ele><time>2026-03-29T06:10:01.298Z</time></trkpt><trkpt lat="40.9198683" lon="14.2928033"><ele>53.0</ele><time>2026-03-29T06:10:02.297Z</time></trkpt><trkpt lat="40.9199183" lon="14.292865"><ele>53.0</ele><time>2026-03-29T06:10:03.295Z</time></trkpt><trkpt lat="40.9199633" lon="14.2929367"><ele>53.0</ele><time>2026-03-29T06:10:04.297Z</time></trkpt><trkpt lat="40.919995" lon="14.2930217"><ele>53.0</ele><time>2026-03-29T06:10:05.297Z</time></trkpt><trkpt lat="40.920015" lon="14.293115"><ele>53.0</ele><time>2026-03-29T06:10:06.297Z</time></trkpt><trkpt lat="40.920015" lon="14.2932083"><ele>53.0</ele><time>2026-03-29T06:10:07.298Z</time></trkpt><trkpt lat="40.9200017" lon="14.2933"><ele>53.142857142857146</ele><time>2026-03-29T06:10:08.296Z</time></trkpt><trkpt lat="40.91998" lon="14.2933883"><ele>53.285714285714285</ele><time>2026-03-29T06:10:09.298Z</time></trkpt><trkpt lat="40.9199533" lon="14.2934767"><ele>53.42857142857143</ele><time>2026-03-29T06:10:10.297Z</time></trkpt><trkpt lat="40.9199167" lon="14.2935533"><ele>53.57142857142857</ele><time>2026-03-29T06:10:11.297Z</time></trkpt><trkpt lat="40.9198733" lon="14.2936317"><ele>53.71428571428571</ele><time>2026-03-29T06:10:12.297Z</time></trkpt><trkpt lat="40.919835" lon="14.2937083"><ele>53.857142857142854</ele><time>2026-03-29T06:10:13.297Z</time></trkpt><trkpt lat="40.9198033" lon="14.2937883"><ele>54.0</ele><time>2026-03-29T06:10:14.297Z</time></trkpt><trkpt lat="40.9197717" lon="14.293865"><ele>54.2</ele><time>2026-03-29T06:10:15.296Z</time></trkpt><trkpt lat="40.9197417" lon="14.2939417"><ele>54.400000000000006</ele><time>2026-03-29T06:10:16.297Z</time></trkpt><trkpt lat="40.9196917" lon="14.2940833"><ele>54.6</ele><time>2026-03-29T06:10:18.297Z</time></trkpt><trkpt lat="40.9196367" lon="14.2942233"><ele>54.8</ele><time>2026-03-29T06:10:20.295Z</time></trkpt><trkpt lat="40.91958" lon="14.2943717"><ele>55.0</ele><time>2026-03-29T06:10:22.297Z</time></trkpt><trkpt lat="40.9195483" lon="14.2944467"><ele>54.99999999999999</ele><time>2026-03-29T06:10:23.296Z</time></trkpt><trkpt lat="40.9195233" lon="14.2945267"><ele>55.0</ele><time>2026-03-29T06:10:24.297Z</time></trkpt><trkpt lat="40.9195017" lon="14.2946067"><ele>55.0</ele><time>2026-03-29T06:10:25.297Z</time></trkpt><trkpt lat="40.91948" lon="14.294685"><ele>55.0</ele><time>2026-03-29T06:10:26.297Z</time></trkpt><trkpt lat="40.9194333" lon="14.29484"><ele>54.99999999999999</ele><time>2026-03-29T06:10:28.297Z</time></trkpt><trkpt lat="40.91941" lon="14.2949267"><ele>55.0</ele><time>2026-03-29T06:10:29.297Z</time></trkpt><trkpt lat="40.9193867" lon="14.295015"><ele>54.666666666666664</ele><time>2026-03-29T06:10:30.295Z</time></trkpt><trkpt lat="40.9193667" lon="14.2951033"><ele>54.33333333333333</ele><time>2026-03-29T06:10:31.298Z</time></trkpt><trkpt lat="40.9193467" lon="14.29519"><ele>54.0</ele><time>2026-03-29T06:10:32.296Z</time></trkpt><trkpt lat="40.9193333" lon="14.2952717"><ele>53.66666666666667</ele><time>2026-03-29T06:10:33.296Z</time></trkpt><trkpt lat="40.9193067" lon="14.2954333"><ele>53.333333333333336</ele><time>2026-03-29T06:10:35.297Z</time></trkpt><trkpt lat="40.9193" lon="14.29552"><ele>53.0</ele><time>2026-03-29T06:10:36.297Z</time></trkpt><trkpt lat="40.9192933" lon="14.2956033"><ele>52.714285714285715</ele><time>2026-03-29T06:10:37.296Z</time></trkpt><trkpt lat="40.9192867" lon="14.2956883"><ele>52.42857142857142</ele><time>2026-03-29T06:10:38.296Z</time></trkpt><trkpt lat="40.919285" lon="14.295775"><ele>52.14285714285714</ele><time>2026-03-29T06:10:39.296Z</time></trkpt><trkpt lat="40.91928" lon="14.295865"><ele>51.85714285714286</ele><time>2026-03-29T06:10:40.295Z</time></trkpt><trkpt lat="40.9192733" lon="14.2959533"><ele>51.57142857142857</ele><time>2026-03-29T06:10:41.297Z</time></trkpt><trkpt lat="40.9192683" lon="14.2960433"><ele>51.285714285714285</ele><time>2026-03-29T06:10:42.297Z</time></trkpt><trkpt lat="40.9192617" lon="14.2961367"><ele>51.0</ele><time>2026-03-29T06:10:43.296Z</time></trkpt><trkpt lat="40.9192583" lon="14.29623"><ele>51.0</ele><time>2026-03-29T06:10:44.296Z</time></trkpt><trkpt lat="40.919255" lon="14.296315"><ele>51.0</ele><time>2026-03-29T06:10:45.295Z</time></trkpt><trkpt lat="40.9192483" lon="14.2964017"><ele>51.0</ele><time>2026-03-29T06:10:46.297Z</time></trkpt><trkpt lat="40.919245" lon="14.2964883"><ele>51.0</ele><time>2026-03-29T06:10:47.296Z</time></trkpt><trkpt lat="40.9192417" lon="14.2965717"><ele>51.0</ele><time>2026-03-29T06:10:48.295Z</time></trkpt><trkpt lat="40.919225" lon="14.2967317"><ele>51.0</ele><time>2026-03-29T06:10:50.297Z</time></trkpt><trkpt lat="40.9192117" lon="14.2968983"><ele>51.166666666666664</ele><time>2026-03-29T06:10:52.297Z</time></trkpt><trkpt lat="40.9192033" lon="14.296985"><ele>51.33333333333333</ele><time>2026-03-29T06:10:53.297Z</time></trkpt><trkpt lat="40.91921" lon="14.2971517"><ele>51.5</ele><time>2026-03-29T06:10:55.296Z</time></trkpt><trkpt lat="40.9192067" lon="14.2973217"><ele>51.666666666666664</ele><time>2026-03-29T06:10:57.295Z</time></trkpt><trkpt lat="40.919215" lon="14.297405"><ele>51.83333333333333</ele><time>2026-03-29T06:10:58.295Z</time></trkpt><trkpt lat="40.91922" lon="14.29749"><ele>52.0</ele><time>2026-03-29T06:10:59.297Z</time></trkpt><trkpt lat="40.9192183" lon="14.2975733"><ele>52.0</ele><time>2026-03-29T06:11:00.296Z</time></trkpt><trkpt lat="40.9192167" lon="14.2976583"><ele>52.0</ele><time>2026-03-29T06:11:01.296Z</time></trkpt><trkpt lat="40.9192167" lon="14.2978167"><ele>52.0</ele><time>2026-03-29T06:11:03.295Z</time></trkpt><trkpt lat="40.919215" lon="14.2979"><ele>52.0</ele><time>2026-03-29T06:11:04.297Z</time></trkpt><trkpt lat="40.9192117" lon="14.2979883"><ele>52.0</ele><time>2026-03-29T06:11:05.295Z</time></trkpt><trkpt lat="40.9192067" lon="14.2980717"><ele>52.0</ele><time>2026-03-29T06:11:06.296Z</time></trkpt><trkpt lat="40.9192" lon="14.2981583"><ele>52.0</ele><time>2026-03-29T06:11:07.297Z</time></trkpt><trkpt lat="40.919195" lon="14.2982417"><ele>51.83333333333333</ele><time>2026-03-29T06:11:08.297Z</time></trkpt><trkpt lat="40.9191933" lon="14.298325"><ele>51.666666666666664</ele><time>2026-03-29T06:11:09.295Z</time></trkpt><trkpt lat="40.9191967" lon="14.2984083"><ele>51.5</ele><time>2026-03-29T06:11:10.295Z</time></trkpt><trkpt lat="40.9191967" lon="14.2984917"><ele>51.33333333333333</ele><time>2026-03-29T06:11:11.297Z</time></trkpt><trkpt lat="40.919195" lon="14.2986567"><ele>51.166666666666664</ele><time>2026-03-29T06:11:13.297Z</time></trkpt><trkpt lat="40.919195" lon="14.29881"><ele>51.0</ele><time>2026-03-29T06:11:15.295Z</time></trkpt><trkpt lat="40.9191883" lon="14.2989717"><ele>51.0</ele><time>2026-03-29T06:11:17.297Z</time></trkpt><trkpt lat="40.91918" lon="14.29913"><ele>51.0</ele><time>2026-03-29T06:11:19.297Z</time></trkpt><trkpt lat="40.91917" lon="14.29929"><ele>51.0</ele><time>2026-03-29T06:11:21.295Z</time></trkpt><trkpt lat="40.919165" lon="14.299445"><ele>51.0</ele><time>2026-03-29T06:11:23.297Z</time></trkpt><trkpt lat="40.91916" lon="14.2996017"><ele>51.0</ele><time>2026-03-29T06:11:25.297Z</time></trkpt><trkpt lat="40.9191467" lon="14.299745"><ele>51.0</ele><time>2026-03-29T06:11:27.295Z</time></trkpt><trkpt lat="40.919165" lon="14.2998883"><ele>51.0</ele><time>2026-03-29T06:11:29.297Z</time></trkpt><trkpt lat="40.9191717" lon="14.3000583"><ele>51.0</ele><time>2026-03-29T06:11:31.297Z</time></trkpt><trkpt lat="40.9191817" lon="14.3002183"><ele>51.0</ele><time>2026-03-29T06:11:33.295Z</time></trkpt><trkpt lat="40.9191833" lon="14.300305"><ele>51.0</ele><time>2026-03-29T06:11:34.297Z</time></trkpt><trkpt lat="40.9191767" lon="14.30039"><ele>51.0</ele><time>2026-03-29T06:11:35.297Z</time></trkpt><trkpt lat="40.91917" lon="14.3005467"><ele>51.0</ele><time>2026-03-29T06:11:37.297Z</time></trkpt><trkpt lat="40.91916" lon="14.3006983"><ele>51.0</ele><time>2026-03-29T06:11:39.297Z</time></trkpt><trkpt lat="40.91915" lon="14.3008517"><ele>51.0</ele><time>2026-03-29T06:11:41.297Z</time></trkpt><trkpt lat="40.9191417" lon="14.3010133"><ele>51.0</ele><time>2026-03-29T06:11:43.297Z</time></trkpt><trkpt lat="40.9191383" lon="14.3011033"><ele>51.0</ele><time>2026-03-29T06:11:44.297Z</time></trkpt><trkpt lat="40.9191317" lon="14.3012483"><ele>51.0</ele><time>2026-03-29T06:11:46.297Z</time></trkpt><trkpt lat="40.919115" lon="14.3013833"><ele>51.0</ele><time>2026-03-29T06:11:48.297Z</time></trkpt><trkpt lat="40.919125" lon="14.301515"><ele>51.0</ele><time>2026-03-29T06:11:50.296Z</time></trkpt><trkpt lat="40.9191167" lon="14.3016517"><ele>51.0</ele><time>2026-03-29T06:11:52.299Z</time></trkpt><trkpt lat="40.91912" lon="14.3017817"><ele>51.0</ele><time>2026-03-29T06:11:54.297Z</time></trkpt><trkpt lat="40.9191267" lon="14.3018933"><ele>51.0</ele><time>2026-03-29T06:11:56.295Z</time></trkpt><trkpt lat="40.9191233" lon="14.3020383"><ele>51.0</ele><time>2026-03-29T06:11:58.295Z</time></trkpt><trkpt lat="40.919135" lon="14.3021817"><ele>51.0</ele><time>2026-03-29T06:12:00.297Z</time></trkpt><trkpt lat="40.9191317" lon="14.3023283"><ele>51.0</ele><time>2026-03-29T06:12:02.297Z</time></trkpt><trkpt lat="40.9191283" lon="14.3024667"><ele>51.0</ele><time>2026-03-29T06:12:04.297Z</time></trkpt><trkpt lat="40.9191267" lon="14.3026133"><ele>51.0</ele><time>2026-03-29T06:12:06.297Z</time></trkpt><trkpt lat="40.9191333" lon="14.3026983"><ele>51.0</ele><time>2026-03-29T06:12:07.297Z</time></trkpt><trkpt lat="40.919135" lon="14.302785"><ele>51.0</ele><time>2026-03-29T06:12:08.295Z</time></trkpt><trkpt lat="40.9191367" lon="14.3028717"><ele>51.0</ele><time>2026-03-29T06:12:09.295Z</time></trkpt><trkpt lat="40.919145" lon="14.302965"><ele>51.0</ele><time>2026-03-29T06:12:10.295Z</time></trkpt><trkpt lat="40.9191483" lon="14.3031317"><ele>51.0</ele><time>2026-03-29T06:12:12.297Z</time></trkpt><trkpt lat="40.91915" lon="14.30322"><ele>51.0</ele><time>2026-03-29T06:12:13.297Z</time></trkpt><trkpt lat="40.91912" lon="14.30334"><ele>51.0</ele><time>2026-03-29T06:12:14.297Z</time></trkpt><trkpt lat="40.919115" lon="14.3034433"><ele>51.0</ele><time>2026-03-29T06:12:15.297Z</time></trkpt><trkpt lat="40.9191217" lon="14.3035283"><ele>51.0</ele><time>2026-03-29T06:12:16.297Z</time></trkpt><trkpt lat="40.91913" lon="14.3036133"><ele>51.0</ele><time>2026-03-29T06:12:17.295Z</time></trkpt><trkpt lat="40.9191333" lon="14.3037767"><ele>51.0</ele><time>2026-03-29T06:12:19.297Z</time></trkpt><trkpt lat="40.9191333" lon="14.303935"><ele>51.0</ele><time>2026-03-29T06:12:21.296Z</time></trkpt><trkpt lat="40.9191367" lon="14.304095"><ele>51.0</ele><time>2026-03-29T06:12:23.295Z</time></trkpt><trkpt lat="40.9191483" lon="14.3042567"><ele>51.0</ele><time>2026-03-29T06:12:25.296Z</time></trkpt><trkpt lat="40.9191633" lon="14.304405"><ele>51.0</ele><time>2026-03-29T06:12:27.295Z</time></trkpt><trkpt lat="40.91916" lon="14.3045583"><ele>51.0</ele><time>2026-03-29T06:12:29.295Z</time></trkpt><trkpt lat="40.9191533" lon="14.3047017"><ele>50.833333333333336</ele><time>2026-03-29T06:12:31.296Z</time></trkpt><trkpt lat="40.9191583" lon="14.3048467"><ele>50.66666666666667</ele><time>2026-03-29T06:12:33.297Z</time></trkpt><trkpt lat="40.91913" lon="14.3050083"><ele>50.5</ele><time>2026-03-29T06:12:35.295Z</time></trkpt><trkpt lat="40.9191233" lon="14.305095"><ele>50.333333333333336</ele><time>2026-03-29T06:12:36.297Z</time></trkpt><trkpt lat="40.9191283" lon="14.3051817"><ele>50.16666666666667</ele><time>2026-03-29T06:12:37.295Z</time></trkpt><trkpt lat="40.9191333" lon="14.3052667"><ele>50.0</ele><time>2026-03-29T06:12:38.295Z</time></trkpt><trkpt lat="40.91914" lon="14.305355"><ele>50.0</ele><time>2026-03-29T06:12:39.297Z</time></trkpt><trkpt lat="40.91915" lon="14.305525"><ele>50.0</ele><time>2026-03-29T06:12:41.295Z</time></trkpt><trkpt lat="40.9191617" lon="14.305675"><ele>50.0</ele><time>2026-03-29T06:12:43.297Z</time></trkpt><trkpt lat="40.9191717" lon="14.3058267"><ele>50.0</ele><time>2026-03-29T06:12:45.295Z</time></trkpt><trkpt lat="40.9191817" lon="14.3059967"><ele>49.8</ele><time>2026-03-29T06:12:47.295Z</time></trkpt><trkpt lat="40.9191767" lon="14.3061167"><ele>49.6</ele><time>2026-03-29T06:12:49.296Z</time></trkpt><trkpt lat="40.9190917" lon="14.306175"><ele>49.400000000000006</ele><time>2026-03-29T06:12:50.295Z</time></trkpt><trkpt lat="40.9190717" lon="14.306295"><ele>49.2</ele><time>2026-03-29T06:12:52.295Z</time></trkpt><trkpt lat="40.9190867" lon="14.3064433"><ele>49.0</ele><time>2026-03-29T06:12:54.295Z</time></trkpt><trkpt lat="40.9190967" lon="14.3065817"><ele>48.800000000000004</ele><time>2026-03-29T06:12:56.296Z</time></trkpt><trkpt lat="40.9191083" lon="14.306715"><ele>48.6</ele><time>2026-03-29T06:12:58.296Z</time></trkpt><trkpt lat="40.919075" lon="14.3068367"><ele>48.4</ele><time>2026-03-29T06:13:00.295Z</time></trkpt><trkpt lat="40.919065" lon="14.30694"><ele>48.2</ele><time>2026-03-29T06:13:02.296Z</time></trkpt><trkpt lat="40.9190467" lon="14.3070617"><ele>48.0</ele><time>2026-03-29T06:13:04.296Z</time></trkpt><trkpt lat="40.9190383" lon="14.3072267"><ele>48.0</ele><time>2026-03-29T06:13:06.297Z</time></trkpt><trkpt lat="40.9190283" lon="14.30737"><ele>48.0</ele><time>2026-03-29T06:13:08.295Z</time></trkpt><trkpt lat="40.9190333" lon="14.30751"><ele>48.0</ele><time>2026-03-29T06:13:10.297Z</time></trkpt><trkpt lat="40.9190333" lon="14.30765"><ele>48.0</ele><time>2026-03-29T06:13:12.297Z</time></trkpt><trkpt lat="40.9190383" lon="14.3077767"><ele>48.0</ele><time>2026-03-29T06:13:14.297Z</time></trkpt><trkpt lat="40.9190317" lon="14.3078933"><ele>48.0</ele><time>2026-03-29T06:13:16.295Z</time></trkpt><trkpt lat="40.9190367" lon="14.3080167"><ele>48.0</ele><time>2026-03-29T06:13:18.295Z</time></trkpt><trkpt lat="40.91905" lon="14.3081017"><ele>48.0</ele><time>2026-03-29T06:13:19.297Z</time></trkpt><trkpt lat="40.91905" lon="14.30824"><ele>48.0</ele><time>2026-03-29T06:13:21.295Z</time></trkpt><trkpt lat="40.9190367" lon="14.3083917"><ele>48.0</ele><time>2026-03-29T06:13:23.297Z</time></trkpt><trkpt lat="40.9190283" lon="14.3085317"><ele>48.0</ele><time>2026-03-29T06:13:25.296Z</time></trkpt><trkpt lat="40.9190283" lon="14.3086767"><ele>48.0</ele><time>2026-03-29T06:13:27.296Z</time></trkpt><trkpt lat="40.9190383" lon="14.3088133"><ele>48.0</ele><time>2026-03-29T06:13:29.297Z</time></trkpt><trkpt lat="40.91906" lon="14.3089567"><ele>48.0</ele><time>2026-03-29T06:13:31.297Z</time></trkpt><trkpt lat="40.91907" lon="14.3090817"><ele>48.0</ele><time>2026-03-29T06:13:33.295Z</time></trkpt><trkpt lat="40.9190717" lon="14.3092167"><ele>48.0</ele><time>2026-03-29T06:13:35.297Z</time></trkpt><trkpt lat="40.9190817" lon="14.3093467"><ele>48.0</ele><time>2026-03-29T06:13:37.295Z</time></trkpt><trkpt lat="40.9190833" lon="14.3094967"><ele>48.0</ele><time>2026-03-29T06:13:39.296Z</time></trkpt><trkpt lat="40.9191033" lon="14.3096483"><ele>48.0</ele><time>2026-03-29T06:13:41.297Z</time></trkpt><trkpt lat="40.9191167" lon="14.3097867"><ele>48.0</ele><time>2026-03-29T06:13:43.297Z</time></trkpt><trkpt lat="40.9191" lon="14.3099267"><ele>48.0</ele><time>2026-03-29T06:13:45.296Z</time></trkpt><trkpt lat="40.91911" lon="14.3100617"><ele>48.0</ele><time>2026-03-29T06:13:47.297Z</time></trkpt><trkpt lat="40.9191017" lon="14.3101633"><ele>48.0</ele><time>2026-03-29T06:13:48.297Z</time></trkpt><trkpt lat="40.9190833" lon="14.3102433"><ele>48.0</ele><time>2026-03-29T06:13:49.297Z</time></trkpt><trkpt lat="40.9190683" lon="14.3104033"><ele>48.0</ele><time>2026-03-29T06:13:51.296Z</time></trkpt><trkpt lat="40.9190617" lon="14.3105667"><ele>48.0</ele><time>2026-03-29T06:13:53.295Z</time></trkpt><trkpt lat="40.9190767" lon="14.3107267"><ele>48.0</ele><time>2026-03-29T06:13:55.297Z</time></trkpt><trkpt lat="40.9190883" lon="14.3108133"><ele>48.0</ele><time>2026-03-29T06:13:56.295Z</time></trkpt><trkpt lat="40.9190967" lon="14.3109733"><ele>48.0</ele><time>2026-03-29T06:13:58.297Z</time></trkpt><trkpt lat="40.9191117" lon="14.311055"><ele>48.0</ele><time>2026-03-29T06:13:59.298Z</time></trkpt><trkpt lat="40.9191083" lon="14.311215"><ele>48.0</ele><time>2026-03-29T06:14:01.296Z</time></trkpt><trkpt lat="40.9190783" lon="14.3113867"><ele>48.0</ele><time>2026-03-29T06:14:03.296Z</time></trkpt><trkpt lat="40.91907" lon="14.3115533"><ele>48.0</ele><time>2026-03-29T06:14:05.296Z</time></trkpt><trkpt lat="40.91906" lon="14.3116383"><ele>48.0</ele><time>2026-03-29T06:14:06.295Z</time></trkpt><trkpt lat="40.919055" lon="14.3117233"><ele>48.0</ele><time>2026-03-29T06:14:07.296Z</time></trkpt><trkpt lat="40.91906" lon="14.3118067"><ele>47.833333333333336</ele><time>2026-03-29T06:14:08.295Z</time></trkpt><trkpt lat="40.91906" lon="14.3119717"><ele>47.666666666666664</ele><time>2026-03-29T06:14:10.296Z</time></trkpt><trkpt lat="40.919065" lon="14.312055"><ele>47.5</ele><time>2026-03-29T06:14:11.297Z</time></trkpt><trkpt lat="40.9190617" lon="14.312145"><ele>47.33333333333333</ele><time>2026-03-29T06:14:12.297Z</time></trkpt><trkpt lat="40.9190633" lon="14.31223"><ele>47.166666666666664</ele><time>2026-03-29T06:14:13.296Z</time></trkpt><trkpt lat="40.919065" lon="14.312315"><ele>47.0</ele><time>2026-03-29T06:14:14.295Z</time></trkpt><trkpt lat="40.9190783" lon="14.3124267"><ele>47.0</ele><time>2026-03-29T06:14:15.295Z</time></trkpt><trkpt lat="40.91908" lon="14.3125917"><ele>47.0</ele><time>2026-03-29T06:14:17.297Z</time></trkpt><trkpt lat="40.9190667" lon="14.312675"><ele>47.0</ele><time>2026-03-29T06:14:18.296Z</time></trkpt><trkpt lat="40.9190317" lon="14.3128317"><ele>47.0</ele><time>2026-03-29T06:14:20.296Z</time></trkpt><trkpt lat="40.919005" lon="14.31298"><ele>47.0</ele><time>2026-03-29T06:14:22.297Z</time></trkpt><trkpt lat="40.9189783" lon="14.3131233"><ele>46.857142857142854</ele><time>2026-03-29T06:14:24.297Z</time></trkpt><trkpt lat="40.9190467" lon="14.3131917"><ele>46.71428571428571</ele><time>2026-03-29T06:14:28.297Z</time></trkpt><trkpt lat="40.9191133" lon="14.3131983"><ele>46.57142857142857</ele><time>2026-03-29T06:14:29.296Z</time></trkpt><trkpt lat="40.9191817" lon="14.3131967"><ele>46.42857142857143</ele><time>2026-03-29T06:14:30.298Z</time></trkpt><trkpt lat="40.9192517" lon="14.3132033"><ele>46.285714285714285</ele><time>2026-03-29T06:14:31.297Z</time></trkpt><trkpt lat="40.919315" lon="14.31321"><ele>46.142857142857146</ele><time>2026-03-29T06:14:32.296Z</time></trkpt><trkpt lat="40.91938" lon="14.3132133"><ele>46.0</ele><time>2026-03-29T06:14:33.295Z</time></trkpt><trkpt lat="40.9194417" lon="14.31323"><ele>45.599999999999994</ele><time>2026-03-29T06:14:34.297Z</time></trkpt><trkpt lat="40.919515" lon="14.3132567"><ele>45.2</ele><time>2026-03-29T06:14:35.295Z</time></trkpt><trkpt lat="40.9195867" lon="14.313285"><ele>44.8</ele><time>2026-03-29T06:14:36.294Z</time></trkpt><trkpt lat="40.9196883" lon="14.3133283"><ele>44.400000000000006</ele><time>2026-03-29T06:14:38.295Z</time></trkpt><trkpt lat="40.91976" lon="14.3134233"><ele>44.0</ele><time>2026-03-29T06:14:40.297Z</time></trkpt><trkpt lat="40.9197867" lon="14.3135617"><ele>44.0</ele><time>2026-03-29T06:14:42.296Z</time></trkpt><trkpt lat="40.91979" lon="14.31365"><ele>44.0</ele><time>2026-03-29T06:14:43.298Z</time></trkpt><trkpt lat="40.919785" lon="14.313805"><ele>44.0</ele><time>2026-03-29T06:14:45.297Z</time></trkpt><trkpt lat="40.91979" lon="14.3139667"><ele>44.0</ele><time>2026-03-29T06:14:47.297Z</time></trkpt><trkpt lat="40.9197917" lon="14.3141317"><ele>44.0</ele><time>2026-03-29T06:14:49.297Z</time></trkpt><trkpt lat="40.9197917" lon="14.3142867"><ele>44.25</ele><time>2026-03-29T06:14:51.297Z</time></trkpt><trkpt lat="40.919785" lon="14.3144417"><ele>44.5</ele><time>2026-03-29T06:14:53.297Z</time></trkpt><trkpt lat="40.9197767" lon="14.3145933"><ele>44.75</ele><time>2026-03-29T06:14:55.298Z</time></trkpt><trkpt lat="40.9197717" lon="14.314745"><ele>45.0</ele><time>2026-03-29T06:14:57.296Z</time></trkpt><trkpt lat="40.9197633" lon="14.3149133"><ele>44.714285714285715</ele><time>2026-03-29T06:14:59.297Z</time></trkpt><trkpt lat="40.91976" lon="14.315"><ele>44.42857142857143</ele><time>2026-03-29T06:15:00.297Z</time></trkpt><trkpt lat="40.9197583" lon="14.3150867"><ele>44.142857142857146</ele><time>2026-03-29T06:15:01.298Z</time></trkpt><trkpt lat="40.919755" lon="14.3151717"><ele>43.85714285714286</ele><time>2026-03-29T06:15:02.297Z</time></trkpt><trkpt lat="40.9197517" lon="14.315265"><ele>43.57142857142857</ele><time>2026-03-29T06:15:03.295Z</time></trkpt><trkpt lat="40.9197467" lon="14.3153483"><ele>43.28571428571429</ele><time>2026-03-29T06:15:04.297Z</time></trkpt><trkpt lat="40.91974" lon="14.315435"><ele>43.0</ele><time>2026-03-29T06:15:05.297Z</time></trkpt><trkpt lat="40.9197283" lon="14.3156033"><ele>42.66666666666667</ele><time>2026-03-29T06:15:07.297Z</time></trkpt><trkpt lat="40.9197283" lon="14.315695"><ele>42.333333333333336</ele><time>2026-03-29T06:15:08.297Z</time></trkpt><trkpt lat="40.9197267" lon="14.3157833"><ele>42.0</ele><time>2026-03-29T06:15:09.295Z</time></trkpt><trkpt lat="40.9197217" lon="14.3158683"><ele>41.666666666666664</ele><time>2026-03-29T06:15:10.297Z</time></trkpt><trkpt lat="40.9197067" lon="14.3160333"><ele>41.33333333333333</ele><time>2026-03-29T06:15:12.296Z</time></trkpt><trkpt lat="40.9196967" lon="14.3161217"><ele>41.0</ele><time>2026-03-29T06:15:13.297Z</time></trkpt><trkpt lat="40.9196917" lon="14.3162067"><ele>40.99999999999999</ele><time>2026-03-29T06:15:14.297Z</time></trkpt><trkpt lat="40.919685" lon="14.3162933"><ele>41.0</ele><time>2026-03-29T06:15:15.294Z</time></trkpt><trkpt lat="40.9196817" lon="14.3163817"><ele>41.0</ele><time>2026-03-29T06:15:16.296Z</time></trkpt><trkpt lat="40.9196767" lon="14.3164667"><ele>41.0</ele><time>2026-03-29T06:15:17.296Z</time></trkpt><trkpt lat="40.91967" lon="14.3165517"><ele>41.0</ele><time>2026-03-29T06:15:18.297Z</time></trkpt><trkpt lat="40.919665" lon="14.316635"><ele>40.99999999999999</ele><time>2026-03-29T06:15:19.297Z</time></trkpt><trkpt lat="40.9196617" lon="14.3167183"><ele>41.0</ele><time>2026-03-29T06:15:20.295Z</time></trkpt><trkpt lat="40.9196583" lon="14.3168833"><ele>40.8</ele><time>2026-03-29T06:15:22.296Z</time></trkpt><trkpt lat="40.9196533" lon="14.3169667"><ele>40.599999999999994</ele><time>2026-03-29T06:15:23.297Z</time></trkpt><trkpt lat="40.9196417" lon="14.3171267"><ele>40.4</ele><time>2026-03-29T06:15:25.297Z</time></trkpt><trkpt lat="40.9196317" lon="14.3172783"><ele>40.2</ele><time>2026-03-29T06:15:27.297Z</time></trkpt><trkpt lat="40.9196267" lon="14.31743"><ele>40.0</ele><time>2026-03-29T06:15:29.296Z</time></trkpt><trkpt lat="40.919615" lon="14.317575"><ele>40.0</ele><time>2026-03-29T06:15:31.297Z</time></trkpt><trkpt lat="40.9195883" lon="14.31772"><ele>40.0</ele><time>2026-03-29T06:15:33.297Z</time></trkpt><trkpt lat="40.91954" lon="14.3178617"><ele>40.0</ele><time>2026-03-29T06:15:35.295Z</time></trkpt><trkpt lat="40.9195333" lon="14.3179817"><ele>40.0</ele><time>2026-03-29T06:15:37.297Z</time></trkpt><trkpt lat="40.91955" lon="14.3180733"><ele>40.0</ele><time>2026-03-29T06:15:39.295Z</time></trkpt><trkpt lat="40.919565" lon="14.3181867"><ele>40.0</ele><time>2026-03-29T06:15:41.296Z</time></trkpt><trkpt lat="40.91957" lon="14.31833"><ele>40.0</ele><time>2026-03-29T06:15:43.297Z</time></trkpt><trkpt lat="40.91958" lon="14.3184667"><ele>40.0</ele><time>2026-03-29T06:15:45.296Z</time></trkpt><trkpt lat="40.9195817" lon="14.3186133"><ele>40.0</ele><time>2026-03-29T06:15:47.295Z</time></trkpt><trkpt lat="40.9195817" lon="14.3186967"><ele>40.0</ele><time>2026-03-29T06:15:48.297Z</time></trkpt><trkpt lat="40.9195867" lon="14.31885"><ele>39.8</ele><time>2026-03-29T06:15:50.296Z</time></trkpt><trkpt lat="40.91959" lon="14.3189333"><ele>39.6</ele><time>2026-03-29T06:15:51.295Z</time></trkpt><trkpt lat="40.9195883" lon="14.319085"><ele>39.4</ele><time>2026-03-29T06:15:53.297Z</time></trkpt><trkpt lat="40.9195883" lon="14.3192517"><ele>39.2</ele><time>2026-03-29T06:15:55.296Z</time></trkpt><trkpt lat="40.919585" lon="14.3194067"><ele>39.0</ele><time>2026-03-29T06:15:57.297Z</time></trkpt><trkpt lat="40.919595" lon="14.3195067"><ele>39.0</ele><time>2026-03-29T06:15:58.296Z</time></trkpt><trkpt lat="40.919605" lon="14.3195967"><ele>39.0</ele><time>2026-03-29T06:15:59.297Z</time></trkpt><trkpt lat="40.9196067" lon="14.319685"><ele>39.0</ele><time>2026-03-29T06:16:00.297Z</time></trkpt><trkpt lat="40.9196133" lon="14.3197733"><ele>39.0</ele><time>2026-03-29T06:16:01.295Z</time></trkpt><trkpt lat="40.9196117" lon="14.3198567"><ele>39.0</ele><time>2026-03-29T06:16:02.295Z</time></trkpt><trkpt lat="40.9196267" lon="14.3199983"><ele>39.0</ele><time>2026-03-29T06:16:03.297Z</time></trkpt><trkpt lat="40.91963" lon="14.3200883"><ele>39.0</ele><time>2026-03-29T06:16:04.297Z</time></trkpt><trkpt lat="40.9196383" lon="14.3202483"><ele>39.0</ele><time>2026-03-29T06:16:06.297Z</time></trkpt><trkpt lat="40.9196467" lon="14.3203983"><ele>39.0</ele><time>2026-03-29T06:16:08.297Z</time></trkpt><trkpt lat="40.9196333" lon="14.3205517"><ele>39.0</ele><time>2026-03-29T06:16:10.295Z</time></trkpt><trkpt lat="40.9196283" lon="14.3206367"><ele>39.0</ele><time>2026-03-29T06:16:11.297Z</time></trkpt><trkpt lat="40.91962" lon="14.3208033"><ele>39.0</ele><time>2026-03-29T06:16:13.297Z</time></trkpt><trkpt lat="40.91962" lon="14.3208917"><ele>38.57142857142858</ele><time>2026-03-29T06:16:14.296Z</time></trkpt><trkpt lat="40.9196283" lon="14.320985"><ele>38.14285714285714</ele><time>2026-03-29T06:16:15.297Z</time></trkpt><trkpt lat="40.9196317" lon="14.3210717"><ele>37.714285714285715</ele><time>2026-03-29T06:16:16.295Z</time></trkpt><trkpt lat="40.91963" lon="14.321155"><ele>37.28571428571429</ele><time>2026-03-29T06:16:17.296Z</time></trkpt><trkpt lat="40.91963" lon="14.3212483"><ele>36.85714285714286</ele><time>2026-03-29T06:16:18.297Z</time></trkpt><trkpt lat="40.919625" lon="14.3213367"><ele>36.42857142857143</ele><time>2026-03-29T06:16:19.295Z</time></trkpt><trkpt lat="40.91962" lon="14.32142"><ele>36.0</ele><time>2026-03-29T06:16:20.297Z</time></trkpt><trkpt lat="40.9196083" lon="14.3215033"><ele>35.6</ele><time>2026-03-29T06:16:21.295Z</time></trkpt><trkpt lat="40.91963" lon="14.3216583"><ele>35.2</ele><time>2026-03-29T06:16:23.297Z</time></trkpt><trkpt lat="40.9196933" lon="14.3218033"><ele>34.8</ele><time>2026-03-29T06:16:25.297Z</time></trkpt><trkpt lat="40.9197183" lon="14.3219233"><ele>34.4</ele><time>2026-03-29T06:16:27.295Z</time></trkpt><trkpt lat="40.919695" lon="14.322065"><ele>34.0</ele><time>2026-03-29T06:16:29.297Z</time></trkpt><trkpt lat="40.9196633" lon="14.3221817"><ele>34.4</ele><time>2026-03-29T06:16:31.298Z</time></trkpt><trkpt lat="40.9196217" lon="14.3223117"><ele>34.8</ele><time>2026-03-29T06:16:33.297Z</time></trkpt><trkpt lat="40.9196067" lon="14.3223967"><ele>35.2</ele><time>2026-03-29T06:16:34.298Z</time></trkpt><trkpt lat="40.9195717" lon="14.3225317"><ele>35.6</ele><time>2026-03-29T06:16:36.297Z</time></trkpt><trkpt lat="40.91954" lon="14.3226633"><ele>36.0</ele><time>2026-03-29T06:16:38.297Z</time></trkpt><trkpt lat="40.9195333" lon="14.3227617"><ele>36.0</ele><time>2026-03-29T06:16:39.297Z</time></trkpt><trkpt lat="40.9195083" lon="14.3229133"><ele>36.0</ele><time>2026-03-29T06:16:41.297Z</time></trkpt><trkpt lat="40.9194967" lon="14.3229983"><ele>36.0</ele><time>2026-03-29T06:16:42.299Z</time></trkpt><trkpt lat="40.9194867" lon="14.323095"><ele>36.0</ele><time>2026-03-29T06:16:43.298Z</time></trkpt><trkpt lat="40.9194917" lon="14.3232033"><ele>36.0</ele><time>2026-03-29T06:16:44.295Z</time></trkpt><trkpt lat="40.9195017" lon="14.3233067"><ele>36.0</ele><time>2026-03-29T06:16:45.296Z</time></trkpt><trkpt lat="40.9195183" lon="14.3234083"><ele>35.85714285714286</ele><time>2026-03-29T06:16:46.297Z</time></trkpt><trkpt lat="40.9195333" lon="14.32351"><ele>35.714285714285715</ele><time>2026-03-29T06:16:47.297Z</time></trkpt><trkpt lat="40.9195467" lon="14.323605"><ele>35.57142857142857</ele><time>2026-03-29T06:16:48.297Z</time></trkpt><trkpt lat="40.919555" lon="14.3236983"><ele>35.42857142857143</ele><time>2026-03-29T06:16:49.297Z</time></trkpt><trkpt lat="40.9195567" lon="14.3237917"><ele>35.285714285714285</ele><time>2026-03-29T06:16:50.297Z</time></trkpt><trkpt lat="40.919565" lon="14.3238767"><ele>35.142857142857146</ele><time>2026-03-29T06:16:51.297Z</time></trkpt><trkpt lat="40.919565" lon="14.3239667"><ele>35.0</ele><time>2026-03-29T06:16:52.295Z</time></trkpt><trkpt lat="40.9195583" lon="14.3240567"><ele>35.0</ele><time>2026-03-29T06:16:53.297Z</time></trkpt><trkpt lat="40.9195633" lon="14.3242167"><ele>35.0</ele><time>2026-03-29T06:16:55.297Z</time></trkpt><trkpt lat="40.919575" lon="14.3243667"><ele>35.0</ele><time>2026-03-29T06:16:57.295Z</time></trkpt><trkpt lat="40.91958" lon="14.32451"><ele>35.0</ele><time>2026-03-29T06:16:59.297Z</time></trkpt><trkpt lat="40.9196017" lon="14.3246517"><ele>34.8</ele><time>2026-03-29T06:17:01.297Z</time></trkpt><trkpt lat="40.9196017" lon="14.324785"><ele>34.6</ele><time>2026-03-29T06:17:03.296Z</time></trkpt><trkpt lat="40.9196067" lon="14.32492"><ele>34.4</ele><time>2026-03-29T06:17:05.297Z</time></trkpt><trkpt lat="40.91962" lon="14.325045"><ele>34.2</ele><time>2026-03-29T06:17:07.297Z</time></trkpt><trkpt lat="40.91962" lon="14.3251667"><ele>34.0</ele><time>2026-03-29T06:17:09.295Z</time></trkpt><trkpt lat="40.9196333" lon="14.3252783"><ele>34.0</ele><time>2026-03-29T06:17:11.296Z</time></trkpt><trkpt lat="40.9196517" lon="14.3253617"><ele>34.0</ele><time>2026-03-29T06:17:13.297Z</time></trkpt><trkpt lat="40.9196533" lon="14.3254683"><ele>34.0</ele><time>2026-03-29T06:17:16.297Z</time></trkpt><trkpt lat="40.9196633" lon="14.32557"><ele>34.0</ele><time>2026-03-29T06:17:20.294Z</time></trkpt><trkpt lat="40.91967" lon="14.3256567"><ele>34.0</ele><time>2026-03-29T06:17:23.295Z</time></trkpt><trkpt lat="40.9196683" lon="14.325775"><ele>34.0</ele><time>2026-03-29T06:17:26.295Z</time></trkpt><trkpt lat="40.91967" lon="14.3258933"><ele>33.857142857142854</ele><time>2026-03-29T06:17:29.295Z</time></trkpt><trkpt lat="40.9196667" lon="14.326"><ele>33.714285714285715</ele><time>2026-03-29T06:17:32.296Z</time></trkpt><trkpt lat="40.9196733" lon="14.3260883"><ele>33.57142857142857</ele><time>2026-03-29T06:17:34.294Z</time></trkpt><trkpt lat="40.9196733" lon="14.3261717"><ele>33.42857142857143</ele><time>2026-03-29T06:17:36.296Z</time></trkpt><trkpt lat="40.9196733" lon="14.326295"><ele>33.285714285714285</ele><time>2026-03-29T06:17:39.294Z</time></trkpt><trkpt lat="40.919675" lon="14.326385"><ele>33.14285714285714</ele><time>2026-03-29T06:17:41.296Z</time></trkpt><trkpt lat="40.9196767" lon="14.3264767"><ele>33.0</ele><time>2026-03-29T06:17:43.297Z</time></trkpt><trkpt lat="40.919675" lon="14.3265617"><ele>33.0</ele><time>2026-03-29T06:17:45.295Z</time></trkpt><trkpt lat="40.91967" lon="14.3266883"><ele>33.0</ele><time>2026-03-29T06:17:48.297Z</time></trkpt><trkpt lat="40.919665" lon="14.3267917"><ele>33.0</ele><time>2026-03-29T06:17:50.297Z</time></trkpt><trkpt lat="40.919665" lon="14.326925"><ele>33.0</ele><time>2026-03-29T06:17:52.298Z</time></trkpt><trkpt lat="40.9196617" lon="14.3270717"><ele>33.0</ele><time>2026-03-29T06:17:54.297Z</time></trkpt><trkpt lat="40.91966" lon="14.327215"><ele>33.0</ele><time>2026-03-29T06:17:56.298Z</time></trkpt><trkpt lat="40.91966" lon="14.3273533"><ele>33.0</ele><time>2026-03-29T06:17:58.296Z</time></trkpt><trkpt lat="40.9196583" lon="14.3275017"><ele>33.0</ele><time>2026-03-29T06:18:00.298Z</time></trkpt><trkpt lat="40.919655" lon="14.32765"><ele>33.0</ele><time>2026-03-29T06:18:02.297Z</time></trkpt><trkpt lat="40.9196533" lon="14.3278033"><ele>33.0</ele><time>2026-03-29T06:18:04.297Z</time></trkpt><trkpt lat="40.9196567" lon="14.3279683"><ele>33.0</ele><time>2026-03-29T06:18:06.296Z</time></trkpt><trkpt lat="40.919655" lon="14.3280517"><ele>33.0</ele><time>2026-03-29T06:18:07.298Z</time></trkpt><trkpt lat="40.9196533" lon="14.32814"><ele>33.0</ele><time>2026-03-29T06:18:08.296Z</time></trkpt><trkpt lat="40.919655" lon="14.3283133"><ele>33.0</ele><time>2026-03-29T06:18:10.296Z</time></trkpt><trkpt lat="40.9196583" lon="14.328405"><ele>33.0</ele><time>2026-03-29T06:18:11.297Z</time></trkpt><trkpt lat="40.9196617" lon="14.3285033"><ele>33.0</ele><time>2026-03-29T06:18:12.298Z</time></trkpt><trkpt lat="40.9196633" lon="14.3286017"><ele>32.666666666666664</ele><time>2026-03-29T06:18:13.298Z</time></trkpt><trkpt lat="40.9196667" lon="14.328705"><ele>32.333333333333336</ele><time>2026-03-29T06:18:14.295Z</time></trkpt><trkpt lat="40.9196683" lon="14.3288067"><ele>32.0</ele><time>2026-03-29T06:18:15.296Z</time></trkpt><trkpt lat="40.91967" lon="14.3289117"><ele>31.666666666666668</ele><time>2026-03-29T06:18:16.297Z</time></trkpt><trkpt lat="40.9196717" lon="14.3290167"><ele>31.333333333333336</ele><time>2026-03-29T06:18:17.296Z</time></trkpt><trkpt lat="40.9196733" lon="14.3291283"><ele>31.0</ele><time>2026-03-29T06:18:18.295Z</time></trkpt><trkpt lat="40.919675" lon="14.329235"><ele>31.000000000000004</ele><time>2026-03-29T06:18:19.298Z</time></trkpt><trkpt lat="40.9196767" lon="14.32934"><ele>31.0</ele><time>2026-03-29T06:18:20.295Z</time></trkpt><trkpt lat="40.9196833" lon="14.3294533"><ele>31.0</ele><time>2026-03-29T06:18:21.297Z</time></trkpt><trkpt lat="40.9197017" lon="14.3295733"><ele>31.0</ele><time>2026-03-29T06:18:22.297Z</time></trkpt><trkpt lat="40.919725" lon="14.3296967"><ele>31.000000000000004</ele><time>2026-03-29T06:18:23.297Z</time></trkpt><trkpt lat="40.9197467" lon="14.329815"><ele>31.0</ele><time>2026-03-29T06:18:24.297Z</time></trkpt><trkpt lat="40.919765" lon="14.3299333"><ele>31.000000000000004</ele><time>2026-03-29T06:18:25.297Z</time></trkpt><trkpt lat="40.9197817" lon="14.3300483"><ele>31.0</ele><time>2026-03-29T06:18:26.295Z</time></trkpt><trkpt lat="40.9197983" lon="14.330155"><ele>31.0</ele><time>2026-03-29T06:18:27.296Z</time></trkpt><trkpt lat="40.9198183" lon="14.3302617"><ele>31.0</ele><time>2026-03-29T06:18:28.298Z</time></trkpt><trkpt lat="40.9198333" lon="14.330365"><ele>31.000000000000004</ele><time>2026-03-29T06:18:29.296Z</time></trkpt><trkpt lat="40.9198467" lon="14.3304667"><ele>31.0</ele><time>2026-03-29T06:18:30.297Z</time></trkpt><trkpt lat="40.9198633" lon="14.33056"><ele>31.142857142857146</ele><time>2026-03-29T06:18:31.298Z</time></trkpt><trkpt lat="40.9198733" lon="14.3306517"><ele>31.28571428571429</ele><time>2026-03-29T06:18:32.296Z</time></trkpt><trkpt lat="40.91989" lon="14.3307517"><ele>31.42857142857143</ele><time>2026-03-29T06:18:33.297Z</time></trkpt><trkpt lat="40.91991" lon="14.3308433"><ele>31.57142857142857</ele><time>2026-03-29T06:18:34.298Z</time></trkpt><trkpt lat="40.9199283" lon="14.3309367"><ele>31.71428571428571</ele><time>2026-03-29T06:18:35.298Z</time></trkpt><trkpt lat="40.9199433" lon="14.331025"><ele>31.857142857142854</ele><time>2026-03-29T06:18:36.298Z</time></trkpt><trkpt lat="40.919955" lon="14.3311117"><ele>32.0</ele><time>2026-03-29T06:18:37.298Z</time></trkpt><trkpt lat="40.9199683" lon="14.3311983"><ele>32.0</ele><time>2026-03-29T06:18:38.298Z</time></trkpt><trkpt lat="40.9199833" lon="14.3312833"><ele>32.0</ele><time>2026-03-29T06:18:39.295Z</time></trkpt><trkpt lat="40.920005" lon="14.3314383"><ele>32.0</ele><time>2026-03-29T06:18:41.297Z</time></trkpt><trkpt lat="40.920025" lon="14.3315917"><ele>32.0</ele><time>2026-03-29T06:18:43.297Z</time></trkpt><trkpt lat="40.920035" lon="14.3317467"><ele>32.0</ele><time>2026-03-29T06:18:45.295Z</time></trkpt><trkpt lat="40.9200383" lon="14.3319083"><ele>31.666666666666664</ele><time>2026-03-29T06:18:47.297Z</time></trkpt><trkpt lat="40.9200367" lon="14.3319917"><ele>31.333333333333332</ele><time>2026-03-29T06:18:48.299Z</time></trkpt><trkpt lat="40.9200333" lon="14.3320783"><ele>31.0</ele><time>2026-03-29T06:18:49.297Z</time></trkpt><trkpt lat="40.9200133" lon="14.33224"><ele>30.666666666666664</ele><time>2026-03-29T06:18:51.296Z</time></trkpt><trkpt lat="40.920005" lon="14.3323233"><ele>30.333333333333332</ele><time>2026-03-29T06:18:52.296Z</time></trkpt><trkpt lat="40.9199833" lon="14.3324817"><ele>30.0</ele><time>2026-03-29T06:18:54.297Z</time></trkpt><trkpt lat="40.9199633" lon="14.332645"><ele>30.0</ele><time>2026-03-29T06:18:56.297Z</time></trkpt><trkpt lat="40.91994" lon="14.3327983"><ele>30.0</ele><time>2026-03-29T06:18:58.297Z</time></trkpt><trkpt lat="40.9199167" lon="14.3329567"><ele>30.0</ele><time>2026-03-29T06:19:00.297Z</time></trkpt><trkpt lat="40.919905" lon="14.3330417"><ele>30.0</ele><time>2026-03-29T06:19:01.298Z</time></trkpt><trkpt lat="40.919875" lon="14.3331967"><ele>30.0</ele><time>2026-03-29T06:19:03.296Z</time></trkpt><trkpt lat="40.9198533" lon="14.3333483"><ele>30.0</ele><time>2026-03-29T06:19:05.298Z</time></trkpt><trkpt lat="40.9198333" lon="14.3335"><ele>30.0</ele><time>2026-03-29T06:19:07.297Z</time></trkpt><trkpt lat="40.9198133" lon="14.3336667"><ele>30.0</ele><time>2026-03-29T06:19:09.297Z</time></trkpt><trkpt lat="40.9198" lon="14.3337533"><ele>30.0</ele><time>2026-03-29T06:19:10.297Z</time></trkpt><trkpt lat="40.9197867" lon="14.3338367"><ele>30.0</ele><time>2026-03-29T06:19:11.297Z</time></trkpt><trkpt lat="40.9197733" lon="14.3339233"><ele>30.0</ele><time>2026-03-29T06:19:12.296Z</time></trkpt><trkpt lat="40.9197633" lon="14.3340117"><ele>29.6</ele><time>2026-03-29T06:19:13.298Z</time></trkpt><trkpt lat="40.919755" lon="14.3341"><ele>29.2</ele><time>2026-03-29T06:19:14.297Z</time></trkpt><trkpt lat="40.9197317" lon="14.334265"><ele>28.799999999999997</ele><time>2026-03-29T06:19:16.296Z</time></trkpt><trkpt lat="40.9197133" lon="14.3344317"><ele>28.4</ele><time>2026-03-29T06:19:18.295Z</time></trkpt><trkpt lat="40.9197033" lon="14.334595"><ele>28.0</ele><time>2026-03-29T06:19:20.297Z</time></trkpt><trkpt lat="40.919695" lon="14.33468"><ele>28.0</ele><time>2026-03-29T06:19:21.296Z</time></trkpt><trkpt lat="40.9196833" lon="14.3347633"><ele>28.0</ele><time>2026-03-29T06:19:22.296Z</time></trkpt><trkpt lat="40.9196767" lon="14.3348483"><ele>28.0</ele><time>2026-03-29T06:19:23.297Z</time></trkpt><trkpt lat="40.91966" lon="14.33501"><ele>28.0</ele><time>2026-03-29T06:19:25.297Z</time></trkpt><trkpt lat="40.9196567" lon="14.3350967"><ele>28.0</ele><time>2026-03-29T06:19:26.297Z</time></trkpt><trkpt lat="40.9196517" lon="14.3351817"><ele>28.0</ele><time>2026-03-29T06:19:27.295Z</time></trkpt><trkpt lat="40.919645" lon="14.3352667"><ele>28.0</ele><time>2026-03-29T06:19:28.295Z</time></trkpt><trkpt lat="40.9196417" lon="14.33535"><ele>28.0</ele><time>2026-03-29T06:19:29.297Z</time></trkpt><trkpt lat="40.91964" lon="14.335435"><ele>28.0</ele><time>2026-03-29T06:19:30.297Z</time></trkpt><trkpt lat="40.9196367" lon="14.3355233"><ele>28.0</ele><time>2026-03-29T06:19:31.298Z</time></trkpt><trkpt lat="40.91964" lon="14.33561"><ele>28.0</ele><time>2026-03-29T06:19:32.297Z</time></trkpt><trkpt lat="40.9196467" lon="14.3357"><ele>28.0</ele><time>2026-03-29T06:19:33.296Z</time></trkpt><trkpt lat="40.9196567" lon="14.3357883"><ele>28.0</ele><time>2026-03-29T06:19:34.297Z</time></trkpt><trkpt lat="40.9196667" lon="14.3358733"><ele>28.0</ele><time>2026-03-29T06:19:35.298Z</time></trkpt><trkpt lat="40.919675" lon="14.33596"><ele>27.857142857142858</ele><time>2026-03-29T06:19:36.297Z</time></trkpt><trkpt lat="40.9196867" lon="14.336045"><ele>27.714285714285715</ele><time>2026-03-29T06:19:37.298Z</time></trkpt><trkpt lat="40.9197" lon="14.33613"><ele>27.57142857142857</ele><time>2026-03-29T06:19:38.295Z</time></trkpt><trkpt lat="40.9197183" lon="14.3362117"><ele>27.42857142857143</ele><time>2026-03-29T06:19:39.297Z</time></trkpt><trkpt lat="40.9197367" lon="14.3362933"><ele>27.285714285714285</ele><time>2026-03-29T06:19:40.297Z</time></trkpt><trkpt lat="40.9197683" lon="14.3364483"><ele>27.142857142857142</ele><time>2026-03-29T06:19:42.297Z</time></trkpt><trkpt lat="40.9197867" lon="14.3365283"><ele>27.0</ele><time>2026-03-29T06:19:43.296Z</time></trkpt><trkpt lat="40.9198067" lon="14.336615"><ele>26.833333333333332</ele><time>2026-03-29T06:19:44.296Z</time></trkpt><trkpt lat="40.9198267" lon="14.3366983"><ele>26.666666666666664</ele><time>2026-03-29T06:19:45.297Z</time></trkpt><trkpt lat="40.9198483" lon="14.3367817"><ele>26.5</ele><time>2026-03-29T06:19:46.297Z</time></trkpt><trkpt lat="40.9198733" lon="14.3368633"><ele>26.333333333333332</ele><time>2026-03-29T06:19:47.297Z</time></trkpt><trkpt lat="40.9198933" lon="14.33695"><ele>26.166666666666664</ele><time>2026-03-29T06:19:48.297Z</time></trkpt><trkpt lat="40.9199217" lon="14.3371167"><ele>26.0</ele><time>2026-03-29T06:19:50.297Z</time></trkpt><trkpt lat="40.9199367" lon="14.3372017"><ele>26.285714285714285</ele><time>2026-03-29T06:19:51.296Z</time></trkpt><trkpt lat="40.9199467" lon="14.33729"><ele>26.571428571428573</ele><time>2026-03-29T06:19:52.297Z</time></trkpt><trkpt lat="40.91996" lon="14.33738"><ele>26.857142857142858</ele><time>2026-03-29T06:19:53.297Z</time></trkpt><trkpt lat="40.919975" lon="14.3374667"><ele>27.142857142857142</ele><time>2026-03-29T06:19:54.298Z</time></trkpt><trkpt lat="40.9199867" lon="14.3375517"><ele>27.42857142857143</ele><time>2026-03-29T06:19:55.298Z</time></trkpt><trkpt lat="40.92" lon="14.33764"><ele>27.714285714285715</ele><time>2026-03-29T06:19:56.299Z</time></trkpt><trkpt lat="40.9200117" lon="14.3377233"><ele>28.0</ele><time>2026-03-29T06:19:57.295Z</time></trkpt><trkpt lat="40.9200233" lon="14.33781"><ele>28.0</ele><time>2026-03-29T06:19:58.297Z</time></trkpt><trkpt lat="40.9200367" lon="14.337895"><ele>28.0</ele><time>2026-03-29T06:19:59.297Z</time></trkpt><trkpt lat="40.9200517" lon="14.3379833"><ele>28.0</ele><time>2026-03-29T06:20:00.297Z</time></trkpt><trkpt lat="40.9200683" lon="14.3380717"><ele>28.0</ele><time>2026-03-29T06:20:01.298Z</time></trkpt><trkpt lat="40.9200867" lon="14.3381667"><ele>28.0</ele><time>2026-03-29T06:20:02.298Z</time></trkpt><trkpt lat="40.9201017" lon="14.3382533"><ele>28.0</ele><time>2026-03-29T06:20:03.297Z</time></trkpt><trkpt lat="40.9201183" lon="14.3383383"><ele>28.0</ele><time>2026-03-29T06:20:04.298Z</time></trkpt><trkpt lat="40.9201383" lon="14.3384183"><ele>28.0</ele><time>2026-03-29T06:20:05.298Z</time></trkpt><trkpt lat="40.92016" lon="14.3384983"><ele>28.0</ele><time>2026-03-29T06:20:06.296Z</time></trkpt><trkpt lat="40.9201817" lon="14.3385767"><ele>28.0</ele><time>2026-03-29T06:20:07.3Z</time></trkpt><trkpt lat="40.920205" lon="14.3386617"><ele>28.0</ele><time>2026-03-29T06:20:08.298Z</time></trkpt><trkpt lat="40.9202317" lon="14.3387483"><ele>28.0</ele><time>2026-03-29T06:20:09.297Z</time></trkpt><trkpt lat="40.92026" lon="14.3388317"><ele>28.0</ele><time>2026-03-29T06:20:10.297Z</time></trkpt><trkpt lat="40.9202883" lon="14.3389167"><ele>28.0</ele><time>2026-03-29T06:20:11.297Z</time></trkpt><trkpt lat="40.9203183" lon="14.3389983"><ele>28.0</ele><time>2026-03-29T06:20:12.297Z</time></trkpt><trkpt lat="40.9203417" lon="14.339085"><ele>28.0</ele><time>2026-03-29T06:20:13.299Z</time></trkpt><trkpt lat="40.9203667" lon="14.33917"><ele>28.0</ele><time>2026-03-29T06:20:14.295Z</time></trkpt><trkpt lat="40.9203883" lon="14.3392483"><ele>28.0</ele><time>2026-03-29T06:20:15.299Z</time></trkpt><trkpt lat="40.9204117" lon="14.3393317"><ele>28.0</ele><time>2026-03-29T06:20:16.299Z</time></trkpt><trkpt lat="40.9204383" lon="14.3394133"><ele>28.0</ele><time>2026-03-29T06:20:17.298Z</time></trkpt><trkpt lat="40.9204617" lon="14.3394933"><ele>28.0</ele><time>2026-03-29T06:20:18.298Z</time></trkpt><trkpt lat="40.920485" lon="14.3395767"><ele>27.833333333333336</ele><time>2026-03-29T06:20:19.297Z</time></trkpt><trkpt lat="40.9205217" lon="14.3397433"><ele>27.666666666666668</ele><time>2026-03-29T06:20:21.295Z</time></trkpt><trkpt lat="40.9205417" lon="14.33983"><ele>27.5</ele><time>2026-03-29T06:20:22.297Z</time></trkpt><trkpt lat="40.920555" lon="14.3399133"><ele>27.333333333333336</ele><time>2026-03-29T06:20:23.297Z</time></trkpt><trkpt lat="40.92057" lon="14.340005"><ele>27.166666666666668</ele><time>2026-03-29T06:20:24.299Z</time></trkpt><trkpt lat="40.9205817" lon="14.3400967"><ele>27.0</ele><time>2026-03-29T06:20:25.298Z</time></trkpt><trkpt lat="40.9205883" lon="14.3401833"><ele>27.0</ele><time>2026-03-29T06:20:26.299Z</time></trkpt><trkpt lat="40.9205883" lon="14.3402683"><ele>27.0</ele><time>2026-03-29T06:20:27.3Z</time></trkpt><trkpt lat="40.9205867" lon="14.3403533"><ele>27.0</ele><time>2026-03-29T06:20:28.298Z</time></trkpt><trkpt lat="40.920585" lon="14.34044"><ele>27.0</ele><time>2026-03-29T06:20:29.295Z</time></trkpt><trkpt lat="40.92058" lon="14.3405267"><ele>27.0</ele><time>2026-03-29T06:20:30.297Z</time></trkpt><trkpt lat="40.9205717" lon="14.340615"><ele>27.0</ele><time>2026-03-29T06:20:31.299Z</time></trkpt><trkpt lat="40.920565" lon="14.3407017"><ele>27.0</ele><time>2026-03-29T06:20:32.299Z</time></trkpt><trkpt lat="40.9205617" lon="14.3407917"><ele>26.333333333333332</ele><time>2026-03-29T06:20:33.296Z</time></trkpt><trkpt lat="40.92056" lon="14.3408817"><ele>25.666666666666668</ele><time>2026-03-29T06:20:34.299Z</time></trkpt><trkpt lat="40.9205467" lon="14.3410483"><ele>25.0</ele><time>2026-03-29T06:20:36.296Z</time></trkpt><trkpt lat="40.9205383" lon="14.3411367"><ele>24.333333333333336</ele><time>2026-03-29T06:20:37.298Z</time></trkpt><trkpt lat="40.9205333" lon="14.34123"><ele>23.666666666666668</ele><time>2026-03-29T06:20:38.299Z</time></trkpt><trkpt lat="40.920525" lon="14.34132"><ele>23.0</ele><time>2026-03-29T06:20:39.296Z</time></trkpt><trkpt lat="40.9205183" lon="14.3414083"><ele>23.0</ele><time>2026-03-29T06:20:40.295Z</time></trkpt><trkpt lat="40.92051" lon="14.3414967"><ele>23.0</ele><time>2026-03-29T06:20:41.297Z</time></trkpt><trkpt lat="40.9205017" lon="14.341585"><ele>23.0</ele><time>2026-03-29T06:20:42.298Z</time></trkpt><trkpt lat="40.9204933" lon="14.341675"><ele>23.0</ele><time>2026-03-29T06:20:43.298Z</time></trkpt><trkpt lat="40.920485" lon="14.3417667"><ele>23.0</ele><time>2026-03-29T06:20:44.299Z</time></trkpt><trkpt lat="40.9204783" lon="14.34186"><ele>23.0</ele><time>2026-03-29T06:20:45.298Z</time></trkpt><trkpt lat="40.92047" lon="14.3419483"><ele>23.0</ele><time>2026-03-29T06:20:46.298Z</time></trkpt><trkpt lat="40.920465" lon="14.3420333"><ele>23.0</ele><time>2026-03-29T06:20:47.297Z</time></trkpt><trkpt lat="40.9204583" lon="14.3421183"><ele>23.0</ele><time>2026-03-29T06:20:48.296Z</time></trkpt><trkpt lat="40.92045" lon="14.3422083"><ele>23.0</ele><time>2026-03-29T06:20:49.297Z</time></trkpt><trkpt lat="40.92044" lon="14.3422917"><ele>23.0</ele><time>2026-03-29T06:20:50.299Z</time></trkpt><trkpt lat="40.920435" lon="14.3423783"><ele>23.0</ele><time>2026-03-29T06:20:51.295Z</time></trkpt><trkpt lat="40.9204333" lon="14.3424633"><ele>23.0</ele><time>2026-03-29T06:20:52.297Z</time></trkpt><trkpt lat="40.9204333" lon="14.3425567"><ele>23.0</ele><time>2026-03-29T06:20:53.297Z</time></trkpt><trkpt lat="40.920435" lon="14.3426467"><ele>23.2</ele><time>2026-03-29T06:20:54.297Z</time></trkpt><trkpt lat="40.920435" lon="14.34274"><ele>23.4</ele><time>2026-03-29T06:20:55.297Z</time></trkpt><trkpt lat="40.9204367" lon="14.34283"><ele>23.599999999999998</ele><time>2026-03-29T06:20:56.298Z</time></trkpt><trkpt lat="40.920435" lon="14.3429217"><ele>23.799999999999997</ele><time>2026-03-29T06:20:57.297Z</time></trkpt><trkpt lat="40.9204367" lon="14.3430833"><ele>24.0</ele><time>2026-03-29T06:20:59.298Z</time></trkpt><trkpt lat="40.9204383" lon="14.3432483"><ele>23.999999999999996</ele><time>2026-03-29T06:21:01.298Z</time></trkpt><trkpt lat="40.9204417" lon="14.3433367"><ele>24.0</ele><time>2026-03-29T06:21:02.298Z</time></trkpt><trkpt lat="40.9204467" lon="14.3434233"><ele>24.0</ele><time>2026-03-29T06:21:03.297Z</time></trkpt><trkpt lat="40.9204567" lon="14.3435133"><ele>24.0</ele><time>2026-03-29T06:21:04.296Z</time></trkpt><trkpt lat="40.92047" lon="14.3436033"><ele>24.0</ele><time>2026-03-29T06:21:05.297Z</time></trkpt><trkpt lat="40.9204883" lon="14.3436917"><ele>23.999999999999996</ele><time>2026-03-29T06:21:06.298Z</time></trkpt><trkpt lat="40.9205083" lon="14.3437817"><ele>24.0</ele><time>2026-03-29T06:21:07.298Z</time></trkpt><trkpt lat="40.9205283" lon="14.34387"><ele>23.71428571428571</ele><time>2026-03-29T06:21:08.297Z</time></trkpt><trkpt lat="40.92055" lon="14.3439617"><ele>23.428571428571427</ele><time>2026-03-29T06:21:09.296Z</time></trkpt><trkpt lat="40.9205733" lon="14.344045"><ele>23.142857142857142</ele><time>2026-03-29T06:21:10.299Z</time></trkpt><trkpt lat="40.9206" lon="14.34413"><ele>22.857142857142854</ele><time>2026-03-29T06:21:11.297Z</time></trkpt><trkpt lat="40.9206267" lon="14.3442133"><ele>22.57142857142857</ele><time>2026-03-29T06:21:12.296Z</time></trkpt><trkpt lat="40.920655" lon="14.3442967"><ele>22.285714285714285</ele><time>2026-03-29T06:21:13.296Z</time></trkpt><trkpt lat="40.9206817" lon="14.34438"><ele>22.0</ele><time>2026-03-29T06:21:14.298Z</time></trkpt><trkpt lat="40.9207133" lon="14.3444617"><ele>22.0</ele><time>2026-03-29T06:21:15.297Z</time></trkpt><trkpt lat="40.9207483" lon="14.344545"><ele>22.0</ele><time>2026-03-29T06:21:16.295Z</time></trkpt><trkpt lat="40.9207817" lon="14.3446217"><ele>22.0</ele><time>2026-03-29T06:21:17.297Z</time></trkpt><trkpt lat="40.9208167" lon="14.3447033"><ele>22.0</ele><time>2026-03-29T06:21:18.297Z</time></trkpt><trkpt lat="40.9208517" lon="14.3447833"><ele>22.0</ele><time>2026-03-29T06:21:19.299Z</time></trkpt><trkpt lat="40.9208833" lon="14.34486"><ele>22.0</ele><time>2026-03-29T06:21:20.296Z</time></trkpt><trkpt lat="40.9209133" lon="14.3449383"><ele>22.0</ele><time>2026-03-29T06:21:21.295Z</time></trkpt><trkpt lat="40.920965" lon="14.3450967"><ele>22.0</ele><time>2026-03-29T06:21:23.299Z</time></trkpt><trkpt lat="40.9209917" lon="14.3451817"><ele>22.0</ele><time>2026-03-29T06:21:24.297Z</time></trkpt><trkpt lat="40.9210183" lon="14.3452617"><ele>22.0</ele><time>2026-03-29T06:21:25.298Z</time></trkpt><trkpt lat="40.9210433" lon="14.3453417"><ele>22.0</ele><time>2026-03-29T06:21:26.295Z</time></trkpt><trkpt lat="40.921065" lon="14.3454233"><ele>22.0</ele><time>2026-03-29T06:21:27.299Z</time></trkpt><trkpt lat="40.9210867" lon="14.345505"><ele>22.0</ele><time>2026-03-29T06:21:28.297Z</time></trkpt><trkpt lat="40.921105" lon="14.345585"><ele>22.0</ele><time>2026-03-29T06:21:29.296Z</time></trkpt><trkpt lat="40.92115" lon="14.34574"><ele>22.0</ele><time>2026-03-29T06:21:31.297Z</time></trkpt><trkpt lat="40.9211883" lon="14.3459"><ele>22.0</ele><time>2026-03-29T06:21:33.297Z</time></trkpt><trkpt lat="40.9212083" lon="14.3459817"><ele>22.0</ele><time>2026-03-29T06:21:34.297Z</time></trkpt><trkpt lat="40.9212433" lon="14.3461417"><ele>22.0</ele><time>2026-03-29T06:21:36.299Z</time></trkpt><trkpt lat="40.92126" lon="14.346225"><ele>22.0</ele><time>2026-03-29T06:21:37.299Z</time></trkpt><trkpt lat="40.92128" lon="14.34631"><ele>22.142857142857142</ele><time>2026-03-29T06:21:38.297Z</time></trkpt><trkpt lat="40.9212983" lon="14.34639"><ele>22.285714285714285</ele><time>2026-03-29T06:21:39.296Z</time></trkpt><trkpt lat="40.921315" lon="14.3464733"><ele>22.42857142857143</ele><time>2026-03-29T06:21:40.297Z</time></trkpt><trkpt lat="40.9213367" lon="14.3465617"><ele>22.57142857142857</ele><time>2026-03-29T06:21:41.296Z</time></trkpt><trkpt lat="40.9213617" lon="14.3466433"><ele>22.71428571428571</ele><time>2026-03-29T06:21:42.297Z</time></trkpt><trkpt lat="40.9213867" lon="14.3467317"><ele>22.857142857142858</ele><time>2026-03-29T06:21:43.297Z</time></trkpt><trkpt lat="40.9214117" lon="14.3468133"><ele>23.0</ele><time>2026-03-29T06:21:44.296Z</time></trkpt><trkpt lat="40.9214383" lon="14.3469"><ele>23.0</ele><time>2026-03-29T06:21:45.297Z</time></trkpt><trkpt lat="40.9214633" lon="14.346985"><ele>23.0</ele><time>2026-03-29T06:21:46.297Z</time></trkpt><trkpt lat="40.921485" lon="14.347065"><ele>23.0</ele><time>2026-03-29T06:21:47.297Z</time></trkpt><trkpt lat="40.9215117" lon="14.3471433"><ele>23.0</ele><time>2026-03-29T06:21:48.297Z</time></trkpt><trkpt lat="40.92154" lon="14.3472217"><ele>23.0</ele><time>2026-03-29T06:21:49.298Z</time></trkpt><trkpt lat="40.9215667" lon="14.3473"><ele>23.0</ele><time>2026-03-29T06:21:50.298Z</time></trkpt><trkpt lat="40.9215917" lon="14.3473767"><ele>23.0</ele><time>2026-03-29T06:21:51.297Z</time></trkpt><trkpt lat="40.9216183" lon="14.3474533"><ele>23.142857142857142</ele><time>2026-03-29T06:21:52.297Z</time></trkpt><trkpt lat="40.9216483" lon="14.3475317"><ele>23.285714285714285</ele><time>2026-03-29T06:21:53.298Z</time></trkpt><trkpt lat="40.9216767" lon="14.3476083"><ele>23.428571428571427</ele><time>2026-03-29T06:21:54.297Z</time></trkpt><trkpt lat="40.9217" lon="14.3476883"><ele>23.57142857142857</ele><time>2026-03-29T06:21:55.298Z</time></trkpt><trkpt lat="40.9217233" lon="14.3477683"><ele>23.714285714285715</ele><time>2026-03-29T06:21:56.298Z</time></trkpt><trkpt lat="40.9217483" lon="14.3478517"><ele>23.857142857142854</ele><time>2026-03-29T06:21:57.297Z</time></trkpt><trkpt lat="40.9217733" lon="14.3479333"><ele>24.0</ele><time>2026-03-29T06:21:58.297Z</time></trkpt><trkpt lat="40.9218" lon="14.348015"><ele>23.666666666666668</ele><time>2026-03-29T06:21:59.298Z</time></trkpt><trkpt lat="40.9218217" lon="14.3480933"><ele>23.333333333333332</ele><time>2026-03-29T06:22:00.298Z</time></trkpt><trkpt lat="40.9218567" lon="14.34825"><ele>23.0</ele><time>2026-03-29T06:22:02.298Z</time></trkpt><trkpt lat="40.9218717" lon="14.3483317"><ele>22.666666666666664</ele><time>2026-03-29T06:22:03.297Z</time></trkpt><trkpt lat="40.9218933" lon="14.3484883"><ele>22.333333333333332</ele><time>2026-03-29T06:22:05.297Z</time></trkpt><trkpt lat="40.9219017" lon="14.3485717"><ele>22.0</ele><time>2026-03-29T06:22:06.298Z</time></trkpt><trkpt lat="40.9219183" lon="14.3487417"><ele>22.0</ele><time>2026-03-29T06:22:08.297Z</time></trkpt><trkpt lat="40.9219267" lon="14.3488267"><ele>22.0</ele><time>2026-03-29T06:22:09.297Z</time></trkpt><trkpt lat="40.921935" lon="14.3489117"><ele>22.0</ele><time>2026-03-29T06:22:10.297Z</time></trkpt><trkpt lat="40.9219433" lon="14.3489967"><ele>22.0</ele><time>2026-03-29T06:22:11.297Z</time></trkpt><trkpt lat="40.9219533" lon="14.3490817"><ele>22.0</ele><time>2026-03-29T06:22:12.297Z</time></trkpt><trkpt lat="40.9219617" lon="14.349175"><ele>22.0</ele><time>2026-03-29T06:22:13.298Z</time></trkpt><trkpt lat="40.9219733" lon="14.3492667"><ele>22.0</ele><time>2026-03-29T06:22:14.297Z</time></trkpt><trkpt lat="40.921985" lon="14.3493517"><ele>22.0</ele><time>2026-03-29T06:22:15.297Z</time></trkpt><trkpt lat="40.9220083" lon="14.3495133"><ele>22.0</ele><time>2026-03-29T06:22:17.297Z</time></trkpt><trkpt lat="40.922025" lon="14.349595"><ele>22.0</ele><time>2026-03-29T06:22:18.298Z</time></trkpt><trkpt lat="40.9220433" lon="14.349675"><ele>22.0</ele><time>2026-03-29T06:22:19.297Z</time></trkpt><trkpt lat="40.922085" lon="14.3498433"><ele>22.0</ele><time>2026-03-29T06:22:21.297Z</time></trkpt><trkpt lat="40.922105" lon="14.3499283"><ele>22.0</ele><time>2026-03-29T06:22:22.296Z</time></trkpt><trkpt lat="40.92213" lon="14.3500083"><ele>22.0</ele><time>2026-03-29T06:22:23.297Z</time></trkpt><trkpt lat="40.9221583" lon="14.3500883"><ele>22.0</ele><time>2026-03-29T06:22:24.298Z</time></trkpt><trkpt lat="40.922185" lon="14.350165"><ele>22.0</ele><time>2026-03-29T06:22:25.297Z</time></trkpt><trkpt lat="40.9222133" lon="14.3502467"><ele>22.0</ele><time>2026-03-29T06:22:26.297Z</time></trkpt><trkpt lat="40.9222433" lon="14.3503283"><ele>22.0</ele><time>2026-03-29T06:22:27.296Z</time></trkpt><trkpt lat="40.922275" lon="14.35041"><ele>22.0</ele><time>2026-03-29T06:22:28.298Z</time></trkpt><trkpt lat="40.9223083" lon="14.3504883"><ele>22.142857142857142</ele><time>2026-03-29T06:22:29.297Z</time></trkpt><trkpt lat="40.9223417" lon="14.35057"><ele>22.285714285714285</ele><time>2026-03-29T06:22:30.297Z</time></trkpt><trkpt lat="40.92237" lon="14.3506517"><ele>22.42857142857143</ele><time>2026-03-29T06:22:31.297Z</time></trkpt><trkpt lat="40.9224" lon="14.35073"><ele>22.57142857142857</ele><time>2026-03-29T06:22:32.297Z</time></trkpt><trkpt lat="40.9224317" lon="14.350815"><ele>22.71428571428571</ele><time>2026-03-29T06:22:33.297Z</time></trkpt><trkpt lat="40.922465" lon="14.3508983"><ele>22.857142857142858</ele><time>2026-03-29T06:22:34.299Z</time></trkpt><trkpt lat="40.9224917" lon="14.3509783"><ele>23.0</ele><time>2026-03-29T06:22:35.299Z</time></trkpt><trkpt lat="40.92252" lon="14.3510617"><ele>23.0</ele><time>2026-03-29T06:22:36.299Z</time></trkpt><trkpt lat="40.922545" lon="14.3511483"><ele>23.0</ele><time>2026-03-29T06:22:37.299Z</time></trkpt><trkpt lat="40.92257" lon="14.3512317"><ele>23.0</ele><time>2026-03-29T06:22:38.297Z</time></trkpt><trkpt lat="40.922595" lon="14.35132"><ele>23.0</ele><time>2026-03-29T06:22:39.297Z</time></trkpt><trkpt lat="40.9226217" lon="14.3514117"><ele>23.0</ele><time>2026-03-29T06:22:40.297Z</time></trkpt><trkpt lat="40.9226433" lon="14.3515"><ele>23.0</ele><time>2026-03-29T06:22:41.296Z</time></trkpt><trkpt lat="40.922665" lon="14.35159"><ele>23.0</ele><time>2026-03-29T06:22:42.297Z</time></trkpt><trkpt lat="40.9226883" lon="14.35168"><ele>23.0</ele><time>2026-03-29T06:22:43.297Z</time></trkpt><trkpt lat="40.9227067" lon="14.3517683"><ele>23.0</ele><time>2026-03-29T06:22:44.299Z</time></trkpt><trkpt lat="40.922725" lon="14.351855"><ele>23.0</ele><time>2026-03-29T06:22:45.295Z</time></trkpt><trkpt lat="40.9227417" lon="14.351945"><ele>23.0</ele><time>2026-03-29T06:22:46.297Z</time></trkpt><trkpt lat="40.922755" lon="14.35204"><ele>23.0</ele><time>2026-03-29T06:22:47.296Z</time></trkpt><trkpt lat="40.922765" lon="14.3521317"><ele>23.0</ele><time>2026-03-29T06:22:48.297Z</time></trkpt><trkpt lat="40.9227717" lon="14.35222"><ele>23.0</ele><time>2026-03-29T06:22:49.297Z</time></trkpt><trkpt lat="40.92278" lon="14.35231"><ele>23.0</ele><time>2026-03-29T06:22:50.298Z</time></trkpt><trkpt lat="40.9227917" lon="14.3524117"><ele>23.0</ele><time>2026-03-29T06:22:51.297Z</time></trkpt><trkpt lat="40.9228017" lon="14.35251"><ele>23.0</ele><time>2026-03-29T06:22:52.297Z</time></trkpt><trkpt lat="40.9228133" lon="14.352605"><ele>23.0</ele><time>2026-03-29T06:22:53.297Z</time></trkpt><trkpt lat="40.9228233" lon="14.3526983"><ele>23.0</ele><time>2026-03-29T06:22:54.297Z</time></trkpt><trkpt lat="40.922835" lon="14.35279"><ele>23.0</ele><time>2026-03-29T06:22:55.298Z</time></trkpt><trkpt lat="40.9228433" lon="14.35288"><ele>23.0</ele><time>2026-03-29T06:22:56.297Z</time></trkpt><trkpt lat="40.9228533" lon="14.3529717"><ele>23.142857142857142</ele><time>2026-03-29T06:22:57.297Z</time></trkpt><trkpt lat="40.9228667" lon="14.3530633"><ele>23.285714285714285</ele><time>2026-03-29T06:22:58.299Z</time></trkpt><trkpt lat="40.9228767" lon="14.3531517"><ele>23.428571428571427</ele><time>2026-03-29T06:22:59.299Z</time></trkpt><trkpt lat="40.9228867" lon="14.353245"><ele>23.57142857142857</ele><time>2026-03-29T06:23:00.299Z</time></trkpt><trkpt lat="40.9228967" lon="14.35334"><ele>23.714285714285715</ele><time>2026-03-29T06:23:01.298Z</time></trkpt><trkpt lat="40.9229083" lon="14.35343"><ele>23.857142857142854</ele><time>2026-03-29T06:23:02.297Z</time></trkpt><trkpt lat="40.92292" lon="14.3535183"><ele>24.0</ele><time>2026-03-29T06:23:03.297Z</time></trkpt><trkpt lat="40.9229317" lon="14.3536033"><ele>24.0</ele><time>2026-03-29T06:23:04.298Z</time></trkpt><trkpt lat="40.9229433" lon="14.3536917"><ele>24.0</ele><time>2026-03-29T06:23:05.299Z</time></trkpt><trkpt lat="40.9229583" lon="14.35378"><ele>24.0</ele><time>2026-03-29T06:23:06.299Z</time></trkpt><trkpt lat="40.9229683" lon="14.3538683"><ele>24.0</ele><time>2026-03-29T06:23:07.297Z</time></trkpt><trkpt lat="40.9229783" lon="14.353955"><ele>24.0</ele><time>2026-03-29T06:23:08.296Z</time></trkpt><trkpt lat="40.9229867" lon="14.3540417"><ele>24.0</ele><time>2026-03-29T06:23:09.296Z</time></trkpt><trkpt lat="40.9230083" lon="14.354205"><ele>23.75</ele><time>2026-03-29T06:23:11.299Z</time></trkpt><trkpt lat="40.9230317" lon="14.354365"><ele>23.5</ele><time>2026-03-29T06:23:13.297Z</time></trkpt><trkpt lat="40.9230533" lon="14.3545133"><ele>23.25</ele><time>2026-03-29T06:23:15.295Z</time></trkpt><trkpt lat="40.9230583" lon="14.35466"><ele>23.0</ele><time>2026-03-29T06:23:17.295Z</time></trkpt><trkpt lat="40.9230467" lon="14.35482"><ele>22.5</ele><time>2026-03-29T06:23:19.295Z</time></trkpt><trkpt lat="40.9230367" lon="14.3549783"><ele>22.0</ele><time>2026-03-29T06:23:21.296Z</time></trkpt><trkpt lat="40.9230183" lon="14.35513"><ele>21.5</ele><time>2026-03-29T06:23:23.297Z</time></trkpt><trkpt lat="40.923005" lon="14.3552767"><ele>21.0</ele><time>2026-03-29T06:23:25.296Z</time></trkpt><trkpt lat="40.922995" lon="14.3554283"><ele>21.6</ele><time>2026-03-29T06:23:27.297Z</time></trkpt><trkpt lat="40.9229883" lon="14.3555933"><ele>22.200000000000003</ele><time>2026-03-29T06:23:29.296Z</time></trkpt><trkpt lat="40.922985" lon="14.3556783"><ele>22.799999999999997</ele><time>2026-03-29T06:23:30.297Z</time></trkpt><trkpt lat="40.9229767" lon="14.3558417"><ele>23.4</ele><time>2026-03-29T06:23:32.297Z</time></trkpt><trkpt lat="40.9229683" lon="14.3560083"><ele>24.0</ele><time>2026-03-29T06:23:34.295Z</time></trkpt><trkpt lat="40.922965" lon="14.356095"><ele>24.0</ele><time>2026-03-29T06:23:35.297Z</time></trkpt><trkpt lat="40.922955" lon="14.3561783"><ele>24.0</ele><time>2026-03-29T06:23:36.297Z</time></trkpt><trkpt lat="40.922955" lon="14.3563467"><ele>24.0</ele><time>2026-03-29T06:23:38.297Z</time></trkpt><trkpt lat="40.922955" lon="14.3564367"><ele>24.0</ele><time>2026-03-29T06:23:39.296Z</time></trkpt><trkpt lat="40.922955" lon="14.3565267"><ele>24.0</ele><time>2026-03-29T06:23:40.297Z</time></trkpt><trkpt lat="40.922955" lon="14.3566167"><ele>24.0</ele><time>2026-03-29T06:23:41.297Z</time></trkpt><trkpt lat="40.922955" lon="14.356705"><ele>24.0</ele><time>2026-03-29T06:23:42.297Z</time></trkpt><trkpt lat="40.92296" lon="14.3568683"><ele>24.0</ele><time>2026-03-29T06:23:44.297Z</time></trkpt><trkpt lat="40.922975" lon="14.3570083"><ele>24.0</ele><time>2026-03-29T06:23:46.297Z</time></trkpt><trkpt lat="40.9229733" lon="14.35714"><ele>24.0</ele><time>2026-03-29T06:23:48.297Z</time></trkpt><trkpt lat="40.9229667" lon="14.35728"><ele>24.0</ele><time>2026-03-29T06:23:50.297Z</time></trkpt><trkpt lat="40.9229583" lon="14.35744"><ele>23.857142857142854</ele><time>2026-03-29T06:23:52.296Z</time></trkpt><trkpt lat="40.9229567" lon="14.3575267"><ele>23.714285714285715</ele><time>2026-03-29T06:23:53.297Z</time></trkpt><trkpt lat="40.9229567" lon="14.3576167"><ele>23.57142857142857</ele><time>2026-03-29T06:23:54.297Z</time></trkpt><trkpt lat="40.9229583" lon="14.3577067"><ele>23.428571428571427</ele><time>2026-03-29T06:23:55.297Z</time></trkpt><trkpt lat="40.9229617" lon="14.357795"><ele>23.285714285714285</ele><time>2026-03-29T06:23:56.297Z</time></trkpt><trkpt lat="40.92296" lon="14.3578783"><ele>23.142857142857142</ele><time>2026-03-29T06:23:57.297Z</time></trkpt><trkpt lat="40.922955" lon="14.3579633"><ele>23.0</ele><time>2026-03-29T06:23:58.297Z</time></trkpt><trkpt lat="40.92295" lon="14.3580483"><ele>23.0</ele><time>2026-03-29T06:23:59.297Z</time></trkpt><trkpt lat="40.9229433" lon="14.3582117"><ele>23.0</ele><time>2026-03-29T06:24:01.297Z</time></trkpt><trkpt lat="40.9229417" lon="14.3582967"><ele>23.0</ele><time>2026-03-29T06:24:02.297Z</time></trkpt><trkpt lat="40.9229367" lon="14.35838"><ele>23.0</ele><time>2026-03-29T06:24:03.297Z</time></trkpt><trkpt lat="40.9229333" lon="14.3584667"><ele>23.0</ele><time>2026-03-29T06:24:04.297Z</time></trkpt><trkpt lat="40.92293" lon="14.35855"><ele>23.0</ele><time>2026-03-29T06:24:05.297Z</time></trkpt><trkpt lat="40.922925" lon="14.3586383"><ele>23.0</ele><time>2026-03-29T06:24:06.297Z</time></trkpt><trkpt lat="40.92292" lon="14.358725"><ele>23.0</ele><time>2026-03-29T06:24:07.297Z</time></trkpt><trkpt lat="40.9229167" lon="14.3588117"><ele>23.0</ele><time>2026-03-29T06:24:08.297Z</time></trkpt><trkpt lat="40.9229183" lon="14.3588983"><ele>23.0</ele><time>2026-03-29T06:24:09.298Z</time></trkpt><trkpt lat="40.9229167" lon="14.3589867"><ele>23.0</ele><time>2026-03-29T06:24:10.296Z</time></trkpt><trkpt lat="40.9229133" lon="14.3590783"><ele>23.0</ele><time>2026-03-29T06:24:11.296Z</time></trkpt><trkpt lat="40.9229083" lon="14.35917"><ele>23.0</ele><time>2026-03-29T06:24:12.297Z</time></trkpt><trkpt lat="40.9229067" lon="14.3592567"><ele>23.0</ele><time>2026-03-29T06:24:13.297Z</time></trkpt><trkpt lat="40.9229033" lon="14.3593467"><ele>23.0</ele><time>2026-03-29T06:24:14.297Z</time></trkpt><trkpt lat="40.9228983" lon="14.359435"><ele>23.0</ele><time>2026-03-29T06:24:15.299Z</time></trkpt><trkpt lat="40.9228883" lon="14.35952"><ele>23.0</ele><time>2026-03-29T06:24:16.295Z</time></trkpt><trkpt lat="40.9228683" lon="14.3596817"><ele>23.0</ele><time>2026-03-29T06:24:18.297Z</time></trkpt><trkpt lat="40.9228617" lon="14.3597733"><ele>23.0</ele><time>2026-03-29T06:24:19.296Z</time></trkpt><trkpt lat="40.9228533" lon="14.3598583"><ele>23.0</ele><time>2026-03-29T06:24:20.297Z</time></trkpt><trkpt lat="40.922845" lon="14.359945"><ele>23.0</ele><time>2026-03-29T06:24:21.295Z</time></trkpt><trkpt lat="40.92283" lon="14.3600317"><ele>23.0</ele><time>2026-03-29T06:24:22.296Z</time></trkpt><trkpt lat="40.9227567" lon="14.3601483"><ele>23.0</ele><time>2026-03-29T06:24:24.297Z</time></trkpt><trkpt lat="40.922645" lon="14.3602083"><ele>23.0</ele><time>2026-03-29T06:24:26.298Z</time></trkpt><trkpt lat="40.9225767" lon="14.360215"><ele>23.0</ele><time>2026-03-29T06:24:27.299Z</time></trkpt><trkpt lat="40.922505" lon="14.3602183"><ele>23.0</ele><time>2026-03-29T06:24:28.299Z</time></trkpt><trkpt lat="40.9224317" lon="14.3602167"><ele>23.0</ele><time>2026-03-29T06:24:29.299Z</time></trkpt><trkpt lat="40.922355" lon="14.3602167"><ele>23.0</ele><time>2026-03-29T06:24:30.298Z</time></trkpt><trkpt lat="40.92228" lon="14.3602167"><ele>23.0</ele><time>2026-03-29T06:24:31.298Z</time></trkpt><trkpt lat="40.922205" lon="14.3602167"><ele>23.0</ele><time>2026-03-29T06:24:32.295Z</time></trkpt><trkpt lat="40.9221317" lon="14.36022"><ele>23.0</ele><time>2026-03-29T06:24:33.295Z</time></trkpt><trkpt lat="40.9220583" lon="14.3602217"><ele>23.0</ele><time>2026-03-29T06:24:34.297Z</time></trkpt><trkpt lat="40.9219833" lon="14.3602217"><ele>23.0</ele><time>2026-03-29T06:24:35.296Z</time></trkpt><trkpt lat="40.92191" lon="14.360225"><ele>23.0</ele><time>2026-03-29T06:24:36.295Z</time></trkpt><trkpt lat="40.9218417" lon="14.3602283"><ele>23.0</ele><time>2026-03-29T06:24:37.297Z</time></trkpt><trkpt lat="40.9217683" lon="14.36023"><ele>23.0</ele><time>2026-03-29T06:24:38.295Z</time></trkpt><trkpt lat="40.9216983" lon="14.36023"><ele>23.0</ele><time>2026-03-29T06:24:39.295Z</time></trkpt><trkpt lat="40.92163" lon="14.3602283"><ele>23.0</ele><time>2026-03-29T06:24:40.297Z</time></trkpt><trkpt lat="40.9215633" lon="14.360225"><ele>23.0</ele><time>2026-03-29T06:24:41.297Z</time></trkpt><trkpt lat="40.9214917" lon="14.3602183"><ele>23.0</ele><time>2026-03-29T06:24:42.295Z</time></trkpt><trkpt lat="40.92142" lon="14.3602167"><ele>23.28571428571429</ele><time>2026-03-29T06:24:43.297Z</time></trkpt><trkpt lat="40.92135" lon="14.3602167"><ele>23.57142857142857</ele><time>2026-03-29T06:24:44.297Z</time></trkpt><trkpt lat="40.92128" lon="14.36022"><ele>23.857142857142858</ele><time>2026-03-29T06:24:45.296Z</time></trkpt><trkpt lat="40.9212067" lon="14.3602233"><ele>24.142857142857146</ele><time>2026-03-29T06:24:46.295Z</time></trkpt><trkpt lat="40.9211367" lon="14.3602233"><ele>24.42857142857143</ele><time>2026-03-29T06:24:47.297Z</time></trkpt><trkpt lat="40.9210667" lon="14.3602233"><ele>24.714285714285715</ele><time>2026-03-29T06:24:48.297Z</time></trkpt><trkpt lat="40.9209933" lon="14.3602217"><ele>25.0</ele><time>2026-03-29T06:24:49.297Z</time></trkpt><trkpt lat="40.9209217" lon="14.36022"><ele>24.857142857142858</ele><time>2026-03-29T06:24:50.297Z</time></trkpt><trkpt lat="40.9208483" lon="14.3602183"><ele>24.714285714285715</ele><time>2026-03-29T06:24:51.295Z</time></trkpt><trkpt lat="40.920775" lon="14.3602167"><ele>24.57142857142857</ele><time>2026-03-29T06:24:52.297Z</time></trkpt><trkpt lat="40.9207033" lon="14.360215"><ele>24.42857142857143</ele><time>2026-03-29T06:24:53.297Z</time></trkpt><trkpt lat="40.9206333" lon="14.360215"><ele>24.285714285714285</ele><time>2026-03-29T06:24:54.297Z</time></trkpt><trkpt lat="40.9205617" lon="14.360215"><ele>24.142857142857142</ele><time>2026-03-29T06:24:55.297Z</time></trkpt><trkpt lat="40.920495" lon="14.3602133"><ele>24.0</ele><time>2026-03-29T06:24:56.297Z</time></trkpt><trkpt lat="40.9204283" lon="14.3602133"><ele>23.999999999999996</ele><time>2026-03-29T06:24:57.296Z</time></trkpt><trkpt lat="40.9203617" lon="14.3602133"><ele>24.0</ele><time>2026-03-29T06:24:58.296Z</time></trkpt><trkpt lat="40.9202917" lon="14.3602133"><ele>24.0</ele><time>2026-03-29T06:24:59.297Z</time></trkpt><trkpt lat="40.9202233" lon="14.3602133"><ele>24.0</ele><time>2026-03-29T06:25:00.299Z</time></trkpt><trkpt lat="40.920155" lon="14.360215"><ele>24.0</ele><time>2026-03-29T06:25:01.299Z</time></trkpt><trkpt lat="40.920085" lon="14.3602167"><ele>23.999999999999996</ele><time>2026-03-29T06:25:02.298Z</time></trkpt><trkpt lat="40.9200167" lon="14.3602133"><ele>24.0</ele><time>2026-03-29T06:25:03.299Z</time></trkpt><trkpt lat="40.9199467" lon="14.36021"><ele>23.999999999999996</ele><time>2026-03-29T06:25:04.299Z</time></trkpt><trkpt lat="40.9198767" lon="14.3602067"><ele>24.0</ele><time>2026-03-29T06:25:05.298Z</time></trkpt><trkpt lat="40.9198067" lon="14.360205"><ele>24.0</ele><time>2026-03-29T06:25:06.299Z</time></trkpt><trkpt lat="40.9197383" lon="14.3602033"><ele>24.0</ele><time>2026-03-29T06:25:07.299Z</time></trkpt><trkpt lat="40.919665" lon="14.3602"><ele>24.0</ele><time>2026-03-29T06:25:08.298Z</time></trkpt><trkpt lat="40.9195917" lon="14.3601983"><ele>23.999999999999996</ele><time>2026-03-29T06:25:09.298Z</time></trkpt><trkpt lat="40.91952" lon="14.360195"><ele>24.0</ele><time>2026-03-29T06:25:10.298Z</time></trkpt><trkpt lat="40.9194467" lon="14.3601933"><ele>23.999999999999996</ele><time>2026-03-29T06:25:11.299Z</time></trkpt><trkpt lat="40.9193767" lon="14.3601917"><ele>24.0</ele><time>2026-03-29T06:25:12.298Z</time></trkpt><trkpt lat="40.9193033" lon="14.36019"><ele>24.0</ele><time>2026-03-29T06:25:13.297Z</time></trkpt><trkpt lat="40.91923" lon="14.3601883"><ele>24.0</ele><time>2026-03-29T06:25:14.299Z</time></trkpt><trkpt lat="40.9191583" lon="14.3601867"><ele>24.0</ele><time>2026-03-29T06:25:15.299Z</time></trkpt><trkpt lat="40.9190883" lon="14.3601833"><ele>23.999999999999996</ele><time>2026-03-29T06:25:16.295Z</time></trkpt><trkpt lat="40.9190183" lon="14.3601833"><ele>24.0</ele><time>2026-03-29T06:25:17.297Z</time></trkpt><trkpt lat="40.91895" lon="14.3601817"><ele>23.666666666666668</ele><time>2026-03-29T06:25:18.296Z</time></trkpt><trkpt lat="40.9188767" lon="14.3601783"><ele>23.333333333333332</ele><time>2026-03-29T06:25:19.297Z</time></trkpt><trkpt lat="40.9188033" lon="14.3601767"><ele>23.0</ele><time>2026-03-29T06:25:20.296Z</time></trkpt><trkpt lat="40.9187317" lon="14.3601767"><ele>22.666666666666664</ele><time>2026-03-29T06:25:21.297Z</time></trkpt><trkpt lat="40.9186617" lon="14.3601767"><ele>22.333333333333332</ele><time>2026-03-29T06:25:22.297Z</time></trkpt><trkpt lat="40.9185967" lon="14.360175"><ele>22.0</ele><time>2026-03-29T06:25:23.299Z</time></trkpt><trkpt lat="40.9184683" lon="14.3601633"><ele>22.42857142857143</ele><time>2026-03-29T06:25:25.297Z</time></trkpt><trkpt lat="40.9183967" lon="14.36016"><ele>22.857142857142858</ele><time>2026-03-29T06:25:26.296Z</time></trkpt><trkpt lat="40.918325" lon="14.360155"><ele>23.285714285714285</ele><time>2026-03-29T06:25:27.296Z</time></trkpt><trkpt lat="40.9182533" lon="14.3601533"><ele>23.714285714285715</ele><time>2026-03-29T06:25:28.297Z</time></trkpt><trkpt lat="40.9181817" lon="14.360145"><ele>24.142857142857142</ele><time>2026-03-29T06:25:29.295Z</time></trkpt><trkpt lat="40.91811" lon="14.36014"><ele>24.571428571428573</ele><time>2026-03-29T06:25:30.297Z</time></trkpt><trkpt lat="40.9180383" lon="14.3601367"><ele>25.0</ele><time>2026-03-29T06:25:31.297Z</time></trkpt><trkpt lat="40.9179717" lon="14.3601317"><ele>25.000000000000004</ele><time>2026-03-29T06:25:32.297Z</time></trkpt><trkpt lat="40.9178983" lon="14.3601283"><ele>25.0</ele><time>2026-03-29T06:25:33.296Z</time></trkpt><trkpt lat="40.9178267" lon="14.3601217"><ele>25.0</ele><time>2026-03-29T06:25:34.297Z</time></trkpt><trkpt lat="40.9177583" lon="14.3601183"><ele>25.0</ele><time>2026-03-29T06:25:35.297Z</time></trkpt><trkpt lat="40.9176317" lon="14.3601117"><ele>25.000000000000004</ele><time>2026-03-29T06:25:37.299Z</time></trkpt><trkpt lat="40.9175683" lon="14.3601067"><ele>25.0</ele><time>2026-03-29T06:25:38.299Z</time></trkpt><trkpt lat="40.9175017" lon="14.3601"><ele>25.142857142857146</ele><time>2026-03-29T06:25:39.298Z</time></trkpt><trkpt lat="40.9174333" lon="14.360095"><ele>25.285714285714285</ele><time>2026-03-29T06:25:40.297Z</time></trkpt><trkpt lat="40.9173633" lon="14.36009"><ele>25.42857142857143</ele><time>2026-03-29T06:25:41.295Z</time></trkpt><trkpt lat="40.91729" lon="14.3600883"><ele>25.571428571428573</ele><time>2026-03-29T06:25:42.298Z</time></trkpt><trkpt lat="40.9172183" lon="14.3600883"><ele>25.714285714285715</ele><time>2026-03-29T06:25:43.299Z</time></trkpt><trkpt lat="40.9171467" lon="14.360085"><ele>25.857142857142858</ele><time>2026-03-29T06:25:44.298Z</time></trkpt><trkpt lat="40.917075" lon="14.36008"><ele>26.0</ele><time>2026-03-29T06:25:45.297Z</time></trkpt><trkpt lat="40.9170067" lon="14.3600717"><ele>26.0</ele><time>2026-03-29T06:25:46.299Z</time></trkpt><trkpt lat="40.9169367" lon="14.3600633"><ele>26.0</ele><time>2026-03-29T06:25:47.299Z</time></trkpt><trkpt lat="40.91687" lon="14.3600567"><ele>26.0</ele><time>2026-03-29T06:25:48.298Z</time></trkpt><trkpt lat="40.9168017" lon="14.3600533"><ele>26.0</ele><time>2026-03-29T06:25:49.295Z</time></trkpt><trkpt lat="40.9167333" lon="14.3600483"><ele>26.0</ele><time>2026-03-29T06:25:50.297Z</time></trkpt><trkpt lat="40.9166683" lon="14.3600433"><ele>26.0</ele><time>2026-03-29T06:25:51.298Z</time></trkpt><trkpt lat="40.9166033" lon="14.3600367"><ele>26.0</ele><time>2026-03-29T06:25:52.295Z</time></trkpt><trkpt lat="40.91649" lon="14.360025"><ele>25.8</ele><time>2026-03-29T06:25:54.297Z</time></trkpt><trkpt lat="40.916375" lon="14.360005"><ele>25.6</ele><time>2026-03-29T06:25:56.297Z</time></trkpt><trkpt lat="40.9163117" lon="14.3599933"><ele>25.4</ele><time>2026-03-29T06:25:57.295Z</time></trkpt><trkpt lat="40.9162483" lon="14.3599817"><ele>25.2</ele><time>2026-03-29T06:25:58.297Z</time></trkpt><trkpt lat="40.91613" lon="14.359955"><ele>25.0</ele><time>2026-03-29T06:26:00.297Z</time></trkpt><trkpt lat="40.916025" lon="14.3599433"><ele>25.0</ele><time>2026-03-29T06:26:02.296Z</time></trkpt><trkpt lat="40.9159433" lon="14.3600117"><ele>25.0</ele><time>2026-03-29T06:26:04.297Z</time></trkpt><trkpt lat="40.91594" lon="14.3601517"><ele>25.0</ele><time>2026-03-29T06:26:06.297Z</time></trkpt><trkpt lat="40.9159567" lon="14.3603117"><ele>25.0</ele><time>2026-03-29T06:26:08.297Z</time></trkpt><trkpt lat="40.915965" lon="14.3604017"><ele>25.0</ele><time>2026-03-29T06:26:09.296Z</time></trkpt><trkpt lat="40.9159717" lon="14.3604967"><ele>24.500000000000004</ele><time>2026-03-29T06:26:10.295Z</time></trkpt><trkpt lat="40.9159833" lon="14.3605867"><ele>24.0</ele><time>2026-03-29T06:26:11.297Z</time></trkpt><trkpt lat="40.9159867" lon="14.3606733"><ele>23.5</ele><time>2026-03-29T06:26:12.295Z</time></trkpt><trkpt lat="40.9159917" lon="14.3607567"><ele>23.0</ele><time>2026-03-29T06:26:13.297Z</time></trkpt><trkpt lat="40.916005" lon="14.3609233"><ele>22.5</ele><time>2026-03-29T06:26:15.295Z</time></trkpt><trkpt lat="40.9160133" lon="14.3610133"><ele>22.0</ele><time>2026-03-29T06:26:16.297Z</time></trkpt><trkpt lat="40.9160267" lon="14.3610983"><ele>22.0</ele><time>2026-03-29T06:26:17.297Z</time></trkpt><trkpt lat="40.916045" lon="14.3611833"><ele>22.0</ele><time>2026-03-29T06:26:18.297Z</time></trkpt><trkpt lat="40.9160667" lon="14.36127"><ele>22.0</ele><time>2026-03-29T06:26:19.297Z</time></trkpt><trkpt lat="40.9160933" lon="14.361355"><ele>22.0</ele><time>2026-03-29T06:26:20.297Z</time></trkpt><trkpt lat="40.9161183" lon="14.3614383"><ele>22.0</ele><time>2026-03-29T06:26:21.296Z</time></trkpt><trkpt lat="40.9161433" lon="14.361525"><ele>22.0</ele><time>2026-03-29T06:26:22.297Z</time></trkpt><trkpt lat="40.916175" lon="14.36161"><ele>22.0</ele><time>2026-03-29T06:26:23.297Z</time></trkpt><trkpt lat="40.9162083" lon="14.3616883"><ele>22.142857142857142</ele><time>2026-03-29T06:26:24.297Z</time></trkpt><trkpt lat="40.916245" lon="14.3617667"><ele>22.285714285714285</ele><time>2026-03-29T06:26:25.297Z</time></trkpt><trkpt lat="40.9162817" lon="14.3618417"><ele>22.42857142857143</ele><time>2026-03-29T06:26:26.297Z</time></trkpt><trkpt lat="40.91632" lon="14.3619133"><ele>22.57142857142857</ele><time>2026-03-29T06:26:27.296Z</time></trkpt><trkpt lat="40.9163567" lon="14.361985"><ele>22.71428571428571</ele><time>2026-03-29T06:26:28.297Z</time></trkpt><trkpt lat="40.9163933" lon="14.3620567"><ele>22.857142857142858</ele><time>2026-03-29T06:26:29.297Z</time></trkpt><trkpt lat="40.916435" lon="14.3621267"><ele>23.0</ele><time>2026-03-29T06:26:30.297Z</time></trkpt><trkpt lat="40.9164767" lon="14.3621933"><ele>23.142857142857142</ele><time>2026-03-29T06:26:31.296Z</time></trkpt><trkpt lat="40.9165183" lon="14.3622583"><ele>23.285714285714285</ele><time>2026-03-29T06:26:32.297Z</time></trkpt><trkpt lat="40.9165633" lon="14.3623233"><ele>23.428571428571427</ele><time>2026-03-29T06:26:33.296Z</time></trkpt><trkpt lat="40.91661" lon="14.3623917"><ele>23.57142857142857</ele><time>2026-03-29T06:26:34.297Z</time></trkpt><trkpt lat="40.9166517" lon="14.3624583"><ele>23.714285714285715</ele><time>2026-03-29T06:26:35.297Z</time></trkpt><trkpt lat="40.9166933" lon="14.362525"><ele>23.857142857142854</ele><time>2026-03-29T06:26:36.297Z</time></trkpt><trkpt lat="40.9167367" lon="14.3625933"><ele>24.0</ele><time>2026-03-29T06:26:37.297Z</time></trkpt><trkpt lat="40.9167783" lon="14.36266"><ele>23.999999999999996</ele><time>2026-03-29T06:26:38.297Z</time></trkpt><trkpt lat="40.9168217" lon="14.362725"><ele>24.0</ele><time>2026-03-29T06:26:39.297Z</time></trkpt><trkpt lat="40.9168633" lon="14.36279"><ele>24.0</ele><time>2026-03-29T06:26:40.298Z</time></trkpt><trkpt lat="40.9169083" lon="14.362855"><ele>24.0</ele><time>2026-03-29T06:26:41.299Z</time></trkpt><trkpt lat="40.9169533" lon="14.36292"><ele>24.0</ele><time>2026-03-29T06:26:42.299Z</time></trkpt><trkpt lat="40.917" lon="14.3629883"><ele>23.999999999999996</ele><time>2026-03-29T06:26:43.297Z</time></trkpt><trkpt lat="40.917045" lon="14.3630567"><ele>24.0</ele><time>2026-03-29T06:26:44.299Z</time></trkpt><trkpt lat="40.91709" lon="14.3631267"><ele>24.0</ele><time>2026-03-29T06:26:45.296Z</time></trkpt><trkpt lat="40.9171333" lon="14.36319"><ele>24.0</ele><time>2026-03-29T06:26:46.299Z</time></trkpt><trkpt lat="40.9171767" lon="14.3632583"><ele>24.0</ele><time>2026-03-29T06:26:47.298Z</time></trkpt><trkpt lat="40.9172167" lon="14.3633267"><ele>24.0</ele><time>2026-03-29T06:26:48.297Z</time></trkpt><trkpt lat="40.917255" lon="14.363395"><ele>24.0</ele><time>2026-03-29T06:26:49.3Z</time></trkpt><trkpt lat="40.917335" lon="14.3635233"><ele>24.0</ele><time>2026-03-29T06:26:51.298Z</time></trkpt><trkpt lat="40.9173783" lon="14.3635917"><ele>23.999999999999996</ele><time>2026-03-29T06:26:52.298Z</time></trkpt><trkpt lat="40.9174183" lon="14.3636583"><ele>24.0</ele><time>2026-03-29T06:26:53.299Z</time></trkpt><trkpt lat="40.91746" lon="14.3637267"><ele>24.0</ele><time>2026-03-29T06:26:54.298Z</time></trkpt><trkpt lat="40.9175017" lon="14.363795"><ele>24.0</ele><time>2026-03-29T06:26:55.298Z</time></trkpt><trkpt lat="40.9175433" lon="14.3638667"><ele>24.0</ele><time>2026-03-29T06:26:56.299Z</time></trkpt><trkpt lat="40.9175833" lon="14.3639383"><ele>23.999999999999996</ele><time>2026-03-29T06:26:57.296Z</time></trkpt><trkpt lat="40.917625" lon="14.36401"><ele>24.0</ele><time>2026-03-29T06:26:58.295Z</time></trkpt><trkpt lat="40.917665" lon="14.36408"><ele>24.142857142857142</ele><time>2026-03-29T06:26:59.295Z</time></trkpt><trkpt lat="40.9177067" lon="14.3641517"><ele>24.285714285714285</ele><time>2026-03-29T06:27:00.297Z</time></trkpt><trkpt lat="40.9177467" lon="14.3642217"><ele>24.42857142857143</ele><time>2026-03-29T06:27:01.297Z</time></trkpt><trkpt lat="40.9177867" lon="14.3642883"><ele>24.57142857142857</ele><time>2026-03-29T06:27:02.296Z</time></trkpt><trkpt lat="40.9178267" lon="14.36436"><ele>24.714285714285715</ele><time>2026-03-29T06:27:03.297Z</time></trkpt><trkpt lat="40.91787" lon="14.3644317"><ele>24.857142857142858</ele><time>2026-03-29T06:27:04.296Z</time></trkpt><trkpt lat="40.91791" lon="14.364505"><ele>25.0</ele><time>2026-03-29T06:27:05.297Z</time></trkpt><trkpt lat="40.91795" lon="14.3645783"><ele>25.000000000000004</ele><time>2026-03-29T06:27:06.297Z</time></trkpt><trkpt lat="40.91799" lon="14.3646483"><ele>25.0</ele><time>2026-03-29T06:27:07.297Z</time></trkpt><trkpt lat="40.9180633" lon="14.3647783"><ele>25.0</ele><time>2026-03-29T06:27:09.295Z</time></trkpt><trkpt lat="40.9181033" lon="14.3648517"><ele>25.0</ele><time>2026-03-29T06:27:10.296Z</time></trkpt><trkpt lat="40.9181433" lon="14.3649283"><ele>25.000000000000004</ele><time>2026-03-29T06:27:11.296Z</time></trkpt><trkpt lat="40.91818" lon="14.3650033"><ele>25.0</ele><time>2026-03-29T06:27:12.296Z</time></trkpt><trkpt lat="40.9182183" lon="14.3650767"><ele>25.000000000000004</ele><time>2026-03-29T06:27:13.296Z</time></trkpt><trkpt lat="40.91826" lon="14.3651533"><ele>25.0</ele><time>2026-03-29T06:27:14.296Z</time></trkpt><trkpt lat="40.9182967" lon="14.3652267"><ele>25.0</ele><time>2026-03-29T06:27:15.296Z</time></trkpt><trkpt lat="40.9183383" lon="14.3653033"><ele>25.0</ele><time>2026-03-29T06:27:16.295Z</time></trkpt><trkpt lat="40.918375" lon="14.3653833"><ele>25.0</ele><time>2026-03-29T06:27:17.295Z</time></trkpt><trkpt lat="40.9184067" lon="14.3654667"><ele>25.000000000000004</ele><time>2026-03-29T06:27:18.294Z</time></trkpt><trkpt lat="40.918435" lon="14.3655517"><ele>25.0</ele><time>2026-03-29T06:27:19.296Z</time></trkpt><trkpt lat="40.91846" lon="14.365635"><ele>25.142857142857146</ele><time>2026-03-29T06:27:20.295Z</time></trkpt><trkpt lat="40.91848" lon="14.3657217"><ele>25.285714285714285</ele><time>2026-03-29T06:27:21.294Z</time></trkpt><trkpt lat="40.9184967" lon="14.3658117"><ele>25.42857142857143</ele><time>2026-03-29T06:27:22.296Z</time></trkpt><trkpt lat="40.9185083" lon="14.3658983"><ele>25.571428571428573</ele><time>2026-03-29T06:27:23.295Z</time></trkpt><trkpt lat="40.91851" lon="14.3659833"><ele>25.714285714285715</ele><time>2026-03-29T06:27:24.296Z</time></trkpt><trkpt lat="40.91851" lon="14.3660717"><ele>25.857142857142858</ele><time>2026-03-29T06:27:25.295Z</time></trkpt><trkpt lat="40.91851" lon="14.3661617"><ele>26.0</ele><time>2026-03-29T06:27:26.296Z</time></trkpt><trkpt lat="40.9185067" lon="14.36625"><ele>25.999999999999996</ele><time>2026-03-29T06:27:27.294Z</time></trkpt><trkpt lat="40.9185033" lon="14.3663383"><ele>26.0</ele><time>2026-03-29T06:27:28.295Z</time></trkpt><trkpt lat="40.9184917" lon="14.366425"><ele>26.0</ele><time>2026-03-29T06:27:29.295Z</time></trkpt><trkpt lat="40.918475" lon="14.3665117"><ele>26.0</ele><time>2026-03-29T06:27:30.295Z</time></trkpt><trkpt lat="40.9184517" lon="14.3665967"><ele>25.999999999999996</ele><time>2026-03-29T06:27:31.295Z</time></trkpt><trkpt lat="40.9184017" lon="14.36675"><ele>26.0</ele><time>2026-03-29T06:27:33.295Z</time></trkpt><trkpt lat="40.9183817" lon="14.3668333"><ele>25.833333333333332</ele><time>2026-03-29T06:27:34.294Z</time></trkpt><trkpt lat="40.9183567" lon="14.3669183"><ele>25.666666666666664</ele><time>2026-03-29T06:27:35.295Z</time></trkpt><trkpt lat="40.9183333" lon="14.3670017"><ele>25.5</ele><time>2026-03-29T06:27:36.295Z</time></trkpt><trkpt lat="40.9183133" lon="14.367085"><ele>25.333333333333336</ele><time>2026-03-29T06:27:37.295Z</time></trkpt><trkpt lat="40.9182783" lon="14.367235"><ele>25.166666666666668</ele><time>2026-03-29T06:27:39.295Z</time></trkpt><trkpt lat="40.91826" lon="14.3673983"><ele>25.0</ele><time>2026-03-29T06:27:41.296Z</time></trkpt><trkpt lat="40.9182683" lon="14.3674817"><ele>25.000000000000004</ele><time>2026-03-29T06:27:42.295Z</time></trkpt><trkpt lat="40.9183083" lon="14.367635"><ele>25.0</ele><time>2026-03-29T06:27:44.296Z</time></trkpt><trkpt lat="40.9183817" lon="14.3677667"><ele>25.0</ele><time>2026-03-29T06:27:46.296Z</time></trkpt><trkpt lat="40.918425" lon="14.3678283"><ele>25.0</ele><time>2026-03-29T06:27:47.296Z</time></trkpt><trkpt lat="40.9184683" lon="14.36789"><ele>25.000000000000004</ele><time>2026-03-29T06:27:48.296Z</time></trkpt><trkpt lat="40.9185117" lon="14.367955"><ele>25.0</ele><time>2026-03-29T06:27:49.296Z</time></trkpt><trkpt lat="40.9185583" lon="14.368025"><ele>25.142857142857146</ele><time>2026-03-29T06:27:50.295Z</time></trkpt><trkpt lat="40.918605" lon="14.3680933"><ele>25.285714285714285</ele><time>2026-03-29T06:27:51.295Z</time></trkpt><trkpt lat="40.9186517" lon="14.36816"><ele>25.42857142857143</ele><time>2026-03-29T06:27:52.296Z</time></trkpt><trkpt lat="40.9186967" lon="14.368225"><ele>25.571428571428573</ele><time>2026-03-29T06:27:53.295Z</time></trkpt><trkpt lat="40.91874" lon="14.3682883"><ele>25.714285714285715</ele><time>2026-03-29T06:27:54.295Z</time></trkpt><trkpt lat="40.918785" lon="14.3683567"><ele>25.857142857142858</ele><time>2026-03-29T06:27:55.296Z</time></trkpt><trkpt lat="40.9188317" lon="14.368425"><ele>26.0</ele><time>2026-03-29T06:27:56.295Z</time></trkpt><trkpt lat="40.91888" lon="14.3684967"><ele>26.0</ele><time>2026-03-29T06:27:57.295Z</time></trkpt><trkpt lat="40.9189267" lon="14.3685683"><ele>26.0</ele><time>2026-03-29T06:27:58.295Z</time></trkpt><trkpt lat="40.9189683" lon="14.3686467"><ele>26.0</ele><time>2026-03-29T06:27:59.295Z</time></trkpt><trkpt lat="40.919005" lon="14.3687233"><ele>26.0</ele><time>2026-03-29T06:28:00.295Z</time></trkpt><trkpt lat="40.9190433" lon="14.3688067"><ele>26.0</ele><time>2026-03-29T06:28:01.295Z</time></trkpt><trkpt lat="40.9190767" lon="14.3688867"><ele>26.0</ele><time>2026-03-29T06:28:02.295Z</time></trkpt><trkpt lat="40.9191083" lon="14.3689667"><ele>26.0</ele><time>2026-03-29T06:28:03.295Z</time></trkpt><trkpt lat="40.9191383" lon="14.3690517"><ele>26.0</ele><time>2026-03-29T06:28:04.295Z</time></trkpt><trkpt lat="40.919165" lon="14.3691283"><ele>26.0</ele><time>2026-03-29T06:28:05.296Z</time></trkpt><trkpt lat="40.9191883" lon="14.3692083"><ele>26.0</ele><time>2026-03-29T06:28:06.295Z</time></trkpt><trkpt lat="40.91921" lon="14.3692933"><ele>26.0</ele><time>2026-03-29T06:28:07.296Z</time></trkpt><trkpt lat="40.919225" lon="14.369385"><ele>26.0</ele><time>2026-03-29T06:28:08.298Z</time></trkpt><trkpt lat="40.91924" lon="14.36948"><ele>26.0</ele><time>2026-03-29T06:28:09.295Z</time></trkpt><trkpt lat="40.9192533" lon="14.3695717"><ele>26.0</ele><time>2026-03-29T06:28:10.295Z</time></trkpt><trkpt lat="40.919265" lon="14.369665"><ele>25.57142857142857</ele><time>2026-03-29T06:28:11.295Z</time></trkpt><trkpt lat="40.9192767" lon="14.3697567"><ele>25.142857142857146</ele><time>2026-03-29T06:28:12.295Z</time></trkpt><trkpt lat="40.9192933" lon="14.3698467"><ele>24.714285714285715</ele><time>2026-03-29T06:28:13.295Z</time></trkpt><trkpt lat="40.91931" lon="14.3699383"><ele>24.285714285714285</ele><time>2026-03-29T06:28:14.295Z</time></trkpt><trkpt lat="40.9193233" lon="14.3700267"><ele>23.857142857142854</ele><time>2026-03-29T06:28:15.295Z</time></trkpt><trkpt lat="40.91934" lon="14.370115"><ele>23.42857142857143</ele><time>2026-03-29T06:28:16.295Z</time></trkpt><trkpt lat="40.91936" lon="14.3701983"><ele>23.0</ele><time>2026-03-29T06:28:17.295Z</time></trkpt><trkpt lat="40.919385" lon="14.3702933"><ele>23.0</ele><time>2026-03-29T06:28:18.295Z</time></trkpt><trkpt lat="40.9194117" lon="14.37038"><ele>23.0</ele><time>2026-03-29T06:28:19.297Z</time></trkpt><trkpt lat="40.9194383" lon="14.3704567"><ele>23.0</ele><time>2026-03-29T06:28:20.295Z</time></trkpt><trkpt lat="40.9194683" lon="14.3705367"><ele>23.0</ele><time>2026-03-29T06:28:21.295Z</time></trkpt><trkpt lat="40.9194983" lon="14.3706133"><ele>23.0</ele><time>2026-03-29T06:28:22.296Z</time></trkpt><trkpt lat="40.9195333" lon="14.3706917"><ele>23.0</ele><time>2026-03-29T06:28:23.295Z</time></trkpt><trkpt lat="40.9195683" lon="14.370765"><ele>23.0</ele><time>2026-03-29T06:28:24.296Z</time></trkpt><trkpt lat="40.9196067" lon="14.370835"><ele>23.0</ele><time>2026-03-29T06:28:25.296Z</time></trkpt><trkpt lat="40.9196433" lon="14.3709033"><ele>23.0</ele><time>2026-03-29T06:28:26.295Z</time></trkpt><trkpt lat="40.91968" lon="14.3709733"><ele>23.0</ele><time>2026-03-29T06:28:27.295Z</time></trkpt><trkpt lat="40.9197183" lon="14.3710467"><ele>23.0</ele><time>2026-03-29T06:28:28.295Z</time></trkpt><trkpt lat="40.9197567" lon="14.37112"><ele>23.0</ele><time>2026-03-29T06:28:29.298Z</time></trkpt><trkpt lat="40.9197983" lon="14.3711933"><ele>23.0</ele><time>2026-03-29T06:28:30.296Z</time></trkpt><trkpt lat="40.9198367" lon="14.37126"><ele>23.0</ele><time>2026-03-29T06:28:31.296Z</time></trkpt><trkpt lat="40.919875" lon="14.371335"><ele>23.0</ele><time>2026-03-29T06:28:32.296Z</time></trkpt><trkpt lat="40.9199167" lon="14.3714117"><ele>23.0</ele><time>2026-03-29T06:28:33.296Z</time></trkpt><trkpt lat="40.9199567" lon="14.3714883"><ele>23.0</ele><time>2026-03-29T06:28:34.296Z</time></trkpt><trkpt lat="40.919995" lon="14.3715617"><ele>23.0</ele><time>2026-03-29T06:28:35.296Z</time></trkpt><trkpt lat="40.9200333" lon="14.3716317"><ele>23.0</ele><time>2026-03-29T06:28:36.295Z</time></trkpt><trkpt lat="40.92007" lon="14.371705"><ele>23.0</ele><time>2026-03-29T06:28:37.299Z</time></trkpt><trkpt lat="40.92014" lon="14.37184"><ele>23.142857142857142</ele><time>2026-03-29T06:28:39.294Z</time></trkpt><trkpt lat="40.9201783" lon="14.3719117"><ele>23.285714285714285</ele><time>2026-03-29T06:28:40.296Z</time></trkpt><trkpt lat="40.920215" lon="14.3719833"><ele>23.428571428571427</ele><time>2026-03-29T06:28:41.297Z</time></trkpt><trkpt lat="40.9202517" lon="14.372055"><ele>23.57142857142857</ele><time>2026-03-29T06:28:42.295Z</time></trkpt><trkpt lat="40.92029" lon="14.3721267"><ele>23.714285714285715</ele><time>2026-03-29T06:28:43.298Z</time></trkpt><trkpt lat="40.9203267" lon="14.3721967"><ele>23.857142857142854</ele><time>2026-03-29T06:28:44.296Z</time></trkpt><trkpt lat="40.9203617" lon="14.3722683"><ele>24.0</ele><time>2026-03-29T06:28:45.296Z</time></trkpt><trkpt lat="40.9203983" lon="14.37234"><ele>23.999999999999996</ele><time>2026-03-29T06:28:46.295Z</time></trkpt><trkpt lat="40.9204333" lon="14.372415"><ele>24.0</ele><time>2026-03-29T06:28:47.297Z</time></trkpt><trkpt lat="40.9204717" lon="14.3724867"><ele>24.0</ele><time>2026-03-29T06:28:48.295Z</time></trkpt><trkpt lat="40.9205083" lon="14.3725567"><ele>24.0</ele><time>2026-03-29T06:28:49.297Z</time></trkpt><trkpt lat="40.920545" lon="14.3726283"><ele>24.0</ele><time>2026-03-29T06:28:50.297Z</time></trkpt><trkpt lat="40.92058" lon="14.3727033"><ele>23.999999999999996</ele><time>2026-03-29T06:28:51.295Z</time></trkpt><trkpt lat="40.9206083" lon="14.3727867"><ele>24.0</ele><time>2026-03-29T06:28:52.297Z</time></trkpt><trkpt lat="40.9206267" lon="14.37287"><ele>23.999999999999996</ele><time>2026-03-29T06:28:53.297Z</time></trkpt><trkpt lat="40.92064" lon="14.3729567"><ele>24.0</ele><time>2026-03-29T06:28:54.295Z</time></trkpt><trkpt lat="40.920645" lon="14.37304"><ele>24.0</ele><time>2026-03-29T06:28:55.297Z</time></trkpt><trkpt lat="40.9206467" lon="14.3731317"><ele>24.0</ele><time>2026-03-29T06:28:56.297Z</time></trkpt><trkpt lat="40.9206417" lon="14.3732217"><ele>24.0</ele><time>2026-03-29T06:28:57.297Z</time></trkpt><trkpt lat="40.920635" lon="14.37331"><ele>23.999999999999996</ele><time>2026-03-29T06:28:58.296Z</time></trkpt><trkpt lat="40.9206317" lon="14.373395"><ele>24.0</ele><time>2026-03-29T06:28:59.297Z</time></trkpt><trkpt lat="40.92063" lon="14.3734783"><ele>23.999999999999996</ele><time>2026-03-29T06:29:00.295Z</time></trkpt><trkpt lat="40.9206267" lon="14.3735633"><ele>24.0</ele><time>2026-03-29T06:29:01.296Z</time></trkpt><trkpt lat="40.920625" lon="14.3736467"><ele>24.0</ele><time>2026-03-29T06:29:02.297Z</time></trkpt><trkpt lat="40.9206217" lon="14.37373"><ele>24.0</ele><time>2026-03-29T06:29:03.296Z</time></trkpt><trkpt lat="40.920615" lon="14.373815"><ele>24.0</ele><time>2026-03-29T06:29:04.297Z</time></trkpt><trkpt lat="40.920605" lon="14.3739017"><ele>23.999999999999996</ele><time>2026-03-29T06:29:05.297Z</time></trkpt><trkpt lat="40.920605" lon="14.3739917"><ele>24.0</ele><time>2026-03-29T06:29:06.296Z</time></trkpt><trkpt lat="40.9206033" lon="14.3740867"><ele>23.999999999999996</ele><time>2026-03-29T06:29:07.297Z</time></trkpt><trkpt lat="40.9206" lon="14.3741733"><ele>24.0</ele><time>2026-03-29T06:29:08.297Z</time></trkpt><trkpt lat="40.9205983" lon="14.37426"><ele>24.0</ele><time>2026-03-29T06:29:09.297Z</time></trkpt><trkpt lat="40.920595" lon="14.3743433"><ele>24.0</ele><time>2026-03-29T06:29:10.297Z</time></trkpt><trkpt lat="40.9205867" lon="14.3744283"><ele>24.0</ele><time>2026-03-29T06:29:11.297Z</time></trkpt><trkpt lat="40.9205817" lon="14.37452"><ele>23.999999999999996</ele><time>2026-03-29T06:29:12.296Z</time></trkpt><trkpt lat="40.9205783" lon="14.3746083"><ele>24.0</ele><time>2026-03-29T06:29:13.297Z</time></trkpt><trkpt lat="40.920585" lon="14.374695"><ele>23.999999999999996</ele><time>2026-03-29T06:29:14.297Z</time></trkpt><trkpt lat="40.9206" lon="14.3747867"><ele>24.0</ele><time>2026-03-29T06:29:15.296Z</time></trkpt><trkpt lat="40.9206167" lon="14.3748733"><ele>24.0</ele><time>2026-03-29T06:29:16.297Z</time></trkpt><trkpt lat="40.9206317" lon="14.3749583"><ele>24.0</ele><time>2026-03-29T06:29:17.295Z</time></trkpt><trkpt lat="40.9206467" lon="14.3750483"><ele>24.0</ele><time>2026-03-29T06:29:18.297Z</time></trkpt><trkpt lat="40.9206633" lon="14.3751367"><ele>23.999999999999996</ele><time>2026-03-29T06:29:19.296Z</time></trkpt><trkpt lat="40.92068" lon="14.375225"><ele>24.0</ele><time>2026-03-29T06:29:20.297Z</time></trkpt><trkpt lat="40.920695" lon="14.3753167"><ele>23.999999999999996</ele><time>2026-03-29T06:29:21.296Z</time></trkpt><trkpt lat="40.9207083" lon="14.37541"><ele>24.0</ele><time>2026-03-29T06:29:22.297Z</time></trkpt><trkpt lat="40.9207183" lon="14.3755017"><ele>24.0</ele><time>2026-03-29T06:29:23.297Z</time></trkpt><trkpt lat="40.9207283" lon="14.3755883"><ele>24.0</ele><time>2026-03-29T06:29:24.296Z</time></trkpt><trkpt lat="40.9207367" lon="14.3756733"><ele>24.0</ele><time>2026-03-29T06:29:25.296Z</time></trkpt><trkpt lat="40.9207433" lon="14.3757583"><ele>23.999999999999996</ele><time>2026-03-29T06:29:26.295Z</time></trkpt><trkpt lat="40.9207483" lon="14.375845"><ele>24.0</ele><time>2026-03-29T06:29:27.296Z</time></trkpt><trkpt lat="40.920755" lon="14.3759333"><ele>23.999999999999996</ele><time>2026-03-29T06:29:28.297Z</time></trkpt><trkpt lat="40.9207617" lon="14.3760267"><ele>24.0</ele><time>2026-03-29T06:29:29.295Z</time></trkpt><trkpt lat="40.9207683" lon="14.3761183"><ele>24.0</ele><time>2026-03-29T06:29:30.297Z</time></trkpt><trkpt lat="40.920775" lon="14.3762067"><ele>24.0</ele><time>2026-03-29T06:29:31.297Z</time></trkpt><trkpt lat="40.92078" lon="14.376295"><ele>24.0</ele><time>2026-03-29T06:29:32.295Z</time></trkpt><trkpt lat="40.920785" lon="14.3763883"><ele>23.999999999999996</ele><time>2026-03-29T06:29:33.294Z</time></trkpt><trkpt lat="40.9207917" lon="14.37648"><ele>24.0</ele><time>2026-03-29T06:29:34.296Z</time></trkpt><trkpt lat="40.9208017" lon="14.3765733"><ele>23.999999999999996</ele><time>2026-03-29T06:29:35.297Z</time></trkpt><trkpt lat="40.9208083" lon="14.376665"><ele>24.0</ele><time>2026-03-29T06:29:36.296Z</time></trkpt><trkpt lat="40.9208117" lon="14.3767517"><ele>24.0</ele><time>2026-03-29T06:29:37.297Z</time></trkpt><trkpt lat="40.920815" lon="14.3768433"><ele>24.0</ele><time>2026-03-29T06:29:38.297Z</time></trkpt><trkpt lat="40.9208183" lon="14.376935"><ele>24.0</ele><time>2026-03-29T06:29:39.295Z</time></trkpt><trkpt lat="40.9208233" lon="14.3770233"><ele>23.999999999999996</ele><time>2026-03-29T06:29:40.295Z</time></trkpt><trkpt lat="40.92083" lon="14.3771117"><ele>24.0</ele><time>2026-03-29T06:29:41.297Z</time></trkpt><trkpt lat="40.9208333" lon="14.3772033"><ele>23.999999999999996</ele><time>2026-03-29T06:29:42.297Z</time></trkpt><trkpt lat="40.9208383" lon="14.3772967"><ele>24.0</ele><time>2026-03-29T06:29:43.297Z</time></trkpt><trkpt lat="40.9208417" lon="14.3773883"><ele>24.0</ele><time>2026-03-29T06:29:44.296Z</time></trkpt><trkpt lat="40.9208417" lon="14.3774783"><ele>24.0</ele><time>2026-03-29T06:29:45.296Z</time></trkpt><trkpt lat="40.920845" lon="14.3775667"><ele>24.0</ele><time>2026-03-29T06:29:46.297Z</time></trkpt><trkpt lat="40.9208467" lon="14.3776533"><ele>23.999999999999996</ele><time>2026-03-29T06:29:47.297Z</time></trkpt><trkpt lat="40.9208517" lon="14.3777417"><ele>24.0</ele><time>2026-03-29T06:29:48.296Z</time></trkpt><trkpt lat="40.920855" lon="14.37783"><ele>23.999999999999996</ele><time>2026-03-29T06:29:49.297Z</time></trkpt><trkpt lat="40.9208567" lon="14.3779167"><ele>24.0</ele><time>2026-03-29T06:29:50.296Z</time></trkpt><trkpt lat="40.9208617" lon="14.3780017"><ele>24.0</ele><time>2026-03-29T06:29:51.296Z</time></trkpt><trkpt lat="40.92087" lon="14.3780867"><ele>24.0</ele><time>2026-03-29T06:29:52.297Z</time></trkpt><trkpt lat="40.920875" lon="14.3781733"><ele>24.0</ele><time>2026-03-29T06:29:53.297Z</time></trkpt><trkpt lat="40.92088" lon="14.3782567"><ele>23.999999999999996</ele><time>2026-03-29T06:29:54.297Z</time></trkpt><trkpt lat="40.9208883" lon="14.378345"><ele>24.0</ele><time>2026-03-29T06:29:55.297Z</time></trkpt><trkpt lat="40.9208967" lon="14.3784317"><ele>23.999999999999996</ele><time>2026-03-29T06:29:56.297Z</time></trkpt><trkpt lat="40.920905" lon="14.37852"><ele>24.0</ele><time>2026-03-29T06:29:57.295Z</time></trkpt><trkpt lat="40.920915" lon="14.3786067"><ele>24.0</ele><time>2026-03-29T06:29:58.297Z</time></trkpt><trkpt lat="40.9209283" lon="14.3786967"><ele>24.0</ele><time>2026-03-29T06:29:59.297Z</time></trkpt><trkpt lat="40.9209417" lon="14.378785"><ele>24.0</ele><time>2026-03-29T06:30:00.297Z</time></trkpt><trkpt lat="40.9209517" lon="14.378875"><ele>23.999999999999996</ele><time>2026-03-29T06:30:01.297Z</time></trkpt><trkpt lat="40.92096" lon="14.3789617"><ele>24.0</ele><time>2026-03-29T06:30:02.297Z</time></trkpt><trkpt lat="40.9209683" lon="14.3790467"><ele>23.857142857142854</ele><time>2026-03-29T06:30:03.295Z</time></trkpt><trkpt lat="40.9209733" lon="14.3791383"><ele>23.714285714285715</ele><time>2026-03-29T06:30:04.297Z</time></trkpt><trkpt lat="40.9209733" lon="14.3792283"><ele>23.57142857142857</ele><time>2026-03-29T06:30:05.297Z</time></trkpt><trkpt lat="40.9209733" lon="14.3793167"><ele>23.428571428571427</ele><time>2026-03-29T06:30:06.297Z</time></trkpt><trkpt lat="40.9209717" lon="14.3794017"><ele>23.285714285714285</ele><time>2026-03-29T06:30:07.296Z</time></trkpt><trkpt lat="40.9209683" lon="14.3794867"><ele>23.142857142857142</ele><time>2026-03-29T06:30:08.296Z</time></trkpt><trkpt lat="40.920965" lon="14.379575"><ele>23.0</ele><time>2026-03-29T06:30:09.294Z</time></trkpt><trkpt lat="40.92096" lon="14.3796617"><ele>23.0</ele><time>2026-03-29T06:30:10.296Z</time></trkpt><trkpt lat="40.9209567" lon="14.37975"><ele>23.0</ele><time>2026-03-29T06:30:11.296Z</time></trkpt><trkpt lat="40.920955" lon="14.3798333"><ele>23.0</ele><time>2026-03-29T06:30:12.295Z</time></trkpt><trkpt lat="40.9209533" lon="14.3799233"><ele>23.0</ele><time>2026-03-29T06:30:13.296Z</time></trkpt><trkpt lat="40.92095" lon="14.3800067"><ele>23.0</ele><time>2026-03-29T06:30:14.296Z</time></trkpt><trkpt lat="40.9209483" lon="14.3800933"><ele>23.0</ele><time>2026-03-29T06:30:15.296Z</time></trkpt><trkpt lat="40.9209467" lon="14.3801783"><ele>23.0</ele><time>2026-03-29T06:30:16.295Z</time></trkpt><trkpt lat="40.9209433" lon="14.3802617"><ele>23.0</ele><time>2026-03-29T06:30:17.296Z</time></trkpt><trkpt lat="40.9209383" lon="14.3804267"><ele>23.0</ele><time>2026-03-29T06:30:19.297Z</time></trkpt><trkpt lat="40.9209367" lon="14.3805117"><ele>23.0</ele><time>2026-03-29T06:30:20.297Z</time></trkpt><trkpt lat="40.9209333" lon="14.3806833"><ele>23.0</ele><time>2026-03-29T06:30:22.295Z</time></trkpt><trkpt lat="40.9209267" lon="14.38077"><ele>23.0</ele><time>2026-03-29T06:30:23.296Z</time></trkpt><trkpt lat="40.9209217" lon="14.3808567"><ele>23.142857142857142</ele><time>2026-03-29T06:30:24.297Z</time></trkpt><trkpt lat="40.92092" lon="14.3809417"><ele>23.285714285714285</ele><time>2026-03-29T06:30:25.297Z</time></trkpt><trkpt lat="40.920915" lon="14.381025"><ele>23.428571428571427</ele><time>2026-03-29T06:30:26.297Z</time></trkpt><trkpt lat="40.9209133" lon="14.3811117"><ele>23.57142857142857</ele><time>2026-03-29T06:30:27.295Z</time></trkpt><trkpt lat="40.9209117" lon="14.3811983"><ele>23.714285714285715</ele><time>2026-03-29T06:30:28.296Z</time></trkpt><trkpt lat="40.9209117" lon="14.381285"><ele>23.857142857142854</ele><time>2026-03-29T06:30:29.294Z</time></trkpt><trkpt lat="40.9209067" lon="14.38137"><ele>24.0</ele><time>2026-03-29T06:30:30.297Z</time></trkpt><trkpt lat="40.9209033" lon="14.3814567"><ele>23.999999999999996</ele><time>2026-03-29T06:30:31.297Z</time></trkpt><trkpt lat="40.9209" lon="14.3815533"><ele>24.0</ele><time>2026-03-29T06:30:32.295Z</time></trkpt><trkpt lat="40.9209" lon="14.3816467"><ele>24.0</ele><time>2026-03-29T06:30:33.295Z</time></trkpt><trkpt lat="40.9209" lon="14.3817433"><ele>24.0</ele><time>2026-03-29T06:30:34.296Z</time></trkpt><trkpt lat="40.9208967" lon="14.3818367"><ele>24.0</ele><time>2026-03-29T06:30:35.296Z</time></trkpt><trkpt lat="40.9208933" lon="14.3819333"><ele>23.999999999999996</ele><time>2026-03-29T06:30:36.297Z</time></trkpt><trkpt lat="40.92089" lon="14.3820233"><ele>24.0</ele><time>2026-03-29T06:30:37.297Z</time></trkpt><trkpt lat="40.920885" lon="14.3821167"><ele>24.142857142857142</ele><time>2026-03-29T06:30:38.296Z</time></trkpt><trkpt lat="40.92088" lon="14.3822067"><ele>24.285714285714285</ele><time>2026-03-29T06:30:39.296Z</time></trkpt><trkpt lat="40.9208733" lon="14.3822967"><ele>24.42857142857143</ele><time>2026-03-29T06:30:40.297Z</time></trkpt><trkpt lat="40.9208683" lon="14.38239"><ele>24.57142857142857</ele><time>2026-03-29T06:30:41.298Z</time></trkpt><trkpt lat="40.9208633" lon="14.38248"><ele>24.714285714285715</ele><time>2026-03-29T06:30:42.297Z</time></trkpt><trkpt lat="40.9208583" lon="14.382575"><ele>24.857142857142858</ele><time>2026-03-29T06:30:43.298Z</time></trkpt><trkpt lat="40.9208567" lon="14.3826683"><ele>25.0</ele><time>2026-03-29T06:30:44.298Z</time></trkpt><trkpt lat="40.9208533" lon="14.3827617"><ele>25.000000000000004</ele><time>2026-03-29T06:30:45.298Z</time></trkpt><trkpt lat="40.9208517" lon="14.3828517"><ele>25.0</ele><time>2026-03-29T06:30:46.299Z</time></trkpt><trkpt lat="40.9208483" lon="14.3829433"><ele>25.0</ele><time>2026-03-29T06:30:47.298Z</time></trkpt><trkpt lat="40.9208467" lon="14.3830283"><ele>25.0</ele><time>2026-03-29T06:30:48.299Z</time></trkpt><trkpt lat="40.9208483" lon="14.3831217"><ele>25.0</ele><time>2026-03-29T06:30:49.299Z</time></trkpt><trkpt lat="40.9208517" lon="14.3832083"><ele>25.000000000000004</ele><time>2026-03-29T06:30:50.298Z</time></trkpt><trkpt lat="40.9208583" lon="14.3832917"><ele>25.0</ele><time>2026-03-29T06:30:51.297Z</time></trkpt><trkpt lat="40.9208583" lon="14.3834617"><ele>25.166666666666668</ele><time>2026-03-29T06:30:53.295Z</time></trkpt><trkpt lat="40.920855" lon="14.3835467"><ele>25.333333333333336</ele><time>2026-03-29T06:30:54.298Z</time></trkpt><trkpt lat="40.920855" lon="14.3836333"><ele>25.5</ele><time>2026-03-29T06:30:55.297Z</time></trkpt><trkpt lat="40.9208517" lon="14.3837983"><ele>25.666666666666664</ele><time>2026-03-29T06:30:57.296Z</time></trkpt><trkpt lat="40.92085" lon="14.383885"><ele>25.833333333333332</ele><time>2026-03-29T06:30:58.296Z</time></trkpt><trkpt lat="40.9208483" lon="14.3839767"><ele>26.0</ele><time>2026-03-29T06:30:59.297Z</time></trkpt><trkpt lat="40.920845" lon="14.384065"><ele>26.0</ele><time>2026-03-29T06:31:00.298Z</time></trkpt><trkpt lat="40.920845" lon="14.3841583"><ele>26.0</ele><time>2026-03-29T06:31:01.296Z</time></trkpt><trkpt lat="40.9208483" lon="14.3842533"><ele>26.0</ele><time>2026-03-29T06:31:02.296Z</time></trkpt><trkpt lat="40.9208517" lon="14.384355"><ele>26.0</ele><time>2026-03-29T06:31:03.295Z</time></trkpt><trkpt lat="40.9208567" lon="14.3844567"><ele>26.0</ele><time>2026-03-29T06:31:04.296Z</time></trkpt><trkpt lat="40.92086" lon="14.38455"><ele>26.0</ele><time>2026-03-29T06:31:05.297Z</time></trkpt><trkpt lat="40.9208667" lon="14.384645"><ele>26.0</ele><time>2026-03-29T06:31:06.296Z</time></trkpt><trkpt lat="40.920875" lon="14.38474"><ele>26.0</ele><time>2026-03-29T06:31:07.297Z</time></trkpt><trkpt lat="40.9208833" lon="14.3848317"><ele>26.0</ele><time>2026-03-29T06:31:08.297Z</time></trkpt><trkpt lat="40.9208933" lon="14.384925"><ele>26.0</ele><time>2026-03-29T06:31:09.297Z</time></trkpt><trkpt lat="40.9209017" lon="14.3850183"><ele>26.0</ele><time>2026-03-29T06:31:10.297Z</time></trkpt><trkpt lat="40.92091" lon="14.38511"><ele>26.0</ele><time>2026-03-29T06:31:11.297Z</time></trkpt><trkpt lat="40.92092" lon="14.3851983"><ele>26.0</ele><time>2026-03-29T06:31:12.296Z</time></trkpt><trkpt lat="40.92093" lon="14.3852817"><ele>26.0</ele><time>2026-03-29T06:31:13.297Z</time></trkpt><trkpt lat="40.9209567" lon="14.385445"><ele>25.71428571428571</ele><time>2026-03-29T06:31:15.295Z</time></trkpt><trkpt lat="40.9209667" lon="14.3855333"><ele>25.42857142857143</ele><time>2026-03-29T06:31:16.296Z</time></trkpt><trkpt lat="40.9209767" lon="14.3856217"><ele>25.142857142857142</ele><time>2026-03-29T06:31:17.297Z</time></trkpt><trkpt lat="40.92099" lon="14.3857083"><ele>24.857142857142854</ele><time>2026-03-29T06:31:18.298Z</time></trkpt><trkpt lat="40.9210017" lon="14.3857917"><ele>24.57142857142857</ele><time>2026-03-29T06:31:19.296Z</time></trkpt><trkpt lat="40.921015" lon="14.3858733"><ele>24.285714285714285</ele><time>2026-03-29T06:31:20.296Z</time></trkpt><trkpt lat="40.9210267" lon="14.3859567"><ele>24.0</ele><time>2026-03-29T06:31:21.295Z</time></trkpt><trkpt lat="40.92104" lon="14.38604"><ele>24.0</ele><time>2026-03-29T06:31:22.296Z</time></trkpt><trkpt lat="40.921065" lon="14.386195"><ele>24.0</ele><time>2026-03-29T06:31:24.296Z</time></trkpt><trkpt lat="40.9210833" lon="14.386335"><ele>24.0</ele><time>2026-03-29T06:31:26.296Z</time></trkpt><trkpt lat="40.9211117" lon="14.38646"><ele>24.0</ele><time>2026-03-29T06:31:28.297Z</time></trkpt><trkpt lat="40.9211367" lon="14.3865567"><ele>24.0</ele><time>2026-03-29T06:31:30.296Z</time></trkpt><trkpt lat="40.9212033" lon="14.386655"><ele>23.666666666666668</ele><time>2026-03-29T06:31:33.295Z</time></trkpt><trkpt lat="40.9212767" lon="14.3867133"><ele>23.333333333333332</ele><time>2026-03-29T06:31:35.296Z</time></trkpt><trkpt lat="40.9213783" lon="14.3867417"><ele>23.0</ele><time>2026-03-29T06:31:37.297Z</time></trkpt><trkpt lat="40.9214967" lon="14.3867267"><ele>22.666666666666664</ele><time>2026-03-29T06:31:39.295Z</time></trkpt><trkpt lat="40.9215617" lon="14.3867117"><ele>22.333333333333332</ele><time>2026-03-29T06:31:40.297Z</time></trkpt><trkpt lat="40.9216267" lon="14.3866967"><ele>22.0</ele><time>2026-03-29T06:31:41.297Z</time></trkpt><trkpt lat="40.9216917" lon="14.3866867"><ele>22.142857142857142</ele><time>2026-03-29T06:31:42.298Z</time></trkpt><trkpt lat="40.9217583" lon="14.3866683"><ele>22.285714285714285</ele><time>2026-03-29T06:31:43.299Z</time></trkpt><trkpt lat="40.9218233" lon="14.3866483"><ele>22.42857142857143</ele><time>2026-03-29T06:31:44.298Z</time></trkpt><trkpt lat="40.9218883" lon="14.38663"><ele>22.57142857142857</ele><time>2026-03-29T06:31:45.294Z</time></trkpt><trkpt lat="40.9219517" lon="14.3866083"><ele>22.71428571428571</ele><time>2026-03-29T06:31:46.298Z</time></trkpt><trkpt lat="40.9220117" lon="14.3865817"><ele>22.857142857142858</ele><time>2026-03-29T06:31:47.298Z</time></trkpt><trkpt lat="40.9220733" lon="14.3865567"><ele>23.0</ele><time>2026-03-29T06:31:48.296Z</time></trkpt><trkpt lat="40.9221883" lon="14.386515"><ele>23.0</ele><time>2026-03-29T06:31:50.296Z</time></trkpt><trkpt lat="40.9222983" lon="14.3864617"><ele>23.0</ele><time>2026-03-29T06:31:52.298Z</time></trkpt><trkpt lat="40.9224067" lon="14.3864083"><ele>23.0</ele><time>2026-03-29T06:31:54.295Z</time></trkpt><trkpt lat="40.922515" lon="14.386355"><ele>23.0</ele><time>2026-03-29T06:31:56.296Z</time></trkpt><trkpt lat="40.9226233" lon="14.3863017"><ele>23.0</ele><time>2026-03-29T06:31:58.296Z</time></trkpt><trkpt lat="40.9227417" lon="14.3862483"><ele>23.0</ele><time>2026-03-29T06:32:00.296Z</time></trkpt><trkpt lat="40.9228033" lon="14.386225"><ele>23.0</ele><time>2026-03-29T06:32:01.297Z</time></trkpt><trkpt lat="40.9228667" lon="14.386195"><ele>23.0</ele><time>2026-03-29T06:32:02.298Z</time></trkpt><trkpt lat="40.9229267" lon="14.3861667"><ele>23.0</ele><time>2026-03-29T06:32:03.298Z</time></trkpt><trkpt lat="40.9229883" lon="14.3861383"><ele>23.0</ele><time>2026-03-29T06:32:04.297Z</time></trkpt><trkpt lat="40.9230967" lon="14.3860867"><ele>23.0</ele><time>2026-03-29T06:32:06.296Z</time></trkpt><trkpt lat="40.9231567" lon="14.3860567"><ele>23.0</ele><time>2026-03-29T06:32:07.296Z</time></trkpt><trkpt lat="40.9232733" lon="14.386"><ele>23.0</ele><time>2026-03-29T06:32:09.296Z</time></trkpt><trkpt lat="40.9233333" lon="14.3859733"><ele>23.0</ele><time>2026-03-29T06:32:10.297Z</time></trkpt><trkpt lat="40.9234483" lon="14.38592"><ele>23.0</ele><time>2026-03-29T06:32:12.297Z</time></trkpt><trkpt lat="40.92351" lon="14.38589"><ele>23.0</ele><time>2026-03-29T06:32:13.297Z</time></trkpt><trkpt lat="40.9235717" lon="14.3858633"><ele>23.5</ele><time>2026-03-29T06:32:14.295Z</time></trkpt><trkpt lat="40.923695" lon="14.3858133"><ele>24.0</ele><time>2026-03-29T06:32:16.295Z</time></trkpt><trkpt lat="40.92376" lon="14.3857867"><ele>24.5</ele><time>2026-03-29T06:32:17.295Z</time></trkpt><trkpt lat="40.9238283" lon="14.3857617"><ele>25.0</ele><time>2026-03-29T06:32:18.296Z</time></trkpt><trkpt lat="40.9238967" lon="14.3857367"><ele>25.499999999999996</ele><time>2026-03-29T06:32:19.297Z</time></trkpt><trkpt lat="40.9239633" lon="14.3857117"><ele>26.0</ele><time>2026-03-29T06:32:20.296Z</time></trkpt><trkpt lat="40.9240317" lon="14.3856867"><ele>26.0</ele><time>2026-03-29T06:32:21.296Z</time></trkpt><trkpt lat="40.9240983" lon="14.3856617"><ele>26.0</ele><time>2026-03-29T06:32:22.298Z</time></trkpt><trkpt lat="40.924165" lon="14.38564"><ele>26.0</ele><time>2026-03-29T06:32:23.295Z</time></trkpt><trkpt lat="40.9242317" lon="14.3856167"><ele>26.0</ele><time>2026-03-29T06:32:24.295Z</time></trkpt><trkpt lat="40.9243" lon="14.3855917"><ele>26.0</ele><time>2026-03-29T06:32:25.297Z</time></trkpt><trkpt lat="40.9243683" lon="14.3855633"><ele>26.0</ele><time>2026-03-29T06:32:26.296Z</time></trkpt><trkpt lat="40.924435" lon="14.3855383"><ele>26.0</ele><time>2026-03-29T06:32:27.295Z</time></trkpt><trkpt lat="40.924505" lon="14.385515"><ele>26.0</ele><time>2026-03-29T06:32:28.298Z</time></trkpt><trkpt lat="40.924575" lon="14.3854933"><ele>26.0</ele><time>2026-03-29T06:32:29.294Z</time></trkpt><trkpt lat="40.9246467" lon="14.385475"><ele>26.0</ele><time>2026-03-29T06:32:30.298Z</time></trkpt><trkpt lat="40.9247183" lon="14.3854617"><ele>26.0</ele><time>2026-03-29T06:32:31.296Z</time></trkpt><trkpt lat="40.9247883" lon="14.38545"><ele>26.0</ele><time>2026-03-29T06:32:32.298Z</time></trkpt><trkpt lat="40.9248583" lon="14.38544"><ele>26.0</ele><time>2026-03-29T06:32:33.294Z</time></trkpt><trkpt lat="40.9249267" lon="14.3854267"><ele>26.0</ele><time>2026-03-29T06:32:34.298Z</time></trkpt><trkpt lat="40.9249967" lon="14.3854117"><ele>26.0</ele><time>2026-03-29T06:32:35.297Z</time></trkpt><trkpt lat="40.9250633" lon="14.3854"><ele>26.0</ele><time>2026-03-29T06:32:36.294Z</time></trkpt><trkpt lat="40.9251317" lon="14.38539"><ele>26.0</ele><time>2026-03-29T06:32:37.296Z</time></trkpt><trkpt lat="40.9252" lon="14.3853817"><ele>26.0</ele><time>2026-03-29T06:32:38.296Z</time></trkpt><trkpt lat="40.9252683" lon="14.38537"><ele>26.0</ele><time>2026-03-29T06:32:39.295Z</time></trkpt><trkpt lat="40.9253383" lon="14.3853567"><ele>26.0</ele><time>2026-03-29T06:32:40.297Z</time></trkpt><trkpt lat="40.9254067" lon="14.3853433"><ele>26.0</ele><time>2026-03-29T06:32:41.296Z</time></trkpt><trkpt lat="40.9254783" lon="14.3853283"><ele>26.0</ele><time>2026-03-29T06:32:42.298Z</time></trkpt><trkpt lat="40.9255467" lon="14.3853133"><ele>26.0</ele><time>2026-03-29T06:32:43.296Z</time></trkpt><trkpt lat="40.9256133" lon="14.3852983"><ele>26.0</ele><time>2026-03-29T06:32:44.296Z</time></trkpt><trkpt lat="40.9256833" lon="14.38528"><ele>26.0</ele><time>2026-03-29T06:32:45.297Z</time></trkpt><trkpt lat="40.9257483" lon="14.3852633"><ele>26.0</ele><time>2026-03-29T06:32:46.298Z</time></trkpt><trkpt lat="40.925815" lon="14.3852467"><ele>26.0</ele><time>2026-03-29T06:32:47.295Z</time></trkpt><trkpt lat="40.9258817" lon="14.3852267"><ele>26.0</ele><time>2026-03-29T06:32:48.296Z</time></trkpt><trkpt lat="40.9259517" lon="14.3852033"><ele>26.0</ele><time>2026-03-29T06:32:49.298Z</time></trkpt><trkpt lat="40.9260217" lon="14.3851833"><ele>26.0</ele><time>2026-03-29T06:32:50.295Z</time></trkpt><trkpt lat="40.92609" lon="14.3851583"><ele>26.0</ele><time>2026-03-29T06:32:51.297Z</time></trkpt><trkpt lat="40.92616" lon="14.3851333"><ele>26.0</ele><time>2026-03-29T06:32:52.298Z</time></trkpt><trkpt lat="40.9262267" lon="14.3851117"><ele>26.0</ele><time>2026-03-29T06:32:53.298Z</time></trkpt><trkpt lat="40.9262933" lon="14.3850867"><ele>26.0</ele><time>2026-03-29T06:32:54.299Z</time></trkpt><trkpt lat="40.9263633" lon="14.38506"><ele>26.0</ele><time>2026-03-29T06:32:55.299Z</time></trkpt><trkpt lat="40.9264333" lon="14.3850333"><ele>26.0</ele><time>2026-03-29T06:32:56.298Z</time></trkpt><trkpt lat="40.9265033" lon="14.3850083"><ele>26.0</ele><time>2026-03-29T06:32:57.298Z</time></trkpt><trkpt lat="40.9265733" lon="14.3849833"><ele>26.0</ele><time>2026-03-29T06:32:58.294Z</time></trkpt><trkpt lat="40.9266467" lon="14.3849567"><ele>26.0</ele><time>2026-03-29T06:32:59.296Z</time></trkpt><trkpt lat="40.9267183" lon="14.3849283"><ele>26.0</ele><time>2026-03-29T06:33:00.296Z</time></trkpt><trkpt lat="40.9267883" lon="14.3849"><ele>26.0</ele><time>2026-03-29T06:33:01.296Z</time></trkpt><trkpt lat="40.92686" lon="14.3848767"><ele>26.0</ele><time>2026-03-29T06:33:02.295Z</time></trkpt><trkpt lat="40.9269283" lon="14.3848533"><ele>25.857142857142858</ele><time>2026-03-29T06:33:03.297Z</time></trkpt><trkpt lat="40.9269967" lon="14.3848283"><ele>25.714285714285715</ele><time>2026-03-29T06:33:04.295Z</time></trkpt><trkpt lat="40.9270683" lon="14.3848017"><ele>25.571428571428573</ele><time>2026-03-29T06:33:05.297Z</time></trkpt><trkpt lat="40.9271367" lon="14.38478"><ele>25.42857142857143</ele><time>2026-03-29T06:33:06.296Z</time></trkpt><trkpt lat="40.9272083" lon="14.3847533"><ele>25.285714285714285</ele><time>2026-03-29T06:33:07.296Z</time></trkpt><trkpt lat="40.9272767" lon="14.3847317"><ele>25.142857142857146</ele><time>2026-03-29T06:33:08.296Z</time></trkpt><trkpt lat="40.9273433" lon="14.384705"><ele>25.0</ele><time>2026-03-29T06:33:09.296Z</time></trkpt><trkpt lat="40.92741" lon="14.3846783"><ele>25.000000000000004</ele><time>2026-03-29T06:33:10.295Z</time></trkpt><trkpt lat="40.9274767" lon="14.3846533"><ele>25.0</ele><time>2026-03-29T06:33:11.299Z</time></trkpt><trkpt lat="40.9275467" lon="14.3846283"><ele>25.0</ele><time>2026-03-29T06:33:12.296Z</time></trkpt><trkpt lat="40.927615" lon="14.3846067"><ele>25.0</ele><time>2026-03-29T06:33:13.296Z</time></trkpt><trkpt lat="40.9276867" lon="14.38458"><ele>25.0</ele><time>2026-03-29T06:33:14.296Z</time></trkpt><trkpt lat="40.9277517" lon="14.3845567"><ele>25.000000000000004</ele><time>2026-03-29T06:33:15.296Z</time></trkpt><trkpt lat="40.9278183" lon="14.3845333"><ele>25.0</ele><time>2026-03-29T06:33:16.296Z</time></trkpt><trkpt lat="40.927885" lon="14.384505"><ele>25.000000000000004</ele><time>2026-03-29T06:33:17.299Z</time></trkpt><trkpt lat="40.9279533" lon="14.3844783"><ele>25.0</ele><time>2026-03-29T06:33:18.295Z</time></trkpt><trkpt lat="40.928025" lon="14.3844567"><ele>25.0</ele><time>2026-03-29T06:33:19.295Z</time></trkpt><trkpt lat="40.9280933" lon="14.384435"><ele>25.0</ele><time>2026-03-29T06:33:20.295Z</time></trkpt><trkpt lat="40.92816" lon="14.3844133"><ele>25.0</ele><time>2026-03-29T06:33:21.295Z</time></trkpt><trkpt lat="40.92823" lon="14.3843883"><ele>25.000000000000004</ele><time>2026-03-29T06:33:22.294Z</time></trkpt><trkpt lat="40.9282983" lon="14.3843667"><ele>25.0</ele><time>2026-03-29T06:33:23.295Z</time></trkpt><trkpt lat="40.928365" lon="14.384345"><ele>24.857142857142858</ele><time>2026-03-29T06:33:24.298Z</time></trkpt><trkpt lat="40.9284333" lon="14.3843233"><ele>24.714285714285715</ele><time>2026-03-29T06:33:25.295Z</time></trkpt><trkpt lat="40.9285017" lon="14.384295"><ele>24.57142857142857</ele><time>2026-03-29T06:33:26.295Z</time></trkpt><trkpt lat="40.92857" lon="14.38427"><ele>24.42857142857143</ele><time>2026-03-29T06:33:27.294Z</time></trkpt><trkpt lat="40.9286383" lon="14.3842433"><ele>24.285714285714285</ele><time>2026-03-29T06:33:28.294Z</time></trkpt><trkpt lat="40.92871" lon="14.3842133"><ele>24.142857142857142</ele><time>2026-03-29T06:33:29.295Z</time></trkpt><trkpt lat="40.9287767" lon="14.3841867"><ele>24.0</ele><time>2026-03-29T06:33:30.296Z</time></trkpt><trkpt lat="40.928845" lon="14.3841583"><ele>23.999999999999996</ele><time>2026-03-29T06:33:31.298Z</time></trkpt><trkpt lat="40.92891" lon="14.3841317"><ele>24.0</ele><time>2026-03-29T06:33:32.298Z</time></trkpt><trkpt lat="40.928975" lon="14.384105"><ele>24.0</ele><time>2026-03-29T06:33:33.295Z</time></trkpt><trkpt lat="40.9290417" lon="14.3840783"><ele>24.0</ele><time>2026-03-29T06:33:34.295Z</time></trkpt><trkpt lat="40.92911" lon="14.384055"><ele>24.0</ele><time>2026-03-29T06:33:35.296Z</time></trkpt><trkpt lat="40.929175" lon="14.38403"><ele>23.999999999999996</ele><time>2026-03-29T06:33:36.295Z</time></trkpt><trkpt lat="40.92924" lon="14.3840083"><ele>24.0</ele><time>2026-03-29T06:33:37.296Z</time></trkpt><trkpt lat="40.92931" lon="14.38398"><ele>24.142857142857142</ele><time>2026-03-29T06:33:38.297Z</time></trkpt><trkpt lat="40.9293783" lon="14.38395"><ele>24.285714285714285</ele><time>2026-03-29T06:33:39.295Z</time></trkpt><trkpt lat="40.929445" lon="14.3839233"><ele>24.42857142857143</ele><time>2026-03-29T06:33:40.296Z</time></trkpt><trkpt lat="40.9295133" lon="14.3838983"><ele>24.57142857142857</ele><time>2026-03-29T06:33:41.296Z</time></trkpt><trkpt lat="40.9295783" lon="14.3838767"><ele>24.714285714285715</ele><time>2026-03-29T06:33:42.296Z</time></trkpt><trkpt lat="40.9296433" lon="14.3838567"><ele>24.857142857142858</ele><time>2026-03-29T06:33:43.297Z</time></trkpt><trkpt lat="40.9297067" lon="14.3838317"><ele>25.0</ele><time>2026-03-29T06:33:44.296Z</time></trkpt><trkpt lat="40.92983" lon="14.3837867"><ele>24.857142857142858</ele><time>2026-03-29T06:33:46.295Z</time></trkpt><trkpt lat="40.9298967" lon="14.383765"><ele>24.714285714285715</ele><time>2026-03-29T06:33:47.297Z</time></trkpt><trkpt lat="40.9299667" lon="14.38374"><ele>24.57142857142857</ele><time>2026-03-29T06:33:48.296Z</time></trkpt><trkpt lat="40.9300383" lon="14.38372"><ele>24.42857142857143</ele><time>2026-03-29T06:33:49.298Z</time></trkpt><trkpt lat="40.9301117" lon="14.383695"><ele>24.285714285714285</ele><time>2026-03-29T06:33:50.297Z</time></trkpt><trkpt lat="40.9301767" lon="14.3836717"><ele>24.142857142857142</ele><time>2026-03-29T06:33:51.296Z</time></trkpt><trkpt lat="40.930245" lon="14.383645"><ele>24.0</ele><time>2026-03-29T06:33:52.297Z</time></trkpt><trkpt lat="40.9303117" lon="14.3836217"><ele>23.999999999999996</ele><time>2026-03-29T06:33:53.297Z</time></trkpt><trkpt lat="40.9303783" lon="14.3835967"><ele>24.0</ele><time>2026-03-29T06:33:54.296Z</time></trkpt><trkpt lat="40.930445" lon="14.383575"><ele>24.0</ele><time>2026-03-29T06:33:55.301Z</time></trkpt><trkpt lat="40.9305117" lon="14.3835467"><ele>24.0</ele><time>2026-03-29T06:33:56.299Z</time></trkpt><trkpt lat="40.9305767" lon="14.383525"><ele>24.0</ele><time>2026-03-29T06:33:57.297Z</time></trkpt><trkpt lat="40.9306433" lon="14.3835"><ele>23.999999999999996</ele><time>2026-03-29T06:33:58.297Z</time></trkpt><trkpt lat="40.9307083" lon="14.38347"><ele>24.0</ele><time>2026-03-29T06:33:59.298Z</time></trkpt><trkpt lat="40.930775" lon="14.3834433"><ele>23.999999999999996</ele><time>2026-03-29T06:34:00.295Z</time></trkpt><trkpt lat="40.9308417" lon="14.3834183"><ele>24.0</ele><time>2026-03-29T06:34:01.299Z</time></trkpt><trkpt lat="40.930905" lon="14.3833933"><ele>24.0</ele><time>2026-03-29T06:34:02.295Z</time></trkpt><trkpt lat="40.9309683" lon="14.3833683"><ele>24.0</ele><time>2026-03-29T06:34:03.297Z</time></trkpt><trkpt lat="40.9310333" lon="14.3833433"><ele>24.0</ele><time>2026-03-29T06:34:04.297Z</time></trkpt><trkpt lat="40.9311" lon="14.3833183"><ele>23.999999999999996</ele><time>2026-03-29T06:34:05.297Z</time></trkpt><trkpt lat="40.9311667" lon="14.3832917"><ele>24.0</ele><time>2026-03-29T06:34:06.296Z</time></trkpt><trkpt lat="40.9312283" lon="14.3832667"><ele>24.142857142857142</ele><time>2026-03-29T06:34:07.299Z</time></trkpt><trkpt lat="40.9312933" lon="14.38324"><ele>24.285714285714285</ele><time>2026-03-29T06:34:08.299Z</time></trkpt><trkpt lat="40.9313567" lon="14.3832133"><ele>24.42857142857143</ele><time>2026-03-29T06:34:09.299Z</time></trkpt><trkpt lat="40.9314233" lon="14.3831867"><ele>24.57142857142857</ele><time>2026-03-29T06:34:10.299Z</time></trkpt><trkpt lat="40.9314867" lon="14.3831583"><ele>24.714285714285715</ele><time>2026-03-29T06:34:11.299Z</time></trkpt><trkpt lat="40.93155" lon="14.3831317"><ele>24.857142857142858</ele><time>2026-03-29T06:34:12.298Z</time></trkpt><trkpt lat="40.9316117" lon="14.3831083"><ele>25.0</ele><time>2026-03-29T06:34:13.297Z</time></trkpt><trkpt lat="40.9316733" lon="14.383085"><ele>25.000000000000004</ele><time>2026-03-29T06:34:14.297Z</time></trkpt><trkpt lat="40.9317367" lon="14.38306"><ele>25.0</ele><time>2026-03-29T06:34:15.297Z</time></trkpt><trkpt lat="40.9317983" lon="14.383035"><ele>25.0</ele><time>2026-03-29T06:34:16.297Z</time></trkpt><trkpt lat="40.9318617" lon="14.3830117"><ele>25.0</ele><time>2026-03-29T06:34:17.297Z</time></trkpt><trkpt lat="40.9319233" lon="14.3829917"><ele>25.0</ele><time>2026-03-29T06:34:18.297Z</time></trkpt><trkpt lat="40.9319933" lon="14.3829733"><ele>25.000000000000004</ele><time>2026-03-29T06:34:19.297Z</time></trkpt><trkpt lat="40.9320633" lon="14.382955"><ele>25.0</ele><time>2026-03-29T06:34:20.297Z</time></trkpt><trkpt lat="40.932135" lon="14.3829333"><ele>24.857142857142858</ele><time>2026-03-29T06:34:21.295Z</time></trkpt><trkpt lat="40.93221" lon="14.3829067"><ele>24.714285714285715</ele><time>2026-03-29T06:34:22.297Z</time></trkpt><trkpt lat="40.9322833" lon="14.3828817"><ele>24.57142857142857</ele><time>2026-03-29T06:34:23.297Z</time></trkpt><trkpt lat="40.9323567" lon="14.3828567"><ele>24.42857142857143</ele><time>2026-03-29T06:34:24.296Z</time></trkpt><trkpt lat="40.9324233" lon="14.38283"><ele>24.285714285714285</ele><time>2026-03-29T06:34:25.299Z</time></trkpt><trkpt lat="40.9324917" lon="14.382805"><ele>24.142857142857142</ele><time>2026-03-29T06:34:26.295Z</time></trkpt><trkpt lat="40.9325583" lon="14.3827783"><ele>24.0</ele><time>2026-03-29T06:34:27.297Z</time></trkpt><trkpt lat="40.932625" lon="14.382755"><ele>23.999999999999996</ele><time>2026-03-29T06:34:28.298Z</time></trkpt><trkpt lat="40.93269" lon="14.3827333"><ele>24.0</ele><time>2026-03-29T06:34:29.298Z</time></trkpt><trkpt lat="40.93276" lon="14.382705"><ele>24.0</ele><time>2026-03-29T06:34:30.295Z</time></trkpt><trkpt lat="40.9328283" lon="14.382675"><ele>24.0</ele><time>2026-03-29T06:34:31.297Z</time></trkpt><trkpt lat="40.9328983" lon="14.3826417"><ele>24.0</ele><time>2026-03-29T06:34:32.297Z</time></trkpt><trkpt lat="40.9329617" lon="14.3826117"><ele>23.999999999999996</ele><time>2026-03-29T06:34:33.297Z</time></trkpt><trkpt lat="40.9330283" lon="14.3825783"><ele>24.0</ele><time>2026-03-29T06:34:34.297Z</time></trkpt><trkpt lat="40.93309" lon="14.38254"><ele>23.999999999999996</ele><time>2026-03-29T06:34:35.297Z</time></trkpt><trkpt lat="40.93315" lon="14.3825"><ele>24.0</ele><time>2026-03-29T06:34:36.296Z</time></trkpt><trkpt lat="40.9332117" lon="14.38246"><ele>24.0</ele><time>2026-03-29T06:34:37.297Z</time></trkpt><trkpt lat="40.933275" lon="14.3824183"><ele>24.0</ele><time>2026-03-29T06:34:38.297Z</time></trkpt><trkpt lat="40.9333367" lon="14.3823767"><ele>24.0</ele><time>2026-03-29T06:34:39.296Z</time></trkpt><trkpt lat="40.9333967" lon="14.3823383"><ele>23.999999999999996</ele><time>2026-03-29T06:34:40.297Z</time></trkpt><trkpt lat="40.933455" lon="14.3823017"><ele>24.0</ele><time>2026-03-29T06:34:41.297Z</time></trkpt><trkpt lat="40.9335167" lon="14.382265"><ele>23.999999999999996</ele><time>2026-03-29T06:34:42.296Z</time></trkpt><trkpt lat="40.93358" lon="14.382225"><ele>24.0</ele><time>2026-03-29T06:34:43.297Z</time></trkpt><trkpt lat="40.9336467" lon="14.3821883"><ele>24.0</ele><time>2026-03-29T06:34:44.297Z</time></trkpt><trkpt lat="40.9337117" lon="14.3821517"><ele>24.0</ele><time>2026-03-29T06:34:45.295Z</time></trkpt><trkpt lat="40.93378" lon="14.382115"><ele>24.0</ele><time>2026-03-29T06:34:46.297Z</time></trkpt><trkpt lat="40.9338467" lon="14.38208"><ele>23.999999999999996</ele><time>2026-03-29T06:34:47.297Z</time></trkpt><trkpt lat="40.933915" lon="14.3820433"><ele>24.0</ele><time>2026-03-29T06:34:48.298Z</time></trkpt><trkpt lat="40.93398" lon="14.3820017"><ele>24.142857142857142</ele><time>2026-03-29T06:34:49.298Z</time></trkpt><trkpt lat="40.9340467" lon="14.3819633"><ele>24.285714285714285</ele><time>2026-03-29T06:34:50.297Z</time></trkpt><trkpt lat="40.9341133" lon="14.3819233"><ele>24.42857142857143</ele><time>2026-03-29T06:34:51.295Z</time></trkpt><trkpt lat="40.9341783" lon="14.3818867"><ele>24.57142857142857</ele><time>2026-03-29T06:34:52.298Z</time></trkpt><trkpt lat="40.9342417" lon="14.3818567"><ele>24.714285714285715</ele><time>2026-03-29T06:34:53.298Z</time></trkpt><trkpt lat="40.9343117" lon="14.3818183"><ele>24.857142857142858</ele><time>2026-03-29T06:34:54.297Z</time></trkpt><trkpt lat="40.934385" lon="14.3817833"><ele>25.0</ele><time>2026-03-29T06:34:55.297Z</time></trkpt><trkpt lat="40.9344567" lon="14.3817483"><ele>25.000000000000004</ele><time>2026-03-29T06:34:56.298Z</time></trkpt><trkpt lat="40.934525" lon="14.38171"><ele>25.0</ele><time>2026-03-29T06:34:57.295Z</time></trkpt><trkpt lat="40.9345933" lon="14.3816733"><ele>25.0</ele><time>2026-03-29T06:34:58.298Z</time></trkpt><trkpt lat="40.9346617" lon="14.3816383"><ele>25.0</ele><time>2026-03-29T06:34:59.296Z</time></trkpt><trkpt lat="40.9347267" lon="14.3816017"><ele>25.0</ele><time>2026-03-29T06:35:00.297Z</time></trkpt><trkpt lat="40.93479" lon="14.3815683"><ele>25.000000000000004</ele><time>2026-03-29T06:35:01.297Z</time></trkpt><trkpt lat="40.9348533" lon="14.381535"><ele>25.0</ele><time>2026-03-29T06:35:02.297Z</time></trkpt><trkpt lat="40.9349183" lon="14.3815"><ele>25.000000000000004</ele><time>2026-03-29T06:35:03.295Z</time></trkpt><trkpt lat="40.934985" lon="14.3814633"><ele>25.0</ele><time>2026-03-29T06:35:04.297Z</time></trkpt><trkpt lat="40.935045" lon="14.3814283"><ele>25.0</ele><time>2026-03-29T06:35:05.299Z</time></trkpt><trkpt lat="40.93511" lon="14.3813933"><ele>25.0</ele><time>2026-03-29T06:35:06.296Z</time></trkpt><trkpt lat="40.935175" lon="14.381355"><ele>25.0</ele><time>2026-03-29T06:35:07.299Z</time></trkpt><trkpt lat="40.9352367" lon="14.3813183"><ele>25.000000000000004</ele><time>2026-03-29T06:35:08.295Z</time></trkpt><trkpt lat="40.9352983" lon="14.3812833"><ele>25.0</ele><time>2026-03-29T06:35:09.297Z</time></trkpt><trkpt lat="40.9353617" lon="14.3812467"><ele>24.6</ele><time>2026-03-29T06:35:10.298Z</time></trkpt><trkpt lat="40.935425" lon="14.3812083"><ele>24.2</ele><time>2026-03-29T06:35:11.299Z</time></trkpt><trkpt lat="40.935485" lon="14.3811717"><ele>23.799999999999997</ele><time>2026-03-29T06:35:12.295Z</time></trkpt><trkpt lat="40.9355967" lon="14.3811117"><ele>23.4</ele><time>2026-03-29T06:35:14.297Z</time></trkpt><trkpt lat="40.935705" lon="14.3810467"><ele>23.0</ele><time>2026-03-29T06:35:16.297Z</time></trkpt><trkpt lat="40.9358067" lon="14.380975"><ele>23.166666666666668</ele><time>2026-03-29T06:35:18.297Z</time></trkpt><trkpt lat="40.935895" lon="14.3809283"><ele>23.333333333333336</ele><time>2026-03-29T06:35:20.298Z</time></trkpt><trkpt lat="40.9359683" lon="14.3809383"><ele>23.5</ele><time>2026-03-29T06:35:22.297Z</time></trkpt><trkpt lat="40.936015" lon="14.3810217"><ele>23.666666666666668</ele><time>2026-03-29T06:35:24.299Z</time></trkpt><trkpt lat="40.93605" lon="14.3811867"><ele>23.833333333333332</ele><time>2026-03-29T06:35:26.297Z</time></trkpt><trkpt lat="40.9360667" lon="14.3812767"><ele>24.0</ele><time>2026-03-29T06:35:27.296Z</time></trkpt><trkpt lat="40.9360733" lon="14.381365"><ele>23.666666666666668</ele><time>2026-03-29T06:35:28.298Z</time></trkpt><trkpt lat="40.9360717" lon="14.3814517"><ele>23.333333333333332</ele><time>2026-03-29T06:35:29.297Z</time></trkpt><trkpt lat="40.9360733" lon="14.38154"><ele>23.0</ele><time>2026-03-29T06:35:30.296Z</time></trkpt><trkpt lat="40.9361183" lon="14.381685"><ele>22.666666666666664</ele><time>2026-03-29T06:35:32.297Z</time></trkpt><trkpt lat="40.936225" lon="14.3817283"><ele>22.333333333333332</ele><time>2026-03-29T06:35:34.297Z</time></trkpt><trkpt lat="40.93629" lon="14.3817133"><ele>22.0</ele><time>2026-03-29T06:35:35.299Z</time></trkpt><trkpt lat="40.9363533" lon="14.3816917"><ele>22.0</ele><time>2026-03-29T06:35:36.299Z</time></trkpt><trkpt lat="40.9364183" lon="14.3816617"><ele>22.0</ele><time>2026-03-29T06:35:37.297Z</time></trkpt><trkpt lat="40.9364833" lon="14.38163"><ele>22.0</ele><time>2026-03-29T06:35:38.297Z</time></trkpt><trkpt lat="40.9365483" lon="14.3816067"><ele>22.0</ele><time>2026-03-29T06:35:39.296Z</time></trkpt><trkpt lat="40.936675" lon="14.3815617"><ele>22.0</ele><time>2026-03-29T06:35:41.297Z</time></trkpt><trkpt lat="40.9367467" lon="14.3815333"><ele>22.0</ele><time>2026-03-29T06:35:42.298Z</time></trkpt><trkpt lat="40.9368117" lon="14.38151"><ele>22.285714285714285</ele><time>2026-03-29T06:35:43.297Z</time></trkpt><trkpt lat="40.93688" lon="14.3814783"><ele>22.57142857142857</ele><time>2026-03-29T06:35:44.299Z</time></trkpt><trkpt lat="40.9369483" lon="14.3814467"><ele>22.857142857142854</ele><time>2026-03-29T06:35:45.299Z</time></trkpt><trkpt lat="40.93702" lon="14.3814167"><ele>23.142857142857142</ele><time>2026-03-29T06:35:46.295Z</time></trkpt><trkpt lat="40.9370867" lon="14.381385"><ele>23.428571428571427</ele><time>2026-03-29T06:35:47.297Z</time></trkpt><trkpt lat="40.9371533" lon="14.3813467"><ele>23.71428571428571</ele><time>2026-03-29T06:35:48.296Z</time></trkpt><trkpt lat="40.93722" lon="14.38131"><ele>24.0</ele><time>2026-03-29T06:35:49.297Z</time></trkpt><trkpt lat="40.9372867" lon="14.381275"><ele>23.999999999999996</ele><time>2026-03-29T06:35:50.297Z</time></trkpt><trkpt lat="40.9373533" lon="14.3812417"><ele>24.0</ele><time>2026-03-29T06:35:51.297Z</time></trkpt><trkpt lat="40.9374217" lon="14.3812117"><ele>24.0</ele><time>2026-03-29T06:35:52.295Z</time></trkpt><trkpt lat="40.9374917" lon="14.3811833"><ele>24.0</ele><time>2026-03-29T06:35:53.297Z</time></trkpt><trkpt lat="40.9375617" lon="14.3811567"><ele>24.0</ele><time>2026-03-29T06:35:54.297Z</time></trkpt><trkpt lat="40.93763" lon="14.3811317"><ele>23.999999999999996</ele><time>2026-03-29T06:35:55.297Z</time></trkpt><trkpt lat="40.937695" lon="14.381105"><ele>24.0</ele><time>2026-03-29T06:35:56.298Z</time></trkpt><trkpt lat="40.9377617" lon="14.381075"><ele>23.999999999999996</ele><time>2026-03-29T06:35:57.297Z</time></trkpt><trkpt lat="40.93783" lon="14.3810467"><ele>24.0</ele><time>2026-03-29T06:35:58.295Z</time></trkpt><trkpt lat="40.9379017" lon="14.381025"><ele>24.0</ele><time>2026-03-29T06:35:59.296Z</time></trkpt><trkpt lat="40.937975" lon="14.3810083"><ele>24.0</ele><time>2026-03-29T06:36:00.297Z</time></trkpt><trkpt lat="40.938045" lon="14.3810017"><ele>24.0</ele><time>2026-03-29T06:36:01.297Z</time></trkpt><trkpt lat="40.9381183" lon="14.381"><ele>23.999999999999996</ele><time>2026-03-29T06:36:02.297Z</time></trkpt><trkpt lat="40.9381917" lon="14.3810033"><ele>24.0</ele><time>2026-03-29T06:36:03.295Z</time></trkpt><trkpt lat="40.9382633" lon="14.38101"><ele>23.999999999999996</ele><time>2026-03-29T06:36:04.296Z</time></trkpt><trkpt lat="40.938335" lon="14.3810233"><ele>24.0</ele><time>2026-03-29T06:36:05.297Z</time></trkpt><trkpt lat="40.9384033" lon="14.3810417"><ele>24.0</ele><time>2026-03-29T06:36:06.297Z</time></trkpt><trkpt lat="40.9384717" lon="14.381065"><ele>24.0</ele><time>2026-03-29T06:36:07.297Z</time></trkpt><trkpt lat="40.9385367" lon="14.3810917"><ele>24.0</ele><time>2026-03-29T06:36:08.299Z</time></trkpt><trkpt lat="40.9386033" lon="14.3811167"><ele>23.999999999999996</ele><time>2026-03-29T06:36:09.299Z</time></trkpt><trkpt lat="40.9386717" lon="14.38114"><ele>24.0</ele><time>2026-03-29T06:36:10.296Z</time></trkpt><trkpt lat="40.93874" lon="14.3811617"><ele>24.142857142857142</ele><time>2026-03-29T06:36:11.297Z</time></trkpt><trkpt lat="40.93881" lon="14.3811817"><ele>24.285714285714285</ele><time>2026-03-29T06:36:12.298Z</time></trkpt><trkpt lat="40.9388783" lon="14.3812"><ele>24.42857142857143</ele><time>2026-03-29T06:36:13.297Z</time></trkpt><trkpt lat="40.9389483" lon="14.3812133"><ele>24.57142857142857</ele><time>2026-03-29T06:36:14.297Z</time></trkpt><trkpt lat="40.9390183" lon="14.3812267"><ele>24.714285714285715</ele><time>2026-03-29T06:36:15.296Z</time></trkpt><trkpt lat="40.93909" lon="14.3812417"><ele>24.857142857142858</ele><time>2026-03-29T06:36:16.297Z</time></trkpt><trkpt lat="40.9391583" lon="14.3812567"><ele>25.0</ele><time>2026-03-29T06:36:17.298Z</time></trkpt><trkpt lat="40.93923" lon="14.3812767"><ele>25.000000000000004</ele><time>2026-03-29T06:36:18.297Z</time></trkpt><trkpt lat="40.9392967" lon="14.3813017"><ele>25.0</ele><time>2026-03-29T06:36:19.297Z</time></trkpt><trkpt lat="40.9393633" lon="14.381325"><ele>25.0</ele><time>2026-03-29T06:36:20.297Z</time></trkpt><trkpt lat="40.9394317" lon="14.381355"><ele>25.0</ele><time>2026-03-29T06:36:21.295Z</time></trkpt><trkpt lat="40.9395033" lon="14.3813817"><ele>25.0</ele><time>2026-03-29T06:36:22.298Z</time></trkpt><trkpt lat="40.9395733" lon="14.381405"><ele>25.000000000000004</ele><time>2026-03-29T06:36:23.297Z</time></trkpt><trkpt lat="40.9396467" lon="14.3814267"><ele>25.0</ele><time>2026-03-29T06:36:24.297Z</time></trkpt><trkpt lat="40.9397133" lon="14.3814467"><ele>24.857142857142858</ele><time>2026-03-29T06:36:25.298Z</time></trkpt><trkpt lat="40.93978" lon="14.38147"><ele>24.714285714285715</ele><time>2026-03-29T06:36:26.296Z</time></trkpt><trkpt lat="40.939845" lon="14.3815017"><ele>24.57142857142857</ele><time>2026-03-29T06:36:27.297Z</time></trkpt><trkpt lat="40.939905" lon="14.3815483"><ele>24.42857142857143</ele><time>2026-03-29T06:36:28.296Z</time></trkpt><trkpt lat="40.93996" lon="14.3816067"><ele>24.285714285714285</ele><time>2026-03-29T06:36:29.298Z</time></trkpt><trkpt lat="40.940005" lon="14.3816767"><ele>24.142857142857142</ele><time>2026-03-29T06:36:30.298Z</time></trkpt><trkpt lat="40.940045" lon="14.3817567"><ele>24.0</ele><time>2026-03-29T06:36:31.295Z</time></trkpt><trkpt lat="40.9400783" lon="14.3818383"><ele>23.999999999999996</ele><time>2026-03-29T06:36:32.3Z</time></trkpt><trkpt lat="40.9401033" lon="14.381925"><ele>24.0</ele><time>2026-03-29T06:36:33.299Z</time></trkpt><trkpt lat="40.94013" lon="14.3820117"><ele>24.0</ele><time>2026-03-29T06:36:34.297Z</time></trkpt><trkpt lat="40.9401533" lon="14.3821"><ele>24.0</ele><time>2026-03-29T06:36:35.297Z</time></trkpt><trkpt lat="40.9401767" lon="14.3821867"><ele>24.0</ele><time>2026-03-29T06:36:36.298Z</time></trkpt><trkpt lat="40.9401983" lon="14.382275"><ele>23.999999999999996</ele><time>2026-03-29T06:36:37.296Z</time></trkpt><trkpt lat="40.9402183" lon="14.3823583"><ele>24.0</ele><time>2026-03-29T06:36:38.298Z</time></trkpt><trkpt lat="40.9402633" lon="14.38252"><ele>24.0</ele><time>2026-03-29T06:36:40.297Z</time></trkpt><trkpt lat="40.9402817" lon="14.3826017"><ele>24.0</ele><time>2026-03-29T06:36:41.297Z</time></trkpt><trkpt lat="40.9403233" lon="14.3827467"><ele>24.0</ele><time>2026-03-29T06:36:43.297Z</time></trkpt><trkpt lat="40.9403867" lon="14.38288"><ele>24.0</ele><time>2026-03-29T06:36:45.295Z</time></trkpt><trkpt lat="40.9404817" lon="14.3829733"><ele>24.0</ele><time>2026-03-29T06:36:47.297Z</time></trkpt><trkpt lat="40.9405917" lon="14.38298"><ele>24.0</ele><time>2026-03-29T06:36:49.298Z</time></trkpt><trkpt lat="40.9406483" lon="14.3829317"><ele>24.0</ele><time>2026-03-29T06:36:50.297Z</time></trkpt><trkpt lat="40.9407633" lon="14.382885"><ele>24.0</ele><time>2026-03-29T06:36:52.297Z</time></trkpt><trkpt lat="40.9408883" lon="14.3828583"><ele>24.0</ele><time>2026-03-29T06:36:54.297Z</time></trkpt><trkpt lat="40.9409567" lon="14.3828433"><ele>24.0</ele><time>2026-03-29T06:36:55.297Z</time></trkpt><trkpt lat="40.9410267" lon="14.3828283"><ele>24.285714285714285</ele><time>2026-03-29T06:36:56.297Z</time></trkpt><trkpt lat="40.9410917" lon="14.3828017"><ele>24.57142857142857</ele><time>2026-03-29T06:36:57.299Z</time></trkpt><trkpt lat="40.9411517" lon="14.3827617"><ele>24.857142857142854</ele><time>2026-03-29T06:36:58.297Z</time></trkpt><trkpt lat="40.94121" lon="14.3827"><ele>25.142857142857142</ele><time>2026-03-29T06:36:59.299Z</time></trkpt><trkpt lat="40.941265" lon="14.3826233"><ele>25.42857142857143</ele><time>2026-03-29T06:37:00.295Z</time></trkpt><trkpt lat="40.9413083" lon="14.3825467"><ele>25.71428571428571</ele><time>2026-03-29T06:37:01.299Z</time></trkpt><trkpt lat="40.9413533" lon="14.3824717"><ele>26.0</ele><time>2026-03-29T06:37:02.297Z</time></trkpt><trkpt lat="40.9414017" lon="14.382405"><ele>26.0</ele><time>2026-03-29T06:37:03.297Z</time></trkpt><trkpt lat="40.9414567" lon="14.3823533"><ele>26.0</ele><time>2026-03-29T06:37:04.298Z</time></trkpt><trkpt lat="40.9415133" lon="14.3823117"><ele>26.0</ele><time>2026-03-29T06:37:05.297Z</time></trkpt><trkpt lat="40.9415783" lon="14.382275"><ele>26.0</ele><time>2026-03-29T06:37:06.297Z</time></trkpt><trkpt lat="40.94165" lon="14.3822467"><ele>26.0</ele><time>2026-03-29T06:37:07.297Z</time></trkpt><trkpt lat="40.94172" lon="14.3822267"><ele>26.0</ele><time>2026-03-29T06:37:08.297Z</time></trkpt><trkpt lat="40.94179" lon="14.38221"><ele>26.0</ele><time>2026-03-29T06:37:09.296Z</time></trkpt><trkpt lat="40.9418583" lon="14.382195"><ele>26.142857142857142</ele><time>2026-03-29T06:37:10.296Z</time></trkpt><trkpt lat="40.9419283" lon="14.3821833"><ele>26.28571428571429</ele><time>2026-03-29T06:37:11.298Z</time></trkpt><trkpt lat="40.9419967" lon="14.3821733"><ele>26.42857142857143</ele><time>2026-03-29T06:37:12.297Z</time></trkpt><trkpt lat="40.9420683" lon="14.3821667"><ele>26.57142857142857</ele><time>2026-03-29T06:37:13.298Z</time></trkpt><trkpt lat="40.9421383" lon="14.3821667"><ele>26.714285714285715</ele><time>2026-03-29T06:37:14.297Z</time></trkpt><trkpt lat="40.9422067" lon="14.3821683"><ele>26.857142857142858</ele><time>2026-03-29T06:37:15.297Z</time></trkpt><trkpt lat="40.9422733" lon="14.38217"><ele>27.0</ele><time>2026-03-29T06:37:16.299Z</time></trkpt><trkpt lat="40.9423367" lon="14.382175"><ele>27.0</ele><time>2026-03-29T06:37:17.297Z</time></trkpt><trkpt lat="40.942465" lon="14.3821783"><ele>27.0</ele><time>2026-03-29T06:37:19.297Z</time></trkpt><trkpt lat="40.9425333" lon="14.3821817"><ele>27.0</ele><time>2026-03-29T06:37:20.295Z</time></trkpt><trkpt lat="40.942605" lon="14.3821867"><ele>27.0</ele><time>2026-03-29T06:37:21.297Z</time></trkpt><trkpt lat="40.9426717" lon="14.3821933"><ele>27.0</ele><time>2026-03-29T06:37:22.297Z</time></trkpt><trkpt lat="40.9427383" lon="14.382195"><ele>27.0</ele><time>2026-03-29T06:37:23.297Z</time></trkpt><trkpt lat="40.9428083" lon="14.3821917"><ele>26.857142857142858</ele><time>2026-03-29T06:37:24.297Z</time></trkpt><trkpt lat="40.9428767" lon="14.3821883"><ele>26.714285714285715</ele><time>2026-03-29T06:37:25.297Z</time></trkpt><trkpt lat="40.9429433" lon="14.38218"><ele>26.57142857142857</ele><time>2026-03-29T06:37:26.297Z</time></trkpt><trkpt lat="40.9430083" lon="14.38217"><ele>26.42857142857143</ele><time>2026-03-29T06:37:27.298Z</time></trkpt><trkpt lat="40.9430733" lon="14.3821617"><ele>26.28571428571429</ele><time>2026-03-29T06:37:28.298Z</time></trkpt><trkpt lat="40.9431383" lon="14.3821533"><ele>26.142857142857142</ele><time>2026-03-29T06:37:29.297Z</time></trkpt><trkpt lat="40.9432033" lon="14.3821333"><ele>26.0</ele><time>2026-03-29T06:37:30.297Z</time></trkpt><trkpt lat="40.9432733" lon="14.3821167"><ele>26.285714285714285</ele><time>2026-03-29T06:37:31.297Z</time></trkpt><trkpt lat="40.9433467" lon="14.382095"><ele>26.571428571428573</ele><time>2026-03-29T06:37:32.296Z</time></trkpt><trkpt lat="40.943415" lon="14.382075"><ele>26.857142857142858</ele><time>2026-03-29T06:37:33.297Z</time></trkpt><trkpt lat="40.9434817" lon="14.382055"><ele>27.142857142857142</ele><time>2026-03-29T06:37:34.297Z</time></trkpt><trkpt lat="40.943545" lon="14.382035"><ele>27.42857142857143</ele><time>2026-03-29T06:37:35.297Z</time></trkpt><trkpt lat="40.94361" lon="14.3820083"><ele>27.714285714285715</ele><time>2026-03-29T06:37:36.298Z</time></trkpt><trkpt lat="40.9436733" lon="14.3819783"><ele>28.0</ele><time>2026-03-29T06:37:37.298Z</time></trkpt><trkpt lat="40.94374" lon="14.3819517"><ele>28.0</ele><time>2026-03-29T06:37:38.298Z</time></trkpt><trkpt lat="40.9438067" lon="14.381925"><ele>27.999999999999996</ele><time>2026-03-29T06:37:39.296Z</time></trkpt><trkpt lat="40.9438683" lon="14.3818983"><ele>27.999999999999996</ele><time>2026-03-29T06:37:40.297Z</time></trkpt><trkpt lat="40.94398" lon="14.3818633"><ele>28.0</ele><time>2026-03-29T06:37:42.297Z</time></trkpt><trkpt lat="40.9440983" lon="14.381875"><ele>28.0</ele><time>2026-03-29T06:37:44.297Z</time></trkpt><trkpt lat="40.9441817" lon="14.3819567"><ele>27.833333333333336</ele><time>2026-03-29T06:37:46.299Z</time></trkpt><trkpt lat="40.9442267" lon="14.3821067"><ele>27.666666666666668</ele><time>2026-03-29T06:37:48.296Z</time></trkpt><trkpt lat="40.9442567" lon="14.3821833"><ele>27.5</ele><time>2026-03-29T06:37:49.299Z</time></trkpt><trkpt lat="40.9442817" lon="14.38226"><ele>27.333333333333336</ele><time>2026-03-29T06:37:50.299Z</time></trkpt><trkpt lat="40.9443033" lon="14.38234"><ele>27.166666666666668</ele><time>2026-03-29T06:37:51.295Z</time></trkpt><trkpt lat="40.94432" lon="14.3824233"><ele>27.0</ele><time>2026-03-29T06:37:52.295Z</time></trkpt><trkpt lat="40.9443233" lon="14.3825167"><ele>27.0</ele><time>2026-03-29T06:37:53.298Z</time></trkpt><trkpt lat="40.9443183" lon="14.38261"><ele>27.0</ele><time>2026-03-29T06:37:54.297Z</time></trkpt><trkpt lat="40.9443217" lon="14.3826983"><ele>27.0</ele><time>2026-03-29T06:37:55.296Z</time></trkpt><trkpt lat="40.944345" lon="14.382785"><ele>27.0</ele><time>2026-03-29T06:37:56.297Z</time></trkpt><trkpt lat="40.9443933" lon="14.3828533"><ele>27.0</ele><time>2026-03-29T06:37:57.297Z</time></trkpt><trkpt lat="40.9444667" lon="14.3828817"><ele>27.0</ele><time>2026-03-29T06:37:58.297Z</time></trkpt><trkpt lat="40.9445267" lon="14.3829133"><ele>27.0</ele><time>2026-03-29T06:37:59.297Z</time></trkpt><trkpt lat="40.9446233" lon="14.383005"><ele>27.0</ele><time>2026-03-29T06:38:01.297Z</time></trkpt><trkpt lat="40.9446667" lon="14.3830783"><ele>27.0</ele><time>2026-03-29T06:38:02.297Z</time></trkpt><trkpt lat="40.94471" lon="14.383145"><ele>27.0</ele><time>2026-03-29T06:38:03.297Z</time></trkpt><trkpt lat="40.9447483" lon="14.3832133"><ele>27.0</ele><time>2026-03-29T06:38:04.296Z</time></trkpt><trkpt lat="40.9447867" lon="14.383285"><ele>27.0</ele><time>2026-03-29T06:38:05.297Z</time></trkpt><trkpt lat="40.944825" lon="14.383355"><ele>27.0</ele><time>2026-03-29T06:38:06.298Z</time></trkpt><trkpt lat="40.9449" lon="14.383495"><ele>27.0</ele><time>2026-03-29T06:38:08.297Z</time></trkpt><trkpt lat="40.9449367" lon="14.3835733"><ele>27.0</ele><time>2026-03-29T06:38:09.297Z</time></trkpt><trkpt lat="40.9449783" lon="14.3836517"><ele>27.0</ele><time>2026-03-29T06:38:10.297Z</time></trkpt><trkpt lat="40.9450183" lon="14.3837283"><ele>27.0</ele><time>2026-03-29T06:38:11.297Z</time></trkpt><trkpt lat="40.94506" lon="14.3838083"><ele>27.0</ele><time>2026-03-29T06:38:12.296Z</time></trkpt><trkpt lat="40.9451" lon="14.3838883"><ele>27.0</ele><time>2026-03-29T06:38:13.299Z</time></trkpt><trkpt lat="40.94514" lon="14.3839667"><ele>27.0</ele><time>2026-03-29T06:38:14.297Z</time></trkpt><trkpt lat="40.94518" lon="14.3840433"><ele>27.142857142857142</ele><time>2026-03-29T06:38:15.297Z</time></trkpt><trkpt lat="40.9452167" lon="14.3841167"><ele>27.285714285714285</ele><time>2026-03-29T06:38:16.297Z</time></trkpt><trkpt lat="40.9452533" lon="14.384185"><ele>27.42857142857143</ele><time>2026-03-29T06:38:17.297Z</time></trkpt><trkpt lat="40.9452917" lon="14.384255"><ele>27.57142857142857</ele><time>2026-03-29T06:38:18.295Z</time></trkpt><trkpt lat="40.94533" lon="14.3843217"><ele>27.714285714285715</ele><time>2026-03-29T06:38:19.297Z</time></trkpt><trkpt lat="40.9453667" lon="14.3844"><ele>27.857142857142858</ele><time>2026-03-29T06:38:20.295Z</time></trkpt><trkpt lat="40.9454" lon="14.3844767"><ele>28.0</ele><time>2026-03-29T06:38:21.297Z</time></trkpt><trkpt lat="40.945435" lon="14.3845583"><ele>28.000000000000004</ele><time>2026-03-29T06:38:22.299Z</time></trkpt><trkpt lat="40.9454717" lon="14.3846417"><ele>28.0</ele><time>2026-03-29T06:38:23.299Z</time></trkpt><trkpt lat="40.9455067" lon="14.384715"><ele>28.0</ele><time>2026-03-29T06:38:24.297Z</time></trkpt><trkpt lat="40.945545" lon="14.384785"><ele>28.0</ele><time>2026-03-29T06:38:25.298Z</time></trkpt><trkpt lat="40.94558" lon="14.3848583"><ele>28.000000000000004</ele><time>2026-03-29T06:38:26.295Z</time></trkpt><trkpt lat="40.945645" lon="14.3850017"><ele>28.0</ele><time>2026-03-29T06:38:28.297Z</time></trkpt><trkpt lat="40.945715" lon="14.3851417"><ele>28.0</ele><time>2026-03-29T06:38:30.295Z</time></trkpt><trkpt lat="40.9457517" lon="14.3852117"><ele>28.0</ele><time>2026-03-29T06:38:31.297Z</time></trkpt><trkpt lat="40.945795" lon="14.3852883"><ele>28.0</ele><time>2026-03-29T06:38:32.297Z</time></trkpt><trkpt lat="40.94584" lon="14.3853583"><ele>28.0</ele><time>2026-03-29T06:38:33.299Z</time></trkpt><trkpt lat="40.9458883" lon="14.3854267"><ele>28.0</ele><time>2026-03-29T06:38:34.298Z</time></trkpt><trkpt lat="40.9459333" lon="14.3854983"><ele>28.0</ele><time>2026-03-29T06:38:35.298Z</time></trkpt><trkpt lat="40.9459833" lon="14.385565"><ele>28.0</ele><time>2026-03-29T06:38:36.297Z</time></trkpt><trkpt lat="40.9460333" lon="14.385635"><ele>27.571428571428573</ele><time>2026-03-29T06:38:37.298Z</time></trkpt><trkpt lat="40.9460817" lon="14.3856983"><ele>27.142857142857142</ele><time>2026-03-29T06:38:38.297Z</time></trkpt><trkpt lat="40.9461283" lon="14.38576"><ele>26.714285714285715</ele><time>2026-03-29T06:38:39.296Z</time></trkpt><trkpt lat="40.946175" lon="14.3858283"><ele>26.285714285714285</ele><time>2026-03-29T06:38:40.296Z</time></trkpt><trkpt lat="40.946225" lon="14.3858983"><ele>25.857142857142858</ele><time>2026-03-29T06:38:41.295Z</time></trkpt><trkpt lat="40.9462783" lon="14.3859683"><ele>25.42857142857143</ele><time>2026-03-29T06:38:42.298Z</time></trkpt><trkpt lat="40.9463283" lon="14.3860333"><ele>25.0</ele><time>2026-03-29T06:38:43.297Z</time></trkpt><trkpt lat="40.9463783" lon="14.3860967"><ele>25.000000000000004</ele><time>2026-03-29T06:38:44.297Z</time></trkpt><trkpt lat="40.9464283" lon="14.3861567"><ele>25.0</ele><time>2026-03-29T06:38:45.296Z</time></trkpt><trkpt lat="40.9464783" lon="14.386215"><ele>25.0</ele><time>2026-03-29T06:38:46.297Z</time></trkpt><trkpt lat="40.94653" lon="14.3862717"><ele>25.0</ele><time>2026-03-29T06:38:47.296Z</time></trkpt><trkpt lat="40.9465817" lon="14.3863283"><ele>25.0</ele><time>2026-03-29T06:38:48.295Z</time></trkpt><trkpt lat="40.9466333" lon="14.3863817"><ele>25.000000000000004</ele><time>2026-03-29T06:38:49.297Z</time></trkpt><trkpt lat="40.94669" lon="14.3864367"><ele>25.0</ele><time>2026-03-29T06:38:50.297Z</time></trkpt><trkpt lat="40.9467433" lon="14.3864883"><ele>25.42857142857143</ele><time>2026-03-29T06:38:51.295Z</time></trkpt><trkpt lat="40.9467983" lon="14.38654"><ele>25.857142857142858</ele><time>2026-03-29T06:38:52.297Z</time></trkpt><trkpt lat="40.946855" lon="14.3865917"><ele>26.285714285714285</ele><time>2026-03-29T06:38:53.297Z</time></trkpt><trkpt lat="40.9469133" lon="14.3866433"><ele>26.714285714285715</ele><time>2026-03-29T06:38:54.298Z</time></trkpt><trkpt lat="40.946975" lon="14.3866967"><ele>27.142857142857142</ele><time>2026-03-29T06:38:55.297Z</time></trkpt><trkpt lat="40.9470367" lon="14.3867433"><ele>27.571428571428573</ele><time>2026-03-29T06:38:56.299Z</time></trkpt><trkpt lat="40.9470983" lon="14.3867867"><ele>28.0</ele><time>2026-03-29T06:38:57.295Z</time></trkpt><trkpt lat="40.947155" lon="14.38683"><ele>28.000000000000004</ele><time>2026-03-29T06:38:58.295Z</time></trkpt><trkpt lat="40.947215" lon="14.3868767"><ele>28.0</ele><time>2026-03-29T06:38:59.297Z</time></trkpt><trkpt lat="40.94733" lon="14.38696"><ele>28.0</ele><time>2026-03-29T06:39:01.298Z</time></trkpt><trkpt lat="40.94739" lon="14.387"><ele>28.0</ele><time>2026-03-29T06:39:02.297Z</time></trkpt><trkpt lat="40.9474467" lon="14.3870417"><ele>28.000000000000004</ele><time>2026-03-29T06:39:03.296Z</time></trkpt><trkpt lat="40.947505" lon="14.3870817"><ele>28.0</ele><time>2026-03-29T06:39:04.295Z</time></trkpt><trkpt lat="40.9475633" lon="14.387125"><ele>28.142857142857142</ele><time>2026-03-29T06:39:05.296Z</time></trkpt><trkpt lat="40.9476233" lon="14.387165"><ele>28.285714285714285</ele><time>2026-03-29T06:39:06.297Z</time></trkpt><trkpt lat="40.9476833" lon="14.3872083"><ele>28.42857142857143</ele><time>2026-03-29T06:39:07.297Z</time></trkpt><trkpt lat="40.947745" lon="14.38725"><ele>28.571428571428573</ele><time>2026-03-29T06:39:08.297Z</time></trkpt><trkpt lat="40.9478017" lon="14.387295"><ele>28.714285714285715</ele><time>2026-03-29T06:39:09.297Z</time></trkpt><trkpt lat="40.9478583" lon="14.3873433"><ele>28.85714285714286</ele><time>2026-03-29T06:39:10.297Z</time></trkpt><trkpt lat="40.9479133" lon="14.3873933"><ele>29.000000000000004</ele><time>2026-03-29T06:39:11.296Z</time></trkpt><trkpt lat="40.947965" lon="14.387445"><ele>28.428571428571434</ele><time>2026-03-29T06:39:12.297Z</time></trkpt><trkpt lat="40.94802" lon="14.3875017"><ele>27.857142857142858</ele><time>2026-03-29T06:39:13.297Z</time></trkpt><trkpt lat="40.9480733" lon="14.3875617"><ele>27.28571428571429</ele><time>2026-03-29T06:39:14.296Z</time></trkpt><trkpt lat="40.9481283" lon="14.387625"><ele>26.714285714285715</ele><time>2026-03-29T06:39:15.297Z</time></trkpt><trkpt lat="40.9481767" lon="14.3876867"><ele>26.142857142857146</ele><time>2026-03-29T06:39:16.297Z</time></trkpt><trkpt lat="40.9482233" lon="14.3877517"><ele>25.571428571428573</ele><time>2026-03-29T06:39:17.297Z</time></trkpt><trkpt lat="40.94827" lon="14.38782"><ele>25.0</ele><time>2026-03-29T06:39:18.297Z</time></trkpt><trkpt lat="40.9483133" lon="14.38789"><ele>25.000000000000004</ele><time>2026-03-29T06:39:19.298Z</time></trkpt><trkpt lat="40.9483533" lon="14.3879567"><ele>25.0</ele><time>2026-03-29T06:39:20.297Z</time></trkpt><trkpt lat="40.948425" lon="14.3880933"><ele>25.0</ele><time>2026-03-29T06:39:22.295Z</time></trkpt><trkpt lat="40.94846" lon="14.3881683"><ele>25.0</ele><time>2026-03-29T06:39:23.297Z</time></trkpt><trkpt lat="40.9484967" lon="14.3882417"><ele>25.000000000000004</ele><time>2026-03-29T06:39:24.295Z</time></trkpt><trkpt lat="40.948535" lon="14.38832"><ele>25.0</ele><time>2026-03-29T06:39:25.297Z</time></trkpt><trkpt lat="40.9485717" lon="14.3884"><ele>25.142857142857146</ele><time>2026-03-29T06:39:26.297Z</time></trkpt><trkpt lat="40.9486133" lon="14.38848"><ele>25.285714285714285</ele><time>2026-03-29T06:39:27.295Z</time></trkpt><trkpt lat="40.948655" lon="14.388555"><ele>25.42857142857143</ele><time>2026-03-29T06:39:28.297Z</time></trkpt><trkpt lat="40.9486983" lon="14.388625"><ele>25.571428571428573</ele><time>2026-03-29T06:39:29.297Z</time></trkpt><trkpt lat="40.948745" lon="14.388695"><ele>25.714285714285715</ele><time>2026-03-29T06:39:30.297Z</time></trkpt><trkpt lat="40.9487917" lon="14.38876"><ele>25.857142857142858</ele><time>2026-03-29T06:39:31.297Z</time></trkpt><trkpt lat="40.94884" lon="14.3888267"><ele>26.0</ele><time>2026-03-29T06:39:32.297Z</time></trkpt><trkpt lat="40.9488917" lon="14.3888883"><ele>25.857142857142858</ele><time>2026-03-29T06:39:33.296Z</time></trkpt><trkpt lat="40.9489467" lon="14.3889483"><ele>25.714285714285715</ele><time>2026-03-29T06:39:34.297Z</time></trkpt><trkpt lat="40.949" lon="14.389005"><ele>25.571428571428573</ele><time>2026-03-29T06:39:35.296Z</time></trkpt><trkpt lat="40.9490567" lon="14.3890583"><ele>25.42857142857143</ele><time>2026-03-29T06:39:36.296Z</time></trkpt><trkpt lat="40.9491183" lon="14.3891117"><ele>25.285714285714285</ele><time>2026-03-29T06:39:37.297Z</time></trkpt><trkpt lat="40.949175" lon="14.3891617"><ele>25.142857142857146</ele><time>2026-03-29T06:39:38.297Z</time></trkpt><trkpt lat="40.9492283" lon="14.3892067"><ele>25.0</ele><time>2026-03-29T06:39:39.296Z</time></trkpt><trkpt lat="40.9492833" lon="14.3892567"><ele>25.000000000000004</ele><time>2026-03-29T06:39:40.297Z</time></trkpt><trkpt lat="40.94934" lon="14.3893083"><ele>25.0</ele><time>2026-03-29T06:39:41.295Z</time></trkpt><trkpt lat="40.9493983" lon="14.3893617"><ele>25.0</ele><time>2026-03-29T06:39:42.295Z</time></trkpt><trkpt lat="40.9494567" lon="14.389415"><ele>25.0</ele><time>2026-03-29T06:39:43.297Z</time></trkpt><trkpt lat="40.9495167" lon="14.3894717"><ele>25.0</ele><time>2026-03-29T06:39:44.295Z</time></trkpt><trkpt lat="40.9495767" lon="14.3895233"><ele>25.000000000000004</ele><time>2026-03-29T06:39:45.296Z</time></trkpt><trkpt lat="40.9496367" lon="14.38958"><ele>25.0</ele><time>2026-03-29T06:39:46.299Z</time></trkpt><trkpt lat="40.9496967" lon="14.389635"><ele>25.42857142857143</ele><time>2026-03-29T06:39:47.297Z</time></trkpt><trkpt lat="40.949755" lon="14.3896883"><ele>25.857142857142858</ele><time>2026-03-29T06:39:48.297Z</time></trkpt><trkpt lat="40.9498117" lon="14.3897433"><ele>26.285714285714285</ele><time>2026-03-29T06:39:49.296Z</time></trkpt><trkpt lat="40.9498633" lon="14.3897983"><ele>26.714285714285715</ele><time>2026-03-29T06:39:50.297Z</time></trkpt><trkpt lat="40.949915" lon="14.3898583"><ele>27.142857142857142</ele><time>2026-03-29T06:39:51.297Z</time></trkpt><trkpt lat="40.9499633" lon="14.3899183"><ele>27.571428571428573</ele><time>2026-03-29T06:39:52.297Z</time></trkpt><trkpt lat="40.9500117" lon="14.389985"><ele>28.0</ele><time>2026-03-29T06:39:53.297Z</time></trkpt><trkpt lat="40.9500583" lon="14.390055"><ele>28.0</ele><time>2026-03-29T06:39:54.295Z</time></trkpt><trkpt lat="40.950105" lon="14.390125"><ele>28.0</ele><time>2026-03-29T06:39:55.297Z</time></trkpt><trkpt lat="40.95015" lon="14.390195"><ele>28.0</ele><time>2026-03-29T06:39:56.296Z</time></trkpt><trkpt lat="40.9501933" lon="14.3902683"><ele>28.0</ele><time>2026-03-29T06:39:57.297Z</time></trkpt><trkpt lat="40.9502317" lon="14.3903483"><ele>28.0</ele><time>2026-03-29T06:39:58.297Z</time></trkpt><trkpt lat="40.95027" lon="14.390425"><ele>28.0</ele><time>2026-03-29T06:39:59.297Z</time></trkpt><trkpt lat="40.9503017" lon="14.3905017"><ele>28.0</ele><time>2026-03-29T06:40:00.297Z</time></trkpt><trkpt lat="40.9503333" lon="14.390585"><ele>27.857142857142858</ele><time>2026-03-29T06:40:01.298Z</time></trkpt><trkpt lat="40.950365" lon="14.3906667"><ele>27.714285714285715</ele><time>2026-03-29T06:40:02.296Z</time></trkpt><trkpt lat="40.9503967" lon="14.3907517"><ele>27.57142857142857</ele><time>2026-03-29T06:40:03.299Z</time></trkpt><trkpt lat="40.9504267" lon="14.3908333"><ele>27.42857142857143</ele><time>2026-03-29T06:40:04.299Z</time></trkpt><trkpt lat="40.9504567" lon="14.3909167"><ele>27.285714285714285</ele><time>2026-03-29T06:40:05.299Z</time></trkpt><trkpt lat="40.9504867" lon="14.3910017"><ele>27.142857142857142</ele><time>2026-03-29T06:40:06.298Z</time></trkpt><trkpt lat="40.9505167" lon="14.3910867"><ele>27.0</ele><time>2026-03-29T06:40:07.3Z</time></trkpt><trkpt lat="40.950545" lon="14.3911733"><ele>27.0</ele><time>2026-03-29T06:40:08.298Z</time></trkpt><trkpt lat="40.9505733" lon="14.3912617"><ele>27.0</ele><time>2026-03-29T06:40:09.297Z</time></trkpt><trkpt lat="40.9506033" lon="14.3913517"><ele>27.0</ele><time>2026-03-29T06:40:10.299Z</time></trkpt><trkpt lat="40.9506333" lon="14.391445"><ele>27.0</ele><time>2026-03-29T06:40:11.295Z</time></trkpt><trkpt lat="40.9506633" lon="14.391535"><ele>27.0</ele><time>2026-03-29T06:40:12.296Z</time></trkpt><trkpt lat="40.9506933" lon="14.391625"><ele>27.0</ele><time>2026-03-29T06:40:13.296Z</time></trkpt><trkpt lat="40.9507233" lon="14.3917117"><ele>27.0</ele><time>2026-03-29T06:40:14.297Z</time></trkpt><trkpt lat="40.9507533" lon="14.3917967"><ele>26.857142857142858</ele><time>2026-03-29T06:40:15.297Z</time></trkpt><trkpt lat="40.9507817" lon="14.3918783"><ele>26.714285714285715</ele><time>2026-03-29T06:40:16.297Z</time></trkpt><trkpt lat="40.95081" lon="14.3919633"><ele>26.57142857142857</ele><time>2026-03-29T06:40:17.297Z</time></trkpt><trkpt lat="40.95084" lon="14.392045"><ele>26.42857142857143</ele><time>2026-03-29T06:40:18.297Z</time></trkpt><trkpt lat="40.95087" lon="14.3921283"><ele>26.28571428571429</ele><time>2026-03-29T06:40:19.297Z</time></trkpt><trkpt lat="40.9508967" lon="14.3922133"><ele>26.142857142857142</ele><time>2026-03-29T06:40:20.297Z</time></trkpt><trkpt lat="40.9509217" lon="14.392295"><ele>26.0</ele><time>2026-03-29T06:40:21.295Z</time></trkpt><trkpt lat="40.95095" lon="14.3923767"><ele>25.857142857142858</ele><time>2026-03-29T06:40:22.297Z</time></trkpt><trkpt lat="40.9509817" lon="14.3924617"><ele>25.714285714285715</ele><time>2026-03-29T06:40:23.297Z</time></trkpt><trkpt lat="40.9510117" lon="14.392545"><ele>25.571428571428573</ele><time>2026-03-29T06:40:24.296Z</time></trkpt><trkpt lat="40.95104" lon="14.3926267"><ele>25.42857142857143</ele><time>2026-03-29T06:40:25.297Z</time></trkpt><trkpt lat="40.9510717" lon="14.392715"><ele>25.285714285714285</ele><time>2026-03-29T06:40:26.297Z</time></trkpt><trkpt lat="40.9511017" lon="14.3927983"><ele>25.142857142857146</ele><time>2026-03-29T06:40:27.296Z</time></trkpt><trkpt lat="40.9511367" lon="14.3928867"><ele>25.0</ele><time>2026-03-29T06:40:28.297Z</time></trkpt><trkpt lat="40.95117" lon="14.3929717"><ele>25.000000000000004</ele><time>2026-03-29T06:40:29.295Z</time></trkpt><trkpt lat="40.9512033" lon="14.3930567"><ele>25.0</ele><time>2026-03-29T06:40:30.297Z</time></trkpt><trkpt lat="40.9512417" lon="14.393135"><ele>25.0</ele><time>2026-03-29T06:40:31.299Z</time></trkpt><trkpt lat="40.9512833" lon="14.39321"><ele>25.0</ele><time>2026-03-29T06:40:32.295Z</time></trkpt><trkpt lat="40.9513283" lon="14.3932817"><ele>25.0</ele><time>2026-03-29T06:40:33.295Z</time></trkpt><trkpt lat="40.951375" lon="14.3933517"><ele>25.000000000000004</ele><time>2026-03-29T06:40:34.299Z</time></trkpt><trkpt lat="40.9514267" lon="14.3934183"><ele>25.0</ele><time>2026-03-29T06:40:35.299Z</time></trkpt><trkpt lat="40.9514833" lon="14.39348"><ele>25.000000000000004</ele><time>2026-03-29T06:40:36.299Z</time></trkpt><trkpt lat="40.9515383" lon="14.393535"><ele>25.0</ele><time>2026-03-29T06:40:37.298Z</time></trkpt><trkpt lat="40.9515983" lon="14.393585"><ele>25.0</ele><time>2026-03-29T06:40:38.297Z</time></trkpt><trkpt lat="40.9516617" lon="14.3936283"><ele>25.0</ele><time>2026-03-29T06:40:39.297Z</time></trkpt><trkpt lat="40.9517283" lon="14.3936633"><ele>25.0</ele><time>2026-03-29T06:40:40.298Z</time></trkpt><trkpt lat="40.9517967" lon="14.39369"><ele>25.000000000000004</ele><time>2026-03-29T06:40:41.296Z</time></trkpt><trkpt lat="40.9518633" lon="14.3937117"><ele>25.0</ele><time>2026-03-29T06:40:42.299Z</time></trkpt><trkpt lat="40.9519317" lon="14.3937283"><ele>24.857142857142858</ele><time>2026-03-29T06:40:43.297Z</time></trkpt><trkpt lat="40.9520017" lon="14.39374"><ele>24.714285714285715</ele><time>2026-03-29T06:40:44.295Z</time></trkpt><trkpt lat="40.9520733" lon="14.3937433"><ele>24.57142857142857</ele><time>2026-03-29T06:40:45.296Z</time></trkpt><trkpt lat="40.9521467" lon="14.39374"><ele>24.42857142857143</ele><time>2026-03-29T06:40:46.297Z</time></trkpt><trkpt lat="40.95222" lon="14.3937267"><ele>24.285714285714285</ele><time>2026-03-29T06:40:47.297Z</time></trkpt><trkpt lat="40.9522933" lon="14.39371"><ele>24.142857142857142</ele><time>2026-03-29T06:40:48.297Z</time></trkpt><trkpt lat="40.9523667" lon="14.393695"><ele>24.0</ele><time>2026-03-29T06:40:49.297Z</time></trkpt><trkpt lat="40.9524383" lon="14.3936783"><ele>23.999999999999996</ele><time>2026-03-29T06:40:50.297Z</time></trkpt><trkpt lat="40.9525083" lon="14.39366"><ele>24.0</ele><time>2026-03-29T06:40:51.296Z</time></trkpt><trkpt lat="40.9525767" lon="14.39364"><ele>24.0</ele><time>2026-03-29T06:40:52.296Z</time></trkpt><trkpt lat="40.9526433" lon="14.3936233"><ele>24.0</ele><time>2026-03-29T06:40:53.296Z</time></trkpt><trkpt lat="40.9527117" lon="14.393605"><ele>24.0</ele><time>2026-03-29T06:40:54.295Z</time></trkpt><trkpt lat="40.9527817" lon="14.393585"><ele>23.999999999999996</ele><time>2026-03-29T06:40:55.298Z</time></trkpt><trkpt lat="40.95285" lon="14.393565"><ele>24.0</ele><time>2026-03-29T06:40:56.296Z</time></trkpt><trkpt lat="40.9529183" lon="14.393545"><ele>24.428571428571427</ele><time>2026-03-29T06:40:57.296Z</time></trkpt><trkpt lat="40.9529833" lon="14.3935267"><ele>24.857142857142858</ele><time>2026-03-29T06:40:58.295Z</time></trkpt><trkpt lat="40.9530467" lon="14.3935067"><ele>25.285714285714285</ele><time>2026-03-29T06:40:59.298Z</time></trkpt><trkpt lat="40.9531117" lon="14.3934867"><ele>25.714285714285715</ele><time>2026-03-29T06:41:00.296Z</time></trkpt><trkpt lat="40.953175" lon="14.393465"><ele>26.142857142857142</ele><time>2026-03-29T06:41:01.299Z</time></trkpt><trkpt lat="40.9532417" lon="14.3934383"><ele>26.57142857142857</ele><time>2026-03-29T06:41:02.299Z</time></trkpt><trkpt lat="40.953305" lon="14.3934133"><ele>27.0</ele><time>2026-03-29T06:41:03.299Z</time></trkpt><trkpt lat="40.9533683" lon="14.39339"><ele>27.0</ele><time>2026-03-29T06:41:04.296Z</time></trkpt><trkpt lat="40.953435" lon="14.3933733"><ele>27.0</ele><time>2026-03-29T06:41:05.299Z</time></trkpt><trkpt lat="40.9535033" lon="14.3933567"><ele>27.0</ele><time>2026-03-29T06:41:06.295Z</time></trkpt><trkpt lat="40.9535717" lon="14.3933417"><ele>27.0</ele><time>2026-03-29T06:41:07.296Z</time></trkpt><trkpt lat="40.9536367" lon="14.3933267"><ele>27.0</ele><time>2026-03-29T06:41:08.297Z</time></trkpt><trkpt lat="40.9537033" lon="14.3933117"><ele>27.0</ele><time>2026-03-29T06:41:09.295Z</time></trkpt><trkpt lat="40.9537667" lon="14.39329"><ele>27.0</ele><time>2026-03-29T06:41:10.298Z</time></trkpt><trkpt lat="40.95383" lon="14.39327"><ele>27.0</ele><time>2026-03-29T06:41:11.297Z</time></trkpt><trkpt lat="40.9538967" lon="14.3932567"><ele>27.0</ele><time>2026-03-29T06:41:12.297Z</time></trkpt><trkpt lat="40.9539617" lon="14.39325"><ele>27.0</ele><time>2026-03-29T06:41:13.297Z</time></trkpt><trkpt lat="40.9540283" lon="14.3932517"><ele>27.0</ele><time>2026-03-29T06:41:14.297Z</time></trkpt><trkpt lat="40.9540967" lon="14.3932533"><ele>27.0</ele><time>2026-03-29T06:41:15.296Z</time></trkpt><trkpt lat="40.9541617" lon="14.393255"><ele>27.0</ele><time>2026-03-29T06:41:16.295Z</time></trkpt><trkpt lat="40.9542267" lon="14.3932733"><ele>27.0</ele><time>2026-03-29T06:41:17.296Z</time></trkpt><trkpt lat="40.9542883" lon="14.3933083"><ele>27.0</ele><time>2026-03-29T06:41:18.297Z</time></trkpt><trkpt lat="40.9543433" lon="14.393355"><ele>27.0</ele><time>2026-03-29T06:41:19.297Z</time></trkpt><trkpt lat="40.9543917" lon="14.3934117"><ele>27.0</ele><time>2026-03-29T06:41:20.297Z</time></trkpt><trkpt lat="40.9544367" lon="14.3934783"><ele>27.0</ele><time>2026-03-29T06:41:21.297Z</time></trkpt><trkpt lat="40.95448" lon="14.3935433"><ele>27.0</ele><time>2026-03-29T06:41:22.297Z</time></trkpt><trkpt lat="40.9545233" lon="14.393605"><ele>27.0</ele><time>2026-03-29T06:41:23.297Z</time></trkpt><trkpt lat="40.9545683" lon="14.3936717"><ele>27.0</ele><time>2026-03-29T06:41:24.297Z</time></trkpt><trkpt lat="40.9546117" lon="14.3937367"><ele>27.0</ele><time>2026-03-29T06:41:25.297Z</time></trkpt><trkpt lat="40.954655" lon="14.3938083"><ele>27.0</ele><time>2026-03-29T06:41:26.296Z</time></trkpt><trkpt lat="40.9546983" lon="14.393885"><ele>27.0</ele><time>2026-03-29T06:41:27.298Z</time></trkpt><trkpt lat="40.95474" lon="14.3939567"><ele>27.0</ele><time>2026-03-29T06:41:28.297Z</time></trkpt><trkpt lat="40.954785" lon="14.39403"><ele>27.0</ele><time>2026-03-29T06:41:29.3Z</time></trkpt><trkpt lat="40.9548283" lon="14.3941033"><ele>27.0</ele><time>2026-03-29T06:41:30.298Z</time></trkpt><trkpt lat="40.9548717" lon="14.39418"><ele>27.0</ele><time>2026-03-29T06:41:31.3Z</time></trkpt><trkpt lat="40.954915" lon="14.3942517"><ele>27.0</ele><time>2026-03-29T06:41:32.299Z</time></trkpt><trkpt lat="40.9549583" lon="14.3943233"><ele>27.0</ele><time>2026-03-29T06:41:33.295Z</time></trkpt><trkpt lat="40.9550017" lon="14.3943917"><ele>27.0</ele><time>2026-03-29T06:41:34.299Z</time></trkpt><trkpt lat="40.9550433" lon="14.3944633"><ele>27.0</ele><time>2026-03-29T06:41:35.299Z</time></trkpt><trkpt lat="40.9550867" lon="14.394535"><ele>27.0</ele><time>2026-03-29T06:41:36.299Z</time></trkpt><trkpt lat="40.9551283" lon="14.3946133"><ele>27.0</ele><time>2026-03-29T06:41:37.298Z</time></trkpt><trkpt lat="40.9551683" lon="14.3946933"><ele>27.0</ele><time>2026-03-29T06:41:38.299Z</time></trkpt><trkpt lat="40.95521" lon="14.394765"><ele>27.0</ele><time>2026-03-29T06:41:39.298Z</time></trkpt><trkpt lat="40.955255" lon="14.3948383"><ele>27.0</ele><time>2026-03-29T06:41:40.299Z</time></trkpt><trkpt lat="40.9553017" lon="14.394915"><ele>27.0</ele><time>2026-03-29T06:41:41.299Z</time></trkpt><trkpt lat="40.9553467" lon="14.3949917"><ele>27.0</ele><time>2026-03-29T06:41:42.299Z</time></trkpt><trkpt lat="40.9553917" lon="14.3950667"><ele>27.0</ele><time>2026-03-29T06:41:43.3Z</time></trkpt><trkpt lat="40.9554383" lon="14.39514"><ele>27.0</ele><time>2026-03-29T06:41:44.299Z</time></trkpt><trkpt lat="40.9554867" lon="14.3952117"><ele>27.0</ele><time>2026-03-29T06:41:45.299Z</time></trkpt><trkpt lat="40.9555333" lon="14.395285"><ele>27.0</ele><time>2026-03-29T06:41:46.297Z</time></trkpt><trkpt lat="40.9555783" lon="14.3953633"><ele>27.0</ele><time>2026-03-29T06:41:47.297Z</time></trkpt><trkpt lat="40.9556233" lon="14.3954367"><ele>27.0</ele><time>2026-03-29T06:41:48.297Z</time></trkpt><trkpt lat="40.9556667" lon="14.39551"><ele>27.0</ele><time>2026-03-29T06:41:49.297Z</time></trkpt><trkpt lat="40.9557133" lon="14.3955833"><ele>27.0</ele><time>2026-03-29T06:41:50.296Z</time></trkpt><trkpt lat="40.95576" lon="14.395655"><ele>27.0</ele><time>2026-03-29T06:41:51.295Z</time></trkpt><trkpt lat="40.9558083" lon="14.3957283"><ele>27.0</ele><time>2026-03-29T06:41:52.298Z</time></trkpt><trkpt lat="40.9558567" lon="14.3957983"><ele>27.714285714285715</ele><time>2026-03-29T06:41:53.299Z</time></trkpt><trkpt lat="40.9559083" lon="14.3958683"><ele>28.428571428571427</ele><time>2026-03-29T06:41:54.297Z</time></trkpt><trkpt lat="40.9559617" lon="14.3959367"><ele>29.142857142857142</ele><time>2026-03-29T06:41:55.3Z</time></trkpt><trkpt lat="40.9560083" lon="14.3960083"><ele>29.857142857142854</ele><time>2026-03-29T06:41:56.299Z</time></trkpt><trkpt lat="40.9560567" lon="14.39608"><ele>30.57142857142857</ele><time>2026-03-29T06:41:57.299Z</time></trkpt><trkpt lat="40.9561067" lon="14.39615"><ele>31.285714285714285</ele><time>2026-03-29T06:41:58.299Z</time></trkpt><trkpt lat="40.9561567" lon="14.3962167"><ele>32.0</ele><time>2026-03-29T06:41:59.299Z</time></trkpt><trkpt lat="40.9562083" lon="14.3962817"><ele>31.857142857142854</ele><time>2026-03-29T06:42:00.298Z</time></trkpt><trkpt lat="40.95626" lon="14.3963467"><ele>31.71428571428571</ele><time>2026-03-29T06:42:01.299Z</time></trkpt><trkpt lat="40.9563117" lon="14.3964133"><ele>31.57142857142857</ele><time>2026-03-29T06:42:02.3Z</time></trkpt><trkpt lat="40.9563633" lon="14.3964817"><ele>31.42857142857143</ele><time>2026-03-29T06:42:03.299Z</time></trkpt><trkpt lat="40.9564133" lon="14.39655"><ele>31.28571428571429</ele><time>2026-03-29T06:42:04.299Z</time></trkpt><trkpt lat="40.9564633" lon="14.3966167"><ele>31.142857142857146</ele><time>2026-03-29T06:42:05.296Z</time></trkpt><trkpt lat="40.956515" lon="14.396685"><ele>31.0</ele><time>2026-03-29T06:42:06.299Z</time></trkpt><trkpt lat="40.956565" lon="14.3967533"><ele>31.0</ele><time>2026-03-29T06:42:07.299Z</time></trkpt><trkpt lat="40.956615" lon="14.3968167"><ele>31.000000000000004</ele><time>2026-03-29T06:42:08.299Z</time></trkpt><trkpt lat="40.9566683" lon="14.3968767"><ele>31.0</ele><time>2026-03-29T06:42:09.299Z</time></trkpt><trkpt lat="40.9567217" lon="14.3969383"><ele>31.0</ele><time>2026-03-29T06:42:10.299Z</time></trkpt><trkpt lat="40.956775" lon="14.397005"><ele>31.000000000000004</ele><time>2026-03-29T06:42:11.297Z</time></trkpt><trkpt lat="40.95683" lon="14.397075"><ele>31.0</ele><time>2026-03-29T06:42:12.297Z</time></trkpt><trkpt lat="40.956885" lon="14.397145"><ele>31.0</ele><time>2026-03-29T06:42:13.297Z</time></trkpt><trkpt lat="40.9569433" lon="14.3972167"><ele>30.42857142857143</ele><time>2026-03-29T06:42:14.296Z</time></trkpt><trkpt lat="40.957" lon="14.3972867"><ele>29.85714285714286</ele><time>2026-03-29T06:42:15.295Z</time></trkpt><trkpt lat="40.95705" lon="14.397355"><ele>29.285714285714285</ele><time>2026-03-29T06:42:16.297Z</time></trkpt><trkpt lat="40.9571" lon="14.39741"><ele>28.714285714285715</ele><time>2026-03-29T06:42:17.297Z</time></trkpt><trkpt lat="40.9571467" lon="14.3974833"><ele>28.142857142857142</ele><time>2026-03-29T06:42:18.297Z</time></trkpt><trkpt lat="40.95719" lon="14.3975583"><ele>27.57142857142857</ele><time>2026-03-29T06:42:19.298Z</time></trkpt><trkpt lat="40.9572367" lon="14.39765"><ele>27.0</ele><time>2026-03-29T06:42:20.295Z</time></trkpt><trkpt lat="40.9572783" lon="14.3977383"><ele>27.0</ele><time>2026-03-29T06:42:21.297Z</time></trkpt><trkpt lat="40.9573133" lon="14.39783"><ele>27.0</ele><time>2026-03-29T06:42:22.297Z</time></trkpt><trkpt lat="40.95735" lon="14.3979283"><ele>27.0</ele><time>2026-03-29T06:42:23.297Z</time></trkpt><trkpt lat="40.957385" lon="14.3980267"><ele>27.0</ele><time>2026-03-29T06:42:24.299Z</time></trkpt><trkpt lat="40.957415" lon="14.39813"><ele>27.0</ele><time>2026-03-29T06:42:25.301Z</time></trkpt><trkpt lat="40.9574417" lon="14.398235"><ele>27.0</ele><time>2026-03-29T06:42:26.297Z</time></trkpt><trkpt lat="40.9574633" lon="14.3983383"><ele>27.333333333333332</ele><time>2026-03-29T06:42:27.297Z</time></trkpt><trkpt lat="40.9574833" lon="14.3984483"><ele>27.666666666666664</ele><time>2026-03-29T06:42:28.297Z</time></trkpt><trkpt lat="40.9574983" lon="14.3985567"><ele>28.0</ele><time>2026-03-29T06:42:29.297Z</time></trkpt><trkpt lat="40.9575117" lon="14.3986633"><ele>28.333333333333332</ele><time>2026-03-29T06:42:30.299Z</time></trkpt><trkpt lat="40.9575267" lon="14.3987683"><ele>28.666666666666664</ele><time>2026-03-29T06:42:31.299Z</time></trkpt><trkpt lat="40.9575383" lon="14.3988717"><ele>29.0</ele><time>2026-03-29T06:42:32.297Z</time></trkpt><trkpt lat="40.9575483" lon="14.39897"><ele>28.999999999999996</ele><time>2026-03-29T06:42:33.297Z</time></trkpt><trkpt lat="40.9575617" lon="14.3990767"><ele>29.0</ele><time>2026-03-29T06:42:34.296Z</time></trkpt><trkpt lat="40.957575" lon="14.3991817"><ele>29.0</ele><time>2026-03-29T06:42:35.299Z</time></trkpt><trkpt lat="40.95759" lon="14.3992867"><ele>29.0</ele><time>2026-03-29T06:42:36.297Z</time></trkpt><trkpt lat="40.9576017" lon="14.3993883"><ele>28.999999999999996</ele><time>2026-03-29T06:42:37.297Z</time></trkpt><trkpt lat="40.9576133" lon="14.3994917"><ele>29.0</ele><time>2026-03-29T06:42:38.299Z</time></trkpt><trkpt lat="40.957625" lon="14.3995967"><ele>28.499999999999996</ele><time>2026-03-29T06:42:39.296Z</time></trkpt><trkpt lat="40.957635" lon="14.3997"><ele>28.0</ele><time>2026-03-29T06:42:40.296Z</time></trkpt><trkpt lat="40.957645" lon="14.3998"><ele>27.5</ele><time>2026-03-29T06:42:41.297Z</time></trkpt><trkpt lat="40.95766" lon="14.3999033"><ele>27.0</ele><time>2026-03-29T06:42:42.296Z</time></trkpt><trkpt lat="40.9576783" lon="14.40001"><ele>26.499999999999996</ele><time>2026-03-29T06:42:43.298Z</time></trkpt><trkpt lat="40.9576967" lon="14.4001167"><ele>26.0</ele><time>2026-03-29T06:42:44.297Z</time></trkpt><trkpt lat="40.9577133" lon="14.40022"><ele>25.999999999999996</ele><time>2026-03-29T06:42:45.295Z</time></trkpt><trkpt lat="40.95773" lon="14.4003283"><ele>26.0</ele><time>2026-03-29T06:42:46.298Z</time></trkpt><trkpt lat="40.9577467" lon="14.40044"><ele>26.0</ele><time>2026-03-29T06:42:47.296Z</time></trkpt><trkpt lat="40.9577633" lon="14.40055"><ele>26.0</ele><time>2026-03-29T06:42:48.295Z</time></trkpt><trkpt lat="40.9577867" lon="14.4006617"><ele>25.999999999999996</ele><time>2026-03-29T06:42:49.297Z</time></trkpt><trkpt lat="40.9578167" lon="14.400765"><ele>26.0</ele><time>2026-03-29T06:42:50.297Z</time></trkpt><trkpt lat="40.9578483" lon="14.4008567"><ele>26.166666666666664</ele><time>2026-03-29T06:42:51.296Z</time></trkpt><trkpt lat="40.957885" lon="14.4009483"><ele>26.333333333333332</ele><time>2026-03-29T06:42:52.297Z</time></trkpt><trkpt lat="40.9579283" lon="14.4010433"><ele>26.5</ele><time>2026-03-29T06:42:53.295Z</time></trkpt><trkpt lat="40.9579767" lon="14.4011317"><ele>26.666666666666664</ele><time>2026-03-29T06:42:54.297Z</time></trkpt><trkpt lat="40.9580267" lon="14.4012183"><ele>26.833333333333332</ele><time>2026-03-29T06:42:55.295Z</time></trkpt><trkpt lat="40.9580783" lon="14.4012983"><ele>27.0</ele><time>2026-03-29T06:42:56.297Z</time></trkpt><trkpt lat="40.95813" lon="14.401375"><ele>27.0</ele><time>2026-03-29T06:42:57.299Z</time></trkpt><trkpt lat="40.9581833" lon="14.4014567"><ele>27.0</ele><time>2026-03-29T06:42:58.298Z</time></trkpt><trkpt lat="40.958235" lon="14.401535"><ele>27.0</ele><time>2026-03-29T06:42:59.3Z</time></trkpt><trkpt lat="40.95829" lon="14.401615"><ele>27.0</ele><time>2026-03-29T06:43:00.298Z</time></trkpt><trkpt lat="40.9583467" lon="14.401695"><ele>27.0</ele><time>2026-03-29T06:43:01.299Z</time></trkpt><trkpt lat="40.9584" lon="14.401775"><ele>27.0</ele><time>2026-03-29T06:43:02.298Z</time></trkpt><trkpt lat="40.9584533" lon="14.4018483"><ele>27.0</ele><time>2026-03-29T06:43:03.297Z</time></trkpt><trkpt lat="40.9585067" lon="14.4019183"><ele>27.0</ele><time>2026-03-29T06:43:04.295Z</time></trkpt><trkpt lat="40.9585633" lon="14.401985"><ele>27.0</ele><time>2026-03-29T06:43:05.296Z</time></trkpt><trkpt lat="40.9586183" lon="14.4020533"><ele>27.0</ele><time>2026-03-29T06:43:06.298Z</time></trkpt><trkpt lat="40.9586717" lon="14.40212"><ele>27.0</ele><time>2026-03-29T06:43:07.299Z</time></trkpt><trkpt lat="40.958725" lon="14.40219"><ele>27.0</ele><time>2026-03-29T06:43:08.299Z</time></trkpt><trkpt lat="40.9587767" lon="14.4022567"><ele>27.0</ele><time>2026-03-29T06:43:09.295Z</time></trkpt><trkpt lat="40.9588283" lon="14.4023233"><ele>27.0</ele><time>2026-03-29T06:43:10.299Z</time></trkpt><trkpt lat="40.9588783" lon="14.402385"><ele>27.0</ele><time>2026-03-29T06:43:11.294Z</time></trkpt><trkpt lat="40.9589317" lon="14.4024483"><ele>27.0</ele><time>2026-03-29T06:43:12.299Z</time></trkpt><trkpt lat="40.9589833" lon="14.4025117"><ele>27.0</ele><time>2026-03-29T06:43:13.3Z</time></trkpt><trkpt lat="40.9590333" lon="14.4025733"><ele>27.0</ele><time>2026-03-29T06:43:14.299Z</time></trkpt><trkpt lat="40.9590867" lon="14.4026367"><ele>27.0</ele><time>2026-03-29T06:43:15.295Z</time></trkpt><trkpt lat="40.9591383" lon="14.4027"><ele>27.0</ele><time>2026-03-29T06:43:16.299Z</time></trkpt><trkpt lat="40.9591883" lon="14.402765"><ele>26.857142857142858</ele><time>2026-03-29T06:43:17.298Z</time></trkpt><trkpt lat="40.95924" lon="14.4028317"><ele>26.714285714285715</ele><time>2026-03-29T06:43:18.295Z</time></trkpt><trkpt lat="40.959295" lon="14.402895"><ele>26.57142857142857</ele><time>2026-03-29T06:43:19.3Z</time></trkpt><trkpt lat="40.9593467" lon="14.4029533"><ele>26.42857142857143</ele><time>2026-03-29T06:43:20.299Z</time></trkpt><trkpt lat="40.9593983" lon="14.4030167"><ele>26.28571428571429</ele><time>2026-03-29T06:43:21.297Z</time></trkpt><trkpt lat="40.9594483" lon="14.403085"><ele>26.142857142857142</ele><time>2026-03-29T06:43:22.297Z</time></trkpt><trkpt lat="40.959495" lon="14.4031533"><ele>26.0</ele><time>2026-03-29T06:43:23.297Z</time></trkpt><trkpt lat="40.9595433" lon="14.403225"><ele>25.999999999999996</ele><time>2026-03-29T06:43:24.297Z</time></trkpt><trkpt lat="40.9595883" lon="14.4032983"><ele>26.0</ele><time>2026-03-29T06:43:25.297Z</time></trkpt><trkpt lat="40.9596283" lon="14.4033767"><ele>26.0</ele><time>2026-03-29T06:43:26.296Z</time></trkpt><trkpt lat="40.9596667" lon="14.4034583"><ele>26.0</ele><time>2026-03-29T06:43:27.296Z</time></trkpt><trkpt lat="40.959705" lon="14.4035467"><ele>25.999999999999996</ele><time>2026-03-29T06:43:28.298Z</time></trkpt><trkpt lat="40.9597433" lon="14.4036417"><ele>26.0</ele><time>2026-03-29T06:43:29.298Z</time></trkpt><trkpt lat="40.9597783" lon="14.4037433"><ele>26.166666666666664</ele><time>2026-03-29T06:43:30.298Z</time></trkpt><trkpt lat="40.9598067" lon="14.40385"><ele>26.333333333333332</ele><time>2026-03-29T06:43:31.299Z</time></trkpt><trkpt lat="40.9598317" lon="14.403955"><ele>26.5</ele><time>2026-03-29T06:43:32.299Z</time></trkpt><trkpt lat="40.9598483" lon="14.4040583"><ele>26.666666666666664</ele><time>2026-03-29T06:43:33.299Z</time></trkpt><trkpt lat="40.9598633" lon="14.4041633"><ele>26.833333333333332</ele><time>2026-03-29T06:43:34.295Z</time></trkpt><trkpt lat="40.9598767" lon="14.4042667"><ele>27.0</ele><time>2026-03-29T06:43:35.299Z</time></trkpt><trkpt lat="40.95989" lon="14.40437"><ele>27.0</ele><time>2026-03-29T06:43:36.297Z</time></trkpt><trkpt lat="40.959905" lon="14.4044717"><ele>27.0</ele><time>2026-03-29T06:43:37.297Z</time></trkpt><trkpt lat="40.9599183" lon="14.40457"><ele>27.0</ele><time>2026-03-29T06:43:38.297Z</time></trkpt><trkpt lat="40.9599317" lon="14.40467"><ele>27.0</ele><time>2026-03-29T06:43:39.297Z</time></trkpt><trkpt lat="40.9599417" lon="14.40477"><ele>27.0</ele><time>2026-03-29T06:43:40.297Z</time></trkpt><trkpt lat="40.9599483" lon="14.4048667"><ele>27.0</ele><time>2026-03-29T06:43:41.297Z</time></trkpt><trkpt lat="40.9599517" lon="14.4049633"><ele>27.0</ele><time>2026-03-29T06:43:42.295Z</time></trkpt><trkpt lat="40.9599533" lon="14.40506"><ele>27.0</ele><time>2026-03-29T06:43:43.297Z</time></trkpt><trkpt lat="40.959955" lon="14.4051533"><ele>27.0</ele><time>2026-03-29T06:43:44.296Z</time></trkpt><trkpt lat="40.9599533" lon="14.4052467"><ele>27.0</ele><time>2026-03-29T06:43:45.295Z</time></trkpt><trkpt lat="40.9599533" lon="14.4053433"><ele>27.0</ele><time>2026-03-29T06:43:46.295Z</time></trkpt><trkpt lat="40.9599533" lon="14.4054417"><ele>27.0</ele><time>2026-03-29T06:43:47.297Z</time></trkpt><trkpt lat="40.9599533" lon="14.40554"><ele>27.0</ele><time>2026-03-29T06:43:48.295Z</time></trkpt><trkpt lat="40.9599517" lon="14.4056333"><ele>27.0</ele><time>2026-03-29T06:43:49.297Z</time></trkpt><trkpt lat="40.9599467" lon="14.4057267"><ele>27.0</ele><time>2026-03-29T06:43:50.297Z</time></trkpt><trkpt lat="40.959945" lon="14.4058217"><ele>27.0</ele><time>2026-03-29T06:43:51.295Z</time></trkpt><trkpt lat="40.9599433" lon="14.4059217"><ele>27.0</ele><time>2026-03-29T06:43:52.297Z</time></trkpt><trkpt lat="40.95994" lon="14.4060133"><ele>27.0</ele><time>2026-03-29T06:43:53.296Z</time></trkpt><trkpt lat="40.959935" lon="14.4061033"><ele>27.0</ele><time>2026-03-29T06:43:54.297Z</time></trkpt><trkpt lat="40.95993" lon="14.4061933"><ele>27.0</ele><time>2026-03-29T06:43:55.296Z</time></trkpt><trkpt lat="40.9599267" lon="14.40629"><ele>26.857142857142858</ele><time>2026-03-29T06:43:56.297Z</time></trkpt><trkpt lat="40.959925" lon="14.4063833"><ele>26.714285714285715</ele><time>2026-03-29T06:43:57.295Z</time></trkpt><trkpt lat="40.959925" lon="14.40648"><ele>26.57142857142857</ele><time>2026-03-29T06:43:58.297Z</time></trkpt><trkpt lat="40.959925" lon="14.406575"><ele>26.42857142857143</ele><time>2026-03-29T06:43:59.295Z</time></trkpt><trkpt lat="40.959925" lon="14.4066733"><ele>26.28571428571429</ele><time>2026-03-29T06:44:00.297Z</time></trkpt><trkpt lat="40.9599267" lon="14.40677"><ele>26.142857142857142</ele><time>2026-03-29T06:44:01.296Z</time></trkpt><trkpt lat="40.95993" lon="14.4068683"><ele>26.0</ele><time>2026-03-29T06:44:02.297Z</time></trkpt><trkpt lat="40.959935" lon="14.4069683"><ele>26.0</ele><time>2026-03-29T06:44:03.295Z</time></trkpt><trkpt lat="40.9599433" lon="14.4070667"><ele>26.0</ele><time>2026-03-29T06:44:04.297Z</time></trkpt><trkpt lat="40.95995" lon="14.4071633"><ele>26.0</ele><time>2026-03-29T06:44:05.297Z</time></trkpt><trkpt lat="40.9599617" lon="14.4072583"><ele>26.0</ele><time>2026-03-29T06:44:06.295Z</time></trkpt><trkpt lat="40.959975" lon="14.4073517"><ele>26.0</ele><time>2026-03-29T06:44:07.295Z</time></trkpt><trkpt lat="40.95999" lon="14.4074433"><ele>26.0</ele><time>2026-03-29T06:44:08.297Z</time></trkpt><trkpt lat="40.9600067" lon="14.4075333"><ele>26.0</ele><time>2026-03-29T06:44:09.295Z</time></trkpt><trkpt lat="40.960025" lon="14.407625"><ele>26.142857142857142</ele><time>2026-03-29T06:44:10.297Z</time></trkpt><trkpt lat="40.9600467" lon="14.4077133"><ele>26.28571428571429</ele><time>2026-03-29T06:44:11.296Z</time></trkpt><trkpt lat="40.96007" lon="14.4078"><ele>26.42857142857143</ele><time>2026-03-29T06:44:12.296Z</time></trkpt><trkpt lat="40.9600883" lon="14.407885"><ele>26.57142857142857</ele><time>2026-03-29T06:44:13.297Z</time></trkpt><trkpt lat="40.9601067" lon="14.4079733"><ele>26.714285714285715</ele><time>2026-03-29T06:44:14.297Z</time></trkpt><trkpt lat="40.9601267" lon="14.40806"><ele>26.857142857142858</ele><time>2026-03-29T06:44:15.295Z</time></trkpt><trkpt lat="40.9601467" lon="14.4081467"><ele>27.0</ele><time>2026-03-29T06:44:16.297Z</time></trkpt><trkpt lat="40.960165" lon="14.4082333"><ele>27.0</ele><time>2026-03-29T06:44:17.297Z</time></trkpt><trkpt lat="40.9601833" lon="14.4083217"><ele>27.0</ele><time>2026-03-29T06:44:18.297Z</time></trkpt><trkpt lat="40.9602017" lon="14.4084117"><ele>27.0</ele><time>2026-03-29T06:44:19.297Z</time></trkpt><trkpt lat="40.96022" lon="14.408505"><ele>27.0</ele><time>2026-03-29T06:44:20.295Z</time></trkpt><trkpt lat="40.960235" lon="14.4085933"><ele>27.0</ele><time>2026-03-29T06:44:21.296Z</time></trkpt><trkpt lat="40.96025" lon="14.4086867"><ele>27.0</ele><time>2026-03-29T06:44:22.295Z</time></trkpt><trkpt lat="40.9602633" lon="14.40878"><ele>27.0</ele><time>2026-03-29T06:44:23.297Z</time></trkpt><trkpt lat="40.9602733" lon="14.4088733"><ele>27.0</ele><time>2026-03-29T06:44:24.297Z</time></trkpt><trkpt lat="40.9602833" lon="14.4089667"><ele>27.0</ele><time>2026-03-29T06:44:25.297Z</time></trkpt><trkpt lat="40.9602933" lon="14.40906"><ele>27.0</ele><time>2026-03-29T06:44:26.297Z</time></trkpt><trkpt lat="40.9602983" lon="14.409155"><ele>27.0</ele><time>2026-03-29T06:44:27.295Z</time></trkpt><trkpt lat="40.960305" lon="14.4092483"><ele>27.0</ele><time>2026-03-29T06:44:28.294Z</time></trkpt><trkpt lat="40.9603083" lon="14.4093433"><ele>27.0</ele><time>2026-03-29T06:44:29.295Z</time></trkpt><trkpt lat="40.960315" lon="14.4094333"><ele>27.0</ele><time>2026-03-29T06:44:30.297Z</time></trkpt><trkpt lat="40.960315" lon="14.4095267"><ele>27.0</ele><time>2026-03-29T06:44:31.297Z</time></trkpt><trkpt lat="40.9603217" lon="14.40962"><ele>27.0</ele><time>2026-03-29T06:44:32.295Z</time></trkpt><trkpt lat="40.9603317" lon="14.4097133"><ele>27.0</ele><time>2026-03-29T06:44:33.295Z</time></trkpt><trkpt lat="40.9603433" lon="14.4098067"><ele>27.0</ele><time>2026-03-29T06:44:34.295Z</time></trkpt><trkpt lat="40.96035" lon="14.4098967"><ele>27.0</ele><time>2026-03-29T06:44:35.297Z</time></trkpt><trkpt lat="40.9603567" lon="14.4099883"><ele>27.0</ele><time>2026-03-29T06:44:36.297Z</time></trkpt><trkpt lat="40.9603683" lon="14.4100783"><ele>27.0</ele><time>2026-03-29T06:44:37.298Z</time></trkpt><trkpt lat="40.9603767" lon="14.4101683"><ele>27.166666666666668</ele><time>2026-03-29T06:44:38.297Z</time></trkpt><trkpt lat="40.960385" lon="14.4102617"><ele>27.333333333333336</ele><time>2026-03-29T06:44:39.295Z</time></trkpt><trkpt lat="40.9603983" lon="14.4103567"><ele>27.5</ele><time>2026-03-29T06:44:40.295Z</time></trkpt><trkpt lat="40.9604117" lon="14.41045"><ele>27.666666666666668</ele><time>2026-03-29T06:44:41.297Z</time></trkpt><trkpt lat="40.9604217" lon="14.41054"><ele>27.833333333333336</ele><time>2026-03-29T06:44:42.297Z</time></trkpt><trkpt lat="40.96043" lon="14.410705"><ele>28.0</ele><time>2026-03-29T06:44:44.297Z</time></trkpt><trkpt lat="40.960435" lon="14.41079"><ele>28.0</ele><time>2026-03-29T06:44:45.295Z</time></trkpt><trkpt lat="40.9604383" lon="14.410875"><ele>28.0</ele><time>2026-03-29T06:44:46.297Z</time></trkpt><trkpt lat="40.9604433" lon="14.4109633"><ele>28.0</ele><time>2026-03-29T06:44:47.296Z</time></trkpt><trkpt lat="40.9604483" lon="14.4110567"><ele>28.0</ele><time>2026-03-29T06:44:48.296Z</time></trkpt><trkpt lat="40.9604517" lon="14.4111583"><ele>28.0</ele><time>2026-03-29T06:44:49.297Z</time></trkpt><trkpt lat="40.96045" lon="14.41126"><ele>28.0</ele><time>2026-03-29T06:44:50.297Z</time></trkpt><trkpt lat="40.960455" lon="14.4113517"><ele>28.0</ele><time>2026-03-29T06:44:51.297Z</time></trkpt><trkpt lat="40.9604683" lon="14.41144"><ele>28.000000000000004</ele><time>2026-03-29T06:44:52.296Z</time></trkpt><trkpt lat="40.960485" lon="14.411525"><ele>28.0</ele><time>2026-03-29T06:44:53.297Z</time></trkpt><trkpt lat="40.9604983" lon="14.4116067"><ele>28.0</ele><time>2026-03-29T06:44:54.297Z</time></trkpt><trkpt lat="40.96052" lon="14.4117733"><ele>28.0</ele><time>2026-03-29T06:44:56.3Z</time></trkpt><trkpt lat="40.9605233" lon="14.4118567"><ele>28.000000000000004</ele><time>2026-03-29T06:44:57.301Z</time></trkpt><trkpt lat="40.96054" lon="14.412015"><ele>28.0</ele><time>2026-03-29T06:44:59.295Z</time></trkpt><trkpt lat="40.9605567" lon="14.41217"><ele>27.799999999999997</ele><time>2026-03-29T06:45:01.296Z</time></trkpt><trkpt lat="40.9605683" lon="14.41231"><ele>27.599999999999998</ele><time>2026-03-29T06:45:03.296Z</time></trkpt><trkpt lat="40.96058" lon="14.412445"><ele>27.400000000000002</ele><time>2026-03-29T06:45:05.297Z</time></trkpt><trkpt lat="40.9605967" lon="14.412595"><ele>27.200000000000003</ele><time>2026-03-29T06:45:07.297Z</time></trkpt><trkpt lat="40.9606133" lon="14.4127367"><ele>27.0</ele><time>2026-03-29T06:45:09.295Z</time></trkpt><trkpt lat="40.9606333" lon="14.41288"><ele>26.8</ele><time>2026-03-29T06:45:11.297Z</time></trkpt><trkpt lat="40.9606517" lon="14.4130217"><ele>26.6</ele><time>2026-03-29T06:45:13.297Z</time></trkpt><trkpt lat="40.9606767" lon="14.4131583"><ele>26.400000000000002</ele><time>2026-03-29T06:45:15.295Z</time></trkpt><trkpt lat="40.9606983" lon="14.4132917"><ele>26.200000000000003</ele><time>2026-03-29T06:45:17.297Z</time></trkpt><trkpt lat="40.9607317" lon="14.413425"><ele>26.0</ele><time>2026-03-29T06:45:19.297Z</time></trkpt><trkpt lat="40.9607683" lon="14.4135567"><ele>26.0</ele><time>2026-03-29T06:45:21.296Z</time></trkpt><trkpt lat="40.9608117" lon="14.4136917"><ele>26.0</ele><time>2026-03-29T06:45:23.297Z</time></trkpt><trkpt lat="40.960855" lon="14.4138283"><ele>26.0</ele><time>2026-03-29T06:45:25.297Z</time></trkpt><trkpt lat="40.9609" lon="14.4139583"><ele>26.0</ele><time>2026-03-29T06:45:27.296Z</time></trkpt><trkpt lat="40.960945" lon="14.4140883"><ele>26.0</ele><time>2026-03-29T06:45:29.295Z</time></trkpt><trkpt lat="40.9609983" lon="14.4142233"><ele>26.25</ele><time>2026-03-29T06:45:31.297Z</time></trkpt><trkpt lat="40.9610533" lon="14.4143633"><ele>26.5</ele><time>2026-03-29T06:45:33.295Z</time></trkpt><trkpt lat="40.9611083" lon="14.4144983"><ele>26.75</ele><time>2026-03-29T06:45:35.297Z</time></trkpt><trkpt lat="40.9611567" lon="14.4146417"><ele>27.0</ele><time>2026-03-29T06:45:37.297Z</time></trkpt><trkpt lat="40.9612033" lon="14.4147933"><ele>27.0</ele><time>2026-03-29T06:45:39.295Z</time></trkpt><trkpt lat="40.961225" lon="14.4148717"><ele>27.0</ele><time>2026-03-29T06:45:40.295Z</time></trkpt><trkpt lat="40.9612467" lon="14.4149533"><ele>27.0</ele><time>2026-03-29T06:45:41.294Z</time></trkpt><trkpt lat="40.9612717" lon="14.4150317"><ele>27.0</ele><time>2026-03-29T06:45:42.297Z</time></trkpt><trkpt lat="40.961295" lon="14.4151133"><ele>27.0</ele><time>2026-03-29T06:45:43.296Z</time></trkpt><trkpt lat="40.9613183" lon="14.4151967"><ele>27.0</ele><time>2026-03-29T06:45:44.296Z</time></trkpt><trkpt lat="40.96134" lon="14.4152783"><ele>27.0</ele><time>2026-03-29T06:45:45.296Z</time></trkpt><trkpt lat="40.961365" lon="14.4153583"><ele>27.0</ele><time>2026-03-29T06:45:46.297Z</time></trkpt><trkpt lat="40.9613867" lon="14.41544"><ele>27.0</ele><time>2026-03-29T06:45:47.297Z</time></trkpt><trkpt lat="40.9614067" lon="14.4155217"><ele>27.0</ele><time>2026-03-29T06:45:48.295Z</time></trkpt><trkpt lat="40.96143" lon="14.4156017"><ele>27.0</ele><time>2026-03-29T06:45:49.297Z</time></trkpt><trkpt lat="40.9614517" lon="14.4156817"><ele>27.0</ele><time>2026-03-29T06:45:50.296Z</time></trkpt><trkpt lat="40.9614967" lon="14.4158333"><ele>27.0</ele><time>2026-03-29T06:45:52.297Z</time></trkpt><trkpt lat="40.9615383" lon="14.4159883"><ele>26.666666666666668</ele><time>2026-03-29T06:45:54.297Z</time></trkpt><trkpt lat="40.96156" lon="14.41607"><ele>26.333333333333336</ele><time>2026-03-29T06:45:55.297Z</time></trkpt><trkpt lat="40.9615833" lon="14.4161533"><ele>26.0</ele><time>2026-03-29T06:45:56.297Z</time></trkpt><trkpt lat="40.9616067" lon="14.4162333"><ele>25.666666666666668</ele><time>2026-03-29T06:45:57.297Z</time></trkpt><trkpt lat="40.9616283" lon="14.4163133"><ele>25.333333333333336</ele><time>2026-03-29T06:45:58.297Z</time></trkpt><trkpt lat="40.9616733" lon="14.4164717"><ele>25.0</ele><time>2026-03-29T06:46:00.297Z</time></trkpt><trkpt lat="40.9617183" lon="14.416625"><ele>25.000000000000004</ele><time>2026-03-29T06:46:02.295Z</time></trkpt><trkpt lat="40.96176" lon="14.416785"><ele>25.0</ele><time>2026-03-29T06:46:04.297Z</time></trkpt><trkpt lat="40.9617833" lon="14.41687"><ele>25.0</ele><time>2026-03-29T06:46:05.297Z</time></trkpt><trkpt lat="40.961805" lon="14.41695"><ele>25.0</ele><time>2026-03-29T06:46:06.295Z</time></trkpt><trkpt lat="40.9618267" lon="14.4170333"><ele>25.000000000000004</ele><time>2026-03-29T06:46:07.297Z</time></trkpt><trkpt lat="40.96186" lon="14.4171867"><ele>25.0</ele><time>2026-03-29T06:46:09.295Z</time></trkpt><trkpt lat="40.9618917" lon="14.41733"><ele>25.000000000000004</ele><time>2026-03-29T06:46:11.297Z</time></trkpt><trkpt lat="40.9619167" lon="14.41749"><ele>25.0</ele><time>2026-03-29T06:46:13.296Z</time></trkpt><trkpt lat="40.9619267" lon="14.4175733"><ele>25.0</ele><time>2026-03-29T06:46:14.297Z</time></trkpt><trkpt lat="40.9619417" lon="14.4176583"><ele>25.0</ele><time>2026-03-29T06:46:15.296Z</time></trkpt><trkpt lat="40.9619583" lon="14.41774"><ele>25.0</ele><time>2026-03-29T06:46:16.297Z</time></trkpt><trkpt lat="40.961975" lon="14.4178233"><ele>25.000000000000004</ele><time>2026-03-29T06:46:17.297Z</time></trkpt><trkpt lat="40.9619917" lon="14.4179083"><ele>25.0</ele><time>2026-03-29T06:46:18.297Z</time></trkpt><trkpt lat="40.9620067" lon="14.4179967"><ele>25.000000000000004</ele><time>2026-03-29T06:46:19.295Z</time></trkpt><trkpt lat="40.9620267" lon="14.4180833"><ele>25.0</ele><time>2026-03-29T06:46:20.297Z</time></trkpt><trkpt lat="40.9620467" lon="14.4181717"><ele>25.0</ele><time>2026-03-29T06:46:21.295Z</time></trkpt><trkpt lat="40.9620683" lon="14.4182617"><ele>25.0</ele><time>2026-03-29T06:46:22.295Z</time></trkpt><trkpt lat="40.96209" lon="14.4183533"><ele>25.0</ele><time>2026-03-29T06:46:23.296Z</time></trkpt><trkpt lat="40.9621083" lon="14.418445"><ele>25.000000000000004</ele><time>2026-03-29T06:46:24.299Z</time></trkpt><trkpt lat="40.9621283" lon="14.4185383"><ele>25.0</ele><time>2026-03-29T06:46:25.297Z</time></trkpt><trkpt lat="40.9621417" lon="14.4186283"><ele>25.000000000000004</ele><time>2026-03-29T06:46:26.297Z</time></trkpt><trkpt lat="40.9621583" lon="14.4187183"><ele>25.0</ele><time>2026-03-29T06:46:27.295Z</time></trkpt><trkpt lat="40.962175" lon="14.4188083"><ele>25.0</ele><time>2026-03-29T06:46:28.297Z</time></trkpt><trkpt lat="40.9621867" lon="14.4188967"><ele>25.0</ele><time>2026-03-29T06:46:29.297Z</time></trkpt><trkpt lat="40.9621983" lon="14.4189867"><ele>25.0</ele><time>2026-03-29T06:46:30.295Z</time></trkpt><trkpt lat="40.96221" lon="14.419075"><ele>25.000000000000004</ele><time>2026-03-29T06:46:31.297Z</time></trkpt><trkpt lat="40.9622217" lon="14.419165"><ele>25.0</ele><time>2026-03-29T06:46:32.295Z</time></trkpt><trkpt lat="40.9622367" lon="14.4192533"><ele>24.857142857142858</ele><time>2026-03-29T06:46:33.294Z</time></trkpt><trkpt lat="40.9622517" lon="14.419345"><ele>24.714285714285715</ele><time>2026-03-29T06:46:34.295Z</time></trkpt><trkpt lat="40.9622667" lon="14.419435"><ele>24.57142857142857</ele><time>2026-03-29T06:46:35.299Z</time></trkpt><trkpt lat="40.9622833" lon="14.4195283"><ele>24.42857142857143</ele><time>2026-03-29T06:46:36.297Z</time></trkpt><trkpt lat="40.9622983" lon="14.4196217"><ele>24.285714285714285</ele><time>2026-03-29T06:46:37.298Z</time></trkpt><trkpt lat="40.9623133" lon="14.4197117"><ele>24.142857142857142</ele><time>2026-03-29T06:46:38.296Z</time></trkpt><trkpt lat="40.962325" lon="14.4198"><ele>24.0</ele><time>2026-03-29T06:46:39.296Z</time></trkpt><trkpt lat="40.96234" lon="14.4198867"><ele>23.999999999999996</ele><time>2026-03-29T06:46:40.298Z</time></trkpt><trkpt lat="40.9623533" lon="14.4199733"><ele>24.0</ele><time>2026-03-29T06:46:41.297Z</time></trkpt><trkpt lat="40.9623633" lon="14.4200617"><ele>24.0</ele><time>2026-03-29T06:46:42.295Z</time></trkpt><trkpt lat="40.9623733" lon="14.42015"><ele>24.0</ele><time>2026-03-29T06:46:43.297Z</time></trkpt><trkpt lat="40.9623867" lon="14.42024"><ele>24.0</ele><time>2026-03-29T06:46:44.299Z</time></trkpt><trkpt lat="40.9624033" lon="14.4203317"><ele>23.999999999999996</ele><time>2026-03-29T06:46:45.296Z</time></trkpt><trkpt lat="40.9624217" lon="14.420425"><ele>24.0</ele><time>2026-03-29T06:46:46.295Z</time></trkpt><trkpt lat="40.962435" lon="14.4205117"><ele>24.142857142857142</ele><time>2026-03-29T06:46:47.295Z</time></trkpt><trkpt lat="40.9624483" lon="14.4206033"><ele>24.285714285714285</ele><time>2026-03-29T06:46:48.297Z</time></trkpt><trkpt lat="40.962465" lon="14.4206967"><ele>24.42857142857143</ele><time>2026-03-29T06:46:49.297Z</time></trkpt><trkpt lat="40.9624783" lon="14.4207867"><ele>24.57142857142857</ele><time>2026-03-29T06:46:50.297Z</time></trkpt><trkpt lat="40.9624967" lon="14.420875"><ele>24.714285714285715</ele><time>2026-03-29T06:46:51.295Z</time></trkpt><trkpt lat="40.962515" lon="14.4209683"><ele>24.857142857142858</ele><time>2026-03-29T06:46:52.297Z</time></trkpt><trkpt lat="40.9625317" lon="14.421055"><ele>25.0</ele><time>2026-03-29T06:46:53.297Z</time></trkpt><trkpt lat="40.9625483" lon="14.4211467"><ele>25.142857142857146</ele><time>2026-03-29T06:46:54.299Z</time></trkpt><trkpt lat="40.962565" lon="14.4212383"><ele>25.285714285714285</ele><time>2026-03-29T06:46:55.298Z</time></trkpt><trkpt lat="40.9625817" lon="14.4213267"><ele>25.42857142857143</ele><time>2026-03-29T06:46:56.298Z</time></trkpt><trkpt lat="40.9625983" lon="14.421415"><ele>25.571428571428573</ele><time>2026-03-29T06:46:57.295Z</time></trkpt><trkpt lat="40.9626183" lon="14.4215017"><ele>25.714285714285715</ele><time>2026-03-29T06:46:58.295Z</time></trkpt><trkpt lat="40.9626383" lon="14.4215917"><ele>25.857142857142858</ele><time>2026-03-29T06:46:59.298Z</time></trkpt><trkpt lat="40.96266" lon="14.4216883"><ele>26.0</ele><time>2026-03-29T06:47:00.298Z</time></trkpt><trkpt lat="40.9626817" lon="14.421785"><ele>26.0</ele><time>2026-03-29T06:47:01.299Z</time></trkpt><trkpt lat="40.9627033" lon="14.4218767"><ele>26.0</ele><time>2026-03-29T06:47:02.298Z</time></trkpt><trkpt lat="40.9627233" lon="14.4219617"><ele>26.0</ele><time>2026-03-29T06:47:03.298Z</time></trkpt><trkpt lat="40.9627433" lon="14.4220483"><ele>26.0</ele><time>2026-03-29T06:47:04.298Z</time></trkpt><trkpt lat="40.962765" lon="14.4221367"><ele>26.0</ele><time>2026-03-29T06:47:05.298Z</time></trkpt><trkpt lat="40.9627867" lon="14.422225"><ele>26.0</ele><time>2026-03-29T06:47:06.298Z</time></trkpt><trkpt lat="40.9628067" lon="14.422315"><ele>26.0</ele><time>2026-03-29T06:47:07.299Z</time></trkpt><trkpt lat="40.9628283" lon="14.4224017"><ele>26.0</ele><time>2026-03-29T06:47:08.296Z</time></trkpt><trkpt lat="40.9628517" lon="14.4224883"><ele>26.0</ele><time>2026-03-29T06:47:09.295Z</time></trkpt><trkpt lat="40.962875" lon="14.4225783"><ele>26.0</ele><time>2026-03-29T06:47:10.295Z</time></trkpt><trkpt lat="40.9628967" lon="14.422665"><ele>26.0</ele><time>2026-03-29T06:47:11.295Z</time></trkpt><trkpt lat="40.9629183" lon="14.4227483"><ele>26.0</ele><time>2026-03-29T06:47:12.295Z</time></trkpt><trkpt lat="40.9629417" lon="14.422835"><ele>26.0</ele><time>2026-03-29T06:47:13.297Z</time></trkpt><trkpt lat="40.962965" lon="14.4229217"><ele>26.0</ele><time>2026-03-29T06:47:14.297Z</time></trkpt><trkpt lat="40.962985" lon="14.4230083"><ele>26.0</ele><time>2026-03-29T06:47:15.296Z</time></trkpt><trkpt lat="40.9630067" lon="14.4231"><ele>26.0</ele><time>2026-03-29T06:47:16.297Z</time></trkpt><trkpt lat="40.9630283" lon="14.4231917"><ele>26.0</ele><time>2026-03-29T06:47:17.297Z</time></trkpt><trkpt lat="40.9630517" lon="14.4232833"><ele>26.0</ele><time>2026-03-29T06:47:18.296Z</time></trkpt><trkpt lat="40.963075" lon="14.4233733"><ele>26.0</ele><time>2026-03-29T06:47:19.297Z</time></trkpt><trkpt lat="40.9630967" lon="14.4234633"><ele>26.0</ele><time>2026-03-29T06:47:20.296Z</time></trkpt><trkpt lat="40.9631217" lon="14.4235583"><ele>26.0</ele><time>2026-03-29T06:47:21.296Z</time></trkpt><trkpt lat="40.9631417" lon="14.4236483"><ele>26.0</ele><time>2026-03-29T06:47:22.296Z</time></trkpt><trkpt lat="40.9631617" lon="14.4237367"><ele>26.0</ele><time>2026-03-29T06:47:23.297Z</time></trkpt><trkpt lat="40.963185" lon="14.423825"><ele>26.0</ele><time>2026-03-29T06:47:24.297Z</time></trkpt><trkpt lat="40.9632067" lon="14.4239133"><ele>26.0</ele><time>2026-03-29T06:47:25.296Z</time></trkpt><trkpt lat="40.96323" lon="14.4240083"><ele>26.0</ele><time>2026-03-29T06:47:26.296Z</time></trkpt><trkpt lat="40.9632533" lon="14.4241017"><ele>26.0</ele><time>2026-03-29T06:47:27.295Z</time></trkpt><trkpt lat="40.9632767" lon="14.42419"><ele>26.0</ele><time>2026-03-29T06:47:28.298Z</time></trkpt><trkpt lat="40.9633" lon="14.42428"><ele>25.857142857142858</ele><time>2026-03-29T06:47:29.295Z</time></trkpt><trkpt lat="40.9633233" lon="14.42437"><ele>25.714285714285715</ele><time>2026-03-29T06:47:30.298Z</time></trkpt><trkpt lat="40.963345" lon="14.42446"><ele>25.571428571428573</ele><time>2026-03-29T06:47:31.296Z</time></trkpt><trkpt lat="40.9633667" lon="14.4245517"><ele>25.42857142857143</ele><time>2026-03-29T06:47:32.298Z</time></trkpt><trkpt lat="40.96339" lon="14.4246417"><ele>25.285714285714285</ele><time>2026-03-29T06:47:33.298Z</time></trkpt><trkpt lat="40.96341" lon="14.4247283"><ele>25.142857142857146</ele><time>2026-03-29T06:47:34.298Z</time></trkpt><trkpt lat="40.96343" lon="14.4248133"><ele>25.0</ele><time>2026-03-29T06:47:35.298Z</time></trkpt><trkpt lat="40.9634517" lon="14.4249033"><ele>25.000000000000004</ele><time>2026-03-29T06:47:36.298Z</time></trkpt><trkpt lat="40.96347" lon="14.424995"><ele>25.0</ele><time>2026-03-29T06:47:37.298Z</time></trkpt><trkpt lat="40.96349" lon="14.4250817"><ele>25.0</ele><time>2026-03-29T06:47:38.298Z</time></trkpt><trkpt lat="40.96351" lon="14.4251683"><ele>25.0</ele><time>2026-03-29T06:47:39.295Z</time></trkpt><trkpt lat="40.9635317" lon="14.42526"><ele>25.0</ele><time>2026-03-29T06:47:40.297Z</time></trkpt><trkpt lat="40.9635533" lon="14.4253517"><ele>25.000000000000004</ele><time>2026-03-29T06:47:41.296Z</time></trkpt><trkpt lat="40.963575" lon="14.4254417"><ele>25.0</ele><time>2026-03-29T06:47:42.297Z</time></trkpt><trkpt lat="40.9635983" lon="14.4255367"><ele>25.28571428571429</ele><time>2026-03-29T06:47:43.299Z</time></trkpt><trkpt lat="40.9636217" lon="14.4256267"><ele>25.571428571428573</ele><time>2026-03-29T06:47:44.296Z</time></trkpt><trkpt lat="40.9636433" lon="14.425715"><ele>25.857142857142858</ele><time>2026-03-29T06:47:45.298Z</time></trkpt><trkpt lat="40.963665" lon="14.425805"><ele>26.142857142857146</ele><time>2026-03-29T06:47:46.295Z</time></trkpt><trkpt lat="40.9636867" lon="14.425895"><ele>26.428571428571427</ele><time>2026-03-29T06:47:47.297Z</time></trkpt><trkpt lat="40.9637067" lon="14.4259867"><ele>26.714285714285715</ele><time>2026-03-29T06:47:48.296Z</time></trkpt><trkpt lat="40.96373" lon="14.426075"><ele>27.0</ele><time>2026-03-29T06:47:49.297Z</time></trkpt><trkpt lat="40.9637533" lon="14.4261633"><ele>27.0</ele><time>2026-03-29T06:47:50.297Z</time></trkpt><trkpt lat="40.9637767" lon="14.4262517"><ele>27.0</ele><time>2026-03-29T06:47:51.297Z</time></trkpt><trkpt lat="40.9637983" lon="14.42634"><ele>27.0</ele><time>2026-03-29T06:47:52.297Z</time></trkpt><trkpt lat="40.9638217" lon="14.4264283"><ele>27.0</ele><time>2026-03-29T06:47:53.297Z</time></trkpt><trkpt lat="40.963845" lon="14.42652"><ele>27.0</ele><time>2026-03-29T06:47:54.296Z</time></trkpt><trkpt lat="40.9638667" lon="14.4266117"><ele>27.0</ele><time>2026-03-29T06:47:55.297Z</time></trkpt><trkpt lat="40.96389" lon="14.426705"><ele>27.0</ele><time>2026-03-29T06:47:56.297Z</time></trkpt><trkpt lat="40.9639117" lon="14.4267983"><ele>27.0</ele><time>2026-03-29T06:47:57.296Z</time></trkpt><trkpt lat="40.963935" lon="14.4268917"><ele>27.0</ele><time>2026-03-29T06:47:58.295Z</time></trkpt><trkpt lat="40.9639583" lon="14.42698"><ele>27.0</ele><time>2026-03-29T06:47:59.298Z</time></trkpt><trkpt lat="40.9639833" lon="14.4270717"><ele>27.0</ele><time>2026-03-29T06:48:00.296Z</time></trkpt><trkpt lat="40.9640083" lon="14.4271633"><ele>27.0</ele><time>2026-03-29T06:48:01.298Z</time></trkpt><trkpt lat="40.9640333" lon="14.4272517"><ele>27.0</ele><time>2026-03-29T06:48:02.298Z</time></trkpt><trkpt lat="40.9640567" lon="14.4273433"><ele>27.0</ele><time>2026-03-29T06:48:03.298Z</time></trkpt><trkpt lat="40.9640817" lon="14.4274383"><ele>27.0</ele><time>2026-03-29T06:48:04.296Z</time></trkpt><trkpt lat="40.964105" lon="14.4275283"><ele>27.0</ele><time>2026-03-29T06:48:05.299Z</time></trkpt><trkpt lat="40.96413" lon="14.4276167"><ele>27.0</ele><time>2026-03-29T06:48:06.298Z</time></trkpt><trkpt lat="40.9641533" lon="14.4277017"><ele>27.0</ele><time>2026-03-29T06:48:07.298Z</time></trkpt><trkpt lat="40.9641767" lon="14.4277917"><ele>27.0</ele><time>2026-03-29T06:48:08.298Z</time></trkpt><trkpt lat="40.9642" lon="14.4278833"><ele>27.0</ele><time>2026-03-29T06:48:09.298Z</time></trkpt><trkpt lat="40.964225" lon="14.427975"><ele>27.0</ele><time>2026-03-29T06:48:10.296Z</time></trkpt><trkpt lat="40.9642517" lon="14.4280683"><ele>26.857142857142858</ele><time>2026-03-29T06:48:11.298Z</time></trkpt><trkpt lat="40.9642767" lon="14.4281617"><ele>26.714285714285715</ele><time>2026-03-29T06:48:12.295Z</time></trkpt><trkpt lat="40.9643017" lon="14.4282517"><ele>26.57142857142857</ele><time>2026-03-29T06:48:13.297Z</time></trkpt><trkpt lat="40.96433" lon="14.4283433"><ele>26.42857142857143</ele><time>2026-03-29T06:48:14.297Z</time></trkpt><trkpt lat="40.964355" lon="14.4284367"><ele>26.28571428571429</ele><time>2026-03-29T06:48:15.295Z</time></trkpt><trkpt lat="40.9643767" lon="14.4285283"><ele>26.142857142857142</ele><time>2026-03-29T06:48:16.295Z</time></trkpt><trkpt lat="40.9643983" lon="14.4286167"><ele>26.0</ele><time>2026-03-29T06:48:17.297Z</time></trkpt><trkpt lat="40.9644233" lon="14.42871"><ele>26.0</ele><time>2026-03-29T06:48:18.295Z</time></trkpt><trkpt lat="40.964445" lon="14.4287983"><ele>26.0</ele><time>2026-03-29T06:48:19.295Z</time></trkpt><trkpt lat="40.9644683" lon="14.428885"><ele>26.0</ele><time>2026-03-29T06:48:20.296Z</time></trkpt><trkpt lat="40.9644917" lon="14.4289717"><ele>26.0</ele><time>2026-03-29T06:48:21.295Z</time></trkpt><trkpt lat="40.9645183" lon="14.429065"><ele>26.0</ele><time>2026-03-29T06:48:22.295Z</time></trkpt><trkpt lat="40.9645433" lon="14.4291567"><ele>26.0</ele><time>2026-03-29T06:48:23.297Z</time></trkpt><trkpt lat="40.96457" lon="14.42925"><ele>26.0</ele><time>2026-03-29T06:48:24.295Z</time></trkpt><trkpt lat="40.9645967" lon="14.429345"><ele>26.0</ele><time>2026-03-29T06:48:25.296Z</time></trkpt><trkpt lat="40.96462" lon="14.4294367"><ele>26.0</ele><time>2026-03-29T06:48:26.296Z</time></trkpt><trkpt lat="40.9646433" lon="14.4295267"><ele>26.0</ele><time>2026-03-29T06:48:27.296Z</time></trkpt><trkpt lat="40.96467" lon="14.4296233"><ele>26.0</ele><time>2026-03-29T06:48:28.295Z</time></trkpt><trkpt lat="40.9646933" lon="14.4297133"><ele>26.0</ele><time>2026-03-29T06:48:29.295Z</time></trkpt><trkpt lat="40.96472" lon="14.4298033"><ele>26.0</ele><time>2026-03-29T06:48:30.299Z</time></trkpt><trkpt lat="40.9647483" lon="14.4298983"><ele>26.0</ele><time>2026-03-29T06:48:31.299Z</time></trkpt><trkpt lat="40.9647717" lon="14.4299883"><ele>26.0</ele><time>2026-03-29T06:48:32.295Z</time></trkpt><trkpt lat="40.964795" lon="14.4300767"><ele>26.0</ele><time>2026-03-29T06:48:33.298Z</time></trkpt><trkpt lat="40.9648217" lon="14.43017"><ele>26.0</ele><time>2026-03-29T06:48:34.298Z</time></trkpt><trkpt lat="40.9648483" lon="14.430265"><ele>26.0</ele><time>2026-03-29T06:48:35.296Z</time></trkpt><trkpt lat="40.9648717" lon="14.4303617"><ele>26.0</ele><time>2026-03-29T06:48:36.295Z</time></trkpt><trkpt lat="40.9648967" lon="14.4304517"><ele>26.0</ele><time>2026-03-29T06:48:37.297Z</time></trkpt><trkpt lat="40.96492" lon="14.43054"><ele>26.0</ele><time>2026-03-29T06:48:38.296Z</time></trkpt><trkpt lat="40.9649467" lon="14.4306317"><ele>26.142857142857142</ele><time>2026-03-29T06:48:39.295Z</time></trkpt><trkpt lat="40.9649733" lon="14.430725"><ele>26.28571428571429</ele><time>2026-03-29T06:48:40.297Z</time></trkpt><trkpt lat="40.9649983" lon="14.4308167"><ele>26.42857142857143</ele><time>2026-03-29T06:48:41.296Z</time></trkpt><trkpt lat="40.965025" lon="14.4309117"><ele>26.57142857142857</ele><time>2026-03-29T06:48:42.296Z</time></trkpt><trkpt lat="40.9650467" lon="14.4310033"><ele>26.714285714285715</ele><time>2026-03-29T06:48:43.295Z</time></trkpt><trkpt lat="40.96507" lon="14.431095"><ele>26.857142857142858</ele><time>2026-03-29T06:48:44.295Z</time></trkpt><trkpt lat="40.9650933" lon="14.431185"><ele>27.0</ele><time>2026-03-29T06:48:45.298Z</time></trkpt><trkpt lat="40.96512" lon="14.4312767"><ele>27.166666666666668</ele><time>2026-03-29T06:48:46.296Z</time></trkpt><trkpt lat="40.965145" lon="14.4313683"><ele>27.333333333333336</ele><time>2026-03-29T06:48:47.296Z</time></trkpt><trkpt lat="40.9651683" lon="14.4314617"><ele>27.5</ele><time>2026-03-29T06:48:48.295Z</time></trkpt><trkpt lat="40.9651917" lon="14.431555"><ele>27.666666666666668</ele><time>2026-03-29T06:48:49.296Z</time></trkpt><trkpt lat="40.9652133" lon="14.4316483"><ele>27.833333333333336</ele><time>2026-03-29T06:48:50.297Z</time></trkpt><trkpt lat="40.965235" lon="14.4317433"><ele>28.0</ele><time>2026-03-29T06:48:51.295Z</time></trkpt><trkpt lat="40.9652583" lon="14.431845"><ele>28.0</ele><time>2026-03-29T06:48:52.297Z</time></trkpt><trkpt lat="40.9652767" lon="14.431945"><ele>28.0</ele><time>2026-03-29T06:48:53.295Z</time></trkpt><trkpt lat="40.9652917" lon="14.4320417"><ele>28.0</ele><time>2026-03-29T06:48:54.297Z</time></trkpt><trkpt lat="40.9653067" lon="14.4321383"><ele>28.0</ele><time>2026-03-29T06:48:55.297Z</time></trkpt><trkpt lat="40.9653183" lon="14.4322283"><ele>28.0</ele><time>2026-03-29T06:48:56.296Z</time></trkpt><trkpt lat="40.96533" lon="14.4323233"><ele>28.0</ele><time>2026-03-29T06:48:57.296Z</time></trkpt><trkpt lat="40.96534" lon="14.4324233"><ele>28.0</ele><time>2026-03-29T06:48:58.297Z</time></trkpt><trkpt lat="40.9653467" lon="14.4325167"><ele>28.000000000000004</ele><time>2026-03-29T06:48:59.296Z</time></trkpt><trkpt lat="40.965355" lon="14.4326067"><ele>28.0</ele><time>2026-03-29T06:49:00.296Z</time></trkpt><trkpt lat="40.965365" lon="14.4326967"><ele>28.0</ele><time>2026-03-29T06:49:01.297Z</time></trkpt><trkpt lat="40.965375" lon="14.43278"><ele>28.0</ele><time>2026-03-29T06:49:02.297Z</time></trkpt><trkpt lat="40.9653883" lon="14.4328983"><ele>28.000000000000004</ele><time>2026-03-29T06:49:04.295Z</time></trkpt><trkpt lat="40.9653817" lon="14.4330117"><ele>28.0</ele><time>2026-03-29T06:49:06.297Z</time></trkpt><trkpt lat="40.9653467" lon="14.43312"><ele>28.0</ele><time>2026-03-29T06:49:08.295Z</time></trkpt><trkpt lat="40.9652717" lon="14.43323"><ele>28.0</ele><time>2026-03-29T06:49:10.297Z</time></trkpt><trkpt lat="40.9651883" lon="14.4333383"><ele>28.0</ele><time>2026-03-29T06:49:12.297Z</time></trkpt><trkpt lat="40.9651" lon="14.4334467"><ele>28.0</ele><time>2026-03-29T06:49:14.297Z</time></trkpt><trkpt lat="40.96501" lon="14.433555"><ele>28.000000000000004</ele><time>2026-03-29T06:49:16.297Z</time></trkpt><trkpt lat="40.9649633" lon="14.4336133"><ele>28.0</ele><time>2026-03-29T06:49:17.297Z</time></trkpt><trkpt lat="40.9648733" lon="14.4337267"><ele>28.0</ele><time>2026-03-29T06:49:19.297Z</time></trkpt><trkpt lat="40.964825" lon="14.4337883"><ele>28.0</ele><time>2026-03-29T06:49:20.295Z</time></trkpt><trkpt lat="40.9647783" lon="14.4338517"><ele>28.000000000000004</ele><time>2026-03-29T06:49:21.295Z</time></trkpt><trkpt lat="40.9647267" lon="14.4339183"><ele>28.0</ele><time>2026-03-29T06:49:22.297Z</time></trkpt><trkpt lat="40.964675" lon="14.4339817"><ele>28.000000000000004</ele><time>2026-03-29T06:49:23.299Z</time></trkpt><trkpt lat="40.96462" lon="14.4340483"><ele>28.0</ele><time>2026-03-29T06:49:24.296Z</time></trkpt><trkpt lat="40.9645683" lon="14.4341183"><ele>28.0</ele><time>2026-03-29T06:49:25.296Z</time></trkpt><trkpt lat="40.9645167" lon="14.434185"><ele>28.0</ele><time>2026-03-29T06:49:26.299Z</time></trkpt><trkpt lat="40.96446" lon="14.4342517"><ele>28.000000000000004</ele><time>2026-03-29T06:49:27.298Z</time></trkpt><trkpt lat="40.9644067" lon="14.43432"><ele>28.0</ele><time>2026-03-29T06:49:28.298Z</time></trkpt><trkpt lat="40.9643483" lon="14.4343917"><ele>28.000000000000004</ele><time>2026-03-29T06:49:29.295Z</time></trkpt><trkpt lat="40.9642867" lon="14.43447"><ele>28.0</ele><time>2026-03-29T06:49:30.297Z</time></trkpt><trkpt lat="40.9642233" lon="14.43455"><ele>28.0</ele><time>2026-03-29T06:49:31.297Z</time></trkpt><trkpt lat="40.9641617" lon="14.4346317"><ele>28.0</ele><time>2026-03-29T06:49:32.298Z</time></trkpt><trkpt lat="40.9640967" lon="14.4347167"><ele>28.000000000000004</ele><time>2026-03-29T06:49:33.295Z</time></trkpt><trkpt lat="40.9640283" lon="14.4348017"><ele>28.0</ele><time>2026-03-29T06:49:34.297Z</time></trkpt><trkpt lat="40.9639633" lon="14.4348833"><ele>27.500000000000004</ele><time>2026-03-29T06:49:35.297Z</time></trkpt><trkpt lat="40.9638983" lon="14.4349667"><ele>27.0</ele><time>2026-03-29T06:49:36.297Z</time></trkpt><trkpt lat="40.9638367" lon="14.435045"><ele>26.5</ele><time>2026-03-29T06:49:37.297Z</time></trkpt><trkpt lat="40.963775" lon="14.4351217"><ele>26.0</ele><time>2026-03-29T06:49:38.297Z</time></trkpt><trkpt lat="40.9637117" lon="14.4352"><ele>25.500000000000004</ele><time>2026-03-29T06:49:39.295Z</time></trkpt><trkpt lat="40.9636533" lon="14.4352717"><ele>25.0</ele><time>2026-03-29T06:49:40.297Z</time></trkpt><trkpt lat="40.9635983" lon="14.4353417"><ele>25.000000000000004</ele><time>2026-03-29T06:49:41.298Z</time></trkpt><trkpt lat="40.963545" lon="14.4354133"><ele>25.0</ele><time>2026-03-29T06:49:42.296Z</time></trkpt><trkpt lat="40.963485" lon="14.43549"><ele>25.0</ele><time>2026-03-29T06:49:43.3Z</time></trkpt><trkpt lat="40.9634233" lon="14.435565"><ele>25.0</ele><time>2026-03-29T06:49:44.296Z</time></trkpt><trkpt lat="40.963365" lon="14.4356383"><ele>25.000000000000004</ele><time>2026-03-29T06:49:45.298Z</time></trkpt><trkpt lat="40.96331" lon="14.4357117"><ele>25.0</ele><time>2026-03-29T06:49:46.295Z</time></trkpt><trkpt lat="40.96325" lon="14.435785"><ele>25.166666666666668</ele><time>2026-03-29T06:49:47.296Z</time></trkpt><trkpt lat="40.9631867" lon="14.4358583"><ele>25.333333333333336</ele><time>2026-03-29T06:49:48.297Z</time></trkpt><trkpt lat="40.9631283" lon="14.4359317"><ele>25.5</ele><time>2026-03-29T06:49:49.297Z</time></trkpt><trkpt lat="40.9630633" lon="14.4360033"><ele>25.666666666666664</ele><time>2026-03-29T06:49:50.296Z</time></trkpt><trkpt lat="40.9630017" lon="14.4360783"><ele>25.833333333333332</ele><time>2026-03-29T06:49:51.295Z</time></trkpt><trkpt lat="40.9629417" lon="14.4361517"><ele>26.0</ele><time>2026-03-29T06:49:52.297Z</time></trkpt><trkpt lat="40.9628867" lon="14.4362283"><ele>25.999999999999996</ele><time>2026-03-29T06:49:53.297Z</time></trkpt><trkpt lat="40.96284" lon="14.4363017"><ele>26.0</ele><time>2026-03-29T06:49:54.297Z</time></trkpt><trkpt lat="40.962795" lon="14.4363717"><ele>26.0</ele><time>2026-03-29T06:49:55.297Z</time></trkpt><trkpt lat="40.96274" lon="14.4364383"><ele>26.0</ele><time>2026-03-29T06:49:56.299Z</time></trkpt><trkpt lat="40.96268" lon="14.4365083"><ele>25.999999999999996</ele><time>2026-03-29T06:49:57.295Z</time></trkpt><trkpt lat="40.9626167" lon="14.43658"><ele>26.0</ele><time>2026-03-29T06:49:58.296Z</time></trkpt><trkpt lat="40.9625617" lon="14.436655"><ele>25.833333333333332</ele><time>2026-03-29T06:49:59.298Z</time></trkpt><trkpt lat="40.9625033" lon="14.4367283"><ele>25.666666666666664</ele><time>2026-03-29T06:50:00.296Z</time></trkpt><trkpt lat="40.9624483" lon="14.4368033"><ele>25.5</ele><time>2026-03-29T06:50:01.297Z</time></trkpt><trkpt lat="40.9623917" lon="14.43688"><ele>25.333333333333336</ele><time>2026-03-29T06:50:02.295Z</time></trkpt><trkpt lat="40.962335" lon="14.436955"><ele>25.166666666666668</ele><time>2026-03-29T06:50:03.295Z</time></trkpt><trkpt lat="40.9622733" lon="14.4370283"><ele>25.0</ele><time>2026-03-29T06:50:04.295Z</time></trkpt><trkpt lat="40.9622117" lon="14.4371"><ele>25.166666666666668</ele><time>2026-03-29T06:50:05.297Z</time></trkpt><trkpt lat="40.96215" lon="14.4371683"><ele>25.333333333333336</ele><time>2026-03-29T06:50:06.297Z</time></trkpt><trkpt lat="40.9620917" lon="14.4372333"><ele>25.5</ele><time>2026-03-29T06:50:07.298Z</time></trkpt><trkpt lat="40.96203" lon="14.437295"><ele>25.666666666666664</ele><time>2026-03-29T06:50:08.298Z</time></trkpt><trkpt lat="40.9619633" lon="14.4373567"><ele>25.833333333333332</ele><time>2026-03-29T06:50:09.296Z</time></trkpt><trkpt lat="40.9618917" lon="14.4374117"><ele>26.0</ele><time>2026-03-29T06:50:10.298Z</time></trkpt><trkpt lat="40.96182" lon="14.437455"><ele>25.999999999999996</ele><time>2026-03-29T06:50:11.297Z</time></trkpt><trkpt lat="40.9617467" lon="14.4374917"><ele>26.0</ele><time>2026-03-29T06:50:12.296Z</time></trkpt><trkpt lat="40.96167" lon="14.4375217"><ele>26.0</ele><time>2026-03-29T06:50:13.296Z</time></trkpt><trkpt lat="40.96159" lon="14.4375517"><ele>26.0</ele><time>2026-03-29T06:50:14.296Z</time></trkpt><trkpt lat="40.96151" lon="14.4375817"><ele>25.999999999999996</ele><time>2026-03-29T06:50:15.296Z</time></trkpt><trkpt lat="40.96143" lon="14.4376133"><ele>26.0</ele><time>2026-03-29T06:50:16.297Z</time></trkpt><trkpt lat="40.9613517" lon="14.4376433"><ele>25.999999999999996</ele><time>2026-03-29T06:50:17.298Z</time></trkpt><trkpt lat="40.9612767" lon="14.4376717"><ele>26.0</ele><time>2026-03-29T06:50:18.298Z</time></trkpt><trkpt lat="40.9612017" lon="14.4377033"><ele>26.0</ele><time>2026-03-29T06:50:19.298Z</time></trkpt><trkpt lat="40.9611233" lon="14.437735"><ele>26.0</ele><time>2026-03-29T06:50:20.297Z</time></trkpt><trkpt lat="40.9610467" lon="14.4377633"><ele>25.999999999999996</ele><time>2026-03-29T06:50:21.296Z</time></trkpt><trkpt lat="40.96097" lon="14.437795"><ele>26.0</ele><time>2026-03-29T06:50:22.297Z</time></trkpt><trkpt lat="40.9608967" lon="14.437825"><ele>25.999999999999996</ele><time>2026-03-29T06:50:23.299Z</time></trkpt><trkpt lat="40.9608233" lon="14.4378567"><ele>26.0</ele><time>2026-03-29T06:50:24.297Z</time></trkpt><trkpt lat="40.9607533" lon="14.437885"><ele>26.0</ele><time>2026-03-29T06:50:25.297Z</time></trkpt><trkpt lat="40.9606817" lon="14.43791"><ele>26.0</ele><time>2026-03-29T06:50:26.298Z</time></trkpt><trkpt lat="40.9606083" lon="14.4379367"><ele>25.999999999999996</ele><time>2026-03-29T06:50:27.295Z</time></trkpt><trkpt lat="40.9605333" lon="14.437965"><ele>26.0</ele><time>2026-03-29T06:50:28.298Z</time></trkpt><trkpt lat="40.9604567" lon="14.4379967"><ele>26.166666666666664</ele><time>2026-03-29T06:50:29.296Z</time></trkpt><trkpt lat="40.9603783" lon="14.438025"><ele>26.333333333333332</ele><time>2026-03-29T06:50:30.296Z</time></trkpt><trkpt lat="40.9603067" lon="14.4380517"><ele>26.5</ele><time>2026-03-29T06:50:31.297Z</time></trkpt><trkpt lat="40.9602283" lon="14.4380833"><ele>26.666666666666664</ele><time>2026-03-29T06:50:32.295Z</time></trkpt><trkpt lat="40.96015" lon="14.4381133"><ele>26.833333333333332</ele><time>2026-03-29T06:50:33.296Z</time></trkpt><trkpt lat="40.9600767" lon="14.4381417"><ele>27.0</ele><time>2026-03-29T06:50:34.295Z</time></trkpt><trkpt lat="40.96" lon="14.4381717"><ele>26.714285714285715</ele><time>2026-03-29T06:50:35.296Z</time></trkpt><trkpt lat="40.9599317" lon="14.4382017"><ele>26.428571428571427</ele><time>2026-03-29T06:50:36.295Z</time></trkpt><trkpt lat="40.959865" lon="14.4382317"><ele>26.142857142857146</ele><time>2026-03-29T06:50:37.299Z</time></trkpt><trkpt lat="40.9597967" lon="14.4382617"><ele>25.857142857142858</ele><time>2026-03-29T06:50:38.295Z</time></trkpt><trkpt lat="40.9597283" lon="14.43829"><ele>25.571428571428573</ele><time>2026-03-29T06:50:39.296Z</time></trkpt><trkpt lat="40.959665" lon="14.4383167"><ele>25.28571428571429</ele><time>2026-03-29T06:50:40.299Z</time></trkpt><trkpt lat="40.9596" lon="14.4383433"><ele>25.0</ele><time>2026-03-29T06:50:41.296Z</time></trkpt><trkpt lat="40.95953" lon="14.4383733"><ele>25.000000000000004</ele><time>2026-03-29T06:50:42.296Z</time></trkpt><trkpt lat="40.9594617" lon="14.4384017"><ele>25.0</ele><time>2026-03-29T06:50:43.297Z</time></trkpt><trkpt lat="40.9593967" lon="14.4384267"><ele>25.0</ele><time>2026-03-29T06:50:44.297Z</time></trkpt><trkpt lat="40.95933" lon="14.4384533"><ele>25.0</ele><time>2026-03-29T06:50:45.296Z</time></trkpt><trkpt lat="40.959265" lon="14.43848"><ele>25.0</ele><time>2026-03-29T06:50:46.298Z</time></trkpt><trkpt lat="40.9591967" lon="14.4385083"><ele>25.000000000000004</ele><time>2026-03-29T06:50:47.297Z</time></trkpt><trkpt lat="40.9591317" lon="14.4385333"><ele>25.0</ele><time>2026-03-29T06:50:48.298Z</time></trkpt><trkpt lat="40.9590667" lon="14.4385617"><ele>24.714285714285715</ele><time>2026-03-29T06:50:49.296Z</time></trkpt><trkpt lat="40.959" lon="14.4385883"><ele>24.42857142857143</ele><time>2026-03-29T06:50:50.295Z</time></trkpt><trkpt lat="40.95893" lon="14.438615"><ele>24.142857142857146</ele><time>2026-03-29T06:50:51.295Z</time></trkpt><trkpt lat="40.9588583" lon="14.43864"><ele>23.857142857142858</ele><time>2026-03-29T06:50:52.297Z</time></trkpt><trkpt lat="40.9587883" lon="14.4386683"><ele>23.57142857142857</ele><time>2026-03-29T06:50:53.298Z</time></trkpt><trkpt lat="40.9587167" lon="14.4386967"><ele>23.28571428571429</ele><time>2026-03-29T06:50:54.296Z</time></trkpt><trkpt lat="40.958645" lon="14.438725"><ele>23.0</ele><time>2026-03-29T06:50:55.296Z</time></trkpt><trkpt lat="40.9585717" lon="14.4387533"><ele>23.0</ele><time>2026-03-29T06:50:56.296Z</time></trkpt><trkpt lat="40.9585" lon="14.4387817"><ele>23.0</ele><time>2026-03-29T06:50:57.295Z</time></trkpt><trkpt lat="40.95843" lon="14.4388133"><ele>23.0</ele><time>2026-03-29T06:50:58.296Z</time></trkpt><trkpt lat="40.9583533" lon="14.438845"><ele>23.0</ele><time>2026-03-29T06:50:59.298Z</time></trkpt><trkpt lat="40.958275" lon="14.438875"><ele>23.0</ele><time>2026-03-29T06:51:00.295Z</time></trkpt><trkpt lat="40.9581983" lon="14.438905"><ele>23.0</ele><time>2026-03-29T06:51:01.297Z</time></trkpt><trkpt lat="40.9581217" lon="14.4389383"><ele>23.333333333333336</ele><time>2026-03-29T06:51:02.296Z</time></trkpt><trkpt lat="40.9580417" lon="14.4389733"><ele>23.666666666666668</ele><time>2026-03-29T06:51:03.298Z</time></trkpt><trkpt lat="40.9579617" lon="14.4390067"><ele>24.0</ele><time>2026-03-29T06:51:04.297Z</time></trkpt><trkpt lat="40.95788" lon="14.4390417"><ele>24.333333333333336</ele><time>2026-03-29T06:51:05.295Z</time></trkpt><trkpt lat="40.9577983" lon="14.439075"><ele>24.666666666666668</ele><time>2026-03-29T06:51:06.296Z</time></trkpt><trkpt lat="40.957715" lon="14.4391067"><ele>25.0</ele><time>2026-03-29T06:51:07.299Z</time></trkpt><trkpt lat="40.9576333" lon="14.4391383"><ele>25.000000000000004</ele><time>2026-03-29T06:51:08.298Z</time></trkpt><trkpt lat="40.957555" lon="14.43917"><ele>25.0</ele><time>2026-03-29T06:51:09.298Z</time></trkpt><trkpt lat="40.9574767" lon="14.439205"><ele>25.0</ele><time>2026-03-29T06:51:10.298Z</time></trkpt><trkpt lat="40.9573983" lon="14.4392383"><ele>25.0</ele><time>2026-03-29T06:51:11.296Z</time></trkpt><trkpt lat="40.95732" lon="14.4392717"><ele>25.000000000000004</ele><time>2026-03-29T06:51:12.298Z</time></trkpt><trkpt lat="40.9572417" lon="14.4393033"><ele>25.0</ele><time>2026-03-29T06:51:13.297Z</time></trkpt><trkpt lat="40.9571617" lon="14.4393367"><ele>25.000000000000004</ele><time>2026-03-29T06:51:14.296Z</time></trkpt><trkpt lat="40.9570817" lon="14.43937"><ele>25.0</ele><time>2026-03-29T06:51:15.297Z</time></trkpt><trkpt lat="40.957" lon="14.4394017"><ele>25.0</ele><time>2026-03-29T06:51:16.297Z</time></trkpt><trkpt lat="40.9569217" lon="14.4394367"><ele>25.0</ele><time>2026-03-29T06:51:17.296Z</time></trkpt><trkpt lat="40.9568467" lon="14.4394717"><ele>25.000000000000004</ele><time>2026-03-29T06:51:18.297Z</time></trkpt><trkpt lat="40.9567667" lon="14.4395033"><ele>25.0</ele><time>2026-03-29T06:51:19.296Z</time></trkpt><trkpt lat="40.9566833" lon="14.439535"><ele>24.833333333333336</ele><time>2026-03-29T06:51:20.296Z</time></trkpt><trkpt lat="40.956605" lon="14.4395683"><ele>24.666666666666668</ele><time>2026-03-29T06:51:21.295Z</time></trkpt><trkpt lat="40.956525" lon="14.4396017"><ele>24.5</ele><time>2026-03-29T06:51:22.296Z</time></trkpt><trkpt lat="40.9564483" lon="14.4396317"><ele>24.333333333333336</ele><time>2026-03-29T06:51:23.297Z</time></trkpt><trkpt lat="40.95637" lon="14.439665"><ele>24.166666666666668</ele><time>2026-03-29T06:51:24.295Z</time></trkpt><trkpt lat="40.9562967" lon="14.439695"><ele>24.0</ele><time>2026-03-29T06:51:25.297Z</time></trkpt><trkpt lat="40.9562217" lon="14.439725"><ele>24.0</ele><time>2026-03-29T06:51:26.295Z</time></trkpt><trkpt lat="40.9561467" lon="14.439755"><ele>24.0</ele><time>2026-03-29T06:51:27.296Z</time></trkpt><trkpt lat="40.9560717" lon="14.439785"><ele>24.0</ele><time>2026-03-29T06:51:28.296Z</time></trkpt><trkpt lat="40.9559983" lon="14.4398183"><ele>24.0</ele><time>2026-03-29T06:51:29.299Z</time></trkpt><trkpt lat="40.9559233" lon="14.4398483"><ele>24.0</ele><time>2026-03-29T06:51:30.297Z</time></trkpt><trkpt lat="40.9558467" lon="14.43988"><ele>24.0</ele><time>2026-03-29T06:51:31.296Z</time></trkpt><trkpt lat="40.9557733" lon="14.4399083"><ele>24.333333333333332</ele><time>2026-03-29T06:51:32.296Z</time></trkpt><trkpt lat="40.955695" lon="14.4399367"><ele>24.666666666666664</ele><time>2026-03-29T06:51:33.296Z</time></trkpt><trkpt lat="40.9556167" lon="14.4399633"><ele>25.0</ele><time>2026-03-29T06:51:34.295Z</time></trkpt><trkpt lat="40.9555417" lon="14.43999"><ele>25.333333333333332</ele><time>2026-03-29T06:51:35.297Z</time></trkpt><trkpt lat="40.9554683" lon="14.4400167"><ele>25.666666666666664</ele><time>2026-03-29T06:51:36.297Z</time></trkpt><trkpt lat="40.95539" lon="14.4400367"><ele>26.0</ele><time>2026-03-29T06:51:37.297Z</time></trkpt><trkpt lat="40.9553133" lon="14.4400567"><ele>25.999999999999996</ele><time>2026-03-29T06:51:38.298Z</time></trkpt><trkpt lat="40.9552367" lon="14.44008"><ele>26.0</ele><time>2026-03-29T06:51:39.298Z</time></trkpt><trkpt lat="40.95516" lon="14.4401"><ele>26.0</ele><time>2026-03-29T06:51:40.297Z</time></trkpt><trkpt lat="40.9550833" lon="14.440125"><ele>26.0</ele><time>2026-03-29T06:51:41.297Z</time></trkpt><trkpt lat="40.9550117" lon="14.4401517"><ele>25.999999999999996</ele><time>2026-03-29T06:51:42.296Z</time></trkpt><trkpt lat="40.9549333" lon="14.440175"><ele>26.0</ele><time>2026-03-29T06:51:43.3Z</time></trkpt><trkpt lat="40.9548617" lon="14.4401967"><ele>25.999999999999996</ele><time>2026-03-29T06:51:44.298Z</time></trkpt><trkpt lat="40.954785" lon="14.4402167"><ele>26.0</ele><time>2026-03-29T06:51:45.295Z</time></trkpt><trkpt lat="40.95471" lon="14.4402383"><ele>26.0</ele><time>2026-03-29T06:51:46.298Z</time></trkpt><trkpt lat="40.954635" lon="14.4402583"><ele>26.0</ele><time>2026-03-29T06:51:47.294Z</time></trkpt><trkpt lat="40.9545517" lon="14.4402817"><ele>25.999999999999996</ele><time>2026-03-29T06:51:48.297Z</time></trkpt><trkpt lat="40.9544717" lon="14.4403083"><ele>26.0</ele><time>2026-03-29T06:51:49.295Z</time></trkpt><trkpt lat="40.9543933" lon="14.440335"><ele>25.999999999999996</ele><time>2026-03-29T06:51:50.297Z</time></trkpt><trkpt lat="40.954315" lon="14.44036"><ele>26.0</ele><time>2026-03-29T06:51:51.297Z</time></trkpt><trkpt lat="40.95424" lon="14.4403833"><ele>26.0</ele><time>2026-03-29T06:51:52.297Z</time></trkpt><trkpt lat="40.95416" lon="14.44041"><ele>26.0</ele><time>2026-03-29T06:51:53.297Z</time></trkpt><trkpt lat="40.9540817" lon="14.44044"><ele>25.999999999999996</ele><time>2026-03-29T06:51:54.298Z</time></trkpt><trkpt lat="40.9540017" lon="14.440465"><ele>26.0</ele><time>2026-03-29T06:51:55.297Z</time></trkpt><trkpt lat="40.9539267" lon="14.4404883"><ele>26.166666666666664</ele><time>2026-03-29T06:51:56.295Z</time></trkpt><trkpt lat="40.95385" lon="14.44051"><ele>26.333333333333332</ele><time>2026-03-29T06:51:57.298Z</time></trkpt><trkpt lat="40.9537733" lon="14.4405317"><ele>26.5</ele><time>2026-03-29T06:51:58.298Z</time></trkpt><trkpt lat="40.9537017" lon="14.4405567"><ele>26.666666666666664</ele><time>2026-03-29T06:51:59.297Z</time></trkpt><trkpt lat="40.9536267" lon="14.4405817"><ele>26.833333333333332</ele><time>2026-03-29T06:52:00.297Z</time></trkpt><trkpt lat="40.95355" lon="14.440605"><ele>27.0</ele><time>2026-03-29T06:52:01.299Z</time></trkpt><trkpt lat="40.9534733" lon="14.44063"><ele>27.0</ele><time>2026-03-29T06:52:02.297Z</time></trkpt><trkpt lat="40.9534" lon="14.440655"><ele>27.0</ele><time>2026-03-29T06:52:03.296Z</time></trkpt><trkpt lat="40.9533233" lon="14.4406783"><ele>27.0</ele><time>2026-03-29T06:52:04.294Z</time></trkpt><trkpt lat="40.95325" lon="14.4407"><ele>27.0</ele><time>2026-03-29T06:52:05.297Z</time></trkpt><trkpt lat="40.9531817" lon="14.4407217"><ele>27.0</ele><time>2026-03-29T06:52:06.297Z</time></trkpt><trkpt lat="40.9531067" lon="14.440745"><ele>27.0</ele><time>2026-03-29T06:52:07.298Z</time></trkpt><trkpt lat="40.95303" lon="14.44077"><ele>26.833333333333332</ele><time>2026-03-29T06:52:08.298Z</time></trkpt><trkpt lat="40.9529517" lon="14.440795"><ele>26.666666666666664</ele><time>2026-03-29T06:52:09.295Z</time></trkpt><trkpt lat="40.9528717" lon="14.44082"><ele>26.5</ele><time>2026-03-29T06:52:10.297Z</time></trkpt><trkpt lat="40.952795" lon="14.4408433"><ele>26.333333333333332</ele><time>2026-03-29T06:52:11.297Z</time></trkpt><trkpt lat="40.952715" lon="14.4408667"><ele>26.166666666666664</ele><time>2026-03-29T06:52:12.297Z</time></trkpt><trkpt lat="40.95264" lon="14.4408883"><ele>26.0</ele><time>2026-03-29T06:52:13.298Z</time></trkpt><trkpt lat="40.9525617" lon="14.44091"><ele>25.999999999999996</ele><time>2026-03-29T06:52:14.297Z</time></trkpt><trkpt lat="40.9524817" lon="14.440935"><ele>26.0</ele><time>2026-03-29T06:52:15.297Z</time></trkpt><trkpt lat="40.9524017" lon="14.4409617"><ele>26.0</ele><time>2026-03-29T06:52:16.297Z</time></trkpt><trkpt lat="40.9523267" lon="14.4409833"><ele>26.0</ele><time>2026-03-29T06:52:17.297Z</time></trkpt><trkpt lat="40.9522533" lon="14.4410083"><ele>25.999999999999996</ele><time>2026-03-29T06:52:18.298Z</time></trkpt><trkpt lat="40.9521783" lon="14.4410333"><ele>26.0</ele><time>2026-03-29T06:52:19.299Z</time></trkpt><trkpt lat="40.9521017" lon="14.4410567"><ele>25.999999999999996</ele><time>2026-03-29T06:52:20.298Z</time></trkpt><trkpt lat="40.9520267" lon="14.4410783"><ele>26.0</ele><time>2026-03-29T06:52:21.297Z</time></trkpt><trkpt lat="40.95195" lon="14.4411033"><ele>26.0</ele><time>2026-03-29T06:52:22.297Z</time></trkpt><trkpt lat="40.9518733" lon="14.4411283"><ele>26.0</ele><time>2026-03-29T06:52:23.297Z</time></trkpt><trkpt lat="40.951795" lon="14.4411517"><ele>25.999999999999996</ele><time>2026-03-29T06:52:24.295Z</time></trkpt><trkpt lat="40.95172" lon="14.4411767"><ele>26.0</ele><time>2026-03-29T06:52:25.297Z</time></trkpt><trkpt lat="40.9516417" lon="14.4412"><ele>25.833333333333332</ele><time>2026-03-29T06:52:26.297Z</time></trkpt><trkpt lat="40.9515667" lon="14.441225"><ele>25.666666666666664</ele><time>2026-03-29T06:52:27.297Z</time></trkpt><trkpt lat="40.95149" lon="14.44125"><ele>25.5</ele><time>2026-03-29T06:52:28.297Z</time></trkpt><trkpt lat="40.9514133" lon="14.4412733"><ele>25.333333333333336</ele><time>2026-03-29T06:52:29.295Z</time></trkpt><trkpt lat="40.951335" lon="14.441295"><ele>25.166666666666668</ele><time>2026-03-29T06:52:30.297Z</time></trkpt><trkpt lat="40.95126" lon="14.44132"><ele>25.0</ele><time>2026-03-29T06:52:31.299Z</time></trkpt><trkpt lat="40.9511833" lon="14.4413467"><ele>25.000000000000004</ele><time>2026-03-29T06:52:32.298Z</time></trkpt><trkpt lat="40.9511067" lon="14.44137"><ele>25.0</ele><time>2026-03-29T06:52:33.294Z</time></trkpt><trkpt lat="40.9510367" lon="14.441395"><ele>25.0</ele><time>2026-03-29T06:52:34.296Z</time></trkpt><trkpt lat="40.9509633" lon="14.4414183"><ele>25.0</ele><time>2026-03-29T06:52:35.297Z</time></trkpt><trkpt lat="40.95089" lon="14.4414417"><ele>25.000000000000004</ele><time>2026-03-29T06:52:36.298Z</time></trkpt><trkpt lat="40.950815" lon="14.4414633"><ele>25.0</ele><time>2026-03-29T06:52:37.298Z</time></trkpt><trkpt lat="40.9507417" lon="14.4414833"><ele>25.166666666666668</ele><time>2026-03-29T06:52:38.298Z</time></trkpt><trkpt lat="40.9506667" lon="14.4415067"><ele>25.333333333333336</ele><time>2026-03-29T06:52:39.296Z</time></trkpt><trkpt lat="40.9505917" lon="14.4415283"><ele>25.5</ele><time>2026-03-29T06:52:40.298Z</time></trkpt><trkpt lat="40.9505183" lon="14.4415467"><ele>25.666666666666664</ele><time>2026-03-29T06:52:41.297Z</time></trkpt><trkpt lat="40.9504467" lon="14.4415667"><ele>25.833333333333332</ele><time>2026-03-29T06:52:42.297Z</time></trkpt><trkpt lat="40.9503783" lon="14.4415917"><ele>26.0</ele><time>2026-03-29T06:52:43.295Z</time></trkpt><trkpt lat="40.950305" lon="14.4416233"><ele>25.999999999999996</ele><time>2026-03-29T06:52:44.295Z</time></trkpt><trkpt lat="40.9502283" lon="14.44165"><ele>26.0</ele><time>2026-03-29T06:52:45.295Z</time></trkpt><trkpt lat="40.9501517" lon="14.4416717"><ele>26.0</ele><time>2026-03-29T06:52:46.298Z</time></trkpt><trkpt lat="40.9500733" lon="14.4416917"><ele>26.0</ele><time>2026-03-29T06:52:47.295Z</time></trkpt><trkpt lat="40.9499967" lon="14.4417133"><ele>25.999999999999996</ele><time>2026-03-29T06:52:48.297Z</time></trkpt><trkpt lat="40.9499183" lon="14.4417367"><ele>26.0</ele><time>2026-03-29T06:52:49.297Z</time></trkpt><trkpt lat="40.9498467" lon="14.44176"><ele>26.0</ele><time>2026-03-29T06:52:50.297Z</time></trkpt><trkpt lat="40.949775" lon="14.441785"><ele>26.0</ele><time>2026-03-29T06:52:51.294Z</time></trkpt><trkpt lat="40.949705" lon="14.44181"><ele>26.0</ele><time>2026-03-29T06:52:52.296Z</time></trkpt><trkpt lat="40.9496383" lon="14.4418417"><ele>26.0</ele><time>2026-03-29T06:52:53.295Z</time></trkpt><trkpt lat="40.9495717" lon="14.4418783"><ele>26.0</ele><time>2026-03-29T06:52:54.297Z</time></trkpt><trkpt lat="40.9495033" lon="14.4419267"><ele>26.0</ele><time>2026-03-29T06:52:55.297Z</time></trkpt><trkpt lat="40.9494383" lon="14.4419767"><ele>26.0</ele><time>2026-03-29T06:52:56.298Z</time></trkpt><trkpt lat="40.94938" lon="14.4420317"><ele>25.999999999999996</ele><time>2026-03-29T06:52:57.297Z</time></trkpt><trkpt lat="40.9493217" lon="14.44209"><ele>26.0</ele><time>2026-03-29T06:52:58.298Z</time></trkpt><trkpt lat="40.9492633" lon="14.4421467"><ele>26.0</ele><time>2026-03-29T06:52:59.298Z</time></trkpt><trkpt lat="40.9492017" lon="14.4422033"><ele>26.0</ele><time>2026-03-29T06:53:00.299Z</time></trkpt><trkpt lat="40.9491417" lon="14.4422667"><ele>25.999999999999996</ele><time>2026-03-29T06:53:01.298Z</time></trkpt><trkpt lat="40.9490833" lon="14.4423367"><ele>26.0</ele><time>2026-03-29T06:53:02.296Z</time></trkpt><trkpt lat="40.9490283" lon="14.4424117"><ele>25.999999999999996</ele><time>2026-03-29T06:53:03.295Z</time></trkpt><trkpt lat="40.9489767" lon="14.4424867"><ele>26.0</ele><time>2026-03-29T06:53:04.296Z</time></trkpt><trkpt lat="40.9489283" lon="14.4425633"><ele>26.0</ele><time>2026-03-29T06:53:05.296Z</time></trkpt><trkpt lat="40.9488767" lon="14.4426417"><ele>26.0</ele><time>2026-03-29T06:53:06.297Z</time></trkpt><trkpt lat="40.9488233" lon="14.4427183"><ele>25.999999999999996</ele><time>2026-03-29T06:53:07.299Z</time></trkpt><trkpt lat="40.94877" lon="14.442795"><ele>26.0</ele><time>2026-03-29T06:53:08.298Z</time></trkpt><trkpt lat="40.948715" lon="14.442875"><ele>25.999999999999996</ele><time>2026-03-29T06:53:09.298Z</time></trkpt><trkpt lat="40.9486617" lon="14.4429567"><ele>26.0</ele><time>2026-03-29T06:53:10.297Z</time></trkpt><trkpt lat="40.9486067" lon="14.4430333"><ele>26.0</ele><time>2026-03-29T06:53:11.299Z</time></trkpt><trkpt lat="40.9485533" lon="14.4431083"><ele>26.0</ele><time>2026-03-29T06:53:12.294Z</time></trkpt><trkpt lat="40.9485" lon="14.443185"><ele>25.999999999999996</ele><time>2026-03-29T06:53:13.298Z</time></trkpt><trkpt lat="40.9484467" lon="14.4432633"><ele>26.0</ele><time>2026-03-29T06:53:14.298Z</time></trkpt><trkpt lat="40.94839" lon="14.443345"><ele>26.166666666666664</ele><time>2026-03-29T06:53:15.296Z</time></trkpt><trkpt lat="40.948335" lon="14.443425"><ele>26.333333333333332</ele><time>2026-03-29T06:53:16.296Z</time></trkpt><trkpt lat="40.9482817" lon="14.4435017"><ele>26.5</ele><time>2026-03-29T06:53:17.295Z</time></trkpt><trkpt lat="40.9482233" lon="14.443575"><ele>26.666666666666664</ele><time>2026-03-29T06:53:18.295Z</time></trkpt><trkpt lat="40.9481683" lon="14.4436433"><ele>26.833333333333332</ele><time>2026-03-29T06:53:19.295Z</time></trkpt><trkpt lat="40.948115" lon="14.4437133"><ele>27.0</ele><time>2026-03-29T06:53:20.295Z</time></trkpt><trkpt lat="40.94806" lon="14.443785"><ele>27.0</ele><time>2026-03-29T06:53:21.294Z</time></trkpt><trkpt lat="40.9480083" lon="14.4438583"><ele>27.0</ele><time>2026-03-29T06:53:22.296Z</time></trkpt><trkpt lat="40.9479567" lon="14.44393"><ele>27.0</ele><time>2026-03-29T06:53:23.295Z</time></trkpt><trkpt lat="40.9479033" lon="14.444"><ele>27.0</ele><time>2026-03-29T06:53:24.297Z</time></trkpt><trkpt lat="40.9478483" lon="14.4440717"><ele>27.0</ele><time>2026-03-29T06:53:25.298Z</time></trkpt><trkpt lat="40.9477917" lon="14.444145"><ele>27.0</ele><time>2026-03-29T06:53:26.298Z</time></trkpt><trkpt lat="40.9477383" lon="14.444225"><ele>27.0</ele><time>2026-03-29T06:53:27.297Z</time></trkpt><trkpt lat="40.94769" lon="14.4443033"><ele>27.0</ele><time>2026-03-29T06:53:28.297Z</time></trkpt><trkpt lat="40.9476417" lon="14.444385"><ele>27.0</ele><time>2026-03-29T06:53:29.299Z</time></trkpt><trkpt lat="40.9475933" lon="14.4444633"><ele>27.0</ele><time>2026-03-29T06:53:30.298Z</time></trkpt><trkpt lat="40.9475433" lon="14.4445417"><ele>27.0</ele><time>2026-03-29T06:53:31.299Z</time></trkpt><trkpt lat="40.9474933" lon="14.4446183"><ele>27.0</ele><time>2026-03-29T06:53:32.297Z</time></trkpt><trkpt lat="40.9474467" lon="14.4446933"><ele>26.666666666666668</ele><time>2026-03-29T06:53:33.297Z</time></trkpt><trkpt lat="40.947395" lon="14.444765"><ele>26.333333333333336</ele><time>2026-03-29T06:53:34.298Z</time></trkpt><trkpt lat="40.9473433" lon="14.444835"><ele>26.0</ele><time>2026-03-29T06:53:35.296Z</time></trkpt><trkpt lat="40.9472917" lon="14.4449033"><ele>25.666666666666668</ele><time>2026-03-29T06:53:36.298Z</time></trkpt><trkpt lat="40.9472367" lon="14.44497"><ele>25.333333333333336</ele><time>2026-03-29T06:53:37.298Z</time></trkpt><trkpt lat="40.9471767" lon="14.44504"><ele>25.0</ele><time>2026-03-29T06:53:38.298Z</time></trkpt><trkpt lat="40.9471183" lon="14.4451067"><ele>25.000000000000004</ele><time>2026-03-29T06:53:39.298Z</time></trkpt><trkpt lat="40.9470617" lon="14.4451733"><ele>25.0</ele><time>2026-03-29T06:53:40.298Z</time></trkpt><trkpt lat="40.9470067" lon="14.4452367"><ele>25.0</ele><time>2026-03-29T06:53:41.296Z</time></trkpt><trkpt lat="40.94695" lon="14.4453033"><ele>25.0</ele><time>2026-03-29T06:53:42.298Z</time></trkpt><trkpt lat="40.9468967" lon="14.4453683"><ele>25.000000000000004</ele><time>2026-03-29T06:53:43.299Z</time></trkpt><trkpt lat="40.9468383" lon="14.44544"><ele>25.0</ele><time>2026-03-29T06:53:44.298Z</time></trkpt><trkpt lat="40.9467833" lon="14.4455083"><ele>25.166666666666668</ele><time>2026-03-29T06:53:45.297Z</time></trkpt><trkpt lat="40.9467267" lon="14.4455767"><ele>25.333333333333336</ele><time>2026-03-29T06:53:46.296Z</time></trkpt><trkpt lat="40.9466717" lon="14.445645"><ele>25.5</ele><time>2026-03-29T06:53:47.298Z</time></trkpt><trkpt lat="40.9466167" lon="14.44571"><ele>25.666666666666664</ele><time>2026-03-29T06:53:48.295Z</time></trkpt><trkpt lat="40.9465583" lon="14.4457783"><ele>25.833333333333332</ele><time>2026-03-29T06:53:49.297Z</time></trkpt><trkpt lat="40.9465" lon="14.44585"><ele>26.0</ele><time>2026-03-29T06:53:50.297Z</time></trkpt><trkpt lat="40.9464417" lon="14.4459183"><ele>26.166666666666664</ele><time>2026-03-29T06:53:51.295Z</time></trkpt><trkpt lat="40.9463833" lon="14.445985"><ele>26.333333333333332</ele><time>2026-03-29T06:53:52.298Z</time></trkpt><trkpt lat="40.9463267" lon="14.4460533"><ele>26.5</ele><time>2026-03-29T06:53:53.294Z</time></trkpt><trkpt lat="40.9462717" lon="14.44612"><ele>26.666666666666664</ele><time>2026-03-29T06:53:54.298Z</time></trkpt><trkpt lat="40.9462183" lon="14.44619"><ele>26.833333333333332</ele><time>2026-03-29T06:53:55.298Z</time></trkpt><trkpt lat="40.9461633" lon="14.4462567"><ele>27.0</ele><time>2026-03-29T06:53:56.297Z</time></trkpt><trkpt lat="40.9461083" lon="14.4463217"><ele>27.0</ele><time>2026-03-29T06:53:57.295Z</time></trkpt><trkpt lat="40.9460533" lon="14.4463883"><ele>27.0</ele><time>2026-03-29T06:53:58.297Z</time></trkpt><trkpt lat="40.9460017" lon="14.4464517"><ele>27.0</ele><time>2026-03-29T06:53:59.299Z</time></trkpt><trkpt lat="40.94595" lon="14.44652"><ele>27.0</ele><time>2026-03-29T06:54:00.296Z</time></trkpt><trkpt lat="40.9459067" lon="14.446595"><ele>27.0</ele><time>2026-03-29T06:54:01.295Z</time></trkpt><trkpt lat="40.9458733" lon="14.4466833"><ele>27.0</ele><time>2026-03-29T06:54:02.295Z</time></trkpt><trkpt lat="40.945845" lon="14.4467783"><ele>27.0</ele><time>2026-03-29T06:54:03.295Z</time></trkpt><trkpt lat="40.94582" lon="14.4468717"><ele>27.0</ele><time>2026-03-29T06:54:04.296Z</time></trkpt><trkpt lat="40.94578" lon="14.4469567"><ele>27.0</ele><time>2026-03-29T06:54:05.297Z</time></trkpt><trkpt lat="40.9457317" lon="14.4470283"><ele>27.0</ele><time>2026-03-29T06:54:06.295Z</time></trkpt><trkpt lat="40.9456717" lon="14.4470933"><ele>27.0</ele><time>2026-03-29T06:54:07.296Z</time></trkpt><trkpt lat="40.9456083" lon="14.447155"><ele>27.0</ele><time>2026-03-29T06:54:08.297Z</time></trkpt><trkpt lat="40.945545" lon="14.447215"><ele>27.0</ele><time>2026-03-29T06:54:09.298Z</time></trkpt><trkpt lat="40.94548" lon="14.4472683"><ele>27.0</ele><time>2026-03-29T06:54:10.294Z</time></trkpt><trkpt lat="40.945415" lon="14.447325"><ele>27.0</ele><time>2026-03-29T06:54:11.296Z</time></trkpt><trkpt lat="40.9453533" lon="14.4473817"><ele>27.0</ele><time>2026-03-29T06:54:12.298Z</time></trkpt><trkpt lat="40.94529" lon="14.4474367"><ele>27.0</ele><time>2026-03-29T06:54:13.297Z</time></trkpt><trkpt lat="40.945225" lon="14.4474933"><ele>27.0</ele><time>2026-03-29T06:54:14.297Z</time></trkpt><trkpt lat="40.9451667" lon="14.4475483"><ele>27.0</ele><time>2026-03-29T06:54:15.295Z</time></trkpt><trkpt lat="40.945105" lon="14.4476017"><ele>27.0</ele><time>2026-03-29T06:54:16.298Z</time></trkpt><trkpt lat="40.94504" lon="14.4476567"><ele>27.0</ele><time>2026-03-29T06:54:17.298Z</time></trkpt><trkpt lat="40.9449783" lon="14.4477133"><ele>27.0</ele><time>2026-03-29T06:54:18.297Z</time></trkpt><trkpt lat="40.94491" lon="14.4477717"><ele>27.0</ele><time>2026-03-29T06:54:19.298Z</time></trkpt><trkpt lat="40.944845" lon="14.4478317"><ele>27.0</ele><time>2026-03-29T06:54:20.295Z</time></trkpt><trkpt lat="40.9447817" lon="14.4478883"><ele>27.0</ele><time>2026-03-29T06:54:21.297Z</time></trkpt><trkpt lat="40.94472" lon="14.4479433"><ele>27.166666666666668</ele><time>2026-03-29T06:54:22.297Z</time></trkpt><trkpt lat="40.9446567" lon="14.448"><ele>27.333333333333336</ele><time>2026-03-29T06:54:23.298Z</time></trkpt><trkpt lat="40.9445967" lon="14.4480567"><ele>27.5</ele><time>2026-03-29T06:54:24.296Z</time></trkpt><trkpt lat="40.944535" lon="14.4481133"><ele>27.666666666666668</ele><time>2026-03-29T06:54:25.295Z</time></trkpt><trkpt lat="40.944475" lon="14.4481717"><ele>27.833333333333336</ele><time>2026-03-29T06:54:26.296Z</time></trkpt><trkpt lat="40.944415" lon="14.44823"><ele>28.0</ele><time>2026-03-29T06:54:27.296Z</time></trkpt><trkpt lat="40.9443517" lon="14.4482883"><ele>28.000000000000004</ele><time>2026-03-29T06:54:28.298Z</time></trkpt><trkpt lat="40.94429" lon="14.448345"><ele>28.0</ele><time>2026-03-29T06:54:29.295Z</time></trkpt><trkpt lat="40.9442267" lon="14.4484017"><ele>28.0</ele><time>2026-03-29T06:54:30.297Z</time></trkpt><trkpt lat="40.944165" lon="14.4484633"><ele>28.0</ele><time>2026-03-29T06:54:31.298Z</time></trkpt><trkpt lat="40.9441017" lon="14.448525"><ele>28.000000000000004</ele><time>2026-03-29T06:54:32.298Z</time></trkpt><trkpt lat="40.94404" lon="14.4485817"><ele>28.0</ele><time>2026-03-29T06:54:33.298Z</time></trkpt><trkpt lat="40.9439767" lon="14.4486383"><ele>28.000000000000004</ele><time>2026-03-29T06:54:34.295Z</time></trkpt><trkpt lat="40.9439067" lon="14.4486967"><ele>28.0</ele><time>2026-03-29T06:54:35.295Z</time></trkpt><trkpt lat="40.943835" lon="14.4487483"><ele>28.0</ele><time>2026-03-29T06:54:36.297Z</time></trkpt><trkpt lat="40.9437667" lon="14.4488067"><ele>28.0</ele><time>2026-03-29T06:54:37.297Z</time></trkpt><trkpt lat="40.9437017" lon="14.44886"><ele>28.000000000000004</ele><time>2026-03-29T06:54:38.298Z</time></trkpt><trkpt lat="40.9436383" lon="14.4489117"><ele>28.0</ele><time>2026-03-29T06:54:39.295Z</time></trkpt><trkpt lat="40.943575" lon="14.4489667"><ele>28.000000000000004</ele><time>2026-03-29T06:54:40.296Z</time></trkpt><trkpt lat="40.9435167" lon="14.4490217"><ele>28.0</ele><time>2026-03-29T06:54:41.297Z</time></trkpt><trkpt lat="40.9434567" lon="14.4490783"><ele>28.0</ele><time>2026-03-29T06:54:42.297Z</time></trkpt><trkpt lat="40.9433983" lon="14.4491367"><ele>28.0</ele><time>2026-03-29T06:54:43.297Z</time></trkpt><trkpt lat="40.943335" lon="14.449195"><ele>28.000000000000004</ele><time>2026-03-29T06:54:44.298Z</time></trkpt><trkpt lat="40.9432717" lon="14.449255"><ele>28.0</ele><time>2026-03-29T06:54:45.298Z</time></trkpt><trkpt lat="40.9432083" lon="14.449315"><ele>28.000000000000004</ele><time>2026-03-29T06:54:46.296Z</time></trkpt><trkpt lat="40.9431483" lon="14.4493783"><ele>28.0</ele><time>2026-03-29T06:54:47.296Z</time></trkpt><trkpt lat="40.943085" lon="14.4494417"><ele>28.0</ele><time>2026-03-29T06:54:48.296Z</time></trkpt><trkpt lat="40.9430233" lon="14.4495067"><ele>28.0</ele><time>2026-03-29T06:54:49.296Z</time></trkpt><trkpt lat="40.9429583" lon="14.4495717"><ele>28.000000000000004</ele><time>2026-03-29T06:54:50.297Z</time></trkpt><trkpt lat="40.9428967" lon="14.44964"><ele>28.0</ele><time>2026-03-29T06:54:51.297Z</time></trkpt><trkpt lat="40.94284" lon="14.4497117"><ele>28.000000000000004</ele><time>2026-03-29T06:54:52.298Z</time></trkpt><trkpt lat="40.9427867" lon="14.4497833"><ele>28.0</ele><time>2026-03-29T06:54:53.296Z</time></trkpt><trkpt lat="40.9427367" lon="14.4498567"><ele>28.0</ele><time>2026-03-29T06:54:54.296Z</time></trkpt><trkpt lat="40.9426833" lon="14.44993"><ele>28.0</ele><time>2026-03-29T06:54:55.295Z</time></trkpt><trkpt lat="40.9426317" lon="14.4500067"><ele>28.000000000000004</ele><time>2026-03-29T06:54:56.296Z</time></trkpt><trkpt lat="40.9425817" lon="14.4500817"><ele>28.0</ele><time>2026-03-29T06:54:57.298Z</time></trkpt><trkpt lat="40.94253" lon="14.4501583"><ele>28.000000000000004</ele><time>2026-03-29T06:54:58.296Z</time></trkpt><trkpt lat="40.9424767" lon="14.4502367"><ele>28.0</ele><time>2026-03-29T06:54:59.299Z</time></trkpt><trkpt lat="40.9424233" lon="14.4503133"><ele>28.0</ele><time>2026-03-29T06:55:00.298Z</time></trkpt><trkpt lat="40.94237" lon="14.4503933"><ele>28.0</ele><time>2026-03-29T06:55:01.297Z</time></trkpt><trkpt lat="40.942315" lon="14.4504767"><ele>28.000000000000004</ele><time>2026-03-29T06:55:02.295Z</time></trkpt><trkpt lat="40.94226" lon="14.4505583"><ele>28.0</ele><time>2026-03-29T06:55:03.295Z</time></trkpt><trkpt lat="40.9422083" lon="14.4506367"><ele>28.166666666666668</ele><time>2026-03-29T06:55:04.298Z</time></trkpt><trkpt lat="40.9421583" lon="14.45071"><ele>28.333333333333336</ele><time>2026-03-29T06:55:05.298Z</time></trkpt><trkpt lat="40.942105" lon="14.450785"><ele>28.5</ele><time>2026-03-29T06:55:06.298Z</time></trkpt><trkpt lat="40.94205" lon="14.45086"><ele>28.666666666666664</ele><time>2026-03-29T06:55:07.298Z</time></trkpt><trkpt lat="40.9419967" lon="14.4509333"><ele>28.833333333333332</ele><time>2026-03-29T06:55:08.297Z</time></trkpt><trkpt lat="40.9419417" lon="14.4510067"><ele>29.0</ele><time>2026-03-29T06:55:09.295Z</time></trkpt><trkpt lat="40.94189" lon="14.4510817"><ele>28.999999999999996</ele><time>2026-03-29T06:55:10.298Z</time></trkpt><trkpt lat="40.9418383" lon="14.4511517"><ele>29.0</ele><time>2026-03-29T06:55:11.295Z</time></trkpt><trkpt lat="40.9417867" lon="14.4512233"><ele>29.0</ele><time>2026-03-29T06:55:12.298Z</time></trkpt><trkpt lat="40.9417317" lon="14.4512933"><ele>29.0</ele><time>2026-03-29T06:55:13.297Z</time></trkpt><trkpt lat="40.941675" lon="14.451365"><ele>28.999999999999996</ele><time>2026-03-29T06:55:14.296Z</time></trkpt><trkpt lat="40.9416167" lon="14.4514367"><ele>29.0</ele><time>2026-03-29T06:55:15.295Z</time></trkpt><trkpt lat="40.94156" lon="14.4515067"><ele>28.666666666666664</ele><time>2026-03-29T06:55:16.296Z</time></trkpt><trkpt lat="40.941505" lon="14.4515767"><ele>28.333333333333332</ele><time>2026-03-29T06:55:17.299Z</time></trkpt><trkpt lat="40.9414467" lon="14.4516483"><ele>28.0</ele><time>2026-03-29T06:55:18.297Z</time></trkpt><trkpt lat="40.9413883" lon="14.4517167"><ele>27.666666666666664</ele><time>2026-03-29T06:55:19.299Z</time></trkpt><trkpt lat="40.9413283" lon="14.4517867"><ele>27.333333333333332</ele><time>2026-03-29T06:55:20.298Z</time></trkpt><trkpt lat="40.9412667" lon="14.45186"><ele>27.0</ele><time>2026-03-29T06:55:21.297Z</time></trkpt><trkpt lat="40.9412083" lon="14.4519317"><ele>27.0</ele><time>2026-03-29T06:55:22.298Z</time></trkpt><trkpt lat="40.94115" lon="14.4519983"><ele>27.0</ele><time>2026-03-29T06:55:23.295Z</time></trkpt><trkpt lat="40.941095" lon="14.4520683"><ele>27.0</ele><time>2026-03-29T06:55:24.296Z</time></trkpt><trkpt lat="40.94104" lon="14.4521433"><ele>27.0</ele><time>2026-03-29T06:55:25.298Z</time></trkpt><trkpt lat="40.9409833" lon="14.4522117"><ele>27.0</ele><time>2026-03-29T06:55:26.297Z</time></trkpt><trkpt lat="40.9409283" lon="14.4522767"><ele>27.0</ele><time>2026-03-29T06:55:27.295Z</time></trkpt><trkpt lat="40.9408683" lon="14.4523417"><ele>27.0</ele><time>2026-03-29T06:55:28.298Z</time></trkpt><trkpt lat="40.94081" lon="14.4524067"><ele>27.0</ele><time>2026-03-29T06:55:29.295Z</time></trkpt><trkpt lat="40.9407517" lon="14.4524767"><ele>27.0</ele><time>2026-03-29T06:55:30.296Z</time></trkpt><trkpt lat="40.9406967" lon="14.4525467"><ele>27.0</ele><time>2026-03-29T06:55:31.297Z</time></trkpt><trkpt lat="40.9406417" lon="14.4526133"><ele>27.0</ele><time>2026-03-29T06:55:32.295Z</time></trkpt><trkpt lat="40.940585" lon="14.4526817"><ele>27.0</ele><time>2026-03-29T06:55:33.298Z</time></trkpt><trkpt lat="40.9405283" lon="14.452755"><ele>27.0</ele><time>2026-03-29T06:55:34.298Z</time></trkpt><trkpt lat="40.940475" lon="14.452825"><ele>27.0</ele><time>2026-03-29T06:55:35.297Z</time></trkpt><trkpt lat="40.9404233" lon="14.4528967"><ele>27.0</ele><time>2026-03-29T06:55:36.298Z</time></trkpt><trkpt lat="40.94037" lon="14.45297"><ele>27.0</ele><time>2026-03-29T06:55:37.298Z</time></trkpt><trkpt lat="40.9403183" lon="14.4530467"><ele>27.0</ele><time>2026-03-29T06:55:38.296Z</time></trkpt><trkpt lat="40.940265" lon="14.4531233"><ele>27.0</ele><time>2026-03-29T06:55:39.295Z</time></trkpt><trkpt lat="40.9402117" lon="14.4532"><ele>27.0</ele><time>2026-03-29T06:55:40.295Z</time></trkpt><trkpt lat="40.94016" lon="14.4532783"><ele>27.0</ele><time>2026-03-29T06:55:41.299Z</time></trkpt><trkpt lat="40.9401033" lon="14.4533533"><ele>27.0</ele><time>2026-03-29T06:55:42.296Z</time></trkpt><trkpt lat="40.9400417" lon="14.4534267"><ele>27.0</ele><time>2026-03-29T06:55:43.296Z</time></trkpt><trkpt lat="40.93998" lon="14.4534983"><ele>27.0</ele><time>2026-03-29T06:55:44.295Z</time></trkpt><trkpt lat="40.9399183" lon="14.453565"><ele>27.0</ele><time>2026-03-29T06:55:45.294Z</time></trkpt><trkpt lat="40.9398583" lon="14.45363"><ele>27.166666666666668</ele><time>2026-03-29T06:55:46.295Z</time></trkpt><trkpt lat="40.939795" lon="14.4536867"><ele>27.333333333333336</ele><time>2026-03-29T06:55:47.296Z</time></trkpt><trkpt lat="40.9397267" lon="14.4537367"><ele>27.5</ele><time>2026-03-29T06:55:48.298Z</time></trkpt><trkpt lat="40.939655" lon="14.4537817"><ele>27.666666666666668</ele><time>2026-03-29T06:55:49.296Z</time></trkpt><trkpt lat="40.93958" lon="14.4538217"><ele>27.833333333333336</ele><time>2026-03-29T06:55:50.298Z</time></trkpt><trkpt lat="40.9395033" lon="14.4538517"><ele>28.0</ele><time>2026-03-29T06:55:51.298Z</time></trkpt><trkpt lat="40.9394267" lon="14.4538717"><ele>28.000000000000004</ele><time>2026-03-29T06:55:52.298Z</time></trkpt><trkpt lat="40.9393467" lon="14.45389"><ele>28.0</ele><time>2026-03-29T06:55:53.298Z</time></trkpt><trkpt lat="40.9392717" lon="14.45391"><ele>28.0</ele><time>2026-03-29T06:55:54.298Z</time></trkpt><trkpt lat="40.939195" lon="14.45393"><ele>28.0</ele><time>2026-03-29T06:55:55.299Z</time></trkpt><trkpt lat="40.9391167" lon="14.45395"><ele>28.000000000000004</ele><time>2026-03-29T06:55:56.298Z</time></trkpt><trkpt lat="40.9390367" lon="14.45397"><ele>28.0</ele><time>2026-03-29T06:55:57.297Z</time></trkpt><trkpt lat="40.938955" lon="14.453985"><ele>28.000000000000004</ele><time>2026-03-29T06:55:58.298Z</time></trkpt><trkpt lat="40.9388767" lon="14.454"><ele>28.0</ele><time>2026-03-29T06:55:59.297Z</time></trkpt><trkpt lat="40.9388" lon="14.454015"><ele>28.0</ele><time>2026-03-29T06:56:00.298Z</time></trkpt><trkpt lat="40.9387233" lon="14.45402"><ele>28.0</ele><time>2026-03-29T06:56:01.298Z</time></trkpt><trkpt lat="40.9386417" lon="14.4540267"><ele>28.000000000000004</ele><time>2026-03-29T06:56:02.295Z</time></trkpt><trkpt lat="40.9385633" lon="14.4540367"><ele>28.0</ele><time>2026-03-29T06:56:03.297Z</time></trkpt><trkpt lat="40.938485" lon="14.4540483"><ele>28.000000000000004</ele><time>2026-03-29T06:56:04.297Z</time></trkpt><trkpt lat="40.938405" lon="14.45406"><ele>28.0</ele><time>2026-03-29T06:56:05.297Z</time></trkpt><trkpt lat="40.938325" lon="14.4540667"><ele>28.0</ele><time>2026-03-29T06:56:06.297Z</time></trkpt><trkpt lat="40.9382433" lon="14.454075"><ele>28.0</ele><time>2026-03-29T06:56:07.299Z</time></trkpt><trkpt lat="40.9381567" lon="14.454085"><ele>28.000000000000004</ele><time>2026-03-29T06:56:08.297Z</time></trkpt><trkpt lat="40.9380733" lon="14.4540917"><ele>28.0</ele><time>2026-03-29T06:56:09.298Z</time></trkpt><trkpt lat="40.9379933" lon="14.454095"><ele>28.000000000000004</ele><time>2026-03-29T06:56:10.297Z</time></trkpt><trkpt lat="40.9379183" lon="14.4540983"><ele>28.0</ele><time>2026-03-29T06:56:11.297Z</time></trkpt><trkpt lat="40.93784" lon="14.454105"><ele>28.0</ele><time>2026-03-29T06:56:12.298Z</time></trkpt><trkpt lat="40.9377633" lon="14.4541133"><ele>28.0</ele><time>2026-03-29T06:56:13.298Z</time></trkpt><trkpt lat="40.9376867" lon="14.45412"><ele>28.000000000000004</ele><time>2026-03-29T06:56:14.297Z</time></trkpt><trkpt lat="40.937605" lon="14.4541267"><ele>28.0</ele><time>2026-03-29T06:56:15.295Z</time></trkpt><trkpt lat="40.9375233" lon="14.4541333"><ele>28.166666666666668</ele><time>2026-03-29T06:56:16.297Z</time></trkpt><trkpt lat="40.937445" lon="14.45414"><ele>28.333333333333336</ele><time>2026-03-29T06:56:17.297Z</time></trkpt><trkpt lat="40.9373717" lon="14.454145"><ele>28.5</ele><time>2026-03-29T06:56:18.297Z</time></trkpt><trkpt lat="40.937295" lon="14.45415"><ele>28.666666666666664</ele><time>2026-03-29T06:56:19.298Z</time></trkpt><trkpt lat="40.9372217" lon="14.454155"><ele>28.833333333333332</ele><time>2026-03-29T06:56:20.297Z</time></trkpt><trkpt lat="40.9371483" lon="14.4541617"><ele>29.0</ele><time>2026-03-29T06:56:21.297Z</time></trkpt><trkpt lat="40.9370733" lon="14.4541683"><ele>29.000000000000004</ele><time>2026-03-29T06:56:22.297Z</time></trkpt><trkpt lat="40.9369983" lon="14.4541733"><ele>29.0</ele><time>2026-03-29T06:56:23.297Z</time></trkpt><trkpt lat="40.9369283" lon="14.4541783"><ele>29.000000000000004</ele><time>2026-03-29T06:56:24.297Z</time></trkpt><trkpt lat="40.9368533" lon="14.454185"><ele>29.000000000000004</ele><time>2026-03-29T06:56:25.298Z</time></trkpt><trkpt lat="40.9367833" lon="14.4541917"><ele>29.0</ele><time>2026-03-29T06:56:26.298Z</time></trkpt><trkpt lat="40.9367117" lon="14.4541967"><ele>29.000000000000004</ele><time>2026-03-29T06:56:27.297Z</time></trkpt><trkpt lat="40.93664" lon="14.4542"><ele>29.000000000000004</ele><time>2026-03-29T06:56:28.297Z</time></trkpt><trkpt lat="40.9365667" lon="14.4542033"><ele>28.85714285714286</ele><time>2026-03-29T06:56:29.295Z</time></trkpt><trkpt lat="40.936495" lon="14.4542067"><ele>28.714285714285715</ele><time>2026-03-29T06:56:30.298Z</time></trkpt><trkpt lat="40.9364233" lon="14.454215"><ele>28.571428571428573</ele><time>2026-03-29T06:56:31.297Z</time></trkpt><trkpt lat="40.9363533" lon="14.45422"><ele>28.42857142857143</ele><time>2026-03-29T06:56:32.297Z</time></trkpt><trkpt lat="40.9362867" lon="14.4542183"><ele>28.285714285714285</ele><time>2026-03-29T06:56:33.297Z</time></trkpt><trkpt lat="40.9362167" lon="14.45422"><ele>28.142857142857142</ele><time>2026-03-29T06:56:34.297Z</time></trkpt><trkpt lat="40.93615" lon="14.4542233"><ele>28.0</ele><time>2026-03-29T06:56:35.297Z</time></trkpt><trkpt lat="40.9360817" lon="14.45423"><ele>28.0</ele><time>2026-03-29T06:56:36.294Z</time></trkpt><trkpt lat="40.936015" lon="14.4542367"><ele>28.0</ele><time>2026-03-29T06:56:37.298Z</time></trkpt><trkpt lat="40.9359433" lon="14.4542433"><ele>28.0</ele><time>2026-03-29T06:56:38.298Z</time></trkpt><trkpt lat="40.93587" lon="14.4542633"><ele>28.0</ele><time>2026-03-29T06:56:39.297Z</time></trkpt><trkpt lat="40.9358033" lon="14.4542933"><ele>28.0</ele><time>2026-03-29T06:56:40.295Z</time></trkpt><trkpt lat="40.9357383" lon="14.4543317"><ele>28.0</ele><time>2026-03-29T06:56:41.298Z</time></trkpt><trkpt lat="40.935675" lon="14.45437"><ele>28.0</ele><time>2026-03-29T06:56:42.297Z</time></trkpt><trkpt lat="40.9356167" lon="14.45441"><ele>28.142857142857142</ele><time>2026-03-29T06:56:43.298Z</time></trkpt><trkpt lat="40.93556" lon="14.4544533"><ele>28.285714285714285</ele><time>2026-03-29T06:56:44.297Z</time></trkpt><trkpt lat="40.9354967" lon="14.4544917"><ele>28.42857142857143</ele><time>2026-03-29T06:56:45.297Z</time></trkpt><trkpt lat="40.9354333" lon="14.4545267"><ele>28.571428571428573</ele><time>2026-03-29T06:56:46.298Z</time></trkpt><trkpt lat="40.9353683" lon="14.45456"><ele>28.714285714285715</ele><time>2026-03-29T06:56:47.297Z</time></trkpt><trkpt lat="40.9353033" lon="14.45459"><ele>28.85714285714286</ele><time>2026-03-29T06:56:48.297Z</time></trkpt><trkpt lat="40.9352417" lon="14.454615"><ele>29.000000000000004</ele><time>2026-03-29T06:56:49.298Z</time></trkpt><trkpt lat="40.935175" lon="14.45464"><ele>29.000000000000004</ele><time>2026-03-29T06:56:50.297Z</time></trkpt><trkpt lat="40.9351067" lon="14.454655"><ele>29.0</ele><time>2026-03-29T06:56:51.297Z</time></trkpt><trkpt lat="40.93504" lon="14.45467"><ele>29.000000000000004</ele><time>2026-03-29T06:56:52.297Z</time></trkpt><trkpt lat="40.9349717" lon="14.4546767"><ele>29.000000000000004</ele><time>2026-03-29T06:56:53.297Z</time></trkpt><trkpt lat="40.934905" lon="14.4546833"><ele>29.0</ele><time>2026-03-29T06:56:54.297Z</time></trkpt><trkpt lat="40.934835" lon="14.454685"><ele>29.000000000000004</ele><time>2026-03-29T06:56:55.297Z</time></trkpt><trkpt lat="40.9347633" lon="14.4546867"><ele>29.000000000000004</ele><time>2026-03-29T06:56:56.297Z</time></trkpt><trkpt lat="40.9347" lon="14.4546833"><ele>29.333333333333332</ele><time>2026-03-29T06:56:57.297Z</time></trkpt><trkpt lat="40.9345717" lon="14.4546867"><ele>29.666666666666664</ele><time>2026-03-29T06:56:59.297Z</time></trkpt><trkpt lat="40.9345067" lon="14.454685"><ele>30.0</ele><time>2026-03-29T06:57:00.297Z</time></trkpt><trkpt lat="40.9344433" lon="14.4546817"><ele>30.333333333333336</ele><time>2026-03-29T06:57:01.298Z</time></trkpt><trkpt lat="40.934375" lon="14.45468"><ele>30.666666666666668</ele><time>2026-03-29T06:57:02.298Z</time></trkpt><trkpt lat="40.934305" lon="14.4546783"><ele>31.0</ele><time>2026-03-29T06:57:03.297Z</time></trkpt><trkpt lat="40.93424" lon="14.4546783"><ele>31.142857142857146</ele><time>2026-03-29T06:57:04.297Z</time></trkpt><trkpt lat="40.9341683" lon="14.4546767"><ele>31.28571428571429</ele><time>2026-03-29T06:57:05.298Z</time></trkpt><trkpt lat="40.9340983" lon="14.45467"><ele>31.42857142857143</ele><time>2026-03-29T06:57:06.298Z</time></trkpt><trkpt lat="40.93403" lon="14.4546683"><ele>31.57142857142857</ele><time>2026-03-29T06:57:07.298Z</time></trkpt><trkpt lat="40.9339617" lon="14.4546633"><ele>31.71428571428571</ele><time>2026-03-29T06:57:08.298Z</time></trkpt><trkpt lat="40.9338917" lon="14.454655"><ele>31.857142857142854</ele><time>2026-03-29T06:57:09.294Z</time></trkpt><trkpt lat="40.9338267" lon="14.4546517"><ele>32.0</ele><time>2026-03-29T06:57:10.297Z</time></trkpt><trkpt lat="40.93376" lon="14.4546467"><ele>31.999999999999996</ele><time>2026-03-29T06:57:11.296Z</time></trkpt><trkpt lat="40.9336367" lon="14.4546367"><ele>32.0</ele><time>2026-03-29T06:57:13.295Z</time></trkpt><trkpt lat="40.9335717" lon="14.4546367"><ele>32.0</ele><time>2026-03-29T06:57:14.295Z</time></trkpt><trkpt lat="40.9335083" lon="14.4546333"><ele>32.0</ele><time>2026-03-29T06:57:15.297Z</time></trkpt><trkpt lat="40.9334433" lon="14.4546333"><ele>31.999999999999996</ele><time>2026-03-29T06:57:16.294Z</time></trkpt><trkpt lat="40.9333767" lon="14.454635"><ele>32.0</ele><time>2026-03-29T06:57:17.297Z</time></trkpt><trkpt lat="40.9332533" lon="14.4546317"><ele>32.0</ele><time>2026-03-29T06:57:19.298Z</time></trkpt><trkpt lat="40.9331367" lon="14.4546267"><ele>32.0</ele><time>2026-03-29T06:57:21.297Z</time></trkpt><trkpt lat="40.9330733" lon="14.4546217"><ele>32.0</ele><time>2026-03-29T06:57:22.297Z</time></trkpt><trkpt lat="40.9330083" lon="14.4546167"><ele>32.0</ele><time>2026-03-29T06:57:23.297Z</time></trkpt><trkpt lat="40.9328967" lon="14.45458"><ele>32.0</ele><time>2026-03-29T06:57:25.298Z</time></trkpt><trkpt lat="40.9328" lon="14.4545"><ele>31.833333333333332</ele><time>2026-03-29T06:57:27.297Z</time></trkpt><trkpt lat="40.9327317" lon="14.4544167"><ele>31.666666666666664</ele><time>2026-03-29T06:57:29.295Z</time></trkpt><trkpt lat="40.9326567" lon="14.4543883"><ele>31.5</ele><time>2026-03-29T06:57:32.298Z</time></trkpt><trkpt lat="40.9326" lon="14.454445"><ele>31.333333333333336</ele><time>2026-03-29T06:57:34.297Z</time></trkpt><trkpt lat="40.9325183" lon="14.4545433"><ele>31.166666666666668</ele><time>2026-03-29T06:57:36.298Z</time></trkpt><trkpt lat="40.9324717" lon="14.4546017"><ele>31.0</ele><time>2026-03-29T06:57:37.295Z</time></trkpt><trkpt lat="40.9324367" lon="14.4546717"><ele>31.0</ele><time>2026-03-29T06:57:38.295Z</time></trkpt><trkpt lat="40.9324233" lon="14.4548283"><ele>31.0</ele><time>2026-03-29T06:57:40.297Z</time></trkpt><trkpt lat="40.9324333" lon="14.4549817"><ele>31.0</ele><time>2026-03-29T06:57:42.298Z</time></trkpt><trkpt lat="40.9324117" lon="14.4551417"><ele>31.0</ele><time>2026-03-29T06:57:44.296Z</time></trkpt><trkpt lat="40.9323883" lon="14.4552267"><ele>31.0</ele><time>2026-03-29T06:57:45.295Z</time></trkpt><trkpt lat="40.9323633" lon="14.4553117"><ele>31.0</ele><time>2026-03-29T06:57:46.296Z</time></trkpt><trkpt lat="40.9323417" lon="14.4554017"><ele>31.000000000000004</ele><time>2026-03-29T06:57:47.296Z</time></trkpt><trkpt lat="40.9323183" lon="14.4554967"><ele>31.0</ele><time>2026-03-29T06:57:48.296Z</time></trkpt><trkpt lat="40.9322933" lon="14.4555867"><ele>31.0</ele><time>2026-03-29T06:57:49.296Z</time></trkpt><trkpt lat="40.93227" lon="14.4556783"><ele>31.000000000000004</ele><time>2026-03-29T06:57:50.296Z</time></trkpt><trkpt lat="40.9322467" lon="14.45577"><ele>31.0</ele><time>2026-03-29T06:57:51.296Z</time></trkpt><trkpt lat="40.9322233" lon="14.45586"><ele>31.0</ele><time>2026-03-29T06:57:52.295Z</time></trkpt><trkpt lat="40.9322" lon="14.4559433"><ele>31.142857142857146</ele><time>2026-03-29T06:57:53.297Z</time></trkpt><trkpt lat="40.9321717" lon="14.456025"><ele>31.28571428571429</ele><time>2026-03-29T06:57:54.295Z</time></trkpt><trkpt lat="40.932145" lon="14.4561117"><ele>31.42857142857143</ele><time>2026-03-29T06:57:55.297Z</time></trkpt><trkpt lat="40.932125" lon="14.4561983"><ele>31.57142857142857</ele><time>2026-03-29T06:57:56.296Z</time></trkpt><trkpt lat="40.932105" lon="14.4562833"><ele>31.71428571428571</ele><time>2026-03-29T06:57:57.296Z</time></trkpt><trkpt lat="40.9320833" lon="14.456365"><ele>31.857142857142854</ele><time>2026-03-29T06:57:58.295Z</time></trkpt><trkpt lat="40.93206" lon="14.4564483"><ele>32.0</ele><time>2026-03-29T06:57:59.297Z</time></trkpt><trkpt lat="40.932035" lon="14.4565283"><ele>31.71428571428571</ele><time>2026-03-29T06:58:00.295Z</time></trkpt><trkpt lat="40.93201" lon="14.456605"><ele>31.428571428571423</ele><time>2026-03-29T06:58:01.295Z</time></trkpt><trkpt lat="40.9319833" lon="14.4566833"><ele>31.142857142857142</ele><time>2026-03-29T06:58:02.296Z</time></trkpt><trkpt lat="40.9319583" lon="14.4567633"><ele>30.857142857142854</ele><time>2026-03-29T06:58:03.295Z</time></trkpt><trkpt lat="40.9319367" lon="14.4568483"><ele>30.57142857142857</ele><time>2026-03-29T06:58:04.294Z</time></trkpt><trkpt lat="40.9319167" lon="14.45693"><ele>30.285714285714285</ele><time>2026-03-29T06:58:05.296Z</time></trkpt><trkpt lat="40.9318933" lon="14.45701"><ele>30.0</ele><time>2026-03-29T06:58:06.296Z</time></trkpt><trkpt lat="40.9318667" lon="14.4570933"><ele>30.0</ele><time>2026-03-29T06:58:07.297Z</time></trkpt><trkpt lat="40.93184" lon="14.457175"><ele>30.0</ele><time>2026-03-29T06:58:08.296Z</time></trkpt><trkpt lat="40.9318133" lon="14.45726"><ele>30.0</ele><time>2026-03-29T06:58:09.296Z</time></trkpt><trkpt lat="40.93179" lon="14.4573483"><ele>30.0</ele><time>2026-03-29T06:58:10.295Z</time></trkpt><trkpt lat="40.9317667" lon="14.4574333"><ele>30.0</ele><time>2026-03-29T06:58:11.297Z</time></trkpt><trkpt lat="40.931745" lon="14.4575133"><ele>30.0</ele><time>2026-03-29T06:58:12.297Z</time></trkpt><trkpt lat="40.93172" lon="14.4576"><ele>30.0</ele><time>2026-03-29T06:58:13.297Z</time></trkpt><trkpt lat="40.9316933" lon="14.457685"><ele>30.0</ele><time>2026-03-29T06:58:14.297Z</time></trkpt><trkpt lat="40.9316683" lon="14.4577683"><ele>30.0</ele><time>2026-03-29T06:58:15.295Z</time></trkpt><trkpt lat="40.931645" lon="14.4578467"><ele>30.0</ele><time>2026-03-29T06:58:16.296Z</time></trkpt><trkpt lat="40.93162" lon="14.4579267"><ele>30.0</ele><time>2026-03-29T06:58:17.295Z</time></trkpt><trkpt lat="40.9315933" lon="14.4580083"><ele>30.0</ele><time>2026-03-29T06:58:18.294Z</time></trkpt><trkpt lat="40.93157" lon="14.45809"><ele>30.0</ele><time>2026-03-29T06:58:19.297Z</time></trkpt><trkpt lat="40.9315483" lon="14.4581783"><ele>30.0</ele><time>2026-03-29T06:58:20.295Z</time></trkpt><trkpt lat="40.9315233" lon="14.4582667"><ele>30.0</ele><time>2026-03-29T06:58:21.294Z</time></trkpt><trkpt lat="40.9315017" lon="14.4583533"><ele>30.0</ele><time>2026-03-29T06:58:22.297Z</time></trkpt><trkpt lat="40.93148" lon="14.45844"><ele>30.0</ele><time>2026-03-29T06:58:23.297Z</time></trkpt><trkpt lat="40.9314533" lon="14.4585333"><ele>30.0</ele><time>2026-03-29T06:58:24.296Z</time></trkpt><trkpt lat="40.9314267" lon="14.458625"><ele>30.0</ele><time>2026-03-29T06:58:25.297Z</time></trkpt><trkpt lat="40.9314" lon="14.4587133"><ele>30.0</ele><time>2026-03-29T06:58:26.296Z</time></trkpt><trkpt lat="40.9313767" lon="14.4587983"><ele>30.0</ele><time>2026-03-29T06:58:27.296Z</time></trkpt><trkpt lat="40.9313517" lon="14.4588883"><ele>30.0</ele><time>2026-03-29T06:58:28.295Z</time></trkpt><trkpt lat="40.9313267" lon="14.45898"><ele>30.0</ele><time>2026-03-29T06:58:29.297Z</time></trkpt><trkpt lat="40.9313017" lon="14.4590733"><ele>30.0</ele><time>2026-03-29T06:58:30.296Z</time></trkpt><trkpt lat="40.9312717" lon="14.459165"><ele>30.0</ele><time>2026-03-29T06:58:31.295Z</time></trkpt><trkpt lat="40.9312433" lon="14.459255"><ele>30.0</ele><time>2026-03-29T06:58:32.297Z</time></trkpt><trkpt lat="40.931215" lon="14.4593483"><ele>30.0</ele><time>2026-03-29T06:58:33.294Z</time></trkpt><trkpt lat="40.9311917" lon="14.45944"><ele>30.0</ele><time>2026-03-29T06:58:34.298Z</time></trkpt><trkpt lat="40.931165" lon="14.4595333"><ele>29.857142857142858</ele><time>2026-03-29T06:58:35.298Z</time></trkpt><trkpt lat="40.93114" lon="14.4596267"><ele>29.714285714285715</ele><time>2026-03-29T06:58:36.297Z</time></trkpt><trkpt lat="40.9311117" lon="14.45972"><ele>29.571428571428573</ele><time>2026-03-29T06:58:37.297Z</time></trkpt><trkpt lat="40.9310833" lon="14.4598083"><ele>29.42857142857143</ele><time>2026-03-29T06:58:38.297Z</time></trkpt><trkpt lat="40.9310583" lon="14.4598983"><ele>29.285714285714285</ele><time>2026-03-29T06:58:39.296Z</time></trkpt><trkpt lat="40.9310317" lon="14.45999"><ele>29.142857142857146</ele><time>2026-03-29T06:58:40.295Z</time></trkpt><trkpt lat="40.9310033" lon="14.4600833"><ele>29.000000000000004</ele><time>2026-03-29T06:58:41.296Z</time></trkpt><trkpt lat="40.930975" lon="14.4601783"><ele>28.999999999999996</ele><time>2026-03-29T06:58:42.297Z</time></trkpt><trkpt lat="40.9309467" lon="14.4602767"><ele>29.0</ele><time>2026-03-29T06:58:43.296Z</time></trkpt><trkpt lat="40.93092" lon="14.46037"><ele>29.0</ele><time>2026-03-29T06:58:44.298Z</time></trkpt><trkpt lat="40.93089" lon="14.4604667"><ele>29.0</ele><time>2026-03-29T06:58:45.296Z</time></trkpt><trkpt lat="40.9308617" lon="14.4605617"><ele>28.999999999999996</ele><time>2026-03-29T06:58:46.298Z</time></trkpt><trkpt lat="40.93083" lon="14.460655"><ele>29.0</ele><time>2026-03-29T06:58:47.294Z</time></trkpt><trkpt lat="40.930805" lon="14.4607533"><ele>28.833333333333332</ele><time>2026-03-29T06:58:48.297Z</time></trkpt><trkpt lat="40.9307833" lon="14.4608533"><ele>28.666666666666664</ele><time>2026-03-29T06:58:49.297Z</time></trkpt><trkpt lat="40.9307633" lon="14.46095"><ele>28.5</ele><time>2026-03-29T06:58:50.296Z</time></trkpt><trkpt lat="40.930745" lon="14.4610467"><ele>28.333333333333336</ele><time>2026-03-29T06:58:51.295Z</time></trkpt><trkpt lat="40.9307267" lon="14.4611433"><ele>28.166666666666668</ele><time>2026-03-29T06:58:52.299Z</time></trkpt><trkpt lat="40.93071" lon="14.4612433"><ele>28.0</ele><time>2026-03-29T06:58:53.298Z</time></trkpt><trkpt lat="40.930695" lon="14.461345"><ele>28.000000000000004</ele><time>2026-03-29T06:58:54.298Z</time></trkpt><trkpt lat="40.9306783" lon="14.4614467"><ele>28.0</ele><time>2026-03-29T06:58:55.299Z</time></trkpt><trkpt lat="40.9306633" lon="14.4615467"><ele>28.0</ele><time>2026-03-29T06:58:56.298Z</time></trkpt><trkpt lat="40.9306483" lon="14.4616483"><ele>28.0</ele><time>2026-03-29T06:58:57.295Z</time></trkpt><trkpt lat="40.9306333" lon="14.461755"><ele>28.000000000000004</ele><time>2026-03-29T06:58:58.296Z</time></trkpt><trkpt lat="40.9306183" lon="14.4618633"><ele>28.0</ele><time>2026-03-29T06:58:59.295Z</time></trkpt><trkpt lat="40.9306033" lon="14.4619683"><ele>28.000000000000004</ele><time>2026-03-29T06:59:00.296Z</time></trkpt><trkpt lat="40.9305933" lon="14.4620733"><ele>28.0</ele><time>2026-03-29T06:59:01.295Z</time></trkpt><trkpt lat="40.9305883" lon="14.462175"><ele>28.0</ele><time>2026-03-29T06:59:02.297Z</time></trkpt><trkpt lat="40.9305817" lon="14.4622767"><ele>28.0</ele><time>2026-03-29T06:59:03.296Z</time></trkpt><trkpt lat="40.9305767" lon="14.462385"><ele>28.000000000000004</ele><time>2026-03-29T06:59:04.295Z</time></trkpt><trkpt lat="40.93057" lon="14.4624917"><ele>28.0</ele><time>2026-03-29T06:59:05.297Z</time></trkpt><trkpt lat="40.9305617" lon="14.4625917"><ele>28.166666666666668</ele><time>2026-03-29T06:59:06.296Z</time></trkpt><trkpt lat="40.93055" lon="14.462695"><ele>28.333333333333336</ele><time>2026-03-29T06:59:07.296Z</time></trkpt><trkpt lat="40.9305383" lon="14.4628033"><ele>28.5</ele><time>2026-03-29T06:59:08.297Z</time></trkpt><trkpt lat="40.9305317" lon="14.46291"><ele>28.666666666666664</ele><time>2026-03-29T06:59:09.296Z</time></trkpt><trkpt lat="40.930525" lon="14.4630183"><ele>28.833333333333332</ele><time>2026-03-29T06:59:10.297Z</time></trkpt><trkpt lat="40.93052" lon="14.4631267"><ele>29.0</ele><time>2026-03-29T06:59:11.298Z</time></trkpt><trkpt lat="40.930515" lon="14.4632333"><ele>28.999999999999996</ele><time>2026-03-29T06:59:12.295Z</time></trkpt><trkpt lat="40.93051" lon="14.4633417"><ele>29.0</ele><time>2026-03-29T06:59:13.297Z</time></trkpt><trkpt lat="40.9305067" lon="14.4634483"><ele>29.0</ele><time>2026-03-29T06:59:14.296Z</time></trkpt><trkpt lat="40.9305033" lon="14.4635533"><ele>29.0</ele><time>2026-03-29T06:59:15.298Z</time></trkpt><trkpt lat="40.9304967" lon="14.4636633"><ele>28.999999999999996</ele><time>2026-03-29T06:59:16.296Z</time></trkpt><trkpt lat="40.9304933" lon="14.46377"><ele>29.0</ele><time>2026-03-29T06:59:17.295Z</time></trkpt><trkpt lat="40.9304867" lon="14.4638817"><ele>28.833333333333332</ele><time>2026-03-29T06:59:18.296Z</time></trkpt><trkpt lat="40.93048" lon="14.4639983"><ele>28.666666666666664</ele><time>2026-03-29T06:59:19.297Z</time></trkpt><trkpt lat="40.9304733" lon="14.4641133"><ele>28.5</ele><time>2026-03-29T06:59:20.296Z</time></trkpt><trkpt lat="40.930465" lon="14.4642267"><ele>28.333333333333336</ele><time>2026-03-29T06:59:21.296Z</time></trkpt><trkpt lat="40.9304533" lon="14.4643367"><ele>28.166666666666668</ele><time>2026-03-29T06:59:22.297Z</time></trkpt><trkpt lat="40.9304383" lon="14.4644483"><ele>28.0</ele><time>2026-03-29T06:59:23.296Z</time></trkpt><trkpt lat="40.9304233" lon="14.4645617"><ele>28.166666666666668</ele><time>2026-03-29T06:59:24.295Z</time></trkpt><trkpt lat="40.9304067" lon="14.4646733"><ele>28.333333333333336</ele><time>2026-03-29T06:59:25.297Z</time></trkpt><trkpt lat="40.9303867" lon="14.4647817"><ele>28.5</ele><time>2026-03-29T06:59:26.296Z</time></trkpt><trkpt lat="40.930365" lon="14.464895"><ele>28.666666666666664</ele><time>2026-03-29T06:59:27.296Z</time></trkpt><trkpt lat="40.9303417" lon="14.4650033"><ele>28.833333333333332</ele><time>2026-03-29T06:59:28.297Z</time></trkpt><trkpt lat="40.9303183" lon="14.4651117"><ele>29.0</ele><time>2026-03-29T06:59:29.295Z</time></trkpt><trkpt lat="40.930295" lon="14.4652167"><ele>28.999999999999996</ele><time>2026-03-29T06:59:30.294Z</time></trkpt><trkpt lat="40.93027" lon="14.4653233"><ele>29.0</ele><time>2026-03-29T06:59:31.297Z</time></trkpt><trkpt lat="40.9302417" lon="14.4654267"><ele>29.0</ele><time>2026-03-29T06:59:32.297Z</time></trkpt><trkpt lat="40.9302133" lon="14.4655283"><ele>29.0</ele><time>2026-03-29T06:59:33.294Z</time></trkpt><trkpt lat="40.93018" lon="14.4656333"><ele>28.999999999999996</ele><time>2026-03-29T06:59:34.296Z</time></trkpt><trkpt lat="40.9301417" lon="14.4657383"><ele>29.0</ele><time>2026-03-29T06:59:35.297Z</time></trkpt><trkpt lat="40.930105" lon="14.4658433"><ele>28.999999999999996</ele><time>2026-03-29T06:59:36.295Z</time></trkpt><trkpt lat="40.93007" lon="14.4659467"><ele>29.0</ele><time>2026-03-29T06:59:37.297Z</time></trkpt><trkpt lat="40.93003" lon="14.4660517"><ele>29.0</ele><time>2026-03-29T06:59:38.297Z</time></trkpt><trkpt lat="40.9299883" lon="14.4661483"><ele>29.0</ele><time>2026-03-29T06:59:39.295Z</time></trkpt><trkpt lat="40.9299467" lon="14.4662467"><ele>28.999999999999996</ele><time>2026-03-29T06:59:40.297Z</time></trkpt><trkpt lat="40.929905" lon="14.4663433"><ele>29.0</ele><time>2026-03-29T06:59:41.297Z</time></trkpt><trkpt lat="40.9298617" lon="14.4664433"><ele>28.999999999999996</ele><time>2026-03-29T06:59:42.295Z</time></trkpt><trkpt lat="40.929815" lon="14.4665383"><ele>29.0</ele><time>2026-03-29T06:59:43.299Z</time></trkpt><trkpt lat="40.9297667" lon="14.46663"><ele>29.0</ele><time>2026-03-29T06:59:44.298Z</time></trkpt><trkpt lat="40.92972" lon="14.4667217"><ele>29.0</ele><time>2026-03-29T06:59:45.298Z</time></trkpt><trkpt lat="40.9296683" lon="14.4668133"><ele>28.999999999999996</ele><time>2026-03-29T06:59:46.296Z</time></trkpt><trkpt lat="40.929615" lon="14.4669067"><ele>29.0</ele><time>2026-03-29T06:59:47.296Z</time></trkpt><trkpt lat="40.92956" lon="14.467"><ele>28.999999999999996</ele><time>2026-03-29T06:59:48.297Z</time></trkpt><trkpt lat="40.9295067" lon="14.4670917"><ele>29.0</ele><time>2026-03-29T06:59:49.297Z</time></trkpt><trkpt lat="40.92945" lon="14.4671817"><ele>29.0</ele><time>2026-03-29T06:59:50.297Z</time></trkpt><trkpt lat="40.929395" lon="14.4672667"><ele>29.0</ele><time>2026-03-29T06:59:51.296Z</time></trkpt><trkpt lat="40.9293417" lon="14.4673583"><ele>28.999999999999996</ele><time>2026-03-29T06:59:52.296Z</time></trkpt><trkpt lat="40.9292867" lon="14.4674467"><ele>29.0</ele><time>2026-03-29T06:59:53.3Z</time></trkpt><trkpt lat="40.9292283" lon="14.467535"><ele>28.999999999999996</ele><time>2026-03-29T06:59:54.298Z</time></trkpt><trkpt lat="40.9291717" lon="14.4676217"><ele>29.0</ele><time>2026-03-29T06:59:55.298Z</time></trkpt><trkpt lat="40.9291117" lon="14.4677083"><ele>29.0</ele><time>2026-03-29T06:59:56.298Z</time></trkpt><trkpt lat="40.9290517" lon="14.4677917"><ele>29.0</ele><time>2026-03-29T06:59:57.296Z</time></trkpt><trkpt lat="40.9289933" lon="14.4678767"><ele>28.999999999999996</ele><time>2026-03-29T06:59:58.296Z</time></trkpt><trkpt lat="40.9289367" lon="14.4679617"><ele>29.0</ele><time>2026-03-29T06:59:59.296Z</time></trkpt><trkpt lat="40.9288783" lon="14.46805"><ele>28.999999999999996</ele><time>2026-03-29T07:00:00.295Z</time></trkpt><trkpt lat="40.92882" lon="14.4681333"><ele>29.0</ele><time>2026-03-29T07:00:01.295Z</time></trkpt><trkpt lat="40.9287617" lon="14.468215"><ele>29.0</ele><time>2026-03-29T07:00:02.295Z</time></trkpt><trkpt lat="40.9287067" lon="14.4682967"><ele>29.0</ele><time>2026-03-29T07:00:03.295Z</time></trkpt><trkpt lat="40.92865" lon="14.4683817"><ele>28.999999999999996</ele><time>2026-03-29T07:00:04.295Z</time></trkpt><trkpt lat="40.92859" lon="14.4684667"><ele>29.0</ele><time>2026-03-29T07:00:05.295Z</time></trkpt><trkpt lat="40.92853" lon="14.46855"><ele>28.999999999999996</ele><time>2026-03-29T07:00:06.295Z</time></trkpt><trkpt lat="40.9284767" lon="14.4686333"><ele>29.0</ele><time>2026-03-29T07:00:07.297Z</time></trkpt><trkpt lat="40.92842" lon="14.4687183"><ele>29.0</ele><time>2026-03-29T07:00:08.296Z</time></trkpt><trkpt lat="40.9283633" lon="14.4688017"><ele>29.0</ele><time>2026-03-29T07:00:09.296Z</time></trkpt><trkpt lat="40.9283083" lon="14.4688833"><ele>28.999999999999996</ele><time>2026-03-29T07:00:10.295Z</time></trkpt><trkpt lat="40.9282617" lon="14.468965"><ele>29.0</ele><time>2026-03-29T07:00:11.298Z</time></trkpt><trkpt lat="40.9282067" lon="14.4690467"><ele>28.999999999999996</ele><time>2026-03-29T07:00:12.298Z</time></trkpt><trkpt lat="40.9281533" lon="14.4691317"><ele>29.0</ele><time>2026-03-29T07:00:13.299Z</time></trkpt><trkpt lat="40.9281" lon="14.469215"><ele>29.0</ele><time>2026-03-29T07:00:14.298Z</time></trkpt><trkpt lat="40.9280483" lon="14.469295"><ele>29.0</ele><time>2026-03-29T07:00:15.298Z</time></trkpt><trkpt lat="40.927995" lon="14.4693717"><ele>28.999999999999996</ele><time>2026-03-29T07:00:16.295Z</time></trkpt><trkpt lat="40.92794" lon="14.46945"><ele>29.0</ele><time>2026-03-29T07:00:17.296Z</time></trkpt><trkpt lat="40.9278883" lon="14.46953"><ele>29.166666666666664</ele><time>2026-03-29T07:00:18.296Z</time></trkpt><trkpt lat="40.9278417" lon="14.4696133"><ele>29.333333333333332</ele><time>2026-03-29T07:00:19.297Z</time></trkpt><trkpt lat="40.9277967" lon="14.4696967"><ele>29.5</ele><time>2026-03-29T07:00:20.296Z</time></trkpt><trkpt lat="40.9277533" lon="14.4697817"><ele>29.666666666666664</ele><time>2026-03-29T07:00:21.296Z</time></trkpt><trkpt lat="40.9277067" lon="14.4698517"><ele>29.833333333333332</ele><time>2026-03-29T07:00:22.298Z</time></trkpt><trkpt lat="40.927655" lon="14.469925"><ele>30.0</ele><time>2026-03-29T07:00:23.295Z</time></trkpt><trkpt lat="40.9276" lon="14.469995"><ele>30.142857142857146</ele><time>2026-03-29T07:00:24.296Z</time></trkpt><trkpt lat="40.92754" lon="14.4700583"><ele>30.285714285714285</ele><time>2026-03-29T07:00:25.299Z</time></trkpt><trkpt lat="40.9274767" lon="14.47011"><ele>30.42857142857143</ele><time>2026-03-29T07:00:26.298Z</time></trkpt><trkpt lat="40.9274133" lon="14.47015"><ele>30.571428571428573</ele><time>2026-03-29T07:00:27.296Z</time></trkpt><trkpt lat="40.9273533" lon="14.47019"><ele>30.714285714285715</ele><time>2026-03-29T07:00:28.297Z</time></trkpt><trkpt lat="40.9273017" lon="14.4702483"><ele>30.857142857142858</ele><time>2026-03-29T07:00:29.296Z</time></trkpt><trkpt lat="40.9272683" lon="14.4703283"><ele>31.0</ele><time>2026-03-29T07:00:30.297Z</time></trkpt><trkpt lat="40.9272383" lon="14.4704267"><ele>30.833333333333336</ele><time>2026-03-29T07:00:31.297Z</time></trkpt><trkpt lat="40.9272033" lon="14.4705267"><ele>30.666666666666668</ele><time>2026-03-29T07:00:32.297Z</time></trkpt><trkpt lat="40.927155" lon="14.47062"><ele>30.5</ele><time>2026-03-29T07:00:33.295Z</time></trkpt><trkpt lat="40.92711" lon="14.4707017"><ele>30.333333333333336</ele><time>2026-03-29T07:00:34.297Z</time></trkpt><trkpt lat="40.9270583" lon="14.4707833"><ele>30.166666666666668</ele><time>2026-03-29T07:00:35.297Z</time></trkpt><trkpt lat="40.92701" lon="14.4708617"><ele>30.0</ele><time>2026-03-29T07:00:36.297Z</time></trkpt><trkpt lat="40.9269683" lon="14.4709433"><ele>30.0</ele><time>2026-03-29T07:00:37.297Z</time></trkpt><trkpt lat="40.9269267" lon="14.4710267"><ele>30.0</ele><time>2026-03-29T07:00:38.297Z</time></trkpt><trkpt lat="40.9268833" lon="14.4711083"><ele>30.0</ele><time>2026-03-29T07:00:39.296Z</time></trkpt><trkpt lat="40.9268433" lon="14.4711917"><ele>30.0</ele><time>2026-03-29T07:00:40.297Z</time></trkpt><trkpt lat="40.926805" lon="14.471275"><ele>30.0</ele><time>2026-03-29T07:00:41.297Z</time></trkpt><trkpt lat="40.9267683" lon="14.4713617"><ele>30.0</ele><time>2026-03-29T07:00:42.296Z</time></trkpt><trkpt lat="40.92673" lon="14.4714517"><ele>29.833333333333332</ele><time>2026-03-29T07:00:43.297Z</time></trkpt><trkpt lat="40.9266917" lon="14.4715417"><ele>29.666666666666664</ele><time>2026-03-29T07:00:44.297Z</time></trkpt><trkpt lat="40.926655" lon="14.4716317"><ele>29.5</ele><time>2026-03-29T07:00:45.297Z</time></trkpt><trkpt lat="40.92662" lon="14.4717217"><ele>29.333333333333332</ele><time>2026-03-29T07:00:46.295Z</time></trkpt><trkpt lat="40.9265867" lon="14.4718083"><ele>29.166666666666664</ele><time>2026-03-29T07:00:47.296Z</time></trkpt><trkpt lat="40.9265533" lon="14.4718983"><ele>29.0</ele><time>2026-03-29T07:00:48.297Z</time></trkpt><trkpt lat="40.92652" lon="14.4719917"><ele>29.000000000000004</ele><time>2026-03-29T07:00:49.297Z</time></trkpt><trkpt lat="40.9264917" lon="14.4720867"><ele>29.0</ele><time>2026-03-29T07:00:50.297Z</time></trkpt><trkpt lat="40.926465" lon="14.47218"><ele>29.000000000000004</ele><time>2026-03-29T07:00:51.295Z</time></trkpt><trkpt lat="40.9264383" lon="14.472275"><ele>29.000000000000004</ele><time>2026-03-29T07:00:52.297Z</time></trkpt><trkpt lat="40.9264133" lon="14.4723667"><ele>29.0</ele><time>2026-03-29T07:00:53.295Z</time></trkpt><trkpt lat="40.9263883" lon="14.4724567"><ele>29.000000000000004</ele><time>2026-03-29T07:00:54.297Z</time></trkpt><trkpt lat="40.926365" lon="14.472545"><ele>29.000000000000004</ele><time>2026-03-29T07:00:55.297Z</time></trkpt><trkpt lat="40.926345" lon="14.4726317"><ele>29.000000000000004</ele><time>2026-03-29T07:00:56.296Z</time></trkpt><trkpt lat="40.926325" lon="14.47272"><ele>29.0</ele><time>2026-03-29T07:00:57.295Z</time></trkpt><trkpt lat="40.9263067" lon="14.47281"><ele>29.000000000000004</ele><time>2026-03-29T07:00:58.297Z</time></trkpt><trkpt lat="40.9262883" lon="14.4728983"><ele>29.000000000000004</ele><time>2026-03-29T07:00:59.297Z</time></trkpt><trkpt lat="40.9262733" lon="14.4729883"><ele>29.0</ele><time>2026-03-29T07:01:00.297Z</time></trkpt><trkpt lat="40.9262583" lon="14.4730817"><ele>29.000000000000004</ele><time>2026-03-29T07:01:01.296Z</time></trkpt><trkpt lat="40.9262433" lon="14.47317"><ele>29.000000000000004</ele><time>2026-03-29T07:01:02.297Z</time></trkpt><trkpt lat="40.9262317" lon="14.4732667"><ele>29.142857142857146</ele><time>2026-03-29T07:01:03.295Z</time></trkpt><trkpt lat="40.92622" lon="14.47336"><ele>29.285714285714285</ele><time>2026-03-29T07:01:04.296Z</time></trkpt><trkpt lat="40.9262117" lon="14.4734517"><ele>29.42857142857143</ele><time>2026-03-29T07:01:05.296Z</time></trkpt><trkpt lat="40.926205" lon="14.4735417"><ele>29.571428571428573</ele><time>2026-03-29T07:01:06.296Z</time></trkpt><trkpt lat="40.9261967" lon="14.4736317"><ele>29.714285714285715</ele><time>2026-03-29T07:01:07.297Z</time></trkpt><trkpt lat="40.92619" lon="14.47372"><ele>29.857142857142858</ele><time>2026-03-29T07:01:08.296Z</time></trkpt><trkpt lat="40.9261817" lon="14.4738117"><ele>30.0</ele><time>2026-03-29T07:01:09.296Z</time></trkpt><trkpt lat="40.9261733" lon="14.473905"><ele>29.714285714285715</ele><time>2026-03-29T07:01:10.296Z</time></trkpt><trkpt lat="40.926165" lon="14.4739983"><ele>29.428571428571427</ele><time>2026-03-29T07:01:11.296Z</time></trkpt><trkpt lat="40.9261583" lon="14.47409"><ele>29.142857142857142</ele><time>2026-03-29T07:01:12.297Z</time></trkpt><trkpt lat="40.9261483" lon="14.4741833"><ele>28.857142857142858</ele><time>2026-03-29T07:01:13.297Z</time></trkpt><trkpt lat="40.92614" lon="14.474275"><ele>28.57142857142857</ele><time>2026-03-29T07:01:14.296Z</time></trkpt><trkpt lat="40.9261333" lon="14.474365"><ele>28.285714285714285</ele><time>2026-03-29T07:01:15.296Z</time></trkpt><trkpt lat="40.9261217" lon="14.474455"><ele>28.0</ele><time>2026-03-29T07:01:16.296Z</time></trkpt><trkpt lat="40.9261" lon="14.4745367"><ele>28.0</ele><time>2026-03-29T07:01:17.297Z</time></trkpt><trkpt lat="40.926065" lon="14.4746133"><ele>28.0</ele><time>2026-03-29T07:01:18.297Z</time></trkpt><trkpt lat="40.9260183" lon="14.4746833"><ele>28.0</ele><time>2026-03-29T07:01:19.297Z</time></trkpt><trkpt lat="40.92598" lon="14.4747583"><ele>28.0</ele><time>2026-03-29T07:01:20.296Z</time></trkpt><trkpt lat="40.9259617" lon="14.4748517"><ele>28.0</ele><time>2026-03-29T07:01:21.296Z</time></trkpt><trkpt lat="40.9259717" lon="14.47495"><ele>28.0</ele><time>2026-03-29T07:01:22.297Z</time></trkpt><trkpt lat="40.925995" lon="14.4750433"><ele>28.0</ele><time>2026-03-29T07:01:23.3Z</time></trkpt><trkpt lat="40.9260433" lon="14.47513"><ele>28.000000000000004</ele><time>2026-03-29T07:01:24.299Z</time></trkpt><trkpt lat="40.9260883" lon="14.4752133"><ele>28.0</ele><time>2026-03-29T07:01:25.297Z</time></trkpt><trkpt lat="40.92613" lon="14.47531"><ele>28.0</ele><time>2026-03-29T07:01:26.295Z</time></trkpt><trkpt lat="40.926165" lon="14.4754083"><ele>28.0</ele><time>2026-03-29T07:01:27.297Z</time></trkpt><trkpt lat="40.926195" lon="14.475505"><ele>28.000000000000004</ele><time>2026-03-29T07:01:28.297Z</time></trkpt><trkpt lat="40.9262233" lon="14.4756017"><ele>28.0</ele><time>2026-03-29T07:01:29.297Z</time></trkpt><trkpt lat="40.9262517" lon="14.4757017"><ele>28.166666666666668</ele><time>2026-03-29T07:01:30.297Z</time></trkpt><trkpt lat="40.92628" lon="14.4757967"><ele>28.333333333333336</ele><time>2026-03-29T07:01:31.297Z</time></trkpt><trkpt lat="40.926305" lon="14.4758933"><ele>28.5</ele><time>2026-03-29T07:01:32.295Z</time></trkpt><trkpt lat="40.92633" lon="14.4759917"><ele>28.666666666666664</ele><time>2026-03-29T07:01:33.296Z</time></trkpt><trkpt lat="40.926355" lon="14.47609"><ele>28.833333333333332</ele><time>2026-03-29T07:01:34.297Z</time></trkpt><trkpt lat="40.92638" lon="14.4761867"><ele>29.0</ele><time>2026-03-29T07:01:35.297Z</time></trkpt><trkpt lat="40.9264067" lon="14.47628"><ele>29.285714285714292</ele><time>2026-03-29T07:01:36.296Z</time></trkpt><trkpt lat="40.926435" lon="14.4763667"><ele>29.571428571428573</ele><time>2026-03-29T07:01:37.299Z</time></trkpt><trkpt lat="40.92646" lon="14.4764517"><ele>29.85714285714286</ele><time>2026-03-29T07:01:38.297Z</time></trkpt><trkpt lat="40.9264867" lon="14.4765383"><ele>30.142857142857146</ele><time>2026-03-29T07:01:39.297Z</time></trkpt><trkpt lat="40.926515" lon="14.476625"><ele>30.42857142857143</ele><time>2026-03-29T07:01:40.299Z</time></trkpt><trkpt lat="40.926545" lon="14.4767133"><ele>30.714285714285715</ele><time>2026-03-29T07:01:41.296Z</time></trkpt><trkpt lat="40.92658" lon="14.4768"><ele>31.0</ele><time>2026-03-29T07:01:42.296Z</time></trkpt><trkpt lat="40.92661" lon="14.4768817"><ele>31.0</ele><time>2026-03-29T07:01:43.297Z</time></trkpt><trkpt lat="40.9266417" lon="14.476965"><ele>31.000000000000004</ele><time>2026-03-29T07:01:44.295Z</time></trkpt><trkpt lat="40.9266683" lon="14.4770467"><ele>31.0</ele><time>2026-03-29T07:01:45.296Z</time></trkpt><trkpt lat="40.9266967" lon="14.4771283"><ele>31.0</ele><time>2026-03-29T07:01:46.296Z</time></trkpt><trkpt lat="40.9267283" lon="14.47721"><ele>31.000000000000004</ele><time>2026-03-29T07:01:47.297Z</time></trkpt><trkpt lat="40.9267583" lon="14.4772933"><ele>31.0</ele><time>2026-03-29T07:01:48.296Z</time></trkpt><trkpt lat="40.9267867" lon="14.4773683"><ele>31.0</ele><time>2026-03-29T07:01:49.297Z</time></trkpt><trkpt lat="40.9268183" lon="14.4774417"><ele>30.833333333333336</ele><time>2026-03-29T07:01:50.297Z</time></trkpt><trkpt lat="40.926845" lon="14.47752"><ele>30.666666666666668</ele><time>2026-03-29T07:01:51.296Z</time></trkpt><trkpt lat="40.92687" lon="14.4776167"><ele>30.5</ele><time>2026-03-29T07:01:52.297Z</time></trkpt><trkpt lat="40.9268983" lon="14.4777083"><ele>30.333333333333336</ele><time>2026-03-29T07:01:53.297Z</time></trkpt><trkpt lat="40.92693" lon="14.477795"><ele>30.166666666666668</ele><time>2026-03-29T07:01:54.295Z</time></trkpt><trkpt lat="40.926955" lon="14.4778917"><ele>30.0</ele><time>2026-03-29T07:01:55.295Z</time></trkpt><trkpt lat="40.9269867" lon="14.4779933"><ele>30.0</ele><time>2026-03-29T07:01:56.295Z</time></trkpt><trkpt lat="40.9270233" lon="14.4780817"><ele>30.0</ele><time>2026-03-29T07:01:57.295Z</time></trkpt><trkpt lat="40.9270533" lon="14.47817"><ele>30.0</ele><time>2026-03-29T07:01:58.294Z</time></trkpt><trkpt lat="40.9270833" lon="14.4782567"><ele>30.0</ele><time>2026-03-29T07:01:59.295Z</time></trkpt><trkpt lat="40.9271233" lon="14.4783533"><ele>30.0</ele><time>2026-03-29T07:02:00.294Z</time></trkpt><trkpt lat="40.9271617" lon="14.4784367"><ele>30.0</ele><time>2026-03-29T07:02:01.295Z</time></trkpt><trkpt lat="40.9272017" lon="14.4785183"><ele>30.0</ele><time>2026-03-29T07:02:02.294Z</time></trkpt><trkpt lat="40.92724" lon="14.4786033"><ele>30.0</ele><time>2026-03-29T07:02:03.295Z</time></trkpt><trkpt lat="40.92728" lon="14.4786883"><ele>30.0</ele><time>2026-03-29T07:02:04.295Z</time></trkpt><trkpt lat="40.9273167" lon="14.47877"><ele>30.0</ele><time>2026-03-29T07:02:05.295Z</time></trkpt><trkpt lat="40.9273533" lon="14.478855"><ele>30.0</ele><time>2026-03-29T07:02:06.302Z</time></trkpt><trkpt lat="40.9273867" lon="14.4789317"><ele>30.0</ele><time>2026-03-29T07:02:07.318Z</time></trkpt><trkpt lat="40.9274667" lon="14.479115"><ele>30.0</ele><time>2026-03-29T07:02:09.295Z</time></trkpt><trkpt lat="40.9274933" lon="14.479205"><ele>30.0</ele><time>2026-03-29T07:02:10.295Z</time></trkpt><trkpt lat="40.9275733" lon="14.4793783"><ele>30.0</ele><time>2026-03-29T07:02:12.294Z</time></trkpt><trkpt lat="40.92761" lon="14.4794633"><ele>30.0</ele><time>2026-03-29T07:02:13.299Z</time></trkpt><trkpt lat="40.927655" lon="14.4795483"><ele>30.0</ele><time>2026-03-29T07:02:14.294Z</time></trkpt><trkpt lat="40.9276917" lon="14.479635"><ele>30.0</ele><time>2026-03-29T07:02:15.295Z</time></trkpt><trkpt lat="40.9277183" lon="14.4797233"><ele>30.0</ele><time>2026-03-29T07:02:16.295Z</time></trkpt><trkpt lat="40.9277433" lon="14.4798067"><ele>30.0</ele><time>2026-03-29T07:02:17.295Z</time></trkpt><trkpt lat="40.9277717" lon="14.4798883"><ele>30.0</ele><time>2026-03-29T07:02:18.296Z</time></trkpt><trkpt lat="40.9277983" lon="14.4799717"><ele>30.0</ele><time>2026-03-29T07:02:19.296Z</time></trkpt><trkpt lat="40.9278317" lon="14.4800483"><ele>30.0</ele><time>2026-03-29T07:02:20.295Z</time></trkpt><trkpt lat="40.9278617" lon="14.4801333"><ele>30.0</ele><time>2026-03-29T07:02:21.295Z</time></trkpt><trkpt lat="40.9278967" lon="14.48022"><ele>30.0</ele><time>2026-03-29T07:02:22.295Z</time></trkpt><trkpt lat="40.92793" lon="14.4803067"><ele>30.0</ele><time>2026-03-29T07:02:23.295Z</time></trkpt><trkpt lat="40.9279567" lon="14.4803983"><ele>30.0</ele><time>2026-03-29T07:02:24.301Z</time></trkpt><trkpt lat="40.92799" lon="14.4804933"><ele>30.0</ele><time>2026-03-29T07:02:25.296Z</time></trkpt><trkpt lat="40.92803" lon="14.4805767"><ele>30.0</ele><time>2026-03-29T07:02:26.295Z</time></trkpt><trkpt lat="40.928065" lon="14.4806583"><ele>30.0</ele><time>2026-03-29T07:02:27.295Z</time></trkpt><trkpt lat="40.9281033" lon="14.4807433"><ele>30.0</ele><time>2026-03-29T07:02:28.294Z</time></trkpt><trkpt lat="40.92814" lon="14.48082"><ele>30.0</ele><time>2026-03-29T07:02:29.294Z</time></trkpt><trkpt lat="40.928175" lon="14.4809017"><ele>30.0</ele><time>2026-03-29T07:02:30.296Z</time></trkpt><trkpt lat="40.928215" lon="14.4809833"><ele>30.0</ele><time>2026-03-29T07:02:31.295Z</time></trkpt><trkpt lat="40.9282517" lon="14.4810617"><ele>30.0</ele><time>2026-03-29T07:02:32.296Z</time></trkpt><trkpt lat="40.92829" lon="14.4811383"><ele>30.0</ele><time>2026-03-29T07:02:33.294Z</time></trkpt><trkpt lat="40.9283333" lon="14.4812133"><ele>30.0</ele><time>2026-03-29T07:02:34.297Z</time></trkpt><trkpt lat="40.9283683" lon="14.481295"><ele>30.0</ele><time>2026-03-29T07:02:35.295Z</time></trkpt><trkpt lat="40.928405" lon="14.4813733"><ele>29.857142857142858</ele><time>2026-03-29T07:02:36.312Z</time></trkpt><trkpt lat="40.9284417" lon="14.481455"><ele>29.714285714285715</ele><time>2026-03-29T07:02:37.295Z</time></trkpt><trkpt lat="40.9284717" lon="14.4815417"><ele>29.571428571428573</ele><time>2026-03-29T07:02:38.298Z</time></trkpt><trkpt lat="40.9285067" lon="14.4816283"><ele>29.42857142857143</ele><time>2026-03-29T07:02:39.294Z</time></trkpt><trkpt lat="40.928545" lon="14.4817133"><ele>29.285714285714285</ele><time>2026-03-29T07:02:40.296Z</time></trkpt><trkpt lat="40.9285783" lon="14.4817983"><ele>29.142857142857146</ele><time>2026-03-29T07:02:41.297Z</time></trkpt><trkpt lat="40.9286133" lon="14.48188"><ele>29.000000000000004</ele><time>2026-03-29T07:02:42.296Z</time></trkpt><trkpt lat="40.9286467" lon="14.4819717"><ele>28.999999999999996</ele><time>2026-03-29T07:02:43.295Z</time></trkpt><trkpt lat="40.9286883" lon="14.4820633"><ele>29.0</ele><time>2026-03-29T07:02:44.294Z</time></trkpt><trkpt lat="40.928715" lon="14.4821633"><ele>29.0</ele><time>2026-03-29T07:02:45.298Z</time></trkpt><trkpt lat="40.9287517" lon="14.48226"><ele>29.0</ele><time>2026-03-29T07:02:46.294Z</time></trkpt><trkpt lat="40.9287883" lon="14.4823633"><ele>28.999999999999996</ele><time>2026-03-29T07:02:47.298Z</time></trkpt><trkpt lat="40.92882" lon="14.4824617"><ele>29.0</ele><time>2026-03-29T07:02:48.295Z</time></trkpt><trkpt lat="40.9288417" lon="14.4825683"><ele>29.333333333333332</ele><time>2026-03-29T07:02:49.296Z</time></trkpt><trkpt lat="40.9288733" lon="14.482665"><ele>29.666666666666664</ele><time>2026-03-29T07:02:50.295Z</time></trkpt><trkpt lat="40.92891" lon="14.48277"><ele>30.0</ele><time>2026-03-29T07:02:51.297Z</time></trkpt><trkpt lat="40.9289433" lon="14.482865"><ele>30.333333333333336</ele><time>2026-03-29T07:02:52.297Z</time></trkpt><trkpt lat="40.92897" lon="14.4829567"><ele>30.666666666666668</ele><time>2026-03-29T07:02:53.297Z</time></trkpt><trkpt lat="40.929005" lon="14.48304"><ele>31.0</ele><time>2026-03-29T07:02:54.299Z</time></trkpt><trkpt lat="40.9290283" lon="14.4831267"><ele>31.000000000000004</ele><time>2026-03-29T07:02:55.296Z</time></trkpt><trkpt lat="40.9290483" lon="14.483215"><ele>31.0</ele><time>2026-03-29T07:02:56.299Z</time></trkpt><trkpt lat="40.929075" lon="14.4833117"><ele>31.0</ele><time>2026-03-29T07:02:57.295Z</time></trkpt><trkpt lat="40.9291067" lon="14.4834017"><ele>31.0</ele><time>2026-03-29T07:02:58.295Z</time></trkpt><trkpt lat="40.9291383" lon="14.4835"><ele>31.000000000000004</ele><time>2026-03-29T07:02:59.295Z</time></trkpt><trkpt lat="40.9291717" lon="14.4836"><ele>31.0</ele><time>2026-03-29T07:03:00.295Z</time></trkpt><trkpt lat="40.9292017" lon="14.4836983"><ele>31.333333333333336</ele><time>2026-03-29T07:03:01.297Z</time></trkpt><trkpt lat="40.9292317" lon="14.4837967"><ele>31.666666666666668</ele><time>2026-03-29T07:03:02.296Z</time></trkpt><trkpt lat="40.92926" lon="14.4838967"><ele>32.0</ele><time>2026-03-29T07:03:03.296Z</time></trkpt><trkpt lat="40.929285" lon="14.4839983"><ele>32.333333333333336</ele><time>2026-03-29T07:03:04.297Z</time></trkpt><trkpt lat="40.9293183" lon="14.484095"><ele>32.666666666666664</ele><time>2026-03-29T07:03:05.295Z</time></trkpt><trkpt lat="40.9293483" lon="14.4841883"><ele>33.0</ele><time>2026-03-29T07:03:06.296Z</time></trkpt><trkpt lat="40.9293767" lon="14.4842817"><ele>33.0</ele><time>2026-03-29T07:03:07.296Z</time></trkpt><trkpt lat="40.9294067" lon="14.484375"><ele>33.0</ele><time>2026-03-29T07:03:08.295Z</time></trkpt><trkpt lat="40.9294383" lon="14.4844683"><ele>33.0</ele><time>2026-03-29T07:03:09.295Z</time></trkpt><trkpt lat="40.9294667" lon="14.484565"><ele>33.0</ele><time>2026-03-29T07:03:10.296Z</time></trkpt><trkpt lat="40.929495" lon="14.4846583"><ele>33.0</ele><time>2026-03-29T07:03:11.295Z</time></trkpt><trkpt lat="40.929525" lon="14.4847517"><ele>33.0</ele><time>2026-03-29T07:03:12.297Z</time></trkpt><trkpt lat="40.9295517" lon="14.484845"><ele>33.0</ele><time>2026-03-29T07:03:13.296Z</time></trkpt><trkpt lat="40.929575" lon="14.4849383"><ele>33.0</ele><time>2026-03-29T07:03:14.295Z</time></trkpt><trkpt lat="40.9296033" lon="14.4850317"><ele>33.0</ele><time>2026-03-29T07:03:15.295Z</time></trkpt><trkpt lat="40.92963" lon="14.4851283"><ele>33.0</ele><time>2026-03-29T07:03:16.297Z</time></trkpt><trkpt lat="40.9296583" lon="14.4852217"><ele>33.0</ele><time>2026-03-29T07:03:17.295Z</time></trkpt><trkpt lat="40.9296867" lon="14.4853133"><ele>33.0</ele><time>2026-03-29T07:03:18.295Z</time></trkpt><trkpt lat="40.9297117" lon="14.4854033"><ele>33.0</ele><time>2026-03-29T07:03:19.296Z</time></trkpt><trkpt lat="40.929735" lon="14.4854917"><ele>33.0</ele><time>2026-03-29T07:03:20.295Z</time></trkpt><trkpt lat="40.9297633" lon="14.4855783"><ele>33.0</ele><time>2026-03-29T07:03:21.295Z</time></trkpt><trkpt lat="40.92979" lon="14.485665"><ele>33.0</ele><time>2026-03-29T07:03:22.296Z</time></trkpt><trkpt lat="40.92981" lon="14.48575"><ele>33.0</ele><time>2026-03-29T07:03:23.297Z</time></trkpt><trkpt lat="40.9298317" lon="14.4858367"><ele>33.0</ele><time>2026-03-29T07:03:24.295Z</time></trkpt><trkpt lat="40.929855" lon="14.48592"><ele>33.0</ele><time>2026-03-29T07:03:25.297Z</time></trkpt><trkpt lat="40.9298783" lon="14.486005"><ele>33.0</ele><time>2026-03-29T07:03:26.297Z</time></trkpt><trkpt lat="40.9299033" lon="14.4860917"><ele>33.0</ele><time>2026-03-29T07:03:27.295Z</time></trkpt><trkpt lat="40.92993" lon="14.4861767"><ele>33.0</ele><time>2026-03-29T07:03:28.295Z</time></trkpt><trkpt lat="40.9299583" lon="14.4862617"><ele>33.0</ele><time>2026-03-29T07:03:29.296Z</time></trkpt><trkpt lat="40.9299833" lon="14.4863483"><ele>33.0</ele><time>2026-03-29T07:03:30.295Z</time></trkpt><trkpt lat="40.93001" lon="14.4864383"><ele>33.0</ele><time>2026-03-29T07:03:31.297Z</time></trkpt><trkpt lat="40.9300383" lon="14.4865233"><ele>33.0</ele><time>2026-03-29T07:03:32.297Z</time></trkpt><trkpt lat="40.93007" lon="14.4866083"><ele>32.857142857142854</ele><time>2026-03-29T07:03:33.296Z</time></trkpt><trkpt lat="40.9300983" lon="14.486695"><ele>32.714285714285715</ele><time>2026-03-29T07:03:34.297Z</time></trkpt><trkpt lat="40.930125" lon="14.4867833"><ele>32.57142857142857</ele><time>2026-03-29T07:03:35.295Z</time></trkpt><trkpt lat="40.93015" lon="14.48687"><ele>32.42857142857143</ele><time>2026-03-29T07:03:36.297Z</time></trkpt><trkpt lat="40.9301733" lon="14.4869567"><ele>32.285714285714285</ele><time>2026-03-29T07:03:37.297Z</time></trkpt><trkpt lat="40.9302017" lon="14.487045"><ele>32.14285714285714</ele><time>2026-03-29T07:03:38.299Z</time></trkpt><trkpt lat="40.93023" lon="14.487135"><ele>32.0</ele><time>2026-03-29T07:03:39.294Z</time></trkpt><trkpt lat="40.9302567" lon="14.487225"><ele>32.0</ele><time>2026-03-29T07:03:40.297Z</time></trkpt><trkpt lat="40.9302867" lon="14.4873167"><ele>31.999999999999996</ele><time>2026-03-29T07:03:41.297Z</time></trkpt><trkpt lat="40.930315" lon="14.487405"><ele>32.0</ele><time>2026-03-29T07:03:42.296Z</time></trkpt><trkpt lat="40.93034" lon="14.4874917"><ele>32.0</ele><time>2026-03-29T07:03:43.301Z</time></trkpt><trkpt lat="40.930365" lon="14.4875767"><ele>31.999999999999996</ele><time>2026-03-29T07:03:44.295Z</time></trkpt><trkpt lat="40.9303917" lon="14.4876633"><ele>32.0</ele><time>2026-03-29T07:03:45.298Z</time></trkpt><trkpt lat="40.9304167" lon="14.4877467"><ele>32.0</ele><time>2026-03-29T07:03:46.295Z</time></trkpt><trkpt lat="40.9304417" lon="14.4878333"><ele>32.0</ele><time>2026-03-29T07:03:47.296Z</time></trkpt><trkpt lat="40.930465" lon="14.4879167"><ele>31.999999999999996</ele><time>2026-03-29T07:03:48.294Z</time></trkpt><trkpt lat="40.9305017" lon="14.4879933"><ele>32.0</ele><time>2026-03-29T07:03:49.297Z</time></trkpt><trkpt lat="40.9305433" lon="14.4880617"><ele>32.0</ele><time>2026-03-29T07:03:50.297Z</time></trkpt><trkpt lat="40.9305833" lon="14.4881283"><ele>31.999999999999996</ele><time>2026-03-29T07:03:51.295Z</time></trkpt><trkpt lat="40.9306217" lon="14.4881983"><ele>32.0</ele><time>2026-03-29T07:03:52.297Z</time></trkpt><trkpt lat="40.9306583" lon="14.488275"><ele>32.0</ele><time>2026-03-29T07:03:53.295Z</time></trkpt><trkpt lat="40.9307" lon="14.4883517"><ele>32.0</ele><time>2026-03-29T07:03:54.297Z</time></trkpt><trkpt lat="40.9307417" lon="14.4884267"><ele>31.999999999999996</ele><time>2026-03-29T07:03:55.296Z</time></trkpt><trkpt lat="40.9307867" lon="14.4884983"><ele>32.0</ele><time>2026-03-29T07:03:56.297Z</time></trkpt><trkpt lat="40.9308267" lon="14.488575"><ele>32.0</ele><time>2026-03-29T07:03:57.297Z</time></trkpt><trkpt lat="40.9308683" lon="14.4886533"><ele>31.999999999999996</ele><time>2026-03-29T07:03:58.298Z</time></trkpt><trkpt lat="40.93091" lon="14.48873"><ele>32.0</ele><time>2026-03-29T07:03:59.295Z</time></trkpt><trkpt lat="40.9309567" lon="14.4888"><ele>32.0</ele><time>2026-03-29T07:04:00.297Z</time></trkpt><trkpt lat="40.930995" lon="14.4888733"><ele>31.71428571428571</ele><time>2026-03-29T07:04:01.296Z</time></trkpt><trkpt lat="40.931035" lon="14.4889467"><ele>31.428571428571423</ele><time>2026-03-29T07:04:02.297Z</time></trkpt><trkpt lat="40.931075" lon="14.4890233"><ele>31.142857142857142</ele><time>2026-03-29T07:04:03.297Z</time></trkpt><trkpt lat="40.93111" lon="14.4890983"><ele>30.857142857142854</ele><time>2026-03-29T07:04:04.297Z</time></trkpt><trkpt lat="40.9311433" lon="14.4891733"><ele>30.57142857142857</ele><time>2026-03-29T07:04:05.297Z</time></trkpt><trkpt lat="40.9311833" lon="14.4892467"><ele>30.285714285714285</ele><time>2026-03-29T07:04:06.297Z</time></trkpt><trkpt lat="40.9312217" lon="14.4893217"><ele>30.0</ele><time>2026-03-29T07:04:07.297Z</time></trkpt><trkpt lat="40.9312583" lon="14.4893983"><ele>30.0</ele><time>2026-03-29T07:04:08.295Z</time></trkpt><trkpt lat="40.9312917" lon="14.4894717"><ele>30.0</ele><time>2026-03-29T07:04:09.295Z</time></trkpt><trkpt lat="40.931325" lon="14.4895483"><ele>30.0</ele><time>2026-03-29T07:04:10.297Z</time></trkpt><trkpt lat="40.931365" lon="14.4896267"><ele>30.0</ele><time>2026-03-29T07:04:11.295Z</time></trkpt><trkpt lat="40.9314033" lon="14.4897"><ele>30.0</ele><time>2026-03-29T07:04:12.299Z</time></trkpt><trkpt lat="40.931445" lon="14.4897783"><ele>30.0</ele><time>2026-03-29T07:04:13.299Z</time></trkpt><trkpt lat="40.931485" lon="14.4898583"><ele>30.0</ele><time>2026-03-29T07:04:14.296Z</time></trkpt><trkpt lat="40.9315267" lon="14.489935"><ele>30.0</ele><time>2026-03-29T07:04:15.299Z</time></trkpt><trkpt lat="40.93157" lon="14.4900083"><ele>30.0</ele><time>2026-03-29T07:04:16.298Z</time></trkpt><trkpt lat="40.9316117" lon="14.490085"><ele>30.0</ele><time>2026-03-29T07:04:17.296Z</time></trkpt><trkpt lat="40.9316517" lon="14.4901633"><ele>30.0</ele><time>2026-03-29T07:04:18.295Z</time></trkpt><trkpt lat="40.9316933" lon="14.4902417"><ele>30.0</ele><time>2026-03-29T07:04:19.296Z</time></trkpt><trkpt lat="40.931735" lon="14.49032"><ele>30.0</ele><time>2026-03-29T07:04:20.296Z</time></trkpt><trkpt lat="40.9317733" lon="14.4903983"><ele>30.0</ele><time>2026-03-29T07:04:21.296Z</time></trkpt><trkpt lat="40.93181" lon="14.49048"><ele>30.0</ele><time>2026-03-29T07:04:22.297Z</time></trkpt><trkpt lat="40.93185" lon="14.4905617"><ele>30.0</ele><time>2026-03-29T07:04:23.297Z</time></trkpt><trkpt lat="40.93189" lon="14.4906433"><ele>30.0</ele><time>2026-03-29T07:04:24.297Z</time></trkpt><trkpt lat="40.9319333" lon="14.490725"><ele>30.0</ele><time>2026-03-29T07:04:25.297Z</time></trkpt><trkpt lat="40.9319767" lon="14.49081"><ele>30.0</ele><time>2026-03-29T07:04:26.296Z</time></trkpt><trkpt lat="40.9320167" lon="14.4908933"><ele>30.0</ele><time>2026-03-29T07:04:27.297Z</time></trkpt><trkpt lat="40.9320617" lon="14.4909783"><ele>30.0</ele><time>2026-03-29T07:04:28.297Z</time></trkpt><trkpt lat="40.9321067" lon="14.491065"><ele>30.0</ele><time>2026-03-29T07:04:29.297Z</time></trkpt><trkpt lat="40.93215" lon="14.4911467"><ele>30.0</ele><time>2026-03-29T07:04:30.297Z</time></trkpt><trkpt lat="40.9321933" lon="14.49123"><ele>30.0</ele><time>2026-03-29T07:04:31.297Z</time></trkpt><trkpt lat="40.932235" lon="14.4913117"><ele>30.0</ele><time>2026-03-29T07:04:32.297Z</time></trkpt><trkpt lat="40.9322767" lon="14.4913967"><ele>30.0</ele><time>2026-03-29T07:04:33.295Z</time></trkpt><trkpt lat="40.9323183" lon="14.4914817"><ele>29.833333333333332</ele><time>2026-03-29T07:04:34.296Z</time></trkpt><trkpt lat="40.93236" lon="14.4915683"><ele>29.666666666666664</ele><time>2026-03-29T07:04:35.295Z</time></trkpt><trkpt lat="40.9323983" lon="14.4916567"><ele>29.5</ele><time>2026-03-29T07:04:36.297Z</time></trkpt><trkpt lat="40.9324383" lon="14.491745"><ele>29.333333333333332</ele><time>2026-03-29T07:04:37.297Z</time></trkpt><trkpt lat="40.9324767" lon="14.4918383"><ele>29.166666666666664</ele><time>2026-03-29T07:04:38.297Z</time></trkpt><trkpt lat="40.9325117" lon="14.4919317"><ele>29.0</ele><time>2026-03-29T07:04:39.294Z</time></trkpt><trkpt lat="40.932545" lon="14.4920267"><ele>29.166666666666664</ele><time>2026-03-29T07:04:40.296Z</time></trkpt><trkpt lat="40.9325717" lon="14.4921283"><ele>29.333333333333332</ele><time>2026-03-29T07:04:41.297Z</time></trkpt><trkpt lat="40.9325967" lon="14.4922283"><ele>29.5</ele><time>2026-03-29T07:04:42.297Z</time></trkpt><trkpt lat="40.9326167" lon="14.4923283"><ele>29.666666666666664</ele><time>2026-03-29T07:04:43.297Z</time></trkpt><trkpt lat="40.9326317" lon="14.4924317"><ele>29.833333333333332</ele><time>2026-03-29T07:04:44.297Z</time></trkpt><trkpt lat="40.932645" lon="14.492535"><ele>30.0</ele><time>2026-03-29T07:04:45.295Z</time></trkpt><trkpt lat="40.9326583" lon="14.4926367"><ele>30.0</ele><time>2026-03-29T07:04:46.298Z</time></trkpt><trkpt lat="40.9326683" lon="14.492735"><ele>30.0</ele><time>2026-03-29T07:04:47.296Z</time></trkpt><trkpt lat="40.9326833" lon="14.4928367"><ele>30.0</ele><time>2026-03-29T07:04:48.297Z</time></trkpt><trkpt lat="40.9326967" lon="14.492935"><ele>30.0</ele><time>2026-03-29T07:04:49.295Z</time></trkpt><trkpt lat="40.93271" lon="14.4930367"><ele>30.0</ele><time>2026-03-29T07:04:50.297Z</time></trkpt><trkpt lat="40.93272" lon="14.4931367"><ele>30.0</ele><time>2026-03-29T07:04:51.295Z</time></trkpt><trkpt lat="40.9327333" lon="14.4932383"><ele>30.0</ele><time>2026-03-29T07:04:52.297Z</time></trkpt><trkpt lat="40.932745" lon="14.49334"><ele>30.0</ele><time>2026-03-29T07:04:53.297Z</time></trkpt><trkpt lat="40.9327567" lon="14.49344"><ele>30.0</ele><time>2026-03-29T07:04:54.297Z</time></trkpt><trkpt lat="40.9327683" lon="14.4935367"><ele>30.0</ele><time>2026-03-29T07:04:55.297Z</time></trkpt><trkpt lat="40.93278" lon="14.493635"><ele>30.0</ele><time>2026-03-29T07:04:56.294Z</time></trkpt><trkpt lat="40.93279" lon="14.493735"><ele>30.0</ele><time>2026-03-29T07:04:57.295Z</time></trkpt><trkpt lat="40.9328" lon="14.493835"><ele>30.0</ele><time>2026-03-29T07:04:58.297Z</time></trkpt><trkpt lat="40.9328117" lon="14.4939367"><ele>30.0</ele><time>2026-03-29T07:04:59.298Z</time></trkpt><trkpt lat="40.932825" lon="14.494035"><ele>30.0</ele><time>2026-03-29T07:05:00.297Z</time></trkpt><trkpt lat="40.9328367" lon="14.4941317"><ele>30.0</ele><time>2026-03-29T07:05:01.297Z</time></trkpt><trkpt lat="40.9328467" lon="14.4942317"><ele>30.0</ele><time>2026-03-29T07:05:02.295Z</time></trkpt><trkpt lat="40.93286" lon="14.4943267"><ele>30.0</ele><time>2026-03-29T07:05:03.295Z</time></trkpt><trkpt lat="40.9328717" lon="14.4944233"><ele>30.0</ele><time>2026-03-29T07:05:04.296Z</time></trkpt><trkpt lat="40.9328833" lon="14.4945217"><ele>30.0</ele><time>2026-03-29T07:05:05.297Z</time></trkpt><trkpt lat="40.932895" lon="14.49462"><ele>30.0</ele><time>2026-03-29T07:05:06.297Z</time></trkpt><trkpt lat="40.9329083" lon="14.49472"><ele>30.0</ele><time>2026-03-29T07:05:07.297Z</time></trkpt><trkpt lat="40.93292" lon="14.4948167"><ele>30.0</ele><time>2026-03-29T07:05:08.297Z</time></trkpt><trkpt lat="40.9329333" lon="14.494915"><ele>30.0</ele><time>2026-03-29T07:05:09.297Z</time></trkpt><trkpt lat="40.9329467" lon="14.4950133"><ele>30.166666666666668</ele><time>2026-03-29T07:05:10.297Z</time></trkpt><trkpt lat="40.9329633" lon="14.4951117"><ele>30.333333333333336</ele><time>2026-03-29T07:05:11.299Z</time></trkpt><trkpt lat="40.93298" lon="14.4952117"><ele>30.5</ele><time>2026-03-29T07:05:12.298Z</time></trkpt><trkpt lat="40.9329967" lon="14.4953067"><ele>30.666666666666668</ele><time>2026-03-29T07:05:13.299Z</time></trkpt><trkpt lat="40.9330083" lon="14.4954067"><ele>30.833333333333336</ele><time>2026-03-29T07:05:14.298Z</time></trkpt><trkpt lat="40.9330217" lon="14.495505"><ele>31.0</ele><time>2026-03-29T07:05:15.297Z</time></trkpt><trkpt lat="40.933035" lon="14.4956083"><ele>31.000000000000004</ele><time>2026-03-29T07:05:16.296Z</time></trkpt><trkpt lat="40.933045" lon="14.4957133"><ele>31.0</ele><time>2026-03-29T07:05:17.297Z</time></trkpt><trkpt lat="40.933055" lon="14.49581"><ele>31.0</ele><time>2026-03-29T07:05:18.296Z</time></trkpt><trkpt lat="40.9330633" lon="14.49591"><ele>31.0</ele><time>2026-03-29T07:05:19.297Z</time></trkpt><trkpt lat="40.93307" lon="14.496025"><ele>31.000000000000004</ele><time>2026-03-29T07:05:20.296Z</time></trkpt><trkpt lat="40.9330867" lon="14.4961233"><ele>31.0</ele><time>2026-03-29T07:05:21.297Z</time></trkpt><trkpt lat="40.933105" lon="14.4962167"><ele>30.857142857142858</ele><time>2026-03-29T07:05:22.297Z</time></trkpt><trkpt lat="40.9331183" lon="14.4963117"><ele>30.714285714285715</ele><time>2026-03-29T07:05:23.297Z</time></trkpt><trkpt lat="40.9331333" lon="14.4964033"><ele>30.571428571428573</ele><time>2026-03-29T07:05:24.296Z</time></trkpt><trkpt lat="40.9331517" lon="14.4965"><ele>30.42857142857143</ele><time>2026-03-29T07:05:25.298Z</time></trkpt><trkpt lat="40.933165" lon="14.4965967"><ele>30.285714285714285</ele><time>2026-03-29T07:05:26.298Z</time></trkpt><trkpt lat="40.9331817" lon="14.496695"><ele>30.142857142857146</ele><time>2026-03-29T07:05:27.297Z</time></trkpt><trkpt lat="40.9331967" lon="14.4967917"><ele>30.0</ele><time>2026-03-29T07:05:28.296Z</time></trkpt><trkpt lat="40.9332017" lon="14.49689"><ele>30.0</ele><time>2026-03-29T07:05:29.3Z</time></trkpt><trkpt lat="40.933215" lon="14.4969867"><ele>30.0</ele><time>2026-03-29T07:05:30.296Z</time></trkpt><trkpt lat="40.9332267" lon="14.4970833"><ele>30.0</ele><time>2026-03-29T07:05:31.297Z</time></trkpt><trkpt lat="40.9332383" lon="14.4971783"><ele>30.0</ele><time>2026-03-29T07:05:32.297Z</time></trkpt><trkpt lat="40.93325" lon="14.4972733"><ele>30.0</ele><time>2026-03-29T07:05:33.294Z</time></trkpt><trkpt lat="40.9332617" lon="14.49737"><ele>30.0</ele><time>2026-03-29T07:05:34.297Z</time></trkpt><trkpt lat="40.9332717" lon="14.4974667"><ele>30.0</ele><time>2026-03-29T07:05:35.297Z</time></trkpt><trkpt lat="40.933285" lon="14.4975633"><ele>30.166666666666668</ele><time>2026-03-29T07:05:36.296Z</time></trkpt><trkpt lat="40.9332983" lon="14.4976617"><ele>30.333333333333336</ele><time>2026-03-29T07:05:37.297Z</time></trkpt><trkpt lat="40.93331" lon="14.4977617"><ele>30.5</ele><time>2026-03-29T07:05:38.295Z</time></trkpt><trkpt lat="40.9333233" lon="14.4978583"><ele>30.666666666666668</ele><time>2026-03-29T07:05:39.294Z</time></trkpt><trkpt lat="40.9333333" lon="14.4979567"><ele>30.833333333333336</ele><time>2026-03-29T07:05:40.295Z</time></trkpt><trkpt lat="40.9333417" lon="14.4980533"><ele>31.0</ele><time>2026-03-29T07:05:41.296Z</time></trkpt><trkpt lat="40.9333517" lon="14.4981517"><ele>31.000000000000004</ele><time>2026-03-29T07:05:42.296Z</time></trkpt><trkpt lat="40.93336" lon="14.4982533"><ele>31.0</ele><time>2026-03-29T07:05:43.295Z</time></trkpt><trkpt lat="40.9333667" lon="14.498355"><ele>31.0</ele><time>2026-03-29T07:05:44.297Z</time></trkpt><trkpt lat="40.93337" lon="14.4984533"><ele>31.0</ele><time>2026-03-29T07:05:45.295Z</time></trkpt><trkpt lat="40.9333717" lon="14.4985533"><ele>31.000000000000004</ele><time>2026-03-29T07:05:46.295Z</time></trkpt><trkpt lat="40.9333733" lon="14.4986533"><ele>31.0</ele><time>2026-03-29T07:05:47.297Z</time></trkpt><trkpt lat="40.9333733" lon="14.498755"><ele>31.000000000000004</ele><time>2026-03-29T07:05:48.296Z</time></trkpt><trkpt lat="40.9333717" lon="14.4988533"><ele>31.0</ele><time>2026-03-29T07:05:49.296Z</time></trkpt><trkpt lat="40.9333717" lon="14.4989567"><ele>31.0</ele><time>2026-03-29T07:05:50.296Z</time></trkpt><trkpt lat="40.93337" lon="14.4990567"><ele>31.0</ele><time>2026-03-29T07:05:51.295Z</time></trkpt><trkpt lat="40.933365" lon="14.4991567"><ele>31.000000000000004</ele><time>2026-03-29T07:05:52.296Z</time></trkpt><trkpt lat="40.933365" lon="14.4992583"><ele>31.0</ele><time>2026-03-29T07:05:53.299Z</time></trkpt><trkpt lat="40.9333667" lon="14.4993617"><ele>31.000000000000004</ele><time>2026-03-29T07:05:54.297Z</time></trkpt><trkpt lat="40.93337" lon="14.4994667"><ele>31.0</ele><time>2026-03-29T07:05:55.299Z</time></trkpt><trkpt lat="40.9333717" lon="14.4995733"><ele>31.0</ele><time>2026-03-29T07:05:56.298Z</time></trkpt><trkpt lat="40.9333733" lon="14.499675"><ele>31.0</ele><time>2026-03-29T07:05:57.297Z</time></trkpt><trkpt lat="40.9333717" lon="14.4997783"><ele>31.000000000000004</ele><time>2026-03-29T07:05:58.295Z</time></trkpt><trkpt lat="40.9333733" lon="14.4998783"><ele>31.0</ele><time>2026-03-29T07:05:59.297Z</time></trkpt><trkpt lat="40.9333767" lon="14.4999783"><ele>31.000000000000004</ele><time>2026-03-29T07:06:00.297Z</time></trkpt><trkpt lat="40.933375" lon="14.5000817"><ele>31.0</ele><time>2026-03-29T07:06:01.298Z</time></trkpt><trkpt lat="40.9333783" lon="14.5001833"><ele>31.0</ele><time>2026-03-29T07:06:02.296Z</time></trkpt><trkpt lat="40.9333833" lon="14.5002867"><ele>31.0</ele><time>2026-03-29T07:06:03.298Z</time></trkpt><trkpt lat="40.933385" lon="14.50039"><ele>31.000000000000004</ele><time>2026-03-29T07:06:04.299Z</time></trkpt><trkpt lat="40.9333833" lon="14.500495"><ele>31.0</ele><time>2026-03-29T07:06:05.296Z</time></trkpt><trkpt lat="40.933385" lon="14.5005967"><ele>31.000000000000004</ele><time>2026-03-29T07:06:06.298Z</time></trkpt><trkpt lat="40.9333867" lon="14.5007"><ele>31.0</ele><time>2026-03-29T07:06:07.299Z</time></trkpt><trkpt lat="40.9333833" lon="14.5008033"><ele>31.0</ele><time>2026-03-29T07:06:08.298Z</time></trkpt><trkpt lat="40.9333817" lon="14.5009067"><ele>31.0</ele><time>2026-03-29T07:06:09.299Z</time></trkpt><trkpt lat="40.9333817" lon="14.5010083"><ele>31.000000000000004</ele><time>2026-03-29T07:06:10.299Z</time></trkpt><trkpt lat="40.9333867" lon="14.5011117"><ele>31.0</ele><time>2026-03-29T07:06:11.295Z</time></trkpt><trkpt lat="40.93339" lon="14.501215"><ele>31.000000000000004</ele><time>2026-03-29T07:06:12.296Z</time></trkpt><trkpt lat="40.93339" lon="14.5013183"><ele>31.0</ele><time>2026-03-29T07:06:13.297Z</time></trkpt><trkpt lat="40.9333883" lon="14.5014233"><ele>31.0</ele><time>2026-03-29T07:06:14.299Z</time></trkpt><trkpt lat="40.933385" lon="14.5015267"><ele>31.0</ele><time>2026-03-29T07:06:15.295Z</time></trkpt><trkpt lat="40.93338" lon="14.5016267"><ele>31.000000000000004</ele><time>2026-03-29T07:06:16.295Z</time></trkpt><trkpt lat="40.933375" lon="14.5017267"><ele>31.0</ele><time>2026-03-29T07:06:17.296Z</time></trkpt><trkpt lat="40.9333717" lon="14.5018283"><ele>31.000000000000004</ele><time>2026-03-29T07:06:18.296Z</time></trkpt><trkpt lat="40.9333683" lon="14.5019283"><ele>31.0</ele><time>2026-03-29T07:06:19.297Z</time></trkpt><trkpt lat="40.93336" lon="14.50203"><ele>31.0</ele><time>2026-03-29T07:06:20.295Z</time></trkpt><trkpt lat="40.93335" lon="14.50213"><ele>31.0</ele><time>2026-03-29T07:06:21.297Z</time></trkpt><trkpt lat="40.9333367" lon="14.5022333"><ele>31.000000000000004</ele><time>2026-03-29T07:06:22.295Z</time></trkpt><trkpt lat="40.93333" lon="14.5023367"><ele>31.0</ele><time>2026-03-29T07:06:23.298Z</time></trkpt><trkpt lat="40.9333317" lon="14.5024417"><ele>30.833333333333336</ele><time>2026-03-29T07:06:24.298Z</time></trkpt><trkpt lat="40.93333" lon="14.5025433"><ele>30.666666666666668</ele><time>2026-03-29T07:06:25.297Z</time></trkpt><trkpt lat="40.9333267" lon="14.5026467"><ele>30.5</ele><time>2026-03-29T07:06:26.295Z</time></trkpt><trkpt lat="40.933325" lon="14.50275"><ele>30.333333333333336</ele><time>2026-03-29T07:06:27.297Z</time></trkpt><trkpt lat="40.9333217" lon="14.5028517"><ele>30.166666666666668</ele><time>2026-03-29T07:06:28.297Z</time></trkpt><trkpt lat="40.933315" lon="14.502955"><ele>30.0</ele><time>2026-03-29T07:06:29.298Z</time></trkpt><trkpt lat="40.9333083" lon="14.5030583"><ele>30.333333333333332</ele><time>2026-03-29T07:06:30.297Z</time></trkpt><trkpt lat="40.933305" lon="14.5031667"><ele>30.666666666666664</ele><time>2026-03-29T07:06:31.297Z</time></trkpt><trkpt lat="40.9333" lon="14.50327"><ele>31.0</ele><time>2026-03-29T07:06:32.297Z</time></trkpt><trkpt lat="40.9332933" lon="14.503375"><ele>31.333333333333332</ele><time>2026-03-29T07:06:33.295Z</time></trkpt><trkpt lat="40.9332867" lon="14.5034817"><ele>31.666666666666664</ele><time>2026-03-29T07:06:34.297Z</time></trkpt><trkpt lat="40.93328" lon="14.5035883"><ele>32.0</ele><time>2026-03-29T07:06:35.298Z</time></trkpt><trkpt lat="40.93327" lon="14.5036933"><ele>31.999999999999996</ele><time>2026-03-29T07:06:36.296Z</time></trkpt><trkpt lat="40.9332633" lon="14.5038"><ele>32.0</ele><time>2026-03-29T07:06:37.296Z</time></trkpt><trkpt lat="40.9332533" lon="14.5039033"><ele>32.0</ele><time>2026-03-29T07:06:38.296Z</time></trkpt><trkpt lat="40.93324" lon="14.5040067"><ele>32.0</ele><time>2026-03-29T07:06:39.298Z</time></trkpt><trkpt lat="40.9332267" lon="14.5041067"><ele>31.999999999999996</ele><time>2026-03-29T07:06:40.295Z</time></trkpt><trkpt lat="40.9332067" lon="14.504205"><ele>32.0</ele><time>2026-03-29T07:06:41.299Z</time></trkpt><trkpt lat="40.9331883" lon="14.5043017"><ele>32.0</ele><time>2026-03-29T07:06:42.295Z</time></trkpt><trkpt lat="40.9331717" lon="14.5043967"><ele>31.999999999999996</ele><time>2026-03-29T07:06:43.295Z</time></trkpt><trkpt lat="40.9331567" lon="14.50449"><ele>32.0</ele><time>2026-03-29T07:06:44.296Z</time></trkpt><trkpt lat="40.9331383" lon="14.504585"><ele>32.0</ele><time>2026-03-29T07:06:45.295Z</time></trkpt><trkpt lat="40.93312" lon="14.5046767"><ele>31.999999999999996</ele><time>2026-03-29T07:06:46.294Z</time></trkpt><trkpt lat="40.9331017" lon="14.5047683"><ele>32.0</ele><time>2026-03-29T07:06:47.296Z</time></trkpt><trkpt lat="40.933085" lon="14.50486"><ele>32.0</ele><time>2026-03-29T07:06:48.296Z</time></trkpt><trkpt lat="40.93307" lon="14.5049517"><ele>31.857142857142854</ele><time>2026-03-29T07:06:49.296Z</time></trkpt><trkpt lat="40.9330567" lon="14.5050433"><ele>31.71428571428571</ele><time>2026-03-29T07:06:50.295Z</time></trkpt><trkpt lat="40.9330433" lon="14.5051367"><ele>31.57142857142857</ele><time>2026-03-29T07:06:51.295Z</time></trkpt><trkpt lat="40.93303" lon="14.5052317"><ele>31.42857142857143</ele><time>2026-03-29T07:06:52.297Z</time></trkpt><trkpt lat="40.9330133" lon="14.505325"><ele>31.28571428571429</ele><time>2026-03-29T07:06:53.295Z</time></trkpt><trkpt lat="40.9329967" lon="14.50542"><ele>31.142857142857146</ele><time>2026-03-29T07:06:54.295Z</time></trkpt><trkpt lat="40.9329817" lon="14.5055133"><ele>31.0</ele><time>2026-03-29T07:06:55.295Z</time></trkpt><trkpt lat="40.9329717" lon="14.5056067"><ele>31.0</ele><time>2026-03-29T07:06:56.295Z</time></trkpt><trkpt lat="40.93296" lon="14.5057"><ele>31.000000000000004</ele><time>2026-03-29T07:06:57.295Z</time></trkpt><trkpt lat="40.9329467" lon="14.50579"><ele>31.0</ele><time>2026-03-29T07:06:58.297Z</time></trkpt><trkpt lat="40.932935" lon="14.50588"><ele>31.0</ele><time>2026-03-29T07:06:59.296Z</time></trkpt><trkpt lat="40.9329283" lon="14.5059717"><ele>31.000000000000004</ele><time>2026-03-29T07:07:00.297Z</time></trkpt><trkpt lat="40.9329217" lon="14.50606"><ele>31.0</ele><time>2026-03-29T07:07:01.296Z</time></trkpt><trkpt lat="40.932915" lon="14.5061517"><ele>31.0</ele><time>2026-03-29T07:07:02.297Z</time></trkpt><trkpt lat="40.9329083" lon="14.5062433"><ele>31.142857142857146</ele><time>2026-03-29T07:07:03.295Z</time></trkpt><trkpt lat="40.9329033" lon="14.5063333"><ele>31.28571428571429</ele><time>2026-03-29T07:07:04.296Z</time></trkpt><trkpt lat="40.9329017" lon="14.506425"><ele>31.42857142857143</ele><time>2026-03-29T07:07:05.295Z</time></trkpt><trkpt lat="40.9328917" lon="14.5065133"><ele>31.57142857142857</ele><time>2026-03-29T07:07:06.296Z</time></trkpt><trkpt lat="40.9328867" lon="14.5066017"><ele>31.71428571428571</ele><time>2026-03-29T07:07:07.296Z</time></trkpt><trkpt lat="40.9328833" lon="14.5066917"><ele>31.857142857142854</ele><time>2026-03-29T07:07:08.296Z</time></trkpt><trkpt lat="40.93288" lon="14.5067783"><ele>32.0</ele><time>2026-03-29T07:07:09.296Z</time></trkpt><trkpt lat="40.9328767" lon="14.5068667"><ele>32.0</ele><time>2026-03-29T07:07:10.295Z</time></trkpt><trkpt lat="40.9328717" lon="14.506955"><ele>31.999999999999996</ele><time>2026-03-29T07:07:11.296Z</time></trkpt><trkpt lat="40.9328683" lon="14.507045"><ele>32.0</ele><time>2026-03-29T07:07:12.296Z</time></trkpt><trkpt lat="40.9328667" lon="14.5071333"><ele>32.0</ele><time>2026-03-29T07:07:13.297Z</time></trkpt><trkpt lat="40.9328583" lon="14.5072233"><ele>31.999999999999996</ele><time>2026-03-29T07:07:14.297Z</time></trkpt><trkpt lat="40.9328533" lon="14.50731"><ele>32.0</ele><time>2026-03-29T07:07:15.295Z</time></trkpt><trkpt lat="40.93285" lon="14.5073983"><ele>32.0</ele><time>2026-03-29T07:07:16.294Z</time></trkpt><trkpt lat="40.93285" lon="14.507485"><ele>32.0</ele><time>2026-03-29T07:07:17.297Z</time></trkpt><trkpt lat="40.9328483" lon="14.50757"><ele>31.999999999999996</ele><time>2026-03-29T07:07:18.298Z</time></trkpt><trkpt lat="40.932845" lon="14.5076583"><ele>32.0</ele><time>2026-03-29T07:07:19.297Z</time></trkpt><trkpt lat="40.9328417" lon="14.5077433"><ele>32.0</ele><time>2026-03-29T07:07:20.295Z</time></trkpt><trkpt lat="40.9328417" lon="14.50783"><ele>31.999999999999996</ele><time>2026-03-29T07:07:21.295Z</time></trkpt><trkpt lat="40.9328383" lon="14.5079167"><ele>32.0</ele><time>2026-03-29T07:07:22.296Z</time></trkpt><trkpt lat="40.9328317" lon="14.5080033"><ele>32.0</ele><time>2026-03-29T07:07:23.296Z</time></trkpt><trkpt lat="40.9328233" lon="14.50809"><ele>32.0</ele><time>2026-03-29T07:07:24.296Z</time></trkpt><trkpt lat="40.93282" lon="14.5081783"><ele>31.999999999999996</ele><time>2026-03-29T07:07:25.296Z</time></trkpt><trkpt lat="40.9328167" lon="14.5082633"><ele>32.0</ele><time>2026-03-29T07:07:26.296Z</time></trkpt><trkpt lat="40.9328117" lon="14.5083483"><ele>32.0</ele><time>2026-03-29T07:07:27.295Z</time></trkpt><trkpt lat="40.9328133" lon="14.508435"><ele>31.999999999999996</ele><time>2026-03-29T07:07:28.296Z</time></trkpt><trkpt lat="40.9328117" lon="14.5085233"><ele>32.0</ele><time>2026-03-29T07:07:29.295Z</time></trkpt><trkpt lat="40.9328067" lon="14.5086117"><ele>32.0</ele><time>2026-03-29T07:07:30.298Z</time></trkpt><trkpt lat="40.9328017" lon="14.5087033"><ele>32.14285714285714</ele><time>2026-03-29T07:07:31.295Z</time></trkpt><trkpt lat="40.932795" lon="14.508795"><ele>32.285714285714285</ele><time>2026-03-29T07:07:32.296Z</time></trkpt><trkpt lat="40.93279" lon="14.508885"><ele>32.42857142857143</ele><time>2026-03-29T07:07:33.296Z</time></trkpt><trkpt lat="40.9327867" lon="14.5089733"><ele>32.57142857142857</ele><time>2026-03-29T07:07:34.296Z</time></trkpt><trkpt lat="40.9327883" lon="14.5090633"><ele>32.714285714285715</ele><time>2026-03-29T07:07:35.295Z</time></trkpt><trkpt lat="40.9327883" lon="14.5091517"><ele>32.857142857142854</ele><time>2026-03-29T07:07:36.295Z</time></trkpt><trkpt lat="40.932785" lon="14.5092433"><ele>33.0</ele><time>2026-03-29T07:07:37.296Z</time></trkpt><trkpt lat="40.9327817" lon="14.5093333"><ele>33.0</ele><time>2026-03-29T07:07:38.297Z</time></trkpt><trkpt lat="40.9327783" lon="14.5094217"><ele>33.0</ele><time>2026-03-29T07:07:39.296Z</time></trkpt><trkpt lat="40.9327767" lon="14.50951"><ele>33.0</ele><time>2026-03-29T07:07:40.298Z</time></trkpt><trkpt lat="40.9327733" lon="14.5096"><ele>33.0</ele><time>2026-03-29T07:07:41.297Z</time></trkpt><trkpt lat="40.93277" lon="14.50969"><ele>33.0</ele><time>2026-03-29T07:07:42.298Z</time></trkpt><trkpt lat="40.9327667" lon="14.5097833"><ele>33.0</ele><time>2026-03-29T07:07:43.297Z</time></trkpt><trkpt lat="40.9327617" lon="14.5098783"><ele>33.0</ele><time>2026-03-29T07:07:44.296Z</time></trkpt><trkpt lat="40.93276" lon="14.5099767"><ele>33.0</ele><time>2026-03-29T07:07:45.298Z</time></trkpt><trkpt lat="40.9327533" lon="14.5100767"><ele>33.0</ele><time>2026-03-29T07:07:46.294Z</time></trkpt><trkpt lat="40.9327517" lon="14.5101783"><ele>33.0</ele><time>2026-03-29T07:07:47.296Z</time></trkpt><trkpt lat="40.9327533" lon="14.510285"><ele>33.0</ele><time>2026-03-29T07:07:48.295Z</time></trkpt><trkpt lat="40.9327583" lon="14.5103933"><ele>33.0</ele><time>2026-03-29T07:07:49.295Z</time></trkpt><trkpt lat="40.9327617" lon="14.5105"><ele>33.0</ele><time>2026-03-29T07:07:50.295Z</time></trkpt><trkpt lat="40.9327617" lon="14.5106083"><ele>33.0</ele><time>2026-03-29T07:07:51.296Z</time></trkpt><trkpt lat="40.9327567" lon="14.510715"><ele>33.0</ele><time>2026-03-29T07:07:52.296Z</time></trkpt><trkpt lat="40.9327517" lon="14.510825"><ele>33.0</ele><time>2026-03-29T07:07:53.295Z</time></trkpt><trkpt lat="40.93275" lon="14.5109367"><ele>33.0</ele><time>2026-03-29T07:07:54.294Z</time></trkpt><trkpt lat="40.93275" lon="14.5110467"><ele>33.0</ele><time>2026-03-29T07:07:55.296Z</time></trkpt><trkpt lat="40.9327483" lon="14.511155"><ele>33.0</ele><time>2026-03-29T07:07:56.296Z</time></trkpt><trkpt lat="40.9327433" lon="14.511265"><ele>33.0</ele><time>2026-03-29T07:07:57.294Z</time></trkpt><trkpt lat="40.9327383" lon="14.511375"><ele>33.0</ele><time>2026-03-29T07:07:58.295Z</time></trkpt><trkpt lat="40.9327317" lon="14.5114867"><ele>33.0</ele><time>2026-03-29T07:07:59.295Z</time></trkpt><trkpt lat="40.932725" lon="14.5115933"><ele>33.0</ele><time>2026-03-29T07:08:00.295Z</time></trkpt><trkpt lat="40.93272" lon="14.5117"><ele>33.0</ele><time>2026-03-29T07:08:01.295Z</time></trkpt><trkpt lat="40.9327167" lon="14.5118083"><ele>33.0</ele><time>2026-03-29T07:08:02.296Z</time></trkpt><trkpt lat="40.932715" lon="14.51192"><ele>33.0</ele><time>2026-03-29T07:08:03.294Z</time></trkpt><trkpt lat="40.9327083" lon="14.51203"><ele>33.0</ele><time>2026-03-29T07:08:04.296Z</time></trkpt><trkpt lat="40.932705" lon="14.51214"><ele>33.0</ele><time>2026-03-29T07:08:05.295Z</time></trkpt><trkpt lat="40.9327017" lon="14.5122483"><ele>33.0</ele><time>2026-03-29T07:08:06.295Z</time></trkpt><trkpt lat="40.9326967" lon="14.51236"><ele>33.0</ele><time>2026-03-29T07:08:07.296Z</time></trkpt><trkpt lat="40.93269" lon="14.5124733"><ele>33.0</ele><time>2026-03-29T07:08:08.296Z</time></trkpt><trkpt lat="40.93269" lon="14.5125867"><ele>33.0</ele><time>2026-03-29T07:08:09.294Z</time></trkpt><trkpt lat="40.93269" lon="14.5127"><ele>33.0</ele><time>2026-03-29T07:08:10.295Z</time></trkpt><trkpt lat="40.9326867" lon="14.5128133"><ele>33.0</ele><time>2026-03-29T07:08:11.294Z</time></trkpt><trkpt lat="40.9326833" lon="14.512925"><ele>33.0</ele><time>2026-03-29T07:08:12.297Z</time></trkpt><trkpt lat="40.9326783" lon="14.5130367"><ele>33.0</ele><time>2026-03-29T07:08:13.296Z</time></trkpt><trkpt lat="40.9326717" lon="14.51315"><ele>33.0</ele><time>2026-03-29T07:08:14.294Z</time></trkpt><trkpt lat="40.9326583" lon="14.51326"><ele>33.0</ele><time>2026-03-29T07:08:15.295Z</time></trkpt><trkpt lat="40.9326483" lon="14.5133633"><ele>33.0</ele><time>2026-03-29T07:08:16.296Z</time></trkpt><trkpt lat="40.9326433" lon="14.51347"><ele>33.0</ele><time>2026-03-29T07:08:17.297Z</time></trkpt><trkpt lat="40.93264" lon="14.51358"><ele>33.0</ele><time>2026-03-29T07:08:18.297Z</time></trkpt><trkpt lat="40.9326383" lon="14.51369"><ele>33.0</ele><time>2026-03-29T07:08:19.294Z</time></trkpt><trkpt lat="40.9326317" lon="14.5137967"><ele>33.0</ele><time>2026-03-29T07:08:20.295Z</time></trkpt><trkpt lat="40.932625" lon="14.5139033"><ele>33.0</ele><time>2026-03-29T07:08:21.303Z</time></trkpt><trkpt lat="40.9326217" lon="14.514005"><ele>33.0</ele><time>2026-03-29T07:08:22.296Z</time></trkpt><trkpt lat="40.9326133" lon="14.514105"><ele>33.0</ele><time>2026-03-29T07:08:23.295Z</time></trkpt><trkpt lat="40.9325967" lon="14.5142"><ele>33.0</ele><time>2026-03-29T07:08:24.295Z</time></trkpt><trkpt lat="40.9325783" lon="14.5142917"><ele>33.0</ele><time>2026-03-29T07:08:25.296Z</time></trkpt><trkpt lat="40.9325583" lon="14.5143817"><ele>33.0</ele><time>2026-03-29T07:08:26.295Z</time></trkpt><trkpt lat="40.93255" lon="14.5144733"><ele>33.0</ele><time>2026-03-29T07:08:27.295Z</time></trkpt><trkpt lat="40.9325533" lon="14.5145717"><ele>33.285714285714285</ele><time>2026-03-29T07:08:28.295Z</time></trkpt><trkpt lat="40.9325633" lon="14.5146683"><ele>33.57142857142857</ele><time>2026-03-29T07:08:29.296Z</time></trkpt><trkpt lat="40.9325783" lon="14.5147633"><ele>33.85714285714286</ele><time>2026-03-29T07:08:30.295Z</time></trkpt><trkpt lat="40.9325883" lon="14.5148567"><ele>34.14285714285714</ele><time>2026-03-29T07:08:31.295Z</time></trkpt><trkpt lat="40.9325917" lon="14.5149533"><ele>34.42857142857143</ele><time>2026-03-29T07:08:32.297Z</time></trkpt><trkpt lat="40.93259" lon="14.51505"><ele>34.714285714285715</ele><time>2026-03-29T07:08:33.297Z</time></trkpt><trkpt lat="40.9325883" lon="14.51515"><ele>35.0</ele><time>2026-03-29T07:08:34.297Z</time></trkpt><trkpt lat="40.9325867" lon="14.51525"><ele>35.0</ele><time>2026-03-29T07:08:35.297Z</time></trkpt><trkpt lat="40.9325817" lon="14.5153517"><ele>35.0</ele><time>2026-03-29T07:08:36.294Z</time></trkpt><trkpt lat="40.9325767" lon="14.5154567"><ele>35.0</ele><time>2026-03-29T07:08:37.295Z</time></trkpt><trkpt lat="40.932575" lon="14.5155583"><ele>35.0</ele><time>2026-03-29T07:08:38.294Z</time></trkpt><trkpt lat="40.9325617" lon="14.5156617"><ele>35.0</ele><time>2026-03-29T07:08:39.296Z</time></trkpt><trkpt lat="40.9325467" lon="14.5157667"><ele>35.0</ele><time>2026-03-29T07:08:40.295Z</time></trkpt><trkpt lat="40.9325417" lon="14.5158683"><ele>34.83333333333333</ele><time>2026-03-29T07:08:41.296Z</time></trkpt><trkpt lat="40.9325383" lon="14.5159683"><ele>34.666666666666664</ele><time>2026-03-29T07:08:42.297Z</time></trkpt><trkpt lat="40.9325383" lon="14.5160683"><ele>34.5</ele><time>2026-03-29T07:08:43.294Z</time></trkpt><trkpt lat="40.9325417" lon="14.5161717"><ele>34.333333333333336</ele><time>2026-03-29T07:08:44.295Z</time></trkpt><trkpt lat="40.9325433" lon="14.5162717"><ele>34.16666666666667</ele><time>2026-03-29T07:08:45.294Z</time></trkpt><trkpt lat="40.9325383" lon="14.51637"><ele>34.0</ele><time>2026-03-29T07:08:46.296Z</time></trkpt><trkpt lat="40.9325283" lon="14.51647"><ele>33.857142857142854</ele><time>2026-03-29T07:08:47.295Z</time></trkpt><trkpt lat="40.9325283" lon="14.51657"><ele>33.714285714285715</ele><time>2026-03-29T07:08:48.295Z</time></trkpt><trkpt lat="40.9325267" lon="14.5166667"><ele>33.57142857142857</ele><time>2026-03-29T07:08:49.295Z</time></trkpt><trkpt lat="40.9325267" lon="14.5167617"><ele>33.42857142857143</ele><time>2026-03-29T07:08:50.295Z</time></trkpt><trkpt lat="40.9325217" lon="14.5168533"><ele>33.285714285714285</ele><time>2026-03-29T07:08:51.295Z</time></trkpt><trkpt lat="40.9325183" lon="14.5169467"><ele>33.14285714285714</ele><time>2026-03-29T07:08:52.295Z</time></trkpt><trkpt lat="40.9325167" lon="14.5170433"><ele>33.0</ele><time>2026-03-29T07:08:53.295Z</time></trkpt><trkpt lat="40.932515" lon="14.5171367"><ele>33.285714285714285</ele><time>2026-03-29T07:08:54.295Z</time></trkpt><trkpt lat="40.93251" lon="14.51723"><ele>33.57142857142857</ele><time>2026-03-29T07:08:55.297Z</time></trkpt><trkpt lat="40.93251" lon="14.51732"><ele>33.85714285714286</ele><time>2026-03-29T07:08:56.294Z</time></trkpt><trkpt lat="40.93251" lon="14.5174117"><ele>34.14285714285714</ele><time>2026-03-29T07:08:57.294Z</time></trkpt><trkpt lat="40.93251" lon="14.5175033"><ele>34.42857142857143</ele><time>2026-03-29T07:08:58.294Z</time></trkpt><trkpt lat="40.9325067" lon="14.5175967"><ele>34.714285714285715</ele><time>2026-03-29T07:08:59.295Z</time></trkpt><trkpt lat="40.932505" lon="14.51769"><ele>35.0</ele><time>2026-03-29T07:09:00.299Z</time></trkpt><trkpt lat="40.9325017" lon="14.5177833"><ele>35.0</ele><time>2026-03-29T07:09:01.297Z</time></trkpt><trkpt lat="40.9324967" lon="14.5178733"><ele>35.0</ele><time>2026-03-29T07:09:02.299Z</time></trkpt><trkpt lat="40.932495" lon="14.517965"><ele>35.0</ele><time>2026-03-29T07:09:03.294Z</time></trkpt><trkpt lat="40.932495" lon="14.5180583"><ele>35.0</ele><time>2026-03-29T07:09:04.297Z</time></trkpt><trkpt lat="40.9324933" lon="14.5181483"><ele>35.0</ele><time>2026-03-29T07:09:05.293Z</time></trkpt><trkpt lat="40.932485" lon="14.5182383"><ele>35.0</ele><time>2026-03-29T07:09:06.293Z</time></trkpt><trkpt lat="40.932475" lon="14.5183333"><ele>35.0</ele><time>2026-03-29T07:09:07.295Z</time></trkpt><trkpt lat="40.9324667" lon="14.5184283"><ele>35.0</ele><time>2026-03-29T07:09:08.294Z</time></trkpt><trkpt lat="40.9324617" lon="14.5185183"><ele>35.0</ele><time>2026-03-29T07:09:09.293Z</time></trkpt><trkpt lat="40.9324567" lon="14.51861"><ele>35.0</ele><time>2026-03-29T07:09:10.298Z</time></trkpt><trkpt lat="40.9324517" lon="14.5187917"><ele>35.0</ele><time>2026-03-29T07:09:12.294Z</time></trkpt><trkpt lat="40.9324433" lon="14.5189533"><ele>35.0</ele><time>2026-03-29T07:09:14.293Z</time></trkpt><trkpt lat="40.9324433" lon="14.5190417"><ele>35.0</ele><time>2026-03-29T07:09:15.294Z</time></trkpt><trkpt lat="40.9324483" lon="14.5192117"><ele>35.0</ele><time>2026-03-29T07:09:17.293Z</time></trkpt><trkpt lat="40.9324467" lon="14.51931"><ele>35.0</ele><time>2026-03-29T07:09:18.296Z</time></trkpt><trkpt lat="40.932445" lon="14.519405"><ele>35.0</ele><time>2026-03-29T07:09:19.293Z</time></trkpt><trkpt lat="40.9324467" lon="14.5194983"><ele>35.0</ele><time>2026-03-29T07:09:20.293Z</time></trkpt><trkpt lat="40.9324417" lon="14.519585"><ele>35.0</ele><time>2026-03-29T07:09:21.294Z</time></trkpt><trkpt lat="40.9324367" lon="14.5196683"><ele>35.0</ele><time>2026-03-29T07:09:22.298Z</time></trkpt><trkpt lat="40.9324317" lon="14.5197633"><ele>35.0</ele><time>2026-03-29T07:09:23.293Z</time></trkpt><trkpt lat="40.9324283" lon="14.519855"><ele>35.0</ele><time>2026-03-29T07:09:24.293Z</time></trkpt><trkpt lat="40.932425" lon="14.5199417"><ele>35.0</ele><time>2026-03-29T07:09:25.293Z</time></trkpt><trkpt lat="40.9324133" lon="14.5200333"><ele>35.0</ele><time>2026-03-29T07:09:26.293Z</time></trkpt><trkpt lat="40.9323983" lon="14.5201267"><ele>35.0</ele><time>2026-03-29T07:09:27.293Z</time></trkpt><trkpt lat="40.9323883" lon="14.5202183"><ele>35.0</ele><time>2026-03-29T07:09:28.293Z</time></trkpt><trkpt lat="40.932385" lon="14.5203117"><ele>35.0</ele><time>2026-03-29T07:09:29.294Z</time></trkpt><trkpt lat="40.932385" lon="14.52041"><ele>35.0</ele><time>2026-03-29T07:09:30.293Z</time></trkpt><trkpt lat="40.93239" lon="14.5205133"><ele>35.0</ele><time>2026-03-29T07:09:31.294Z</time></trkpt><trkpt lat="40.9324083" lon="14.5206083"><ele>35.0</ele><time>2026-03-29T07:09:32.293Z</time></trkpt><trkpt lat="40.9324317" lon="14.5207017"><ele>35.0</ele><time>2026-03-29T07:09:33.294Z</time></trkpt><trkpt lat="40.932445" lon="14.5207983"><ele>35.0</ele><time>2026-03-29T07:09:34.293Z</time></trkpt><trkpt lat="40.9324517" lon="14.5208983"><ele>35.0</ele><time>2026-03-29T07:09:35.294Z</time></trkpt><trkpt lat="40.9324617" lon="14.5209983"><ele>35.0</ele><time>2026-03-29T07:09:36.293Z</time></trkpt><trkpt lat="40.9324767" lon="14.5210933"><ele>35.0</ele><time>2026-03-29T07:09:37.294Z</time></trkpt><trkpt lat="40.93249" lon="14.5211867"><ele>35.0</ele><time>2026-03-29T07:09:38.293Z</time></trkpt><trkpt lat="40.9325133" lon="14.5212767"><ele>35.0</ele><time>2026-03-29T07:09:39.293Z</time></trkpt><trkpt lat="40.9325367" lon="14.521365"><ele>35.0</ele><time>2026-03-29T07:09:40.293Z</time></trkpt><trkpt lat="40.932555" lon="14.5214583"><ele>35.0</ele><time>2026-03-29T07:09:41.294Z</time></trkpt><trkpt lat="40.932575" lon="14.5215517"><ele>35.142857142857146</ele><time>2026-03-29T07:09:42.293Z</time></trkpt><trkpt lat="40.9325917" lon="14.521645"><ele>35.285714285714285</ele><time>2026-03-29T07:09:43.293Z</time></trkpt><trkpt lat="40.9326117" lon="14.5217367"><ele>35.42857142857143</ele><time>2026-03-29T07:09:44.293Z</time></trkpt><trkpt lat="40.932635" lon="14.521825"><ele>35.57142857142857</ele><time>2026-03-29T07:09:45.293Z</time></trkpt><trkpt lat="40.9326567" lon="14.5219167"><ele>35.714285714285715</ele><time>2026-03-29T07:09:46.293Z</time></trkpt><trkpt lat="40.932685" lon="14.5220067"><ele>35.85714285714286</ele><time>2026-03-29T07:09:47.293Z</time></trkpt><trkpt lat="40.9327117" lon="14.5220933"><ele>36.0</ele><time>2026-03-29T07:09:48.293Z</time></trkpt><trkpt lat="40.9327383" lon="14.5221817"><ele>36.00000000000001</ele><time>2026-03-29T07:09:49.294Z</time></trkpt><trkpt lat="40.9327633" lon="14.5222733"><ele>36.0</ele><time>2026-03-29T07:09:50.293Z</time></trkpt><trkpt lat="40.9327833" lon="14.5223667"><ele>36.0</ele><time>2026-03-29T07:09:51.295Z</time></trkpt><trkpt lat="40.9328" lon="14.5224583"><ele>36.0</ele><time>2026-03-29T07:09:52.295Z</time></trkpt><trkpt lat="40.9328233" lon="14.5225517"><ele>36.0</ele><time>2026-03-29T07:09:53.294Z</time></trkpt><trkpt lat="40.9328467" lon="14.522645"><ele>36.00000000000001</ele><time>2026-03-29T07:09:54.294Z</time></trkpt><trkpt lat="40.9328783" lon="14.5227367"><ele>36.0</ele><time>2026-03-29T07:09:55.295Z</time></trkpt><trkpt lat="40.9329067" lon="14.52283"><ele>36.00000000000001</ele><time>2026-03-29T07:09:56.294Z</time></trkpt><trkpt lat="40.932935" lon="14.5229217"><ele>36.0</ele><time>2026-03-29T07:09:57.294Z</time></trkpt><trkpt lat="40.9329617" lon="14.5230067"><ele>36.0</ele><time>2026-03-29T07:09:58.294Z</time></trkpt><trkpt lat="40.9329917" lon="14.5230883"><ele>36.0</ele><time>2026-03-29T07:09:59.294Z</time></trkpt><trkpt lat="40.9330183" lon="14.523175"><ele>36.0</ele><time>2026-03-29T07:10:00.294Z</time></trkpt><trkpt lat="40.933045" lon="14.5232667"><ele>36.00000000000001</ele><time>2026-03-29T07:10:01.294Z</time></trkpt><trkpt lat="40.9330733" lon="14.5233583"><ele>36.0</ele><time>2026-03-29T07:10:02.294Z</time></trkpt><trkpt lat="40.9330967" lon="14.5234483"><ele>36.00000000000001</ele><time>2026-03-29T07:10:03.294Z</time></trkpt><trkpt lat="40.9331217" lon="14.5235367"><ele>36.0</ele><time>2026-03-29T07:10:04.294Z</time></trkpt><trkpt lat="40.9331433" lon="14.5236317"><ele>36.0</ele><time>2026-03-29T07:10:05.294Z</time></trkpt><trkpt lat="40.933165" lon="14.5237267"><ele>36.0</ele><time>2026-03-29T07:10:06.294Z</time></trkpt><trkpt lat="40.93319" lon="14.5238117"><ele>36.0</ele><time>2026-03-29T07:10:07.294Z</time></trkpt><trkpt lat="40.9332167" lon="14.5238967"><ele>36.00000000000001</ele><time>2026-03-29T07:10:08.294Z</time></trkpt><trkpt lat="40.933245" lon="14.523985"><ele>36.0</ele><time>2026-03-29T07:10:09.295Z</time></trkpt><trkpt lat="40.9332717" lon="14.5240683"><ele>36.142857142857146</ele><time>2026-03-29T07:10:10.294Z</time></trkpt><trkpt lat="40.933295" lon="14.5241567"><ele>36.285714285714285</ele><time>2026-03-29T07:10:11.295Z</time></trkpt><trkpt lat="40.933315" lon="14.5242467"><ele>36.42857142857143</ele><time>2026-03-29T07:10:12.295Z</time></trkpt><trkpt lat="40.9333383" lon="14.5243367"><ele>36.57142857142857</ele><time>2026-03-29T07:10:13.294Z</time></trkpt><trkpt lat="40.9333583" lon="14.524425"><ele>36.714285714285715</ele><time>2026-03-29T07:10:14.295Z</time></trkpt><trkpt lat="40.93338" lon="14.52451"><ele>36.85714285714286</ele><time>2026-03-29T07:10:15.294Z</time></trkpt><trkpt lat="40.9333983" lon="14.5245933"><ele>37.0</ele><time>2026-03-29T07:10:16.294Z</time></trkpt><trkpt lat="40.9334167" lon="14.5246767"><ele>37.285714285714285</ele><time>2026-03-29T07:10:17.293Z</time></trkpt><trkpt lat="40.9334333" lon="14.5247633"><ele>37.57142857142857</ele><time>2026-03-29T07:10:18.295Z</time></trkpt><trkpt lat="40.933455" lon="14.5248483"><ele>37.85714285714286</ele><time>2026-03-29T07:10:19.294Z</time></trkpt><trkpt lat="40.9334783" lon="14.52493"><ele>38.14285714285714</ele><time>2026-03-29T07:10:20.293Z</time></trkpt><trkpt lat="40.9334983" lon="14.52501"><ele>38.42857142857142</ele><time>2026-03-29T07:10:21.294Z</time></trkpt><trkpt lat="40.9335167" lon="14.5250933"><ele>38.714285714285715</ele><time>2026-03-29T07:10:22.293Z</time></trkpt><trkpt lat="40.9335317" lon="14.52518"><ele>39.0</ele><time>2026-03-29T07:10:23.294Z</time></trkpt><trkpt lat="40.933545" lon="14.525265"><ele>39.0</ele><time>2026-03-29T07:10:24.294Z</time></trkpt><trkpt lat="40.9335567" lon="14.5253517"><ele>39.0</ele><time>2026-03-29T07:10:25.294Z</time></trkpt><trkpt lat="40.9335617" lon="14.525445"><ele>39.0</ele><time>2026-03-29T07:10:26.293Z</time></trkpt><trkpt lat="40.9335717" lon="14.5255367"><ele>39.0</ele><time>2026-03-29T07:10:27.293Z</time></trkpt><trkpt lat="40.93359" lon="14.52562"><ele>39.0</ele><time>2026-03-29T07:10:28.294Z</time></trkpt><trkpt lat="40.9336183" lon="14.5257017"><ele>39.0</ele><time>2026-03-29T07:10:29.294Z</time></trkpt><trkpt lat="40.9336517" lon="14.52578"><ele>39.0</ele><time>2026-03-29T07:10:30.294Z</time></trkpt><trkpt lat="40.9336833" lon="14.525855"><ele>39.333333333333336</ele><time>2026-03-29T07:10:31.295Z</time></trkpt><trkpt lat="40.9337133" lon="14.52593"><ele>39.666666666666664</ele><time>2026-03-29T07:10:32.294Z</time></trkpt><trkpt lat="40.93374" lon="14.5260083"><ele>40.0</ele><time>2026-03-29T07:10:33.294Z</time></trkpt><trkpt lat="40.9337667" lon="14.5260883"><ele>40.33333333333333</ele><time>2026-03-29T07:10:34.294Z</time></trkpt><trkpt lat="40.9337933" lon="14.5261683"><ele>40.666666666666664</ele><time>2026-03-29T07:10:35.295Z</time></trkpt><trkpt lat="40.9338267" lon="14.52633"><ele>41.0</ele><time>2026-03-29T07:10:37.294Z</time></trkpt><trkpt lat="40.9338417" lon="14.526415"><ele>41.14285714285714</ele><time>2026-03-29T07:10:38.294Z</time></trkpt><trkpt lat="40.93386" lon="14.5264983"><ele>41.285714285714285</ele><time>2026-03-29T07:10:39.294Z</time></trkpt><trkpt lat="40.933885" lon="14.5265767"><ele>41.42857142857143</ele><time>2026-03-29T07:10:40.294Z</time></trkpt><trkpt lat="40.9339083" lon="14.5266583"><ele>41.57142857142857</ele><time>2026-03-29T07:10:41.295Z</time></trkpt><trkpt lat="40.9339267" lon="14.52674"><ele>41.714285714285715</ele><time>2026-03-29T07:10:42.294Z</time></trkpt><trkpt lat="40.9339433" lon="14.5268233"><ele>41.857142857142854</ele><time>2026-03-29T07:10:43.296Z</time></trkpt><trkpt lat="40.9339533" lon="14.5269067"><ele>42.0</ele><time>2026-03-29T07:10:44.294Z</time></trkpt><trkpt lat="40.93397" lon="14.52699"><ele>41.857142857142854</ele><time>2026-03-29T07:10:45.294Z</time></trkpt><trkpt lat="40.9339933" lon="14.5270733"><ele>41.714285714285715</ele><time>2026-03-29T07:10:46.294Z</time></trkpt><trkpt lat="40.93401" lon="14.5271567"><ele>41.57142857142857</ele><time>2026-03-29T07:10:47.294Z</time></trkpt><trkpt lat="40.9340317" lon="14.5272383"><ele>41.42857142857143</ele><time>2026-03-29T07:10:48.294Z</time></trkpt><trkpt lat="40.9340517" lon="14.5273217"><ele>41.285714285714285</ele><time>2026-03-29T07:10:49.295Z</time></trkpt><trkpt lat="40.9340667" lon="14.5274033"><ele>41.14285714285714</ele><time>2026-03-29T07:10:50.294Z</time></trkpt><trkpt lat="40.9340867" lon="14.5274833"><ele>41.0</ele><time>2026-03-29T07:10:51.294Z</time></trkpt><trkpt lat="40.934115" lon="14.5275617"><ele>41.0</ele><time>2026-03-29T07:10:52.293Z</time></trkpt><trkpt lat="40.9341617" lon="14.52771"><ele>41.0</ele><time>2026-03-29T07:10:54.295Z</time></trkpt><trkpt lat="40.9341917" lon="14.52786"><ele>41.0</ele><time>2026-03-29T07:10:56.294Z</time></trkpt><trkpt lat="40.9341967" lon="14.5280217"><ele>41.0</ele><time>2026-03-29T07:10:58.294Z</time></trkpt><trkpt lat="40.9342017" lon="14.5281067"><ele>41.0</ele><time>2026-03-29T07:10:59.294Z</time></trkpt><trkpt lat="40.93426" lon="14.528255"><ele>40.99999999999999</ele><time>2026-03-29T07:11:01.293Z</time></trkpt><trkpt lat="40.9343033" lon="14.5283167"><ele>41.0</ele><time>2026-03-29T07:11:02.293Z</time></trkpt><trkpt lat="40.9343633" lon="14.5284583"><ele>41.0</ele><time>2026-03-29T07:11:04.293Z</time></trkpt><trkpt lat="40.9343917" lon="14.5285333"><ele>41.0</ele><time>2026-03-29T07:11:05.295Z</time></trkpt><trkpt lat="40.9344133" lon="14.5286117"><ele>41.0</ele><time>2026-03-29T07:11:06.293Z</time></trkpt><trkpt lat="40.934435" lon="14.5286917"><ele>40.99999999999999</ele><time>2026-03-29T07:11:07.293Z</time></trkpt><trkpt lat="40.9344617" lon="14.5287733"><ele>41.0</ele><time>2026-03-29T07:11:08.293Z</time></trkpt><trkpt lat="40.9344833" lon="14.5288517"><ele>40.99999999999999</ele><time>2026-03-29T07:11:09.294Z</time></trkpt><trkpt lat="40.9345067" lon="14.5289317"><ele>41.0</ele><time>2026-03-29T07:11:10.294Z</time></trkpt><trkpt lat="40.934535" lon="14.5290083"><ele>41.0</ele><time>2026-03-29T07:11:11.293Z</time></trkpt><trkpt lat="40.9345617" lon="14.529085"><ele>41.0</ele><time>2026-03-29T07:11:12.293Z</time></trkpt><trkpt lat="40.9345883" lon="14.5291633"><ele>41.0</ele><time>2026-03-29T07:11:13.293Z</time></trkpt><trkpt lat="40.93462" lon="14.5292367"><ele>40.99999999999999</ele><time>2026-03-29T07:11:14.293Z</time></trkpt><trkpt lat="40.9346567" lon="14.5293117"><ele>41.0</ele><time>2026-03-29T07:11:15.294Z</time></trkpt><trkpt lat="40.9346917" lon="14.529385"><ele>40.99999999999999</ele><time>2026-03-29T07:11:16.294Z</time></trkpt><trkpt lat="40.934725" lon="14.5294617"><ele>41.0</ele><time>2026-03-29T07:11:17.294Z</time></trkpt><trkpt lat="40.9347617" lon="14.5295317"><ele>41.0</ele><time>2026-03-29T07:11:18.293Z</time></trkpt><trkpt lat="40.9348017" lon="14.5296"><ele>41.0</ele><time>2026-03-29T07:11:19.294Z</time></trkpt><trkpt lat="40.9348433" lon="14.52967"><ele>41.0</ele><time>2026-03-29T07:11:20.294Z</time></trkpt><trkpt lat="40.9348833" lon="14.5297433"><ele>40.99999999999999</ele><time>2026-03-29T07:11:21.294Z</time></trkpt><trkpt lat="40.9349267" lon="14.5298117"><ele>41.0</ele><time>2026-03-29T07:11:22.293Z</time></trkpt><trkpt lat="40.93497" lon="14.5298833"><ele>41.285714285714285</ele><time>2026-03-29T07:11:23.295Z</time></trkpt><trkpt lat="40.9350167" lon="14.5299533"><ele>41.57142857142857</ele><time>2026-03-29T07:11:24.294Z</time></trkpt><trkpt lat="40.9350633" lon="14.5300217"><ele>41.85714285714286</ele><time>2026-03-29T07:11:25.297Z</time></trkpt><trkpt lat="40.9351117" lon="14.5300933"><ele>42.14285714285714</ele><time>2026-03-29T07:11:26.293Z</time></trkpt><trkpt lat="40.9351583" lon="14.5301667"><ele>42.42857142857143</ele><time>2026-03-29T07:11:27.293Z</time></trkpt><trkpt lat="40.9352117" lon="14.5302383"><ele>42.714285714285715</ele><time>2026-03-29T07:11:28.294Z</time></trkpt><trkpt lat="40.935265" lon="14.5303067"><ele>43.0</ele><time>2026-03-29T07:11:29.294Z</time></trkpt><trkpt lat="40.9353183" lon="14.5303717"><ele>43.142857142857146</ele><time>2026-03-29T07:11:30.294Z</time></trkpt><trkpt lat="40.9353733" lon="14.53044"><ele>43.285714285714285</ele><time>2026-03-29T07:11:31.294Z</time></trkpt><trkpt lat="40.9354283" lon="14.5305083"><ele>43.42857142857143</ele><time>2026-03-29T07:11:32.293Z</time></trkpt><trkpt lat="40.93548" lon="14.5305733"><ele>43.57142857142857</ele><time>2026-03-29T07:11:33.293Z</time></trkpt><trkpt lat="40.9355317" lon="14.5306383"><ele>43.714285714285715</ele><time>2026-03-29T07:11:34.293Z</time></trkpt><trkpt lat="40.9355867" lon="14.5307067"><ele>43.85714285714286</ele><time>2026-03-29T07:11:35.293Z</time></trkpt><trkpt lat="40.9356383" lon="14.53077"><ele>44.0</ele><time>2026-03-29T07:11:36.295Z</time></trkpt><trkpt lat="40.9356883" lon="14.5308317"><ele>44.0</ele><time>2026-03-29T07:11:37.294Z</time></trkpt><trkpt lat="40.93574" lon="14.530895"><ele>44.0</ele><time>2026-03-29T07:11:38.293Z</time></trkpt><trkpt lat="40.935795" lon="14.5309617"><ele>44.0</ele><time>2026-03-29T07:11:39.293Z</time></trkpt><trkpt lat="40.93585" lon="14.53103"><ele>44.0</ele><time>2026-03-29T07:11:40.294Z</time></trkpt><trkpt lat="40.9359067" lon="14.531105"><ele>44.0</ele><time>2026-03-29T07:11:41.295Z</time></trkpt><trkpt lat="40.9359667" lon="14.5311833"><ele>44.0</ele><time>2026-03-29T07:11:42.294Z</time></trkpt><trkpt lat="40.9360283" lon="14.5312567"><ele>44.33333333333333</ele><time>2026-03-29T07:11:43.294Z</time></trkpt><trkpt lat="40.936085" lon="14.5313267"><ele>44.666666666666664</ele><time>2026-03-29T07:11:44.294Z</time></trkpt><trkpt lat="40.9361467" lon="14.5313983"><ele>45.0</ele><time>2026-03-29T07:11:45.294Z</time></trkpt><trkpt lat="40.9362117" lon="14.5314717"><ele>45.333333333333336</ele><time>2026-03-29T07:11:46.294Z</time></trkpt><trkpt lat="40.93628" lon="14.5315467"><ele>45.66666666666667</ele><time>2026-03-29T07:11:47.295Z</time></trkpt><trkpt lat="40.9363467" lon="14.5316217"><ele>46.0</ele><time>2026-03-29T07:11:48.294Z</time></trkpt><trkpt lat="40.93641" lon="14.5316967"><ele>46.0</ele><time>2026-03-29T07:11:49.295Z</time></trkpt><trkpt lat="40.936475" lon="14.531775"><ele>46.0</ele><time>2026-03-29T07:11:50.294Z</time></trkpt><trkpt lat="40.9365367" lon="14.5318583"><ele>46.0</ele><time>2026-03-29T07:11:51.294Z</time></trkpt><trkpt lat="40.936595" lon="14.531945"><ele>46.0</ele><time>2026-03-29T07:11:52.294Z</time></trkpt><trkpt lat="40.93666" lon="14.5320267"><ele>46.0</ele><time>2026-03-29T07:11:53.295Z</time></trkpt><trkpt lat="40.9367283" lon="14.5321033"><ele>46.0</ele><time>2026-03-29T07:11:54.295Z</time></trkpt><trkpt lat="40.936795" lon="14.5321833"><ele>45.833333333333336</ele><time>2026-03-29T07:11:55.295Z</time></trkpt><trkpt lat="40.936855" lon="14.532265"><ele>45.66666666666667</ele><time>2026-03-29T07:11:56.294Z</time></trkpt><trkpt lat="40.9369183" lon="14.5323433"><ele>45.5</ele><time>2026-03-29T07:11:57.294Z</time></trkpt><trkpt lat="40.936985" lon="14.5324217"><ele>45.333333333333336</ele><time>2026-03-29T07:11:58.294Z</time></trkpt><trkpt lat="40.937055" lon="14.5325067"><ele>45.166666666666664</ele><time>2026-03-29T07:11:59.294Z</time></trkpt><trkpt lat="40.93712" lon="14.5325933"><ele>45.0</ele><time>2026-03-29T07:12:00.294Z</time></trkpt><trkpt lat="40.9371817" lon="14.5326767"><ele>45.0</ele><time>2026-03-29T07:12:01.294Z</time></trkpt><trkpt lat="40.9372433" lon="14.5327583"><ele>45.0</ele><time>2026-03-29T07:12:02.295Z</time></trkpt><trkpt lat="40.937305" lon="14.5328367"><ele>45.0</ele><time>2026-03-29T07:12:03.294Z</time></trkpt><trkpt lat="40.9373633" lon="14.5329167"><ele>45.0</ele><time>2026-03-29T07:12:04.294Z</time></trkpt><trkpt lat="40.93742" lon="14.5329933"><ele>45.0</ele><time>2026-03-29T07:12:05.294Z</time></trkpt><trkpt lat="40.937475" lon="14.5330667"><ele>45.0</ele><time>2026-03-29T07:12:06.293Z</time></trkpt><trkpt lat="40.9375317" lon="14.5331417"><ele>45.14285714285714</ele><time>2026-03-29T07:12:07.295Z</time></trkpt><trkpt lat="40.937585" lon="14.5332167"><ele>45.28571428571429</ele><time>2026-03-29T07:12:08.294Z</time></trkpt><trkpt lat="40.9376383" lon="14.53329"><ele>45.42857142857143</ele><time>2026-03-29T07:12:09.294Z</time></trkpt><trkpt lat="40.9376917" lon="14.5333567"><ele>45.57142857142857</ele><time>2026-03-29T07:12:10.294Z</time></trkpt><trkpt lat="40.937745" lon="14.533425"><ele>45.71428571428571</ele><time>2026-03-29T07:12:11.295Z</time></trkpt><trkpt lat="40.937795" lon="14.5334883"><ele>45.85714285714286</ele><time>2026-03-29T07:12:12.294Z</time></trkpt><trkpt lat="40.937845" lon="14.5335567"><ele>46.0</ele><time>2026-03-29T07:12:13.294Z</time></trkpt><trkpt lat="40.937895" lon="14.5336233"><ele>46.0</ele><time>2026-03-29T07:12:14.294Z</time></trkpt><trkpt lat="40.9379483" lon="14.53369"><ele>46.0</ele><time>2026-03-29T07:12:15.294Z</time></trkpt><trkpt lat="40.9380017" lon="14.5337533"><ele>46.0</ele><time>2026-03-29T07:12:16.294Z</time></trkpt><trkpt lat="40.9380533" lon="14.5338183"><ele>46.0</ele><time>2026-03-29T07:12:17.294Z</time></trkpt><trkpt lat="40.938105" lon="14.53388"><ele>46.0</ele><time>2026-03-29T07:12:18.297Z</time></trkpt><trkpt lat="40.9381533" lon="14.5339433"><ele>46.0</ele><time>2026-03-29T07:12:19.294Z</time></trkpt><trkpt lat="40.9382017" lon="14.534005"><ele>46.0</ele><time>2026-03-29T07:12:20.294Z</time></trkpt><trkpt lat="40.9382517" lon="14.5340667"><ele>46.0</ele><time>2026-03-29T07:12:21.294Z</time></trkpt><trkpt lat="40.9383033" lon="14.5341267"><ele>46.0</ele><time>2026-03-29T07:12:22.294Z</time></trkpt><trkpt lat="40.938355" lon="14.5341833"><ele>46.0</ele><time>2026-03-29T07:12:23.295Z</time></trkpt><trkpt lat="40.9384067" lon="14.5342383"><ele>46.0</ele><time>2026-03-29T07:12:24.294Z</time></trkpt><trkpt lat="40.9384583" lon="14.5342933"><ele>46.0</ele><time>2026-03-29T07:12:25.294Z</time></trkpt><trkpt lat="40.9385067" lon="14.5343517"><ele>46.0</ele><time>2026-03-29T07:12:26.294Z</time></trkpt><trkpt lat="40.9385583" lon="14.5344133"><ele>46.0</ele><time>2026-03-29T07:12:27.294Z</time></trkpt><trkpt lat="40.9386067" lon="14.53447"><ele>46.5</ele><time>2026-03-29T07:12:28.295Z</time></trkpt><trkpt lat="40.9386533" lon="14.5345283"><ele>47.0</ele><time>2026-03-29T07:12:29.295Z</time></trkpt><trkpt lat="40.9387" lon="14.5345867"><ele>47.5</ele><time>2026-03-29T07:12:30.294Z</time></trkpt><trkpt lat="40.9387467" lon="14.5346433"><ele>48.0</ele><time>2026-03-29T07:12:31.294Z</time></trkpt><trkpt lat="40.9387917" lon="14.5347017"><ele>48.49999999999999</ele><time>2026-03-29T07:12:32.294Z</time></trkpt><trkpt lat="40.93888" lon="14.5348133"><ele>49.0</ele><time>2026-03-29T07:12:34.294Z</time></trkpt><trkpt lat="40.938965" lon="14.534925"><ele>49.2</ele><time>2026-03-29T07:12:36.294Z</time></trkpt><trkpt lat="40.9390467" lon="14.535035"><ele>49.400000000000006</ele><time>2026-03-29T07:12:38.294Z</time></trkpt><trkpt lat="40.9391167" lon="14.53516"><ele>49.6</ele><time>2026-03-29T07:12:40.294Z</time></trkpt><trkpt lat="40.9391783" lon="14.5353033"><ele>49.8</ele><time>2026-03-29T07:12:42.294Z</time></trkpt><trkpt lat="40.9392067" lon="14.53538"><ele>50.0</ele><time>2026-03-29T07:12:43.294Z</time></trkpt><trkpt lat="40.9392333" lon="14.5354567"><ele>50.16666666666667</ele><time>2026-03-29T07:12:44.298Z</time></trkpt><trkpt lat="40.9392683" lon="14.5355283"><ele>50.333333333333336</ele><time>2026-03-29T07:12:45.295Z</time></trkpt><trkpt lat="40.939365" lon="14.5356233"><ele>50.5</ele><time>2026-03-29T07:12:47.294Z</time></trkpt><trkpt lat="40.9394267" lon="14.5356533"><ele>50.66666666666667</ele><time>2026-03-29T07:12:48.294Z</time></trkpt><trkpt lat="40.9394883" lon="14.5356867"><ele>50.833333333333336</ele><time>2026-03-29T07:12:49.295Z</time></trkpt><trkpt lat="40.9395483" lon="14.535725"><ele>51.0</ele><time>2026-03-29T07:12:50.295Z</time></trkpt><trkpt lat="40.9396083" lon="14.5357733"><ele>51.0</ele><time>2026-03-29T07:12:51.294Z</time></trkpt><trkpt lat="40.9396633" lon="14.5358233"><ele>51.0</ele><time>2026-03-29T07:12:52.294Z</time></trkpt><trkpt lat="40.9397167" lon="14.5358733"><ele>51.0</ele><time>2026-03-29T07:12:53.294Z</time></trkpt><trkpt lat="40.9397683" lon="14.535925"><ele>51.0</ele><time>2026-03-29T07:12:54.298Z</time></trkpt><trkpt lat="40.9398133" lon="14.5359833"><ele>51.0</ele><time>2026-03-29T07:12:55.295Z</time></trkpt><trkpt lat="40.93986" lon="14.536045"><ele>51.0</ele><time>2026-03-29T07:12:56.296Z</time></trkpt><trkpt lat="40.939905" lon="14.5361083"><ele>51.0</ele><time>2026-03-29T07:12:57.294Z</time></trkpt><trkpt lat="40.93999" lon="14.5362333"><ele>51.166666666666664</ele><time>2026-03-29T07:12:59.295Z</time></trkpt><trkpt lat="40.940035" lon="14.5362983"><ele>51.33333333333333</ele><time>2026-03-29T07:13:00.293Z</time></trkpt><trkpt lat="40.94008" lon="14.53636"><ele>51.5</ele><time>2026-03-29T07:13:01.294Z</time></trkpt><trkpt lat="40.9401217" lon="14.5364233"><ele>51.666666666666664</ele><time>2026-03-29T07:13:02.293Z</time></trkpt><trkpt lat="40.9401917" lon="14.536565"><ele>51.83333333333333</ele><time>2026-03-29T07:13:04.293Z</time></trkpt><trkpt lat="40.9402267" lon="14.5366383"><ele>52.0</ele><time>2026-03-29T07:13:05.294Z</time></trkpt><trkpt lat="40.94026" lon="14.5367133"><ele>52.0</ele><time>2026-03-29T07:13:06.294Z</time></trkpt><trkpt lat="40.9402917" lon="14.53679"><ele>52.0</ele><time>2026-03-29T07:13:07.294Z</time></trkpt><trkpt lat="40.9403217" lon="14.5368683"><ele>52.0</ele><time>2026-03-29T07:13:08.295Z</time></trkpt><trkpt lat="40.94035" lon="14.5369483"><ele>52.0</ele><time>2026-03-29T07:13:09.294Z</time></trkpt><trkpt lat="40.940375" lon="14.5370283"><ele>52.0</ele><time>2026-03-29T07:13:10.294Z</time></trkpt><trkpt lat="40.9403983" lon="14.5371117"><ele>52.0</ele><time>2026-03-29T07:13:11.295Z</time></trkpt><trkpt lat="40.94042" lon="14.5371967"><ele>52.0</ele><time>2026-03-29T07:13:12.295Z</time></trkpt><trkpt lat="40.94044" lon="14.5372833"><ele>51.99999999999999</ele><time>2026-03-29T07:13:13.294Z</time></trkpt><trkpt lat="40.9404583" lon="14.53737"><ele>52.0</ele><time>2026-03-29T07:13:14.294Z</time></trkpt><trkpt lat="40.940475" lon="14.5374567"><ele>52.0</ele><time>2026-03-29T07:13:15.294Z</time></trkpt><trkpt lat="40.9404933" lon="14.53754"><ele>52.0</ele><time>2026-03-29T07:13:16.294Z</time></trkpt><trkpt lat="40.9405233" lon="14.5377017"><ele>51.99999999999999</ele><time>2026-03-29T07:13:18.294Z</time></trkpt><trkpt lat="40.94054" lon="14.537785"><ele>52.0</ele><time>2026-03-29T07:13:19.295Z</time></trkpt><trkpt lat="40.9405583" lon="14.5378667"><ele>52.285714285714285</ele><time>2026-03-29T07:13:20.295Z</time></trkpt><trkpt lat="40.9405733" lon="14.5379483"><ele>52.57142857142858</ele><time>2026-03-29T07:13:21.294Z</time></trkpt><trkpt lat="40.940605" lon="14.53811"><ele>52.85714285714286</ele><time>2026-03-29T07:13:23.295Z</time></trkpt><trkpt lat="40.9406183" lon="14.5381917"><ele>53.14285714285714</ele><time>2026-03-29T07:13:24.294Z</time></trkpt><trkpt lat="40.9406333" lon="14.538275"><ele>53.42857142857143</ele><time>2026-03-29T07:13:25.294Z</time></trkpt><trkpt lat="40.9406467" lon="14.5383567"><ele>53.714285714285715</ele><time>2026-03-29T07:13:26.293Z</time></trkpt><trkpt lat="40.9406617" lon="14.5384383"><ele>54.0</ele><time>2026-03-29T07:13:27.294Z</time></trkpt><trkpt lat="40.940675" lon="14.5385217"><ele>54.0</ele><time>2026-03-29T07:13:28.293Z</time></trkpt><trkpt lat="40.94069" lon="14.5386033"><ele>54.0</ele><time>2026-03-29T07:13:29.293Z</time></trkpt><trkpt lat="40.9407033" lon="14.5386883"><ele>54.0</ele><time>2026-03-29T07:13:30.293Z</time></trkpt><trkpt lat="40.94072" lon="14.53877"><ele>54.0</ele><time>2026-03-29T07:13:31.295Z</time></trkpt><trkpt lat="40.940755" lon="14.5389317"><ele>54.0</ele><time>2026-03-29T07:13:33.293Z</time></trkpt><trkpt lat="40.94077" lon="14.5390167"><ele>54.0</ele><time>2026-03-29T07:13:34.294Z</time></trkpt><trkpt lat="40.9407833" lon="14.5390983"><ele>54.0</ele><time>2026-03-29T07:13:35.294Z</time></trkpt><trkpt lat="40.9407967" lon="14.53918"><ele>53.857142857142854</ele><time>2026-03-29T07:13:36.293Z</time></trkpt><trkpt lat="40.9408133" lon="14.5392617"><ele>53.71428571428571</ele><time>2026-03-29T07:13:37.294Z</time></trkpt><trkpt lat="40.940835" lon="14.5393433"><ele>53.57142857142857</ele><time>2026-03-29T07:13:38.294Z</time></trkpt><trkpt lat="40.9408567" lon="14.5394267"><ele>53.42857142857143</ele><time>2026-03-29T07:13:39.293Z</time></trkpt><trkpt lat="40.940875" lon="14.5395083"><ele>53.285714285714285</ele><time>2026-03-29T07:13:40.294Z</time></trkpt><trkpt lat="40.9408967" lon="14.5395933"><ele>53.142857142857146</ele><time>2026-03-29T07:13:41.295Z</time></trkpt><trkpt lat="40.9409183" lon="14.539675"><ele>53.0</ele><time>2026-03-29T07:13:42.295Z</time></trkpt><trkpt lat="40.9409367" lon="14.5397583"><ele>53.57142857142857</ele><time>2026-03-29T07:13:43.298Z</time></trkpt><trkpt lat="40.9409533" lon="14.5398417"><ele>54.14285714285714</ele><time>2026-03-29T07:13:44.294Z</time></trkpt><trkpt lat="40.94097" lon="14.5399233"><ele>54.71428571428571</ele><time>2026-03-29T07:13:45.294Z</time></trkpt><trkpt lat="40.94099" lon="14.5400083"><ele>55.285714285714285</ele><time>2026-03-29T07:13:46.294Z</time></trkpt><trkpt lat="40.94101" lon="14.5400933"><ele>55.85714285714285</ele><time>2026-03-29T07:13:47.295Z</time></trkpt><trkpt lat="40.94103" lon="14.54018"><ele>56.42857142857142</ele><time>2026-03-29T07:13:48.295Z</time></trkpt><trkpt lat="40.9410467" lon="14.5402617"><ele>57.0</ele><time>2026-03-29T07:13:49.294Z</time></trkpt><trkpt lat="40.9410683" lon="14.54034"><ele>56.833333333333336</ele><time>2026-03-29T07:13:50.294Z</time></trkpt><trkpt lat="40.941085" lon="14.5404233"><ele>56.66666666666667</ele><time>2026-03-29T07:13:51.293Z</time></trkpt><trkpt lat="40.9410967" lon="14.5405067"><ele>56.5</ele><time>2026-03-29T07:13:52.293Z</time></trkpt><trkpt lat="40.94111" lon="14.5405883"><ele>56.333333333333336</ele><time>2026-03-29T07:13:53.295Z</time></trkpt><trkpt lat="40.94114" lon="14.5407483"><ele>56.16666666666667</ele><time>2026-03-29T07:13:55.294Z</time></trkpt><trkpt lat="40.941165" lon="14.540895"><ele>56.0</ele><time>2026-03-29T07:13:57.293Z</time></trkpt><trkpt lat="40.9411917" lon="14.5410217"><ele>56.0</ele><time>2026-03-29T07:13:59.294Z</time></trkpt><trkpt lat="40.941225" lon="14.54115"><ele>56.0</ele><time>2026-03-29T07:14:01.294Z</time></trkpt><trkpt lat="40.94126" lon="14.5412967"><ele>56.0</ele><time>2026-03-29T07:14:03.293Z</time></trkpt><trkpt lat="40.941295" lon="14.5414467"><ele>56.0</ele><time>2026-03-29T07:14:05.294Z</time></trkpt><trkpt lat="40.9413267" lon="14.5416"><ele>56.0</ele><time>2026-03-29T07:14:07.294Z</time></trkpt><trkpt lat="40.941345" lon="14.54168"><ele>55.99999999999999</ele><time>2026-03-29T07:14:08.294Z</time></trkpt><trkpt lat="40.9413767" lon="14.5418367"><ele>55.99999999999999</ele><time>2026-03-29T07:14:10.295Z</time></trkpt><trkpt lat="40.9414067" lon="14.5419867"><ele>56.0</ele><time>2026-03-29T07:14:12.294Z</time></trkpt><trkpt lat="40.9414433" lon="14.5421367"><ele>56.0</ele><time>2026-03-29T07:14:14.294Z</time></trkpt><trkpt lat="40.9414783" lon="14.542285"><ele>56.4</ele><time>2026-03-29T07:14:16.294Z</time></trkpt><trkpt lat="40.94151" lon="14.5424433"><ele>56.8</ele><time>2026-03-29T07:14:18.294Z</time></trkpt><trkpt lat="40.9415433" lon="14.5426017"><ele>57.199999999999996</ele><time>2026-03-29T07:14:20.293Z</time></trkpt><trkpt lat="40.9415617" lon="14.5426817"><ele>57.599999999999994</ele><time>2026-03-29T07:14:21.293Z</time></trkpt><trkpt lat="40.9415767" lon="14.5427683"><ele>58.0</ele><time>2026-03-29T07:14:22.293Z</time></trkpt><trkpt lat="40.9416083" lon="14.5429267"><ele>58.49999999999999</ele><time>2026-03-29T07:14:24.294Z</time></trkpt><trkpt lat="40.9416267" lon="14.54301"><ele>59.0</ele><time>2026-03-29T07:14:25.295Z</time></trkpt><trkpt lat="40.9416567" lon="14.54317"><ele>59.5</ele><time>2026-03-29T07:14:27.294Z</time></trkpt><trkpt lat="40.9416917" lon="14.5433267"><ele>60.0</ele><time>2026-03-29T07:14:29.294Z</time></trkpt><trkpt lat="40.941705" lon="14.5434083"><ele>60.49999999999999</ele><time>2026-03-29T07:14:30.293Z</time></trkpt><trkpt lat="40.9417183" lon="14.5434917"><ele>61.0</ele><time>2026-03-29T07:14:31.294Z</time></trkpt><trkpt lat="40.941735" lon="14.5435733"><ele>60.99999999999999</ele><time>2026-03-29T07:14:32.293Z</time></trkpt><trkpt lat="40.941765" lon="14.5437383"><ele>61.0</ele><time>2026-03-29T07:14:34.294Z</time></trkpt><trkpt lat="40.9417817" lon="14.5438233"><ele>61.0</ele><time>2026-03-29T07:14:35.294Z</time></trkpt><trkpt lat="40.9418" lon="14.5439083"><ele>61.0</ele><time>2026-03-29T07:14:36.294Z</time></trkpt><trkpt lat="40.94182" lon="14.5439917"><ele>60.99999999999999</ele><time>2026-03-29T07:14:37.294Z</time></trkpt><trkpt lat="40.94184" lon="14.5440733"><ele>61.0</ele><time>2026-03-29T07:14:38.294Z</time></trkpt><trkpt lat="40.9418617" lon="14.544155"><ele>60.99999999999999</ele><time>2026-03-29T07:14:39.294Z</time></trkpt><trkpt lat="40.9418817" lon="14.544235"><ele>61.0</ele><time>2026-03-29T07:14:40.295Z</time></trkpt><trkpt lat="40.9418983" lon="14.5443167"><ele>61.0</ele><time>2026-03-29T07:14:41.294Z</time></trkpt><trkpt lat="40.941915" lon="14.5444717"><ele>61.0</ele><time>2026-03-29T07:14:43.294Z</time></trkpt><trkpt lat="40.94193" lon="14.5445533"><ele>60.99999999999999</ele><time>2026-03-29T07:14:44.294Z</time></trkpt><trkpt lat="40.9419583" lon="14.54471"><ele>61.0</ele><time>2026-03-29T07:14:46.293Z</time></trkpt><trkpt lat="40.942" lon="14.544865"><ele>61.0</ele><time>2026-03-29T07:14:48.294Z</time></trkpt><trkpt lat="40.9420333" lon="14.5450117"><ele>61.0</ele><time>2026-03-29T07:14:50.294Z</time></trkpt><trkpt lat="40.9420667" lon="14.5451617"><ele>61.0</ele><time>2026-03-29T07:14:52.294Z</time></trkpt><trkpt lat="40.9421" lon="14.5453233"><ele>61.0</ele><time>2026-03-29T07:14:54.296Z</time></trkpt><trkpt lat="40.9421333" lon="14.5454783"><ele>61.4</ele><time>2026-03-29T07:14:56.293Z</time></trkpt><trkpt lat="40.9421633" lon="14.54563"><ele>61.8</ele><time>2026-03-29T07:14:58.294Z</time></trkpt><trkpt lat="40.9421933" lon="14.54578"><ele>62.199999999999996</ele><time>2026-03-29T07:15:00.294Z</time></trkpt><trkpt lat="40.9422117" lon="14.54586"><ele>62.599999999999994</ele><time>2026-03-29T07:15:01.294Z</time></trkpt><trkpt lat="40.94223" lon="14.54594"><ele>63.0</ele><time>2026-03-29T07:15:02.293Z</time></trkpt><trkpt lat="40.9422583" lon="14.5461"><ele>63.25</ele><time>2026-03-29T07:15:04.293Z</time></trkpt><trkpt lat="40.9422917" lon="14.5462583"><ele>63.5</ele><time>2026-03-29T07:15:06.294Z</time></trkpt><trkpt lat="40.942325" lon="14.5464167"><ele>63.75</ele><time>2026-03-29T07:15:08.294Z</time></trkpt><trkpt lat="40.9423583" lon="14.5465767"><ele>64.0</ele><time>2026-03-29T07:15:10.294Z</time></trkpt><trkpt lat="40.9423933" lon="14.5467317"><ele>64.0</ele><time>2026-03-29T07:15:12.295Z</time></trkpt><trkpt lat="40.94243" lon="14.546885"><ele>64.0</ele><time>2026-03-29T07:15:14.294Z</time></trkpt><trkpt lat="40.9424583" lon="14.5470467"><ele>64.0</ele><time>2026-03-29T07:15:16.294Z</time></trkpt><trkpt lat="40.9424883" lon="14.5472083"><ele>64.0</ele><time>2026-03-29T07:15:18.294Z</time></trkpt><trkpt lat="40.942525" lon="14.5473633"><ele>64.5</ele><time>2026-03-29T07:15:20.294Z</time></trkpt><trkpt lat="40.942565" lon="14.547515"><ele>65.0</ele><time>2026-03-29T07:15:22.294Z</time></trkpt><trkpt lat="40.9426017" lon="14.5476667"><ele>65.5</ele><time>2026-03-29T07:15:24.294Z</time></trkpt><trkpt lat="40.942635" lon="14.5478183"><ele>66.0</ele><time>2026-03-29T07:15:26.294Z</time></trkpt><trkpt lat="40.94267" lon="14.54797"><ele>66.5</ele><time>2026-03-29T07:15:28.294Z</time></trkpt><trkpt lat="40.9426967" lon="14.54811"><ele>67.0</ele><time>2026-03-29T07:15:30.294Z</time></trkpt><trkpt lat="40.9427267" lon="14.548255"><ele>67.5</ele><time>2026-03-29T07:15:32.294Z</time></trkpt><trkpt lat="40.9427567" lon="14.548405"><ele>68.0</ele><time>2026-03-29T07:15:34.295Z</time></trkpt><trkpt lat="40.9427867" lon="14.548555"><ele>68.0</ele><time>2026-03-29T07:15:36.294Z</time></trkpt><trkpt lat="40.942815" lon="14.5486933"><ele>68.0</ele><time>2026-03-29T07:15:38.295Z</time></trkpt><trkpt lat="40.9428433" lon="14.548835"><ele>68.0</ele><time>2026-03-29T07:15:40.295Z</time></trkpt><trkpt lat="40.9428767" lon="14.54897"><ele>68.0</ele><time>2026-03-29T07:15:42.299Z</time></trkpt><trkpt lat="40.942905" lon="14.5491033"><ele>68.0</ele><time>2026-03-29T07:15:44.295Z</time></trkpt><trkpt lat="40.9429383" lon="14.5492367"><ele>68.5</ele><time>2026-03-29T07:15:46.294Z</time></trkpt><trkpt lat="40.9429683" lon="14.54938"><ele>69.0</ele><time>2026-03-29T07:15:48.294Z</time></trkpt><trkpt lat="40.9429967" lon="14.5495267"><ele>69.5</ele><time>2026-03-29T07:15:50.296Z</time></trkpt><trkpt lat="40.9430233" lon="14.549675"><ele>70.0</ele><time>2026-03-29T07:15:52.294Z</time></trkpt><trkpt lat="40.9430467" lon="14.5498167"><ele>70.0</ele><time>2026-03-29T07:15:54.294Z</time></trkpt><trkpt lat="40.9430767" lon="14.5499633"><ele>70.0</ele><time>2026-03-29T07:15:56.295Z</time></trkpt><trkpt lat="40.9431033" lon="14.5501133"><ele>70.0</ele><time>2026-03-29T07:15:58.293Z</time></trkpt><trkpt lat="40.94313" lon="14.550265"><ele>70.0</ele><time>2026-03-29T07:16:00.293Z</time></trkpt><trkpt lat="40.943165" lon="14.5504167"><ele>70.5</ele><time>2026-03-29T07:16:02.293Z</time></trkpt><trkpt lat="40.9431983" lon="14.550565"><ele>71.0</ele><time>2026-03-29T07:16:04.294Z</time></trkpt><trkpt lat="40.9432317" lon="14.5507133"><ele>71.5</ele><time>2026-03-29T07:16:06.297Z</time></trkpt><trkpt lat="40.9432633" lon="14.55086"><ele>72.0</ele><time>2026-03-29T07:16:08.293Z</time></trkpt><trkpt lat="40.943295" lon="14.5510117"><ele>72.0</ele><time>2026-03-29T07:16:10.293Z</time></trkpt><trkpt lat="40.9433267" lon="14.5511533"><ele>72.0</ele><time>2026-03-29T07:16:12.293Z</time></trkpt><trkpt lat="40.943355" lon="14.5512967"><ele>72.0</ele><time>2026-03-29T07:16:14.294Z</time></trkpt><trkpt lat="40.9433867" lon="14.55144"><ele>72.0</ele><time>2026-03-29T07:16:16.293Z</time></trkpt><trkpt lat="40.9434183" lon="14.5515867"><ele>72.75</ele><time>2026-03-29T07:16:18.294Z</time></trkpt><trkpt lat="40.943455" lon="14.551735"><ele>73.5</ele><time>2026-03-29T07:16:20.293Z</time></trkpt><trkpt lat="40.9434883" lon="14.5518883"><ele>74.25</ele><time>2026-03-29T07:16:22.294Z</time></trkpt><trkpt lat="40.9435133" lon="14.55203"><ele>75.0</ele><time>2026-03-29T07:16:24.294Z</time></trkpt><trkpt lat="40.9435417" lon="14.5521683"><ele>75.25</ele><time>2026-03-29T07:16:26.294Z</time></trkpt><trkpt lat="40.9435667" lon="14.5523083"><ele>75.5</ele><time>2026-03-29T07:16:28.293Z</time></trkpt><trkpt lat="40.9435933" lon="14.5524517"><ele>75.75</ele><time>2026-03-29T07:16:30.294Z</time></trkpt><trkpt lat="40.94363" lon="14.552595"><ele>76.0</ele><time>2026-03-29T07:16:32.293Z</time></trkpt><trkpt lat="40.9436583" lon="14.55275"><ele>76.0</ele><time>2026-03-29T07:16:34.293Z</time></trkpt><trkpt lat="40.9436917" lon="14.5528983"><ele>76.0</ele><time>2026-03-29T07:16:36.293Z</time></trkpt><trkpt lat="40.94372" lon="14.5530517"><ele>76.0</ele><time>2026-03-29T07:16:38.293Z</time></trkpt><trkpt lat="40.9437517" lon="14.5531983"><ele>76.0</ele><time>2026-03-29T07:16:40.293Z</time></trkpt><trkpt lat="40.9437817" lon="14.5533417"><ele>76.0</ele><time>2026-03-29T07:16:42.294Z</time></trkpt><trkpt lat="40.943815" lon="14.5534883"><ele>76.0</ele><time>2026-03-29T07:16:44.293Z</time></trkpt><trkpt lat="40.9438433" lon="14.55363"><ele>76.0</ele><time>2026-03-29T07:16:46.293Z</time></trkpt><trkpt lat="40.943865" lon="14.5537667"><ele>76.0</ele><time>2026-03-29T07:16:48.293Z</time></trkpt><trkpt lat="40.9438933" lon="14.5539083"><ele>76.0</ele><time>2026-03-29T07:16:50.293Z</time></trkpt><trkpt lat="40.943925" lon="14.5540517"><ele>76.39999999999999</ele><time>2026-03-29T07:16:52.293Z</time></trkpt><trkpt lat="40.943955" lon="14.5541917"><ele>76.8</ele><time>2026-03-29T07:16:54.293Z</time></trkpt><trkpt lat="40.943985" lon="14.5543333"><ele>77.19999999999999</ele><time>2026-03-29T07:16:56.294Z</time></trkpt><trkpt lat="40.9440133" lon="14.55447"><ele>77.6</ele><time>2026-03-29T07:16:58.294Z</time></trkpt><trkpt lat="40.94404" lon="14.5546033"><ele>78.0</ele><time>2026-03-29T07:17:00.293Z</time></trkpt><trkpt lat="40.9440667" lon="14.5547333"><ele>78.4</ele><time>2026-03-29T07:17:02.293Z</time></trkpt><trkpt lat="40.9440983" lon="14.55487"><ele>78.8</ele><time>2026-03-29T07:17:04.294Z</time></trkpt><trkpt lat="40.9441267" lon="14.5550067"><ele>79.2</ele><time>2026-03-29T07:17:06.293Z</time></trkpt><trkpt lat="40.9441583" lon="14.5551433"><ele>79.6</ele><time>2026-03-29T07:17:08.294Z</time></trkpt><trkpt lat="40.944185" lon="14.5552817"><ele>80.0</ele><time>2026-03-29T07:17:10.293Z</time></trkpt><trkpt lat="40.9442067" lon="14.5554133"><ele>80.6</ele><time>2026-03-29T07:17:12.293Z</time></trkpt><trkpt lat="40.944235" lon="14.5555433"><ele>81.2</ele><time>2026-03-29T07:17:14.293Z</time></trkpt><trkpt lat="40.944255" lon="14.55568"><ele>81.80000000000001</ele><time>2026-03-29T07:17:16.293Z</time></trkpt><trkpt lat="40.9442817" lon="14.5558167"><ele>82.4</ele><time>2026-03-29T07:17:18.294Z</time></trkpt><trkpt lat="40.94431" lon="14.555955"><ele>83.0</ele><time>2026-03-29T07:17:20.293Z</time></trkpt><trkpt lat="40.94433" lon="14.556085"><ele>83.0</ele><time>2026-03-29T07:17:22.293Z</time></trkpt><trkpt lat="40.94436" lon="14.556215"><ele>83.0</ele><time>2026-03-29T07:17:24.293Z</time></trkpt><trkpt lat="40.9443883" lon="14.5563517"><ele>83.0</ele><time>2026-03-29T07:17:26.294Z</time></trkpt><trkpt lat="40.944415" lon="14.5564917"><ele>83.0</ele><time>2026-03-29T07:17:28.293Z</time></trkpt><trkpt lat="40.9444467" lon="14.55663"><ele>83.0</ele><time>2026-03-29T07:17:30.294Z</time></trkpt><trkpt lat="40.9444767" lon="14.5567683"><ele>83.0</ele><time>2026-03-29T07:17:32.293Z</time></trkpt><trkpt lat="40.9445033" lon="14.5569067"><ele>83.0</ele><time>2026-03-29T07:17:34.293Z</time></trkpt><trkpt lat="40.94453" lon="14.55704"><ele>83.0</ele><time>2026-03-29T07:17:36.294Z</time></trkpt><trkpt lat="40.9445617" lon="14.5571783"><ele>83.0</ele><time>2026-03-29T07:17:38.293Z</time></trkpt><trkpt lat="40.9445917" lon="14.55732"><ele>83.0</ele><time>2026-03-29T07:17:40.294Z</time></trkpt><trkpt lat="40.9446233" lon="14.5574567"><ele>83.4</ele><time>2026-03-29T07:17:42.295Z</time></trkpt><trkpt lat="40.9446583" lon="14.557595"><ele>83.80000000000001</ele><time>2026-03-29T07:17:44.294Z</time></trkpt><trkpt lat="40.9446917" lon="14.5577267"><ele>84.2</ele><time>2026-03-29T07:17:46.293Z</time></trkpt><trkpt lat="40.9447217" lon="14.5578667"><ele>84.6</ele><time>2026-03-29T07:17:48.294Z</time></trkpt><trkpt lat="40.944745" lon="14.5580083"><ele>85.0</ele><time>2026-03-29T07:17:50.295Z</time></trkpt><trkpt lat="40.94477" lon="14.55815"><ele>85.4</ele><time>2026-03-29T07:17:52.294Z</time></trkpt><trkpt lat="40.9448017" lon="14.5582883"><ele>85.8</ele><time>2026-03-29T07:17:54.295Z</time></trkpt><trkpt lat="40.94483" lon="14.558425"><ele>86.19999999999999</ele><time>2026-03-29T07:17:56.294Z</time></trkpt><trkpt lat="40.94486" lon="14.5585633"><ele>86.6</ele><time>2026-03-29T07:17:58.294Z</time></trkpt><trkpt lat="40.9448867" lon="14.5587"><ele>87.0</ele><time>2026-03-29T07:18:00.294Z</time></trkpt><trkpt lat="40.94492" lon="14.5588467"><ele>87.19999999999999</ele><time>2026-03-29T07:18:02.294Z</time></trkpt><trkpt lat="40.9449533" lon="14.55899"><ele>87.4</ele><time>2026-03-29T07:18:04.294Z</time></trkpt><trkpt lat="40.9449817" lon="14.5591233"><ele>87.6</ele><time>2026-03-29T07:18:06.294Z</time></trkpt><trkpt lat="40.9450133" lon="14.5592567"><ele>87.80000000000001</ele><time>2026-03-29T07:18:08.294Z</time></trkpt><trkpt lat="40.9450483" lon="14.5593833"><ele>88.0</ele><time>2026-03-29T07:18:10.294Z</time></trkpt><trkpt lat="40.945075" lon="14.55951"><ele>88.60000000000001</ele><time>2026-03-29T07:18:12.294Z</time></trkpt><trkpt lat="40.9451067" lon="14.5596333"><ele>89.2</ele><time>2026-03-29T07:18:14.294Z</time></trkpt><trkpt lat="40.9451367" lon="14.5597617"><ele>89.8</ele><time>2026-03-29T07:18:16.295Z</time></trkpt><trkpt lat="40.94516" lon="14.559885"><ele>90.4</ele><time>2026-03-29T07:18:18.295Z</time></trkpt><trkpt lat="40.9451883" lon="14.5600117"><ele>91.0</ele><time>2026-03-29T07:18:20.294Z</time></trkpt><trkpt lat="40.9452067" lon="14.56014"><ele>91.0</ele><time>2026-03-29T07:18:22.294Z</time></trkpt><trkpt lat="40.9452233" lon="14.5602667"><ele>91.0</ele><time>2026-03-29T07:18:24.294Z</time></trkpt><trkpt lat="40.94525" lon="14.5603867"><ele>91.0</ele><time>2026-03-29T07:18:26.294Z</time></trkpt><trkpt lat="40.9452817" lon="14.5605267"><ele>91.0</ele><time>2026-03-29T07:18:28.294Z</time></trkpt><trkpt lat="40.9453083" lon="14.5606583"><ele>91.0</ele><time>2026-03-29T07:18:30.295Z</time></trkpt><trkpt lat="40.945335" lon="14.5607833"><ele>91.4</ele><time>2026-03-29T07:18:32.295Z</time></trkpt><trkpt lat="40.9453617" lon="14.5609083"><ele>91.8</ele><time>2026-03-29T07:18:34.294Z</time></trkpt><trkpt lat="40.9453933" lon="14.5610317"><ele>92.2</ele><time>2026-03-29T07:18:36.295Z</time></trkpt><trkpt lat="40.945415" lon="14.5611567"><ele>92.60000000000001</ele><time>2026-03-29T07:18:38.294Z</time></trkpt><trkpt lat="40.9454333" lon="14.5612683"><ele>93.0</ele><time>2026-03-29T07:18:40.294Z</time></trkpt><trkpt lat="40.9454533" lon="14.561395"><ele>93.60000000000001</ele><time>2026-03-29T07:18:42.294Z</time></trkpt><trkpt lat="40.9454783" lon="14.5615233"><ele>94.2</ele><time>2026-03-29T07:18:44.294Z</time></trkpt><trkpt lat="40.9455133" lon="14.5616467"><ele>94.8</ele><time>2026-03-29T07:18:46.293Z</time></trkpt><trkpt lat="40.9455433" lon="14.561775"><ele>95.4</ele><time>2026-03-29T07:18:48.294Z</time></trkpt><trkpt lat="40.9455667" lon="14.5619"><ele>96.0</ele><time>2026-03-29T07:18:50.294Z</time></trkpt><trkpt lat="40.9455883" lon="14.562025"><ele>96.19999999999999</ele><time>2026-03-29T07:18:52.294Z</time></trkpt><trkpt lat="40.9456183" lon="14.5621517"><ele>96.39999999999999</ele><time>2026-03-29T07:18:54.293Z</time></trkpt><trkpt lat="40.9456433" lon="14.5622717"><ele>96.6</ele><time>2026-03-29T07:18:56.293Z</time></trkpt><trkpt lat="40.945675" lon="14.5624033"><ele>96.8</ele><time>2026-03-29T07:18:58.295Z</time></trkpt><trkpt lat="40.945705" lon="14.5625167"><ele>97.0</ele><time>2026-03-29T07:19:00.293Z</time></trkpt><trkpt lat="40.94573" lon="14.562635"><ele>97.0</ele><time>2026-03-29T07:19:02.294Z</time></trkpt><trkpt lat="40.9457483" lon="14.5627583"><ele>97.0</ele><time>2026-03-29T07:19:04.293Z</time></trkpt><trkpt lat="40.9457667" lon="14.5628783"><ele>97.0</ele><time>2026-03-29T07:19:06.294Z</time></trkpt><trkpt lat="40.9457917" lon="14.5630033"><ele>97.0</ele><time>2026-03-29T07:19:08.294Z</time></trkpt><trkpt lat="40.945815" lon="14.56313"><ele>97.0</ele><time>2026-03-29T07:19:10.293Z</time></trkpt><trkpt lat="40.94584" lon="14.563255"><ele>97.19999999999999</ele><time>2026-03-29T07:19:12.294Z</time></trkpt><trkpt lat="40.9458667" lon="14.5633767"><ele>97.4</ele><time>2026-03-29T07:19:14.294Z</time></trkpt><trkpt lat="40.94589" lon="14.5635"><ele>97.6</ele><time>2026-03-29T07:19:16.294Z</time></trkpt><trkpt lat="40.9459133" lon="14.563625"><ele>97.80000000000001</ele><time>2026-03-29T07:19:18.294Z</time></trkpt><trkpt lat="40.9459433" lon="14.56375"><ele>98.0</ele><time>2026-03-29T07:19:20.294Z</time></trkpt><trkpt lat="40.945965" lon="14.563875"><ele>97.60000000000001</ele><time>2026-03-29T07:19:22.294Z</time></trkpt><trkpt lat="40.9459767" lon="14.564"><ele>97.2</ele><time>2026-03-29T07:19:24.294Z</time></trkpt><trkpt lat="40.946" lon="14.5641183"><ele>96.8</ele><time>2026-03-29T07:19:26.294Z</time></trkpt><trkpt lat="40.946025" lon="14.5642383"><ele>96.4</ele><time>2026-03-29T07:19:28.295Z</time></trkpt><trkpt lat="40.9460583" lon="14.56436"><ele>96.0</ele><time>2026-03-29T07:19:30.294Z</time></trkpt><trkpt lat="40.946085" lon="14.564485"><ele>96.4</ele><time>2026-03-29T07:19:32.294Z</time></trkpt><trkpt lat="40.946115" lon="14.56461"><ele>96.8</ele><time>2026-03-29T07:19:34.294Z</time></trkpt><trkpt lat="40.9461433" lon="14.564735"><ele>97.2</ele><time>2026-03-29T07:19:36.294Z</time></trkpt><trkpt lat="40.9461733" lon="14.5648533"><ele>97.60000000000001</ele><time>2026-03-29T07:19:38.294Z</time></trkpt><trkpt lat="40.946195" lon="14.56497"><ele>98.0</ele><time>2026-03-29T07:19:40.294Z</time></trkpt><trkpt lat="40.9462217" lon="14.5650733"><ele>97.99999999999999</ele><time>2026-03-29T07:19:42.294Z</time></trkpt><trkpt lat="40.9462367" lon="14.5651833"><ele>98.0</ele><time>2026-03-29T07:19:44.298Z</time></trkpt><trkpt lat="40.9462583" lon="14.5652867"><ele>98.0</ele><time>2026-03-29T07:19:46.295Z</time></trkpt><trkpt lat="40.9462767" lon="14.5654"><ele>98.0</ele><time>2026-03-29T07:19:48.298Z</time></trkpt><trkpt lat="40.9463017" lon="14.5655133"><ele>97.99999999999999</ele><time>2026-03-29T07:19:50.298Z</time></trkpt><trkpt lat="40.94633" lon="14.5656267"><ele>98.0</ele><time>2026-03-29T07:19:52.295Z</time></trkpt><trkpt lat="40.9463533" lon="14.5657383"><ele>99.16666666666666</ele><time>2026-03-29T07:19:54.295Z</time></trkpt><trkpt lat="40.94638" lon="14.56585"><ele>100.33333333333333</ele><time>2026-03-29T07:19:56.295Z</time></trkpt><trkpt lat="40.9464067" lon="14.5659633"><ele>101.5</ele><time>2026-03-29T07:19:58.296Z</time></trkpt><trkpt lat="40.946435" lon="14.5660733"><ele>102.66666666666666</ele><time>2026-03-29T07:20:00.297Z</time></trkpt><trkpt lat="40.9464633" lon="14.566185"><ele>103.83333333333333</ele><time>2026-03-29T07:20:02.297Z</time></trkpt><trkpt lat="40.9464883" lon="14.5662917"><ele>105.0</ele><time>2026-03-29T07:20:04.298Z</time></trkpt><trkpt lat="40.9465167" lon="14.5664033"><ele>105.6</ele><time>2026-03-29T07:20:06.294Z</time></trkpt><trkpt lat="40.9465467" lon="14.5665217"><ele>106.2</ele><time>2026-03-29T07:20:08.298Z</time></trkpt><trkpt lat="40.94658" lon="14.566635"><ele>106.80000000000001</ele><time>2026-03-29T07:20:10.297Z</time></trkpt><trkpt lat="40.94661" lon="14.5667467"><ele>107.4</ele><time>2026-03-29T07:20:12.298Z</time></trkpt><trkpt lat="40.94664" lon="14.56686"><ele>108.0</ele><time>2026-03-29T07:20:14.295Z</time></trkpt><trkpt lat="40.9466683" lon="14.5669717"><ele>108.16666666666667</ele><time>2026-03-29T07:20:16.297Z</time></trkpt><trkpt lat="40.9466967" lon="14.5670867"><ele>108.33333333333334</ele><time>2026-03-29T07:20:18.298Z</time></trkpt><trkpt lat="40.94672" lon="14.5671983"><ele>108.5</ele><time>2026-03-29T07:20:20.295Z</time></trkpt><trkpt lat="40.946745" lon="14.5673067"><ele>108.66666666666667</ele><time>2026-03-29T07:20:22.297Z</time></trkpt><trkpt lat="40.9467717" lon="14.5674167"><ele>108.83333333333334</ele><time>2026-03-29T07:20:24.298Z</time></trkpt><trkpt lat="40.9468033" lon="14.56753"><ele>109.0</ele><time>2026-03-29T07:20:26.295Z</time></trkpt><trkpt lat="40.9468317" lon="14.56764"><ele>109.16666666666667</ele><time>2026-03-29T07:20:28.297Z</time></trkpt><trkpt lat="40.9468583" lon="14.5677517"><ele>109.33333333333334</ele><time>2026-03-29T07:20:30.295Z</time></trkpt><trkpt lat="40.9468833" lon="14.5678667"><ele>109.5</ele><time>2026-03-29T07:20:32.294Z</time></trkpt><trkpt lat="40.9469083" lon="14.56798"><ele>109.66666666666666</ele><time>2026-03-29T07:20:34.297Z</time></trkpt><trkpt lat="40.9469333" lon="14.5680933"><ele>109.83333333333333</ele><time>2026-03-29T07:20:36.295Z</time></trkpt><trkpt lat="40.9469617" lon="14.5682033"><ele>110.0</ele><time>2026-03-29T07:20:38.296Z</time></trkpt><trkpt lat="40.9469917" lon="14.5683117"><ele>110.0</ele><time>2026-03-29T07:20:40.298Z</time></trkpt><trkpt lat="40.9470217" lon="14.5684267"><ele>110.0</ele><time>2026-03-29T07:20:42.295Z</time></trkpt><trkpt lat="40.9470517" lon="14.5685433"><ele>110.0</ele><time>2026-03-29T07:20:44.297Z</time></trkpt><trkpt lat="40.9470817" lon="14.5686567"><ele>110.0</ele><time>2026-03-29T07:20:46.297Z</time></trkpt><trkpt lat="40.94711" lon="14.5687667"><ele>110.0</ele><time>2026-03-29T07:20:48.297Z</time></trkpt><trkpt lat="40.9471433" lon="14.5688817"><ele>110.4</ele><time>2026-03-29T07:20:50.298Z</time></trkpt><trkpt lat="40.9471667" lon="14.5690083"><ele>110.8</ele><time>2026-03-29T07:20:52.295Z</time></trkpt><trkpt lat="40.9471883" lon="14.5691383"><ele>111.19999999999999</ele><time>2026-03-29T07:20:54.295Z</time></trkpt><trkpt lat="40.9471933" lon="14.56926"><ele>111.6</ele><time>2026-03-29T07:20:56.295Z</time></trkpt><trkpt lat="40.9471633" lon="14.569365"><ele>112.0</ele><time>2026-03-29T07:20:58.298Z</time></trkpt><trkpt lat="40.9471083" lon="14.56945"><ele>112.33333333333334</ele><time>2026-03-29T07:21:00.298Z</time></trkpt><trkpt lat="40.9470517" lon="14.569535"><ele>112.66666666666667</ele><time>2026-03-29T07:21:02.294Z</time></trkpt><trkpt lat="40.946985" lon="14.5696467"><ele>113.0</ele><time>2026-03-29T07:21:24.295Z</time></trkpt><trkpt lat="40.9469567" lon="14.5697333"><ele>113.33333333333334</ele><time>2026-03-29T07:21:27.294Z</time></trkpt><trkpt lat="40.9469133" lon="14.5698417"><ele>113.66666666666667</ele><time>2026-03-29T07:21:30.296Z</time></trkpt><trkpt lat="40.9468783" lon="14.569915"><ele>114.0</ele><time>2026-03-29T07:21:32.296Z</time></trkpt><trkpt lat="40.9468417" lon="14.569995"><ele>114.0</ele><time>2026-03-29T07:21:34.295Z</time></trkpt><trkpt lat="40.94681" lon="14.5700683"><ele>113.99999999999999</ele><time>2026-03-29T07:21:36.294Z</time></trkpt><trkpt lat="40.94678" lon="14.5701417"><ele>114.0</ele><time>2026-03-29T07:21:38.297Z</time></trkpt><trkpt lat="40.946745" lon="14.5702183"><ele>114.0</ele><time>2026-03-29T07:21:40.298Z</time></trkpt><trkpt lat="40.9467133" lon="14.5702933"><ele>113.99999999999999</ele><time>2026-03-29T07:21:42.295Z</time></trkpt><trkpt lat="40.9466733" lon="14.5703767"><ele>114.0</ele><time>2026-03-29T07:21:44.298Z</time></trkpt><trkpt lat="40.94662" lon="14.5704683"><ele>114.0</ele><time>2026-03-29T07:21:46.294Z</time></trkpt><trkpt lat="40.946565" lon="14.5705567"><ele>114.5</ele><time>2026-03-29T07:21:48.295Z</time></trkpt><trkpt lat="40.946505" lon="14.5706517"><ele>115.0</ele><time>2026-03-29T07:21:50.295Z</time></trkpt><trkpt lat="40.94645" lon="14.570745"><ele>115.5</ele><time>2026-03-29T07:21:52.297Z</time></trkpt><trkpt lat="40.946395" lon="14.57083"><ele>116.0</ele><time>2026-03-29T07:21:54.298Z</time></trkpt><trkpt lat="40.94635" lon="14.570915"><ele>116.5</ele><time>2026-03-29T07:21:56.298Z</time></trkpt><trkpt lat="40.946305" lon="14.5709983"><ele>117.0</ele><time>2026-03-29T07:21:58.298Z</time></trkpt><trkpt lat="40.9462483" lon="14.5710817"><ele>117.0</ele><time>2026-03-29T07:22:00.298Z</time></trkpt><trkpt lat="40.9461983" lon="14.5711667"><ele>117.00000000000001</ele><time>2026-03-29T07:22:02.297Z</time></trkpt><trkpt lat="40.9461483" lon="14.571235"><ele>117.0</ele><time>2026-03-29T07:22:04.298Z</time></trkpt><trkpt lat="40.9460967" lon="14.5713"><ele>117.0</ele><time>2026-03-29T07:22:06.298Z</time></trkpt><trkpt lat="40.9460433" lon="14.57136"><ele>117.00000000000001</ele><time>2026-03-29T07:22:08.296Z</time></trkpt><trkpt lat="40.9459933" lon="14.5714217"><ele>117.0</ele><time>2026-03-29T07:22:10.297Z</time></trkpt><trkpt lat="40.94594" lon="14.57148"><ele>117.0</ele><time>2026-03-29T07:22:12.298Z</time></trkpt><trkpt lat="40.945885" lon="14.571545"><ele>117.71428571428572</ele><time>2026-03-29T07:22:14.298Z</time></trkpt><trkpt lat="40.94583" lon="14.5716083"><ele>118.42857142857144</ele><time>2026-03-29T07:22:16.294Z</time></trkpt><trkpt lat="40.9457733" lon="14.5716567"><ele>119.14285714285714</ele><time>2026-03-29T07:22:18.296Z</time></trkpt><trkpt lat="40.9457167" lon="14.5717033"><ele>119.85714285714286</ele><time>2026-03-29T07:22:20.296Z</time></trkpt><trkpt lat="40.9456617" lon="14.57175"><ele>120.57142857142857</ele><time>2026-03-29T07:22:22.296Z</time></trkpt><trkpt lat="40.9455767" lon="14.5718083"><ele>121.28571428571428</ele><time>2026-03-29T07:22:25.299Z</time></trkpt><trkpt lat="40.94552" lon="14.5718517"><ele>121.99999999999999</ele><time>2026-03-29T07:22:27.298Z</time></trkpt><trkpt lat="40.94546" lon="14.571895"><ele>121.99999999999999</ele><time>2026-03-29T07:22:29.298Z</time></trkpt><trkpt lat="40.9453983" lon="14.5719483"><ele>122.0</ele><time>2026-03-29T07:22:31.299Z</time></trkpt><trkpt lat="40.94534" lon="14.572"><ele>121.99999999999999</ele><time>2026-03-29T07:22:33.298Z</time></trkpt><trkpt lat="40.945265" lon="14.5720817"><ele>121.99999999999999</ele><time>2026-03-29T07:22:36.298Z</time></trkpt><trkpt lat="40.9452133" lon="14.57214"><ele>122.0</ele><time>2026-03-29T07:22:38.298Z</time></trkpt><trkpt lat="40.9451633" lon="14.5722033"><ele>121.99999999999999</ele><time>2026-03-29T07:22:40.298Z</time></trkpt><trkpt lat="40.9451117" lon="14.5722667"><ele>121.99999999999999</ele><time>2026-03-29T07:22:42.297Z</time></trkpt><trkpt lat="40.9450617" lon="14.5723317"><ele>122.85714285714283</ele><time>2026-03-29T07:22:44.298Z</time></trkpt><trkpt lat="40.94502" lon="14.5724117"><ele>123.71428571428571</ele><time>2026-03-29T07:22:46.296Z</time></trkpt><trkpt lat="40.9449833" lon="14.5724933"><ele>124.57142857142856</ele><time>2026-03-29T07:22:48.295Z</time></trkpt><trkpt lat="40.9449517" lon="14.5725783"><ele>125.42857142857142</ele><time>2026-03-29T07:22:50.295Z</time></trkpt><trkpt lat="40.9449217" lon="14.5726717"><ele>126.28571428571428</ele><time>2026-03-29T07:22:52.296Z</time></trkpt><trkpt lat="40.9449" lon="14.5727667"><ele>127.14285714285714</ele><time>2026-03-29T07:22:54.295Z</time></trkpt><trkpt lat="40.9448967" lon="14.5728567"><ele>128.0</ele><time>2026-03-29T07:22:56.298Z</time></trkpt><trkpt lat="40.9448683" lon="14.5729467"><ele>127.99999999999999</ele><time>2026-03-29T07:22:58.298Z</time></trkpt><trkpt lat="40.9448433" lon="14.5730467"><ele>128.0</ele><time>2026-03-29T07:23:00.297Z</time></trkpt><trkpt lat="40.9448267" lon="14.573155"><ele>128.0</ele><time>2026-03-29T07:23:02.298Z</time></trkpt><trkpt lat="40.9447833" lon="14.5732617"><ele>128.0</ele><time>2026-03-29T07:23:04.298Z</time></trkpt><trkpt lat="40.9447133" lon="14.5733383"><ele>127.99999999999999</ele><time>2026-03-29T07:23:06.298Z</time></trkpt><trkpt lat="40.9446217" lon="14.5733933"><ele>128.0</ele><time>2026-03-29T07:23:08.298Z</time></trkpt><trkpt lat="40.9445367" lon="14.5734783"><ele>128.0</ele><time>2026-03-29T07:23:10.296Z</time></trkpt><trkpt lat="40.9444633" lon="14.5735733"><ele>128.0</ele><time>2026-03-29T07:23:12.298Z</time></trkpt><trkpt lat="40.9443867" lon="14.57368"><ele>128.0</ele><time>2026-03-29T07:23:14.298Z</time></trkpt><trkpt lat="40.9443017" lon="14.5737783"><ele>128.0</ele><time>2026-03-29T07:23:16.295Z</time></trkpt><trkpt lat="40.9442033" lon="14.573845"><ele>128.0</ele><time>2026-03-29T07:23:18.294Z</time></trkpt><trkpt lat="40.9441133" lon="14.5738933"><ele>129.20000000000002</ele><time>2026-03-29T07:23:20.296Z</time></trkpt><trkpt lat="40.9440267" lon="14.5739483"><ele>130.4</ele><time>2026-03-29T07:23:22.297Z</time></trkpt><trkpt lat="40.9439433" lon="14.574005"><ele>131.60000000000002</ele><time>2026-03-29T07:23:24.297Z</time></trkpt><trkpt lat="40.943865" lon="14.5740767"><ele>132.8</ele><time>2026-03-29T07:23:26.297Z</time></trkpt><trkpt lat="40.9438" lon="14.5741483"><ele>134.0</ele><time>2026-03-29T07:23:28.296Z</time></trkpt><trkpt lat="40.943735" lon="14.5742317"><ele>134.0</ele><time>2026-03-29T07:23:30.296Z</time></trkpt><trkpt lat="40.9436767" lon="14.57433"><ele>134.0</ele><time>2026-03-29T07:23:32.296Z</time></trkpt><trkpt lat="40.9436283" lon="14.57443"><ele>134.0</ele><time>2026-03-29T07:23:34.296Z</time></trkpt><trkpt lat="40.9435833" lon="14.574535"><ele>134.0</ele><time>2026-03-29T07:23:36.295Z</time></trkpt><trkpt lat="40.9435483" lon="14.57464"><ele>134.0</ele><time>2026-03-29T07:23:38.296Z</time></trkpt><trkpt lat="40.9435283" lon="14.57475"><ele>134.0</ele><time>2026-03-29T07:23:40.295Z</time></trkpt><trkpt lat="40.9435117" lon="14.5748633"><ele>134.0</ele><time>2026-03-29T07:23:42.298Z</time></trkpt><trkpt lat="40.9434933" lon="14.574975"><ele>134.0</ele><time>2026-03-29T07:23:44.296Z</time></trkpt><trkpt lat="40.9434683" lon="14.575085"><ele>134.0</ele><time>2026-03-29T07:23:46.294Z</time></trkpt><trkpt lat="40.9434567" lon="14.5751983"><ele>134.0</ele><time>2026-03-29T07:23:48.295Z</time></trkpt><trkpt lat="40.943445" lon="14.5753167"><ele>134.0</ele><time>2026-03-29T07:23:50.297Z</time></trkpt><trkpt lat="40.9434317" lon="14.5754317"><ele>134.0</ele><time>2026-03-29T07:23:52.295Z</time></trkpt><trkpt lat="40.9434067" lon="14.57556"><ele>134.4</ele><time>2026-03-29T07:23:54.296Z</time></trkpt><trkpt lat="40.9433917" lon="14.5756817"><ele>134.8</ele><time>2026-03-29T07:23:56.295Z</time></trkpt><trkpt lat="40.943375" lon="14.5758"><ele>135.2</ele><time>2026-03-29T07:23:58.297Z</time></trkpt><trkpt lat="40.9433533" lon="14.5759183"><ele>135.6</ele><time>2026-03-29T07:24:00.296Z</time></trkpt><trkpt lat="40.9433283" lon="14.5760317"><ele>136.0</ele><time>2026-03-29T07:24:02.297Z</time></trkpt><trkpt lat="40.9432917" lon="14.576145"><ele>136.5</ele><time>2026-03-29T07:24:04.297Z</time></trkpt><trkpt lat="40.9432533" lon="14.5762533"><ele>137.0</ele><time>2026-03-29T07:24:06.295Z</time></trkpt><trkpt lat="40.9432067" lon="14.5763517"><ele>137.5</ele><time>2026-03-29T07:24:08.297Z</time></trkpt><trkpt lat="40.9431517" lon="14.576445"><ele>138.0</ele><time>2026-03-29T07:24:10.295Z</time></trkpt><trkpt lat="40.9430917" lon="14.57653"><ele>138.5</ele><time>2026-03-29T07:24:12.297Z</time></trkpt><trkpt lat="40.94302" lon="14.576605"><ele>139.0</ele><time>2026-03-29T07:24:14.298Z</time></trkpt><trkpt lat="40.9429617" lon="14.5766767"><ele>139.0</ele><time>2026-03-29T07:24:16.295Z</time></trkpt><trkpt lat="40.942905" lon="14.5767483"><ele>139.0</ele><time>2026-03-29T07:24:18.297Z</time></trkpt><trkpt lat="40.9428517" lon="14.5768133"><ele>139.0</ele><time>2026-03-29T07:24:20.297Z</time></trkpt><trkpt lat="40.942795" lon="14.576875"><ele>139.0</ele><time>2026-03-29T07:24:22.297Z</time></trkpt><trkpt lat="40.94274" lon="14.5769333"><ele>139.0</ele><time>2026-03-29T07:24:24.297Z</time></trkpt><trkpt lat="40.94268" lon="14.5769933"><ele>139.0</ele><time>2026-03-29T07:24:26.295Z</time></trkpt><trkpt lat="40.9426283" lon="14.5770433"><ele>139.0</ele><time>2026-03-29T07:24:28.299Z</time></trkpt><trkpt lat="40.9425583" lon="14.5771133"><ele>140.5</ele><time>2026-03-29T07:24:31.296Z</time></trkpt><trkpt lat="40.9424783" lon="14.5771767"><ele>142.0</ele><time>2026-03-29T07:24:34.296Z</time></trkpt><trkpt lat="40.9424183" lon="14.577215"><ele>143.5</ele><time>2026-03-29T07:24:36.296Z</time></trkpt><trkpt lat="40.9423567" lon="14.5772567"><ele>145.0</ele><time>2026-03-29T07:24:38.295Z</time></trkpt><trkpt lat="40.942295" lon="14.5773017"><ele>146.5</ele><time>2026-03-29T07:24:40.297Z</time></trkpt><trkpt lat="40.9422167" lon="14.5773383"><ele>148.0</ele><time>2026-03-29T07:24:42.296Z</time></trkpt><trkpt lat="40.9421367" lon="14.57737"><ele>148.0</ele><time>2026-03-29T07:24:44.296Z</time></trkpt><trkpt lat="40.9420667" lon="14.5773883"><ele>148.0</ele><time>2026-03-29T07:24:46.295Z</time></trkpt><trkpt lat="40.9419967" lon="14.5774117"><ele>148.0</ele><time>2026-03-29T07:24:48.295Z</time></trkpt><trkpt lat="40.941925" lon="14.577435"><ele>148.0</ele><time>2026-03-29T07:24:50.294Z</time></trkpt><trkpt lat="40.941855" lon="14.5774433"><ele>148.0</ele><time>2026-03-29T07:24:52.297Z</time></trkpt><trkpt lat="40.9417867" lon="14.5774367"><ele>148.0</ele><time>2026-03-29T07:24:54.298Z</time></trkpt><trkpt lat="40.941725" lon="14.5774083"><ele>148.0</ele><time>2026-03-29T07:24:56.296Z</time></trkpt><trkpt lat="40.9416667" lon="14.5773617"><ele>148.57142857142858</ele><time>2026-03-29T07:24:58.297Z</time></trkpt><trkpt lat="40.941615" lon="14.5772917"><ele>149.14285714285714</ele><time>2026-03-29T07:25:00.299Z</time></trkpt><trkpt lat="40.9415683" lon="14.5772133"><ele>149.71428571428572</ele><time>2026-03-29T07:25:02.294Z</time></trkpt><trkpt lat="40.9415233" lon="14.57713"><ele>150.28571428571428</ele><time>2026-03-29T07:25:04.298Z</time></trkpt><trkpt lat="40.9414783" lon="14.57706"><ele>150.85714285714286</ele><time>2026-03-29T07:25:06.297Z</time></trkpt><trkpt lat="40.9414333" lon="14.576985"><ele>151.42857142857142</ele><time>2026-03-29T07:25:08.298Z</time></trkpt><trkpt lat="40.941395" lon="14.5769117"><ele>152.0</ele><time>2026-03-29T07:25:10.298Z</time></trkpt><trkpt lat="40.9413567" lon="14.5768333"><ele>152.14285714285714</ele><time>2026-03-29T07:25:12.295Z</time></trkpt><trkpt lat="40.9413217" lon="14.576755"><ele>152.2857142857143</ele><time>2026-03-29T07:25:14.299Z</time></trkpt><trkpt lat="40.941285" lon="14.5766833"><ele>152.42857142857144</ele><time>2026-03-29T07:25:16.297Z</time></trkpt><trkpt lat="40.94125" lon="14.5766117"><ele>152.57142857142856</ele><time>2026-03-29T07:25:18.296Z</time></trkpt><trkpt lat="40.9412167" lon="14.5765317"><ele>152.71428571428572</ele><time>2026-03-29T07:25:20.297Z</time></trkpt><trkpt lat="40.94118" lon="14.5764517"><ele>152.85714285714286</ele><time>2026-03-29T07:25:22.297Z</time></trkpt><trkpt lat="40.9411433" lon="14.5763733"><ele>153.0</ele><time>2026-03-29T07:25:24.296Z</time></trkpt><trkpt lat="40.9411133" lon="14.57629"><ele>153.0</ele><time>2026-03-29T07:25:26.298Z</time></trkpt><trkpt lat="40.9410867" lon="14.576195"><ele>153.0</ele><time>2026-03-29T07:25:28.298Z</time></trkpt><trkpt lat="40.9410667" lon="14.5760983"><ele>153.0</ele><time>2026-03-29T07:25:30.297Z</time></trkpt><trkpt lat="40.9410517" lon="14.576"><ele>153.0</ele><time>2026-03-29T07:25:32.294Z</time></trkpt><trkpt lat="40.9410417" lon="14.5758967"><ele>153.0</ele><time>2026-03-29T07:25:34.297Z</time></trkpt><trkpt lat="40.94103" lon="14.5758033"><ele>153.0</ele><time>2026-03-29T07:25:36.298Z</time></trkpt><trkpt lat="40.94102" lon="14.575715"><ele>153.0</ele><time>2026-03-29T07:25:38.297Z</time></trkpt><trkpt lat="40.9410117" lon="14.5756117"><ele>153.14285714285714</ele><time>2026-03-29T07:25:40.297Z</time></trkpt><trkpt lat="40.9410033" lon="14.5755133"><ele>153.28571428571428</ele><time>2026-03-29T07:25:42.296Z</time></trkpt><trkpt lat="40.940995" lon="14.57542"><ele>153.42857142857144</ele><time>2026-03-29T07:25:44.294Z</time></trkpt><trkpt lat="40.9409833" lon="14.5753367"><ele>153.57142857142856</ele><time>2026-03-29T07:25:46.297Z</time></trkpt><trkpt lat="40.9409683" lon="14.57522"><ele>153.71428571428572</ele><time>2026-03-29T07:25:49.299Z</time></trkpt><trkpt lat="40.940965" lon="14.575125"><ele>153.85714285714286</ele><time>2026-03-29T07:25:51.295Z</time></trkpt><trkpt lat="40.9409567" lon="14.5750367"><ele>154.0</ele><time>2026-03-29T07:25:53.298Z</time></trkpt><trkpt lat="40.9409533" lon="14.574945"><ele>154.16666666666669</ele><time>2026-03-29T07:25:55.298Z</time></trkpt><trkpt lat="40.9409417" lon="14.5748533"><ele>154.33333333333334</ele><time>2026-03-29T07:25:57.296Z</time></trkpt><trkpt lat="40.9409367" lon="14.5747533"><ele>154.5</ele><time>2026-03-29T07:25:59.298Z</time></trkpt><trkpt lat="40.9409317" lon="14.574655"><ele>154.66666666666666</ele><time>2026-03-29T07:26:01.297Z</time></trkpt><trkpt lat="40.9409283" lon="14.5745517"><ele>154.83333333333331</ele><time>2026-03-29T07:26:03.297Z</time></trkpt><trkpt lat="40.9409233" lon="14.5744533"><ele>155.0</ele><time>2026-03-29T07:26:05.297Z</time></trkpt><trkpt lat="40.9409167" lon="14.5743483"><ele>155.0</ele><time>2026-03-29T07:26:07.297Z</time></trkpt><trkpt lat="40.9409117" lon="14.5742533"><ele>155.0</ele><time>2026-03-29T07:26:09.294Z</time></trkpt><trkpt lat="40.9409133" lon="14.574155"><ele>155.0</ele><time>2026-03-29T07:26:11.295Z</time></trkpt><trkpt lat="40.9409167" lon="14.5740483"><ele>155.0</ele><time>2026-03-29T07:26:13.298Z</time></trkpt><trkpt lat="40.94091" lon="14.5739467"><ele>155.0</ele><time>2026-03-29T07:26:15.298Z</time></trkpt><trkpt lat="40.9409033" lon="14.573855"><ele>155.0</ele><time>2026-03-29T07:26:17.298Z</time></trkpt><trkpt lat="40.9409033" lon="14.5737617"><ele>155.0</ele><time>2026-03-29T07:26:19.298Z</time></trkpt><trkpt lat="40.940905" lon="14.5736617"><ele>154.57142857142858</ele><time>2026-03-29T07:26:21.298Z</time></trkpt><trkpt lat="40.9409033" lon="14.5735667"><ele>154.14285714285714</ele><time>2026-03-29T07:26:23.297Z</time></trkpt><trkpt lat="40.9409017" lon="14.57347"><ele>153.71428571428572</ele><time>2026-03-29T07:26:25.299Z</time></trkpt><trkpt lat="40.9409033" lon="14.5733767"><ele>153.28571428571428</ele><time>2026-03-29T07:26:27.296Z</time></trkpt><trkpt lat="40.9409167" lon="14.57328"><ele>152.85714285714286</ele><time>2026-03-29T07:26:29.296Z</time></trkpt><trkpt lat="40.9409267" lon="14.5731933"><ele>152.42857142857142</ele><time>2026-03-29T07:26:31.298Z</time></trkpt><trkpt lat="40.9409383" lon="14.5730983"><ele>152.0</ele><time>2026-03-29T07:26:33.296Z</time></trkpt><trkpt lat="40.940955" lon="14.5730033"><ele>152.0</ele><time>2026-03-29T07:26:35.298Z</time></trkpt><trkpt lat="40.9409683" lon="14.572915"><ele>152.0</ele><time>2026-03-29T07:26:37.297Z</time></trkpt><trkpt lat="40.940985" lon="14.5728233"><ele>152.0</ele><time>2026-03-29T07:26:39.299Z</time></trkpt><trkpt lat="40.9409967" lon="14.5727283"><ele>152.0</ele><time>2026-03-29T07:26:41.298Z</time></trkpt><trkpt lat="40.9410117" lon="14.5726383"><ele>152.0</ele><time>2026-03-29T07:26:43.298Z</time></trkpt><trkpt lat="40.94101" lon="14.5725467"><ele>152.0</ele><time>2026-03-29T07:26:45.298Z</time></trkpt><trkpt lat="40.9409733" lon="14.5724767"><ele>152.0</ele><time>2026-03-29T07:26:47.298Z</time></trkpt><trkpt lat="40.9408817" lon="14.5724917"><ele>154.16666666666666</ele><time>2026-03-29T07:26:50.295Z</time></trkpt><trkpt lat="40.9408267" lon="14.5725733"><ele>156.33333333333331</ele><time>2026-03-29T07:26:52.298Z</time></trkpt><trkpt lat="40.9407783" lon="14.57266"><ele>158.5</ele><time>2026-03-29T07:26:54.298Z</time></trkpt><trkpt lat="40.94073" lon="14.57274"><ele>160.66666666666666</ele><time>2026-03-29T07:26:56.298Z</time></trkpt><trkpt lat="40.9406867" lon="14.57282"><ele>162.83333333333334</ele><time>2026-03-29T07:26:58.297Z</time></trkpt><trkpt lat="40.9406383" lon="14.57289"><ele>165.0</ele><time>2026-03-29T07:27:00.298Z</time></trkpt><trkpt lat="40.9405933" lon="14.57296"><ele>165.85714285714286</ele><time>2026-03-29T07:27:02.297Z</time></trkpt><trkpt lat="40.9405467" lon="14.5730333"><ele>166.71428571428572</ele><time>2026-03-29T07:27:04.298Z</time></trkpt><trkpt lat="40.9405117" lon="14.5731067"><ele>167.57142857142856</ele><time>2026-03-29T07:27:06.297Z</time></trkpt><trkpt lat="40.940465" lon="14.57318"><ele>168.42857142857144</ele><time>2026-03-29T07:27:08.298Z</time></trkpt><trkpt lat="40.9404233" lon="14.57325"><ele>169.28571428571428</ele><time>2026-03-29T07:27:10.298Z</time></trkpt><trkpt lat="40.9403817" lon="14.573325"><ele>170.14285714285714</ele><time>2026-03-29T07:27:12.298Z</time></trkpt><trkpt lat="40.9403433" lon="14.5734033"><ele>171.0</ele><time>2026-03-29T07:27:14.298Z</time></trkpt><trkpt lat="40.9403017" lon="14.573485"><ele>170.99999999999997</ele><time>2026-03-29T07:27:16.298Z</time></trkpt><trkpt lat="40.9402633" lon="14.573565"><ele>171.0</ele><time>2026-03-29T07:27:18.295Z</time></trkpt><trkpt lat="40.9402233" lon="14.57365"><ele>171.0</ele><time>2026-03-29T07:27:20.296Z</time></trkpt><trkpt lat="40.94018" lon="14.5737267"><ele>171.0</ele><time>2026-03-29T07:27:22.294Z</time></trkpt><trkpt lat="40.9401367" lon="14.5738083"><ele>171.0</ele><time>2026-03-29T07:27:24.296Z</time></trkpt><trkpt lat="40.94009" lon="14.5738917"><ele>170.99999999999997</ele><time>2026-03-29T07:27:26.295Z</time></trkpt><trkpt lat="40.9400467" lon="14.5739717"><ele>171.0</ele><time>2026-03-29T07:27:28.295Z</time></trkpt><trkpt lat="40.9400033" lon="14.5740533"><ele>171.85714285714283</ele><time>2026-03-29T07:27:30.295Z</time></trkpt><trkpt lat="40.93997" lon="14.5741283"><ele>172.71428571428572</ele><time>2026-03-29T07:27:32.297Z</time></trkpt><trkpt lat="40.93993" lon="14.5741967"><ele>173.57142857142856</ele><time>2026-03-29T07:27:34.296Z</time></trkpt><trkpt lat="40.939895" lon="14.5742733"><ele>174.42857142857142</ele><time>2026-03-29T07:27:36.296Z</time></trkpt><trkpt lat="40.9398583" lon="14.5743533"><ele>175.28571428571428</ele><time>2026-03-29T07:27:38.295Z</time></trkpt><trkpt lat="40.939815" lon="14.57443"><ele>176.14285714285714</ele><time>2026-03-29T07:27:40.295Z</time></trkpt><trkpt lat="40.939765" lon="14.5745033"><ele>177.0</ele><time>2026-03-29T07:27:42.296Z</time></trkpt><trkpt lat="40.9397183" lon="14.5745783"><ele>177.0</ele><time>2026-03-29T07:27:44.298Z</time></trkpt><trkpt lat="40.9396783" lon="14.5746517"><ele>177.0</ele><time>2026-03-29T07:27:46.297Z</time></trkpt><trkpt lat="40.93964" lon="14.574725"><ele>177.0</ele><time>2026-03-29T07:27:48.296Z</time></trkpt><trkpt lat="40.939595" lon="14.574795"><ele>177.0</ele><time>2026-03-29T07:27:50.297Z</time></trkpt><trkpt lat="40.939545" lon="14.57486"><ele>177.0</ele><time>2026-03-29T07:27:52.296Z</time></trkpt><trkpt lat="40.939505" lon="14.57493"><ele>177.0</ele><time>2026-03-29T07:27:54.295Z</time></trkpt><trkpt lat="40.9394683" lon="14.575035"><ele>177.0</ele><time>2026-03-29T07:27:57.294Z</time></trkpt><trkpt lat="40.93942" lon="14.5751283"><ele>177.0</ele><time>2026-03-29T07:28:00.295Z</time></trkpt><trkpt lat="40.9393783" lon="14.5751933"><ele>177.0</ele><time>2026-03-29T07:28:02.295Z</time></trkpt><trkpt lat="40.9393217" lon="14.5752983"><ele>177.0</ele><time>2026-03-29T07:28:05.296Z</time></trkpt><trkpt lat="40.9392817" lon="14.5753717"><ele>177.0</ele><time>2026-03-29T07:28:07.297Z</time></trkpt><trkpt lat="40.9392367" lon="14.57544"><ele>177.0</ele><time>2026-03-29T07:28:09.295Z</time></trkpt><trkpt lat="40.939195" lon="14.575515"><ele>177.0</ele><time>2026-03-29T07:28:11.296Z</time></trkpt><trkpt lat="40.9391667" lon="14.57559"><ele>177.0</ele><time>2026-03-29T07:28:13.297Z</time></trkpt><trkpt lat="40.9391333" lon="14.5756683"><ele>178.57142857142858</ele><time>2026-03-29T07:28:15.298Z</time></trkpt><trkpt lat="40.9390867" lon="14.57575"><ele>180.14285714285714</ele><time>2026-03-29T07:28:17.294Z</time></trkpt><trkpt lat="40.93904" lon="14.5758283"><ele>181.71428571428572</ele><time>2026-03-29T07:28:19.295Z</time></trkpt><trkpt lat="40.939" lon="14.57591"><ele>183.28571428571428</ele><time>2026-03-29T07:28:21.295Z</time></trkpt><trkpt lat="40.9389633" lon="14.575985"><ele>184.85714285714283</ele><time>2026-03-29T07:28:23.296Z</time></trkpt><trkpt lat="40.938915" lon="14.5760567"><ele>186.42857142857142</ele><time>2026-03-29T07:28:25.295Z</time></trkpt><trkpt lat="40.9388717" lon="14.5761283"><ele>188.0</ele><time>2026-03-29T07:28:27.295Z</time></trkpt><trkpt lat="40.9388283" lon="14.5762317"><ele>188.16666666666666</ele><time>2026-03-29T07:28:30.298Z</time></trkpt><trkpt lat="40.938795" lon="14.57631"><ele>188.33333333333331</ele><time>2026-03-29T07:28:32.295Z</time></trkpt><trkpt lat="40.93876" lon="14.5763883"><ele>188.5</ele><time>2026-03-29T07:28:34.296Z</time></trkpt><trkpt lat="40.9387233" lon="14.5764917"><ele>188.66666666666666</ele><time>2026-03-29T07:28:37.298Z</time></trkpt><trkpt lat="40.938685" lon="14.576595"><ele>188.83333333333334</ele><time>2026-03-29T07:28:40.294Z</time></trkpt><trkpt lat="40.9386583" lon="14.5766733"><ele>189.0</ele><time>2026-03-29T07:28:42.296Z</time></trkpt><trkpt lat="40.9386217" lon="14.5767833"><ele>189.0</ele><time>2026-03-29T07:28:45.298Z</time></trkpt><trkpt lat="40.9386" lon="14.5768617"><ele>189.0</ele><time>2026-03-29T07:28:47.297Z</time></trkpt><trkpt lat="40.9385733" lon="14.5769783"><ele>189.0</ele><time>2026-03-29T07:28:50.295Z</time></trkpt><trkpt lat="40.9385483" lon="14.5770983"><ele>189.0</ele><time>2026-03-29T07:28:53.296Z</time></trkpt><trkpt lat="40.9385417" lon="14.5771833"><ele>189.0</ele><time>2026-03-29T07:28:55.297Z</time></trkpt><trkpt lat="40.9385317" lon="14.5773017"><ele>189.0</ele><time>2026-03-29T07:28:58.295Z</time></trkpt><trkpt lat="40.9385183" lon="14.5773833"><ele>188.83333333333334</ele><time>2026-03-29T07:29:00.298Z</time></trkpt><trkpt lat="40.9384967" lon="14.5774967"><ele>188.66666666666666</ele><time>2026-03-29T07:29:03.295Z</time></trkpt><trkpt lat="40.9384733" lon="14.5776017"><ele>188.5</ele><time>2026-03-29T07:29:06.297Z</time></trkpt><trkpt lat="40.9384533" lon="14.577725"><ele>188.33333333333331</ele><time>2026-03-29T07:29:09.298Z</time></trkpt><trkpt lat="40.9384233" lon="14.5778433"><ele>188.16666666666666</ele><time>2026-03-29T07:29:12.298Z</time></trkpt><trkpt lat="40.938405" lon="14.5779567"><ele>188.0</ele><time>2026-03-29T07:29:15.297Z</time></trkpt><trkpt lat="40.9383883" lon="14.57807"><ele>190.33333333333331</ele><time>2026-03-29T07:29:18.296Z</time></trkpt><trkpt lat="40.9383717" lon="14.5781883"><ele>192.66666666666666</ele><time>2026-03-29T07:29:21.298Z</time></trkpt><trkpt lat="40.938355" lon="14.5783"><ele>195.0</ele><time>2026-03-29T07:29:24.298Z</time></trkpt><trkpt lat="40.9383267" lon="14.578395"><ele>197.33333333333331</ele><time>2026-03-29T07:29:27.295Z</time></trkpt><trkpt lat="40.9382917" lon="14.5784933"><ele>199.66666666666666</ele><time>2026-03-29T07:29:30.295Z</time></trkpt><trkpt lat="40.9382283" lon="14.5785267"><ele>202.0</ele><time>2026-03-29T07:29:33.295Z</time></trkpt><trkpt lat="40.9381667" lon="14.578475"><ele>201.99999999999997</ele><time>2026-03-29T07:29:36.297Z</time></trkpt><trkpt lat="40.9381267" lon="14.57836"><ele>202.0</ele><time>2026-03-29T07:29:39.296Z</time></trkpt><trkpt lat="40.9381" lon="14.57827"><ele>202.0</ele><time>2026-03-29T07:29:41.296Z</time></trkpt><trkpt lat="40.93808" lon="14.5781867"><ele>202.0</ele><time>2026-03-29T07:29:43.296Z</time></trkpt><trkpt lat="40.9380433" lon="14.5780867"><ele>201.99999999999997</ele><time>2026-03-29T07:29:46.297Z</time></trkpt><trkpt lat="40.9380217" lon="14.57797"><ele>202.0</ele><time>2026-03-29T07:29:49.295Z</time></trkpt><trkpt lat="40.9380083" lon="14.577885"><ele>201.83333333333331</ele><time>2026-03-29T07:29:51.295Z</time></trkpt><trkpt lat="40.9379917" lon="14.5777683"><ele>201.66666666666666</ele><time>2026-03-29T07:29:54.295Z</time></trkpt><trkpt lat="40.9379833" lon="14.5776483"><ele>201.5</ele><time>2026-03-29T07:29:57.296Z</time></trkpt><trkpt lat="40.9379633" lon="14.5775333"><ele>201.33333333333331</ele><time>2026-03-29T07:30:00.296Z</time></trkpt><trkpt lat="40.9379083" lon="14.5774633"><ele>201.16666666666666</ele><time>2026-03-29T07:30:03.294Z</time></trkpt><trkpt lat="40.9378283" lon="14.57747"><ele>201.0</ele><time>2026-03-29T07:30:06.295Z</time></trkpt><trkpt lat="40.9377833" lon="14.5775583"><ele>201.0</ele><time>2026-03-29T07:30:09.295Z</time></trkpt><trkpt lat="40.9377583" lon="14.577635"><ele>201.0</ele><time>2026-03-29T07:30:11.296Z</time></trkpt><trkpt lat="40.9377267" lon="14.5777183"><ele>201.0</ele><time>2026-03-29T07:30:13.295Z</time></trkpt><trkpt lat="40.937705" lon="14.5777983"><ele>201.0</ele><time>2026-03-29T07:30:15.298Z</time></trkpt><trkpt lat="40.9376617" lon="14.5779083"><ele>201.0</ele><time>2026-03-29T07:30:18.298Z</time></trkpt><trkpt lat="40.93764" lon="14.5779917"><ele>201.0</ele><time>2026-03-29T07:30:20.295Z</time></trkpt><trkpt lat="40.937625" lon="14.5780783"><ele>201.0</ele><time>2026-03-29T07:30:22.299Z</time></trkpt><trkpt lat="40.9375983" lon="14.578155"><ele>201.16666666666666</ele><time>2026-03-29T07:30:24.298Z</time></trkpt><trkpt lat="40.937565" lon="14.5782583"><ele>201.33333333333331</ele><time>2026-03-29T07:30:27.295Z</time></trkpt><trkpt lat="40.93754" lon="14.578335"><ele>201.5</ele><time>2026-03-29T07:30:29.297Z</time></trkpt><trkpt lat="40.9375183" lon="14.5784483"><ele>201.66666666666666</ele><time>2026-03-29T07:30:32.295Z</time></trkpt><trkpt lat="40.9374883" lon="14.5785633"><ele>201.83333333333331</ele><time>2026-03-29T07:30:35.296Z</time></trkpt><trkpt lat="40.9374583" lon="14.5786417"><ele>202.0</ele><time>2026-03-29T07:30:37.296Z</time></trkpt><trkpt lat="40.9374333" lon="14.57872"><ele>204.42857142857142</ele><time>2026-03-29T07:30:39.295Z</time></trkpt><trkpt lat="40.9374033" lon="14.5787983"><ele>206.85714285714283</ele><time>2026-03-29T07:30:41.297Z</time></trkpt><trkpt lat="40.9373667" lon="14.5788683"><ele>209.28571428571428</ele><time>2026-03-29T07:30:43.299Z</time></trkpt><trkpt lat="40.9373233" lon="14.5789467"><ele>211.71428571428572</ele><time>2026-03-29T07:30:45.298Z</time></trkpt><trkpt lat="40.9372817" lon="14.579015"><ele>214.14285714285714</ele><time>2026-03-29T07:30:47.298Z</time></trkpt><trkpt lat="40.9372333" lon="14.57911"><ele>216.57142857142858</ele><time>2026-03-29T07:30:50.298Z</time></trkpt><trkpt lat="40.93718" lon="14.579195"><ele>219.0</ele><time>2026-03-29T07:30:53.298Z</time></trkpt><trkpt lat="40.9371383" lon="14.5792817"><ele>219.0</ele><time>2026-03-29T07:30:56.295Z</time></trkpt><trkpt lat="40.937095" lon="14.57935"><ele>219.0</ele><time>2026-03-29T07:30:58.295Z</time></trkpt><trkpt lat="40.9370433" lon="14.5794367"><ele>219.0</ele><time>2026-03-29T07:31:01.297Z</time></trkpt><trkpt lat="40.9369833" lon="14.57952"><ele>219.0</ele><time>2026-03-29T07:31:04.297Z</time></trkpt><trkpt lat="40.936935" lon="14.5796033"><ele>219.0</ele><time>2026-03-29T07:31:07.297Z</time></trkpt><trkpt lat="40.9368817" lon="14.5796967"><ele>219.0</ele><time>2026-03-29T07:31:10.295Z</time></trkpt><trkpt lat="40.9368633" lon="14.5797767"><ele>220.16666666666666</ele><time>2026-03-29T07:31:12.295Z</time></trkpt><trkpt lat="40.93691" lon="14.5798667"><ele>221.33333333333331</ele><time>2026-03-29T07:31:15.298Z</time></trkpt><trkpt lat="40.9369883" lon="14.579905"><ele>222.5</ele><time>2026-03-29T07:31:18.295Z</time></trkpt><trkpt lat="40.9370467" lon="14.5799417"><ele>223.66666666666666</ele><time>2026-03-29T07:31:20.296Z</time></trkpt><trkpt lat="40.9371067" lon="14.579985"><ele>224.83333333333331</ele><time>2026-03-29T07:31:22.296Z</time></trkpt><trkpt lat="40.9371867" lon="14.580035"><ele>226.0</ele><time>2026-03-29T07:31:25.297Z</time></trkpt><trkpt lat="40.9372683" lon="14.5801017"><ele>226.0</ele><time>2026-03-29T07:31:28.296Z</time></trkpt><trkpt lat="40.937325" lon="14.580155"><ele>226.0</ele><time>2026-03-29T07:31:30.296Z</time></trkpt><trkpt lat="40.9373833" lon="14.5802217"><ele>226.0</ele><time>2026-03-29T07:31:32.296Z</time></trkpt><trkpt lat="40.9374483" lon="14.5802733"><ele>226.0</ele><time>2026-03-29T07:31:34.298Z</time></trkpt><trkpt lat="40.9375117" lon="14.5803283"><ele>226.0</ele><time>2026-03-29T07:31:36.298Z</time></trkpt><trkpt lat="40.937575" lon="14.5803817"><ele>226.0</ele><time>2026-03-29T07:31:38.294Z</time></trkpt><trkpt lat="40.937635" lon="14.580435"><ele>226.0</ele><time>2026-03-29T07:31:40.295Z</time></trkpt><trkpt lat="40.93769" lon="14.5804833"><ele>227.33333333333331</ele><time>2026-03-29T07:31:42.297Z</time></trkpt><trkpt lat="40.9377667" lon="14.5805417"><ele>228.66666666666666</ele><time>2026-03-29T07:31:45.297Z</time></trkpt><trkpt lat="40.9378417" lon="14.5806083"><ele>230.0</ele><time>2026-03-29T07:31:48.296Z</time></trkpt><trkpt lat="40.9379033" lon="14.5806517"><ele>231.33333333333331</ele><time>2026-03-29T07:31:50.298Z</time></trkpt><trkpt lat="40.9379583" lon="14.5807067"><ele>232.66666666666666</ele><time>2026-03-29T07:31:52.298Z</time></trkpt><trkpt lat="40.93801" lon="14.5807567"><ele>234.0</ele><time>2026-03-29T07:31:54.296Z</time></trkpt><trkpt lat="40.9380667" lon="14.5808083"><ele>234.0</ele><time>2026-03-29T07:31:56.296Z</time></trkpt><trkpt lat="40.9381383" lon="14.58087"><ele>234.0</ele><time>2026-03-29T07:31:58.296Z</time></trkpt><trkpt lat="40.9382067" lon="14.5809233"><ele>234.0</ele><time>2026-03-29T07:32:00.295Z</time></trkpt><trkpt lat="40.9382733" lon="14.5809767"><ele>234.0</ele><time>2026-03-29T07:32:02.295Z</time></trkpt><trkpt lat="40.93834" lon="14.5810217"><ele>234.0</ele><time>2026-03-29T07:32:04.296Z</time></trkpt><trkpt lat="40.938405" lon="14.5810583"><ele>234.0</ele><time>2026-03-29T07:32:06.295Z</time></trkpt><trkpt lat="40.9384683" lon="14.5810917"><ele>235.14285714285717</ele><time>2026-03-29T07:32:08.294Z</time></trkpt><trkpt lat="40.9385317" lon="14.58112"><ele>236.2857142857143</ele><time>2026-03-29T07:32:10.296Z</time></trkpt><trkpt lat="40.9385967" lon="14.5811583"><ele>237.42857142857144</ele><time>2026-03-29T07:32:12.297Z</time></trkpt><trkpt lat="40.938645" lon="14.5812133"><ele>238.57142857142856</ele><time>2026-03-29T07:32:14.298Z</time></trkpt><trkpt lat="40.9386083" lon="14.5813133"><ele>239.7142857142857</ele><time>2026-03-29T07:32:17.295Z</time></trkpt><trkpt lat="40.9385167" lon="14.5812867"><ele>240.85714285714283</ele><time>2026-03-29T07:32:20.298Z</time></trkpt><trkpt lat="40.9384533" lon="14.58126"><ele>242.0</ele><time>2026-03-29T07:32:22.294Z</time></trkpt><trkpt lat="40.9383883" lon="14.5812367"><ele>240.85714285714283</ele><time>2026-03-29T07:32:24.298Z</time></trkpt><trkpt lat="40.9383233" lon="14.5812233"><ele>239.7142857142857</ele><time>2026-03-29T07:32:26.298Z</time></trkpt><trkpt lat="40.93826" lon="14.581205"><ele>238.57142857142856</ele><time>2026-03-29T07:32:28.298Z</time></trkpt><trkpt lat="40.9381933" lon="14.5811817"><ele>237.42857142857144</ele><time>2026-03-29T07:32:30.298Z</time></trkpt><trkpt lat="40.9381267" lon="14.581165"><ele>236.2857142857143</ele><time>2026-03-29T07:32:32.298Z</time></trkpt><trkpt lat="40.9380633" lon="14.5811483"><ele>235.14285714285717</ele><time>2026-03-29T07:32:34.296Z</time></trkpt><trkpt lat="40.9379767" lon="14.5811283"><ele>234.0</ele><time>2026-03-29T07:32:37.298Z</time></trkpt><trkpt lat="40.937915" lon="14.5811"><ele>234.0</ele><time>2026-03-29T07:32:39.296Z</time></trkpt><trkpt lat="40.9378267" lon="14.5810717"><ele>234.0</ele><time>2026-03-29T07:32:42.298Z</time></trkpt><trkpt lat="40.9377483" lon="14.5810467"><ele>234.0</ele><time>2026-03-29T07:32:45.297Z</time></trkpt><trkpt lat="40.9376733" lon="14.5810433"><ele>234.0</ele><time>2026-03-29T07:32:48.298Z</time></trkpt><trkpt lat="40.9375867" lon="14.581035"><ele>234.0</ele><time>2026-03-29T07:32:51.298Z</time></trkpt><trkpt lat="40.9375067" lon="14.58104"><ele>234.0</ele><time>2026-03-29T07:32:54.298Z</time></trkpt><trkpt lat="40.9374133" lon="14.58104"><ele>235.66666666666666</ele><time>2026-03-29T07:32:57.298Z</time></trkpt><trkpt lat="40.9373433" lon="14.5810383"><ele>237.33333333333331</ele><time>2026-03-29T07:32:59.296Z</time></trkpt><trkpt lat="40.937245" lon="14.58103"><ele>239.0</ele><time>2026-03-29T07:33:02.295Z</time></trkpt><trkpt lat="40.9371717" lon="14.581015"><ele>240.66666666666666</ele><time>2026-03-29T07:33:04.294Z</time></trkpt><trkpt lat="40.9370983" lon="14.5810083"><ele>242.33333333333331</ele><time>2026-03-29T07:33:06.295Z</time></trkpt><trkpt lat="40.9370267" lon="14.5810017"><ele>244.0</ele><time>2026-03-29T07:33:08.298Z</time></trkpt><trkpt lat="40.9369583" lon="14.5809967"><ele>243.99999999999997</ele><time>2026-03-29T07:33:10.295Z</time></trkpt><trkpt lat="40.9368917" lon="14.5809867"><ele>244.0</ele><time>2026-03-29T07:33:12.296Z</time></trkpt><trkpt lat="40.9368067" lon="14.580975"><ele>244.0</ele><time>2026-03-29T07:33:15.298Z</time></trkpt><trkpt lat="40.9367033" lon="14.580965"><ele>244.0</ele><time>2026-03-29T07:33:18.298Z</time></trkpt><trkpt lat="40.9366217" lon="14.5809517"><ele>243.99999999999997</ele><time>2026-03-29T07:33:20.294Z</time></trkpt><trkpt lat="40.9365483" lon="14.5809517"><ele>244.0</ele><time>2026-03-29T07:33:22.294Z</time></trkpt><trkpt lat="40.9364583" lon="14.580955"><ele>245.28571428571425</ele><time>2026-03-29T07:33:25.295Z</time></trkpt><trkpt lat="40.93637" lon="14.580955"><ele>246.57142857142856</ele><time>2026-03-29T07:33:28.295Z</time></trkpt><trkpt lat="40.9362833" lon="14.5809617"><ele>247.85714285714286</ele><time>2026-03-29T07:33:31.295Z</time></trkpt><trkpt lat="40.93622" lon="14.5809617"><ele>249.14285714285714</ele><time>2026-03-29T07:33:33.294Z</time></trkpt><trkpt lat="40.9361567" lon="14.58096"><ele>250.42857142857144</ele><time>2026-03-29T07:33:35.298Z</time></trkpt><trkpt lat="40.93609" lon="14.58096"><ele>251.71428571428575</ele><time>2026-03-29T07:33:37.295Z</time></trkpt><trkpt lat="40.9360233" lon="14.5809467"><ele>253.00000000000003</ele><time>2026-03-29T07:33:39.298Z</time></trkpt><trkpt lat="40.9359583" lon="14.5809367"><ele>252.99999999999997</ele><time>2026-03-29T07:33:41.297Z</time></trkpt><trkpt lat="40.9358967" lon="14.5809167"><ele>253.0</ele><time>2026-03-29T07:33:43.298Z</time></trkpt><trkpt lat="40.9358067" lon="14.58088"><ele>253.0</ele><time>2026-03-29T07:33:46.295Z</time></trkpt><trkpt lat="40.93572" lon="14.580835"><ele>253.0</ele><time>2026-03-29T07:33:49.295Z</time></trkpt><trkpt lat="40.935635" lon="14.5807967"><ele>252.99999999999997</ele><time>2026-03-29T07:33:52.294Z</time></trkpt><trkpt lat="40.9355517" lon="14.58079"><ele>253.0</ele><time>2026-03-29T07:33:55.299Z</time></trkpt><trkpt lat="40.9354867" lon="14.5808267"><ele>254.16666666666666</ele><time>2026-03-29T07:33:58.298Z</time></trkpt><trkpt lat="40.9354533" lon="14.5809067"><ele>255.33333333333331</ele><time>2026-03-29T07:34:01.294Z</time></trkpt><trkpt lat="40.9354417" lon="14.5810083"><ele>256.5</ele><time>2026-03-29T07:34:04.296Z</time></trkpt><trkpt lat="40.9354317" lon="14.5811167"><ele>257.6666666666667</ele><time>2026-03-29T07:34:07.295Z</time></trkpt><trkpt lat="40.9354217" lon="14.5812333"><ele>258.83333333333337</ele><time>2026-03-29T07:34:10.298Z</time></trkpt><trkpt lat="40.9353933" lon="14.5813383"><ele>260.0</ele><time>2026-03-29T07:34:13.299Z</time></trkpt><trkpt lat="40.9353667" lon="14.5814333"><ele>262.6666666666667</ele><time>2026-03-29T07:34:16.295Z</time></trkpt><trkpt lat="40.935335" lon="14.5815467"><ele>265.33333333333337</ele><time>2026-03-29T07:34:19.295Z</time></trkpt><trkpt lat="40.935305" lon="14.58166"><ele>268.0</ele><time>2026-03-29T07:34:22.296Z</time></trkpt><trkpt lat="40.93527" lon="14.581765"><ele>270.6666666666667</ele><time>2026-03-29T07:34:25.298Z</time></trkpt><trkpt lat="40.9352433" lon="14.581885"><ele>273.3333333333333</ele><time>2026-03-29T07:34:28.295Z</time></trkpt><trkpt lat="40.9352217" lon="14.5819817"><ele>276.0</ele><time>2026-03-29T07:34:30.298Z</time></trkpt><trkpt lat="40.9351983" lon="14.5820733"><ele>277.0</ele><time>2026-03-29T07:34:32.294Z</time></trkpt><trkpt lat="40.9351783" lon="14.5821533"><ele>278.0</ele><time>2026-03-29T07:34:34.296Z</time></trkpt><trkpt lat="40.9351533" lon="14.5822317"><ele>279.0</ele><time>2026-03-29T07:34:36.295Z</time></trkpt><trkpt lat="40.935115" lon="14.5823417"><ele>280.0</ele><time>2026-03-29T07:34:39.295Z</time></trkpt><trkpt lat="40.93508" lon="14.5824133"><ele>281.0</ele><time>2026-03-29T07:34:41.294Z</time></trkpt><trkpt lat="40.935015" lon="14.5824867"><ele>282.0</ele><time>2026-03-29T07:34:44.296Z</time></trkpt><trkpt lat="40.934925" lon="14.5825017"><ele>282.0</ele><time>2026-03-29T07:34:47.296Z</time></trkpt><trkpt lat="40.9348633" lon="14.5824683"><ele>282.0</ele><time>2026-03-29T07:34:49.295Z</time></trkpt><trkpt lat="40.9348183" lon="14.5824083"><ele>282.0</ele><time>2026-03-29T07:34:51.295Z</time></trkpt><trkpt lat="40.9347933" lon="14.5823267"><ele>282.0</ele><time>2026-03-29T07:34:53.294Z</time></trkpt><trkpt lat="40.9347717" lon="14.582245"><ele>282.0</ele><time>2026-03-29T07:34:55.296Z</time></trkpt><trkpt lat="40.9347367" lon="14.58217"><ele>282.0</ele><time>2026-03-29T07:34:57.295Z</time></trkpt><trkpt lat="40.9346917" lon="14.582105"><ele>282.0</ele><time>2026-03-29T07:34:59.295Z</time></trkpt><trkpt lat="40.9346367" lon="14.58205"><ele>281.2857142857143</ele><time>2026-03-29T07:35:01.298Z</time></trkpt><trkpt lat="40.93458" lon="14.5820067"><ele>280.57142857142856</ele><time>2026-03-29T07:35:03.298Z</time></trkpt><trkpt lat="40.93452" lon="14.581965"><ele>279.85714285714283</ele><time>2026-03-29T07:35:05.298Z</time></trkpt><trkpt lat="40.93445" lon="14.5819267"><ele>279.1428571428571</ele><time>2026-03-29T07:35:07.295Z</time></trkpt><trkpt lat="40.9343817" lon="14.5818967"><ele>278.4285714285714</ele><time>2026-03-29T07:35:09.297Z</time></trkpt><trkpt lat="40.934315" lon="14.581875"><ele>277.7142857142857</ele><time>2026-03-29T07:35:11.298Z</time></trkpt><trkpt lat="40.9342267" lon="14.581835"><ele>277.0</ele><time>2026-03-29T07:35:14.298Z</time></trkpt><trkpt lat="40.9341667" lon="14.5818067"><ele>277.0</ele><time>2026-03-29T07:35:16.295Z</time></trkpt><trkpt lat="40.9340867" lon="14.5817717"><ele>277.0</ele><time>2026-03-29T07:35:19.295Z</time></trkpt><trkpt lat="40.9340267" lon="14.5817433"><ele>277.0</ele><time>2026-03-29T07:35:21.295Z</time></trkpt><trkpt lat="40.933935" lon="14.5817083"><ele>277.0</ele><time>2026-03-29T07:35:24.298Z</time></trkpt><trkpt lat="40.93387" lon="14.5816733"><ele>277.0</ele><time>2026-03-29T07:35:26.298Z</time></trkpt><trkpt lat="40.9337767" lon="14.5816417"><ele>277.0</ele><time>2026-03-29T07:35:29.298Z</time></trkpt><trkpt lat="40.9337133" lon="14.58161"><ele>277.0</ele><time>2026-03-29T07:35:31.296Z</time></trkpt><trkpt lat="40.9336517" lon="14.58159"><ele>277.0</ele><time>2026-03-29T07:35:33.296Z</time></trkpt><trkpt lat="40.9335733" lon="14.581565"><ele>277.0</ele><time>2026-03-29T07:35:36.298Z</time></trkpt><trkpt lat="40.9334933" lon="14.5815367"><ele>277.0</ele><time>2026-03-29T07:35:39.297Z</time></trkpt><trkpt lat="40.9334167" lon="14.5815033"><ele>277.0</ele><time>2026-03-29T07:35:42.296Z</time></trkpt><trkpt lat="40.9333417" lon="14.5814767"><ele>277.0</ele><time>2026-03-29T07:35:45.298Z</time></trkpt><trkpt lat="40.9332617" lon="14.58144"><ele>280.16666666666663</ele><time>2026-03-29T07:35:48.295Z</time></trkpt><trkpt lat="40.9331833" lon="14.5814"><ele>283.3333333333333</ele><time>2026-03-29T07:35:51.294Z</time></trkpt><trkpt lat="40.93311" lon="14.5813667"><ele>286.5</ele><time>2026-03-29T07:35:54.295Z</time></trkpt><trkpt lat="40.933025" lon="14.5813283"><ele>289.6666666666667</ele><time>2026-03-29T07:35:57.298Z</time></trkpt><trkpt lat="40.932965" lon="14.581295"><ele>292.83333333333337</ele><time>2026-03-29T07:35:59.298Z</time></trkpt><trkpt lat="40.9328767" lon="14.5812483"><ele>296.0</ele><time>2026-03-29T07:36:02.296Z</time></trkpt><trkpt lat="40.9328167" lon="14.5812167"><ele>296.0</ele><time>2026-03-29T07:36:04.295Z</time></trkpt><trkpt lat="40.9327567" lon="14.58119"><ele>296.0</ele><time>2026-03-29T07:36:06.298Z</time></trkpt><trkpt lat="40.9326917" lon="14.5811667"><ele>296.0</ele><time>2026-03-29T07:36:08.297Z</time></trkpt><trkpt lat="40.932625" lon="14.58114"><ele>296.0</ele><time>2026-03-29T07:36:10.297Z</time></trkpt><trkpt lat="40.9325367" lon="14.5811033"><ele>296.0</ele><time>2026-03-29T07:36:13.298Z</time></trkpt><trkpt lat="40.9324717" lon="14.5810717"><ele>296.0</ele><time>2026-03-29T07:36:15.295Z</time></trkpt><trkpt lat="40.93241" lon="14.5810417"><ele>296.0</ele><time>2026-03-29T07:36:17.295Z</time></trkpt><trkpt lat="40.9323517" lon="14.5810083"><ele>294.1666666666667</ele><time>2026-03-29T07:36:19.296Z</time></trkpt><trkpt lat="40.9322783" lon="14.5809683"><ele>292.33333333333337</ele><time>2026-03-29T07:36:22.296Z</time></trkpt><trkpt lat="40.9321967" lon="14.5809283"><ele>290.5</ele><time>2026-03-29T07:36:25.3Z</time></trkpt><trkpt lat="40.93212" lon="14.5808767"><ele>288.6666666666667</ele><time>2026-03-29T07:36:28.295Z</time></trkpt><trkpt lat="40.93204" lon="14.5808133"><ele>286.8333333333333</ele><time>2026-03-29T07:36:31.298Z</time></trkpt><trkpt lat="40.9319883" lon="14.5807617"><ele>285.0</ele><time>2026-03-29T07:36:33.295Z</time></trkpt><trkpt lat="40.9319117" lon="14.5807083"><ele>285.0</ele><time>2026-03-29T07:36:36.298Z</time></trkpt><trkpt lat="40.93184" lon="14.580705"><ele>285.0</ele><time>2026-03-29T07:36:39.299Z</time></trkpt><trkpt lat="40.93183" lon="14.5808067"><ele>285.0</ele><time>2026-03-29T07:36:43.295Z</time></trkpt><trkpt lat="40.9319067" lon="14.5808617"><ele>285.0</ele><time>2026-03-29T07:36:46.295Z</time></trkpt><trkpt lat="40.9319683" lon="14.580905"><ele>285.0</ele><time>2026-03-29T07:36:48.297Z</time></trkpt><trkpt lat="40.932035" lon="14.5809533"><ele>285.0</ele><time>2026-03-29T07:36:50.296Z</time></trkpt><trkpt lat="40.9320967" lon="14.5810067"><ele>285.0</ele><time>2026-03-29T07:36:52.295Z</time></trkpt><trkpt lat="40.93216" lon="14.5810583"><ele>285.0</ele><time>2026-03-29T07:36:54.295Z</time></trkpt><trkpt lat="40.9322217" lon="14.5811017"><ele>285.0</ele><time>2026-03-29T07:36:56.295Z</time></trkpt><trkpt lat="40.9322817" lon="14.5811517"><ele>285.0</ele><time>2026-03-29T07:36:58.296Z</time></trkpt><trkpt lat="40.932345" lon="14.5812133"><ele>285.0</ele><time>2026-03-29T07:37:00.297Z</time></trkpt><trkpt lat="40.9324067" lon="14.58127"><ele>285.0</ele><time>2026-03-29T07:37:02.295Z</time></trkpt><trkpt lat="40.9324683" lon="14.581325"><ele>285.0</ele><time>2026-03-29T07:37:04.296Z</time></trkpt><trkpt lat="40.9325283" lon="14.5813867"><ele>286.57142857142856</ele><time>2026-03-29T07:37:06.295Z</time></trkpt><trkpt lat="40.9325883" lon="14.5814433"><ele>288.14285714285717</ele><time>2026-03-29T07:37:08.296Z</time></trkpt><trkpt lat="40.9326483" lon="14.5814917"><ele>289.7142857142857</ele><time>2026-03-29T07:37:10.296Z</time></trkpt><trkpt lat="40.932705" lon="14.5815317"><ele>291.2857142857143</ele><time>2026-03-29T07:37:12.296Z</time></trkpt><trkpt lat="40.9327667" lon="14.5815767"><ele>292.85714285714283</ele><time>2026-03-29T07:37:14.298Z</time></trkpt><trkpt lat="40.93283" lon="14.58161"><ele>294.42857142857144</ele><time>2026-03-29T07:37:16.295Z</time></trkpt><trkpt lat="40.932885" lon="14.5816517"><ele>296.0</ele><time>2026-03-29T07:37:18.296Z</time></trkpt><trkpt lat="40.9329367" lon="14.58171"><ele>296.0</ele><time>2026-03-29T07:37:20.296Z</time></trkpt><trkpt lat="40.9330117" lon="14.581765"><ele>296.0</ele><time>2026-03-29T07:37:23.299Z</time></trkpt><trkpt lat="40.9330867" lon="14.5818267"><ele>296.0</ele><time>2026-03-29T07:37:26.299Z</time></trkpt><trkpt lat="40.9330933" lon="14.5819433"><ele>296.0</ele><time>2026-03-29T07:37:29.299Z</time></trkpt><trkpt lat="40.9330267" lon="14.5819417"><ele>296.0</ele><time>2026-03-29T07:37:31.299Z</time></trkpt><trkpt lat="40.9329583" lon="14.5819133"><ele>296.0</ele><time>2026-03-29T07:37:33.295Z</time></trkpt><trkpt lat="40.93289" lon="14.5818817"><ele>296.0</ele><time>2026-03-29T07:37:35.298Z</time></trkpt><trkpt lat="40.9328267" lon="14.5818467"><ele>296.0</ele><time>2026-03-29T07:37:37.296Z</time></trkpt><trkpt lat="40.9327617" lon="14.5818167"><ele>296.0</ele><time>2026-03-29T07:37:39.296Z</time></trkpt><trkpt lat="40.9326983" lon="14.581785"><ele>296.0</ele><time>2026-03-29T07:37:41.296Z</time></trkpt><trkpt lat="40.9326317" lon="14.5817517"><ele>296.0</ele><time>2026-03-29T07:37:43.299Z</time></trkpt><trkpt lat="40.93257" lon="14.5817167"><ele>296.0</ele><time>2026-03-29T07:37:45.299Z</time></trkpt><trkpt lat="40.9325083" lon="14.581685"><ele>296.0</ele><time>2026-03-29T07:37:47.295Z</time></trkpt><trkpt lat="40.9324467" lon="14.58166"><ele>298.57142857142856</ele><time>2026-03-29T07:37:49.299Z</time></trkpt><trkpt lat="40.93238" lon="14.5816333"><ele>301.1428571428571</ele><time>2026-03-29T07:37:51.296Z</time></trkpt><trkpt lat="40.9323133" lon="14.5816017"><ele>303.71428571428567</ele><time>2026-03-29T07:37:53.299Z</time></trkpt><trkpt lat="40.932245" lon="14.581565"><ele>306.2857142857143</ele><time>2026-03-29T07:37:55.298Z</time></trkpt><trkpt lat="40.9321783" lon="14.581535"><ele>308.85714285714283</ele><time>2026-03-29T07:37:57.3Z</time></trkpt><trkpt lat="40.9321117" lon="14.5815017"><ele>311.4285714285714</ele><time>2026-03-29T07:37:59.296Z</time></trkpt><trkpt lat="40.932045" lon="14.5814733"><ele>314.0</ele><time>2026-03-29T07:38:01.296Z</time></trkpt><trkpt lat="40.931975" lon="14.5814433"><ele>313.99999999999994</ele><time>2026-03-29T07:38:03.299Z</time></trkpt><trkpt lat="40.9319117" lon="14.5814117"><ele>314.0</ele><time>2026-03-29T07:38:05.298Z</time></trkpt><trkpt lat="40.9318417" lon="14.5813683"><ele>314.0</ele><time>2026-03-29T07:38:07.296Z</time></trkpt><trkpt lat="40.9317767" lon="14.5813267"><ele>314.0</ele><time>2026-03-29T07:38:09.297Z</time></trkpt><trkpt lat="40.9317117" lon="14.5812783"><ele>314.0</ele><time>2026-03-29T07:38:11.299Z</time></trkpt><trkpt lat="40.9316467" lon="14.5812283"><ele>313.99999999999994</ele><time>2026-03-29T07:38:13.299Z</time></trkpt><trkpt lat="40.9315833" lon="14.5811783"><ele>314.0</ele><time>2026-03-29T07:38:15.299Z</time></trkpt><trkpt lat="40.9315167" lon="14.581125"><ele>312.6666666666667</ele><time>2026-03-29T07:38:17.294Z</time></trkpt><trkpt lat="40.93145" lon="14.5810683"><ele>311.33333333333337</ele><time>2026-03-29T07:38:19.298Z</time></trkpt><trkpt lat="40.9313917" lon="14.5810217"><ele>310.0</ele><time>2026-03-29T07:38:21.297Z</time></trkpt><trkpt lat="40.9313233" lon="14.5809817"><ele>308.6666666666667</ele><time>2026-03-29T07:38:23.298Z</time></trkpt><trkpt lat="40.9312483" lon="14.5809333"><ele>307.3333333333333</ele><time>2026-03-29T07:38:25.299Z</time></trkpt><trkpt lat="40.93117" lon="14.5809033"><ele>306.0</ele><time>2026-03-29T07:38:27.297Z</time></trkpt><trkpt lat="40.93109" lon="14.5808933"><ele>306.0</ele><time>2026-03-29T07:38:29.298Z</time></trkpt><trkpt lat="40.9310117" lon="14.5809033"><ele>306.0</ele><time>2026-03-29T07:38:31.299Z</time></trkpt><trkpt lat="40.93094" lon="14.5809217"><ele>306.0</ele><time>2026-03-29T07:38:33.298Z</time></trkpt><trkpt lat="40.9308833" lon="14.580965"><ele>306.0</ele><time>2026-03-29T07:38:35.295Z</time></trkpt><trkpt lat="40.9308117" lon="14.5810283"><ele>306.0</ele><time>2026-03-29T07:38:38.297Z</time></trkpt><trkpt lat="40.9307383" lon="14.58111"><ele>306.0</ele><time>2026-03-29T07:38:41.295Z</time></trkpt><trkpt lat="40.9306817" lon="14.5811667"><ele>310.8333333333333</ele><time>2026-03-29T07:38:43.299Z</time></trkpt><trkpt lat="40.9306267" lon="14.58124"><ele>315.6666666666667</ele><time>2026-03-29T07:38:45.299Z</time></trkpt><trkpt lat="40.93058" lon="14.581305"><ele>320.5</ele><time>2026-03-29T07:38:47.298Z</time></trkpt><trkpt lat="40.9305017" lon="14.5813783"><ele>325.33333333333337</ele><time>2026-03-29T07:38:50.299Z</time></trkpt><trkpt lat="40.9304267" lon="14.58138"><ele>330.1666666666667</ele><time>2026-03-29T07:38:52.298Z</time></trkpt><trkpt lat="40.9303533" lon="14.5813467"><ele>335.0</ele><time>2026-03-29T07:38:54.297Z</time></trkpt><trkpt lat="40.93029" lon="14.5813067"><ele>334.99999999999994</ele><time>2026-03-29T07:38:56.299Z</time></trkpt><trkpt lat="40.93023" lon="14.5812617"><ele>335.0</ele><time>2026-03-29T07:38:58.295Z</time></trkpt><trkpt lat="40.9301667" lon="14.5812217"><ele>335.0</ele><time>2026-03-29T07:39:00.298Z</time></trkpt><trkpt lat="40.9301033" lon="14.58119"><ele>335.0</ele><time>2026-03-29T07:39:02.299Z</time></trkpt><trkpt lat="40.9300383" lon="14.5811733"><ele>335.0</ele><time>2026-03-29T07:39:04.297Z</time></trkpt><trkpt lat="40.9299717" lon="14.5811667"><ele>334.99999999999994</ele><time>2026-03-29T07:39:06.298Z</time></trkpt><trkpt lat="40.9298783" lon="14.5811483"><ele>335.0</ele><time>2026-03-29T07:39:09.298Z</time></trkpt><trkpt lat="40.9298083" lon="14.5811317"><ele>332.8</ele><time>2026-03-29T07:39:11.298Z</time></trkpt><trkpt lat="40.9297267" lon="14.5811133"><ele>330.6</ele><time>2026-03-29T07:39:13.298Z</time></trkpt><trkpt lat="40.92964" lon="14.58109"><ele>328.4</ele><time>2026-03-29T07:39:15.298Z</time></trkpt><trkpt lat="40.929545" lon="14.58107"><ele>326.2</ele><time>2026-03-29T07:39:17.295Z</time></trkpt><trkpt lat="40.929445" lon="14.58106"><ele>324.0</ele><time>2026-03-29T07:39:19.296Z</time></trkpt><trkpt lat="40.92934" lon="14.5810667"><ele>324.0</ele><time>2026-03-29T07:39:21.296Z</time></trkpt><trkpt lat="40.929235" lon="14.5810883"><ele>324.0</ele><time>2026-03-29T07:39:23.296Z</time></trkpt><trkpt lat="40.9291333" lon="14.5811133"><ele>324.0</ele><time>2026-03-29T07:39:25.296Z</time></trkpt><trkpt lat="40.9290483" lon="14.5811367"><ele>324.0</ele><time>2026-03-29T07:39:27.295Z</time></trkpt><trkpt lat="40.9289683" lon="14.5811583"><ele>324.0</ele><time>2026-03-29T07:39:29.297Z</time></trkpt><trkpt lat="40.92889" lon="14.5811817"><ele>327.0</ele><time>2026-03-29T07:39:31.298Z</time></trkpt><trkpt lat="40.92881" lon="14.581205"><ele>330.0</ele><time>2026-03-29T07:39:33.298Z</time></trkpt><trkpt lat="40.9287467" lon="14.5812417"><ele>333.0</ele><time>2026-03-29T07:39:35.298Z</time></trkpt><trkpt lat="40.9286883" lon="14.5812817"><ele>336.0</ele><time>2026-03-29T07:39:37.298Z</time></trkpt><trkpt lat="40.928625" lon="14.5813267"><ele>339.0</ele><time>2026-03-29T07:39:39.295Z</time></trkpt><trkpt lat="40.92856" lon="14.5813617"><ele>342.0</ele><time>2026-03-29T07:39:41.296Z</time></trkpt><trkpt lat="40.9284983" lon="14.5813983"><ele>345.0</ele><time>2026-03-29T07:39:43.298Z</time></trkpt><trkpt lat="40.928435" lon="14.58143"><ele>345.0</ele><time>2026-03-29T07:39:45.297Z</time></trkpt><trkpt lat="40.92837" lon="14.581445"><ele>345.0</ele><time>2026-03-29T07:39:47.295Z</time></trkpt><trkpt lat="40.928285" lon="14.5814817"><ele>345.0</ele><time>2026-03-29T07:39:50.295Z</time></trkpt><trkpt lat="40.9282067" lon="14.58152"><ele>345.0</ele><time>2026-03-29T07:39:52.294Z</time></trkpt><trkpt lat="40.9281067" lon="14.581555"><ele>345.0</ele><time>2026-03-29T07:39:54.295Z</time></trkpt><trkpt lat="40.9279917" lon="14.5815917"><ele>345.0</ele><time>2026-03-29T07:39:56.297Z</time></trkpt><trkpt lat="40.9279233" lon="14.5816083"><ele>345.0</ele><time>2026-03-29T07:39:57.297Z</time></trkpt><trkpt lat="40.9278533" lon="14.5816267"><ele>345.0</ele><time>2026-03-29T07:39:58.295Z</time></trkpt><trkpt lat="40.9277859" lon="14.5816495"><ele>345.0</ele><time>2026-03-29T07:39:59.297Z</time></trkpt><trkpt lat="40.9276758" lon="14.5816919"><ele>345.0</ele><time>2026-03-29T07:40:01.296Z</time></trkpt><trkpt lat="40.927565" lon="14.5817277"><ele>345.0</ele><time>2026-03-29T07:40:03.295Z</time></trkpt><trkpt lat="40.9274601" lon="14.5817441"><ele>345.3333333333333</ele><time>2026-03-29T07:40:05.297Z</time></trkpt><trkpt lat="40.9273683" lon="14.5817483"><ele>345.6666666666667</ele><time>2026-03-29T07:40:07.296Z</time></trkpt><trkpt lat="40.9272867" lon="14.5817083"><ele>346.0</ele><time>2026-03-29T07:40:09.296Z</time></trkpt><trkpt lat="40.9272117" lon="14.581715"><ele>346.33333333333337</ele><time>2026-03-29T07:40:55.296Z</time></trkpt><trkpt lat="40.9271267" lon="14.5817633"><ele>346.6666666666667</ele><time>2026-03-29T07:40:58.295Z</time></trkpt><trkpt lat="40.9270417" lon="14.58181"><ele>347.0</ele><time>2026-03-29T07:41:01.298Z</time></trkpt><trkpt lat="40.926965" lon="14.5818283"><ele>347.0</ele><time>2026-03-29T07:41:03.296Z</time></trkpt><trkpt lat="40.9269" lon="14.5818517"><ele>347.0</ele><time>2026-03-29T07:41:05.299Z</time></trkpt><trkpt lat="40.9268367" lon="14.5818783"><ele>347.0</ele><time>2026-03-29T07:41:07.296Z</time></trkpt><trkpt lat="40.9267717" lon="14.5819083"><ele>347.0</ele><time>2026-03-29T07:41:09.295Z</time></trkpt><trkpt lat="40.926705" lon="14.581935"><ele>347.0</ele><time>2026-03-29T07:41:11.295Z</time></trkpt><trkpt lat="40.9266383" lon="14.5819467"><ele>347.0</ele><time>2026-03-29T07:41:13.297Z</time></trkpt><trkpt lat="40.9265483" lon="14.5819767"><ele>347.0</ele><time>2026-03-29T07:41:16.296Z</time></trkpt><trkpt lat="40.926485" lon="14.5819933"><ele>347.33333333333337</ele><time>2026-03-29T07:41:18.294Z</time></trkpt><trkpt lat="40.92639" lon="14.5820183"><ele>347.6666666666667</ele><time>2026-03-29T07:41:21.294Z</time></trkpt><trkpt lat="40.92632" lon="14.58205"><ele>348.0</ele><time>2026-03-29T07:41:23.295Z</time></trkpt><trkpt lat="40.926235" lon="14.5820767"><ele>348.3333333333333</ele><time>2026-03-29T07:41:25.296Z</time></trkpt><trkpt lat="40.92615" lon="14.582105"><ele>348.66666666666663</ele><time>2026-03-29T07:41:27.295Z</time></trkpt><trkpt lat="40.9260633" lon="14.5821433"><ele>349.0</ele><time>2026-03-29T07:41:29.295Z</time></trkpt><trkpt lat="40.9259717" lon="14.5821783"><ele>348.3333333333333</ele><time>2026-03-29T07:41:31.296Z</time></trkpt><trkpt lat="40.9258633" lon="14.5822067"><ele>347.66666666666663</ele><time>2026-03-29T07:41:33.295Z</time></trkpt><trkpt lat="40.925785" lon="14.5822367"><ele>347.0</ele><time>2026-03-29T07:41:35.295Z</time></trkpt><trkpt lat="40.9257183" lon="14.58228"><ele>346.3333333333333</ele><time>2026-03-29T07:41:38.295Z</time></trkpt><trkpt lat="40.925665" lon="14.58236"><ele>345.6666666666667</ele><time>2026-03-29T07:41:43.295Z</time></trkpt><trkpt lat="40.9256117" lon="14.582445"><ele>345.0</ele><time>2026-03-29T07:42:34.296Z</time></trkpt><trkpt lat="40.925545" lon="14.5825267"><ele>345.0</ele><time>2026-03-29T07:42:37.295Z</time></trkpt><trkpt lat="40.925485" lon="14.5825983"><ele>345.0</ele><time>2026-03-29T07:42:39.297Z</time></trkpt><trkpt lat="40.9254233" lon="14.582675"><ele>345.0</ele><time>2026-03-29T07:42:41.297Z</time></trkpt><trkpt lat="40.92536" lon="14.5827417"><ele>345.0</ele><time>2026-03-29T07:42:43.297Z</time></trkpt><trkpt lat="40.9252983" lon="14.5828083"><ele>345.0</ele><time>2026-03-29T07:42:45.296Z</time></trkpt><trkpt lat="40.92524" lon="14.58287"><ele>345.0</ele><time>2026-03-29T07:42:47.294Z</time></trkpt><trkpt lat="40.9251833" lon="14.5829367"><ele>345.6</ele><time>2026-03-29T07:42:49.297Z</time></trkpt><trkpt lat="40.9251233" lon="14.5830033"><ele>346.2</ele><time>2026-03-29T07:42:51.295Z</time></trkpt><trkpt lat="40.9250567" lon="14.5830767"><ele>346.79999999999995</ele><time>2026-03-29T07:42:53.297Z</time></trkpt><trkpt lat="40.9249883" lon="14.5831533"><ele>347.4</ele><time>2026-03-29T07:42:55.296Z</time></trkpt><trkpt lat="40.9249133" lon="14.5832333"><ele>348.0</ele><time>2026-03-29T07:42:57.295Z</time></trkpt><trkpt lat="40.9248283" lon="14.5833167"><ele>347.59999999999997</ele><time>2026-03-29T07:42:59.295Z</time></trkpt><trkpt lat="40.9247367" lon="14.5834067"><ele>347.2</ele><time>2026-03-29T07:43:01.295Z</time></trkpt><trkpt lat="40.9246383" lon="14.5835033"><ele>346.8</ele><time>2026-03-29T07:43:03.296Z</time></trkpt><trkpt lat="40.9245283" lon="14.5835933"><ele>346.4</ele><time>2026-03-29T07:43:05.296Z</time></trkpt><trkpt lat="40.9244733" lon="14.5836483"><ele>346.0</ele><time>2026-03-29T07:43:06.297Z</time></trkpt><trkpt lat="40.9244183" lon="14.5837067"><ele>346.0</ele><time>2026-03-29T07:43:07.297Z</time></trkpt><trkpt lat="40.9243683" lon="14.583765"><ele>346.0</ele><time>2026-03-29T07:43:08.297Z</time></trkpt><trkpt lat="40.9243167" lon="14.5838167"><ele>346.0</ele><time>2026-03-29T07:43:09.295Z</time></trkpt><trkpt lat="40.924265" lon="14.5838683"><ele>346.0</ele><time>2026-03-29T07:43:10.296Z</time></trkpt><trkpt lat="40.9242133" lon="14.583925"><ele>346.0</ele><time>2026-03-29T07:43:11.296Z</time></trkpt><trkpt lat="40.9241617" lon="14.5839817"><ele>346.0</ele><time>2026-03-29T07:43:12.296Z</time></trkpt><trkpt lat="40.9241117" lon="14.584035"><ele>346.0</ele><time>2026-03-29T07:43:13.297Z</time></trkpt><trkpt lat="40.9240167" lon="14.5841333"><ele>345.25</ele><time>2026-03-29T07:43:15.295Z</time></trkpt><trkpt lat="40.92393" lon="14.5842483"><ele>344.5</ele><time>2026-03-29T07:43:17.295Z</time></trkpt><trkpt lat="40.9238383" lon="14.584355"><ele>343.75</ele><time>2026-03-29T07:43:19.296Z</time></trkpt><trkpt lat="40.92377" lon="14.5844783"><ele>343.0</ele><time>2026-03-29T07:43:21.294Z</time></trkpt><trkpt lat="40.9237067" lon="14.5846"><ele>343.0</ele><time>2026-03-29T07:43:23.296Z</time></trkpt><trkpt lat="40.92365" lon="14.5847083"><ele>343.0</ele><time>2026-03-29T07:43:25.296Z</time></trkpt><trkpt lat="40.9236" lon="14.584795"><ele>343.0</ele><time>2026-03-29T07:43:27.295Z</time></trkpt><trkpt lat="40.9235533" lon="14.584875"><ele>343.0</ele><time>2026-03-29T07:43:29.297Z</time></trkpt><trkpt lat="40.92351" lon="14.5849367"><ele>343.0</ele><time>2026-03-29T07:43:31.295Z</time></trkpt><trkpt lat="40.9234583" lon="14.5850083"><ele>343.0</ele><time>2026-03-29T07:43:34.297Z</time></trkpt><trkpt lat="40.9233883" lon="14.5850783"><ele>343.0</ele><time>2026-03-29T07:43:38.297Z</time></trkpt><trkpt lat="40.9233483" lon="14.5851433"><ele>343.0</ele><time>2026-03-29T07:43:41.296Z</time></trkpt><trkpt lat="40.9233867" lon="14.58507"><ele>343.0</ele><time>2026-03-29T07:43:52.297Z</time></trkpt><trkpt lat="40.9234383" lon="14.5850083"><ele>343.0</ele><time>2026-03-29T07:43:58.295Z</time></trkpt><trkpt lat="40.9234883" lon="14.5849233"><ele>343.0</ele><time>2026-03-29T07:44:03.295Z</time></trkpt><trkpt lat="40.9235467" lon="14.5848467"><ele>343.0</ele><time>2026-03-29T07:44:06.297Z</time></trkpt><trkpt lat="40.9235967" lon="14.5847583"><ele>343.0</ele><time>2026-03-29T07:44:09.296Z</time></trkpt><trkpt lat="40.9236267" lon="14.5846767"><ele>343.0</ele><time>2026-03-29T07:44:13.295Z</time></trkpt><trkpt lat="40.9236633" lon="14.5845933"><ele>343.0</ele><time>2026-03-29T07:44:17.295Z</time></trkpt><trkpt lat="40.9236533" lon="14.58448"><ele>343.0</ele><time>2026-03-29T07:45:51.296Z</time></trkpt><trkpt lat="40.9236083" lon="14.58454"><ele>343.0</ele><time>2026-03-29T07:45:55.296Z</time></trkpt><trkpt lat="40.9236033" lon="14.58463"><ele>343.0</ele><time>2026-03-29T07:45:59.298Z</time></trkpt><trkpt lat="40.923675" lon="14.584525"><ele>343.0</ele><time>2026-03-29T07:47:45.294Z</time></trkpt><trkpt lat="40.9237083" lon="14.5846067"><ele>343.0</ele><time>2026-03-29T07:51:43.294Z</time></trkpt><trkpt lat="40.9236733" lon="14.5847017"><ele>343.0</ele><time>2026-03-29T07:51:48.295Z</time></trkpt><trkpt lat="40.9236233" lon="14.5847783"><ele>343.0</ele><time>2026-03-29T07:51:51.294Z</time></trkpt><trkpt lat="40.9235767" lon="14.58487"><ele>343.0</ele><time>2026-03-29T07:51:55.294Z</time></trkpt><trkpt lat="40.9235217" lon="14.5849383"><ele>343.0</ele><time>2026-03-29T07:51:57.293Z</time></trkpt><trkpt lat="40.923425" lon="14.5850283"><ele>343.0</ele><time>2026-03-29T07:51:59.294Z</time></trkpt><trkpt lat="40.9233567" lon="14.58511"><ele>343.0</ele><time>2026-03-29T07:52:01.294Z</time></trkpt><trkpt lat="40.923285" lon="14.585145"><ele>343.0</ele><time>2026-03-29T07:52:04.293Z</time></trkpt><trkpt lat="40.9233217" lon="14.585055"><ele>343.0</ele><time>2026-03-29T07:52:09.294Z</time></trkpt><trkpt lat="40.9233633" lon="14.5849617"><ele>343.0</ele><time>2026-03-29T07:52:23.294Z</time></trkpt><trkpt lat="40.9233983" lon="14.58487"><ele>343.0</ele><time>2026-03-29T07:52:27.293Z</time></trkpt><trkpt lat="40.9234517" lon="14.58482"><ele>343.0</ele><time>2026-03-29T07:52:31.294Z</time></trkpt><trkpt lat="40.92343" lon="14.584695"><ele>343.0</ele><time>2026-03-29T07:53:38.294Z</time></trkpt><trkpt lat="40.9235283" lon="14.58467"><ele>343.0</ele><time>2026-03-29T07:55:30.294Z</time></trkpt><trkpt lat="40.923595" lon="14.58465"><ele>343.0</ele><time>2026-03-29T07:55:41.314Z</time></trkpt><trkpt lat="40.9235017" lon="14.584665"><ele>343.0</ele><time>2026-03-29T07:56:05.294Z</time></trkpt><trkpt lat="40.92345" lon="14.58461"><ele>343.0</ele><time>2026-03-29T07:57:20.293Z</time></trkpt><trkpt lat="40.9233683" lon="14.58466"><ele>343.0</ele><time>2026-03-29T07:57:26.294Z</time></trkpt><trkpt lat="40.9233383" lon="14.584735"><ele>342.57142857142856</ele><time>2026-03-29T07:57:29.296Z</time></trkpt><trkpt lat="40.9233333" lon="14.584825"><ele>342.1428571428571</ele><time>2026-03-29T07:57:31.298Z</time></trkpt><trkpt lat="40.923325" lon="14.5849533"><ele>341.7142857142857</ele><time>2026-03-29T07:57:42.293Z</time></trkpt><trkpt lat="40.9232733" lon="14.5850167"><ele>341.2857142857143</ele><time>2026-03-29T07:57:46.295Z</time></trkpt><trkpt lat="40.92327" lon="14.585115"><ele>340.85714285714283</ele><time>2026-03-29T07:57:50.294Z</time></trkpt><trkpt lat="40.9233183" lon="14.5851767"><ele>340.42857142857144</ele><time>2026-03-29T07:57:53.294Z</time></trkpt><trkpt lat="40.923375" lon="14.58513"><ele>340.0</ele><time>2026-03-29T07:57:57.294Z</time></trkpt><trkpt lat="40.9233883" lon="14.5850417"><ele>340.6</ele><time>2026-03-29T07:58:00.294Z</time></trkpt><trkpt lat="40.9234433" lon="14.5849617"><ele>341.2</ele><time>2026-03-29T07:58:03.293Z</time></trkpt><trkpt lat="40.9235333" lon="14.584895"><ele>341.79999999999995</ele><time>2026-03-29T07:58:07.293Z</time></trkpt><trkpt lat="40.923575" lon="14.58482"><ele>342.4</ele><time>2026-03-29T07:58:09.294Z</time></trkpt><trkpt lat="40.9236567" lon="14.5847083"><ele>343.0</ele><time>2026-03-29T07:58:12.327Z</time></trkpt><trkpt lat="40.9237383" lon="14.5846617"><ele>343.0</ele><time>2026-03-29T07:58:14.294Z</time></trkpt><trkpt lat="40.9237983" lon="14.58456"><ele>343.0</ele><time>2026-03-29T07:58:18.294Z</time></trkpt><trkpt lat="40.9237833" lon="14.5844783"><ele>343.0</ele><time>2026-03-29T07:58:21.293Z</time></trkpt><trkpt lat="40.9238167" lon="14.5843933"><ele>343.0</ele><time>2026-03-29T07:58:56.295Z</time></trkpt><trkpt lat="40.923885" lon="14.5843167"><ele>343.0</ele><time>2026-03-29T07:58:59.295Z</time></trkpt><trkpt lat="40.92394" lon="14.584235"><ele>343.0</ele><time>2026-03-29T07:59:01.295Z</time></trkpt><trkpt lat="40.924" lon="14.5841367"><ele>342.79999999999995</ele><time>2026-03-29T07:59:03.295Z</time></trkpt><trkpt lat="40.9240717" lon="14.5840283"><ele>342.6</ele><time>2026-03-29T07:59:05.294Z</time></trkpt><trkpt lat="40.9241217" lon="14.5839433"><ele>342.4</ele><time>2026-03-29T07:59:06.295Z</time></trkpt><trkpt lat="40.92417" lon="14.5838617"><ele>342.20000000000005</ele><time>2026-03-29T07:59:07.295Z</time></trkpt><trkpt lat="40.92425" lon="14.5837583"><ele>342.0</ele><time>2026-03-29T07:59:09.295Z</time></trkpt><trkpt lat="40.9243333" lon="14.583675"><ele>341.99999999999994</ele><time>2026-03-29T07:59:11.296Z</time></trkpt><trkpt lat="40.9243817" lon="14.5836217"><ele>342.0</ele><time>2026-03-29T07:59:13.296Z</time></trkpt><trkpt lat="40.9244333" lon="14.5835633"><ele>342.0</ele><time>2026-03-29T07:59:15.296Z</time></trkpt><trkpt lat="40.9245" lon="14.583495"><ele>342.0</ele><time>2026-03-29T07:59:18.295Z</time></trkpt><trkpt lat="40.9245467" lon="14.5834183"><ele>342.0</ele><time>2026-03-29T07:59:21.295Z</time></trkpt><trkpt lat="40.9246017" lon="14.5833583"><ele>341.99999999999994</ele><time>2026-03-29T07:59:23.295Z</time></trkpt><trkpt lat="40.92466" lon="14.583285"><ele>342.0</ele><time>2026-03-29T07:59:25.294Z</time></trkpt><trkpt lat="40.9247083" lon="14.58322"><ele>342.0</ele><time>2026-03-29T07:59:27.294Z</time></trkpt><trkpt lat="40.9247617" lon="14.5831583"><ele>342.0</ele><time>2026-03-29T07:59:29.296Z</time></trkpt><trkpt lat="40.92484" lon="14.5830833"><ele>342.0</ele><time>2026-03-29T07:59:32.295Z</time></trkpt><trkpt lat="40.924915" lon="14.58304"><ele>342.0</ele><time>2026-03-29T07:59:35.296Z</time></trkpt><trkpt lat="40.9249817" lon="14.58303"><ele>342.0</ele><time>2026-03-29T07:59:37.296Z</time></trkpt><trkpt lat="40.925045" lon="14.5829633"><ele>342.0</ele><time>2026-03-29T07:59:40.296Z</time></trkpt><trkpt lat="40.925115" lon="14.5829183"><ele>342.4285714285714</ele><time>2026-03-29T07:59:43.296Z</time></trkpt><trkpt lat="40.9251733" lon="14.5828567"><ele>342.85714285714283</ele><time>2026-03-29T07:59:46.296Z</time></trkpt><trkpt lat="40.9252233" lon="14.5827933"><ele>343.2857142857143</ele><time>2026-03-29T07:59:49.297Z</time></trkpt><trkpt lat="40.9252917" lon="14.5827283"><ele>343.71428571428567</ele><time>2026-03-29T07:59:52.294Z</time></trkpt><trkpt lat="40.925345" lon="14.5826783"><ele>344.1428571428571</ele><time>2026-03-29T07:59:54.295Z</time></trkpt><trkpt lat="40.9254083" lon="14.5826117"><ele>344.57142857142856</ele><time>2026-03-29T07:59:57.295Z</time></trkpt><trkpt lat="40.925455" lon="14.582535"><ele>345.0</ele><time>2026-03-29T08:00:00.295Z</time></trkpt><trkpt lat="40.9255117" lon="14.582465"><ele>345.0</ele><time>2026-03-29T08:00:03.295Z</time></trkpt><trkpt lat="40.9255567" lon="14.58238"><ele>345.0</ele><time>2026-03-29T08:00:05.295Z</time></trkpt><trkpt lat="40.9256517" lon="14.58237"><ele>345.0</ele><time>2026-03-29T08:00:07.295Z</time></trkpt><trkpt lat="40.925745" lon="14.5823517"><ele>345.0</ele><time>2026-03-29T08:00:09.296Z</time></trkpt><trkpt lat="40.925845" lon="14.58231"><ele>345.0</ele><time>2026-03-29T08:00:11.295Z</time></trkpt><trkpt lat="40.9259267" lon="14.5822467"><ele>345.6666666666667</ele><time>2026-03-29T08:00:13.297Z</time></trkpt><trkpt lat="40.9260033" lon="14.5821967"><ele>346.3333333333333</ele><time>2026-03-29T08:00:15.296Z</time></trkpt><trkpt lat="40.9260817" lon="14.58217"><ele>347.0</ele><time>2026-03-29T08:00:17.297Z</time></trkpt><trkpt lat="40.92616" lon="14.58213"><ele>347.66666666666663</ele><time>2026-03-29T08:00:19.295Z</time></trkpt><trkpt lat="40.926255" lon="14.5820967"><ele>348.3333333333333</ele><time>2026-03-29T08:00:21.297Z</time></trkpt><trkpt lat="40.9263533" lon="14.5820667"><ele>349.0</ele><time>2026-03-29T08:00:23.297Z</time></trkpt><trkpt lat="40.9264783" lon="14.5820233"><ele>348.6</ele><time>2026-03-29T08:00:25.297Z</time></trkpt><trkpt lat="40.926575" lon="14.58198"><ele>348.2</ele><time>2026-03-29T08:00:27.295Z</time></trkpt><trkpt lat="40.9266717" lon="14.5819383"><ele>347.8</ele><time>2026-03-29T08:00:29.296Z</time></trkpt><trkpt lat="40.9267833" lon="14.581895"><ele>347.40000000000003</ele><time>2026-03-29T08:00:31.297Z</time></trkpt><trkpt lat="40.9268833" lon="14.5818633"><ele>347.0</ele><time>2026-03-29T08:00:33.296Z</time></trkpt><trkpt lat="40.92698" lon="14.58183"><ele>347.0</ele><time>2026-03-29T08:00:35.297Z</time></trkpt><trkpt lat="40.9270667" lon="14.5818017"><ele>347.0</ele><time>2026-03-29T08:00:37.297Z</time></trkpt><trkpt lat="40.9271583" lon="14.5817817"><ele>347.0</ele><time>2026-03-29T08:00:39.294Z</time></trkpt><trkpt lat="40.9272483" lon="14.581745"><ele>347.0</ele><time>2026-03-29T08:00:41.295Z</time></trkpt><trkpt lat="40.9273483" lon="14.5817167"><ele>347.0</ele><time>2026-03-29T08:00:43.295Z</time></trkpt><trkpt lat="40.927455" lon="14.5816917"><ele>346.5</ele><time>2026-03-29T08:00:45.296Z</time></trkpt><trkpt lat="40.927565" lon="14.5816683"><ele>346.0</ele><time>2026-03-29T08:00:47.295Z</time></trkpt><trkpt lat="40.9276733" lon="14.5816283"><ele>345.5</ele><time>2026-03-29T08:00:49.296Z</time></trkpt><trkpt lat="40.9277917" lon="14.5816"><ele>345.0</ele><time>2026-03-29T08:00:51.295Z</time></trkpt><trkpt lat="40.92791" lon="14.5815633"><ele>345.0</ele><time>2026-03-29T08:00:53.296Z</time></trkpt><trkpt lat="40.9280267" lon="14.5815317"><ele>345.0</ele><time>2026-03-29T08:00:55.296Z</time></trkpt><trkpt lat="40.92815" lon="14.5814667"><ele>345.0</ele><time>2026-03-29T08:00:57.296Z</time></trkpt><trkpt lat="40.9282683" lon="14.5813983"><ele>345.0</ele><time>2026-03-29T08:00:59.296Z</time></trkpt><trkpt lat="40.928335" lon="14.581365"><ele>345.0</ele><time>2026-03-29T08:01:00.297Z</time></trkpt><trkpt lat="40.9284067" lon="14.5813367"><ele>345.0</ele><time>2026-03-29T08:01:01.297Z</time></trkpt><trkpt lat="40.92848" lon="14.5813117"><ele>345.0</ele><time>2026-03-29T08:01:02.294Z</time></trkpt><trkpt lat="40.928565" lon="14.581285"><ele>345.0</ele><time>2026-03-29T08:01:03.296Z</time></trkpt><trkpt lat="40.9286883" lon="14.5812083"><ele>345.0</ele><time>2026-03-29T08:01:04.296Z</time></trkpt><trkpt lat="40.928775" lon="14.5811717"><ele>342.6</ele><time>2026-03-29T08:01:05.295Z</time></trkpt><trkpt lat="40.9288567" lon="14.58113"><ele>340.2</ele><time>2026-03-29T08:01:06.295Z</time></trkpt><trkpt lat="40.9289433" lon="14.5810833"><ele>337.79999999999995</ele><time>2026-03-29T08:01:07.296Z</time></trkpt><trkpt lat="40.9290383" lon="14.581045"><ele>335.4</ele><time>2026-03-29T08:01:08.296Z</time></trkpt><trkpt lat="40.9291383" lon="14.581015"><ele>333.0</ele><time>2026-03-29T08:01:09.295Z</time></trkpt><trkpt lat="40.9292383" lon="14.5810083"><ele>331.2</ele><time>2026-03-29T08:01:10.295Z</time></trkpt><trkpt lat="40.9293417" lon="14.5810183"><ele>329.4</ele><time>2026-03-29T08:01:11.297Z</time></trkpt><trkpt lat="40.9294467" lon="14.5810317"><ele>327.59999999999997</ele><time>2026-03-29T08:01:12.295Z</time></trkpt><trkpt lat="40.92955" lon="14.5810467"><ele>325.79999999999995</ele><time>2026-03-29T08:01:13.295Z</time></trkpt><trkpt lat="40.92965" lon="14.58106"><ele>324.0</ele><time>2026-03-29T08:01:14.296Z</time></trkpt><trkpt lat="40.92975" lon="14.5810783"><ele>324.0</ele><time>2026-03-29T08:01:15.294Z</time></trkpt><trkpt lat="40.92985" lon="14.5811017"><ele>324.0</ele><time>2026-03-29T08:01:16.295Z</time></trkpt><trkpt lat="40.929945" lon="14.581135"><ele>324.0</ele><time>2026-03-29T08:01:17.296Z</time></trkpt><trkpt lat="40.9300267" lon="14.5811817"><ele>324.0</ele><time>2026-03-29T08:01:18.295Z</time></trkpt><trkpt lat="40.9300883" lon="14.581235"><ele>324.0</ele><time>2026-03-29T08:01:19.295Z</time></trkpt><trkpt lat="40.930145" lon="14.58128"><ele>324.0</ele><time>2026-03-29T08:01:20.296Z</time></trkpt><trkpt lat="40.9302183" lon="14.5813133"><ele>322.8333333333333</ele><time>2026-03-29T08:01:21.296Z</time></trkpt><trkpt lat="40.9302867" lon="14.581335"><ele>321.6666666666667</ele><time>2026-03-29T08:01:22.296Z</time></trkpt><trkpt lat="40.9303517" lon="14.581345"><ele>320.5</ele><time>2026-03-29T08:01:23.296Z</time></trkpt><trkpt lat="40.9304517" lon="14.5813233"><ele>319.33333333333337</ele><time>2026-03-29T08:01:25.295Z</time></trkpt><trkpt lat="40.93054" lon="14.5812583"><ele>318.1666666666667</ele><time>2026-03-29T08:01:27.295Z</time></trkpt><trkpt lat="40.9306" lon="14.58118"><ele>317.0</ele><time>2026-03-29T08:01:28.295Z</time></trkpt><trkpt lat="40.9306683" lon="14.5810917"><ele>317.0</ele><time>2026-03-29T08:01:29.296Z</time></trkpt><trkpt lat="40.9307367" lon="14.5810217"><ele>317.0</ele><time>2026-03-29T08:01:30.294Z</time></trkpt><trkpt lat="40.930805" lon="14.5809533"><ele>317.0</ele><time>2026-03-29T08:01:31.296Z</time></trkpt><trkpt lat="40.93092" lon="14.5808417"><ele>317.0</ele><time>2026-03-29T08:01:32.295Z</time></trkpt><trkpt lat="40.9310117" lon="14.5808083"><ele>317.0</ele><time>2026-03-29T08:01:33.296Z</time></trkpt><trkpt lat="40.931095" lon="14.5808067"><ele>315.1666666666667</ele><time>2026-03-29T08:01:34.295Z</time></trkpt><trkpt lat="40.9311767" lon="14.5808317"><ele>313.33333333333337</ele><time>2026-03-29T08:01:35.295Z</time></trkpt><trkpt lat="40.9312567" lon="14.5808683"><ele>311.5</ele><time>2026-03-29T08:01:36.296Z</time></trkpt><trkpt lat="40.9313317" lon="14.58092"><ele>309.6666666666667</ele><time>2026-03-29T08:01:37.295Z</time></trkpt><trkpt lat="40.931405" lon="14.5809733"><ele>307.8333333333333</ele><time>2026-03-29T08:01:38.295Z</time></trkpt><trkpt lat="40.93149" lon="14.58104"><ele>306.0</ele><time>2026-03-29T08:01:39.294Z</time></trkpt><trkpt lat="40.9315717" lon="14.5811033"><ele>306.0</ele><time>2026-03-29T08:01:40.297Z</time></trkpt><trkpt lat="40.9316533" lon="14.581175"><ele>306.0</ele><time>2026-03-29T08:01:41.296Z</time></trkpt><trkpt lat="40.93174" lon="14.58124"><ele>306.0</ele><time>2026-03-29T08:01:42.295Z</time></trkpt><trkpt lat="40.93183" lon="14.5812983"><ele>306.0</ele><time>2026-03-29T08:01:43.295Z</time></trkpt><trkpt lat="40.9319233" lon="14.5813533"><ele>306.0</ele><time>2026-03-29T08:01:44.294Z</time></trkpt><trkpt lat="40.9320183" lon="14.5814133"><ele>307.6</ele><time>2026-03-29T08:01:45.296Z</time></trkpt><trkpt lat="40.93212" lon="14.5814667"><ele>309.20000000000005</ele><time>2026-03-29T08:01:46.296Z</time></trkpt><trkpt lat="40.9322167" lon="14.581515"><ele>310.79999999999995</ele><time>2026-03-29T08:01:47.297Z</time></trkpt><trkpt lat="40.9323167" lon="14.5815683"><ele>312.4</ele><time>2026-03-29T08:01:48.296Z</time></trkpt><trkpt lat="40.9324083" lon="14.5816233"><ele>314.0</ele><time>2026-03-29T08:01:49.295Z</time></trkpt><trkpt lat="40.9324967" lon="14.58168"><ele>310.4</ele><time>2026-03-29T08:01:50.295Z</time></trkpt><trkpt lat="40.93258" lon="14.5817333"><ele>306.79999999999995</ele><time>2026-03-29T08:01:51.294Z</time></trkpt><trkpt lat="40.9326683" lon="14.58179"><ele>303.20000000000005</ele><time>2026-03-29T08:01:52.295Z</time></trkpt><trkpt lat="40.9327617" lon="14.58185"><ele>299.6</ele><time>2026-03-29T08:01:53.297Z</time></trkpt><trkpt lat="40.9328517" lon="14.5819067"><ele>296.0</ele><time>2026-03-29T08:01:54.296Z</time></trkpt><trkpt lat="40.9329317" lon="14.581955"><ele>296.0</ele><time>2026-03-29T08:01:55.297Z</time></trkpt><trkpt lat="40.9330033" lon="14.5819833"><ele>296.0</ele><time>2026-03-29T08:01:56.296Z</time></trkpt><trkpt lat="40.9331" lon="14.5819867"><ele>296.0</ele><time>2026-03-29T08:01:58.296Z</time></trkpt><trkpt lat="40.93317" lon="14.581985"><ele>296.0</ele><time>2026-03-29T08:02:00.294Z</time></trkpt><trkpt lat="40.9330783" lon="14.5818533"><ele>296.0</ele><time>2026-03-29T08:02:04.295Z</time></trkpt><trkpt lat="40.93299" lon="14.5817667"><ele>296.0</ele><time>2026-03-29T08:02:05.297Z</time></trkpt><trkpt lat="40.9328933" lon="14.5816833"><ele>296.0</ele><time>2026-03-29T08:02:06.295Z</time></trkpt><trkpt lat="40.932765" lon="14.5815783"><ele>296.0</ele><time>2026-03-29T08:02:07.294Z</time></trkpt><trkpt lat="40.9326583" lon="14.5814867"><ele>296.0</ele><time>2026-03-29T08:02:08.294Z</time></trkpt><trkpt lat="40.93255" lon="14.5813933"><ele>293.25</ele><time>2026-03-29T08:02:09.295Z</time></trkpt><trkpt lat="40.9324433" lon="14.5813033"><ele>290.5</ele><time>2026-03-29T08:02:10.294Z</time></trkpt><trkpt lat="40.9323333" lon="14.5812083"><ele>287.75</ele><time>2026-03-29T08:02:11.295Z</time></trkpt><trkpt lat="40.9322267" lon="14.5811167"><ele>285.0</ele><time>2026-03-29T08:02:12.295Z</time></trkpt><trkpt lat="40.93214" lon="14.5810467"><ele>285.0</ele><time>2026-03-29T08:02:13.295Z</time></trkpt><trkpt lat="40.9320583" lon="14.580985"><ele>285.0</ele><time>2026-03-29T08:02:14.295Z</time></trkpt><trkpt lat="40.9319917" lon="14.58093"><ele>285.0</ele><time>2026-03-29T08:02:15.296Z</time></trkpt><trkpt lat="40.93194" lon="14.5808817"><ele>285.0</ele><time>2026-03-29T08:02:16.295Z</time></trkpt><trkpt lat="40.9318883" lon="14.58083"><ele>285.0</ele><time>2026-03-29T08:02:17.295Z</time></trkpt><trkpt lat="40.931825" lon="14.5807433"><ele>285.0</ele><time>2026-03-29T08:02:19.295Z</time></trkpt><trkpt lat="40.93197" lon="14.5807683"><ele>285.0</ele><time>2026-03-29T08:02:24.296Z</time></trkpt><trkpt lat="40.9320617" lon="14.580815"><ele>285.0</ele><time>2026-03-29T08:02:25.297Z</time></trkpt><trkpt lat="40.932175" lon="14.580875"><ele>285.0</ele><time>2026-03-29T08:02:26.296Z</time></trkpt><trkpt lat="40.9322833" lon="14.5809283"><ele>285.0</ele><time>2026-03-29T08:02:27.294Z</time></trkpt><trkpt lat="40.9324067" lon="14.5809833"><ele>285.0</ele><time>2026-03-29T08:02:28.295Z</time></trkpt><trkpt lat="40.9325167" lon="14.5810367"><ele>285.0</ele><time>2026-03-29T08:02:29.297Z</time></trkpt><trkpt lat="40.9326233" lon="14.58109"><ele>285.0</ele><time>2026-03-29T08:02:30.294Z</time></trkpt><trkpt lat="40.93273" lon="14.5811383"><ele>285.0</ele><time>2026-03-29T08:02:31.296Z</time></trkpt><trkpt lat="40.93284" lon="14.5811833"><ele>287.75</ele><time>2026-03-29T08:02:32.296Z</time></trkpt><trkpt lat="40.9329483" lon="14.5812283"><ele>290.5</ele><time>2026-03-29T08:02:33.296Z</time></trkpt><trkpt lat="40.93306" lon="14.58128"><ele>293.25</ele><time>2026-03-29T08:02:34.295Z</time></trkpt><trkpt lat="40.9331733" lon="14.5813233"><ele>296.0</ele><time>2026-03-29T08:02:35.294Z</time></trkpt><trkpt lat="40.933285" lon="14.5813633"><ele>291.25</ele><time>2026-03-29T08:02:36.294Z</time></trkpt><trkpt lat="40.933395" lon="14.5814133"><ele>286.5</ele><time>2026-03-29T08:02:37.295Z</time></trkpt><trkpt lat="40.9335083" lon="14.5814633"><ele>281.75</ele><time>2026-03-29T08:02:38.295Z</time></trkpt><trkpt lat="40.9336233" lon="14.5815167"><ele>277.0</ele><time>2026-03-29T08:02:39.295Z</time></trkpt><trkpt lat="40.9337417" lon="14.5815667"><ele>277.0</ele><time>2026-03-29T08:02:40.295Z</time></trkpt><trkpt lat="40.933855" lon="14.5816117"><ele>277.0</ele><time>2026-03-29T08:02:41.295Z</time></trkpt><trkpt lat="40.933965" lon="14.58165"><ele>277.0</ele><time>2026-03-29T08:02:42.295Z</time></trkpt><trkpt lat="40.93407" lon="14.5816833"><ele>277.0</ele><time>2026-03-29T08:02:43.295Z</time></trkpt><trkpt lat="40.9341683" lon="14.5817217"><ele>277.0</ele><time>2026-03-29T08:02:44.295Z</time></trkpt><trkpt lat="40.9342683" lon="14.5817617"><ele>277.8333333333333</ele><time>2026-03-29T08:02:45.294Z</time></trkpt><trkpt lat="40.9343617" lon="14.5818083"><ele>278.66666666666663</ele><time>2026-03-29T08:02:46.294Z</time></trkpt><trkpt lat="40.93445" lon="14.581855"><ele>279.5</ele><time>2026-03-29T08:02:47.295Z</time></trkpt><trkpt lat="40.9345333" lon="14.5819017"><ele>280.3333333333333</ele><time>2026-03-29T08:02:48.295Z</time></trkpt><trkpt lat="40.9346067" lon="14.5819517"><ele>281.1666666666667</ele><time>2026-03-29T08:02:49.295Z</time></trkpt><trkpt lat="40.9346733" lon="14.582005"><ele>282.0</ele><time>2026-03-29T08:02:50.296Z</time></trkpt><trkpt lat="40.934735" lon="14.5820683"><ele>282.0</ele><time>2026-03-29T08:02:51.296Z</time></trkpt><trkpt lat="40.9347733" lon="14.582165"><ele>282.0</ele><time>2026-03-29T08:02:52.294Z</time></trkpt><trkpt lat="40.934795" lon="14.5822583"><ele>282.0</ele><time>2026-03-29T08:02:53.297Z</time></trkpt><trkpt lat="40.93487" lon="14.58242"><ele>282.0</ele><time>2026-03-29T08:02:55.295Z</time></trkpt><trkpt lat="40.9349183" lon="14.5824767"><ele>282.0</ele><time>2026-03-29T08:02:56.296Z</time></trkpt><trkpt lat="40.9350033" lon="14.5825233"><ele>280.8</ele><time>2026-03-29T08:02:58.295Z</time></trkpt><trkpt lat="40.9350633" lon="14.5824683"><ele>279.6</ele><time>2026-03-29T08:03:00.295Z</time></trkpt><trkpt lat="40.9350983" lon="14.5823583"><ele>278.40000000000003</ele><time>2026-03-29T08:03:02.297Z</time></trkpt><trkpt lat="40.93513" lon="14.5821733"><ele>277.2</ele><time>2026-03-29T08:03:04.294Z</time></trkpt><trkpt lat="40.9351533" lon="14.582075"><ele>276.0</ele><time>2026-03-29T08:03:05.296Z</time></trkpt><trkpt lat="40.935185" lon="14.5819583"><ele>276.0</ele><time>2026-03-29T08:03:06.295Z</time></trkpt><trkpt lat="40.9352083" lon="14.5818533"><ele>276.0</ele><time>2026-03-29T08:03:07.295Z</time></trkpt><trkpt lat="40.9352283" lon="14.5817483"><ele>276.0</ele><time>2026-03-29T08:03:08.294Z</time></trkpt><trkpt lat="40.9352533" lon="14.58164"><ele>276.0</ele><time>2026-03-29T08:03:09.296Z</time></trkpt><trkpt lat="40.935275" lon="14.5815333"><ele>276.0</ele><time>2026-03-29T08:03:10.295Z</time></trkpt><trkpt lat="40.935305" lon="14.5814183"><ele>276.0</ele><time>2026-03-29T08:03:11.296Z</time></trkpt><trkpt lat="40.93533" lon="14.5813017"><ele>273.3333333333333</ele><time>2026-03-29T08:03:12.296Z</time></trkpt><trkpt lat="40.9353483" lon="14.5811783"><ele>270.6666666666667</ele><time>2026-03-29T08:03:13.297Z</time></trkpt><trkpt lat="40.93536" lon="14.581065"><ele>268.0</ele><time>2026-03-29T08:03:14.295Z</time></trkpt><trkpt lat="40.9353783" lon="14.5809667"><ele>265.33333333333337</ele><time>2026-03-29T08:03:15.294Z</time></trkpt><trkpt lat="40.9354233" lon="14.5808783"><ele>262.6666666666667</ele><time>2026-03-29T08:03:16.295Z</time></trkpt><trkpt lat="40.9354733" lon="14.5808033"><ele>260.0</ele><time>2026-03-29T08:03:17.297Z</time></trkpt><trkpt lat="40.9355317" lon="14.5807483"><ele>260.0</ele><time>2026-03-29T08:03:18.295Z</time></trkpt><trkpt lat="40.9356067" lon="14.5807367"><ele>260.0</ele><time>2026-03-29T08:03:19.295Z</time></trkpt><trkpt lat="40.93569" lon="14.5807283"><ele>260.0</ele><time>2026-03-29T08:03:20.298Z</time></trkpt><trkpt lat="40.9357967" lon="14.5807883"><ele>260.0</ele><time>2026-03-29T08:03:21.295Z</time></trkpt><trkpt lat="40.93589" lon="14.5808467"><ele>260.0</ele><time>2026-03-29T08:03:22.295Z</time></trkpt><trkpt lat="40.93599" lon="14.580875"><ele>258.6</ele><time>2026-03-29T08:03:23.296Z</time></trkpt><trkpt lat="40.9360983" lon="14.5809017"><ele>257.2</ele><time>2026-03-29T08:03:24.295Z</time></trkpt><trkpt lat="40.9362017" lon="14.58091"><ele>255.8</ele><time>2026-03-29T08:03:25.296Z</time></trkpt><trkpt lat="40.9363083" lon="14.5809183"><ele>254.4</ele><time>2026-03-29T08:03:26.295Z</time></trkpt><trkpt lat="40.9364183" lon="14.5809283"><ele>253.0</ele><time>2026-03-29T08:03:27.295Z</time></trkpt><trkpt lat="40.93654" lon="14.5809333"><ele>253.0</ele><time>2026-03-29T08:03:28.295Z</time></trkpt><trkpt lat="40.936655" lon="14.5809383"><ele>253.0</ele><time>2026-03-29T08:03:29.295Z</time></trkpt><trkpt lat="40.936765" lon="14.580945"><ele>253.0</ele><time>2026-03-29T08:03:30.294Z</time></trkpt><trkpt lat="40.93688" lon="14.5809533"><ele>253.0</ele><time>2026-03-29T08:03:31.295Z</time></trkpt><trkpt lat="40.9369917" lon="14.5809633"><ele>250.75</ele><time>2026-03-29T08:03:32.295Z</time></trkpt><trkpt lat="40.937105" lon="14.5809683"><ele>248.5</ele><time>2026-03-29T08:03:33.295Z</time></trkpt><trkpt lat="40.93722" lon="14.58097"><ele>246.25</ele><time>2026-03-29T08:03:34.294Z</time></trkpt><trkpt lat="40.9373383" lon="14.5809733"><ele>244.0</ele><time>2026-03-29T08:03:35.295Z</time></trkpt><trkpt lat="40.9374567" lon="14.5809817"><ele>241.5</ele><time>2026-03-29T08:03:36.294Z</time></trkpt><trkpt lat="40.9375783" lon="14.5809983"><ele>239.0</ele><time>2026-03-29T08:03:37.295Z</time></trkpt><trkpt lat="40.9377" lon="14.5810217"><ele>236.5</ele><time>2026-03-29T08:03:38.295Z</time></trkpt><trkpt lat="40.9378233" lon="14.5810583"><ele>234.0</ele><time>2026-03-29T08:03:39.296Z</time></trkpt><trkpt lat="40.9379433" lon="14.5811033"><ele>234.0</ele><time>2026-03-29T08:03:40.295Z</time></trkpt><trkpt lat="40.9380633" lon="14.5811533"><ele>234.0</ele><time>2026-03-29T08:03:41.295Z</time></trkpt><trkpt lat="40.9381783" lon="14.5812017"><ele>234.0</ele><time>2026-03-29T08:03:42.295Z</time></trkpt><trkpt lat="40.9382833" lon="14.5812467"><ele>234.0</ele><time>2026-03-29T08:03:43.295Z</time></trkpt><trkpt lat="40.9383817" lon="14.5812917"><ele>235.33333333333334</ele><time>2026-03-29T08:03:44.295Z</time></trkpt><trkpt lat="40.9384717" lon="14.5813317"><ele>236.66666666666669</ele><time>2026-03-29T08:03:45.294Z</time></trkpt><trkpt lat="40.938545" lon="14.5813533"><ele>238.0</ele><time>2026-03-29T08:03:46.296Z</time></trkpt><trkpt lat="40.9386433" lon="14.5813533"><ele>239.33333333333334</ele><time>2026-03-29T08:03:48.295Z</time></trkpt><trkpt lat="40.9387233" lon="14.5813217"><ele>240.66666666666669</ele><time>2026-03-29T08:03:50.294Z</time></trkpt><trkpt lat="40.9386767" lon="14.5812317"><ele>242.0</ele><time>2026-03-29T08:03:53.296Z</time></trkpt><trkpt lat="40.9385967" lon="14.581185"><ele>240.66666666666669</ele><time>2026-03-29T08:03:54.296Z</time></trkpt><trkpt lat="40.93851" lon="14.581135"><ele>239.33333333333334</ele><time>2026-03-29T08:03:55.296Z</time></trkpt><trkpt lat="40.9384367" lon="14.5810883"><ele>238.0</ele><time>2026-03-29T08:03:56.294Z</time></trkpt><trkpt lat="40.9383633" lon="14.5810367"><ele>236.66666666666669</ele><time>2026-03-29T08:03:57.295Z</time></trkpt><trkpt lat="40.9382933" lon="14.5809817"><ele>235.33333333333334</ele><time>2026-03-29T08:03:58.294Z</time></trkpt><trkpt lat="40.9382217" lon="14.580925"><ele>234.0</ele><time>2026-03-29T08:03:59.296Z</time></trkpt><trkpt lat="40.9381533" lon="14.5808667"><ele>234.0</ele><time>2026-03-29T08:04:00.296Z</time></trkpt><trkpt lat="40.9380833" lon="14.5808083"><ele>234.0</ele><time>2026-03-29T08:04:01.296Z</time></trkpt><trkpt lat="40.9380133" lon="14.580755"><ele>234.0</ele><time>2026-03-29T08:04:02.296Z</time></trkpt><trkpt lat="40.9379417" lon="14.580705"><ele>234.0</ele><time>2026-03-29T08:04:03.295Z</time></trkpt><trkpt lat="40.9378667" lon="14.5806583"><ele>234.0</ele><time>2026-03-29T08:04:04.295Z</time></trkpt><trkpt lat="40.9377917" lon="14.5806083"><ele>234.0</ele><time>2026-03-29T08:04:05.295Z</time></trkpt><trkpt lat="40.93772" lon="14.5805517"><ele>234.0</ele><time>2026-03-29T08:04:06.294Z</time></trkpt><trkpt lat="40.9376483" lon="14.5804933"><ele>234.0</ele><time>2026-03-29T08:04:07.293Z</time></trkpt><trkpt lat="40.937575" lon="14.5804367"><ele>234.0</ele><time>2026-03-29T08:04:08.294Z</time></trkpt><trkpt lat="40.9374933" lon="14.580375"><ele>234.0</ele><time>2026-03-29T08:04:09.294Z</time></trkpt><trkpt lat="40.9374283" lon="14.580315"><ele>234.0</ele><time>2026-03-29T08:04:10.305Z</time></trkpt><trkpt lat="40.9373717" lon="14.5802667"><ele>234.0</ele><time>2026-03-29T08:04:11.294Z</time></trkpt><trkpt lat="40.9372567" lon="14.580155"><ele>232.39999999999998</ele><time>2026-03-29T08:04:13.303Z</time></trkpt><trkpt lat="40.937195" lon="14.5801017"><ele>230.79999999999998</ele><time>2026-03-29T08:04:14.294Z</time></trkpt><trkpt lat="40.9370967" lon="14.580005"><ele>229.20000000000002</ele><time>2026-03-29T08:04:16.294Z</time></trkpt><trkpt lat="40.9369983" lon="14.579935"><ele>227.60000000000002</ele><time>2026-03-29T08:04:18.3Z</time></trkpt><trkpt lat="40.9369183" lon="14.57989"><ele>226.0</ele><time>2026-03-29T08:04:20.293Z</time></trkpt><trkpt lat="40.9368717" lon="14.57977"><ele>225.99999999999997</ele><time>2026-03-29T08:04:22.293Z</time></trkpt><trkpt lat="40.9368667" lon="14.5796533"><ele>226.0</ele><time>2026-03-29T08:04:24.294Z</time></trkpt><trkpt lat="40.9369167" lon="14.5795267"><ele>226.0</ele><time>2026-03-29T08:04:26.293Z</time></trkpt><trkpt lat="40.9369533" lon="14.5794583"><ele>226.0</ele><time>2026-03-29T08:04:27.294Z</time></trkpt><trkpt lat="40.936995" lon="14.5793867"><ele>225.99999999999997</ele><time>2026-03-29T08:04:28.294Z</time></trkpt><trkpt lat="40.9370617" lon="14.5793183"><ele>226.0</ele><time>2026-03-29T08:04:29.296Z</time></trkpt><trkpt lat="40.9371133" lon="14.5792467"><ele>224.60000000000002</ele><time>2026-03-29T08:04:30.294Z</time></trkpt><trkpt lat="40.93716" lon="14.5791617"><ele>223.20000000000002</ele><time>2026-03-29T08:04:31.295Z</time></trkpt><trkpt lat="40.9372117" lon="14.579075"><ele>221.79999999999998</ele><time>2026-03-29T08:04:32.299Z</time></trkpt><trkpt lat="40.937325" lon="14.5788967"><ele>220.39999999999998</ele><time>2026-03-29T08:04:34.293Z</time></trkpt><trkpt lat="40.9373717" lon="14.5788"><ele>219.0</ele><time>2026-03-29T08:04:35.293Z</time></trkpt><trkpt lat="40.9374767" lon="14.578595"><ele>219.0</ele><time>2026-03-29T08:04:37.296Z</time></trkpt><trkpt lat="40.93752" lon="14.57849"><ele>219.0</ele><time>2026-03-29T08:04:38.293Z</time></trkpt><trkpt lat="40.9375667" lon="14.57839"><ele>219.0</ele><time>2026-03-29T08:04:39.293Z</time></trkpt><trkpt lat="40.9376017" lon="14.5782883"><ele>219.0</ele><time>2026-03-29T08:04:40.293Z</time></trkpt><trkpt lat="40.9376383" lon="14.5781883"><ele>219.0</ele><time>2026-03-29T08:04:41.294Z</time></trkpt><trkpt lat="40.937665" lon="14.5780767"><ele>219.0</ele><time>2026-03-29T08:04:42.293Z</time></trkpt><trkpt lat="40.9377017" lon="14.5779733"><ele>215.6</ele><time>2026-03-29T08:04:43.296Z</time></trkpt><trkpt lat="40.9377333" lon="14.577885"><ele>212.2</ele><time>2026-03-29T08:04:44.293Z</time></trkpt><trkpt lat="40.9377583" lon="14.5777983"><ele>208.79999999999998</ele><time>2026-03-29T08:04:45.293Z</time></trkpt><trkpt lat="40.9377917" lon="14.5776433"><ele>205.39999999999998</ele><time>2026-03-29T08:04:47.294Z</time></trkpt><trkpt lat="40.9378317" lon="14.5775067"><ele>202.0</ele><time>2026-03-29T08:04:49.293Z</time></trkpt><trkpt lat="40.9378767" lon="14.5774283"><ele>202.0</ele><time>2026-03-29T08:04:51.293Z</time></trkpt><trkpt lat="40.9379633" lon="14.577465"><ele>202.0</ele><time>2026-03-29T08:04:53.297Z</time></trkpt><trkpt lat="40.938015" lon="14.5775717"><ele>202.0</ele><time>2026-03-29T08:04:55.294Z</time></trkpt><trkpt lat="40.9380483" lon="14.577735"><ele>202.0</ele><time>2026-03-29T08:04:57.294Z</time></trkpt><trkpt lat="40.9380633" lon="14.577835"><ele>202.0</ele><time>2026-03-29T08:04:58.294Z</time></trkpt><trkpt lat="40.9380733" lon="14.577955"><ele>201.99999999999997</ele><time>2026-03-29T08:04:59.294Z</time></trkpt><trkpt lat="40.9380917" lon="14.5780583"><ele>202.0</ele><time>2026-03-29T08:05:00.293Z</time></trkpt><trkpt lat="40.9381083" lon="14.5781683"><ele>202.0</ele><time>2026-03-29T08:05:01.293Z</time></trkpt><trkpt lat="40.9381283" lon="14.5782717"><ele>202.0</ele><time>2026-03-29T08:05:02.293Z</time></trkpt><trkpt lat="40.9381417" lon="14.5783733"><ele>201.99999999999997</ele><time>2026-03-29T08:05:03.293Z</time></trkpt><trkpt lat="40.938155" lon="14.5784667"><ele>202.0</ele><time>2026-03-29T08:05:04.293Z</time></trkpt><trkpt lat="40.93817" lon="14.578555"><ele>202.0</ele><time>2026-03-29T08:05:05.295Z</time></trkpt><trkpt lat="40.93822" lon="14.5786583"><ele>202.0</ele><time>2026-03-29T08:05:07.298Z</time></trkpt><trkpt lat="40.9382983" lon="14.5786517"><ele>202.0</ele><time>2026-03-29T08:05:10.294Z</time></trkpt><trkpt lat="40.9383317" lon="14.5784483"><ele>202.0</ele><time>2026-03-29T08:05:12.293Z</time></trkpt><trkpt lat="40.9383517" lon="14.5783283"><ele>202.0</ele><time>2026-03-29T08:05:13.294Z</time></trkpt><trkpt lat="40.9383683" lon="14.5782033"><ele>202.0</ele><time>2026-03-29T08:05:14.293Z</time></trkpt><trkpt lat="40.93838" lon="14.5780733"><ele>202.0</ele><time>2026-03-29T08:05:15.293Z</time></trkpt><trkpt lat="40.9383967" lon="14.5779583"><ele>202.0</ele><time>2026-03-29T08:05:16.294Z</time></trkpt><trkpt lat="40.93842" lon="14.5778317"><ele>202.0</ele><time>2026-03-29T08:05:17.293Z</time></trkpt><trkpt lat="40.93844" lon="14.5777117"><ele>202.0</ele><time>2026-03-29T08:05:18.293Z</time></trkpt><trkpt lat="40.9384633" lon="14.5775867"><ele>199.39999999999998</ele><time>2026-03-29T08:05:19.295Z</time></trkpt><trkpt lat="40.9384933" lon="14.5774517"><ele>196.79999999999998</ele><time>2026-03-29T08:05:20.293Z</time></trkpt><trkpt lat="40.9385167" lon="14.5773133"><ele>194.2</ele><time>2026-03-29T08:05:21.293Z</time></trkpt><trkpt lat="40.9385433" lon="14.5771733"><ele>191.6</ele><time>2026-03-29T08:05:22.293Z</time></trkpt><trkpt lat="40.9385617" lon="14.57703"><ele>189.0</ele><time>2026-03-29T08:05:23.293Z</time></trkpt><trkpt lat="40.9385883" lon="14.5768783"><ele>189.0</ele><time>2026-03-29T08:05:24.293Z</time></trkpt><trkpt lat="40.9386283" lon="14.5767283"><ele>189.0</ele><time>2026-03-29T08:05:25.293Z</time></trkpt><trkpt lat="40.9386817" lon="14.57658"><ele>189.0</ele><time>2026-03-29T08:05:26.293Z</time></trkpt><trkpt lat="40.9387417" lon="14.57644"><ele>189.0</ele><time>2026-03-29T08:05:27.293Z</time></trkpt><trkpt lat="40.9388017" lon="14.5763"><ele>188.75</ele><time>2026-03-29T08:05:28.293Z</time></trkpt><trkpt lat="40.93887" lon="14.57616"><ele>188.5</ele><time>2026-03-29T08:05:29.293Z</time></trkpt><trkpt lat="40.9389367" lon="14.5760217"><ele>188.25</ele><time>2026-03-29T08:05:30.293Z</time></trkpt><trkpt lat="40.9389967" lon="14.5758917"><ele>188.0</ele><time>2026-03-29T08:05:31.293Z</time></trkpt><trkpt lat="40.939055" lon="14.5757633"><ele>188.0</ele><time>2026-03-29T08:05:32.293Z</time></trkpt><trkpt lat="40.939115" lon="14.5756383"><ele>188.0</ele><time>2026-03-29T08:05:33.293Z</time></trkpt><trkpt lat="40.9391733" lon="14.575515"><ele>188.0</ele><time>2026-03-29T08:05:34.293Z</time></trkpt><trkpt lat="40.9392333" lon="14.5753883"><ele>188.0</ele><time>2026-03-29T08:05:35.293Z</time></trkpt><trkpt lat="40.9392933" lon="14.5752683"><ele>188.0</ele><time>2026-03-29T08:05:36.293Z</time></trkpt><trkpt lat="40.9393567" lon="14.57515"><ele>185.8</ele><time>2026-03-29T08:05:37.293Z</time></trkpt><trkpt lat="40.939415" lon="14.5750417"><ele>183.60000000000002</ele><time>2026-03-29T08:05:38.293Z</time></trkpt><trkpt lat="40.9394733" lon="14.5749417"><ele>181.39999999999998</ele><time>2026-03-29T08:05:39.294Z</time></trkpt><trkpt lat="40.93953" lon="14.5748467"><ele>179.2</ele><time>2026-03-29T08:05:40.293Z</time></trkpt><trkpt lat="40.9395917" lon="14.574745"><ele>177.0</ele><time>2026-03-29T08:05:41.294Z</time></trkpt><trkpt lat="40.939655" lon="14.574655"><ele>177.0</ele><time>2026-03-29T08:05:42.293Z</time></trkpt><trkpt lat="40.9397183" lon="14.5745617"><ele>177.0</ele><time>2026-03-29T08:05:43.294Z</time></trkpt><trkpt lat="40.9397833" lon="14.5744683"><ele>177.0</ele><time>2026-03-29T08:05:44.293Z</time></trkpt><trkpt lat="40.939845" lon="14.5743617"><ele>177.0</ele><time>2026-03-29T08:05:45.293Z</time></trkpt><trkpt lat="40.939905" lon="14.5742517"><ele>177.0</ele><time>2026-03-29T08:05:46.294Z</time></trkpt><trkpt lat="40.9399683" lon="14.5741417"><ele>177.39999999999998</ele><time>2026-03-29T08:05:47.293Z</time></trkpt><trkpt lat="40.9400267" lon="14.5740317"><ele>177.79999999999998</ele><time>2026-03-29T08:05:48.293Z</time></trkpt><trkpt lat="40.9400867" lon="14.5739133"><ele>178.2</ele><time>2026-03-29T08:05:49.293Z</time></trkpt><trkpt lat="40.9401467" lon="14.573795"><ele>178.6</ele><time>2026-03-29T08:05:50.293Z</time></trkpt><trkpt lat="40.9402067" lon="14.573675"><ele>179.0</ele><time>2026-03-29T08:05:51.294Z</time></trkpt><trkpt lat="40.9402667" lon="14.5735517"><ele>177.0</ele><time>2026-03-29T08:05:52.293Z</time></trkpt><trkpt lat="40.9403333" lon="14.5734217"><ele>175.0</ele><time>2026-03-29T08:05:53.293Z</time></trkpt><trkpt lat="40.9404017" lon="14.5732917"><ele>173.0</ele><time>2026-03-29T08:05:54.293Z</time></trkpt><trkpt lat="40.940475" lon="14.573165"><ele>171.0</ele><time>2026-03-29T08:05:55.294Z</time></trkpt><trkpt lat="40.940545" lon="14.57304"><ele>171.0</ele><time>2026-03-29T08:05:56.293Z</time></trkpt><trkpt lat="40.9406133" lon="14.5729233"><ele>171.0</ele><time>2026-03-29T08:05:57.293Z</time></trkpt><trkpt lat="40.9406783" lon="14.572825"><ele>171.0</ele><time>2026-03-29T08:05:58.293Z</time></trkpt><trkpt lat="40.940735" lon="14.5727317"><ele>171.0</ele><time>2026-03-29T08:05:59.293Z</time></trkpt><trkpt lat="40.9407833" lon="14.5726517"><ele>171.0</ele><time>2026-03-29T08:06:00.293Z</time></trkpt><trkpt lat="40.940825" lon="14.57258"><ele>171.0</ele><time>2026-03-29T08:06:01.293Z</time></trkpt><trkpt lat="40.9408983" lon="14.572485"><ele>168.28571428571428</ele><time>2026-03-29T08:06:03.293Z</time></trkpt><trkpt lat="40.9409617" lon="14.5724983"><ele>165.57142857142856</ele><time>2026-03-29T08:06:05.293Z</time></trkpt><trkpt lat="40.9409667" lon="14.5726117"><ele>162.85714285714283</ele><time>2026-03-29T08:06:07.293Z</time></trkpt><trkpt lat="40.94095" lon="14.5726983"><ele>160.14285714285714</ele><time>2026-03-29T08:06:08.293Z</time></trkpt><trkpt lat="40.9409367" lon="14.5727817"><ele>157.42857142857144</ele><time>2026-03-29T08:06:09.293Z</time></trkpt><trkpt lat="40.9409283" lon="14.5728683"><ele>154.7142857142857</ele><time>2026-03-29T08:06:10.295Z</time></trkpt><trkpt lat="40.9409183" lon="14.57296"><ele>152.0</ele><time>2026-03-29T08:06:11.293Z</time></trkpt><trkpt lat="40.940905" lon="14.5730583"><ele>152.0</ele><time>2026-03-29T08:06:12.293Z</time></trkpt><trkpt lat="40.94089" lon="14.57316"><ele>152.0</ele><time>2026-03-29T08:06:13.293Z</time></trkpt><trkpt lat="40.9408767" lon="14.57327"><ele>152.0</ele><time>2026-03-29T08:06:14.294Z</time></trkpt><trkpt lat="40.94087" lon="14.5733733"><ele>152.0</ele><time>2026-03-29T08:06:15.293Z</time></trkpt><trkpt lat="40.9408667" lon="14.57348"><ele>152.0</ele><time>2026-03-29T08:06:16.293Z</time></trkpt><trkpt lat="40.9408667" lon="14.5735867"><ele>152.0</ele><time>2026-03-29T08:06:17.293Z</time></trkpt><trkpt lat="40.94087" lon="14.573695"><ele>152.5</ele><time>2026-03-29T08:06:18.293Z</time></trkpt><trkpt lat="40.94087" lon="14.5738067"><ele>153.0</ele><time>2026-03-29T08:06:19.293Z</time></trkpt><trkpt lat="40.9408733" lon="14.5739217"><ele>153.5</ele><time>2026-03-29T08:06:20.293Z</time></trkpt><trkpt lat="40.94088" lon="14.5740367"><ele>154.0</ele><time>2026-03-29T08:06:21.293Z</time></trkpt><trkpt lat="40.940885" lon="14.5741483"><ele>154.5</ele><time>2026-03-29T08:06:22.293Z</time></trkpt><trkpt lat="40.9408983" lon="14.5742667"><ele>155.0</ele><time>2026-03-29T08:06:23.293Z</time></trkpt><trkpt lat="40.9409067" lon="14.5743883"><ele>155.0</ele><time>2026-03-29T08:06:24.293Z</time></trkpt><trkpt lat="40.9409133" lon="14.5745083"><ele>155.0</ele><time>2026-03-29T08:06:25.294Z</time></trkpt><trkpt lat="40.9409233" lon="14.5746333"><ele>155.0</ele><time>2026-03-29T08:06:26.294Z</time></trkpt><trkpt lat="40.9409333" lon="14.5747533"><ele>155.0</ele><time>2026-03-29T08:06:27.293Z</time></trkpt><trkpt lat="40.9409433" lon="14.5748833"><ele>155.0</ele><time>2026-03-29T08:06:28.293Z</time></trkpt><trkpt lat="40.9409533" lon="14.575005"><ele>155.0</ele><time>2026-03-29T08:06:29.293Z</time></trkpt><trkpt lat="40.940965" lon="14.5751267"><ele>155.0</ele><time>2026-03-29T08:06:30.293Z</time></trkpt><trkpt lat="40.9409717" lon="14.5752533"><ele>155.0</ele><time>2026-03-29T08:06:31.296Z</time></trkpt><trkpt lat="40.9409833" lon="14.5753833"><ele>155.0</ele><time>2026-03-29T08:06:32.293Z</time></trkpt><trkpt lat="40.940995" lon="14.5755183"><ele>155.0</ele><time>2026-03-29T08:06:33.293Z</time></trkpt><trkpt lat="40.9410067" lon="14.575655"><ele>154.8</ele><time>2026-03-29T08:06:34.293Z</time></trkpt><trkpt lat="40.94102" lon="14.5757917"><ele>154.6</ele><time>2026-03-29T08:06:35.293Z</time></trkpt><trkpt lat="40.9410317" lon="14.5759217"><ele>154.4</ele><time>2026-03-29T08:06:36.293Z</time></trkpt><trkpt lat="40.9410467" lon="14.57605"><ele>154.2</ele><time>2026-03-29T08:06:37.294Z</time></trkpt><trkpt lat="40.9410683" lon="14.5761783"><ele>154.0</ele><time>2026-03-29T08:06:38.293Z</time></trkpt><trkpt lat="40.9411017" lon="14.5763"><ele>153.8</ele><time>2026-03-29T08:06:39.293Z</time></trkpt><trkpt lat="40.9411467" lon="14.57642"><ele>153.60000000000002</ele><time>2026-03-29T08:06:40.293Z</time></trkpt><trkpt lat="40.9411967" lon="14.5765367"><ele>153.4</ele><time>2026-03-29T08:06:41.293Z</time></trkpt><trkpt lat="40.9412483" lon="14.576655"><ele>153.20000000000002</ele><time>2026-03-29T08:06:42.293Z</time></trkpt><trkpt lat="40.9413" lon="14.576775"><ele>153.0</ele><time>2026-03-29T08:06:43.293Z</time></trkpt><trkpt lat="40.9413533" lon="14.5768933"><ele>153.0</ele><time>2026-03-29T08:06:44.293Z</time></trkpt><trkpt lat="40.9414067" lon="14.577015"><ele>153.0</ele><time>2026-03-29T08:06:45.293Z</time></trkpt><trkpt lat="40.9414617" lon="14.5771317"><ele>153.0</ele><time>2026-03-29T08:06:46.293Z</time></trkpt><trkpt lat="40.94152" lon="14.57724"><ele>153.0</ele><time>2026-03-29T08:06:47.294Z</time></trkpt><trkpt lat="40.941575" lon="14.5773383"><ele>153.0</ele><time>2026-03-29T08:06:48.294Z</time></trkpt><trkpt lat="40.94163" lon="14.577425"><ele>152.83333333333334</ele><time>2026-03-29T08:06:49.293Z</time></trkpt><trkpt lat="40.9417" lon="14.577485"><ele>152.66666666666666</ele><time>2026-03-29T08:06:50.293Z</time></trkpt><trkpt lat="40.9417783" lon="14.5775283"><ele>152.5</ele><time>2026-03-29T08:06:51.293Z</time></trkpt><trkpt lat="40.9418633" lon="14.5775317"><ele>152.33333333333331</ele><time>2026-03-29T08:06:52.293Z</time></trkpt><trkpt lat="40.9419517" lon="14.5775017"><ele>152.16666666666666</ele><time>2026-03-29T08:06:53.293Z</time></trkpt><trkpt lat="40.9420433" lon="14.5774617"><ele>152.0</ele><time>2026-03-29T08:06:54.294Z</time></trkpt><trkpt lat="40.9421417" lon="14.5774017"><ele>151.2</ele><time>2026-03-29T08:06:55.293Z</time></trkpt><trkpt lat="40.9422383" lon="14.57735"><ele>150.39999999999998</ele><time>2026-03-29T08:06:56.294Z</time></trkpt><trkpt lat="40.9423317" lon="14.5772933"><ele>149.60000000000002</ele><time>2026-03-29T08:06:57.293Z</time></trkpt><trkpt lat="40.9424267" lon="14.5772283"><ele>148.8</ele><time>2026-03-29T08:06:58.293Z</time></trkpt><trkpt lat="40.9425233" lon="14.577155"><ele>148.0</ele><time>2026-03-29T08:06:59.294Z</time></trkpt><trkpt lat="40.9426133" lon="14.5770683"><ele>145.75</ele><time>2026-03-29T08:07:00.293Z</time></trkpt><trkpt lat="40.9427017" lon="14.576975"><ele>143.5</ele><time>2026-03-29T08:07:01.293Z</time></trkpt><trkpt lat="40.94279" lon="14.5768867"><ele>141.25</ele><time>2026-03-29T08:07:02.293Z</time></trkpt><trkpt lat="40.9428833" lon="14.5767933"><ele>139.0</ele><time>2026-03-29T08:07:03.293Z</time></trkpt><trkpt lat="40.942975" lon="14.5766967"><ele>139.0</ele><time>2026-03-29T08:07:04.293Z</time></trkpt><trkpt lat="40.943065" lon="14.5765967"><ele>139.0</ele><time>2026-03-29T08:07:05.294Z</time></trkpt><trkpt lat="40.94315" lon="14.57649"><ele>139.0</ele><time>2026-03-29T08:07:06.293Z</time></trkpt><trkpt lat="40.943225" lon="14.5763733"><ele>139.0</ele><time>2026-03-29T08:07:07.293Z</time></trkpt><trkpt lat="40.9432883" lon="14.5762433"><ele>139.0</ele><time>2026-03-29T08:07:08.294Z</time></trkpt><trkpt lat="40.9433417" lon="14.5761067"><ele>139.0</ele><time>2026-03-29T08:07:09.293Z</time></trkpt><trkpt lat="40.943385" lon="14.5759667"><ele>139.0</ele><time>2026-03-29T08:07:10.293Z</time></trkpt><trkpt lat="40.9434117" lon="14.575825"><ele>139.0</ele><time>2026-03-29T08:07:11.294Z</time></trkpt><trkpt lat="40.9434317" lon="14.5756817"><ele>138.4</ele><time>2026-03-29T08:07:12.293Z</time></trkpt><trkpt lat="40.9434467" lon="14.5755367"><ele>137.8</ele><time>2026-03-29T08:07:13.293Z</time></trkpt><trkpt lat="40.943455" lon="14.57539"><ele>137.2</ele><time>2026-03-29T08:07:14.293Z</time></trkpt><trkpt lat="40.9434667" lon="14.5752483"><ele>136.6</ele><time>2026-03-29T08:07:15.295Z</time></trkpt><trkpt lat="40.943485" lon="14.57511"><ele>136.0</ele><time>2026-03-29T08:07:16.293Z</time></trkpt><trkpt lat="40.943505" lon="14.5749733"><ele>135.6</ele><time>2026-03-29T08:07:17.293Z</time></trkpt><trkpt lat="40.9435233" lon="14.5748383"><ele>135.2</ele><time>2026-03-29T08:07:18.293Z</time></trkpt><trkpt lat="40.9435467" lon="14.5747033"><ele>134.8</ele><time>2026-03-29T08:07:19.293Z</time></trkpt><trkpt lat="40.9435783" lon="14.57457"><ele>134.4</ele><time>2026-03-29T08:07:20.293Z</time></trkpt><trkpt lat="40.943625" lon="14.57444"><ele>134.0</ele><time>2026-03-29T08:07:21.294Z</time></trkpt><trkpt lat="40.9436767" lon="14.5743167"><ele>134.0</ele><time>2026-03-29T08:07:22.293Z</time></trkpt><trkpt lat="40.9437417" lon="14.57421"><ele>134.0</ele><time>2026-03-29T08:07:23.293Z</time></trkpt><trkpt lat="40.9438167" lon="14.5741167"><ele>134.0</ele><time>2026-03-29T08:07:24.293Z</time></trkpt><trkpt lat="40.943905" lon="14.574035"><ele>134.0</ele><time>2026-03-29T08:07:25.294Z</time></trkpt><trkpt lat="40.9439933" lon="14.5739617"><ele>134.0</ele><time>2026-03-29T08:07:26.293Z</time></trkpt><trkpt lat="40.9440833" lon="14.5739067"><ele>134.0</ele><time>2026-03-29T08:07:27.293Z</time></trkpt><trkpt lat="40.9441633" lon="14.5738617"><ele>134.0</ele><time>2026-03-29T08:07:28.293Z</time></trkpt><trkpt lat="40.94424" lon="14.5738367"><ele>134.0</ele><time>2026-03-29T08:07:29.293Z</time></trkpt><trkpt lat="40.9443117" lon="14.573825"><ele>134.0</ele><time>2026-03-29T08:07:30.293Z</time></trkpt><trkpt lat="40.94438" lon="14.573845"><ele>134.0</ele><time>2026-03-29T08:07:31.293Z</time></trkpt><trkpt lat="40.9444433" lon="14.5739"><ele>134.0</ele><time>2026-03-29T08:07:32.293Z</time></trkpt><trkpt lat="40.94449" lon="14.5739667"><ele>133.0</ele><time>2026-03-29T08:07:33.293Z</time></trkpt><trkpt lat="40.9445717" lon="14.5740533"><ele>132.0</ele><time>2026-03-29T08:07:35.293Z</time></trkpt><trkpt lat="40.9445967" lon="14.5741517"><ele>131.0</ele><time>2026-03-29T08:11:25.295Z</time></trkpt><trkpt lat="40.944665" lon="14.5741633"><ele>130.0</ele><time>2026-03-29T08:11:38.299Z</time></trkpt><trkpt lat="40.944735" lon="14.574025"><ele>129.0</ele><time>2026-03-29T08:14:55.295Z</time></trkpt><trkpt lat="40.9447967" lon="14.573965"><ele>129.0</ele><time>2026-03-29T08:14:58.296Z</time></trkpt><trkpt lat="40.9448467" lon="14.5738967"><ele>129.0</ele><time>2026-03-29T08:15:00.296Z</time></trkpt><trkpt lat="40.9448767" lon="14.5737983"><ele>129.0</ele><time>2026-03-29T08:15:02.295Z</time></trkpt><trkpt lat="40.9448583" lon="14.5736867"><ele>129.0</ele><time>2026-03-29T08:15:04.296Z</time></trkpt><trkpt lat="40.944825" lon="14.5735717"><ele>129.0</ele><time>2026-03-29T08:15:06.296Z</time></trkpt><trkpt lat="40.944795" lon="14.5734483"><ele>129.0</ele><time>2026-03-29T08:15:08.296Z</time></trkpt><trkpt lat="40.9447733" lon="14.5733317"><ele>129.0</ele><time>2026-03-29T08:15:10.297Z</time></trkpt><trkpt lat="40.944765" lon="14.57323"><ele>129.0</ele><time>2026-03-29T08:15:12.296Z</time></trkpt><trkpt lat="40.94478" lon="14.57313"><ele>129.0</ele><time>2026-03-29T08:15:14.296Z</time></trkpt><trkpt lat="40.94481" lon="14.5730233"><ele>129.0</ele><time>2026-03-29T08:15:16.295Z</time></trkpt><trkpt lat="40.9448283" lon="14.57291"><ele>129.0</ele><time>2026-03-29T08:15:18.295Z</time></trkpt><trkpt lat="40.9448583" lon="14.5728"><ele>129.0</ele><time>2026-03-29T08:15:20.295Z</time></trkpt><trkpt lat="40.9448967" lon="14.5726683"><ele>129.0</ele><time>2026-03-29T08:15:22.296Z</time></trkpt><trkpt lat="40.944955" lon="14.5725367"><ele>129.0</ele><time>2026-03-29T08:15:24.297Z</time></trkpt><trkpt lat="40.945015" lon="14.572395"><ele>129.0</ele><time>2026-03-29T08:15:26.297Z</time></trkpt><trkpt lat="40.9450883" lon="14.5722617"><ele>129.0</ele><time>2026-03-29T08:15:28.297Z</time></trkpt><trkpt lat="40.9451417" lon="14.5721983"><ele>129.0</ele><time>2026-03-29T08:15:29.297Z</time></trkpt><trkpt lat="40.9451933" lon="14.57214"><ele>128.16666666666666</ele><time>2026-03-29T08:15:30.297Z</time></trkpt><trkpt lat="40.9452533" lon="14.5720833"><ele>127.33333333333334</ele><time>2026-03-29T08:15:31.297Z</time></trkpt><trkpt lat="40.945315" lon="14.5720233"><ele>126.5</ele><time>2026-03-29T08:15:32.297Z</time></trkpt><trkpt lat="40.9453783" lon="14.57197"><ele>125.66666666666667</ele><time>2026-03-29T08:15:33.295Z</time></trkpt><trkpt lat="40.9454433" lon="14.571915"><ele>124.83333333333334</ele><time>2026-03-29T08:15:34.297Z</time></trkpt><trkpt lat="40.9455083" lon="14.5718583"><ele>124.0</ele><time>2026-03-29T08:15:35.296Z</time></trkpt><trkpt lat="40.9455767" lon="14.5718067"><ele>123.66666666666667</ele><time>2026-03-29T08:15:36.296Z</time></trkpt><trkpt lat="40.9456433" lon="14.5717467"><ele>123.33333333333334</ele><time>2026-03-29T08:15:37.295Z</time></trkpt><trkpt lat="40.9457083" lon="14.5716883"><ele>123.0</ele><time>2026-03-29T08:15:38.295Z</time></trkpt><trkpt lat="40.94577" lon="14.5716283"><ele>122.66666666666666</ele><time>2026-03-29T08:15:39.295Z</time></trkpt><trkpt lat="40.945825" lon="14.5715667"><ele>122.33333333333333</ele><time>2026-03-29T08:15:40.297Z</time></trkpt><trkpt lat="40.94588" lon="14.571495"><ele>122.0</ele><time>2026-03-29T08:15:41.297Z</time></trkpt><trkpt lat="40.945935" lon="14.5714183"><ele>121.49999999999999</ele><time>2026-03-29T08:15:42.295Z</time></trkpt><trkpt lat="40.9459883" lon="14.571345"><ele>121.0</ele><time>2026-03-29T08:15:43.296Z</time></trkpt><trkpt lat="40.9460483" lon="14.57127"><ele>120.5</ele><time>2026-03-29T08:15:44.297Z</time></trkpt><trkpt lat="40.9461" lon="14.5711967"><ele>120.0</ele><time>2026-03-29T08:15:45.299Z</time></trkpt><trkpt lat="40.9461617" lon="14.5711117"><ele>119.49999999999999</ele><time>2026-03-29T08:15:46.295Z</time></trkpt><trkpt lat="40.9462183" lon="14.5710317"><ele>119.0</ele><time>2026-03-29T08:15:47.296Z</time></trkpt><trkpt lat="40.9462783" lon="14.5709483"><ele>118.6</ele><time>2026-03-29T08:15:48.297Z</time></trkpt><trkpt lat="40.946335" lon="14.5708683"><ele>118.2</ele><time>2026-03-29T08:15:49.296Z</time></trkpt><trkpt lat="40.946395" lon="14.5707783"><ele>117.79999999999998</ele><time>2026-03-29T08:15:50.295Z</time></trkpt><trkpt lat="40.94646" lon="14.5706767"><ele>117.39999999999999</ele><time>2026-03-29T08:15:51.296Z</time></trkpt><trkpt lat="40.94652" lon="14.5705733"><ele>117.0</ele><time>2026-03-29T08:15:52.297Z</time></trkpt><trkpt lat="40.9465783" lon="14.5704733"><ele>117.0</ele><time>2026-03-29T08:15:53.296Z</time></trkpt><trkpt lat="40.9466333" lon="14.5703733"><ele>116.99999999999999</ele><time>2026-03-29T08:15:54.297Z</time></trkpt><trkpt lat="40.9466867" lon="14.5702683"><ele>116.99999999999999</ele><time>2026-03-29T08:15:55.296Z</time></trkpt><trkpt lat="40.9467433" lon="14.57016"><ele>117.0</ele><time>2026-03-29T08:15:56.296Z</time></trkpt><trkpt lat="40.9467967" lon="14.5700517"><ele>117.0</ele><time>2026-03-29T08:15:57.298Z</time></trkpt><trkpt lat="40.9468483" lon="14.569945"><ele>116.5</ele><time>2026-03-29T08:15:58.297Z</time></trkpt><trkpt lat="40.9469017" lon="14.56984"><ele>116.0</ele><time>2026-03-29T08:15:59.297Z</time></trkpt><trkpt lat="40.9469517" lon="14.56974"><ele>115.5</ele><time>2026-03-29T08:16:00.297Z</time></trkpt><trkpt lat="40.9470017" lon="14.5696533"><ele>115.0</ele><time>2026-03-29T08:16:01.297Z</time></trkpt><trkpt lat="40.9470583" lon="14.5695833"><ele>114.5</ele><time>2026-03-29T08:16:02.297Z</time></trkpt><trkpt lat="40.9471167" lon="14.5695383"><ele>114.0</ele><time>2026-03-29T08:16:03.296Z</time></trkpt><trkpt lat="40.9472017" lon="14.569485"><ele>113.6</ele><time>2026-03-29T08:16:05.295Z</time></trkpt><trkpt lat="40.9472567" lon="14.5694183"><ele>113.2</ele><time>2026-03-29T08:16:08.295Z</time></trkpt><trkpt lat="40.947265" lon="14.56933"><ele>112.79999999999998</ele><time>2026-03-29T08:16:10.297Z</time></trkpt><trkpt lat="40.947265" lon="14.56921"><ele>112.39999999999999</ele><time>2026-03-29T08:16:12.296Z</time></trkpt><trkpt lat="40.94724" lon="14.5690733"><ele>112.0</ele><time>2026-03-29T08:16:14.295Z</time></trkpt><trkpt lat="40.9472" lon="14.5689267"><ele>112.0</ele><time>2026-03-29T08:16:16.295Z</time></trkpt><trkpt lat="40.9471767" lon="14.5688433"><ele>112.0</ele><time>2026-03-29T08:16:17.297Z</time></trkpt><trkpt lat="40.9471567" lon="14.5687567"><ele>112.0</ele><time>2026-03-29T08:16:18.296Z</time></trkpt><trkpt lat="40.9471333" lon="14.5686683"><ele>112.0</ele><time>2026-03-29T08:16:19.297Z</time></trkpt><trkpt lat="40.94711" lon="14.5685767"><ele>112.0</ele><time>2026-03-29T08:16:20.295Z</time></trkpt><trkpt lat="40.9470883" lon="14.568485"><ele>112.0</ele><time>2026-03-29T08:16:21.296Z</time></trkpt><trkpt lat="40.9470667" lon="14.568395"><ele>112.0</ele><time>2026-03-29T08:16:22.295Z</time></trkpt><trkpt lat="40.9470417" lon="14.568305"><ele>111.66666666666667</ele><time>2026-03-29T08:16:23.295Z</time></trkpt><trkpt lat="40.94701" lon="14.5682167"><ele>111.33333333333334</ele><time>2026-03-29T08:16:24.297Z</time></trkpt><trkpt lat="40.9469883" lon="14.5681133"><ele>111.0</ele><time>2026-03-29T08:16:25.297Z</time></trkpt><trkpt lat="40.94696" lon="14.5680117"><ele>110.66666666666666</ele><time>2026-03-29T08:16:26.297Z</time></trkpt><trkpt lat="40.9469333" lon="14.5679083"><ele>110.33333333333333</ele><time>2026-03-29T08:16:27.295Z</time></trkpt><trkpt lat="40.946905" lon="14.5678083"><ele>110.0</ele><time>2026-03-29T08:16:28.296Z</time></trkpt><trkpt lat="40.9468767" lon="14.5677067"><ele>109.4</ele><time>2026-03-29T08:16:29.295Z</time></trkpt><trkpt lat="40.9468483" lon="14.5676"><ele>108.8</ele><time>2026-03-29T08:16:30.297Z</time></trkpt><trkpt lat="40.946815" lon="14.56749"><ele>108.19999999999999</ele><time>2026-03-29T08:16:31.296Z</time></trkpt><trkpt lat="40.946785" lon="14.567375"><ele>107.6</ele><time>2026-03-29T08:16:32.296Z</time></trkpt><trkpt lat="40.94676" lon="14.5672567"><ele>107.0</ele><time>2026-03-29T08:16:33.295Z</time></trkpt><trkpt lat="40.94673" lon="14.5671367"><ele>107.19999999999999</ele><time>2026-03-29T08:16:34.297Z</time></trkpt><trkpt lat="40.946705" lon="14.5670167"><ele>107.39999999999999</ele><time>2026-03-29T08:16:35.297Z</time></trkpt><trkpt lat="40.9466733" lon="14.5668983"><ele>107.60000000000001</ele><time>2026-03-29T08:16:36.297Z</time></trkpt><trkpt lat="40.9466417" lon="14.5667767"><ele>107.80000000000001</ele><time>2026-03-29T08:16:37.297Z</time></trkpt><trkpt lat="40.9466067" lon="14.566655"><ele>108.0</ele><time>2026-03-29T08:16:38.297Z</time></trkpt><trkpt lat="40.94657" lon="14.56653"><ele>108.0</ele><time>2026-03-29T08:16:39.296Z</time></trkpt><trkpt lat="40.9465417" lon="14.5663983"><ele>108.00000000000001</ele><time>2026-03-29T08:16:40.295Z</time></trkpt><trkpt lat="40.94651" lon="14.5662617"><ele>108.00000000000001</ele><time>2026-03-29T08:16:41.295Z</time></trkpt><trkpt lat="40.9464783" lon="14.5661267"><ele>108.0</ele><time>2026-03-29T08:16:42.295Z</time></trkpt><trkpt lat="40.9464433" lon="14.565995"><ele>108.0</ele><time>2026-03-29T08:16:43.297Z</time></trkpt><trkpt lat="40.9464183" lon="14.5658567"><ele>107.25</ele><time>2026-03-29T08:16:44.295Z</time></trkpt><trkpt lat="40.946395" lon="14.5657133"><ele>106.5</ele><time>2026-03-29T08:16:45.295Z</time></trkpt><trkpt lat="40.946365" lon="14.565565"><ele>105.75</ele><time>2026-03-29T08:16:46.296Z</time></trkpt><trkpt lat="40.94633" lon="14.5654067"><ele>105.0</ele><time>2026-03-29T08:16:47.296Z</time></trkpt><trkpt lat="40.946295" lon="14.5652417"><ele>103.25</ele><time>2026-03-29T08:16:48.298Z</time></trkpt><trkpt lat="40.9462567" lon="14.5650717"><ele>101.5</ele><time>2026-03-29T08:16:49.297Z</time></trkpt><trkpt lat="40.9462167" lon="14.5649017"><ele>99.75</ele><time>2026-03-29T08:16:50.296Z</time></trkpt><trkpt lat="40.946175" lon="14.5647217"><ele>98.0</ele><time>2026-03-29T08:16:51.295Z</time></trkpt><trkpt lat="40.94613" lon="14.56454"><ele>97.5</ele><time>2026-03-29T08:16:52.296Z</time></trkpt><trkpt lat="40.9460883" lon="14.56435"><ele>97.0</ele><time>2026-03-29T08:16:53.296Z</time></trkpt><trkpt lat="40.946055" lon="14.5641583"><ele>96.5</ele><time>2026-03-29T08:16:54.297Z</time></trkpt><trkpt lat="40.946025" lon="14.5639683"><ele>96.0</ele><time>2026-03-29T08:16:55.295Z</time></trkpt><trkpt lat="40.94599" lon="14.56377"><ele>95.75</ele><time>2026-03-29T08:16:56.297Z</time></trkpt><trkpt lat="40.94595" lon="14.5635817"><ele>95.5</ele><time>2026-03-29T08:16:57.295Z</time></trkpt><trkpt lat="40.9459133" lon="14.563395"><ele>95.25</ele><time>2026-03-29T08:16:58.297Z</time></trkpt><trkpt lat="40.9458767" lon="14.5632017"><ele>95.0</ele><time>2026-03-29T08:16:59.295Z</time></trkpt><trkpt lat="40.94584" lon="14.5630067"><ele>95.5</ele><time>2026-03-29T08:17:00.295Z</time></trkpt><trkpt lat="40.9458033" lon="14.5628133"><ele>96.0</ele><time>2026-03-29T08:17:01.296Z</time></trkpt><trkpt lat="40.9457633" lon="14.5626233"><ele>96.5</ele><time>2026-03-29T08:17:02.295Z</time></trkpt><trkpt lat="40.9457233" lon="14.5624333"><ele>97.0</ele><time>2026-03-29T08:17:03.296Z</time></trkpt><trkpt lat="40.9456867" lon="14.562245"><ele>97.0</ele><time>2026-03-29T08:17:04.295Z</time></trkpt><trkpt lat="40.9456517" lon="14.5620567"><ele>97.0</ele><time>2026-03-29T08:17:05.296Z</time></trkpt><trkpt lat="40.9456133" lon="14.5618683"><ele>97.0</ele><time>2026-03-29T08:17:06.296Z</time></trkpt><trkpt lat="40.945575" lon="14.5616833"><ele>97.0</ele><time>2026-03-29T08:17:07.299Z</time></trkpt><trkpt lat="40.9455378" lon="14.561497"><ele>96.75</ele><time>2026-03-29T08:17:08.296Z</time></trkpt><trkpt lat="40.9454981" lon="14.5613127"><ele>96.5</ele><time>2026-03-29T08:17:09.298Z</time></trkpt><trkpt lat="40.9454611" lon="14.5611288"><ele>96.25</ele><time>2026-03-29T08:17:10.296Z</time></trkpt><trkpt lat="40.945426" lon="14.5609464"><ele>96.0</ele><time>2026-03-29T08:17:11.298Z</time></trkpt><trkpt lat="40.9453906" lon="14.5607645"><ele>95.25</ele><time>2026-03-29T08:17:12.299Z</time></trkpt><trkpt lat="40.9453533" lon="14.5605857"><ele>94.5</ele><time>2026-03-29T08:17:13.299Z</time></trkpt><trkpt lat="40.9453143" lon="14.5604081"><ele>93.75</ele><time>2026-03-29T08:17:14.297Z</time></trkpt><trkpt lat="40.9452763" lon="14.5602311"><ele>93.0</ele><time>2026-03-29T08:17:15.296Z</time></trkpt><trkpt lat="40.9452393" lon="14.5600532"><ele>92.5</ele><time>2026-03-29T08:17:16.297Z</time></trkpt><trkpt lat="40.9452003" lon="14.5598776"><ele>92.0</ele><time>2026-03-29T08:17:17.297Z</time></trkpt><trkpt lat="40.9451608" lon="14.5597038"><ele>91.5</ele><time>2026-03-29T08:17:18.296Z</time></trkpt><trkpt lat="40.945125" lon="14.5595318"><ele>91.0</ele><time>2026-03-29T08:17:19.296Z</time></trkpt><trkpt lat="40.9450886" lon="14.5593594"><ele>90.25</ele><time>2026-03-29T08:17:20.295Z</time></trkpt><trkpt lat="40.9450501" lon="14.5591866"><ele>89.5</ele><time>2026-03-29T08:17:21.296Z</time></trkpt><trkpt lat="40.9450171" lon="14.5590112"><ele>88.75</ele><time>2026-03-29T08:17:22.297Z</time></trkpt><trkpt lat="40.9449818" lon="14.5588384"><ele>88.0</ele><time>2026-03-29T08:17:23.296Z</time></trkpt><trkpt lat="40.9449462" lon="14.5586705"><ele>87.75</ele><time>2026-03-29T08:17:24.296Z</time></trkpt><trkpt lat="40.9449112" lon="14.5585045"><ele>87.5</ele><time>2026-03-29T08:17:25.298Z</time></trkpt><trkpt lat="40.9448762" lon="14.5583398"><ele>87.25</ele><time>2026-03-29T08:17:26.297Z</time></trkpt><trkpt lat="40.9448396" lon="14.5581765"><ele>87.0</ele><time>2026-03-29T08:17:27.296Z</time></trkpt><trkpt lat="40.944803" lon="14.5580144"><ele>86.5</ele><time>2026-03-29T08:17:28.297Z</time></trkpt><trkpt lat="40.9447679" lon="14.5578502"><ele>86.0</ele><time>2026-03-29T08:17:29.297Z</time></trkpt><trkpt lat="40.9447353" lon="14.5576872"><ele>85.5</ele><time>2026-03-29T08:17:30.295Z</time></trkpt><trkpt lat="40.9447028" lon="14.5575248"><ele>85.0</ele><time>2026-03-29T08:17:31.295Z</time></trkpt><trkpt lat="40.9446734" lon="14.5573619"><ele>85.0</ele><time>2026-03-29T08:17:32.296Z</time></trkpt><trkpt lat="40.9446424" lon="14.5572001"><ele>85.0</ele><time>2026-03-29T08:17:33.297Z</time></trkpt><trkpt lat="40.9446106" lon="14.5570388"><ele>85.0</ele><time>2026-03-29T08:17:34.297Z</time></trkpt><trkpt lat="40.9445775" lon="14.5568798"><ele>85.0</ele><time>2026-03-29T08:17:35.297Z</time></trkpt><trkpt lat="40.9445416" lon="14.556723"><ele>84.5</ele><time>2026-03-29T08:17:36.296Z</time></trkpt><trkpt lat="40.9445076" lon="14.5565691"><ele>84.0</ele><time>2026-03-29T08:17:37.297Z</time></trkpt><trkpt lat="40.9444759" lon="14.556416"><ele>83.5</ele><time>2026-03-29T08:17:38.297Z</time></trkpt><trkpt lat="40.9444483" lon="14.5562643"><ele>83.0</ele><time>2026-03-29T08:17:39.295Z</time></trkpt><trkpt lat="40.9444191" lon="14.5561115"><ele>83.0</ele><time>2026-03-29T08:17:40.295Z</time></trkpt><trkpt lat="40.9443894" lon="14.5559609"><ele>83.0</ele><time>2026-03-29T08:17:41.297Z</time></trkpt><trkpt lat="40.9443593" lon="14.5558099"><ele>83.0</ele><time>2026-03-29T08:17:42.297Z</time></trkpt><trkpt lat="40.9443294" lon="14.5556584"><ele>83.0</ele><time>2026-03-29T08:17:43.297Z</time></trkpt><trkpt lat="40.9442981" lon="14.5555081"><ele>82.5</ele><time>2026-03-29T08:17:44.296Z</time></trkpt><trkpt lat="40.9442655" lon="14.5553581"><ele>82.0</ele><time>2026-03-29T08:17:45.296Z</time></trkpt><trkpt lat="40.9442334" lon="14.5552083"><ele>81.5</ele><time>2026-03-29T08:17:46.296Z</time></trkpt><trkpt lat="40.9442016" lon="14.5550596"><ele>81.0</ele><time>2026-03-29T08:17:47.296Z</time></trkpt><trkpt lat="40.9441714" lon="14.5549114"><ele>80.75</ele><time>2026-03-29T08:17:48.297Z</time></trkpt><trkpt lat="40.9441387" lon="14.5547633"><ele>80.5</ele><time>2026-03-29T08:17:49.296Z</time></trkpt><trkpt lat="40.9441068" lon="14.5546162"><ele>80.25</ele><time>2026-03-29T08:17:50.297Z</time></trkpt><trkpt lat="40.9440777" lon="14.5544684"><ele>80.0</ele><time>2026-03-29T08:17:51.297Z</time></trkpt><trkpt lat="40.9440477" lon="14.5543217"><ele>79.5</ele><time>2026-03-29T08:17:52.296Z</time></trkpt><trkpt lat="40.9440165" lon="14.554175"><ele>79.0</ele><time>2026-03-29T08:17:53.296Z</time></trkpt><trkpt lat="40.9439848" lon="14.5540295"><ele>78.5</ele><time>2026-03-29T08:17:54.299Z</time></trkpt><trkpt lat="40.9439517" lon="14.5538835"><ele>78.0</ele><time>2026-03-29T08:17:55.299Z</time></trkpt><trkpt lat="40.9439173" lon="14.5537384"><ele>77.5</ele><time>2026-03-29T08:17:56.299Z</time></trkpt><trkpt lat="40.9438852" lon="14.5535923"><ele>77.0</ele><time>2026-03-29T08:17:57.297Z</time></trkpt><trkpt lat="40.9438535" lon="14.5534469"><ele>76.5</ele><time>2026-03-29T08:17:58.299Z</time></trkpt><trkpt lat="40.9438233" lon="14.5533031"><ele>76.0</ele><time>2026-03-29T08:17:59.299Z</time></trkpt><trkpt lat="40.943794" lon="14.5531585"><ele>76.0</ele><time>2026-03-29T08:18:00.299Z</time></trkpt><trkpt lat="40.9437643" lon="14.5530137"><ele>76.0</ele><time>2026-03-29T08:18:01.299Z</time></trkpt><trkpt lat="40.9437346" lon="14.5528715"><ele>76.0</ele><time>2026-03-29T08:18:02.299Z</time></trkpt><trkpt lat="40.9437035" lon="14.5527311"><ele>76.0</ele><time>2026-03-29T08:18:03.299Z</time></trkpt><trkpt lat="40.9436732" lon="14.55259"><ele>76.0</ele><time>2026-03-29T08:18:04.297Z</time></trkpt><trkpt lat="40.9436443" lon="14.5524484"><ele>76.0</ele><time>2026-03-29T08:18:05.297Z</time></trkpt><trkpt lat="40.943616" lon="14.5523079"><ele>76.0</ele><time>2026-03-29T08:18:06.299Z</time></trkpt><trkpt lat="40.9435867" lon="14.5521669"><ele>76.0</ele><time>2026-03-29T08:18:07.296Z</time></trkpt><trkpt lat="40.9435553" lon="14.5520278"><ele>76.0</ele><time>2026-03-29T08:18:08.295Z</time></trkpt><trkpt lat="40.9435246" lon="14.551888"><ele>76.0</ele><time>2026-03-29T08:18:09.296Z</time></trkpt><trkpt lat="40.9434961" lon="14.5517467"><ele>75.8</ele><time>2026-03-29T08:18:10.299Z</time></trkpt><trkpt lat="40.9434695" lon="14.5516064"><ele>75.6</ele><time>2026-03-29T08:18:11.295Z</time></trkpt><trkpt lat="40.9434385" lon="14.5514651"><ele>75.4</ele><time>2026-03-29T08:18:12.297Z</time></trkpt><trkpt lat="40.9434093" lon="14.5513237"><ele>75.2</ele><time>2026-03-29T08:18:13.299Z</time></trkpt><trkpt lat="40.9433812" lon="14.5511851"><ele>75.0</ele><time>2026-03-29T08:18:14.299Z</time></trkpt><trkpt lat="40.943353" lon="14.5510497"><ele>74.4</ele><time>2026-03-29T08:18:15.295Z</time></trkpt><trkpt lat="40.9433247" lon="14.5509149"><ele>73.8</ele><time>2026-03-29T08:18:16.296Z</time></trkpt><trkpt lat="40.9432965" lon="14.5507828"><ele>73.2</ele><time>2026-03-29T08:18:17.296Z</time></trkpt><trkpt lat="40.943271" lon="14.5506502"><ele>72.6</ele><time>2026-03-29T08:18:18.295Z</time></trkpt><trkpt lat="40.9432449" lon="14.5505188"><ele>72.0</ele><time>2026-03-29T08:18:19.297Z</time></trkpt><trkpt lat="40.9432141" lon="14.5503878"><ele>71.6</ele><time>2026-03-29T08:18:20.297Z</time></trkpt><trkpt lat="40.9431811" lon="14.5502573"><ele>71.2</ele><time>2026-03-29T08:18:21.295Z</time></trkpt><trkpt lat="40.9431541" lon="14.5501242"><ele>70.8</ele><time>2026-03-29T08:18:22.295Z</time></trkpt><trkpt lat="40.943129" lon="14.5499905"><ele>70.4</ele><time>2026-03-29T08:18:23.297Z</time></trkpt><trkpt lat="40.9431043" lon="14.5498554"><ele>70.0</ele><time>2026-03-29T08:18:24.296Z</time></trkpt><trkpt lat="40.9430754" lon="14.5497186"><ele>70.0</ele><time>2026-03-29T08:18:25.297Z</time></trkpt><trkpt lat="40.9430464" lon="14.5495789"><ele>70.0</ele><time>2026-03-29T08:18:26.297Z</time></trkpt><trkpt lat="40.9430152" lon="14.5494357"><ele>70.0</ele><time>2026-03-29T08:18:27.296Z</time></trkpt><trkpt lat="40.9429847" lon="14.5492854"><ele>70.0</ele><time>2026-03-29T08:18:28.296Z</time></trkpt><trkpt lat="40.9429531" lon="14.549132"><ele>70.0</ele><time>2026-03-29T08:18:29.297Z</time></trkpt><trkpt lat="40.9429224" lon="14.548975"><ele>70.0</ele><time>2026-03-29T08:18:30.295Z</time></trkpt><trkpt lat="40.9428843" lon="14.5488135"><ele>70.0</ele><time>2026-03-29T08:18:31.296Z</time></trkpt><trkpt lat="40.9428429" lon="14.5486475"><ele>70.0</ele><time>2026-03-29T08:18:32.297Z</time></trkpt><trkpt lat="40.9428024" lon="14.5484792"><ele>69.5</ele><time>2026-03-29T08:18:33.295Z</time></trkpt><trkpt lat="40.9427674" lon="14.548305"><ele>69.0</ele><time>2026-03-29T08:18:34.295Z</time></trkpt><trkpt lat="40.9427316" lon="14.5481319"><ele>68.5</ele><time>2026-03-29T08:18:35.297Z</time></trkpt><trkpt lat="40.9426966" lon="14.5479657"><ele>68.0</ele><time>2026-03-29T08:18:36.296Z</time></trkpt><trkpt lat="40.9426644" lon="14.5478057"><ele>67.5</ele><time>2026-03-29T08:18:37.297Z</time></trkpt><trkpt lat="40.9426368" lon="14.547651"><ele>67.0</ele><time>2026-03-29T08:18:38.297Z</time></trkpt><trkpt lat="40.9426077" lon="14.5475001"><ele>66.5</ele><time>2026-03-29T08:18:39.295Z</time></trkpt><trkpt lat="40.9425778" lon="14.547352"><ele>66.0</ele><time>2026-03-29T08:18:40.296Z</time></trkpt><trkpt lat="40.9425478" lon="14.5472066"><ele>65.75</ele><time>2026-03-29T08:18:41.297Z</time></trkpt><trkpt lat="40.9425178" lon="14.5470608"><ele>65.5</ele><time>2026-03-29T08:18:42.295Z</time></trkpt><trkpt lat="40.9424867" lon="14.5469168"><ele>65.25</ele><time>2026-03-29T08:18:43.296Z</time></trkpt><trkpt lat="40.9424577" lon="14.5467698"><ele>65.0</ele><time>2026-03-29T08:18:44.297Z</time></trkpt><trkpt lat="40.9424306" lon="14.5466261"><ele>64.8</ele><time>2026-03-29T08:18:45.297Z</time></trkpt><trkpt lat="40.9424027" lon="14.546487"><ele>64.6</ele><time>2026-03-29T08:18:46.296Z</time></trkpt><trkpt lat="40.942376" lon="14.5463528"><ele>64.4</ele><time>2026-03-29T08:18:47.297Z</time></trkpt><trkpt lat="40.9423494" lon="14.5462204"><ele>64.2</ele><time>2026-03-29T08:18:48.296Z</time></trkpt><trkpt lat="40.9423205" lon="14.5460888"><ele>64.0</ele><time>2026-03-29T08:18:49.297Z</time></trkpt><trkpt lat="40.9422935" lon="14.5459617"><ele>63.800000000000004</ele><time>2026-03-29T08:18:50.298Z</time></trkpt><trkpt lat="40.9422694" lon="14.545841"><ele>63.60000000000001</ele><time>2026-03-29T08:18:51.295Z</time></trkpt><trkpt lat="40.9422424" lon="14.545722"><ele>63.4</ele><time>2026-03-29T08:18:52.296Z</time></trkpt><trkpt lat="40.9422154" lon="14.5456026"><ele>63.2</ele><time>2026-03-29T08:18:53.295Z</time></trkpt><trkpt lat="40.9421901" lon="14.5454802"><ele>63.0</ele><time>2026-03-29T08:18:54.297Z</time></trkpt><trkpt lat="40.9421676" lon="14.545358"><ele>62.599999999999994</ele><time>2026-03-29T08:18:55.297Z</time></trkpt><trkpt lat="40.9421427" lon="14.5452349"><ele>62.199999999999996</ele><time>2026-03-29T08:18:56.295Z</time></trkpt><trkpt lat="40.9421175" lon="14.5451141"><ele>61.8</ele><time>2026-03-29T08:18:57.297Z</time></trkpt><trkpt lat="40.9420932" lon="14.5449933"><ele>61.4</ele><time>2026-03-29T08:18:58.297Z</time></trkpt><trkpt lat="40.9420669" lon="14.5448722"><ele>61.0</ele><time>2026-03-29T08:18:59.298Z</time></trkpt><trkpt lat="40.9420387" lon="14.544749"><ele>61.0</ele><time>2026-03-29T08:19:00.298Z</time></trkpt><trkpt lat="40.9420118" lon="14.544625"><ele>60.99999999999999</ele><time>2026-03-29T08:19:01.299Z</time></trkpt><trkpt lat="40.9419865" lon="14.5445018"><ele>60.99999999999999</ele><time>2026-03-29T08:19:02.299Z</time></trkpt><trkpt lat="40.9419601" lon="14.5443778"><ele>61.0</ele><time>2026-03-29T08:19:03.295Z</time></trkpt><trkpt lat="40.9419331" lon="14.5442552"><ele>61.0</ele><time>2026-03-29T08:19:04.296Z</time></trkpt><trkpt lat="40.9419068" lon="14.5441336"><ele>61.0</ele><time>2026-03-29T08:19:05.297Z</time></trkpt><trkpt lat="40.9418829" lon="14.544012"><ele>60.99999999999999</ele><time>2026-03-29T08:19:06.296Z</time></trkpt><trkpt lat="40.9418569" lon="14.5438896"><ele>60.99999999999999</ele><time>2026-03-29T08:19:07.297Z</time></trkpt><trkpt lat="40.9418314" lon="14.5437679"><ele>61.0</ele><time>2026-03-29T08:19:08.296Z</time></trkpt><trkpt lat="40.9418066" lon="14.5436486"><ele>61.0</ele><time>2026-03-29T08:19:09.297Z</time></trkpt><trkpt lat="40.9417818" lon="14.5435319"><ele>61.0</ele><time>2026-03-29T08:19:10.297Z</time></trkpt><trkpt lat="40.9417572" lon="14.5434146"><ele>60.99999999999999</ele><time>2026-03-29T08:19:11.295Z</time></trkpt><trkpt lat="40.9417348" lon="14.5432938"><ele>60.99999999999999</ele><time>2026-03-29T08:19:12.295Z</time></trkpt><trkpt lat="40.9417105" lon="14.5431705"><ele>61.0</ele><time>2026-03-29T08:19:13.295Z</time></trkpt><trkpt lat="40.9416855" lon="14.5430468"><ele>61.0</ele><time>2026-03-29T08:19:14.297Z</time></trkpt><trkpt lat="40.9416577" lon="14.5429238"><ele>60.4</ele><time>2026-03-29T08:19:15.297Z</time></trkpt><trkpt lat="40.941628" lon="14.5428018"><ele>59.8</ele><time>2026-03-29T08:19:16.296Z</time></trkpt><trkpt lat="40.9415989" lon="14.5426783"><ele>59.199999999999996</ele><time>2026-03-29T08:19:17.296Z</time></trkpt><trkpt lat="40.9415728" lon="14.5425525"><ele>58.599999999999994</ele><time>2026-03-29T08:19:18.296Z</time></trkpt><trkpt lat="40.9415463" lon="14.5424236"><ele>58.0</ele><time>2026-03-29T08:19:19.297Z</time></trkpt><trkpt lat="40.9415206" lon="14.5422946"><ele>58.0</ele><time>2026-03-29T08:19:20.296Z</time></trkpt><trkpt lat="40.9414934" lon="14.5421644"><ele>58.0</ele><time>2026-03-29T08:19:21.296Z</time></trkpt><trkpt lat="40.9414652" lon="14.5420347"><ele>58.0</ele><time>2026-03-29T08:19:22.296Z</time></trkpt><trkpt lat="40.94144" lon="14.5419017"><ele>58.0</ele><time>2026-03-29T08:19:23.296Z</time></trkpt><trkpt lat="40.941405" lon="14.5417717"><ele>58.0</ele><time>2026-03-29T08:19:24.297Z</time></trkpt><trkpt lat="40.9413783" lon="14.5416433"><ele>57.599999999999994</ele><time>2026-03-29T08:19:25.296Z</time></trkpt><trkpt lat="40.941355" lon="14.541515"><ele>57.199999999999996</ele><time>2026-03-29T08:19:26.297Z</time></trkpt><trkpt lat="40.94133" lon="14.541385"><ele>56.8</ele><time>2026-03-29T08:19:27.296Z</time></trkpt><trkpt lat="40.9413" lon="14.541255"><ele>56.4</ele><time>2026-03-29T08:19:28.297Z</time></trkpt><trkpt lat="40.941275" lon="14.5411283"><ele>56.0</ele><time>2026-03-29T08:19:29.295Z</time></trkpt><trkpt lat="40.9412483" lon="14.541"><ele>56.0</ele><time>2026-03-29T08:19:30.298Z</time></trkpt><trkpt lat="40.941225" lon="14.5408733"><ele>55.99999999999999</ele><time>2026-03-29T08:19:31.298Z</time></trkpt><trkpt lat="40.9411983" lon="14.5407483"><ele>55.99999999999999</ele><time>2026-03-29T08:19:32.297Z</time></trkpt><trkpt lat="40.941175" lon="14.5406267"><ele>56.0</ele><time>2026-03-29T08:19:33.295Z</time></trkpt><trkpt lat="40.9411467" lon="14.5405017"><ele>56.0</ele><time>2026-03-29T08:19:34.296Z</time></trkpt><trkpt lat="40.9411217" lon="14.5403783"><ele>56.199999999999996</ele><time>2026-03-29T08:19:35.299Z</time></trkpt><trkpt lat="40.941095" lon="14.54025"><ele>56.39999999999999</ele><time>2026-03-29T08:19:36.297Z</time></trkpt><trkpt lat="40.9410683" lon="14.5401233"><ele>56.6</ele><time>2026-03-29T08:19:37.297Z</time></trkpt><trkpt lat="40.9410367" lon="14.5399933"><ele>56.8</ele><time>2026-03-29T08:19:38.296Z</time></trkpt><trkpt lat="40.9410033" lon="14.5398683"><ele>57.0</ele><time>2026-03-29T08:19:39.297Z</time></trkpt><trkpt lat="40.9409717" lon="14.53974"><ele>57.0</ele><time>2026-03-29T08:19:40.296Z</time></trkpt><trkpt lat="40.9409433" lon="14.5396083"><ele>57.0</ele><time>2026-03-29T08:19:41.296Z</time></trkpt><trkpt lat="40.9409133" lon="14.539485"><ele>57.0</ele><time>2026-03-29T08:19:42.297Z</time></trkpt><trkpt lat="40.940885" lon="14.53936"><ele>57.0</ele><time>2026-03-29T08:19:43.298Z</time></trkpt><trkpt lat="40.940865" lon="14.5392383"><ele>57.0</ele><time>2026-03-29T08:19:44.297Z</time></trkpt><trkpt lat="40.9408367" lon="14.53911"><ele>56.400000000000006</ele><time>2026-03-29T08:19:45.298Z</time></trkpt><trkpt lat="40.94081" lon="14.5389883"><ele>55.800000000000004</ele><time>2026-03-29T08:19:46.296Z</time></trkpt><trkpt lat="40.94079" lon="14.5388667"><ele>55.2</ele><time>2026-03-29T08:19:47.299Z</time></trkpt><trkpt lat="40.9407667" lon="14.5387467"><ele>54.6</ele><time>2026-03-29T08:19:48.295Z</time></trkpt><trkpt lat="40.9407483" lon="14.5386333"><ele>54.0</ele><time>2026-03-29T08:19:49.299Z</time></trkpt><trkpt lat="40.9407267" lon="14.5385217"><ele>54.0</ele><time>2026-03-29T08:19:50.297Z</time></trkpt><trkpt lat="40.9407067" lon="14.5384117"><ele>54.0</ele><time>2026-03-29T08:19:51.299Z</time></trkpt><trkpt lat="40.9406833" lon="14.5383"><ele>54.0</ele><time>2026-03-29T08:19:52.299Z</time></trkpt><trkpt lat="40.94066" lon="14.538185"><ele>54.0</ele><time>2026-03-29T08:19:53.296Z</time></trkpt><trkpt lat="40.9406367" lon="14.5380683"><ele>54.0</ele><time>2026-03-29T08:19:54.295Z</time></trkpt><trkpt lat="40.9406133" lon="14.5379533"><ele>54.0</ele><time>2026-03-29T08:19:55.296Z</time></trkpt><trkpt lat="40.9405883" lon="14.53784"><ele>53.6</ele><time>2026-03-29T08:19:56.297Z</time></trkpt><trkpt lat="40.9405633" lon="14.5377283"><ele>53.2</ele><time>2026-03-29T08:19:57.295Z</time></trkpt><trkpt lat="40.94054" lon="14.537615"><ele>52.800000000000004</ele><time>2026-03-29T08:19:58.296Z</time></trkpt><trkpt lat="40.9405167" lon="14.5374983"><ele>52.400000000000006</ele><time>2026-03-29T08:19:59.295Z</time></trkpt><trkpt lat="40.9404917" lon="14.53738"><ele>52.0</ele><time>2026-03-29T08:20:00.297Z</time></trkpt><trkpt lat="40.9404667" lon="14.5372667"><ele>51.99999999999999</ele><time>2026-03-29T08:20:01.296Z</time></trkpt><trkpt lat="40.94044" lon="14.5371533"><ele>52.0</ele><time>2026-03-29T08:20:02.295Z</time></trkpt><trkpt lat="40.9404133" lon="14.53705"><ele>52.0</ele><time>2026-03-29T08:20:03.295Z</time></trkpt><trkpt lat="40.9403867" lon="14.5369467"><ele>52.0</ele><time>2026-03-29T08:20:04.295Z</time></trkpt><trkpt lat="40.9403583" lon="14.5368483"><ele>51.99999999999999</ele><time>2026-03-29T08:20:05.296Z</time></trkpt><trkpt lat="40.9403267" lon="14.5367533"><ele>52.0</ele><time>2026-03-29T08:20:06.296Z</time></trkpt><trkpt lat="40.9402967" lon="14.5366617"><ele>51.99999999999999</ele><time>2026-03-29T08:20:07.297Z</time></trkpt><trkpt lat="40.9402617" lon="14.53657"><ele>52.0</ele><time>2026-03-29T08:20:08.295Z</time></trkpt><trkpt lat="40.9402183" lon="14.5364733"><ele>52.0</ele><time>2026-03-29T08:20:09.297Z</time></trkpt><trkpt lat="40.9401683" lon="14.536375"><ele>52.0</ele><time>2026-03-29T08:20:10.297Z</time></trkpt><trkpt lat="40.9401167" lon="14.5362817"><ele>51.99999999999999</ele><time>2026-03-29T08:20:11.297Z</time></trkpt><trkpt lat="40.9400583" lon="14.5361917"><ele>52.0</ele><time>2026-03-29T08:20:12.296Z</time></trkpt><trkpt lat="40.9399967" lon="14.5361083"><ele>51.83333333333333</ele><time>2026-03-29T08:20:13.295Z</time></trkpt><trkpt lat="40.9399317" lon="14.5360317"><ele>51.666666666666664</ele><time>2026-03-29T08:20:14.297Z</time></trkpt><trkpt lat="40.9398667" lon="14.535955"><ele>51.5</ele><time>2026-03-29T08:20:15.299Z</time></trkpt><trkpt lat="40.9398017" lon="14.5358783"><ele>51.33333333333333</ele><time>2026-03-29T08:20:16.297Z</time></trkpt><trkpt lat="40.9397333" lon="14.5358033"><ele>51.166666666666664</ele><time>2026-03-29T08:20:17.299Z</time></trkpt><trkpt lat="40.9396633" lon="14.53573"><ele>51.0</ele><time>2026-03-29T08:20:18.297Z</time></trkpt><trkpt lat="40.9395917" lon="14.5356583"><ele>51.0</ele><time>2026-03-29T08:20:19.297Z</time></trkpt><trkpt lat="40.9395217" lon="14.5355817"><ele>51.0</ele><time>2026-03-29T08:20:20.296Z</time></trkpt><trkpt lat="40.9394583" lon="14.535505"><ele>51.0</ele><time>2026-03-29T08:20:21.299Z</time></trkpt><trkpt lat="40.939395" lon="14.53542"><ele>51.0</ele><time>2026-03-29T08:20:22.299Z</time></trkpt><trkpt lat="40.939335" lon="14.5353383"><ele>51.0</ele><time>2026-03-29T08:20:23.295Z</time></trkpt><trkpt lat="40.93927" lon="14.53526"><ele>51.0</ele><time>2026-03-29T08:20:24.297Z</time></trkpt><trkpt lat="40.939205" lon="14.53518"><ele>50.8</ele><time>2026-03-29T08:20:25.296Z</time></trkpt><trkpt lat="40.9391433" lon="14.5350933"><ele>50.599999999999994</ele><time>2026-03-29T08:20:26.296Z</time></trkpt><trkpt lat="40.9390817" lon="14.5350017"><ele>50.4</ele><time>2026-03-29T08:20:27.296Z</time></trkpt><trkpt lat="40.9390217" lon="14.5349117"><ele>50.2</ele><time>2026-03-29T08:20:28.295Z</time></trkpt><trkpt lat="40.93896" lon="14.5348217"><ele>50.0</ele><time>2026-03-29T08:20:29.296Z</time></trkpt><trkpt lat="40.938895" lon="14.5347333"><ele>50.00000000000001</ele><time>2026-03-29T08:20:30.295Z</time></trkpt><trkpt lat="40.9388283" lon="14.5346467"><ele>50.0</ele><time>2026-03-29T08:20:31.295Z</time></trkpt><trkpt lat="40.9387633" lon="14.5345633"><ele>50.0</ele><time>2026-03-29T08:20:32.297Z</time></trkpt><trkpt lat="40.9387" lon="14.53448"><ele>50.0</ele><time>2026-03-29T08:20:33.295Z</time></trkpt><trkpt lat="40.93864" lon="14.5344017"><ele>50.00000000000001</ele><time>2026-03-29T08:20:34.297Z</time></trkpt><trkpt lat="40.93858" lon="14.5343317"><ele>50.0</ele><time>2026-03-29T08:20:35.299Z</time></trkpt><trkpt lat="40.9385167" lon="14.53426"><ele>49.833333333333336</ele><time>2026-03-29T08:20:36.295Z</time></trkpt><trkpt lat="40.9384533" lon="14.5341817"><ele>49.66666666666667</ele><time>2026-03-29T08:20:37.299Z</time></trkpt><trkpt lat="40.9383917" lon="14.534105"><ele>49.5</ele><time>2026-03-29T08:20:38.297Z</time></trkpt><trkpt lat="40.9383283" lon="14.5340283"><ele>49.33333333333333</ele><time>2026-03-29T08:20:39.295Z</time></trkpt><trkpt lat="40.9382667" lon="14.5339517"><ele>49.166666666666664</ele><time>2026-03-29T08:20:40.299Z</time></trkpt><trkpt lat="40.9382033" lon="14.53387"><ele>49.0</ele><time>2026-03-29T08:20:41.295Z</time></trkpt><trkpt lat="40.93814" lon="14.5337833"><ele>48.400000000000006</ele><time>2026-03-29T08:20:42.298Z</time></trkpt><trkpt lat="40.9380733" lon="14.5336967"><ele>47.8</ele><time>2026-03-29T08:20:43.298Z</time></trkpt><trkpt lat="40.938005" lon="14.53361"><ele>47.2</ele><time>2026-03-29T08:20:44.299Z</time></trkpt><trkpt lat="40.9379333" lon="14.5335183"><ele>46.599999999999994</ele><time>2026-03-29T08:20:45.299Z</time></trkpt><trkpt lat="40.9378583" lon="14.5334267"><ele>46.0</ele><time>2026-03-29T08:20:46.299Z</time></trkpt><trkpt lat="40.9377833" lon="14.53333"><ele>46.0</ele><time>2026-03-29T08:20:47.297Z</time></trkpt><trkpt lat="40.937705" lon="14.5332267"><ele>46.0</ele><time>2026-03-29T08:20:48.297Z</time></trkpt><trkpt lat="40.9376233" lon="14.53312"><ele>46.0</ele><time>2026-03-29T08:20:49.297Z</time></trkpt><trkpt lat="40.9375417" lon="14.5330167"><ele>46.0</ele><time>2026-03-29T08:20:50.299Z</time></trkpt><trkpt lat="40.9374567" lon="14.5329067"><ele>45.75</ele><time>2026-03-29T08:20:51.296Z</time></trkpt><trkpt lat="40.9373683" lon="14.532795"><ele>45.5</ele><time>2026-03-29T08:20:52.297Z</time></trkpt><trkpt lat="40.9372767" lon="14.5326883"><ele>45.25</ele><time>2026-03-29T08:20:53.299Z</time></trkpt><trkpt lat="40.9371833" lon="14.53258"><ele>45.0</ele><time>2026-03-29T08:20:54.299Z</time></trkpt><trkpt lat="40.9370967" lon="14.5324783"><ele>45.0</ele><time>2026-03-29T08:20:55.298Z</time></trkpt><trkpt lat="40.9370133" lon="14.53238"><ele>45.0</ele><time>2026-03-29T08:20:56.296Z</time></trkpt><trkpt lat="40.9369333" lon="14.53228"><ele>45.0</ele><time>2026-03-29T08:20:57.297Z</time></trkpt><trkpt lat="40.93686" lon="14.5321783"><ele>45.0</ele><time>2026-03-29T08:20:58.295Z</time></trkpt><trkpt lat="40.9367917" lon="14.5320767"><ele>45.0</ele><time>2026-03-29T08:20:59.297Z</time></trkpt><trkpt lat="40.93672" lon="14.5319783"><ele>45.166666666666664</ele><time>2026-03-29T08:21:00.295Z</time></trkpt><trkpt lat="40.9366533" lon="14.5318917"><ele>45.333333333333336</ele><time>2026-03-29T08:21:01.297Z</time></trkpt><trkpt lat="40.9365867" lon="14.5318117"><ele>45.5</ele><time>2026-03-29T08:21:02.295Z</time></trkpt><trkpt lat="40.9365267" lon="14.5317333"><ele>45.66666666666667</ele><time>2026-03-29T08:21:03.296Z</time></trkpt><trkpt lat="40.9364683" lon="14.531655"><ele>45.833333333333336</ele><time>2026-03-29T08:21:04.295Z</time></trkpt><trkpt lat="40.9364117" lon="14.53158"><ele>46.0</ele><time>2026-03-29T08:21:05.297Z</time></trkpt><trkpt lat="40.936355" lon="14.53151"><ele>46.0</ele><time>2026-03-29T08:21:06.297Z</time></trkpt><trkpt lat="40.9362983" lon="14.5314467"><ele>46.0</ele><time>2026-03-29T08:21:07.299Z</time></trkpt><trkpt lat="40.936245" lon="14.5313833"><ele>46.0</ele><time>2026-03-29T08:21:08.295Z</time></trkpt><trkpt lat="40.9361967" lon="14.5313167"><ele>46.0</ele><time>2026-03-29T08:21:09.297Z</time></trkpt><trkpt lat="40.9361483" lon="14.5312433"><ele>46.0</ele><time>2026-03-29T08:21:10.296Z</time></trkpt><trkpt lat="40.936095" lon="14.5311733"><ele>46.0</ele><time>2026-03-29T08:21:11.297Z</time></trkpt><trkpt lat="40.9360467" lon="14.53111"><ele>46.0</ele><time>2026-03-29T08:21:12.299Z</time></trkpt><trkpt lat="40.935995" lon="14.5310483"><ele>45.66666666666667</ele><time>2026-03-29T08:21:13.298Z</time></trkpt><trkpt lat="40.9359417" lon="14.5309817"><ele>45.333333333333336</ele><time>2026-03-29T08:21:14.297Z</time></trkpt><trkpt lat="40.9358817" lon="14.5309117"><ele>45.0</ele><time>2026-03-29T08:21:15.295Z</time></trkpt><trkpt lat="40.9358233" lon="14.530845"><ele>44.666666666666664</ele><time>2026-03-29T08:21:16.296Z</time></trkpt><trkpt lat="40.9357617" lon="14.5307667"><ele>44.33333333333333</ele><time>2026-03-29T08:21:17.297Z</time></trkpt><trkpt lat="40.935695" lon="14.5306883"><ele>44.0</ele><time>2026-03-29T08:21:18.297Z</time></trkpt><trkpt lat="40.935625" lon="14.530605"><ele>44.0</ele><time>2026-03-29T08:21:19.296Z</time></trkpt><trkpt lat="40.935555" lon="14.5305167"><ele>44.0</ele><time>2026-03-29T08:21:20.297Z</time></trkpt><trkpt lat="40.935485" lon="14.53043"><ele>44.0</ele><time>2026-03-29T08:21:21.298Z</time></trkpt><trkpt lat="40.935415" lon="14.5303417"><ele>44.0</ele><time>2026-03-29T08:21:22.297Z</time></trkpt><trkpt lat="40.9353467" lon="14.530245"><ele>44.0</ele><time>2026-03-29T08:21:23.299Z</time></trkpt><trkpt lat="40.9352817" lon="14.5301517"><ele>43.800000000000004</ele><time>2026-03-29T08:21:24.297Z</time></trkpt><trkpt lat="40.9352133" lon="14.530055"><ele>43.6</ele><time>2026-03-29T08:21:25.296Z</time></trkpt><trkpt lat="40.935145" lon="14.5299533"><ele>43.4</ele><time>2026-03-29T08:21:26.299Z</time></trkpt><trkpt lat="40.93508" lon="14.529855"><ele>43.2</ele><time>2026-03-29T08:21:27.295Z</time></trkpt><trkpt lat="40.935015" lon="14.5297533"><ele>43.0</ele><time>2026-03-29T08:21:28.295Z</time></trkpt><trkpt lat="40.934955" lon="14.5296483"><ele>42.599999999999994</ele><time>2026-03-29T08:21:29.299Z</time></trkpt><trkpt lat="40.9349" lon="14.52954"><ele>42.199999999999996</ele><time>2026-03-29T08:21:30.295Z</time></trkpt><trkpt lat="40.9348417" lon="14.5294333"><ele>41.8</ele><time>2026-03-29T08:21:31.295Z</time></trkpt><trkpt lat="40.93478" lon="14.5293183"><ele>41.4</ele><time>2026-03-29T08:21:32.295Z</time></trkpt><trkpt lat="40.93472" lon="14.5292017"><ele>41.0</ele><time>2026-03-29T08:21:33.295Z</time></trkpt><trkpt lat="40.934665" lon="14.5290867"><ele>41.0</ele><time>2026-03-29T08:21:34.295Z</time></trkpt><trkpt lat="40.9346117" lon="14.5289667"><ele>41.0</ele><time>2026-03-29T08:21:35.297Z</time></trkpt><trkpt lat="40.93457" lon="14.5288433"><ele>41.0</ele><time>2026-03-29T08:21:36.297Z</time></trkpt><trkpt lat="40.9345267" lon="14.5287133"><ele>41.0</ele><time>2026-03-29T08:21:37.296Z</time></trkpt><trkpt lat="40.9344883" lon="14.5285833"><ele>41.0</ele><time>2026-03-29T08:21:38.295Z</time></trkpt><trkpt lat="40.9344533" lon="14.5284633"><ele>41.0</ele><time>2026-03-29T08:21:39.297Z</time></trkpt><trkpt lat="40.9344283" lon="14.5283567"><ele>41.0</ele><time>2026-03-29T08:21:40.297Z</time></trkpt><trkpt lat="40.9344133" lon="14.5282633"><ele>41.0</ele><time>2026-03-29T08:21:41.297Z</time></trkpt><trkpt lat="40.9344067" lon="14.5281767"><ele>41.0</ele><time>2026-03-29T08:21:42.295Z</time></trkpt><trkpt lat="40.9343983" lon="14.5280883"><ele>41.0</ele><time>2026-03-29T08:21:43.297Z</time></trkpt><trkpt lat="40.9343817" lon="14.527995"><ele>41.0</ele><time>2026-03-29T08:21:44.297Z</time></trkpt><trkpt lat="40.9343183" lon="14.5278383"><ele>40.99999999999999</ele><time>2026-03-29T08:21:46.297Z</time></trkpt><trkpt lat="40.9342767" lon="14.527765"><ele>41.0</ele><time>2026-03-29T08:21:47.296Z</time></trkpt><trkpt lat="40.93424" lon="14.527685"><ele>41.0</ele><time>2026-03-29T08:21:48.296Z</time></trkpt><trkpt lat="40.9342083" lon="14.5275983"><ele>41.0</ele><time>2026-03-29T08:21:49.296Z</time></trkpt><trkpt lat="40.9341867" lon="14.5275067"><ele>41.0</ele><time>2026-03-29T08:21:50.295Z</time></trkpt><trkpt lat="40.93417" lon="14.52741"><ele>40.99999999999999</ele><time>2026-03-29T08:21:51.296Z</time></trkpt><trkpt lat="40.9341483" lon="14.52732"><ele>41.0</ele><time>2026-03-29T08:21:52.297Z</time></trkpt><trkpt lat="40.9341233" lon="14.5272283"><ele>40.99999999999999</ele><time>2026-03-29T08:21:53.297Z</time></trkpt><trkpt lat="40.934095" lon="14.5271317"><ele>41.0</ele><time>2026-03-29T08:21:54.297Z</time></trkpt><trkpt lat="40.9340767" lon="14.527035"><ele>41.0</ele><time>2026-03-29T08:21:55.298Z</time></trkpt><trkpt lat="40.93406" lon="14.52694"><ele>41.0</ele><time>2026-03-29T08:21:56.297Z</time></trkpt><trkpt lat="40.934045" lon="14.526845"><ele>41.0</ele><time>2026-03-29T08:21:57.296Z</time></trkpt><trkpt lat="40.9340233" lon="14.5267533"><ele>40.99999999999999</ele><time>2026-03-29T08:21:58.295Z</time></trkpt><trkpt lat="40.9339967" lon="14.526665"><ele>41.0</ele><time>2026-03-29T08:21:59.297Z</time></trkpt><trkpt lat="40.93397" lon="14.5265767"><ele>41.0</ele><time>2026-03-29T08:22:00.296Z</time></trkpt><trkpt lat="40.9339483" lon="14.526485"><ele>41.0</ele><time>2026-03-29T08:22:01.295Z</time></trkpt><trkpt lat="40.9339167" lon="14.5264"><ele>41.0</ele><time>2026-03-29T08:22:02.296Z</time></trkpt><trkpt lat="40.9338917" lon="14.526315"><ele>41.0</ele><time>2026-03-29T08:22:03.295Z</time></trkpt><trkpt lat="40.9338433" lon="14.5261533"><ele>41.0</ele><time>2026-03-29T08:22:05.3Z</time></trkpt><trkpt lat="40.9338267" lon="14.526065"><ele>41.0</ele><time>2026-03-29T08:22:06.294Z</time></trkpt><trkpt lat="40.9338067" lon="14.5259783"><ele>41.0</ele><time>2026-03-29T08:22:07.294Z</time></trkpt><trkpt lat="40.9337883" lon="14.5258917"><ele>41.0</ele><time>2026-03-29T08:22:08.294Z</time></trkpt><trkpt lat="40.9337367" lon="14.5257117"><ele>41.0</ele><time>2026-03-29T08:22:10.294Z</time></trkpt><trkpt lat="40.933715" lon="14.5256283"><ele>41.0</ele><time>2026-03-29T08:22:11.295Z</time></trkpt><trkpt lat="40.9337033" lon="14.5255367"><ele>41.0</ele><time>2026-03-29T08:22:12.294Z</time></trkpt><trkpt lat="40.93368" lon="14.5253717"><ele>40.71428571428571</ele><time>2026-03-29T08:22:14.294Z</time></trkpt><trkpt lat="40.9336533" lon="14.5252867"><ele>40.42857142857143</ele><time>2026-03-29T08:22:15.294Z</time></trkpt><trkpt lat="40.9336267" lon="14.5252067"><ele>40.14285714285714</ele><time>2026-03-29T08:22:16.294Z</time></trkpt><trkpt lat="40.933605" lon="14.5251117"><ele>39.857142857142854</ele><time>2026-03-29T08:22:17.295Z</time></trkpt><trkpt lat="40.93359" lon="14.5250283"><ele>39.57142857142857</ele><time>2026-03-29T08:22:18.294Z</time></trkpt><trkpt lat="40.9335683" lon="14.5249483"><ele>39.285714285714285</ele><time>2026-03-29T08:22:19.294Z</time></trkpt><trkpt lat="40.9335433" lon="14.5248717"><ele>39.0</ele><time>2026-03-29T08:22:20.296Z</time></trkpt><trkpt lat="40.9335183" lon="14.52479"><ele>39.0</ele><time>2026-03-29T08:22:21.294Z</time></trkpt><trkpt lat="40.933495" lon="14.5247033"><ele>39.0</ele><time>2026-03-29T08:22:22.294Z</time></trkpt><trkpt lat="40.9334717" lon="14.5246167"><ele>39.0</ele><time>2026-03-29T08:22:23.295Z</time></trkpt><trkpt lat="40.933445" lon="14.5245283"><ele>39.0</ele><time>2026-03-29T08:22:24.294Z</time></trkpt><trkpt lat="40.93341" lon="14.524445"><ele>39.0</ele><time>2026-03-29T08:22:25.295Z</time></trkpt><trkpt lat="40.93338" lon="14.52435"><ele>39.0</ele><time>2026-03-29T08:22:26.294Z</time></trkpt><trkpt lat="40.9333533" lon="14.5242517"><ele>39.0</ele><time>2026-03-29T08:22:27.294Z</time></trkpt><trkpt lat="40.9333267" lon="14.5241583"><ele>38.714285714285715</ele><time>2026-03-29T08:22:28.294Z</time></trkpt><trkpt lat="40.9333067" lon="14.5240667"><ele>38.42857142857142</ele><time>2026-03-29T08:22:29.295Z</time></trkpt><trkpt lat="40.9332833" lon="14.5239783"><ele>38.14285714285714</ele><time>2026-03-29T08:22:30.294Z</time></trkpt><trkpt lat="40.93326" lon="14.52389"><ele>37.85714285714286</ele><time>2026-03-29T08:22:31.294Z</time></trkpt><trkpt lat="40.933235" lon="14.5237983"><ele>37.57142857142857</ele><time>2026-03-29T08:22:32.294Z</time></trkpt><trkpt lat="40.933215" lon="14.5237033"><ele>37.285714285714285</ele><time>2026-03-29T08:22:33.294Z</time></trkpt><trkpt lat="40.93319" lon="14.5236067"><ele>37.0</ele><time>2026-03-29T08:22:34.294Z</time></trkpt><trkpt lat="40.9331667" lon="14.5235133"><ele>36.833333333333336</ele><time>2026-03-29T08:22:35.294Z</time></trkpt><trkpt lat="40.9331383" lon="14.52342"><ele>36.66666666666667</ele><time>2026-03-29T08:22:36.295Z</time></trkpt><trkpt lat="40.9331117" lon="14.523325"><ele>36.5</ele><time>2026-03-29T08:22:37.294Z</time></trkpt><trkpt lat="40.9330867" lon="14.5232317"><ele>36.333333333333336</ele><time>2026-03-29T08:22:38.294Z</time></trkpt><trkpt lat="40.93306" lon="14.523135"><ele>36.166666666666664</ele><time>2026-03-29T08:22:39.294Z</time></trkpt><trkpt lat="40.933035" lon="14.5230433"><ele>36.0</ele><time>2026-03-29T08:22:40.294Z</time></trkpt><trkpt lat="40.93301" lon="14.5229533"><ele>36.0</ele><time>2026-03-29T08:22:41.294Z</time></trkpt><trkpt lat="40.9329883" lon="14.5228617"><ele>36.0</ele><time>2026-03-29T08:22:42.294Z</time></trkpt><trkpt lat="40.9329683" lon="14.5227767"><ele>36.0</ele><time>2026-03-29T08:22:43.294Z</time></trkpt><trkpt lat="40.93295" lon="14.5226967"><ele>36.0</ele><time>2026-03-29T08:22:44.294Z</time></trkpt><trkpt lat="40.932915" lon="14.5225583"><ele>36.0</ele><time>2026-03-29T08:22:46.294Z</time></trkpt><trkpt lat="40.9328833" lon="14.5224267"><ele>36.0</ele><time>2026-03-29T08:22:48.294Z</time></trkpt><trkpt lat="40.9328483" lon="14.5222917"><ele>36.0</ele><time>2026-03-29T08:22:50.294Z</time></trkpt><trkpt lat="40.9328167" lon="14.522165"><ele>36.0</ele><time>2026-03-29T08:22:52.294Z</time></trkpt><trkpt lat="40.932795" lon="14.52204"><ele>36.0</ele><time>2026-03-29T08:22:54.294Z</time></trkpt><trkpt lat="40.9327617" lon="14.5219167"><ele>36.0</ele><time>2026-03-29T08:22:56.297Z</time></trkpt><trkpt lat="40.9327267" lon="14.52179"><ele>36.0</ele><time>2026-03-29T08:22:58.294Z</time></trkpt><trkpt lat="40.9326967" lon="14.5216717"><ele>36.2</ele><time>2026-03-29T08:23:00.294Z</time></trkpt><trkpt lat="40.9326583" lon="14.5215433"><ele>36.400000000000006</ele><time>2026-03-29T08:23:02.294Z</time></trkpt><trkpt lat="40.932615" lon="14.5214083"><ele>36.6</ele><time>2026-03-29T08:23:04.294Z</time></trkpt><trkpt lat="40.9325783" lon="14.5212733"><ele>36.800000000000004</ele><time>2026-03-29T08:23:06.296Z</time></trkpt><trkpt lat="40.932545" lon="14.5211367"><ele>37.0</ele><time>2026-03-29T08:23:08.294Z</time></trkpt><trkpt lat="40.9325217" lon="14.5209933"><ele>36.66666666666667</ele><time>2026-03-29T08:23:10.294Z</time></trkpt><trkpt lat="40.9324983" lon="14.520835"><ele>36.333333333333336</ele><time>2026-03-29T08:23:12.294Z</time></trkpt><trkpt lat="40.9324867" lon="14.5207483"><ele>36.0</ele><time>2026-03-29T08:23:13.295Z</time></trkpt><trkpt lat="40.9324767" lon="14.5206567"><ele>35.666666666666664</ele><time>2026-03-29T08:23:14.295Z</time></trkpt><trkpt lat="40.9324717" lon="14.5205533"><ele>35.33333333333333</ele><time>2026-03-29T08:23:15.293Z</time></trkpt><trkpt lat="40.9324683" lon="14.52044"><ele>35.0</ele><time>2026-03-29T08:23:16.295Z</time></trkpt><trkpt lat="40.932465" lon="14.5203217"><ele>35.0</ele><time>2026-03-29T08:23:17.294Z</time></trkpt><trkpt lat="40.9324633" lon="14.5202"><ele>35.0</ele><time>2026-03-29T08:23:18.294Z</time></trkpt><trkpt lat="40.9324633" lon="14.5200767"><ele>35.0</ele><time>2026-03-29T08:23:19.294Z</time></trkpt><trkpt lat="40.9324633" lon="14.5199467"><ele>35.0</ele><time>2026-03-29T08:23:20.294Z</time></trkpt><trkpt lat="40.9324633" lon="14.519815"><ele>35.0</ele><time>2026-03-29T08:23:21.294Z</time></trkpt><trkpt lat="40.9324633" lon="14.519675"><ele>35.0</ele><time>2026-03-29T08:23:22.294Z</time></trkpt><trkpt lat="40.9324667" lon="14.519535"><ele>35.0</ele><time>2026-03-29T08:23:23.294Z</time></trkpt><trkpt lat="40.932475" lon="14.5193933"><ele>35.0</ele><time>2026-03-29T08:23:24.294Z</time></trkpt><trkpt lat="40.9324867" lon="14.5192517"><ele>35.0</ele><time>2026-03-29T08:23:25.295Z</time></trkpt><trkpt lat="40.9324967" lon="14.519105"><ele>35.0</ele><time>2026-03-29T08:23:26.294Z</time></trkpt><trkpt lat="40.9325033" lon="14.5189717"><ele>35.0</ele><time>2026-03-29T08:23:27.294Z</time></trkpt><trkpt lat="40.9325067" lon="14.5188417"><ele>35.0</ele><time>2026-03-29T08:23:28.294Z</time></trkpt><trkpt lat="40.93251" lon="14.5187083"><ele>35.0</ele><time>2026-03-29T08:23:29.296Z</time></trkpt><trkpt lat="40.9325133" lon="14.5185783"><ele>35.0</ele><time>2026-03-29T08:23:30.295Z</time></trkpt><trkpt lat="40.9325167" lon="14.5184517"><ele>35.0</ele><time>2026-03-29T08:23:31.294Z</time></trkpt><trkpt lat="40.9325133" lon="14.5183317"><ele>35.0</ele><time>2026-03-29T08:23:32.294Z</time></trkpt><trkpt lat="40.93251" lon="14.518215"><ele>35.0</ele><time>2026-03-29T08:23:33.296Z</time></trkpt><trkpt lat="40.93251" lon="14.5181033"><ele>35.0</ele><time>2026-03-29T08:23:34.294Z</time></trkpt><trkpt lat="40.9325167" lon="14.517995"><ele>35.0</ele><time>2026-03-29T08:23:35.295Z</time></trkpt><trkpt lat="40.9325283" lon="14.517885"><ele>35.0</ele><time>2026-03-29T08:23:36.294Z</time></trkpt><trkpt lat="40.93254" lon="14.517775"><ele>35.0</ele><time>2026-03-29T08:23:37.294Z</time></trkpt><trkpt lat="40.9325467" lon="14.5176617"><ele>35.0</ele><time>2026-03-29T08:23:38.294Z</time></trkpt><trkpt lat="40.93255" lon="14.51755"><ele>35.0</ele><time>2026-03-29T08:23:39.294Z</time></trkpt><trkpt lat="40.9325517" lon="14.51744"><ele>35.0</ele><time>2026-03-29T08:23:40.294Z</time></trkpt><trkpt lat="40.932555" lon="14.5173267"><ele>35.0</ele><time>2026-03-29T08:23:41.294Z</time></trkpt><trkpt lat="40.9325583" lon="14.517215"><ele>35.0</ele><time>2026-03-29T08:23:42.294Z</time></trkpt><trkpt lat="40.9325683" lon="14.5171033"><ele>35.0</ele><time>2026-03-29T08:23:43.295Z</time></trkpt><trkpt lat="40.9325767" lon="14.5169933"><ele>34.666666666666664</ele><time>2026-03-29T08:23:44.294Z</time></trkpt><trkpt lat="40.9325817" lon="14.5168833"><ele>34.33333333333333</ele><time>2026-03-29T08:23:45.294Z</time></trkpt><trkpt lat="40.9325917" lon="14.5167733"><ele>34.0</ele><time>2026-03-29T08:23:46.294Z</time></trkpt><trkpt lat="40.9326" lon="14.5166567"><ele>33.666666666666664</ele><time>2026-03-29T08:23:47.294Z</time></trkpt><trkpt lat="40.932605" lon="14.51654"><ele>33.333333333333336</ele><time>2026-03-29T08:23:48.294Z</time></trkpt><trkpt lat="40.9326067" lon="14.51642"><ele>33.0</ele><time>2026-03-29T08:23:49.294Z</time></trkpt><trkpt lat="40.9326083" lon="14.5163017"><ele>33.166666666666664</ele><time>2026-03-29T08:23:50.294Z</time></trkpt><trkpt lat="40.932615" lon="14.5161883"><ele>33.333333333333336</ele><time>2026-03-29T08:23:51.294Z</time></trkpt><trkpt lat="40.9326167" lon="14.516075"><ele>33.5</ele><time>2026-03-29T08:23:52.294Z</time></trkpt><trkpt lat="40.9326217" lon="14.51596"><ele>33.66666666666667</ele><time>2026-03-29T08:23:53.294Z</time></trkpt><trkpt lat="40.9326267" lon="14.5158467"><ele>33.833333333333336</ele><time>2026-03-29T08:23:54.294Z</time></trkpt><trkpt lat="40.9326317" lon="14.51573"><ele>34.0</ele><time>2026-03-29T08:23:55.294Z</time></trkpt><trkpt lat="40.9326367" lon="14.51561"><ele>34.0</ele><time>2026-03-29T08:23:56.294Z</time></trkpt><trkpt lat="40.9326383" lon="14.51549"><ele>34.0</ele><time>2026-03-29T08:23:57.294Z</time></trkpt><trkpt lat="40.93264" lon="14.515375"><ele>34.0</ele><time>2026-03-29T08:23:58.293Z</time></trkpt><trkpt lat="40.9326433" lon="14.5152617"><ele>34.0</ele><time>2026-03-29T08:23:59.294Z</time></trkpt><trkpt lat="40.9326433" lon="14.515145"><ele>34.0</ele><time>2026-03-29T08:24:00.293Z</time></trkpt><trkpt lat="40.9326417" lon="14.5150267"><ele>34.0</ele><time>2026-03-29T08:24:01.297Z</time></trkpt><trkpt lat="40.93264" lon="14.5149067"><ele>34.16666666666667</ele><time>2026-03-29T08:24:02.294Z</time></trkpt><trkpt lat="40.9326433" lon="14.5147917"><ele>34.333333333333336</ele><time>2026-03-29T08:24:03.294Z</time></trkpt><trkpt lat="40.9326467" lon="14.5146767"><ele>34.5</ele><time>2026-03-29T08:24:04.296Z</time></trkpt><trkpt lat="40.9326467" lon="14.5145633"><ele>34.666666666666664</ele><time>2026-03-29T08:24:05.294Z</time></trkpt><trkpt lat="40.93265" lon="14.514445"><ele>34.83333333333333</ele><time>2026-03-29T08:24:06.294Z</time></trkpt><trkpt lat="40.9326533" lon="14.514325"><ele>35.0</ele><time>2026-03-29T08:24:07.294Z</time></trkpt><trkpt lat="40.9326583" lon="14.51421"><ele>34.666666666666664</ele><time>2026-03-29T08:24:08.294Z</time></trkpt><trkpt lat="40.9326667" lon="14.5140967"><ele>34.33333333333333</ele><time>2026-03-29T08:24:09.294Z</time></trkpt><trkpt lat="40.93267" lon="14.5139817"><ele>34.0</ele><time>2026-03-29T08:24:10.297Z</time></trkpt><trkpt lat="40.93268" lon="14.5138633"><ele>33.666666666666664</ele><time>2026-03-29T08:24:11.294Z</time></trkpt><trkpt lat="40.9326883" lon="14.513745"><ele>33.333333333333336</ele><time>2026-03-29T08:24:12.295Z</time></trkpt><trkpt lat="40.9326967" lon="14.5136267"><ele>33.0</ele><time>2026-03-29T08:24:13.294Z</time></trkpt><trkpt lat="40.9327017" lon="14.5135083"><ele>33.0</ele><time>2026-03-29T08:24:14.294Z</time></trkpt><trkpt lat="40.932705" lon="14.5133883"><ele>33.0</ele><time>2026-03-29T08:24:15.294Z</time></trkpt><trkpt lat="40.9327083" lon="14.5132717"><ele>33.0</ele><time>2026-03-29T08:24:16.294Z</time></trkpt><trkpt lat="40.9327133" lon="14.5131533"><ele>33.0</ele><time>2026-03-29T08:24:17.295Z</time></trkpt><trkpt lat="40.9327183" lon="14.5130317"><ele>33.0</ele><time>2026-03-29T08:24:18.294Z</time></trkpt><trkpt lat="40.9327233" lon="14.5129133"><ele>33.0</ele><time>2026-03-29T08:24:19.294Z</time></trkpt><trkpt lat="40.9327283" lon="14.5127983"><ele>33.0</ele><time>2026-03-29T08:24:20.294Z</time></trkpt><trkpt lat="40.9327317" lon="14.5126883"><ele>33.0</ele><time>2026-03-29T08:24:21.295Z</time></trkpt><trkpt lat="40.932735" lon="14.5125767"><ele>33.0</ele><time>2026-03-29T08:24:22.294Z</time></trkpt><trkpt lat="40.9327367" lon="14.51247"><ele>33.0</ele><time>2026-03-29T08:24:23.294Z</time></trkpt><trkpt lat="40.93274" lon="14.512365"><ele>33.0</ele><time>2026-03-29T08:24:24.294Z</time></trkpt><trkpt lat="40.932745" lon="14.5122617"><ele>33.0</ele><time>2026-03-29T08:24:25.294Z</time></trkpt><trkpt lat="40.93275" lon="14.51217"><ele>33.0</ele><time>2026-03-29T08:24:26.294Z</time></trkpt><trkpt lat="40.932755" lon="14.5120717"><ele>33.0</ele><time>2026-03-29T08:24:27.294Z</time></trkpt><trkpt lat="40.9327583" lon="14.511975"><ele>33.0</ele><time>2026-03-29T08:24:28.294Z</time></trkpt><trkpt lat="40.932765" lon="14.5118783"><ele>33.0</ele><time>2026-03-29T08:24:29.296Z</time></trkpt><trkpt lat="40.93277" lon="14.5117833"><ele>33.0</ele><time>2026-03-29T08:24:30.294Z</time></trkpt><trkpt lat="40.9327717" lon="14.5116883"><ele>33.0</ele><time>2026-03-29T08:24:31.296Z</time></trkpt><trkpt lat="40.9327733" lon="14.5116017"><ele>33.0</ele><time>2026-03-29T08:24:32.294Z</time></trkpt><trkpt lat="40.9327767" lon="14.5115183"><ele>33.0</ele><time>2026-03-29T08:24:33.293Z</time></trkpt><trkpt lat="40.9327783" lon="14.5114333"><ele>33.0</ele><time>2026-03-29T08:24:34.294Z</time></trkpt><trkpt lat="40.9327833" lon="14.5113467"><ele>33.0</ele><time>2026-03-29T08:24:35.295Z</time></trkpt><trkpt lat="40.9327867" lon="14.5112583"><ele>33.0</ele><time>2026-03-29T08:24:36.294Z</time></trkpt><trkpt lat="40.9327917" lon="14.5111"><ele>33.0</ele><time>2026-03-29T08:24:38.294Z</time></trkpt><trkpt lat="40.9328033" lon="14.5109367"><ele>33.0</ele><time>2026-03-29T08:24:40.294Z</time></trkpt><trkpt lat="40.9328083" lon="14.5108433"><ele>33.0</ele><time>2026-03-29T08:24:41.294Z</time></trkpt><trkpt lat="40.9328117" lon="14.510745"><ele>33.0</ele><time>2026-03-29T08:24:42.294Z</time></trkpt><trkpt lat="40.9328167" lon="14.5106467"><ele>33.0</ele><time>2026-03-29T08:24:43.294Z</time></trkpt><trkpt lat="40.93282" lon="14.5105417"><ele>33.0</ele><time>2026-03-29T08:24:44.294Z</time></trkpt><trkpt lat="40.9328233" lon="14.5104383"><ele>33.0</ele><time>2026-03-29T08:24:45.294Z</time></trkpt><trkpt lat="40.9328283" lon="14.5103333"><ele>33.0</ele><time>2026-03-29T08:24:46.294Z</time></trkpt><trkpt lat="40.9328217" lon="14.5102217"><ele>33.0</ele><time>2026-03-29T08:24:47.294Z</time></trkpt><trkpt lat="40.932815" lon="14.510115"><ele>33.0</ele><time>2026-03-29T08:24:48.295Z</time></trkpt><trkpt lat="40.932815" lon="14.5100033"><ele>33.0</ele><time>2026-03-29T08:24:49.294Z</time></trkpt><trkpt lat="40.9328133" lon="14.509895"><ele>33.0</ele><time>2026-03-29T08:24:50.294Z</time></trkpt><trkpt lat="40.9328167" lon="14.5097883"><ele>33.0</ele><time>2026-03-29T08:24:51.294Z</time></trkpt><trkpt lat="40.9328167" lon="14.509675"><ele>33.0</ele><time>2026-03-29T08:24:52.296Z</time></trkpt><trkpt lat="40.93282" lon="14.5095617"><ele>33.0</ele><time>2026-03-29T08:24:53.294Z</time></trkpt><trkpt lat="40.9328217" lon="14.5094517"><ele>33.0</ele><time>2026-03-29T08:24:54.294Z</time></trkpt><trkpt lat="40.9328233" lon="14.50934"><ele>33.0</ele><time>2026-03-29T08:24:55.294Z</time></trkpt><trkpt lat="40.9328233" lon="14.5092233"><ele>33.0</ele><time>2026-03-29T08:24:56.294Z</time></trkpt><trkpt lat="40.932825" lon="14.5091133"><ele>33.0</ele><time>2026-03-29T08:24:57.294Z</time></trkpt><trkpt lat="40.9328233" lon="14.5090017"><ele>33.0</ele><time>2026-03-29T08:24:58.294Z</time></trkpt><trkpt lat="40.9328267" lon="14.5088983"><ele>33.0</ele><time>2026-03-29T08:24:59.294Z</time></trkpt><trkpt lat="40.93284" lon="14.5087967"><ele>33.0</ele><time>2026-03-29T08:25:00.294Z</time></trkpt><trkpt lat="40.93285" lon="14.5086983"><ele>33.0</ele><time>2026-03-29T08:25:01.294Z</time></trkpt><trkpt lat="40.932855" lon="14.508605"><ele>33.0</ele><time>2026-03-29T08:25:02.294Z</time></trkpt><trkpt lat="40.9328567" lon="14.5085117"><ele>33.0</ele><time>2026-03-29T08:25:03.294Z</time></trkpt><trkpt lat="40.9328517" lon="14.50842"><ele>33.0</ele><time>2026-03-29T08:25:04.294Z</time></trkpt><trkpt lat="40.93285" lon="14.5083217"><ele>32.833333333333336</ele><time>2026-03-29T08:25:05.294Z</time></trkpt><trkpt lat="40.9328517" lon="14.5082233"><ele>32.666666666666664</ele><time>2026-03-29T08:25:06.294Z</time></trkpt><trkpt lat="40.93286" lon="14.50812"><ele>32.5</ele><time>2026-03-29T08:25:07.295Z</time></trkpt><trkpt lat="40.93287" lon="14.50801"><ele>32.33333333333333</ele><time>2026-03-29T08:25:08.294Z</time></trkpt><trkpt lat="40.9328733" lon="14.5079"><ele>32.166666666666664</ele><time>2026-03-29T08:25:09.294Z</time></trkpt><trkpt lat="40.9328767" lon="14.5078"><ele>32.0</ele><time>2026-03-29T08:25:10.295Z</time></trkpt><trkpt lat="40.9328817" lon="14.5076967"><ele>31.999999999999996</ele><time>2026-03-29T08:25:11.294Z</time></trkpt><trkpt lat="40.9328817" lon="14.50759"><ele>32.0</ele><time>2026-03-29T08:25:12.294Z</time></trkpt><trkpt lat="40.932885" lon="14.5074817"><ele>32.0</ele><time>2026-03-29T08:25:13.295Z</time></trkpt><trkpt lat="40.9328883" lon="14.5073717"><ele>32.0</ele><time>2026-03-29T08:25:14.295Z</time></trkpt><trkpt lat="40.9328933" lon="14.5072583"><ele>31.999999999999996</ele><time>2026-03-29T08:25:15.294Z</time></trkpt><trkpt lat="40.9328967" lon="14.507145"><ele>32.0</ele><time>2026-03-29T08:25:16.294Z</time></trkpt><trkpt lat="40.9329017" lon="14.5070317"><ele>31.999999999999996</ele><time>2026-03-29T08:25:17.294Z</time></trkpt><trkpt lat="40.932905" lon="14.5069167"><ele>32.0</ele><time>2026-03-29T08:25:18.294Z</time></trkpt><trkpt lat="40.9329083" lon="14.5068017"><ele>32.0</ele><time>2026-03-29T08:25:19.294Z</time></trkpt><trkpt lat="40.9329133" lon="14.506685"><ele>32.0</ele><time>2026-03-29T08:25:20.294Z</time></trkpt><trkpt lat="40.9329233" lon="14.5065683"><ele>31.999999999999996</ele><time>2026-03-29T08:25:21.294Z</time></trkpt><trkpt lat="40.9329317" lon="14.506455"><ele>32.0</ele><time>2026-03-29T08:25:22.294Z</time></trkpt><trkpt lat="40.9329417" lon="14.5063367"><ele>31.8</ele><time>2026-03-29T08:25:23.295Z</time></trkpt><trkpt lat="40.9329517" lon="14.506215"><ele>31.6</ele><time>2026-03-29T08:25:24.294Z</time></trkpt><trkpt lat="40.9329667" lon="14.50609"><ele>31.400000000000002</ele><time>2026-03-29T08:25:25.295Z</time></trkpt><trkpt lat="40.9329817" lon="14.5059633"><ele>31.200000000000003</ele><time>2026-03-29T08:25:26.293Z</time></trkpt><trkpt lat="40.9329967" lon="14.50583"><ele>31.0</ele><time>2026-03-29T08:25:27.294Z</time></trkpt><trkpt lat="40.9330167" lon="14.505695"><ele>31.0</ele><time>2026-03-29T08:25:28.294Z</time></trkpt><trkpt lat="40.9330383" lon="14.50555"><ele>31.0</ele><time>2026-03-29T08:25:29.294Z</time></trkpt><trkpt lat="40.9330667" lon="14.5054133"><ele>31.0</ele><time>2026-03-29T08:25:30.294Z</time></trkpt><trkpt lat="40.933095" lon="14.5052783"><ele>31.0</ele><time>2026-03-29T08:25:31.294Z</time></trkpt><trkpt lat="40.93312" lon="14.50514"><ele>31.0</ele><time>2026-03-29T08:25:32.294Z</time></trkpt><trkpt lat="40.9331417" lon="14.5050033"><ele>30.8</ele><time>2026-03-29T08:25:33.294Z</time></trkpt><trkpt lat="40.9331617" lon="14.5048633"><ele>30.6</ele><time>2026-03-29T08:25:34.294Z</time></trkpt><trkpt lat="40.933185" lon="14.5047317"><ele>30.4</ele><time>2026-03-29T08:25:35.294Z</time></trkpt><trkpt lat="40.9332067" lon="14.5046083"><ele>30.2</ele><time>2026-03-29T08:25:36.294Z</time></trkpt><trkpt lat="40.93323" lon="14.504485"><ele>30.0</ele><time>2026-03-29T08:25:37.294Z</time></trkpt><trkpt lat="40.9332517" lon="14.5043617"><ele>30.4</ele><time>2026-03-29T08:25:38.296Z</time></trkpt><trkpt lat="40.9332783" lon="14.504235"><ele>30.8</ele><time>2026-03-29T08:25:39.294Z</time></trkpt><trkpt lat="40.9333117" lon="14.504105"><ele>31.200000000000003</ele><time>2026-03-29T08:25:40.294Z</time></trkpt><trkpt lat="40.9333433" lon="14.5039767"><ele>31.6</ele><time>2026-03-29T08:25:41.294Z</time></trkpt><trkpt lat="40.933375" lon="14.5038483"><ele>32.0</ele><time>2026-03-29T08:25:42.294Z</time></trkpt><trkpt lat="40.9334033" lon="14.503715"><ele>32.800000000000004</ele><time>2026-03-29T08:25:43.294Z</time></trkpt><trkpt lat="40.9334233" lon="14.5035833"><ele>33.6</ele><time>2026-03-29T08:25:44.294Z</time></trkpt><trkpt lat="40.9334367" lon="14.503455"><ele>34.400000000000006</ele><time>2026-03-29T08:25:45.294Z</time></trkpt><trkpt lat="40.933445" lon="14.5033317"><ele>35.2</ele><time>2026-03-29T08:25:46.294Z</time></trkpt><trkpt lat="40.93345" lon="14.50321"><ele>36.0</ele><time>2026-03-29T08:25:47.294Z</time></trkpt><trkpt lat="40.9334533" lon="14.5030867"><ele>36.0</ele><time>2026-03-29T08:25:48.294Z</time></trkpt><trkpt lat="40.933455" lon="14.5029683"><ele>36.0</ele><time>2026-03-29T08:25:49.294Z</time></trkpt><trkpt lat="40.933455" lon="14.502855"><ele>36.0</ele><time>2026-03-29T08:25:50.294Z</time></trkpt><trkpt lat="40.9334583" lon="14.502745"><ele>36.0</ele><time>2026-03-29T08:25:51.294Z</time></trkpt><trkpt lat="40.9334583" lon="14.5026317"><ele>36.0</ele><time>2026-03-29T08:25:52.294Z</time></trkpt><trkpt lat="40.9334567" lon="14.5025183"><ele>36.0</ele><time>2026-03-29T08:25:53.294Z</time></trkpt><trkpt lat="40.9334583" lon="14.5024117"><ele>35.5</ele><time>2026-03-29T08:25:54.294Z</time></trkpt><trkpt lat="40.9334617" lon="14.5023067"><ele>35.0</ele><time>2026-03-29T08:25:55.294Z</time></trkpt><trkpt lat="40.9334617" lon="14.5022033"><ele>34.5</ele><time>2026-03-29T08:25:56.294Z</time></trkpt><trkpt lat="40.9334617" lon="14.5021"><ele>34.0</ele><time>2026-03-29T08:25:57.293Z</time></trkpt><trkpt lat="40.9334617" lon="14.5019933"><ele>33.5</ele><time>2026-03-29T08:25:58.294Z</time></trkpt><trkpt lat="40.9334583" lon="14.5018867"><ele>33.0</ele><time>2026-03-29T08:25:59.294Z</time></trkpt><trkpt lat="40.9334567" lon="14.5017833"><ele>32.5</ele><time>2026-03-29T08:26:00.294Z</time></trkpt><trkpt lat="40.9334583" lon="14.5016783"><ele>32.0</ele><time>2026-03-29T08:26:01.294Z</time></trkpt><trkpt lat="40.9334617" lon="14.5015733"><ele>31.5</ele><time>2026-03-29T08:26:02.294Z</time></trkpt><trkpt lat="40.933465" lon="14.5014683"><ele>31.0</ele><time>2026-03-29T08:26:03.294Z</time></trkpt><trkpt lat="40.9334617" lon="14.5013583"><ele>30.5</ele><time>2026-03-29T08:26:04.295Z</time></trkpt><trkpt lat="40.9334567" lon="14.5012483"><ele>30.0</ele><time>2026-03-29T08:26:05.294Z</time></trkpt><trkpt lat="40.933455" lon="14.50114"><ele>30.0</ele><time>2026-03-29T08:26:06.294Z</time></trkpt><trkpt lat="40.9334517" lon="14.5010333"><ele>30.0</ele><time>2026-03-29T08:26:07.294Z</time></trkpt><trkpt lat="40.93345" lon="14.5009217"><ele>30.0</ele><time>2026-03-29T08:26:08.295Z</time></trkpt><trkpt lat="40.933445" lon="14.5008067"><ele>30.0</ele><time>2026-03-29T08:26:09.293Z</time></trkpt><trkpt lat="40.9334433" lon="14.5006967"><ele>30.0</ele><time>2026-03-29T08:26:10.294Z</time></trkpt><trkpt lat="40.9334433" lon="14.5005833"><ele>30.0</ele><time>2026-03-29T08:26:11.294Z</time></trkpt><trkpt lat="40.9334467" lon="14.5004717"><ele>30.0</ele><time>2026-03-29T08:26:12.294Z</time></trkpt><trkpt lat="40.9334467" lon="14.5003567"><ele>30.0</ele><time>2026-03-29T08:26:13.294Z</time></trkpt><trkpt lat="40.933445" lon="14.5002433"><ele>30.0</ele><time>2026-03-29T08:26:14.295Z</time></trkpt><trkpt lat="40.9334467" lon="14.5001317"><ele>30.0</ele><time>2026-03-29T08:26:15.296Z</time></trkpt><trkpt lat="40.9334483" lon="14.500025"><ele>30.0</ele><time>2026-03-29T08:26:16.296Z</time></trkpt><trkpt lat="40.93345" lon="14.4999167"><ele>30.0</ele><time>2026-03-29T08:26:17.295Z</time></trkpt><trkpt lat="40.9334517" lon="14.4998033"><ele>30.0</ele><time>2026-03-29T08:26:18.294Z</time></trkpt><trkpt lat="40.9334567" lon="14.4996883"><ele>30.0</ele><time>2026-03-29T08:26:19.294Z</time></trkpt><trkpt lat="40.9334567" lon="14.4995767"><ele>30.0</ele><time>2026-03-29T08:26:20.294Z</time></trkpt><trkpt lat="40.9334583" lon="14.4994667"><ele>30.0</ele><time>2026-03-29T08:26:21.295Z</time></trkpt><trkpt lat="40.93346" lon="14.4993533"><ele>30.0</ele><time>2026-03-29T08:26:22.294Z</time></trkpt><trkpt lat="40.9334617" lon="14.4992383"><ele>30.0</ele><time>2026-03-29T08:26:23.294Z</time></trkpt><trkpt lat="40.9334617" lon="14.4991233"><ele>29.833333333333332</ele><time>2026-03-29T08:26:24.294Z</time></trkpt><trkpt lat="40.933455" lon="14.4990117"><ele>29.666666666666664</ele><time>2026-03-29T08:26:25.294Z</time></trkpt><trkpt lat="40.9334567" lon="14.4989083"><ele>29.5</ele><time>2026-03-29T08:26:26.294Z</time></trkpt><trkpt lat="40.9334567" lon="14.4988067"><ele>29.333333333333332</ele><time>2026-03-29T08:26:27.294Z</time></trkpt><trkpt lat="40.933455" lon="14.49871"><ele>29.166666666666664</ele><time>2026-03-29T08:26:28.294Z</time></trkpt><trkpt lat="40.933455" lon="14.4986133"><ele>29.0</ele><time>2026-03-29T08:26:29.294Z</time></trkpt><trkpt lat="40.9334567" lon="14.4985067"><ele>28.799999999999997</ele><time>2026-03-29T08:26:30.293Z</time></trkpt><trkpt lat="40.9334567" lon="14.4984"><ele>28.599999999999998</ele><time>2026-03-29T08:26:31.294Z</time></trkpt><trkpt lat="40.9334533" lon="14.4982867"><ele>28.4</ele><time>2026-03-29T08:26:32.294Z</time></trkpt><trkpt lat="40.9334417" lon="14.4981683"><ele>28.2</ele><time>2026-03-29T08:26:33.294Z</time></trkpt><trkpt lat="40.93342" lon="14.4980417"><ele>28.0</ele><time>2026-03-29T08:26:34.294Z</time></trkpt><trkpt lat="40.9333983" lon="14.4979167"><ele>28.599999999999998</ele><time>2026-03-29T08:26:35.294Z</time></trkpt><trkpt lat="40.9333783" lon="14.497795"><ele>29.199999999999996</ele><time>2026-03-29T08:26:36.294Z</time></trkpt><trkpt lat="40.9333617" lon="14.4976717"><ele>29.8</ele><time>2026-03-29T08:26:37.295Z</time></trkpt><trkpt lat="40.9333417" lon="14.497555"><ele>30.4</ele><time>2026-03-29T08:26:38.294Z</time></trkpt><trkpt lat="40.9333233" lon="14.4974383"><ele>31.0</ele><time>2026-03-29T08:26:39.294Z</time></trkpt><trkpt lat="40.9333083" lon="14.49732"><ele>31.000000000000004</ele><time>2026-03-29T08:26:40.294Z</time></trkpt><trkpt lat="40.9332967" lon="14.497205"><ele>31.0</ele><time>2026-03-29T08:26:41.294Z</time></trkpt><trkpt lat="40.933285" lon="14.4970883"><ele>31.0</ele><time>2026-03-29T08:26:42.294Z</time></trkpt><trkpt lat="40.9332733" lon="14.4969733"><ele>31.0</ele><time>2026-03-29T08:26:43.294Z</time></trkpt><trkpt lat="40.9332633" lon="14.49686"><ele>31.000000000000004</ele><time>2026-03-29T08:26:44.294Z</time></trkpt><trkpt lat="40.9332517" lon="14.4967483"><ele>31.0</ele><time>2026-03-29T08:26:45.294Z</time></trkpt><trkpt lat="40.9332383" lon="14.4966333"><ele>31.000000000000004</ele><time>2026-03-29T08:26:46.294Z</time></trkpt><trkpt lat="40.9332233" lon="14.4965183"><ele>31.0</ele><time>2026-03-29T08:26:47.295Z</time></trkpt><trkpt lat="40.9332083" lon="14.4964017"><ele>31.0</ele><time>2026-03-29T08:26:48.294Z</time></trkpt><trkpt lat="40.93319" lon="14.496285"><ele>31.0</ele><time>2026-03-29T08:26:49.294Z</time></trkpt><trkpt lat="40.93317" lon="14.4961683"><ele>31.000000000000004</ele><time>2026-03-29T08:26:50.294Z</time></trkpt><trkpt lat="40.933155" lon="14.4960533"><ele>31.0</ele><time>2026-03-29T08:26:51.294Z</time></trkpt><trkpt lat="40.933145" lon="14.4959367"><ele>31.000000000000004</ele><time>2026-03-29T08:26:52.294Z</time></trkpt><trkpt lat="40.9331333" lon="14.4958283"><ele>31.0</ele><time>2026-03-29T08:26:53.295Z</time></trkpt><trkpt lat="40.933125" lon="14.49572"><ele>31.0</ele><time>2026-03-29T08:26:54.295Z</time></trkpt><trkpt lat="40.9331217" lon="14.4956067"><ele>31.0</ele><time>2026-03-29T08:26:55.294Z</time></trkpt><trkpt lat="40.9331267" lon="14.4954933"><ele>31.000000000000004</ele><time>2026-03-29T08:26:56.294Z</time></trkpt><trkpt lat="40.9331283" lon="14.4953733"><ele>31.0</ele><time>2026-03-29T08:26:57.294Z</time></trkpt><trkpt lat="40.933115" lon="14.49526"><ele>31.000000000000004</ele><time>2026-03-29T08:26:58.294Z</time></trkpt><trkpt lat="40.9330933" lon="14.4951517"><ele>31.0</ele><time>2026-03-29T08:26:59.294Z</time></trkpt><trkpt lat="40.9330767" lon="14.4950367"><ele>31.0</ele><time>2026-03-29T08:27:00.294Z</time></trkpt><trkpt lat="40.9330483" lon="14.4949183"><ele>31.0</ele><time>2026-03-29T08:27:01.294Z</time></trkpt><trkpt lat="40.9330267" lon="14.4948033"><ele>31.000000000000004</ele><time>2026-03-29T08:27:02.294Z</time></trkpt><trkpt lat="40.9330167" lon="14.4946883"><ele>31.0</ele><time>2026-03-29T08:27:03.294Z</time></trkpt><trkpt lat="40.9330033" lon="14.494585"><ele>30.833333333333336</ele><time>2026-03-29T08:27:04.294Z</time></trkpt><trkpt lat="40.9329833" lon="14.4944767"><ele>30.666666666666668</ele><time>2026-03-29T08:27:05.294Z</time></trkpt><trkpt lat="40.9329717" lon="14.494375"><ele>30.5</ele><time>2026-03-29T08:27:06.294Z</time></trkpt><trkpt lat="40.9329583" lon="14.494275"><ele>30.333333333333336</ele><time>2026-03-29T08:27:07.294Z</time></trkpt><trkpt lat="40.9329467" lon="14.4941767"><ele>30.166666666666668</ele><time>2026-03-29T08:27:08.294Z</time></trkpt><trkpt lat="40.932935" lon="14.4940733"><ele>30.0</ele><time>2026-03-29T08:27:09.293Z</time></trkpt><trkpt lat="40.9329217" lon="14.4939683"><ele>30.0</ele><time>2026-03-29T08:27:10.295Z</time></trkpt><trkpt lat="40.9329083" lon="14.4938633"><ele>30.0</ele><time>2026-03-29T08:27:11.294Z</time></trkpt><trkpt lat="40.9328967" lon="14.4937617"><ele>30.0</ele><time>2026-03-29T08:27:12.294Z</time></trkpt><trkpt lat="40.9328783" lon="14.49366"><ele>30.0</ele><time>2026-03-29T08:27:13.295Z</time></trkpt><trkpt lat="40.932865" lon="14.4935583"><ele>30.0</ele><time>2026-03-29T08:27:14.294Z</time></trkpt><trkpt lat="40.93285" lon="14.49346"><ele>30.0</ele><time>2026-03-29T08:27:15.294Z</time></trkpt><trkpt lat="40.932835" lon="14.4933617"><ele>30.0</ele><time>2026-03-29T08:27:16.294Z</time></trkpt><trkpt lat="40.93282" lon="14.4932617"><ele>30.0</ele><time>2026-03-29T08:27:17.294Z</time></trkpt><trkpt lat="40.9328067" lon="14.4931617"><ele>30.0</ele><time>2026-03-29T08:27:18.294Z</time></trkpt><trkpt lat="40.932795" lon="14.4930617"><ele>30.0</ele><time>2026-03-29T08:27:19.294Z</time></trkpt><trkpt lat="40.9327833" lon="14.4929633"><ele>30.0</ele><time>2026-03-29T08:27:20.294Z</time></trkpt><trkpt lat="40.9327717" lon="14.49287"><ele>30.0</ele><time>2026-03-29T08:27:21.294Z</time></trkpt><trkpt lat="40.932755" lon="14.49277"><ele>30.0</ele><time>2026-03-29T08:27:22.294Z</time></trkpt><trkpt lat="40.9327467" lon="14.4926833"><ele>30.0</ele><time>2026-03-29T08:27:23.294Z</time></trkpt><trkpt lat="40.932735" lon="14.4926"><ele>30.0</ele><time>2026-03-29T08:27:24.294Z</time></trkpt><trkpt lat="40.93272" lon="14.492515"><ele>30.0</ele><time>2026-03-29T08:27:25.294Z</time></trkpt><trkpt lat="40.9327117" lon="14.49243"><ele>30.0</ele><time>2026-03-29T08:27:26.294Z</time></trkpt><trkpt lat="40.9326917" lon="14.4922733"><ele>30.0</ele><time>2026-03-29T08:27:28.294Z</time></trkpt><trkpt lat="40.9326633" lon="14.49212"><ele>29.833333333333332</ele><time>2026-03-29T08:27:30.294Z</time></trkpt><trkpt lat="40.9326283" lon="14.4919633"><ele>29.666666666666664</ele><time>2026-03-29T08:27:32.294Z</time></trkpt><trkpt lat="40.9325783" lon="14.49181"><ele>29.5</ele><time>2026-03-29T08:27:34.294Z</time></trkpt><trkpt lat="40.93255" lon="14.4917333"><ele>29.333333333333332</ele><time>2026-03-29T08:27:35.294Z</time></trkpt><trkpt lat="40.9325183" lon="14.49166"><ele>29.166666666666664</ele><time>2026-03-29T08:27:36.294Z</time></trkpt><trkpt lat="40.9324833" lon="14.4915867"><ele>29.0</ele><time>2026-03-29T08:27:37.294Z</time></trkpt><trkpt lat="40.9324467" lon="14.491515"><ele>29.000000000000004</ele><time>2026-03-29T08:27:38.294Z</time></trkpt><trkpt lat="40.9324067" lon="14.4914467"><ele>29.0</ele><time>2026-03-29T08:27:39.294Z</time></trkpt><trkpt lat="40.932365" lon="14.4913733"><ele>29.000000000000004</ele><time>2026-03-29T08:27:40.294Z</time></trkpt><trkpt lat="40.9323217" lon="14.4912967"><ele>29.000000000000004</ele><time>2026-03-29T08:27:41.294Z</time></trkpt><trkpt lat="40.93228" lon="14.4912167"><ele>29.0</ele><time>2026-03-29T08:27:42.294Z</time></trkpt><trkpt lat="40.932235" lon="14.4911317"><ele>29.000000000000004</ele><time>2026-03-29T08:27:43.295Z</time></trkpt><trkpt lat="40.9321883" lon="14.49104"><ele>29.000000000000004</ele><time>2026-03-29T08:27:44.294Z</time></trkpt><trkpt lat="40.93214" lon="14.4909467"><ele>29.166666666666664</ele><time>2026-03-29T08:27:45.294Z</time></trkpt><trkpt lat="40.9320917" lon="14.490855"><ele>29.333333333333332</ele><time>2026-03-29T08:27:46.294Z</time></trkpt><trkpt lat="40.932045" lon="14.4907583"><ele>29.5</ele><time>2026-03-29T08:27:47.294Z</time></trkpt><trkpt lat="40.9319983" lon="14.4906617"><ele>29.666666666666664</ele><time>2026-03-29T08:27:48.294Z</time></trkpt><trkpt lat="40.93195" lon="14.4905667"><ele>29.833333333333332</ele><time>2026-03-29T08:27:49.295Z</time></trkpt><trkpt lat="40.9319017" lon="14.4904667"><ele>30.0</ele><time>2026-03-29T08:27:50.295Z</time></trkpt><trkpt lat="40.9318483" lon="14.4903733"><ele>30.2</ele><time>2026-03-29T08:27:51.294Z</time></trkpt><trkpt lat="40.9317967" lon="14.4902783"><ele>30.4</ele><time>2026-03-29T08:27:52.294Z</time></trkpt><trkpt lat="40.9317433" lon="14.4901783"><ele>30.6</ele><time>2026-03-29T08:27:53.294Z</time></trkpt><trkpt lat="40.93169" lon="14.4900833"><ele>30.8</ele><time>2026-03-29T08:27:54.294Z</time></trkpt><trkpt lat="40.9316383" lon="14.489985"><ele>31.0</ele><time>2026-03-29T08:27:55.294Z</time></trkpt><trkpt lat="40.9315867" lon="14.4898867"><ele>31.166666666666668</ele><time>2026-03-29T08:27:56.294Z</time></trkpt><trkpt lat="40.931535" lon="14.4897967"><ele>31.333333333333336</ele><time>2026-03-29T08:27:57.294Z</time></trkpt><trkpt lat="40.9314867" lon="14.4897017"><ele>31.5</ele><time>2026-03-29T08:27:58.294Z</time></trkpt><trkpt lat="40.9314383" lon="14.48961"><ele>31.666666666666664</ele><time>2026-03-29T08:27:59.294Z</time></trkpt><trkpt lat="40.9313867" lon="14.4895167"><ele>31.833333333333332</ele><time>2026-03-29T08:28:00.295Z</time></trkpt><trkpt lat="40.9313333" lon="14.489425"><ele>32.0</ele><time>2026-03-29T08:28:01.294Z</time></trkpt><trkpt lat="40.9312833" lon="14.4893333"><ele>31.666666666666664</ele><time>2026-03-29T08:28:02.294Z</time></trkpt><trkpt lat="40.931235" lon="14.48924"><ele>31.333333333333332</ele><time>2026-03-29T08:28:03.294Z</time></trkpt><trkpt lat="40.9311867" lon="14.489145"><ele>31.0</ele><time>2026-03-29T08:28:04.294Z</time></trkpt><trkpt lat="40.9311383" lon="14.4890517"><ele>30.666666666666664</ele><time>2026-03-29T08:28:05.294Z</time></trkpt><trkpt lat="40.9310917" lon="14.48896"><ele>30.333333333333332</ele><time>2026-03-29T08:28:06.294Z</time></trkpt><trkpt lat="40.9310433" lon="14.4888667"><ele>30.0</ele><time>2026-03-29T08:28:07.295Z</time></trkpt><trkpt lat="40.930995" lon="14.4887733"><ele>30.0</ele><time>2026-03-29T08:28:08.295Z</time></trkpt><trkpt lat="40.9309483" lon="14.4886867"><ele>30.0</ele><time>2026-03-29T08:28:09.298Z</time></trkpt><trkpt lat="40.9309" lon="14.4885967"><ele>30.0</ele><time>2026-03-29T08:28:10.294Z</time></trkpt><trkpt lat="40.9308517" lon="14.4885033"><ele>30.0</ele><time>2026-03-29T08:28:11.294Z</time></trkpt><trkpt lat="40.9308083" lon="14.48841"><ele>30.0</ele><time>2026-03-29T08:28:12.294Z</time></trkpt><trkpt lat="40.9307633" lon="14.4883217"><ele>30.0</ele><time>2026-03-29T08:28:13.294Z</time></trkpt><trkpt lat="40.9307167" lon="14.4882333"><ele>30.333333333333332</ele><time>2026-03-29T08:28:14.294Z</time></trkpt><trkpt lat="40.93067" lon="14.4881467"><ele>30.666666666666664</ele><time>2026-03-29T08:28:15.294Z</time></trkpt><trkpt lat="40.930625" lon="14.4880583"><ele>31.0</ele><time>2026-03-29T08:28:16.294Z</time></trkpt><trkpt lat="40.930585" lon="14.4879667"><ele>31.333333333333332</ele><time>2026-03-29T08:28:17.294Z</time></trkpt><trkpt lat="40.930545" lon="14.4878717"><ele>31.666666666666664</ele><time>2026-03-29T08:28:18.294Z</time></trkpt><trkpt lat="40.9305017" lon="14.4877733"><ele>32.0</ele><time>2026-03-29T08:28:19.294Z</time></trkpt><trkpt lat="40.93046" lon="14.48768"><ele>31.999999999999996</ele><time>2026-03-29T08:28:20.294Z</time></trkpt><trkpt lat="40.9304183" lon="14.4875817"><ele>32.0</ele><time>2026-03-29T08:28:21.294Z</time></trkpt><trkpt lat="40.9303817" lon="14.4874783"><ele>32.0</ele><time>2026-03-29T08:28:22.294Z</time></trkpt><trkpt lat="40.9303483" lon="14.487375"><ele>32.0</ele><time>2026-03-29T08:28:23.294Z</time></trkpt><trkpt lat="40.930315" lon="14.48727"><ele>31.999999999999996</ele><time>2026-03-29T08:28:24.294Z</time></trkpt><trkpt lat="40.9302833" lon="14.487165"><ele>32.0</ele><time>2026-03-29T08:28:25.294Z</time></trkpt><trkpt lat="40.9302517" lon="14.48706"><ele>31.833333333333332</ele><time>2026-03-29T08:28:26.294Z</time></trkpt><trkpt lat="40.930225" lon="14.486955"><ele>31.666666666666664</ele><time>2026-03-29T08:28:27.294Z</time></trkpt><trkpt lat="40.9301967" lon="14.48685"><ele>31.5</ele><time>2026-03-29T08:28:28.294Z</time></trkpt><trkpt lat="40.9301667" lon="14.4867467"><ele>31.333333333333336</ele><time>2026-03-29T08:28:29.294Z</time></trkpt><trkpt lat="40.9301367" lon="14.4866383"><ele>31.166666666666668</ele><time>2026-03-29T08:28:30.294Z</time></trkpt><trkpt lat="40.9301067" lon="14.4865383"><ele>31.0</ele><time>2026-03-29T08:28:31.295Z</time></trkpt><trkpt lat="40.930075" lon="14.48644"><ele>31.000000000000004</ele><time>2026-03-29T08:28:32.294Z</time></trkpt><trkpt lat="40.9300467" lon="14.486345"><ele>31.0</ele><time>2026-03-29T08:28:33.294Z</time></trkpt><trkpt lat="40.9300167" lon="14.486245"><ele>31.0</ele><time>2026-03-29T08:28:34.295Z</time></trkpt><trkpt lat="40.9299867" lon="14.4861433"><ele>31.0</ele><time>2026-03-29T08:28:35.294Z</time></trkpt><trkpt lat="40.9299567" lon="14.4860417"><ele>31.000000000000004</ele><time>2026-03-29T08:28:36.295Z</time></trkpt><trkpt lat="40.92993" lon="14.4859417"><ele>31.0</ele><time>2026-03-29T08:28:37.294Z</time></trkpt><trkpt lat="40.929905" lon="14.48584"><ele>31.333333333333336</ele><time>2026-03-29T08:28:38.294Z</time></trkpt><trkpt lat="40.9298767" lon="14.4857367"><ele>31.666666666666668</ele><time>2026-03-29T08:28:39.294Z</time></trkpt><trkpt lat="40.92985" lon="14.4856367"><ele>32.0</ele><time>2026-03-29T08:28:40.294Z</time></trkpt><trkpt lat="40.929825" lon="14.485535"><ele>32.333333333333336</ele><time>2026-03-29T08:28:41.294Z</time></trkpt><trkpt lat="40.9297983" lon="14.485435"><ele>32.666666666666664</ele><time>2026-03-29T08:28:42.294Z</time></trkpt><trkpt lat="40.9297717" lon="14.4853317"><ele>33.0</ele><time>2026-03-29T08:28:43.295Z</time></trkpt><trkpt lat="40.929745" lon="14.48523"><ele>33.0</ele><time>2026-03-29T08:28:44.294Z</time></trkpt><trkpt lat="40.92972" lon="14.4851317"><ele>33.0</ele><time>2026-03-29T08:28:45.294Z</time></trkpt><trkpt lat="40.9296917" lon="14.48503"><ele>33.0</ele><time>2026-03-29T08:28:46.294Z</time></trkpt><trkpt lat="40.9296583" lon="14.4849267"><ele>33.0</ele><time>2026-03-29T08:28:47.294Z</time></trkpt><trkpt lat="40.929625" lon="14.4848233"><ele>33.0</ele><time>2026-03-29T08:28:48.295Z</time></trkpt><trkpt lat="40.9295867" lon="14.4847167"><ele>33.0</ele><time>2026-03-29T08:28:49.294Z</time></trkpt><trkpt lat="40.92955" lon="14.4846133"><ele>33.0</ele><time>2026-03-29T08:28:50.294Z</time></trkpt><trkpt lat="40.9295167" lon="14.4845017"><ele>33.0</ele><time>2026-03-29T08:28:51.296Z</time></trkpt><trkpt lat="40.9294817" lon="14.48439"><ele>33.0</ele><time>2026-03-29T08:28:52.294Z</time></trkpt><trkpt lat="40.9294483" lon="14.4842783"><ele>33.0</ele><time>2026-03-29T08:28:53.294Z</time></trkpt><trkpt lat="40.929415" lon="14.484165"><ele>33.0</ele><time>2026-03-29T08:28:54.295Z</time></trkpt><trkpt lat="40.9293817" lon="14.4840533"><ele>33.0</ele><time>2026-03-29T08:28:55.294Z</time></trkpt><trkpt lat="40.9293483" lon="14.48395"><ele>33.0</ele><time>2026-03-29T08:28:56.295Z</time></trkpt><trkpt lat="40.929315" lon="14.4838483"><ele>33.0</ele><time>2026-03-29T08:28:57.294Z</time></trkpt><trkpt lat="40.929285" lon="14.483745"><ele>33.0</ele><time>2026-03-29T08:28:58.296Z</time></trkpt><trkpt lat="40.92926" lon="14.48364"><ele>33.0</ele><time>2026-03-29T08:28:59.294Z</time></trkpt><trkpt lat="40.9292317" lon="14.48354"><ele>33.0</ele><time>2026-03-29T08:29:00.294Z</time></trkpt><trkpt lat="40.9292017" lon="14.483435"><ele>32.666666666666664</ele><time>2026-03-29T08:29:01.294Z</time></trkpt><trkpt lat="40.92917" lon="14.483325"><ele>32.333333333333336</ele><time>2026-03-29T08:29:02.294Z</time></trkpt><trkpt lat="40.92914" lon="14.4832167"><ele>32.0</ele><time>2026-03-29T08:29:03.295Z</time></trkpt><trkpt lat="40.9291067" lon="14.483105"><ele>31.666666666666668</ele><time>2026-03-29T08:29:04.296Z</time></trkpt><trkpt lat="40.9290733" lon="14.482995"><ele>31.333333333333336</ele><time>2026-03-29T08:29:05.296Z</time></trkpt><trkpt lat="40.9290383" lon="14.4828833"><ele>31.0</ele><time>2026-03-29T08:29:06.294Z</time></trkpt><trkpt lat="40.9290017" lon="14.4827767"><ele>31.0</ele><time>2026-03-29T08:29:07.294Z</time></trkpt><trkpt lat="40.9289633" lon="14.4826667"><ele>31.0</ele><time>2026-03-29T08:29:08.295Z</time></trkpt><trkpt lat="40.9289283" lon="14.48255"><ele>31.0</ele><time>2026-03-29T08:29:09.295Z</time></trkpt><trkpt lat="40.9288917" lon="14.4824317"><ele>31.0</ele><time>2026-03-29T08:29:10.294Z</time></trkpt><trkpt lat="40.9288533" lon="14.4823167"><ele>31.0</ele><time>2026-03-29T08:29:11.295Z</time></trkpt><trkpt lat="40.9288117" lon="14.4822"><ele>30.6</ele><time>2026-03-29T08:29:12.294Z</time></trkpt><trkpt lat="40.9287617" lon="14.4820767"><ele>30.200000000000003</ele><time>2026-03-29T08:29:13.294Z</time></trkpt><trkpt lat="40.9287133" lon="14.481955"><ele>29.799999999999997</ele><time>2026-03-29T08:29:14.294Z</time></trkpt><trkpt lat="40.9286633" lon="14.4818333"><ele>29.4</ele><time>2026-03-29T08:29:15.294Z</time></trkpt><trkpt lat="40.9286117" lon="14.4817117"><ele>29.0</ele><time>2026-03-29T08:29:16.294Z</time></trkpt><trkpt lat="40.9285617" lon="14.4815883"><ele>29.0</ele><time>2026-03-29T08:29:17.294Z</time></trkpt><trkpt lat="40.9285133" lon="14.4814667"><ele>29.0</ele><time>2026-03-29T08:29:18.295Z</time></trkpt><trkpt lat="40.928465" lon="14.4813483"><ele>29.0</ele><time>2026-03-29T08:29:19.295Z</time></trkpt><trkpt lat="40.928415" lon="14.48123"><ele>29.0</ele><time>2026-03-29T08:29:20.294Z</time></trkpt><trkpt lat="40.9283683" lon="14.4811117"><ele>29.0</ele><time>2026-03-29T08:29:21.294Z</time></trkpt><trkpt lat="40.9283217" lon="14.4809933"><ele>29.2</ele><time>2026-03-29T08:29:22.294Z</time></trkpt><trkpt lat="40.9282717" lon="14.4808783"><ele>29.4</ele><time>2026-03-29T08:29:23.294Z</time></trkpt><trkpt lat="40.9282217" lon="14.4807667"><ele>29.6</ele><time>2026-03-29T08:29:24.294Z</time></trkpt><trkpt lat="40.9281717" lon="14.48065"><ele>29.8</ele><time>2026-03-29T08:29:25.295Z</time></trkpt><trkpt lat="40.9281233" lon="14.4805367"><ele>30.0</ele><time>2026-03-29T08:29:26.294Z</time></trkpt><trkpt lat="40.928075" lon="14.4804233"><ele>30.0</ele><time>2026-03-29T08:29:27.295Z</time></trkpt><trkpt lat="40.9280267" lon="14.48031"><ele>30.0</ele><time>2026-03-29T08:29:28.294Z</time></trkpt><trkpt lat="40.92798" lon="14.4802"><ele>30.0</ele><time>2026-03-29T08:29:29.295Z</time></trkpt><trkpt lat="40.9279317" lon="14.48009"><ele>30.0</ele><time>2026-03-29T08:29:30.294Z</time></trkpt><trkpt lat="40.927885" lon="14.4799783"><ele>30.0</ele><time>2026-03-29T08:29:31.297Z</time></trkpt><trkpt lat="40.9278383" lon="14.479865"><ele>30.0</ele><time>2026-03-29T08:29:32.294Z</time></trkpt><trkpt lat="40.927795" lon="14.4797533"><ele>30.0</ele><time>2026-03-29T08:29:33.294Z</time></trkpt><trkpt lat="40.9277517" lon="14.4796433"><ele>30.0</ele><time>2026-03-29T08:29:34.294Z</time></trkpt><trkpt lat="40.927705" lon="14.479535"><ele>30.0</ele><time>2026-03-29T08:29:35.294Z</time></trkpt><trkpt lat="40.9276583" lon="14.4794283"><ele>30.0</ele><time>2026-03-29T08:29:36.294Z</time></trkpt><trkpt lat="40.927615" lon="14.4793233"><ele>30.0</ele><time>2026-03-29T08:29:37.294Z</time></trkpt><trkpt lat="40.927575" lon="14.4792217"><ele>30.0</ele><time>2026-03-29T08:29:38.294Z</time></trkpt><trkpt lat="40.9275433" lon="14.4791217"><ele>30.0</ele><time>2026-03-29T08:29:39.297Z</time></trkpt><trkpt lat="40.9275233" lon="14.479025"><ele>30.0</ele><time>2026-03-29T08:29:40.294Z</time></trkpt><trkpt lat="40.9275233" lon="14.478935"><ele>30.0</ele><time>2026-03-29T08:29:41.294Z</time></trkpt><trkpt lat="40.9275317" lon="14.478845"><ele>30.0</ele><time>2026-03-29T08:29:42.295Z</time></trkpt><trkpt lat="40.92755" lon="14.4787583"><ele>30.0</ele><time>2026-03-29T08:29:43.294Z</time></trkpt><trkpt lat="40.927585" lon="14.478605"><ele>30.0</ele><time>2026-03-29T08:29:45.294Z</time></trkpt><trkpt lat="40.9276" lon="14.47848"><ele>30.0</ele><time>2026-03-29T08:29:47.294Z</time></trkpt><trkpt lat="40.9276217" lon="14.478395"><ele>30.0</ele><time>2026-03-29T08:29:49.294Z</time></trkpt><trkpt lat="40.9275867" lon="14.4783133"><ele>30.0</ele><time>2026-03-29T08:29:52.294Z</time></trkpt><trkpt lat="40.9275117" lon="14.4783283"><ele>30.0</ele><time>2026-03-29T08:29:54.294Z</time></trkpt><trkpt lat="40.927435" lon="14.478295"><ele>30.0</ele><time>2026-03-29T08:29:57.292Z</time></trkpt><trkpt lat="40.9275033" lon="14.4782383"><ele>30.0</ele><time>2026-03-29T08:32:19.296Z</time></trkpt><trkpt lat="40.9275833" lon="14.4781783"><ele>30.0</ele><time>2026-03-29T08:32:20.295Z</time></trkpt><trkpt lat="40.9275917" lon="14.4780817"><ele>30.0</ele><time>2026-03-29T08:32:49.296Z</time></trkpt><trkpt lat="40.9276033" lon="14.4781767"><ele>30.0</ele><time>2026-03-29T08:35:25.299Z</time></trkpt><trkpt lat="40.927535" lon="14.47814"><ele>30.0</ele><time>2026-03-29T08:35:28.295Z</time></trkpt><trkpt lat="40.9274767" lon="14.4781033"><ele>30.0</ele><time>2026-03-29T08:35:30.296Z</time></trkpt><trkpt lat="40.9274117" lon="14.4781517"><ele>30.0</ele><time>2026-03-29T08:35:34.296Z</time></trkpt><trkpt lat="40.9273833" lon="14.4782317"><ele>30.0</ele><time>2026-03-29T08:35:37.294Z</time></trkpt><trkpt lat="40.92732" lon="14.4782367"><ele>30.0</ele><time>2026-03-29T08:35:39.295Z</time></trkpt><trkpt lat="40.9272617" lon="14.478205"><ele>30.0</ele><time>2026-03-29T08:35:41.294Z</time></trkpt><trkpt lat="40.92721" lon="14.4781367"><ele>30.0</ele><time>2026-03-29T08:35:44.293Z</time></trkpt><trkpt lat="40.9271483" lon="14.4780417"><ele>30.0</ele><time>2026-03-29T08:35:47.293Z</time></trkpt><trkpt lat="40.9271017" lon="14.4779717"><ele>30.0</ele><time>2026-03-29T08:35:49.293Z</time></trkpt><trkpt lat="40.9270517" lon="14.4778867"><ele>30.0</ele><time>2026-03-29T08:35:51.293Z</time></trkpt><trkpt lat="40.927005" lon="14.4777983"><ele>30.0</ele><time>2026-03-29T08:35:53.294Z</time></trkpt><trkpt lat="40.92696" lon="14.4776983"><ele>30.0</ele><time>2026-03-29T08:35:55.294Z</time></trkpt><trkpt lat="40.9269083" lon="14.47759"><ele>30.0</ele><time>2026-03-29T08:35:57.293Z</time></trkpt><trkpt lat="40.9268533" lon="14.47746"><ele>30.0</ele><time>2026-03-29T08:35:59.295Z</time></trkpt><trkpt lat="40.9268283" lon="14.4773767"><ele>30.0</ele><time>2026-03-29T08:36:00.293Z</time></trkpt><trkpt lat="40.926805" lon="14.4772933"><ele>30.0</ele><time>2026-03-29T08:36:01.295Z</time></trkpt><trkpt lat="40.926775" lon="14.477215"><ele>30.0</ele><time>2026-03-29T08:36:02.293Z</time></trkpt><trkpt lat="40.9267517" lon="14.4771333"><ele>30.0</ele><time>2026-03-29T08:36:03.294Z</time></trkpt><trkpt lat="40.9267267" lon="14.4770517"><ele>30.0</ele><time>2026-03-29T08:36:04.294Z</time></trkpt><trkpt lat="40.9267017" lon="14.476975"><ele>30.0</ele><time>2026-03-29T08:36:05.294Z</time></trkpt><trkpt lat="40.9266517" lon="14.4768283"><ele>30.0</ele><time>2026-03-29T08:36:07.295Z</time></trkpt><trkpt lat="40.9266033" lon="14.4766867"><ele>30.142857142857146</ele><time>2026-03-29T08:36:09.293Z</time></trkpt><trkpt lat="40.926575" lon="14.4766117"><ele>30.285714285714285</ele><time>2026-03-29T08:36:10.293Z</time></trkpt><trkpt lat="40.9265483" lon="14.4765283"><ele>30.42857142857143</ele><time>2026-03-29T08:36:11.294Z</time></trkpt><trkpt lat="40.9265233" lon="14.4764433"><ele>30.571428571428573</ele><time>2026-03-29T08:36:12.293Z</time></trkpt><trkpt lat="40.9265" lon="14.4763567"><ele>30.714285714285715</ele><time>2026-03-29T08:36:13.293Z</time></trkpt><trkpt lat="40.9264783" lon="14.4762717"><ele>30.857142857142858</ele><time>2026-03-29T08:36:14.293Z</time></trkpt><trkpt lat="40.9264567" lon="14.4761883"><ele>31.0</ele><time>2026-03-29T08:36:15.293Z</time></trkpt><trkpt lat="40.926435" lon="14.476105"><ele>30.714285714285715</ele><time>2026-03-29T08:36:16.293Z</time></trkpt><trkpt lat="40.926415" lon="14.4760183"><ele>30.42857142857143</ele><time>2026-03-29T08:36:17.293Z</time></trkpt><trkpt lat="40.926395" lon="14.475935"><ele>30.142857142857146</ele><time>2026-03-29T08:36:18.294Z</time></trkpt><trkpt lat="40.92637" lon="14.4758483"><ele>29.85714285714286</ele><time>2026-03-29T08:36:19.294Z</time></trkpt><trkpt lat="40.926345" lon="14.47576"><ele>29.571428571428573</ele><time>2026-03-29T08:36:20.293Z</time></trkpt><trkpt lat="40.92632" lon="14.475675"><ele>29.285714285714292</ele><time>2026-03-29T08:36:21.293Z</time></trkpt><trkpt lat="40.926295" lon="14.47559"><ele>29.000000000000004</ele><time>2026-03-29T08:36:22.294Z</time></trkpt><trkpt lat="40.9262717" lon="14.4755083"><ele>28.799999999999997</ele><time>2026-03-29T08:36:23.294Z</time></trkpt><trkpt lat="40.92624" lon="14.4753583"><ele>28.599999999999998</ele><time>2026-03-29T08:36:25.294Z</time></trkpt><trkpt lat="40.9262067" lon="14.475205"><ele>28.4</ele><time>2026-03-29T08:36:27.293Z</time></trkpt><trkpt lat="40.9261917" lon="14.4750433"><ele>28.2</ele><time>2026-03-29T08:36:29.294Z</time></trkpt><trkpt lat="40.9261967" lon="14.474955"><ele>28.0</ele><time>2026-03-29T08:36:30.294Z</time></trkpt><trkpt lat="40.9262" lon="14.4748667"><ele>28.0</ele><time>2026-03-29T08:36:31.293Z</time></trkpt><trkpt lat="40.9262" lon="14.474775"><ele>28.0</ele><time>2026-03-29T08:36:32.294Z</time></trkpt><trkpt lat="40.92619" lon="14.4746833"><ele>28.0</ele><time>2026-03-29T08:36:33.293Z</time></trkpt><trkpt lat="40.9261733" lon="14.4745867"><ele>28.0</ele><time>2026-03-29T08:36:34.294Z</time></trkpt><trkpt lat="40.9261617" lon="14.4744867"><ele>28.0</ele><time>2026-03-29T08:36:35.294Z</time></trkpt><trkpt lat="40.92616" lon="14.4743883"><ele>28.0</ele><time>2026-03-29T08:36:36.294Z</time></trkpt><trkpt lat="40.926165" lon="14.474285"><ele>28.0</ele><time>2026-03-29T08:36:37.296Z</time></trkpt><trkpt lat="40.9261733" lon="14.4741867"><ele>28.0</ele><time>2026-03-29T08:36:38.294Z</time></trkpt><trkpt lat="40.9261817" lon="14.4740883"><ele>28.0</ele><time>2026-03-29T08:36:39.293Z</time></trkpt><trkpt lat="40.92619" lon="14.47399"><ele>28.0</ele><time>2026-03-29T08:36:40.294Z</time></trkpt><trkpt lat="40.9261967" lon="14.473895"><ele>28.0</ele><time>2026-03-29T08:36:41.294Z</time></trkpt><trkpt lat="40.9262033" lon="14.4737983"><ele>28.0</ele><time>2026-03-29T08:36:42.293Z</time></trkpt><trkpt lat="40.926215" lon="14.4737"><ele>28.0</ele><time>2026-03-29T08:36:43.294Z</time></trkpt><trkpt lat="40.9262267" lon="14.4735967"><ele>28.0</ele><time>2026-03-29T08:36:44.294Z</time></trkpt><trkpt lat="40.9262383" lon="14.4734933"><ele>28.166666666666668</ele><time>2026-03-29T08:36:45.296Z</time></trkpt><trkpt lat="40.9262517" lon="14.4733883"><ele>28.333333333333336</ele><time>2026-03-29T08:36:46.294Z</time></trkpt><trkpt lat="40.9262667" lon="14.4732833"><ele>28.5</ele><time>2026-03-29T08:36:47.294Z</time></trkpt><trkpt lat="40.9262833" lon="14.4731783"><ele>28.666666666666664</ele><time>2026-03-29T08:36:48.294Z</time></trkpt><trkpt lat="40.9263017" lon="14.4730717"><ele>28.833333333333332</ele><time>2026-03-29T08:36:49.294Z</time></trkpt><trkpt lat="40.92632" lon="14.472965"><ele>29.0</ele><time>2026-03-29T08:36:50.294Z</time></trkpt><trkpt lat="40.9263367" lon="14.472855"><ele>28.999999999999996</ele><time>2026-03-29T08:36:51.294Z</time></trkpt><trkpt lat="40.9263567" lon="14.4727467"><ele>29.0</ele><time>2026-03-29T08:36:52.293Z</time></trkpt><trkpt lat="40.92638" lon="14.4726367"><ele>29.0</ele><time>2026-03-29T08:36:53.295Z</time></trkpt><trkpt lat="40.9264083" lon="14.4725317"><ele>29.0</ele><time>2026-03-29T08:36:54.294Z</time></trkpt><trkpt lat="40.9264383" lon="14.4724333"><ele>28.999999999999996</ele><time>2026-03-29T08:36:55.294Z</time></trkpt><trkpt lat="40.9264667" lon="14.47233"><ele>29.0</ele><time>2026-03-29T08:36:56.294Z</time></trkpt><trkpt lat="40.9264967" lon="14.4722317"><ele>28.999999999999996</ele><time>2026-03-29T08:36:57.294Z</time></trkpt><trkpt lat="40.9265267" lon="14.472135"><ele>29.0</ele><time>2026-03-29T08:36:58.294Z</time></trkpt><trkpt lat="40.9265583" lon="14.47204"><ele>29.0</ele><time>2026-03-29T08:36:59.294Z</time></trkpt><trkpt lat="40.9265917" lon="14.4719417"><ele>29.0</ele><time>2026-03-29T08:37:00.294Z</time></trkpt><trkpt lat="40.926625" lon="14.4718467"><ele>28.999999999999996</ele><time>2026-03-29T08:37:01.295Z</time></trkpt><trkpt lat="40.9266583" lon="14.47175"><ele>29.0</ele><time>2026-03-29T08:37:02.295Z</time></trkpt><trkpt lat="40.9266917" lon="14.471655"><ele>28.999999999999996</ele><time>2026-03-29T08:37:03.293Z</time></trkpt><trkpt lat="40.9267267" lon="14.4715617"><ele>29.0</ele><time>2026-03-29T08:37:04.294Z</time></trkpt><trkpt lat="40.9267633" lon="14.4714667"><ele>29.0</ele><time>2026-03-29T08:37:05.294Z</time></trkpt><trkpt lat="40.9268067" lon="14.4713733"><ele>29.0</ele><time>2026-03-29T08:37:06.294Z</time></trkpt><trkpt lat="40.9268517" lon="14.47128"><ele>28.999999999999996</ele><time>2026-03-29T08:37:07.294Z</time></trkpt><trkpt lat="40.9268983" lon="14.4711817"><ele>29.0</ele><time>2026-03-29T08:37:08.294Z</time></trkpt><trkpt lat="40.9269433" lon="14.471085"><ele>29.166666666666664</ele><time>2026-03-29T08:37:09.294Z</time></trkpt><trkpt lat="40.9269917" lon="14.4709933"><ele>29.333333333333332</ele><time>2026-03-29T08:37:10.293Z</time></trkpt><trkpt lat="40.9270433" lon="14.4708967"><ele>29.5</ele><time>2026-03-29T08:37:11.294Z</time></trkpt><trkpt lat="40.9270917" lon="14.47081"><ele>29.666666666666664</ele><time>2026-03-29T08:37:12.294Z</time></trkpt><trkpt lat="40.92714" lon="14.4707183"><ele>29.833333333333332</ele><time>2026-03-29T08:37:13.294Z</time></trkpt><trkpt lat="40.9271917" lon="14.4706317"><ele>30.0</ele><time>2026-03-29T08:37:14.294Z</time></trkpt><trkpt lat="40.9272433" lon="14.47055"><ele>30.0</ele><time>2026-03-29T08:37:15.293Z</time></trkpt><trkpt lat="40.92729" lon="14.47047"><ele>30.0</ele><time>2026-03-29T08:37:16.294Z</time></trkpt><trkpt lat="40.9273383" lon="14.4703867"><ele>30.0</ele><time>2026-03-29T08:37:17.294Z</time></trkpt><trkpt lat="40.9273917" lon="14.4703067"><ele>30.0</ele><time>2026-03-29T08:37:18.293Z</time></trkpt><trkpt lat="40.9274483" lon="14.4702367"><ele>30.0</ele><time>2026-03-29T08:37:19.293Z</time></trkpt><trkpt lat="40.927515" lon="14.47018"><ele>30.0</ele><time>2026-03-29T08:37:20.296Z</time></trkpt><trkpt lat="40.9275867" lon="14.4701283"><ele>30.0</ele><time>2026-03-29T08:37:21.294Z</time></trkpt><trkpt lat="40.92766" lon="14.4700833"><ele>30.0</ele><time>2026-03-29T08:37:22.293Z</time></trkpt><trkpt lat="40.9277333" lon="14.47003"><ele>30.0</ele><time>2026-03-29T08:37:23.294Z</time></trkpt><trkpt lat="40.92779" lon="14.4699633"><ele>30.0</ele><time>2026-03-29T08:37:24.293Z</time></trkpt><trkpt lat="40.9278233" lon="14.4698783"><ele>30.0</ele><time>2026-03-29T08:37:25.293Z</time></trkpt><trkpt lat="40.92784" lon="14.4697767"><ele>30.0</ele><time>2026-03-29T08:37:26.296Z</time></trkpt><trkpt lat="40.9278633" lon="14.4696717"><ele>29.833333333333332</ele><time>2026-03-29T08:37:27.293Z</time></trkpt><trkpt lat="40.9278967" lon="14.46958"><ele>29.666666666666664</ele><time>2026-03-29T08:37:28.294Z</time></trkpt><trkpt lat="40.9279433" lon="14.469495"><ele>29.5</ele><time>2026-03-29T08:37:29.294Z</time></trkpt><trkpt lat="40.9279967" lon="14.469415"><ele>29.333333333333332</ele><time>2026-03-29T08:37:30.294Z</time></trkpt><trkpt lat="40.92805" lon="14.4693317"><ele>29.166666666666664</ele><time>2026-03-29T08:37:31.293Z</time></trkpt><trkpt lat="40.928105" lon="14.4692483"><ele>29.0</ele><time>2026-03-29T08:37:32.293Z</time></trkpt><trkpt lat="40.9281617" lon="14.4691683"><ele>28.999999999999996</ele><time>2026-03-29T08:37:33.293Z</time></trkpt><trkpt lat="40.92822" lon="14.46909"><ele>29.0</ele><time>2026-03-29T08:37:34.294Z</time></trkpt><trkpt lat="40.92828" lon="14.46901"><ele>29.0</ele><time>2026-03-29T08:37:35.293Z</time></trkpt><trkpt lat="40.9283383" lon="14.46893"><ele>29.0</ele><time>2026-03-29T08:37:36.293Z</time></trkpt><trkpt lat="40.9283933" lon="14.4688517"><ele>28.999999999999996</ele><time>2026-03-29T08:37:37.294Z</time></trkpt><trkpt lat="40.92845" lon="14.46877"><ele>29.0</ele><time>2026-03-29T08:37:38.294Z</time></trkpt><trkpt lat="40.928505" lon="14.46869"><ele>28.999999999999996</ele><time>2026-03-29T08:37:39.293Z</time></trkpt><trkpt lat="40.92856" lon="14.46861"><ele>29.0</ele><time>2026-03-29T08:37:40.294Z</time></trkpt><trkpt lat="40.9286167" lon="14.4685333"><ele>29.0</ele><time>2026-03-29T08:37:41.294Z</time></trkpt><trkpt lat="40.9286733" lon="14.4684567"><ele>29.0</ele><time>2026-03-29T08:37:42.294Z</time></trkpt><trkpt lat="40.9287267" lon="14.4683833"><ele>28.999999999999996</ele><time>2026-03-29T08:37:43.294Z</time></trkpt><trkpt lat="40.9287767" lon="14.4683033"><ele>29.0</ele><time>2026-03-29T08:37:44.294Z</time></trkpt><trkpt lat="40.928825" lon="14.468225"><ele>28.999999999999996</ele><time>2026-03-29T08:37:45.293Z</time></trkpt><trkpt lat="40.9288733" lon="14.4681483"><ele>29.0</ele><time>2026-03-29T08:37:46.294Z</time></trkpt><trkpt lat="40.9289233" lon="14.46807"><ele>29.0</ele><time>2026-03-29T08:37:47.294Z</time></trkpt><trkpt lat="40.928975" lon="14.467995"><ele>29.0</ele><time>2026-03-29T08:37:48.293Z</time></trkpt><trkpt lat="40.9290283" lon="14.4679117"><ele>28.999999999999996</ele><time>2026-03-29T08:37:49.294Z</time></trkpt><trkpt lat="40.92908" lon="14.4678267"><ele>29.0</ele><time>2026-03-29T08:37:50.294Z</time></trkpt><trkpt lat="40.92913" lon="14.467745"><ele>28.833333333333332</ele><time>2026-03-29T08:37:51.294Z</time></trkpt><trkpt lat="40.9291833" lon="14.4676683"><ele>28.666666666666664</ele><time>2026-03-29T08:37:52.294Z</time></trkpt><trkpt lat="40.9292383" lon="14.4675867"><ele>28.5</ele><time>2026-03-29T08:37:53.294Z</time></trkpt><trkpt lat="40.9292933" lon="14.4675067"><ele>28.333333333333336</ele><time>2026-03-29T08:37:54.294Z</time></trkpt><trkpt lat="40.9293533" lon="14.4674267"><ele>28.166666666666668</ele><time>2026-03-29T08:37:55.294Z</time></trkpt><trkpt lat="40.9294117" lon="14.4673417"><ele>28.0</ele><time>2026-03-29T08:37:56.294Z</time></trkpt><trkpt lat="40.9294667" lon="14.467255"><ele>27.833333333333336</ele><time>2026-03-29T08:37:57.294Z</time></trkpt><trkpt lat="40.92952" lon="14.4671683"><ele>27.666666666666668</ele><time>2026-03-29T08:37:58.294Z</time></trkpt><trkpt lat="40.9295733" lon="14.4670833"><ele>27.5</ele><time>2026-03-29T08:37:59.294Z</time></trkpt><trkpt lat="40.9296267" lon="14.466995"><ele>27.333333333333336</ele><time>2026-03-29T08:38:00.294Z</time></trkpt><trkpt lat="40.9296767" lon="14.4669067"><ele>27.166666666666668</ele><time>2026-03-29T08:38:01.294Z</time></trkpt><trkpt lat="40.9297267" lon="14.4668167"><ele>27.0</ele><time>2026-03-29T08:38:02.294Z</time></trkpt><trkpt lat="40.9297733" lon="14.466725"><ele>27.333333333333332</ele><time>2026-03-29T08:38:03.294Z</time></trkpt><trkpt lat="40.9298233" lon="14.466635"><ele>27.666666666666664</ele><time>2026-03-29T08:38:04.294Z</time></trkpt><trkpt lat="40.9298733" lon="14.4665417"><ele>28.0</ele><time>2026-03-29T08:38:05.294Z</time></trkpt><trkpt lat="40.9299233" lon="14.4664467"><ele>28.333333333333332</ele><time>2026-03-29T08:38:06.295Z</time></trkpt><trkpt lat="40.92997" lon="14.4663517"><ele>28.666666666666664</ele><time>2026-03-29T08:38:07.294Z</time></trkpt><trkpt lat="40.930015" lon="14.46625"><ele>29.0</ele><time>2026-03-29T08:38:08.297Z</time></trkpt><trkpt lat="40.930055" lon="14.4661483"><ele>29.4</ele><time>2026-03-29T08:38:09.293Z</time></trkpt><trkpt lat="40.930095" lon="14.466045"><ele>29.799999999999997</ele><time>2026-03-29T08:38:10.294Z</time></trkpt><trkpt lat="40.9301383" lon="14.465935"><ele>30.200000000000003</ele><time>2026-03-29T08:38:11.294Z</time></trkpt><trkpt lat="40.9301833" lon="14.4658217"><ele>30.6</ele><time>2026-03-29T08:38:12.294Z</time></trkpt><trkpt lat="40.93022" lon="14.4657067"><ele>31.0</ele><time>2026-03-29T08:38:13.294Z</time></trkpt><trkpt lat="40.9302533" lon="14.4655867"><ele>31.0</ele><time>2026-03-29T08:38:14.294Z</time></trkpt><trkpt lat="40.9302883" lon="14.4654717"><ele>31.0</ele><time>2026-03-29T08:38:15.294Z</time></trkpt><trkpt lat="40.9303233" lon="14.4653567"><ele>31.0</ele><time>2026-03-29T08:38:16.294Z</time></trkpt><trkpt lat="40.930355" lon="14.46524"><ele>31.0</ele><time>2026-03-29T08:38:17.294Z</time></trkpt><trkpt lat="40.9303833" lon="14.46512"><ele>31.0</ele><time>2026-03-29T08:38:18.294Z</time></trkpt><trkpt lat="40.9304117" lon="14.465"><ele>30.6</ele><time>2026-03-29T08:38:19.293Z</time></trkpt><trkpt lat="40.9304383" lon="14.4648783"><ele>30.200000000000003</ele><time>2026-03-29T08:38:20.295Z</time></trkpt><trkpt lat="40.930465" lon="14.46475"><ele>29.799999999999997</ele><time>2026-03-29T08:38:21.293Z</time></trkpt><trkpt lat="40.93049" lon="14.464625"><ele>29.4</ele><time>2026-03-29T08:38:22.294Z</time></trkpt><trkpt lat="40.9305133" lon="14.4645033"><ele>29.0</ele><time>2026-03-29T08:38:23.294Z</time></trkpt><trkpt lat="40.930525" lon="14.46438"><ele>29.0</ele><time>2026-03-29T08:38:24.295Z</time></trkpt><trkpt lat="40.930535" lon="14.4642567"><ele>29.0</ele><time>2026-03-29T08:38:25.295Z</time></trkpt><trkpt lat="40.9305467" lon="14.46413"><ele>29.0</ele><time>2026-03-29T08:38:26.294Z</time></trkpt><trkpt lat="40.930555" lon="14.464005"><ele>29.0</ele><time>2026-03-29T08:38:27.294Z</time></trkpt><trkpt lat="40.9305717" lon="14.4638833"><ele>29.0</ele><time>2026-03-29T08:38:28.295Z</time></trkpt><trkpt lat="40.9305783" lon="14.4637633"><ele>29.0</ele><time>2026-03-29T08:38:29.294Z</time></trkpt><trkpt lat="40.9305817" lon="14.46365"><ele>29.0</ele><time>2026-03-29T08:38:30.294Z</time></trkpt><trkpt lat="40.9305883" lon="14.4635317"><ele>29.0</ele><time>2026-03-29T08:38:31.3Z</time></trkpt><trkpt lat="40.930595" lon="14.46341"><ele>29.0</ele><time>2026-03-29T08:38:32.294Z</time></trkpt><trkpt lat="40.9306017" lon="14.4632867"><ele>29.0</ele><time>2026-03-29T08:38:33.295Z</time></trkpt><trkpt lat="40.9306083" lon="14.4631667"><ele>29.0</ele><time>2026-03-29T08:38:34.294Z</time></trkpt><trkpt lat="40.930615" lon="14.463045"><ele>29.0</ele><time>2026-03-29T08:38:35.294Z</time></trkpt><trkpt lat="40.9306217" lon="14.4629267"><ele>29.0</ele><time>2026-03-29T08:38:36.294Z</time></trkpt><trkpt lat="40.9306283" lon="14.4628067"><ele>29.0</ele><time>2026-03-29T08:38:37.294Z</time></trkpt><trkpt lat="40.9306333" lon="14.4626867"><ele>29.0</ele><time>2026-03-29T08:38:38.293Z</time></trkpt><trkpt lat="40.9306383" lon="14.4625633"><ele>29.0</ele><time>2026-03-29T08:38:39.293Z</time></trkpt><trkpt lat="40.9306417" lon="14.4624383"><ele>29.0</ele><time>2026-03-29T08:38:40.294Z</time></trkpt><trkpt lat="40.9306467" lon="14.462315"><ele>29.0</ele><time>2026-03-29T08:38:41.294Z</time></trkpt><trkpt lat="40.93065" lon="14.46219"><ele>29.0</ele><time>2026-03-29T08:38:42.294Z</time></trkpt><trkpt lat="40.9306567" lon="14.4620717"><ele>29.0</ele><time>2026-03-29T08:38:43.294Z</time></trkpt><trkpt lat="40.9306667" lon="14.46196"><ele>28.799999999999997</ele><time>2026-03-29T08:38:44.294Z</time></trkpt><trkpt lat="40.9306767" lon="14.4618467"><ele>28.599999999999998</ele><time>2026-03-29T08:38:45.294Z</time></trkpt><trkpt lat="40.9306867" lon="14.4617267"><ele>28.4</ele><time>2026-03-29T08:38:46.294Z</time></trkpt><trkpt lat="40.9307017" lon="14.461605"><ele>28.2</ele><time>2026-03-29T08:38:47.294Z</time></trkpt><trkpt lat="40.93072" lon="14.461485"><ele>28.0</ele><time>2026-03-29T08:38:48.294Z</time></trkpt><trkpt lat="40.9307383" lon="14.4613633"><ele>28.000000000000004</ele><time>2026-03-29T08:38:49.294Z</time></trkpt><trkpt lat="40.93076" lon="14.4612483"><ele>28.0</ele><time>2026-03-29T08:38:50.294Z</time></trkpt><trkpt lat="40.930785" lon="14.4611333"><ele>28.0</ele><time>2026-03-29T08:38:51.294Z</time></trkpt><trkpt lat="40.93081" lon="14.4610233"><ele>28.0</ele><time>2026-03-29T08:38:52.294Z</time></trkpt><trkpt lat="40.930835" lon="14.4609117"><ele>28.000000000000004</ele><time>2026-03-29T08:38:53.295Z</time></trkpt><trkpt lat="40.9308617" lon="14.4608033"><ele>28.0</ele><time>2026-03-29T08:38:54.294Z</time></trkpt><trkpt lat="40.93089" lon="14.4606967"><ele>28.000000000000004</ele><time>2026-03-29T08:38:55.293Z</time></trkpt><trkpt lat="40.9309233" lon="14.4605933"><ele>28.0</ele><time>2026-03-29T08:38:56.294Z</time></trkpt><trkpt lat="40.930955" lon="14.4604933"><ele>28.0</ele><time>2026-03-29T08:38:57.294Z</time></trkpt><trkpt lat="40.9309833" lon="14.460395"><ele>28.0</ele><time>2026-03-29T08:38:58.294Z</time></trkpt><trkpt lat="40.9310133" lon="14.4602983"><ele>28.000000000000004</ele><time>2026-03-29T08:38:59.295Z</time></trkpt><trkpt lat="40.93104" lon="14.4602033"><ele>28.0</ele><time>2026-03-29T08:39:00.294Z</time></trkpt><trkpt lat="40.93107" lon="14.46011"><ele>28.142857142857142</ele><time>2026-03-29T08:39:01.294Z</time></trkpt><trkpt lat="40.931095" lon="14.460015"><ele>28.285714285714285</ele><time>2026-03-29T08:39:02.294Z</time></trkpt><trkpt lat="40.9311217" lon="14.4599217"><ele>28.42857142857143</ele><time>2026-03-29T08:39:03.293Z</time></trkpt><trkpt lat="40.9311483" lon="14.45983"><ele>28.571428571428573</ele><time>2026-03-29T08:39:04.294Z</time></trkpt><trkpt lat="40.931175" lon="14.4597417"><ele>28.714285714285715</ele><time>2026-03-29T08:39:05.294Z</time></trkpt><trkpt lat="40.931205" lon="14.4596517"><ele>28.85714285714286</ele><time>2026-03-29T08:39:06.294Z</time></trkpt><trkpt lat="40.9312333" lon="14.4595633"><ele>29.000000000000004</ele><time>2026-03-29T08:39:07.295Z</time></trkpt><trkpt lat="40.9312567" lon="14.4594733"><ele>29.166666666666664</ele><time>2026-03-29T08:39:08.294Z</time></trkpt><trkpt lat="40.9312817" lon="14.45938"><ele>29.333333333333332</ele><time>2026-03-29T08:39:09.294Z</time></trkpt><trkpt lat="40.93131" lon="14.4592867"><ele>29.5</ele><time>2026-03-29T08:39:10.294Z</time></trkpt><trkpt lat="40.9313333" lon="14.4591933"><ele>29.666666666666664</ele><time>2026-03-29T08:39:11.294Z</time></trkpt><trkpt lat="40.93136" lon="14.4590933"><ele>29.833333333333332</ele><time>2026-03-29T08:39:12.294Z</time></trkpt><trkpt lat="40.9313883" lon="14.458995"><ele>30.0</ele><time>2026-03-29T08:39:13.295Z</time></trkpt><trkpt lat="40.931415" lon="14.458895"><ele>30.0</ele><time>2026-03-29T08:39:14.296Z</time></trkpt><trkpt lat="40.9314383" lon="14.4587917"><ele>30.0</ele><time>2026-03-29T08:39:15.294Z</time></trkpt><trkpt lat="40.931465" lon="14.4586933"><ele>30.0</ele><time>2026-03-29T08:39:16.294Z</time></trkpt><trkpt lat="40.931495" lon="14.4585883"><ele>30.0</ele><time>2026-03-29T08:39:17.294Z</time></trkpt><trkpt lat="40.931525" lon="14.4584817"><ele>30.0</ele><time>2026-03-29T08:39:18.294Z</time></trkpt><trkpt lat="40.9315583" lon="14.4583767"><ele>30.0</ele><time>2026-03-29T08:39:19.294Z</time></trkpt><trkpt lat="40.9315917" lon="14.45827"><ele>30.0</ele><time>2026-03-29T08:39:20.295Z</time></trkpt><trkpt lat="40.9316217" lon="14.458165"><ele>30.0</ele><time>2026-03-29T08:39:21.294Z</time></trkpt><trkpt lat="40.93165" lon="14.4580617"><ele>30.0</ele><time>2026-03-29T08:39:22.294Z</time></trkpt><trkpt lat="40.9316767" lon="14.4579567"><ele>30.0</ele><time>2026-03-29T08:39:23.294Z</time></trkpt><trkpt lat="40.931705" lon="14.4578533"><ele>30.0</ele><time>2026-03-29T08:39:24.294Z</time></trkpt><trkpt lat="40.931735" lon="14.4577483"><ele>30.0</ele><time>2026-03-29T08:39:25.294Z</time></trkpt><trkpt lat="40.9317633" lon="14.45765"><ele>30.0</ele><time>2026-03-29T08:39:26.294Z</time></trkpt><trkpt lat="40.93179" lon="14.45755"><ele>30.0</ele><time>2026-03-29T08:39:27.294Z</time></trkpt><trkpt lat="40.9318183" lon="14.45745"><ele>30.0</ele><time>2026-03-29T08:39:28.294Z</time></trkpt><trkpt lat="40.9318433" lon="14.4573517"><ele>30.0</ele><time>2026-03-29T08:39:29.295Z</time></trkpt><trkpt lat="40.93187" lon="14.45725"><ele>30.0</ele><time>2026-03-29T08:39:30.294Z</time></trkpt><trkpt lat="40.9318967" lon="14.4571467"><ele>30.0</ele><time>2026-03-29T08:39:31.294Z</time></trkpt><trkpt lat="40.931925" lon="14.4570483"><ele>30.0</ele><time>2026-03-29T08:39:32.294Z</time></trkpt><trkpt lat="40.9319517" lon="14.4569483"><ele>30.0</ele><time>2026-03-29T08:39:33.294Z</time></trkpt><trkpt lat="40.9319783" lon="14.4568417"><ele>30.0</ele><time>2026-03-29T08:39:34.295Z</time></trkpt><trkpt lat="40.932005" lon="14.4567417"><ele>30.0</ele><time>2026-03-29T08:39:35.294Z</time></trkpt><trkpt lat="40.9320367" lon="14.4566383"><ele>30.0</ele><time>2026-03-29T08:39:36.294Z</time></trkpt><trkpt lat="40.9320633" lon="14.45654"><ele>30.0</ele><time>2026-03-29T08:39:37.294Z</time></trkpt><trkpt lat="40.9320883" lon="14.4564467"><ele>30.0</ele><time>2026-03-29T08:39:38.295Z</time></trkpt><trkpt lat="40.932115" lon="14.4563467"><ele>30.0</ele><time>2026-03-29T08:39:39.294Z</time></trkpt><trkpt lat="40.932145" lon="14.456245"><ele>30.0</ele><time>2026-03-29T08:39:40.294Z</time></trkpt><trkpt lat="40.9321717" lon="14.4561433"><ele>30.0</ele><time>2026-03-29T08:39:41.294Z</time></trkpt><trkpt lat="40.9322" lon="14.456045"><ele>30.0</ele><time>2026-03-29T08:39:42.294Z</time></trkpt><trkpt lat="40.9322333" lon="14.4559483"><ele>30.0</ele><time>2026-03-29T08:39:43.294Z</time></trkpt><trkpt lat="40.9322617" lon="14.4558483"><ele>30.166666666666668</ele><time>2026-03-29T08:39:44.294Z</time></trkpt><trkpt lat="40.9322883" lon="14.4557467"><ele>30.333333333333336</ele><time>2026-03-29T08:39:45.294Z</time></trkpt><trkpt lat="40.9323133" lon="14.4556483"><ele>30.5</ele><time>2026-03-29T08:39:46.294Z</time></trkpt><trkpt lat="40.9323383" lon="14.45555"><ele>30.666666666666668</ele><time>2026-03-29T08:39:47.294Z</time></trkpt><trkpt lat="40.932365" lon="14.4554533"><ele>30.833333333333336</ele><time>2026-03-29T08:39:48.294Z</time></trkpt><trkpt lat="40.93239" lon="14.4553533"><ele>31.0</ele><time>2026-03-29T08:39:49.295Z</time></trkpt><trkpt lat="40.9324183" lon="14.4552533"><ele>31.000000000000004</ele><time>2026-03-29T08:39:50.294Z</time></trkpt><trkpt lat="40.9324467" lon="14.4551567"><ele>31.0</ele><time>2026-03-29T08:39:51.293Z</time></trkpt><trkpt lat="40.9324833" lon="14.4550567"><ele>31.0</ele><time>2026-03-29T08:39:52.294Z</time></trkpt><trkpt lat="40.9325167" lon="14.4549633"><ele>31.0</ele><time>2026-03-29T08:39:53.294Z</time></trkpt><trkpt lat="40.9325533" lon="14.4548767"><ele>31.000000000000004</ele><time>2026-03-29T08:39:54.294Z</time></trkpt><trkpt lat="40.9326" lon="14.454795"><ele>31.0</ele><time>2026-03-29T08:39:55.295Z</time></trkpt><trkpt lat="40.9326383" lon="14.45471"><ele>30.833333333333336</ele><time>2026-03-29T08:39:56.294Z</time></trkpt><trkpt lat="40.9326583" lon="14.4546133"><ele>30.666666666666668</ele><time>2026-03-29T08:39:57.294Z</time></trkpt><trkpt lat="40.9326667" lon="14.45451"><ele>30.5</ele><time>2026-03-29T08:39:58.294Z</time></trkpt><trkpt lat="40.9326733" lon="14.4544033"><ele>30.333333333333336</ele><time>2026-03-29T08:39:59.294Z</time></trkpt><trkpt lat="40.932685" lon="14.4542983"><ele>30.166666666666668</ele><time>2026-03-29T08:40:00.294Z</time></trkpt><trkpt lat="40.9327033" lon="14.4541917"><ele>30.0</ele><time>2026-03-29T08:40:01.294Z</time></trkpt><trkpt lat="40.9327267" lon="14.454085"><ele>30.0</ele><time>2026-03-29T08:40:02.295Z</time></trkpt><trkpt lat="40.9327533" lon="14.45398"><ele>30.0</ele><time>2026-03-29T08:40:03.294Z</time></trkpt><trkpt lat="40.9327817" lon="14.45387"><ele>30.0</ele><time>2026-03-29T08:40:04.294Z</time></trkpt><trkpt lat="40.9328067" lon="14.4537617"><ele>30.0</ele><time>2026-03-29T08:40:05.294Z</time></trkpt><trkpt lat="40.93283" lon="14.4536483"><ele>30.0</ele><time>2026-03-29T08:40:06.294Z</time></trkpt><trkpt lat="40.932855" lon="14.453535"><ele>30.0</ele><time>2026-03-29T08:40:07.294Z</time></trkpt><trkpt lat="40.9328833" lon="14.4534283"><ele>29.8</ele><time>2026-03-29T08:40:08.294Z</time></trkpt><trkpt lat="40.93291" lon="14.4533183"><ele>29.6</ele><time>2026-03-29T08:40:09.293Z</time></trkpt><trkpt lat="40.9329367" lon="14.4532033"><ele>29.4</ele><time>2026-03-29T08:40:10.294Z</time></trkpt><trkpt lat="40.9329633" lon="14.4530883"><ele>29.2</ele><time>2026-03-29T08:40:11.294Z</time></trkpt><trkpt lat="40.9329917" lon="14.4529733"><ele>29.0</ele><time>2026-03-29T08:40:12.294Z</time></trkpt><trkpt lat="40.93302" lon="14.4528583"><ele>28.999999999999996</ele><time>2026-03-29T08:40:13.297Z</time></trkpt><trkpt lat="40.9330483" lon="14.4527433"><ele>29.0</ele><time>2026-03-29T08:40:14.295Z</time></trkpt><trkpt lat="40.9330767" lon="14.45263"><ele>29.0</ele><time>2026-03-29T08:40:15.294Z</time></trkpt><trkpt lat="40.9331033" lon="14.4525167"><ele>29.0</ele><time>2026-03-29T08:40:16.295Z</time></trkpt><trkpt lat="40.9331283" lon="14.4524067"><ele>28.999999999999996</ele><time>2026-03-29T08:40:17.295Z</time></trkpt><trkpt lat="40.9331567" lon="14.452295"><ele>29.0</ele><time>2026-03-29T08:40:18.294Z</time></trkpt><trkpt lat="40.933185" lon="14.4521867"><ele>28.999999999999996</ele><time>2026-03-29T08:40:19.295Z</time></trkpt><trkpt lat="40.9332133" lon="14.4520783"><ele>29.0</ele><time>2026-03-29T08:40:20.295Z</time></trkpt><trkpt lat="40.93324" lon="14.4519717"><ele>29.0</ele><time>2026-03-29T08:40:21.294Z</time></trkpt><trkpt lat="40.9332667" lon="14.4518683"><ele>29.0</ele><time>2026-03-29T08:40:22.294Z</time></trkpt><trkpt lat="40.9332933" lon="14.451765"><ele>28.999999999999996</ele><time>2026-03-29T08:40:23.294Z</time></trkpt><trkpt lat="40.93332" lon="14.45166"><ele>29.0</ele><time>2026-03-29T08:40:24.294Z</time></trkpt><trkpt lat="40.9333483" lon="14.45155"><ele>29.0</ele><time>2026-03-29T08:40:25.294Z</time></trkpt><trkpt lat="40.9333783" lon="14.451435"><ele>29.0</ele><time>2026-03-29T08:40:26.295Z</time></trkpt><trkpt lat="40.9334083" lon="14.451315"><ele>29.0</ele><time>2026-03-29T08:40:27.294Z</time></trkpt><trkpt lat="40.9334417" lon="14.45119"><ele>29.0</ele><time>2026-03-29T08:40:28.294Z</time></trkpt><trkpt lat="40.93347" lon="14.451065"><ele>29.0</ele><time>2026-03-29T08:40:29.294Z</time></trkpt><trkpt lat="40.9334967" lon="14.4509417"><ele>28.833333333333332</ele><time>2026-03-29T08:40:30.294Z</time></trkpt><trkpt lat="40.9335233" lon="14.4508233"><ele>28.666666666666664</ele><time>2026-03-29T08:40:31.296Z</time></trkpt><trkpt lat="40.93355" lon="14.4507083"><ele>28.5</ele><time>2026-03-29T08:40:32.295Z</time></trkpt><trkpt lat="40.933575" lon="14.4505967"><ele>28.333333333333336</ele><time>2026-03-29T08:40:33.294Z</time></trkpt><trkpt lat="40.9336017" lon="14.450485"><ele>28.166666666666668</ele><time>2026-03-29T08:40:34.294Z</time></trkpt><trkpt lat="40.93363" lon="14.4503783"><ele>28.0</ele><time>2026-03-29T08:40:35.295Z</time></trkpt><trkpt lat="40.9336583" lon="14.4502733"><ele>28.000000000000004</ele><time>2026-03-29T08:40:36.294Z</time></trkpt><trkpt lat="40.933685" lon="14.4501717"><ele>28.0</ele><time>2026-03-29T08:40:37.294Z</time></trkpt><trkpt lat="40.9337117" lon="14.4500733"><ele>28.0</ele><time>2026-03-29T08:40:38.294Z</time></trkpt><trkpt lat="40.93374" lon="14.449975"><ele>28.0</ele><time>2026-03-29T08:40:39.294Z</time></trkpt><trkpt lat="40.933765" lon="14.4498783"><ele>28.000000000000004</ele><time>2026-03-29T08:40:40.294Z</time></trkpt><trkpt lat="40.9337883" lon="14.4497817"><ele>28.0</ele><time>2026-03-29T08:40:41.294Z</time></trkpt><trkpt lat="40.9338083" lon="14.449685"><ele>27.857142857142858</ele><time>2026-03-29T08:40:42.295Z</time></trkpt><trkpt lat="40.93383" lon="14.4495883"><ele>27.714285714285715</ele><time>2026-03-29T08:40:43.295Z</time></trkpt><trkpt lat="40.9338533" lon="14.449495"><ele>27.57142857142857</ele><time>2026-03-29T08:40:44.295Z</time></trkpt><trkpt lat="40.9338733" lon="14.449405"><ele>27.42857142857143</ele><time>2026-03-29T08:40:45.295Z</time></trkpt><trkpt lat="40.9338967" lon="14.449315"><ele>27.285714285714285</ele><time>2026-03-29T08:40:46.294Z</time></trkpt><trkpt lat="40.93392" lon="14.4492217"><ele>27.142857142857142</ele><time>2026-03-29T08:40:47.295Z</time></trkpt><trkpt lat="40.9339433" lon="14.4491283"><ele>27.0</ele><time>2026-03-29T08:40:48.296Z</time></trkpt><trkpt lat="40.9339667" lon="14.449035"><ele>27.0</ele><time>2026-03-29T08:40:49.294Z</time></trkpt><trkpt lat="40.9339867" lon="14.44894"><ele>27.0</ele><time>2026-03-29T08:40:50.294Z</time></trkpt><trkpt lat="40.9340017" lon="14.448845"><ele>27.0</ele><time>2026-03-29T08:40:51.295Z</time></trkpt><trkpt lat="40.9340267" lon="14.4487467"><ele>27.0</ele><time>2026-03-29T08:40:52.295Z</time></trkpt><trkpt lat="40.934055" lon="14.4486417"><ele>27.0</ele><time>2026-03-29T08:40:53.294Z</time></trkpt><trkpt lat="40.9340817" lon="14.44853"><ele>27.0</ele><time>2026-03-29T08:40:54.295Z</time></trkpt><trkpt lat="40.9341083" lon="14.4484133"><ele>27.0</ele><time>2026-03-29T08:40:55.294Z</time></trkpt><trkpt lat="40.9341333" lon="14.4482967"><ele>27.000000000000004</ele><time>2026-03-29T08:40:56.294Z</time></trkpt><trkpt lat="40.9341633" lon="14.448175"><ele>27.000000000000004</ele><time>2026-03-29T08:40:57.294Z</time></trkpt><trkpt lat="40.9341967" lon="14.44805"><ele>27.0</ele><time>2026-03-29T08:40:58.298Z</time></trkpt><trkpt lat="40.9342267" lon="14.4479217"><ele>27.0</ele><time>2026-03-29T08:40:59.295Z</time></trkpt><trkpt lat="40.9342583" lon="14.4477967"><ele>26.8</ele><time>2026-03-29T08:41:00.294Z</time></trkpt><trkpt lat="40.9342883" lon="14.447675"><ele>26.6</ele><time>2026-03-29T08:41:01.295Z</time></trkpt><trkpt lat="40.93432" lon="14.44755"><ele>26.400000000000002</ele><time>2026-03-29T08:41:02.294Z</time></trkpt><trkpt lat="40.9343483" lon="14.447425"><ele>26.200000000000003</ele><time>2026-03-29T08:41:03.294Z</time></trkpt><trkpt lat="40.9343833" lon="14.4473067"><ele>26.0</ele><time>2026-03-29T08:41:04.294Z</time></trkpt><trkpt lat="40.9344217" lon="14.447195"><ele>26.0</ele><time>2026-03-29T08:41:05.294Z</time></trkpt><trkpt lat="40.934455" lon="14.447085"><ele>26.0</ele><time>2026-03-29T08:41:06.294Z</time></trkpt><trkpt lat="40.9344833" lon="14.4469717"><ele>26.0</ele><time>2026-03-29T08:41:07.295Z</time></trkpt><trkpt lat="40.9345133" lon="14.4468567"><ele>26.0</ele><time>2026-03-29T08:41:08.295Z</time></trkpt><trkpt lat="40.93454" lon="14.4467433"><ele>26.0</ele><time>2026-03-29T08:41:09.294Z</time></trkpt><trkpt lat="40.9345683" lon="14.44663"><ele>26.0</ele><time>2026-03-29T08:41:10.294Z</time></trkpt><trkpt lat="40.934595" lon="14.4465167"><ele>26.0</ele><time>2026-03-29T08:41:11.295Z</time></trkpt><trkpt lat="40.93462" lon="14.4464017"><ele>26.0</ele><time>2026-03-29T08:41:12.295Z</time></trkpt><trkpt lat="40.9346483" lon="14.4462833"><ele>26.0</ele><time>2026-03-29T08:41:13.294Z</time></trkpt><trkpt lat="40.934675" lon="14.4461667"><ele>26.0</ele><time>2026-03-29T08:41:14.294Z</time></trkpt><trkpt lat="40.9347017" lon="14.4460517"><ele>26.200000000000003</ele><time>2026-03-29T08:41:15.294Z</time></trkpt><trkpt lat="40.9347283" lon="14.4459367"><ele>26.400000000000002</ele><time>2026-03-29T08:41:16.294Z</time></trkpt><trkpt lat="40.934755" lon="14.44582"><ele>26.6</ele><time>2026-03-29T08:41:17.294Z</time></trkpt><trkpt lat="40.9347833" lon="14.4457033"><ele>26.8</ele><time>2026-03-29T08:41:18.294Z</time></trkpt><trkpt lat="40.9348117" lon="14.4455867"><ele>27.0</ele><time>2026-03-29T08:41:19.294Z</time></trkpt><trkpt lat="40.93484" lon="14.44547"><ele>27.0</ele><time>2026-03-29T08:41:20.294Z</time></trkpt><trkpt lat="40.9348633" lon="14.4453567"><ele>27.000000000000004</ele><time>2026-03-29T08:41:21.294Z</time></trkpt><trkpt lat="40.93489" lon="14.44524"><ele>27.000000000000004</ele><time>2026-03-29T08:41:22.294Z</time></trkpt><trkpt lat="40.9349167" lon="14.44512"><ele>27.0</ele><time>2026-03-29T08:41:23.294Z</time></trkpt><trkpt lat="40.9349433" lon="14.445"><ele>27.0</ele><time>2026-03-29T08:41:24.294Z</time></trkpt><trkpt lat="40.93497" lon="14.44488"><ele>27.0</ele><time>2026-03-29T08:41:25.294Z</time></trkpt><trkpt lat="40.935" lon="14.444755"><ele>27.000000000000004</ele><time>2026-03-29T08:41:26.294Z</time></trkpt><trkpt lat="40.9350317" lon="14.4446283"><ele>27.000000000000004</ele><time>2026-03-29T08:41:27.294Z</time></trkpt><trkpt lat="40.9350583" lon="14.444495"><ele>27.0</ele><time>2026-03-29T08:41:28.294Z</time></trkpt><trkpt lat="40.9350817" lon="14.4443583"><ele>27.0</ele><time>2026-03-29T08:41:29.294Z</time></trkpt><trkpt lat="40.9351017" lon="14.4442233"><ele>27.0</ele><time>2026-03-29T08:41:30.294Z</time></trkpt><trkpt lat="40.93512" lon="14.4440833"><ele>27.000000000000004</ele><time>2026-03-29T08:41:31.294Z</time></trkpt><trkpt lat="40.9351383" lon="14.44395"><ele>27.000000000000004</ele><time>2026-03-29T08:41:32.295Z</time></trkpt><trkpt lat="40.935155" lon="14.443815"><ele>27.0</ele><time>2026-03-29T08:41:33.295Z</time></trkpt><trkpt lat="40.9351717" lon="14.44368"><ele>27.0</ele><time>2026-03-29T08:41:34.294Z</time></trkpt><trkpt lat="40.9351867" lon="14.4435467"><ele>27.0</ele><time>2026-03-29T08:41:35.294Z</time></trkpt><trkpt lat="40.9352" lon="14.443415"><ele>27.000000000000004</ele><time>2026-03-29T08:41:36.293Z</time></trkpt><trkpt lat="40.93521" lon="14.4432867"><ele>27.000000000000004</ele><time>2026-03-29T08:41:37.294Z</time></trkpt><trkpt lat="40.9352133" lon="14.4431533"><ele>27.0</ele><time>2026-03-29T08:41:38.294Z</time></trkpt><trkpt lat="40.9352133" lon="14.4430267"><ele>27.0</ele><time>2026-03-29T08:41:39.294Z</time></trkpt><trkpt lat="40.9352133" lon="14.4428933"><ele>27.0</ele><time>2026-03-29T08:41:40.294Z</time></trkpt><trkpt lat="40.9352117" lon="14.4427617"><ele>27.000000000000004</ele><time>2026-03-29T08:41:41.294Z</time></trkpt><trkpt lat="40.9352083" lon="14.44263"><ele>27.000000000000004</ele><time>2026-03-29T08:41:42.294Z</time></trkpt><trkpt lat="40.9352" lon="14.4425033"><ele>27.0</ele><time>2026-03-29T08:41:43.294Z</time></trkpt><trkpt lat="40.93519" lon="14.4423717"><ele>27.0</ele><time>2026-03-29T08:41:44.294Z</time></trkpt><trkpt lat="40.9351767" lon="14.44224"><ele>27.0</ele><time>2026-03-29T08:41:45.294Z</time></trkpt><trkpt lat="40.93516" lon="14.4421117"><ele>27.000000000000004</ele><time>2026-03-29T08:41:46.294Z</time></trkpt><trkpt lat="40.9351417" lon="14.4419867"><ele>27.000000000000004</ele><time>2026-03-29T08:41:47.294Z</time></trkpt><trkpt lat="40.9351217" lon="14.44186"><ele>27.0</ele><time>2026-03-29T08:41:48.297Z</time></trkpt><trkpt lat="40.9351017" lon="14.441735"><ele>27.0</ele><time>2026-03-29T08:41:49.295Z</time></trkpt><trkpt lat="40.935085" lon="14.4416083"><ele>27.0</ele><time>2026-03-29T08:41:50.294Z</time></trkpt><trkpt lat="40.9350667" lon="14.4414833"><ele>27.000000000000004</ele><time>2026-03-29T08:41:51.294Z</time></trkpt><trkpt lat="40.93504" lon="14.4413567"><ele>27.000000000000004</ele><time>2026-03-29T08:41:52.294Z</time></trkpt><trkpt lat="40.93501" lon="14.441235"><ele>27.0</ele><time>2026-03-29T08:41:53.294Z</time></trkpt><trkpt lat="40.9349783" lon="14.4411167"><ele>27.0</ele><time>2026-03-29T08:41:54.294Z</time></trkpt><trkpt lat="40.934945" lon="14.4410067"><ele>27.0</ele><time>2026-03-29T08:41:55.294Z</time></trkpt><trkpt lat="40.93491" lon="14.440905"><ele>27.0</ele><time>2026-03-29T08:41:56.294Z</time></trkpt><trkpt lat="40.9348783" lon="14.440805"><ele>27.0</ele><time>2026-03-29T08:41:57.294Z</time></trkpt><trkpt lat="40.93485" lon="14.4407033"><ele>27.0</ele><time>2026-03-29T08:41:58.294Z</time></trkpt><trkpt lat="40.9348283" lon="14.4406017"><ele>27.0</ele><time>2026-03-29T08:41:59.294Z</time></trkpt><trkpt lat="40.9348033" lon="14.4405017"><ele>27.0</ele><time>2026-03-29T08:42:00.295Z</time></trkpt><trkpt lat="40.9347767" lon="14.4404017"><ele>27.166666666666668</ele><time>2026-03-29T08:42:01.294Z</time></trkpt><trkpt lat="40.93475" lon="14.4403067"><ele>27.333333333333336</ele><time>2026-03-29T08:42:02.294Z</time></trkpt><trkpt lat="40.9347217" lon="14.4402133"><ele>27.5</ele><time>2026-03-29T08:42:03.294Z</time></trkpt><trkpt lat="40.9346917" lon="14.4401183"><ele>27.666666666666668</ele><time>2026-03-29T08:42:04.294Z</time></trkpt><trkpt lat="40.9346633" lon="14.440025"><ele>27.833333333333336</ele><time>2026-03-29T08:42:05.294Z</time></trkpt><trkpt lat="40.93464" lon="14.43993"><ele>28.0</ele><time>2026-03-29T08:42:06.294Z</time></trkpt><trkpt lat="40.9346133" lon="14.439835"><ele>28.000000000000004</ele><time>2026-03-29T08:42:07.294Z</time></trkpt><trkpt lat="40.9345867" lon="14.4397433"><ele>28.0</ele><time>2026-03-29T08:42:08.294Z</time></trkpt><trkpt lat="40.9345583" lon="14.43965"><ele>28.0</ele><time>2026-03-29T08:42:09.294Z</time></trkpt><trkpt lat="40.9345333" lon="14.439555"><ele>28.0</ele><time>2026-03-29T08:42:10.295Z</time></trkpt><trkpt lat="40.934505" lon="14.43946"><ele>28.000000000000004</ele><time>2026-03-29T08:42:11.295Z</time></trkpt><trkpt lat="40.9344767" lon="14.43936"><ele>28.0</ele><time>2026-03-29T08:42:12.294Z</time></trkpt><trkpt lat="40.934445" lon="14.4392583"><ele>27.833333333333336</ele><time>2026-03-29T08:42:13.294Z</time></trkpt><trkpt lat="40.9344133" lon="14.4391617"><ele>27.666666666666668</ele><time>2026-03-29T08:42:14.294Z</time></trkpt><trkpt lat="40.93438" lon="14.4390683"><ele>27.5</ele><time>2026-03-29T08:42:15.294Z</time></trkpt><trkpt lat="40.934345" lon="14.43897"><ele>27.333333333333336</ele><time>2026-03-29T08:42:16.295Z</time></trkpt><trkpt lat="40.9343133" lon="14.43887"><ele>27.166666666666668</ele><time>2026-03-29T08:42:17.294Z</time></trkpt><trkpt lat="40.9342817" lon="14.4387667"><ele>27.0</ele><time>2026-03-29T08:42:18.294Z</time></trkpt><trkpt lat="40.9342583" lon="14.4386633"><ele>26.666666666666668</ele><time>2026-03-29T08:42:19.294Z</time></trkpt><trkpt lat="40.9342383" lon="14.4385533"><ele>26.333333333333336</ele><time>2026-03-29T08:42:20.294Z</time></trkpt><trkpt lat="40.9342183" lon="14.438445"><ele>26.0</ele><time>2026-03-29T08:42:21.294Z</time></trkpt><trkpt lat="40.9341933" lon="14.43834"><ele>25.666666666666668</ele><time>2026-03-29T08:42:22.294Z</time></trkpt><trkpt lat="40.934155" lon="14.43824"><ele>25.333333333333336</ele><time>2026-03-29T08:42:23.295Z</time></trkpt><trkpt lat="40.93411" lon="14.4381467"><ele>25.0</ele><time>2026-03-29T08:42:24.294Z</time></trkpt><trkpt lat="40.9340667" lon="14.4380467"><ele>25.000000000000004</ele><time>2026-03-29T08:42:25.294Z</time></trkpt><trkpt lat="40.93403" lon="14.4379467"><ele>25.0</ele><time>2026-03-29T08:42:26.295Z</time></trkpt><trkpt lat="40.9339967" lon="14.4378483"><ele>25.0</ele><time>2026-03-29T08:42:27.295Z</time></trkpt><trkpt lat="40.9339617" lon="14.4377483"><ele>25.0</ele><time>2026-03-29T08:42:28.295Z</time></trkpt><trkpt lat="40.93393" lon="14.437645"><ele>25.000000000000004</ele><time>2026-03-29T08:42:29.295Z</time></trkpt><trkpt lat="40.9338983" lon="14.4375433"><ele>25.0</ele><time>2026-03-29T08:42:30.295Z</time></trkpt><trkpt lat="40.933865" lon="14.4374367"><ele>25.000000000000004</ele><time>2026-03-29T08:42:31.295Z</time></trkpt><trkpt lat="40.9338333" lon="14.43733"><ele>25.0</ele><time>2026-03-29T08:42:32.296Z</time></trkpt><trkpt lat="40.933805" lon="14.4372283"><ele>25.0</ele><time>2026-03-29T08:42:33.295Z</time></trkpt><trkpt lat="40.9337783" lon="14.4371267"><ele>25.0</ele><time>2026-03-29T08:42:34.296Z</time></trkpt><trkpt lat="40.9337483" lon="14.437025"><ele>25.000000000000004</ele><time>2026-03-29T08:42:35.296Z</time></trkpt><trkpt lat="40.9337117" lon="14.4369283"><ele>25.0</ele><time>2026-03-29T08:42:36.295Z</time></trkpt><trkpt lat="40.9336783" lon="14.4368283"><ele>25.166666666666668</ele><time>2026-03-29T08:42:37.295Z</time></trkpt><trkpt lat="40.9336417" lon="14.43673"><ele>25.333333333333336</ele><time>2026-03-29T08:42:38.295Z</time></trkpt><trkpt lat="40.93361" lon="14.436625"><ele>25.5</ele><time>2026-03-29T08:42:39.295Z</time></trkpt><trkpt lat="40.9335867" lon="14.436515"><ele>25.666666666666664</ele><time>2026-03-29T08:42:40.295Z</time></trkpt><trkpt lat="40.9335617" lon="14.4364067"><ele>25.833333333333332</ele><time>2026-03-29T08:42:41.295Z</time></trkpt><trkpt lat="40.9335333" lon="14.4363"><ele>26.0</ele><time>2026-03-29T08:42:42.296Z</time></trkpt><trkpt lat="40.9335033" lon="14.43619"><ele>25.999999999999996</ele><time>2026-03-29T08:42:43.295Z</time></trkpt><trkpt lat="40.93348" lon="14.4360783"><ele>26.0</ele><time>2026-03-29T08:42:44.295Z</time></trkpt><trkpt lat="40.933455" lon="14.4359667"><ele>26.0</ele><time>2026-03-29T08:42:45.295Z</time></trkpt><trkpt lat="40.93343" lon="14.4358567"><ele>26.0</ele><time>2026-03-29T08:42:46.295Z</time></trkpt><trkpt lat="40.9334067" lon="14.4357483"><ele>25.999999999999996</ele><time>2026-03-29T08:42:47.295Z</time></trkpt><trkpt lat="40.9333817" lon="14.4356417"><ele>26.0</ele><time>2026-03-29T08:42:48.298Z</time></trkpt><trkpt lat="40.9333617" lon="14.435535"><ele>26.166666666666664</ele><time>2026-03-29T08:42:49.296Z</time></trkpt><trkpt lat="40.93334" lon="14.4354217"><ele>26.333333333333332</ele><time>2026-03-29T08:42:50.295Z</time></trkpt><trkpt lat="40.9333167" lon="14.4353117"><ele>26.5</ele><time>2026-03-29T08:42:51.295Z</time></trkpt><trkpt lat="40.9333" lon="14.4351983"><ele>26.666666666666664</ele><time>2026-03-29T08:42:52.295Z</time></trkpt><trkpt lat="40.93328" lon="14.4350867"><ele>26.833333333333332</ele><time>2026-03-29T08:42:53.295Z</time></trkpt><trkpt lat="40.93326" lon="14.43498"><ele>27.0</ele><time>2026-03-29T08:42:54.296Z</time></trkpt><trkpt lat="40.93324" lon="14.434875"><ele>27.0</ele><time>2026-03-29T08:42:55.295Z</time></trkpt><trkpt lat="40.933225" lon="14.43477"><ele>27.0</ele><time>2026-03-29T08:42:56.295Z</time></trkpt><trkpt lat="40.933215" lon="14.434665"><ele>27.0</ele><time>2026-03-29T08:42:57.295Z</time></trkpt><trkpt lat="40.933205" lon="14.434565"><ele>27.0</ele><time>2026-03-29T08:42:58.295Z</time></trkpt><trkpt lat="40.9331917" lon="14.4344583"><ele>27.0</ele><time>2026-03-29T08:42:59.295Z</time></trkpt><trkpt lat="40.933175" lon="14.434355"><ele>27.0</ele><time>2026-03-29T08:43:00.296Z</time></trkpt><trkpt lat="40.9331583" lon="14.4342517"><ele>27.0</ele><time>2026-03-29T08:43:01.295Z</time></trkpt><trkpt lat="40.9331433" lon="14.4341517"><ele>27.0</ele><time>2026-03-29T08:43:02.297Z</time></trkpt><trkpt lat="40.9331317" lon="14.4340483"><ele>27.0</ele><time>2026-03-29T08:43:03.294Z</time></trkpt><trkpt lat="40.9331217" lon="14.4339433"><ele>27.0</ele><time>2026-03-29T08:43:04.295Z</time></trkpt><trkpt lat="40.9331133" lon="14.4338383"><ele>27.0</ele><time>2026-03-29T08:43:05.294Z</time></trkpt><trkpt lat="40.9331033" lon="14.4337333"><ele>27.0</ele><time>2026-03-29T08:43:06.294Z</time></trkpt><trkpt lat="40.9330917" lon="14.433625"><ele>27.0</ele><time>2026-03-29T08:43:07.294Z</time></trkpt><trkpt lat="40.9330767" lon="14.4335183"><ele>27.0</ele><time>2026-03-29T08:43:08.294Z</time></trkpt><trkpt lat="40.9330633" lon="14.4334117"><ele>27.0</ele><time>2026-03-29T08:43:09.295Z</time></trkpt><trkpt lat="40.9330517" lon="14.4333067"><ele>27.0</ele><time>2026-03-29T08:43:10.294Z</time></trkpt><trkpt lat="40.9330417" lon="14.4332017"><ele>27.0</ele><time>2026-03-29T08:43:11.294Z</time></trkpt><trkpt lat="40.93303" lon="14.433095"><ele>27.0</ele><time>2026-03-29T08:43:12.294Z</time></trkpt><trkpt lat="40.93302" lon="14.4329917"><ele>27.0</ele><time>2026-03-29T08:43:13.294Z</time></trkpt><trkpt lat="40.93301" lon="14.43289"><ele>27.0</ele><time>2026-03-29T08:43:14.295Z</time></trkpt><trkpt lat="40.9329967" lon="14.4327883"><ele>27.0</ele><time>2026-03-29T08:43:15.294Z</time></trkpt><trkpt lat="40.9329833" lon="14.43269"><ele>27.0</ele><time>2026-03-29T08:43:16.294Z</time></trkpt><trkpt lat="40.9329717" lon="14.43259"><ele>27.0</ele><time>2026-03-29T08:43:17.294Z</time></trkpt><trkpt lat="40.93296" lon="14.4324883"><ele>27.0</ele><time>2026-03-29T08:43:18.294Z</time></trkpt><trkpt lat="40.932945" lon="14.432385"><ele>27.0</ele><time>2026-03-29T08:43:19.294Z</time></trkpt><trkpt lat="40.9329333" lon="14.4322783"><ele>27.0</ele><time>2026-03-29T08:43:20.295Z</time></trkpt><trkpt lat="40.93292" lon="14.432175"><ele>27.0</ele><time>2026-03-29T08:43:21.295Z</time></trkpt><trkpt lat="40.932905" lon="14.4320733"><ele>27.0</ele><time>2026-03-29T08:43:22.294Z</time></trkpt><trkpt lat="40.93289" lon="14.4319733"><ele>27.0</ele><time>2026-03-29T08:43:23.295Z</time></trkpt><trkpt lat="40.9328733" lon="14.4318717"><ele>27.0</ele><time>2026-03-29T08:43:24.295Z</time></trkpt><trkpt lat="40.9328583" lon="14.4317683"><ele>26.833333333333332</ele><time>2026-03-29T08:43:25.295Z</time></trkpt><trkpt lat="40.9328467" lon="14.4316617"><ele>26.666666666666664</ele><time>2026-03-29T08:43:26.294Z</time></trkpt><trkpt lat="40.9328367" lon="14.4315583"><ele>26.5</ele><time>2026-03-29T08:43:27.294Z</time></trkpt><trkpt lat="40.9328267" lon="14.4314533"><ele>26.333333333333332</ele><time>2026-03-29T08:43:28.294Z</time></trkpt><trkpt lat="40.932815" lon="14.4313483"><ele>26.166666666666664</ele><time>2026-03-29T08:43:29.296Z</time></trkpt><trkpt lat="40.932805" lon="14.431245"><ele>26.0</ele><time>2026-03-29T08:43:30.295Z</time></trkpt><trkpt lat="40.93279" lon="14.4311433"><ele>25.999999999999996</ele><time>2026-03-29T08:43:31.294Z</time></trkpt><trkpt lat="40.932775" lon="14.4310417"><ele>26.0</ele><time>2026-03-29T08:43:32.294Z</time></trkpt><trkpt lat="40.9327617" lon="14.43094"><ele>26.0</ele><time>2026-03-29T08:43:33.294Z</time></trkpt><trkpt lat="40.9327483" lon="14.4308367"><ele>26.0</ele><time>2026-03-29T08:43:34.294Z</time></trkpt><trkpt lat="40.9327383" lon="14.43073"><ele>25.999999999999996</ele><time>2026-03-29T08:43:35.294Z</time></trkpt><trkpt lat="40.932725" lon="14.4306267"><ele>26.0</ele><time>2026-03-29T08:43:36.294Z</time></trkpt><trkpt lat="40.932715" lon="14.4305233"><ele>26.166666666666664</ele><time>2026-03-29T08:43:37.294Z</time></trkpt><trkpt lat="40.9327033" lon="14.43042"><ele>26.333333333333332</ele><time>2026-03-29T08:43:38.294Z</time></trkpt><trkpt lat="40.93269" lon="14.4303183"><ele>26.5</ele><time>2026-03-29T08:43:39.294Z</time></trkpt><trkpt lat="40.9326783" lon="14.4302183"><ele>26.666666666666664</ele><time>2026-03-29T08:43:40.294Z</time></trkpt><trkpt lat="40.9326617" lon="14.4301167"><ele>26.833333333333332</ele><time>2026-03-29T08:43:41.295Z</time></trkpt><trkpt lat="40.9326517" lon="14.4300167"><ele>27.0</ele><time>2026-03-29T08:43:42.294Z</time></trkpt><trkpt lat="40.932645" lon="14.4299117"><ele>27.0</ele><time>2026-03-29T08:43:43.294Z</time></trkpt><trkpt lat="40.9326367" lon="14.4298083"><ele>27.0</ele><time>2026-03-29T08:43:44.295Z</time></trkpt><trkpt lat="40.9326267" lon="14.4297067"><ele>27.0</ele><time>2026-03-29T08:43:45.298Z</time></trkpt><trkpt lat="40.9326133" lon="14.4296083"><ele>27.0</ele><time>2026-03-29T08:43:46.294Z</time></trkpt><trkpt lat="40.9326017" lon="14.4295083"><ele>27.0</ele><time>2026-03-29T08:43:47.294Z</time></trkpt><trkpt lat="40.9325867" lon="14.4294083"><ele>27.0</ele><time>2026-03-29T08:43:48.295Z</time></trkpt><trkpt lat="40.932575" lon="14.429305"><ele>26.833333333333332</ele><time>2026-03-29T08:43:49.296Z</time></trkpt><trkpt lat="40.9325633" lon="14.4292017"><ele>26.666666666666664</ele><time>2026-03-29T08:43:50.294Z</time></trkpt><trkpt lat="40.9325483" lon="14.4291"><ele>26.5</ele><time>2026-03-29T08:43:51.295Z</time></trkpt><trkpt lat="40.9325317" lon="14.429"><ele>26.333333333333332</ele><time>2026-03-29T08:43:52.294Z</time></trkpt><trkpt lat="40.9325167" lon="14.4288967"><ele>26.166666666666664</ele><time>2026-03-29T08:43:53.295Z</time></trkpt><trkpt lat="40.9325033" lon="14.42879"><ele>26.0</ele><time>2026-03-29T08:43:54.294Z</time></trkpt><trkpt lat="40.9324867" lon="14.428685"><ele>25.833333333333332</ele><time>2026-03-29T08:43:55.294Z</time></trkpt><trkpt lat="40.93247" lon="14.42858"><ele>25.666666666666664</ele><time>2026-03-29T08:43:56.296Z</time></trkpt><trkpt lat="40.9324517" lon="14.4284717"><ele>25.5</ele><time>2026-03-29T08:43:57.296Z</time></trkpt><trkpt lat="40.93243" lon="14.42836"><ele>25.333333333333336</ele><time>2026-03-29T08:43:58.294Z</time></trkpt><trkpt lat="40.932405" lon="14.4282483"><ele>25.166666666666668</ele><time>2026-03-29T08:43:59.295Z</time></trkpt><trkpt lat="40.932375" lon="14.42814"><ele>25.0</ele><time>2026-03-29T08:44:00.294Z</time></trkpt><trkpt lat="40.93234" lon="14.428035"><ele>25.000000000000004</ele><time>2026-03-29T08:44:01.298Z</time></trkpt><trkpt lat="40.9323067" lon="14.42793"><ele>25.0</ele><time>2026-03-29T08:44:02.294Z</time></trkpt><trkpt lat="40.93227" lon="14.4278333"><ele>25.0</ele><time>2026-03-29T08:44:03.294Z</time></trkpt><trkpt lat="40.9322333" lon="14.4277367"><ele>25.0</ele><time>2026-03-29T08:44:04.295Z</time></trkpt><trkpt lat="40.9321967" lon="14.4276367"><ele>25.000000000000004</ele><time>2026-03-29T08:44:05.295Z</time></trkpt><trkpt lat="40.9321583" lon="14.42754"><ele>25.0</ele><time>2026-03-29T08:44:06.294Z</time></trkpt><trkpt lat="40.9321183" lon="14.4274367"><ele>25.000000000000004</ele><time>2026-03-29T08:44:07.294Z</time></trkpt><trkpt lat="40.9320767" lon="14.4273333"><ele>25.0</ele><time>2026-03-29T08:44:08.294Z</time></trkpt><trkpt lat="40.9320317" lon="14.4272367"><ele>25.0</ele><time>2026-03-29T08:44:09.294Z</time></trkpt><trkpt lat="40.9319867" lon="14.4271417"><ele>25.0</ele><time>2026-03-29T08:44:10.295Z</time></trkpt><trkpt lat="40.93194" lon="14.427045"><ele>25.000000000000004</ele><time>2026-03-29T08:44:11.295Z</time></trkpt><trkpt lat="40.9318933" lon="14.42695"><ele>25.0</ele><time>2026-03-29T08:44:12.294Z</time></trkpt><trkpt lat="40.9318433" lon="14.426855"><ele>25.000000000000004</ele><time>2026-03-29T08:44:13.295Z</time></trkpt><trkpt lat="40.9317933" lon="14.4267633"><ele>25.0</ele><time>2026-03-29T08:44:14.294Z</time></trkpt><trkpt lat="40.9317433" lon="14.426675"><ele>25.0</ele><time>2026-03-29T08:44:15.295Z</time></trkpt><trkpt lat="40.9316917" lon="14.42659"><ele>25.0</ele><time>2026-03-29T08:44:16.295Z</time></trkpt><trkpt lat="40.93164" lon="14.4265"><ele>25.000000000000004</ele><time>2026-03-29T08:44:17.294Z</time></trkpt><trkpt lat="40.9315883" lon="14.426415"><ele>25.0</ele><time>2026-03-29T08:44:18.294Z</time></trkpt><trkpt lat="40.9315383" lon="14.4263233"><ele>25.166666666666668</ele><time>2026-03-29T08:44:19.294Z</time></trkpt><trkpt lat="40.9314867" lon="14.4262317"><ele>25.333333333333336</ele><time>2026-03-29T08:44:20.294Z</time></trkpt><trkpt lat="40.9314333" lon="14.4261367"><ele>25.5</ele><time>2026-03-29T08:44:21.294Z</time></trkpt><trkpt lat="40.93138" lon="14.4260433"><ele>25.666666666666664</ele><time>2026-03-29T08:44:22.295Z</time></trkpt><trkpt lat="40.931325" lon="14.425945"><ele>25.833333333333332</ele><time>2026-03-29T08:44:23.296Z</time></trkpt><trkpt lat="40.93127" lon="14.4258483"><ele>26.0</ele><time>2026-03-29T08:44:24.294Z</time></trkpt><trkpt lat="40.9312133" lon="14.4257467"><ele>26.0</ele><time>2026-03-29T08:44:25.294Z</time></trkpt><trkpt lat="40.931155" lon="14.425645"><ele>26.0</ele><time>2026-03-29T08:44:26.295Z</time></trkpt><trkpt lat="40.9310967" lon="14.4255417"><ele>26.0</ele><time>2026-03-29T08:44:27.294Z</time></trkpt><trkpt lat="40.93104" lon="14.42544"><ele>26.0</ele><time>2026-03-29T08:44:28.295Z</time></trkpt><trkpt lat="40.9309833" lon="14.42534"><ele>26.0</ele><time>2026-03-29T08:44:29.295Z</time></trkpt><trkpt lat="40.9309267" lon="14.42524"><ele>26.0</ele><time>2026-03-29T08:44:30.294Z</time></trkpt><trkpt lat="40.93087" lon="14.4251433"><ele>26.0</ele><time>2026-03-29T08:44:31.294Z</time></trkpt><trkpt lat="40.930815" lon="14.42504"><ele>26.0</ele><time>2026-03-29T08:44:32.295Z</time></trkpt><trkpt lat="40.9307633" lon="14.4249367"><ele>26.0</ele><time>2026-03-29T08:44:33.295Z</time></trkpt><trkpt lat="40.93071" lon="14.4248333"><ele>26.0</ele><time>2026-03-29T08:44:34.296Z</time></trkpt><trkpt lat="40.930655" lon="14.4247317"><ele>25.833333333333332</ele><time>2026-03-29T08:44:35.294Z</time></trkpt><trkpt lat="40.9306033" lon="14.4246333"><ele>25.666666666666664</ele><time>2026-03-29T08:44:36.295Z</time></trkpt><trkpt lat="40.93055" lon="14.4245383"><ele>25.5</ele><time>2026-03-29T08:44:37.295Z</time></trkpt><trkpt lat="40.9304967" lon="14.4244467"><ele>25.333333333333336</ele><time>2026-03-29T08:44:38.295Z</time></trkpt><trkpt lat="40.9304433" lon="14.424355"><ele>25.166666666666668</ele><time>2026-03-29T08:44:39.294Z</time></trkpt><trkpt lat="40.9303883" lon="14.4242633"><ele>25.0</ele><time>2026-03-29T08:44:40.295Z</time></trkpt><trkpt lat="40.9303333" lon="14.42417"><ele>25.000000000000004</ele><time>2026-03-29T08:44:41.294Z</time></trkpt><trkpt lat="40.9302817" lon="14.4240767"><ele>25.0</ele><time>2026-03-29T08:44:42.294Z</time></trkpt><trkpt lat="40.9302283" lon="14.4239867"><ele>25.0</ele><time>2026-03-29T08:44:43.295Z</time></trkpt><trkpt lat="40.9301733" lon="14.4238967"><ele>25.0</ele><time>2026-03-29T08:44:44.294Z</time></trkpt><trkpt lat="40.93012" lon="14.423805"><ele>25.000000000000004</ele><time>2026-03-29T08:44:45.299Z</time></trkpt><trkpt lat="40.930065" lon="14.42371"><ele>25.0</ele><time>2026-03-29T08:44:46.296Z</time></trkpt><trkpt lat="40.9300133" lon="14.4236183"><ele>25.166666666666668</ele><time>2026-03-29T08:44:47.294Z</time></trkpt><trkpt lat="40.9299583" lon="14.4235267"><ele>25.333333333333336</ele><time>2026-03-29T08:44:48.295Z</time></trkpt><trkpt lat="40.9299033" lon="14.4234367"><ele>25.5</ele><time>2026-03-29T08:44:49.295Z</time></trkpt><trkpt lat="40.9298467" lon="14.423345"><ele>25.666666666666664</ele><time>2026-03-29T08:44:50.294Z</time></trkpt><trkpt lat="40.92979" lon="14.423255"><ele>25.833333333333332</ele><time>2026-03-29T08:44:51.294Z</time></trkpt><trkpt lat="40.9297367" lon="14.4231633"><ele>26.0</ele><time>2026-03-29T08:44:52.294Z</time></trkpt><trkpt lat="40.92968" lon="14.4230717"><ele>25.999999999999996</ele><time>2026-03-29T08:44:53.295Z</time></trkpt><trkpt lat="40.929625" lon="14.4229817"><ele>26.0</ele><time>2026-03-29T08:44:54.295Z</time></trkpt><trkpt lat="40.9295717" lon="14.4228917"><ele>26.0</ele><time>2026-03-29T08:44:55.294Z</time></trkpt><trkpt lat="40.9295217" lon="14.4228017"><ele>26.0</ele><time>2026-03-29T08:44:56.295Z</time></trkpt><trkpt lat="40.9294683" lon="14.4227133"><ele>25.999999999999996</ele><time>2026-03-29T08:44:57.294Z</time></trkpt><trkpt lat="40.92942" lon="14.4226317"><ele>26.0</ele><time>2026-03-29T08:44:58.295Z</time></trkpt><trkpt lat="40.9293717" lon="14.4225467"><ele>25.999999999999996</ele><time>2026-03-29T08:44:59.295Z</time></trkpt><trkpt lat="40.92932" lon="14.4224583"><ele>26.0</ele><time>2026-03-29T08:45:00.295Z</time></trkpt><trkpt lat="40.92927" lon="14.4223683"><ele>26.0</ele><time>2026-03-29T08:45:01.295Z</time></trkpt><trkpt lat="40.92922" lon="14.4222783"><ele>26.0</ele><time>2026-03-29T08:45:02.294Z</time></trkpt><trkpt lat="40.92917" lon="14.42219"><ele>25.999999999999996</ele><time>2026-03-29T08:45:03.293Z</time></trkpt><trkpt lat="40.9291217" lon="14.4221033"><ele>26.0</ele><time>2026-03-29T08:45:04.294Z</time></trkpt><trkpt lat="40.9290733" lon="14.4220183"><ele>25.999999999999996</ele><time>2026-03-29T08:45:05.294Z</time></trkpt><trkpt lat="40.92903" lon="14.4219267"><ele>26.0</ele><time>2026-03-29T08:45:06.293Z</time></trkpt><trkpt lat="40.9289917" lon="14.42183"><ele>26.0</ele><time>2026-03-29T08:45:07.294Z</time></trkpt><trkpt lat="40.9289517" lon="14.4217367"><ele>26.0</ele><time>2026-03-29T08:45:08.294Z</time></trkpt><trkpt lat="40.928905" lon="14.4216517"><ele>25.999999999999996</ele><time>2026-03-29T08:45:09.293Z</time></trkpt><trkpt lat="40.92885" lon="14.4215733"><ele>26.0</ele><time>2026-03-29T08:45:10.297Z</time></trkpt><trkpt lat="40.92879" lon="14.4214967"><ele>25.999999999999996</ele><time>2026-03-29T08:45:11.294Z</time></trkpt><trkpt lat="40.92873" lon="14.421415"><ele>26.0</ele><time>2026-03-29T08:45:12.294Z</time></trkpt><trkpt lat="40.9286733" lon="14.42133"><ele>26.0</ele><time>2026-03-29T08:45:13.294Z</time></trkpt><trkpt lat="40.9286167" lon="14.42124"><ele>26.0</ele><time>2026-03-29T08:45:14.294Z</time></trkpt><trkpt lat="40.92856" lon="14.42115"><ele>25.999999999999996</ele><time>2026-03-29T08:45:15.294Z</time></trkpt><trkpt lat="40.9285083" lon="14.4210567"><ele>26.0</ele><time>2026-03-29T08:45:16.293Z</time></trkpt><trkpt lat="40.9284617" lon="14.4209633"><ele>25.999999999999996</ele><time>2026-03-29T08:45:17.293Z</time></trkpt><trkpt lat="40.928415" lon="14.42087"><ele>26.0</ele><time>2026-03-29T08:45:18.293Z</time></trkpt><trkpt lat="40.9283667" lon="14.4207817"><ele>26.0</ele><time>2026-03-29T08:45:19.294Z</time></trkpt><trkpt lat="40.9283167" lon="14.4206983"><ele>26.0</ele><time>2026-03-29T08:45:20.294Z</time></trkpt><trkpt lat="40.9282667" lon="14.4206117"><ele>25.999999999999996</ele><time>2026-03-29T08:45:21.293Z</time></trkpt><trkpt lat="40.9282167" lon="14.42052"><ele>26.0</ele><time>2026-03-29T08:45:22.294Z</time></trkpt><trkpt lat="40.928165" lon="14.4204283"><ele>25.833333333333332</ele><time>2026-03-29T08:45:23.294Z</time></trkpt><trkpt lat="40.928115" lon="14.4203317"><ele>25.666666666666664</ele><time>2026-03-29T08:45:24.293Z</time></trkpt><trkpt lat="40.9280617" lon="14.4202383"><ele>25.5</ele><time>2026-03-29T08:45:25.295Z</time></trkpt><trkpt lat="40.9280083" lon="14.4201483"><ele>25.333333333333336</ele><time>2026-03-29T08:45:26.295Z</time></trkpt><trkpt lat="40.9279583" lon="14.4200667"><ele>25.166666666666668</ele><time>2026-03-29T08:45:27.293Z</time></trkpt><trkpt lat="40.927905" lon="14.419985"><ele>25.0</ele><time>2026-03-29T08:45:28.293Z</time></trkpt><trkpt lat="40.927855" lon="14.4198967"><ele>25.000000000000004</ele><time>2026-03-29T08:45:29.293Z</time></trkpt><trkpt lat="40.927805" lon="14.4198117"><ele>25.0</ele><time>2026-03-29T08:45:30.293Z</time></trkpt><trkpt lat="40.927755" lon="14.4197233"><ele>25.0</ele><time>2026-03-29T08:45:31.293Z</time></trkpt><trkpt lat="40.9277033" lon="14.41964"><ele>25.0</ele><time>2026-03-29T08:45:32.294Z</time></trkpt><trkpt lat="40.9276517" lon="14.4195567"><ele>25.000000000000004</ele><time>2026-03-29T08:45:33.295Z</time></trkpt><trkpt lat="40.9276033" lon="14.41947"><ele>25.0</ele><time>2026-03-29T08:45:34.295Z</time></trkpt><trkpt lat="40.927555" lon="14.4193817"><ele>25.166666666666668</ele><time>2026-03-29T08:45:35.294Z</time></trkpt><trkpt lat="40.927505" lon="14.4192967"><ele>25.333333333333336</ele><time>2026-03-29T08:45:36.294Z</time></trkpt><trkpt lat="40.9274567" lon="14.41921"><ele>25.5</ele><time>2026-03-29T08:45:37.295Z</time></trkpt><trkpt lat="40.9274083" lon="14.4191267"><ele>25.666666666666664</ele><time>2026-03-29T08:45:38.295Z</time></trkpt><trkpt lat="40.9273617" lon="14.4190367"><ele>25.833333333333332</ele><time>2026-03-29T08:45:39.293Z</time></trkpt><trkpt lat="40.927315" lon="14.41895"><ele>26.0</ele><time>2026-03-29T08:45:40.294Z</time></trkpt><trkpt lat="40.9272667" lon="14.418865"><ele>25.666666666666664</ele><time>2026-03-29T08:45:41.294Z</time></trkpt><trkpt lat="40.9272167" lon="14.4187817"><ele>25.333333333333332</ele><time>2026-03-29T08:45:42.294Z</time></trkpt><trkpt lat="40.9271667" lon="14.418695"><ele>25.0</ele><time>2026-03-29T08:45:43.294Z</time></trkpt><trkpt lat="40.927115" lon="14.4186067"><ele>24.666666666666664</ele><time>2026-03-29T08:45:44.294Z</time></trkpt><trkpt lat="40.9270667" lon="14.418515"><ele>24.333333333333332</ele><time>2026-03-29T08:45:45.293Z</time></trkpt><trkpt lat="40.9270167" lon="14.4184283"><ele>24.0</ele><time>2026-03-29T08:45:46.294Z</time></trkpt><trkpt lat="40.926965" lon="14.4183417"><ele>24.0</ele><time>2026-03-29T08:45:47.294Z</time></trkpt><trkpt lat="40.9269117" lon="14.4182567"><ele>24.0</ele><time>2026-03-29T08:45:48.293Z</time></trkpt><trkpt lat="40.92686" lon="14.4181683"><ele>24.0</ele><time>2026-03-29T08:45:49.294Z</time></trkpt><trkpt lat="40.9268083" lon="14.41808"><ele>24.0</ele><time>2026-03-29T08:45:50.293Z</time></trkpt><trkpt lat="40.92676" lon="14.41799"><ele>24.0</ele><time>2026-03-29T08:45:51.293Z</time></trkpt><trkpt lat="40.9267083" lon="14.4179"><ele>24.0</ele><time>2026-03-29T08:45:52.296Z</time></trkpt><trkpt lat="40.9266583" lon="14.4178067"><ele>24.0</ele><time>2026-03-29T08:45:53.298Z</time></trkpt><trkpt lat="40.92661" lon="14.4177133"><ele>24.0</ele><time>2026-03-29T08:45:54.295Z</time></trkpt><trkpt lat="40.9265633" lon="14.4176217"><ele>24.0</ele><time>2026-03-29T08:45:55.293Z</time></trkpt><trkpt lat="40.92652" lon="14.4175317"><ele>24.0</ele><time>2026-03-29T08:45:56.294Z</time></trkpt><trkpt lat="40.9264817" lon="14.417435"><ele>24.0</ele><time>2026-03-29T08:45:57.293Z</time></trkpt><trkpt lat="40.9264533" lon="14.4173367"><ele>24.0</ele><time>2026-03-29T08:45:58.293Z</time></trkpt><trkpt lat="40.926415" lon="14.4172367"><ele>24.333333333333332</ele><time>2026-03-29T08:45:59.294Z</time></trkpt><trkpt lat="40.9263667" lon="14.417145"><ele>24.666666666666664</ele><time>2026-03-29T08:46:00.294Z</time></trkpt><trkpt lat="40.9263117" lon="14.417055"><ele>25.0</ele><time>2026-03-29T08:46:01.294Z</time></trkpt><trkpt lat="40.92626" lon="14.41697"><ele>25.333333333333332</ele><time>2026-03-29T08:46:02.294Z</time></trkpt><trkpt lat="40.9262133" lon="14.4168717"><ele>25.666666666666664</ele><time>2026-03-29T08:46:03.293Z</time></trkpt><trkpt lat="40.9261717" lon="14.4167667"><ele>26.0</ele><time>2026-03-29T08:46:04.294Z</time></trkpt><trkpt lat="40.9261283" lon="14.4166617"><ele>26.0</ele><time>2026-03-29T08:46:05.881Z</time></trkpt><trkpt lat="40.9260383" lon="14.416455"><ele>26.0</ele><time>2026-03-29T08:46:07.293Z</time></trkpt><trkpt lat="40.9259933" lon="14.4163517"><ele>26.0</ele><time>2026-03-29T08:46:08.293Z</time></trkpt><trkpt lat="40.9259483" lon="14.4162433"><ele>26.0</ele><time>2026-03-29T08:46:09.294Z</time></trkpt><trkpt lat="40.9259" lon="14.4161317"><ele>25.8</ele><time>2026-03-29T08:46:10.295Z</time></trkpt><trkpt lat="40.9258467" lon="14.4160183"><ele>25.6</ele><time>2026-03-29T08:46:11.294Z</time></trkpt><trkpt lat="40.9257917" lon="14.4159017"><ele>25.4</ele><time>2026-03-29T08:46:12.294Z</time></trkpt><trkpt lat="40.9257383" lon="14.41578"><ele>25.2</ele><time>2026-03-29T08:46:13.293Z</time></trkpt><trkpt lat="40.9256833" lon="14.415655"><ele>25.0</ele><time>2026-03-29T08:46:14.294Z</time></trkpt><trkpt lat="40.9256267" lon="14.41553"><ele>25.0</ele><time>2026-03-29T08:46:15.293Z</time></trkpt><trkpt lat="40.9255683" lon="14.415405"><ele>25.0</ele><time>2026-03-29T08:46:16.293Z</time></trkpt><trkpt lat="40.9255083" lon="14.4152767"><ele>25.0</ele><time>2026-03-29T08:46:17.293Z</time></trkpt><trkpt lat="40.925445" lon="14.4151467"><ele>25.0</ele><time>2026-03-29T08:46:18.295Z</time></trkpt><trkpt lat="40.9253833" lon="14.415015"><ele>25.0</ele><time>2026-03-29T08:46:19.293Z</time></trkpt><trkpt lat="40.9253183" lon="14.4148883"><ele>25.0</ele><time>2026-03-29T08:46:20.295Z</time></trkpt><trkpt lat="40.9252567" lon="14.4147667"><ele>25.0</ele><time>2026-03-29T08:46:21.293Z</time></trkpt><trkpt lat="40.9251967" lon="14.414645"><ele>25.0</ele><time>2026-03-29T08:46:22.294Z</time></trkpt><trkpt lat="40.9251367" lon="14.4145267"><ele>25.0</ele><time>2026-03-29T08:46:23.294Z</time></trkpt><trkpt lat="40.92508" lon="14.4144067"><ele>24.8</ele><time>2026-03-29T08:46:24.294Z</time></trkpt><trkpt lat="40.925025" lon="14.414285"><ele>24.6</ele><time>2026-03-29T08:46:25.294Z</time></trkpt><trkpt lat="40.9249667" lon="14.4141633"><ele>24.4</ele><time>2026-03-29T08:46:26.294Z</time></trkpt><trkpt lat="40.92491" lon="14.41404"><ele>24.2</ele><time>2026-03-29T08:46:27.293Z</time></trkpt><trkpt lat="40.9248517" lon="14.4139133"><ele>24.0</ele><time>2026-03-29T08:46:28.296Z</time></trkpt><trkpt lat="40.9247933" lon="14.4137883"><ele>24.0</ele><time>2026-03-29T08:46:29.294Z</time></trkpt><trkpt lat="40.924735" lon="14.4136683"><ele>24.0</ele><time>2026-03-29T08:46:30.295Z</time></trkpt><trkpt lat="40.9246783" lon="14.413545"><ele>24.0</ele><time>2026-03-29T08:46:31.294Z</time></trkpt><trkpt lat="40.92462" lon="14.4134217"><ele>24.0</ele><time>2026-03-29T08:46:32.293Z</time></trkpt><trkpt lat="40.924565" lon="14.4133"><ele>24.0</ele><time>2026-03-29T08:46:33.294Z</time></trkpt><trkpt lat="40.9245033" lon="14.4131817"><ele>24.0</ele><time>2026-03-29T08:46:34.293Z</time></trkpt><trkpt lat="40.924445" lon="14.4130717"><ele>24.0</ele><time>2026-03-29T08:46:35.293Z</time></trkpt><trkpt lat="40.924385" lon="14.4129583"><ele>24.0</ele><time>2026-03-29T08:46:36.294Z</time></trkpt><trkpt lat="40.924315" lon="14.412855"><ele>24.0</ele><time>2026-03-29T08:46:37.294Z</time></trkpt><trkpt lat="40.92424" lon="14.4127583"><ele>24.0</ele><time>2026-03-29T08:46:38.294Z</time></trkpt><trkpt lat="40.924165" lon="14.4126667"><ele>24.4</ele><time>2026-03-29T08:46:39.294Z</time></trkpt><trkpt lat="40.9240933" lon="14.4125783"><ele>24.799999999999997</ele><time>2026-03-29T08:46:40.293Z</time></trkpt><trkpt lat="40.9240283" lon="14.4124867"><ele>25.200000000000003</ele><time>2026-03-29T08:46:41.295Z</time></trkpt><trkpt lat="40.9239783" lon="14.4123833"><ele>25.6</ele><time>2026-03-29T08:46:42.293Z</time></trkpt><trkpt lat="40.9239317" lon="14.4122817"><ele>26.0</ele><time>2026-03-29T08:46:43.294Z</time></trkpt><trkpt lat="40.9238783" lon="14.4121867"><ele>25.833333333333332</ele><time>2026-03-29T08:46:44.294Z</time></trkpt><trkpt lat="40.9238167" lon="14.4121067"><ele>25.666666666666664</ele><time>2026-03-29T08:46:45.295Z</time></trkpt><trkpt lat="40.92375" lon="14.41204"><ele>25.5</ele><time>2026-03-29T08:46:46.294Z</time></trkpt><trkpt lat="40.92368" lon="14.41198"><ele>25.333333333333336</ele><time>2026-03-29T08:46:47.294Z</time></trkpt><trkpt lat="40.9236083" lon="14.41192"><ele>25.166666666666668</ele><time>2026-03-29T08:46:48.294Z</time></trkpt><trkpt lat="40.92354" lon="14.41186"><ele>25.0</ele><time>2026-03-29T08:46:49.294Z</time></trkpt><trkpt lat="40.92347" lon="14.411805"><ele>25.000000000000004</ele><time>2026-03-29T08:46:50.294Z</time></trkpt><trkpt lat="40.9234033" lon="14.4117583"><ele>25.0</ele><time>2026-03-29T08:46:51.294Z</time></trkpt><trkpt lat="40.923335" lon="14.4117067"><ele>25.0</ele><time>2026-03-29T08:46:52.294Z</time></trkpt><trkpt lat="40.92327" lon="14.411645"><ele>25.0</ele><time>2026-03-29T08:46:53.295Z</time></trkpt><trkpt lat="40.9231967" lon="14.4115817"><ele>25.000000000000004</ele><time>2026-03-29T08:46:54.293Z</time></trkpt><trkpt lat="40.9231133" lon="14.4115367"><ele>25.0</ele><time>2026-03-29T08:46:55.294Z</time></trkpt><trkpt lat="40.923035" lon="14.4114967"><ele>25.166666666666668</ele><time>2026-03-29T08:46:56.294Z</time></trkpt><trkpt lat="40.92296" lon="14.4114633"><ele>25.333333333333336</ele><time>2026-03-29T08:46:57.293Z</time></trkpt><trkpt lat="40.9228833" lon="14.41143"><ele>25.5</ele><time>2026-03-29T08:46:58.294Z</time></trkpt><trkpt lat="40.9228117" lon="14.4113967"><ele>25.666666666666664</ele><time>2026-03-29T08:46:59.294Z</time></trkpt><trkpt lat="40.9227383" lon="14.4113517"><ele>25.833333333333332</ele><time>2026-03-29T08:47:00.294Z</time></trkpt><trkpt lat="40.9226617" lon="14.4113133"><ele>26.0</ele><time>2026-03-29T08:47:01.294Z</time></trkpt><trkpt lat="40.922585" lon="14.4112733"><ele>25.999999999999996</ele><time>2026-03-29T08:47:02.294Z</time></trkpt><trkpt lat="40.9225083" lon="14.4112317"><ele>26.0</ele><time>2026-03-29T08:47:03.294Z</time></trkpt><trkpt lat="40.9224317" lon="14.411195"><ele>26.0</ele><time>2026-03-29T08:47:04.294Z</time></trkpt><trkpt lat="40.9223533" lon="14.411165"><ele>26.0</ele><time>2026-03-29T08:47:05.294Z</time></trkpt><trkpt lat="40.922275" lon="14.4111367"><ele>25.999999999999996</ele><time>2026-03-29T08:47:06.294Z</time></trkpt><trkpt lat="40.9221967" lon="14.4111067"><ele>26.0</ele><time>2026-03-29T08:47:07.294Z</time></trkpt><trkpt lat="40.9221217" lon="14.4110733"><ele>25.999999999999996</ele><time>2026-03-29T08:47:08.294Z</time></trkpt><trkpt lat="40.9220433" lon="14.4110367"><ele>26.0</ele><time>2026-03-29T08:47:09.293Z</time></trkpt><trkpt lat="40.921965" lon="14.411"><ele>26.0</ele><time>2026-03-29T08:47:10.294Z</time></trkpt><trkpt lat="40.921895" lon="14.4109667"><ele>26.0</ele><time>2026-03-29T08:47:11.295Z</time></trkpt><trkpt lat="40.9218217" lon="14.4109317"><ele>25.999999999999996</ele><time>2026-03-29T08:47:12.295Z</time></trkpt><trkpt lat="40.92175" lon="14.4109017"><ele>26.0</ele><time>2026-03-29T08:47:13.294Z</time></trkpt><trkpt lat="40.9216833" lon="14.4108733"><ele>26.0</ele><time>2026-03-29T08:47:14.293Z</time></trkpt><trkpt lat="40.9216183" lon="14.4108383"><ele>26.0</ele><time>2026-03-29T08:47:15.294Z</time></trkpt><trkpt lat="40.9215517" lon="14.4108033"><ele>26.0</ele><time>2026-03-29T08:47:16.295Z</time></trkpt><trkpt lat="40.9214883" lon="14.4107683"><ele>26.0</ele><time>2026-03-29T08:47:17.293Z</time></trkpt><trkpt lat="40.92142" lon="14.410735"><ele>26.0</ele><time>2026-03-29T08:47:18.295Z</time></trkpt><trkpt lat="40.921355" lon="14.4107017"><ele>26.0</ele><time>2026-03-29T08:47:19.294Z</time></trkpt><trkpt lat="40.92129" lon="14.4106667"><ele>26.0</ele><time>2026-03-29T08:47:20.296Z</time></trkpt><trkpt lat="40.921225" lon="14.41064"><ele>25.999999999999996</ele><time>2026-03-29T08:47:21.294Z</time></trkpt><trkpt lat="40.9211633" lon="14.4106167"><ele>26.0</ele><time>2026-03-29T08:47:22.294Z</time></trkpt><trkpt lat="40.9211017" lon="14.41059"><ele>26.0</ele><time>2026-03-29T08:47:23.295Z</time></trkpt><trkpt lat="40.9209867" lon="14.4105317"><ele>26.0</ele><time>2026-03-29T08:47:25.294Z</time></trkpt><trkpt lat="40.92087" lon="14.4104683"><ele>25.999999999999996</ele><time>2026-03-29T08:47:27.294Z</time></trkpt><trkpt lat="40.92081" lon="14.4104383"><ele>26.0</ele><time>2026-03-29T08:47:28.294Z</time></trkpt><trkpt lat="40.9207483" lon="14.4104083"><ele>26.75</ele><time>2026-03-29T08:47:29.294Z</time></trkpt><trkpt lat="40.9206283" lon="14.410355"><ele>27.5</ele><time>2026-03-29T08:47:31.294Z</time></trkpt><trkpt lat="40.920515" lon="14.4103083"><ele>28.25</ele><time>2026-03-29T08:47:33.293Z</time></trkpt><trkpt lat="40.9203983" lon="14.4102617"><ele>29.0</ele><time>2026-03-29T08:47:35.294Z</time></trkpt><trkpt lat="40.9203" lon="14.4102017"><ele>29.0</ele><time>2026-03-29T08:47:37.294Z</time></trkpt><trkpt lat="40.92019" lon="14.410135"><ele>29.0</ele><time>2026-03-29T08:47:39.293Z</time></trkpt><trkpt lat="40.92013" lon="14.4101033"><ele>29.0</ele><time>2026-03-29T08:47:40.294Z</time></trkpt><trkpt lat="40.92002" lon="14.41004"><ele>29.0</ele><time>2026-03-29T08:47:42.296Z</time></trkpt><trkpt lat="40.9199567" lon="14.410015"><ele>29.0</ele><time>2026-03-29T08:47:43.294Z</time></trkpt><trkpt lat="40.91984" lon="14.4099517"><ele>29.285714285714292</ele><time>2026-03-29T08:47:45.293Z</time></trkpt><trkpt lat="40.91978" lon="14.4099217"><ele>29.571428571428573</ele><time>2026-03-29T08:47:46.294Z</time></trkpt><trkpt lat="40.91972" lon="14.409885"><ele>29.85714285714286</ele><time>2026-03-29T08:47:47.294Z</time></trkpt><trkpt lat="40.9196533" lon="14.409855"><ele>30.142857142857146</ele><time>2026-03-29T08:47:48.295Z</time></trkpt><trkpt lat="40.9195867" lon="14.4098217"><ele>30.42857142857143</ele><time>2026-03-29T08:47:49.294Z</time></trkpt><trkpt lat="40.9195267" lon="14.40979"><ele>30.714285714285715</ele><time>2026-03-29T08:47:50.294Z</time></trkpt><trkpt lat="40.9194667" lon="14.4097567"><ele>31.0</ele><time>2026-03-29T08:47:51.293Z</time></trkpt><trkpt lat="40.9194067" lon="14.40972"><ele>31.000000000000004</ele><time>2026-03-29T08:47:52.294Z</time></trkpt><trkpt lat="40.9193417" lon="14.4096833"><ele>31.0</ele><time>2026-03-29T08:47:53.296Z</time></trkpt><trkpt lat="40.9192733" lon="14.4096383"><ele>31.0</ele><time>2026-03-29T08:47:54.295Z</time></trkpt><trkpt lat="40.919205" lon="14.4095933"><ele>31.0</ele><time>2026-03-29T08:47:55.294Z</time></trkpt><trkpt lat="40.9191383" lon="14.4095467"><ele>31.000000000000004</ele><time>2026-03-29T08:47:56.293Z</time></trkpt><trkpt lat="40.9190667" lon="14.4095017"><ele>31.0</ele><time>2026-03-29T08:47:57.296Z</time></trkpt><trkpt lat="40.9189933" lon="14.4094517"><ele>30.833333333333336</ele><time>2026-03-29T08:47:58.294Z</time></trkpt><trkpt lat="40.9189183" lon="14.4093983"><ele>30.666666666666668</ele><time>2026-03-29T08:47:59.295Z</time></trkpt><trkpt lat="40.9188383" lon="14.409355"><ele>30.5</ele><time>2026-03-29T08:48:00.294Z</time></trkpt><trkpt lat="40.9187667" lon="14.4093033"><ele>30.333333333333336</ele><time>2026-03-29T08:48:01.294Z</time></trkpt><trkpt lat="40.9186967" lon="14.4092517"><ele>30.166666666666668</ele><time>2026-03-29T08:48:02.294Z</time></trkpt><trkpt lat="40.9186267" lon="14.409205"><ele>30.0</ele><time>2026-03-29T08:48:03.293Z</time></trkpt><trkpt lat="40.9185567" lon="14.4091583"><ele>30.0</ele><time>2026-03-29T08:48:04.294Z</time></trkpt><trkpt lat="40.9184867" lon="14.40911"><ele>30.0</ele><time>2026-03-29T08:48:05.294Z</time></trkpt><trkpt lat="40.9184167" lon="14.4090583"><ele>30.0</ele><time>2026-03-29T08:48:06.294Z</time></trkpt><trkpt lat="40.91835" lon="14.4090067"><ele>30.0</ele><time>2026-03-29T08:48:07.294Z</time></trkpt><trkpt lat="40.918285" lon="14.4089533"><ele>30.0</ele><time>2026-03-29T08:48:08.294Z</time></trkpt><trkpt lat="40.9182233" lon="14.4089017"><ele>30.0</ele><time>2026-03-29T08:48:09.295Z</time></trkpt><trkpt lat="40.9181633" lon="14.4088533"><ele>30.5</ele><time>2026-03-29T08:48:10.294Z</time></trkpt><trkpt lat="40.9181067" lon="14.4088033"><ele>31.0</ele><time>2026-03-29T08:48:11.293Z</time></trkpt><trkpt lat="40.9180517" lon="14.408755"><ele>31.5</ele><time>2026-03-29T08:48:12.294Z</time></trkpt><trkpt lat="40.9179983" lon="14.408705"><ele>32.0</ele><time>2026-03-29T08:48:13.295Z</time></trkpt><trkpt lat="40.917945" lon="14.4086567"><ele>32.5</ele><time>2026-03-29T08:48:14.294Z</time></trkpt><trkpt lat="40.9178917" lon="14.4086083"><ele>33.0</ele><time>2026-03-29T08:48:15.296Z</time></trkpt><trkpt lat="40.91779" lon="14.408515"><ele>33.0</ele><time>2026-03-29T08:48:17.294Z</time></trkpt><trkpt lat="40.9176967" lon="14.4084233"><ele>33.0</ele><time>2026-03-29T08:48:19.294Z</time></trkpt><trkpt lat="40.9176" lon="14.40832"><ele>33.0</ele><time>2026-03-29T08:48:21.294Z</time></trkpt><trkpt lat="40.91755" lon="14.4082617"><ele>33.0</ele><time>2026-03-29T08:48:22.293Z</time></trkpt><trkpt lat="40.9175017" lon="14.4082067"><ele>33.0</ele><time>2026-03-29T08:48:23.294Z</time></trkpt><trkpt lat="40.917405" lon="14.4081033"><ele>33.166666666666664</ele><time>2026-03-29T08:48:25.294Z</time></trkpt><trkpt lat="40.917305" lon="14.408005"><ele>33.333333333333336</ele><time>2026-03-29T08:48:27.294Z</time></trkpt><trkpt lat="40.9172517" lon="14.407945"><ele>33.5</ele><time>2026-03-29T08:48:28.294Z</time></trkpt><trkpt lat="40.9172" lon="14.4078867"><ele>33.66666666666667</ele><time>2026-03-29T08:48:29.294Z</time></trkpt><trkpt lat="40.9171467" lon="14.40783"><ele>33.833333333333336</ele><time>2026-03-29T08:48:30.294Z</time></trkpt><trkpt lat="40.917095" lon="14.4077733"><ele>34.0</ele><time>2026-03-29T08:48:31.294Z</time></trkpt><trkpt lat="40.917045" lon="14.4077167"><ele>33.99999999999999</ele><time>2026-03-29T08:48:32.294Z</time></trkpt><trkpt lat="40.9169933" lon="14.4076617"><ele>34.0</ele><time>2026-03-29T08:48:33.293Z</time></trkpt><trkpt lat="40.91694" lon="14.4076067"><ele>34.0</ele><time>2026-03-29T08:48:34.294Z</time></trkpt><trkpt lat="40.9168867" lon="14.4075517"><ele>34.0</ele><time>2026-03-29T08:48:35.295Z</time></trkpt><trkpt lat="40.916835" lon="14.407495"><ele>34.0</ele><time>2026-03-29T08:48:36.296Z</time></trkpt><trkpt lat="40.9167817" lon="14.4074383"><ele>33.99999999999999</ele><time>2026-03-29T08:48:37.293Z</time></trkpt><trkpt lat="40.91673" lon="14.407375"><ele>34.0</ele><time>2026-03-29T08:48:38.294Z</time></trkpt><trkpt lat="40.9166717" lon="14.4073117"><ele>34.42857142857142</ele><time>2026-03-29T08:48:39.294Z</time></trkpt><trkpt lat="40.9166183" lon="14.40725"><ele>34.857142857142854</ele><time>2026-03-29T08:48:40.294Z</time></trkpt><trkpt lat="40.91657" lon="14.4071883"><ele>35.285714285714285</ele><time>2026-03-29T08:48:41.294Z</time></trkpt><trkpt lat="40.9165133" lon="14.40713"><ele>35.71428571428571</ele><time>2026-03-29T08:48:42.294Z</time></trkpt><trkpt lat="40.916455" lon="14.4070683"><ele>36.14285714285714</ele><time>2026-03-29T08:48:43.294Z</time></trkpt><trkpt lat="40.9163983" lon="14.407005"><ele>36.57142857142857</ele><time>2026-03-29T08:48:44.295Z</time></trkpt><trkpt lat="40.9163417" lon="14.4069433"><ele>37.0</ele><time>2026-03-29T08:48:45.294Z</time></trkpt><trkpt lat="40.916285" lon="14.4068833"><ele>37.0</ele><time>2026-03-29T08:48:46.294Z</time></trkpt><trkpt lat="40.9162217" lon="14.40682"><ele>37.0</ele><time>2026-03-29T08:48:47.295Z</time></trkpt><trkpt lat="40.9161583" lon="14.4067567"><ele>37.0</ele><time>2026-03-29T08:48:48.295Z</time></trkpt><trkpt lat="40.916095" lon="14.40669"><ele>37.0</ele><time>2026-03-29T08:48:49.294Z</time></trkpt><trkpt lat="40.9160317" lon="14.406625"><ele>37.0</ele><time>2026-03-29T08:48:50.294Z</time></trkpt><trkpt lat="40.915965" lon="14.4065567"><ele>37.0</ele><time>2026-03-29T08:48:51.295Z</time></trkpt><trkpt lat="40.915905" lon="14.4064883"><ele>37.0</ele><time>2026-03-29T08:48:52.294Z</time></trkpt><trkpt lat="40.91584" lon="14.4064217"><ele>37.0</ele><time>2026-03-29T08:48:53.294Z</time></trkpt><trkpt lat="40.9157733" lon="14.4063533"><ele>37.0</ele><time>2026-03-29T08:48:54.294Z</time></trkpt><trkpt lat="40.9157133" lon="14.40628"><ele>37.0</ele><time>2026-03-29T08:48:55.293Z</time></trkpt><trkpt lat="40.91565" lon="14.4062083"><ele>37.0</ele><time>2026-03-29T08:48:56.294Z</time></trkpt><trkpt lat="40.91559" lon="14.4061317"><ele>37.0</ele><time>2026-03-29T08:48:57.293Z</time></trkpt><trkpt lat="40.9155283" lon="14.4060567"><ele>37.0</ele><time>2026-03-29T08:48:58.294Z</time></trkpt><trkpt lat="40.9154617" lon="14.40598"><ele>37.0</ele><time>2026-03-29T08:48:59.295Z</time></trkpt><trkpt lat="40.9153983" lon="14.4059"><ele>37.0</ele><time>2026-03-29T08:49:00.294Z</time></trkpt><trkpt lat="40.9153367" lon="14.4058167"><ele>37.0</ele><time>2026-03-29T08:49:01.295Z</time></trkpt><trkpt lat="40.9152733" lon="14.405735"><ele>37.0</ele><time>2026-03-29T08:49:02.294Z</time></trkpt><trkpt lat="40.9152133" lon="14.40565"><ele>37.0</ele><time>2026-03-29T08:49:03.294Z</time></trkpt><trkpt lat="40.915155" lon="14.4055583"><ele>36.800000000000004</ele><time>2026-03-29T08:49:04.294Z</time></trkpt><trkpt lat="40.9151" lon="14.4054633"><ele>36.6</ele><time>2026-03-29T08:49:05.293Z</time></trkpt><trkpt lat="40.9150483" lon="14.4053633"><ele>36.400000000000006</ele><time>2026-03-29T08:49:06.294Z</time></trkpt><trkpt lat="40.914995" lon="14.4052617"><ele>36.2</ele><time>2026-03-29T08:49:07.295Z</time></trkpt><trkpt lat="40.9149383" lon="14.4051667"><ele>36.0</ele><time>2026-03-29T08:49:08.294Z</time></trkpt><trkpt lat="40.91488" lon="14.4050783"><ele>36.166666666666664</ele><time>2026-03-29T08:49:09.295Z</time></trkpt><trkpt lat="40.914825" lon="14.4049867"><ele>36.333333333333336</ele><time>2026-03-29T08:49:10.294Z</time></trkpt><trkpt lat="40.914775" lon="14.4048917"><ele>36.5</ele><time>2026-03-29T08:49:11.294Z</time></trkpt><trkpt lat="40.914735" lon="14.4047883"><ele>36.66666666666667</ele><time>2026-03-29T08:49:12.293Z</time></trkpt><trkpt lat="40.9147067" lon="14.4046767"><ele>36.833333333333336</ele><time>2026-03-29T08:49:13.294Z</time></trkpt><trkpt lat="40.9146817" lon="14.4045567"><ele>37.0</ele><time>2026-03-29T08:49:14.295Z</time></trkpt><trkpt lat="40.91466" lon="14.4044283"><ele>37.0</ele><time>2026-03-29T08:49:15.293Z</time></trkpt><trkpt lat="40.9146383" lon="14.4043033"><ele>37.0</ele><time>2026-03-29T08:49:16.294Z</time></trkpt><trkpt lat="40.91462" lon="14.4041733"><ele>37.0</ele><time>2026-03-29T08:49:17.294Z</time></trkpt><trkpt lat="40.9146017" lon="14.4040483"><ele>37.0</ele><time>2026-03-29T08:49:18.294Z</time></trkpt><trkpt lat="40.9145783" lon="14.40393"><ele>37.0</ele><time>2026-03-29T08:49:19.294Z</time></trkpt><trkpt lat="40.91455" lon="14.4038133"><ele>36.4</ele><time>2026-03-29T08:49:20.294Z</time></trkpt><trkpt lat="40.9145283" lon="14.4036933"><ele>35.800000000000004</ele><time>2026-03-29T08:49:21.296Z</time></trkpt><trkpt lat="40.9145117" lon="14.4035683"><ele>35.2</ele><time>2026-03-29T08:49:22.294Z</time></trkpt><trkpt lat="40.91449" lon="14.4034483"><ele>34.6</ele><time>2026-03-29T08:49:23.294Z</time></trkpt><trkpt lat="40.9144717" lon="14.4033217"><ele>34.0</ele><time>2026-03-29T08:49:24.295Z</time></trkpt><trkpt lat="40.91445" lon="14.4032"><ele>34.0</ele><time>2026-03-29T08:49:25.296Z</time></trkpt><trkpt lat="40.9144267" lon="14.4030833"><ele>34.0</ele><time>2026-03-29T08:49:26.295Z</time></trkpt><trkpt lat="40.914405" lon="14.402965"><ele>34.0</ele><time>2026-03-29T08:49:27.294Z</time></trkpt><trkpt lat="40.9143817" lon="14.4028483"><ele>34.0</ele><time>2026-03-29T08:49:28.294Z</time></trkpt><trkpt lat="40.91436" lon="14.4027333"><ele>34.0</ele><time>2026-03-29T08:49:29.294Z</time></trkpt><trkpt lat="40.914335" lon="14.402625"><ele>33.833333333333336</ele><time>2026-03-29T08:49:30.294Z</time></trkpt><trkpt lat="40.9143117" lon="14.40252"><ele>33.66666666666667</ele><time>2026-03-29T08:49:31.294Z</time></trkpt><trkpt lat="40.91429" lon="14.40241"><ele>33.5</ele><time>2026-03-29T08:49:32.296Z</time></trkpt><trkpt lat="40.914265" lon="14.402305"><ele>33.333333333333336</ele><time>2026-03-29T08:49:33.294Z</time></trkpt><trkpt lat="40.9142383" lon="14.402195"><ele>33.166666666666664</ele><time>2026-03-29T08:49:34.294Z</time></trkpt><trkpt lat="40.9142167" lon="14.40209"><ele>33.0</ele><time>2026-03-29T08:49:35.294Z</time></trkpt><trkpt lat="40.9141967" lon="14.401985"><ele>33.5</ele><time>2026-03-29T08:49:36.294Z</time></trkpt><trkpt lat="40.91418" lon="14.4018733"><ele>34.0</ele><time>2026-03-29T08:49:37.294Z</time></trkpt><trkpt lat="40.9141633" lon="14.40176"><ele>34.5</ele><time>2026-03-29T08:49:38.296Z</time></trkpt><trkpt lat="40.9141433" lon="14.4016483"><ele>35.0</ele><time>2026-03-29T08:49:39.293Z</time></trkpt><trkpt lat="40.91412" lon="14.4015367"><ele>35.5</ele><time>2026-03-29T08:49:40.294Z</time></trkpt><trkpt lat="40.9140933" lon="14.40143"><ele>36.0</ele><time>2026-03-29T08:49:41.294Z</time></trkpt><trkpt lat="40.9140667" lon="14.4013283"><ele>36.166666666666664</ele><time>2026-03-29T08:49:42.294Z</time></trkpt><trkpt lat="40.9140417" lon="14.401225"><ele>36.333333333333336</ele><time>2026-03-29T08:49:43.294Z</time></trkpt><trkpt lat="40.9140217" lon="14.4011217"><ele>36.5</ele><time>2026-03-29T08:49:44.296Z</time></trkpt><trkpt lat="40.9140017" lon="14.4010167"><ele>36.66666666666667</ele><time>2026-03-29T08:49:45.294Z</time></trkpt><trkpt lat="40.9139767" lon="14.4009017"><ele>36.833333333333336</ele><time>2026-03-29T08:49:46.294Z</time></trkpt><trkpt lat="40.913955" lon="14.40078"><ele>37.0</ele><time>2026-03-29T08:49:47.295Z</time></trkpt><trkpt lat="40.9139283" lon="14.400655"><ele>37.0</ele><time>2026-03-29T08:49:48.294Z</time></trkpt><trkpt lat="40.9139067" lon="14.4005283"><ele>37.0</ele><time>2026-03-29T08:49:49.294Z</time></trkpt><trkpt lat="40.9138817" lon="14.4004033"><ele>37.0</ele><time>2026-03-29T08:49:50.294Z</time></trkpt><trkpt lat="40.9138567" lon="14.4002783"><ele>37.0</ele><time>2026-03-29T08:49:51.293Z</time></trkpt><trkpt lat="40.9138283" lon="14.400155"><ele>37.0</ele><time>2026-03-29T08:49:52.294Z</time></trkpt><trkpt lat="40.913805" lon="14.4000333"><ele>37.0</ele><time>2026-03-29T08:49:53.294Z</time></trkpt><trkpt lat="40.9137817" lon="14.399925"><ele>37.0</ele><time>2026-03-29T08:49:54.293Z</time></trkpt><trkpt lat="40.9137717" lon="14.399825"><ele>37.0</ele><time>2026-03-29T08:49:55.294Z</time></trkpt><trkpt lat="40.91375" lon="14.3996817"><ele>37.0</ele><time>2026-03-29T08:49:57.295Z</time></trkpt><trkpt lat="40.9137133" lon="14.3995667"><ele>37.0</ele><time>2026-03-29T08:49:59.297Z</time></trkpt><trkpt lat="40.913685" lon="14.39942"><ele>37.0</ele><time>2026-03-29T08:50:01.294Z</time></trkpt><trkpt lat="40.9136533" lon="14.3992533"><ele>37.0</ele><time>2026-03-29T08:50:03.294Z</time></trkpt><trkpt lat="40.9136367" lon="14.3991617"><ele>37.0</ele><time>2026-03-29T08:50:04.294Z</time></trkpt><trkpt lat="40.9136183" lon="14.39907"><ele>37.0</ele><time>2026-03-29T08:50:05.294Z</time></trkpt><trkpt lat="40.9136033" lon="14.3989733"><ele>37.0</ele><time>2026-03-29T08:50:06.294Z</time></trkpt><trkpt lat="40.9135883" lon="14.3988733"><ele>37.0</ele><time>2026-03-29T08:50:07.294Z</time></trkpt><trkpt lat="40.91357" lon="14.3987717"><ele>37.16666666666667</ele><time>2026-03-29T08:50:08.294Z</time></trkpt><trkpt lat="40.913555" lon="14.3986717"><ele>37.333333333333336</ele><time>2026-03-29T08:50:09.293Z</time></trkpt><trkpt lat="40.9135417" lon="14.39857"><ele>37.5</ele><time>2026-03-29T08:50:10.294Z</time></trkpt><trkpt lat="40.913525" lon="14.3984733"><ele>37.666666666666664</ele><time>2026-03-29T08:50:11.294Z</time></trkpt><trkpt lat="40.9135083" lon="14.39838"><ele>37.83333333333333</ele><time>2026-03-29T08:50:12.294Z</time></trkpt><trkpt lat="40.9134933" lon="14.3982817"><ele>38.0</ele><time>2026-03-29T08:50:13.294Z</time></trkpt><trkpt lat="40.9134783" lon="14.3981867"><ele>38.0</ele><time>2026-03-29T08:50:14.294Z</time></trkpt><trkpt lat="40.91346" lon="14.3980967"><ele>38.0</ele><time>2026-03-29T08:50:15.294Z</time></trkpt><trkpt lat="40.9134467" lon="14.398005"><ele>38.0</ele><time>2026-03-29T08:50:16.294Z</time></trkpt><trkpt lat="40.9134283" lon="14.3979167"><ele>38.0</ele><time>2026-03-29T08:50:17.294Z</time></trkpt><trkpt lat="40.9134083" lon="14.3978233"><ele>38.0</ele><time>2026-03-29T08:50:18.294Z</time></trkpt><trkpt lat="40.9133883" lon="14.39773"><ele>38.0</ele><time>2026-03-29T08:50:19.294Z</time></trkpt><trkpt lat="40.9133733" lon="14.3976333"><ele>38.0</ele><time>2026-03-29T08:50:20.297Z</time></trkpt><trkpt lat="40.91336" lon="14.3975317"><ele>37.57142857142857</ele><time>2026-03-29T08:50:21.294Z</time></trkpt><trkpt lat="40.9133433" lon="14.3974333"><ele>37.142857142857146</ele><time>2026-03-29T08:50:22.294Z</time></trkpt><trkpt lat="40.913325" lon="14.39734"><ele>36.714285714285715</ele><time>2026-03-29T08:50:23.294Z</time></trkpt><trkpt lat="40.9133017" lon="14.3972467"><ele>36.285714285714285</ele><time>2026-03-29T08:50:24.296Z</time></trkpt><trkpt lat="40.91328" lon="14.3971533"><ele>35.85714285714286</ele><time>2026-03-29T08:50:25.294Z</time></trkpt><trkpt lat="40.9132583" lon="14.3970583"><ele>35.42857142857143</ele><time>2026-03-29T08:50:26.297Z</time></trkpt><trkpt lat="40.9132383" lon="14.3969633"><ele>35.0</ele><time>2026-03-29T08:50:27.294Z</time></trkpt><trkpt lat="40.9132133" lon="14.3968667"><ele>35.0</ele><time>2026-03-29T08:50:28.294Z</time></trkpt><trkpt lat="40.9131883" lon="14.396765"><ele>35.0</ele><time>2026-03-29T08:50:29.294Z</time></trkpt><trkpt lat="40.9131633" lon="14.396665"><ele>35.0</ele><time>2026-03-29T08:50:30.294Z</time></trkpt><trkpt lat="40.9131417" lon="14.3965667"><ele>35.0</ele><time>2026-03-29T08:50:31.295Z</time></trkpt><trkpt lat="40.91312" lon="14.3964733"><ele>35.0</ele><time>2026-03-29T08:50:32.294Z</time></trkpt><trkpt lat="40.9131" lon="14.396375"><ele>35.0</ele><time>2026-03-29T08:50:33.296Z</time></trkpt><trkpt lat="40.91308" lon="14.3962783"><ele>34.714285714285715</ele><time>2026-03-29T08:50:34.294Z</time></trkpt><trkpt lat="40.9130617" lon="14.3961833"><ele>34.42857142857143</ele><time>2026-03-29T08:50:35.295Z</time></trkpt><trkpt lat="40.913045" lon="14.39609"><ele>34.14285714285714</ele><time>2026-03-29T08:50:36.294Z</time></trkpt><trkpt lat="40.91303" lon="14.3959967"><ele>33.85714285714286</ele><time>2026-03-29T08:50:37.294Z</time></trkpt><trkpt lat="40.9130117" lon="14.395905"><ele>33.57142857142857</ele><time>2026-03-29T08:50:38.294Z</time></trkpt><trkpt lat="40.9129933" lon="14.39581"><ele>33.285714285714285</ele><time>2026-03-29T08:50:39.294Z</time></trkpt><trkpt lat="40.912975" lon="14.3957167"><ele>33.0</ele><time>2026-03-29T08:50:40.294Z</time></trkpt><trkpt lat="40.91296" lon="14.3956217"><ele>33.0</ele><time>2026-03-29T08:50:41.294Z</time></trkpt><trkpt lat="40.9129433" lon="14.3955283"><ele>33.0</ele><time>2026-03-29T08:50:42.294Z</time></trkpt><trkpt lat="40.9129283" lon="14.3954333"><ele>33.0</ele><time>2026-03-29T08:50:43.295Z</time></trkpt><trkpt lat="40.9129133" lon="14.3953417"><ele>33.0</ele><time>2026-03-29T08:50:44.294Z</time></trkpt><trkpt lat="40.9128983" lon="14.3952483"><ele>33.0</ele><time>2026-03-29T08:50:45.295Z</time></trkpt><trkpt lat="40.9128833" lon="14.395155"><ele>33.0</ele><time>2026-03-29T08:50:46.296Z</time></trkpt><trkpt lat="40.9128683" lon="14.39506"><ele>33.0</ele><time>2026-03-29T08:50:47.294Z</time></trkpt><trkpt lat="40.912855" lon="14.3949617"><ele>32.857142857142854</ele><time>2026-03-29T08:50:48.294Z</time></trkpt><trkpt lat="40.9128367" lon="14.3948667"><ele>32.714285714285715</ele><time>2026-03-29T08:50:49.294Z</time></trkpt><trkpt lat="40.9128133" lon="14.394775"><ele>32.57142857142857</ele><time>2026-03-29T08:50:50.294Z</time></trkpt><trkpt lat="40.9127883" lon="14.3946817"><ele>32.42857142857143</ele><time>2026-03-29T08:50:51.294Z</time></trkpt><trkpt lat="40.912765" lon="14.394585"><ele>32.285714285714285</ele><time>2026-03-29T08:50:52.294Z</time></trkpt><trkpt lat="40.912745" lon="14.3944883"><ele>32.14285714285714</ele><time>2026-03-29T08:50:53.295Z</time></trkpt><trkpt lat="40.9127233" lon="14.3943933"><ele>32.0</ele><time>2026-03-29T08:50:54.294Z</time></trkpt><trkpt lat="40.9127033" lon="14.3942983"><ele>31.999999999999996</ele><time>2026-03-29T08:50:55.294Z</time></trkpt><trkpt lat="40.9126867" lon="14.3941983"><ele>32.0</ele><time>2026-03-29T08:50:56.295Z</time></trkpt><trkpt lat="40.912665" lon="14.3941083"><ele>32.0</ele><time>2026-03-29T08:50:57.294Z</time></trkpt><trkpt lat="40.91265" lon="14.3940167"><ele>32.0</ele><time>2026-03-29T08:50:58.294Z</time></trkpt><trkpt lat="40.912635" lon="14.3939267"><ele>31.999999999999996</ele><time>2026-03-29T08:50:59.294Z</time></trkpt><trkpt lat="40.9126233" lon="14.3938433"><ele>32.0</ele><time>2026-03-29T08:51:00.294Z</time></trkpt><trkpt lat="40.9126033" lon="14.3936783"><ele>32.14285714285714</ele><time>2026-03-29T08:51:02.294Z</time></trkpt><trkpt lat="40.9125883" lon="14.3935917"><ele>32.285714285714285</ele><time>2026-03-29T08:51:03.294Z</time></trkpt><trkpt lat="40.9125717" lon="14.3935033"><ele>32.42857142857143</ele><time>2026-03-29T08:51:04.294Z</time></trkpt><trkpt lat="40.912555" lon="14.3934167"><ele>32.57142857142857</ele><time>2026-03-29T08:51:05.294Z</time></trkpt><trkpt lat="40.9125383" lon="14.39333"><ele>32.714285714285715</ele><time>2026-03-29T08:51:06.294Z</time></trkpt><trkpt lat="40.9125217" lon="14.39324"><ele>32.857142857142854</ele><time>2026-03-29T08:51:07.294Z</time></trkpt><trkpt lat="40.912505" lon="14.3931517"><ele>33.0</ele><time>2026-03-29T08:51:08.295Z</time></trkpt><trkpt lat="40.9124883" lon="14.3930633"><ele>33.0</ele><time>2026-03-29T08:51:09.294Z</time></trkpt><trkpt lat="40.91247" lon="14.3929767"><ele>33.0</ele><time>2026-03-29T08:51:10.294Z</time></trkpt><trkpt lat="40.9124517" lon="14.39289"><ele>33.0</ele><time>2026-03-29T08:51:11.294Z</time></trkpt><trkpt lat="40.91243" lon="14.3927967"><ele>33.0</ele><time>2026-03-29T08:51:12.294Z</time></trkpt><trkpt lat="40.9124067" lon="14.3927017"><ele>33.0</ele><time>2026-03-29T08:51:13.294Z</time></trkpt><trkpt lat="40.9123833" lon="14.3926067"><ele>33.0</ele><time>2026-03-29T08:51:14.294Z</time></trkpt><trkpt lat="40.9123633" lon="14.39251"><ele>33.0</ele><time>2026-03-29T08:51:15.294Z</time></trkpt><trkpt lat="40.9123467" lon="14.3924167"><ele>33.0</ele><time>2026-03-29T08:51:16.294Z</time></trkpt><trkpt lat="40.9123283" lon="14.3923217"><ele>33.0</ele><time>2026-03-29T08:51:17.294Z</time></trkpt><trkpt lat="40.91231" lon="14.39223"><ele>33.0</ele><time>2026-03-29T08:51:18.294Z</time></trkpt><trkpt lat="40.9122883" lon="14.3921383"><ele>33.0</ele><time>2026-03-29T08:51:19.295Z</time></trkpt><trkpt lat="40.9122683" lon="14.392045"><ele>33.0</ele><time>2026-03-29T08:51:20.294Z</time></trkpt><trkpt lat="40.9122483" lon="14.3919533"><ele>33.0</ele><time>2026-03-29T08:51:21.293Z</time></trkpt><trkpt lat="40.9122267" lon="14.3918633"><ele>33.0</ele><time>2026-03-29T08:51:22.294Z</time></trkpt><trkpt lat="40.912205" lon="14.39177"><ele>33.0</ele><time>2026-03-29T08:51:23.295Z</time></trkpt><trkpt lat="40.9121817" lon="14.39168"><ele>33.0</ele><time>2026-03-29T08:51:24.294Z</time></trkpt><trkpt lat="40.912165" lon="14.3915817"><ele>33.0</ele><time>2026-03-29T08:51:25.294Z</time></trkpt><trkpt lat="40.912145" lon="14.3914917"><ele>33.0</ele><time>2026-03-29T08:51:26.294Z</time></trkpt><trkpt lat="40.912125" lon="14.3914067"><ele>33.0</ele><time>2026-03-29T08:51:27.294Z</time></trkpt><trkpt lat="40.9120933" lon="14.3912483"><ele>33.0</ele><time>2026-03-29T08:51:29.296Z</time></trkpt><trkpt lat="40.9120617" lon="14.3910917"><ele>33.0</ele><time>2026-03-29T08:51:31.294Z</time></trkpt><trkpt lat="40.9120333" lon="14.39093"><ele>33.0</ele><time>2026-03-29T08:51:33.295Z</time></trkpt><trkpt lat="40.9119967" lon="14.3907717"><ele>33.0</ele><time>2026-03-29T08:51:35.297Z</time></trkpt><trkpt lat="40.91197" lon="14.390695"><ele>33.0</ele><time>2026-03-29T08:51:36.294Z</time></trkpt><trkpt lat="40.9119467" lon="14.3906083"><ele>33.0</ele><time>2026-03-29T08:51:37.294Z</time></trkpt><trkpt lat="40.9119233" lon="14.3905217"><ele>32.714285714285715</ele><time>2026-03-29T08:51:38.295Z</time></trkpt><trkpt lat="40.9119" lon="14.39043"><ele>32.42857142857143</ele><time>2026-03-29T08:51:39.294Z</time></trkpt><trkpt lat="40.911875" lon="14.3903417"><ele>32.142857142857146</ele><time>2026-03-29T08:51:40.294Z</time></trkpt><trkpt lat="40.9118583" lon="14.39025"><ele>31.857142857142858</ele><time>2026-03-29T08:51:41.294Z</time></trkpt><trkpt lat="40.9118467" lon="14.3901583"><ele>31.571428571428577</ele><time>2026-03-29T08:51:42.294Z</time></trkpt><trkpt lat="40.9118267" lon="14.390075"><ele>31.28571428571429</ele><time>2026-03-29T08:51:43.294Z</time></trkpt><trkpt lat="40.9118033" lon="14.3899733"><ele>31.0</ele><time>2026-03-29T08:51:44.294Z</time></trkpt><trkpt lat="40.9117833" lon="14.3898733"><ele>31.000000000000004</ele><time>2026-03-29T08:51:45.293Z</time></trkpt><trkpt lat="40.9117517" lon="14.3897783"><ele>31.0</ele><time>2026-03-29T08:51:46.304Z</time></trkpt><trkpt lat="40.911725" lon="14.389685"><ele>31.0</ele><time>2026-03-29T08:51:47.294Z</time></trkpt><trkpt lat="40.9116983" lon="14.3895833"><ele>31.0</ele><time>2026-03-29T08:51:48.294Z</time></trkpt><trkpt lat="40.9116683" lon="14.389485"><ele>31.000000000000004</ele><time>2026-03-29T08:51:49.294Z</time></trkpt><trkpt lat="40.9116417" lon="14.3893867"><ele>31.0</ele><time>2026-03-29T08:51:50.295Z</time></trkpt><trkpt lat="40.9116167" lon="14.3892917"><ele>31.42857142857143</ele><time>2026-03-29T08:51:51.293Z</time></trkpt><trkpt lat="40.9115917" lon="14.3892033"><ele>31.85714285714286</ele><time>2026-03-29T08:51:52.295Z</time></trkpt><trkpt lat="40.9115717" lon="14.38912"><ele>32.285714285714285</ele><time>2026-03-29T08:51:53.294Z</time></trkpt><trkpt lat="40.9115533" lon="14.3890333"><ele>32.714285714285715</ele><time>2026-03-29T08:51:54.294Z</time></trkpt><trkpt lat="40.91155" lon="14.3889467"><ele>33.14285714285714</ele><time>2026-03-29T08:51:55.294Z</time></trkpt><trkpt lat="40.9115333" lon="14.388865"><ele>33.57142857142857</ele><time>2026-03-29T08:51:56.296Z</time></trkpt><trkpt lat="40.9115133" lon="14.3887817"><ele>34.0</ele><time>2026-03-29T08:51:57.293Z</time></trkpt><trkpt lat="40.9114917" lon="14.3886983"><ele>34.0</ele><time>2026-03-29T08:51:58.301Z</time></trkpt><trkpt lat="40.91146" lon="14.388545"><ele>34.0</ele><time>2026-03-29T08:52:00.294Z</time></trkpt><trkpt lat="40.9114167" lon="14.388415"><ele>34.0</ele><time>2026-03-29T08:52:02.296Z</time></trkpt><trkpt lat="40.9114083" lon="14.3882817"><ele>34.0</ele><time>2026-03-29T08:52:04.294Z</time></trkpt><trkpt lat="40.91141" lon="14.3881983"><ele>34.0</ele><time>2026-03-29T08:52:05.295Z</time></trkpt><trkpt lat="40.9114267" lon="14.3881033"><ele>34.0</ele><time>2026-03-29T08:52:06.294Z</time></trkpt><trkpt lat="40.9114433" lon="14.3880167"><ele>34.0</ele><time>2026-03-29T08:52:07.294Z</time></trkpt><trkpt lat="40.9114833" lon="14.3878533"><ele>34.0</ele><time>2026-03-29T08:52:09.294Z</time></trkpt><trkpt lat="40.9115" lon="14.3877667"><ele>34.0</ele><time>2026-03-29T08:52:10.294Z</time></trkpt><trkpt lat="40.9115133" lon="14.3876717"><ele>34.0</ele><time>2026-03-29T08:52:11.295Z</time></trkpt><trkpt lat="40.9115283" lon="14.3875783"><ele>34.0</ele><time>2026-03-29T08:52:12.294Z</time></trkpt><trkpt lat="40.911545" lon="14.3874767"><ele>33.833333333333336</ele><time>2026-03-29T08:52:13.294Z</time></trkpt><trkpt lat="40.9115617" lon="14.38737"><ele>33.66666666666667</ele><time>2026-03-29T08:52:14.294Z</time></trkpt><trkpt lat="40.9115733" lon="14.3872633"><ele>33.5</ele><time>2026-03-29T08:52:15.294Z</time></trkpt><trkpt lat="40.911595" lon="14.3871533"><ele>33.333333333333336</ele><time>2026-03-29T08:52:16.294Z</time></trkpt><trkpt lat="40.9116067" lon="14.3870433"><ele>33.166666666666664</ele><time>2026-03-29T08:52:17.295Z</time></trkpt><trkpt lat="40.9116217" lon="14.3869333"><ele>33.0</ele><time>2026-03-29T08:52:18.294Z</time></trkpt><trkpt lat="40.9116367" lon="14.3868333"><ele>32.833333333333336</ele><time>2026-03-29T08:52:19.294Z</time></trkpt><trkpt lat="40.91165" lon="14.38674"><ele>32.666666666666664</ele><time>2026-03-29T08:52:20.294Z</time></trkpt><trkpt lat="40.911645" lon="14.3866467"><ele>32.5</ele><time>2026-03-29T08:52:21.295Z</time></trkpt><trkpt lat="40.911635" lon="14.3865583"><ele>32.33333333333333</ele><time>2026-03-29T08:52:22.293Z</time></trkpt><trkpt lat="40.9116183" lon="14.386405"><ele>32.166666666666664</ele><time>2026-03-29T08:52:24.295Z</time></trkpt><trkpt lat="40.91161" lon="14.3863217"><ele>32.0</ele><time>2026-03-29T08:52:25.297Z</time></trkpt><trkpt lat="40.9115967" lon="14.3862267"><ele>31.999999999999996</ele><time>2026-03-29T08:52:26.294Z</time></trkpt><trkpt lat="40.9115833" lon="14.38613"><ele>32.0</ele><time>2026-03-29T08:52:27.294Z</time></trkpt><trkpt lat="40.9115717" lon="14.38603"><ele>32.0</ele><time>2026-03-29T08:52:28.294Z</time></trkpt><trkpt lat="40.91155" lon="14.3859283"><ele>32.0</ele><time>2026-03-29T08:52:29.294Z</time></trkpt><trkpt lat="40.9115333" lon="14.3858233"><ele>31.999999999999996</ele><time>2026-03-29T08:52:30.296Z</time></trkpt><trkpt lat="40.9115117" lon="14.3857167"><ele>32.0</ele><time>2026-03-29T08:52:31.294Z</time></trkpt><trkpt lat="40.9114817" lon="14.3856233"><ele>31.8</ele><time>2026-03-29T08:52:32.294Z</time></trkpt><trkpt lat="40.9114283" lon="14.3855033"><ele>31.6</ele><time>2026-03-29T08:52:34.294Z</time></trkpt><trkpt lat="40.9113733" lon="14.38541"><ele>31.400000000000002</ele><time>2026-03-29T08:52:36.295Z</time></trkpt><trkpt lat="40.911305" lon="14.385305"><ele>31.200000000000003</ele><time>2026-03-29T08:52:38.294Z</time></trkpt><trkpt lat="40.9112383" lon="14.385185"><ele>31.0</ele><time>2026-03-29T08:52:40.295Z</time></trkpt><trkpt lat="40.9111983" lon="14.3851167"><ele>31.0</ele><time>2026-03-29T08:52:41.294Z</time></trkpt><trkpt lat="40.9111617" lon="14.3850433"><ele>31.000000000000004</ele><time>2026-03-29T08:52:42.294Z</time></trkpt><trkpt lat="40.91112" lon="14.3849667"><ele>31.0</ele><time>2026-03-29T08:52:43.294Z</time></trkpt><trkpt lat="40.9110817" lon="14.38489"><ele>31.0</ele><time>2026-03-29T08:52:44.294Z</time></trkpt><trkpt lat="40.9110433" lon="14.38481"><ele>31.000000000000004</ele><time>2026-03-29T08:52:45.294Z</time></trkpt><trkpt lat="40.911" lon="14.3847317"><ele>31.0</ele><time>2026-03-29T08:52:46.294Z</time></trkpt><trkpt lat="40.91096" lon="14.3846533"><ele>31.0</ele><time>2026-03-29T08:52:47.295Z</time></trkpt><trkpt lat="40.91092" lon="14.3845767"><ele>31.28571428571429</ele><time>2026-03-29T08:52:48.295Z</time></trkpt><trkpt lat="40.9108817" lon="14.3844983"><ele>31.571428571428577</ele><time>2026-03-29T08:52:49.295Z</time></trkpt><trkpt lat="40.9108417" lon="14.3844217"><ele>31.857142857142858</ele><time>2026-03-29T08:52:50.294Z</time></trkpt><trkpt lat="40.9108067" lon="14.3843433"><ele>32.142857142857146</ele><time>2026-03-29T08:52:51.294Z</time></trkpt><trkpt lat="40.9107717" lon="14.384265"><ele>32.42857142857143</ele><time>2026-03-29T08:52:52.294Z</time></trkpt><trkpt lat="40.9107383" lon="14.3841867"><ele>32.714285714285715</ele><time>2026-03-29T08:52:53.294Z</time></trkpt><trkpt lat="40.910705" lon="14.384105"><ele>33.0</ele><time>2026-03-29T08:52:54.297Z</time></trkpt><trkpt lat="40.9106667" lon="14.3840267"><ele>33.0</ele><time>2026-03-29T08:52:55.294Z</time></trkpt><trkpt lat="40.9106283" lon="14.3839483"><ele>33.0</ele><time>2026-03-29T08:52:56.294Z</time></trkpt><trkpt lat="40.9105883" lon="14.3838733"><ele>33.0</ele><time>2026-03-29T08:52:57.295Z</time></trkpt><trkpt lat="40.9105483" lon="14.3837983"><ele>33.0</ele><time>2026-03-29T08:52:58.294Z</time></trkpt><trkpt lat="40.91051" lon="14.3837233"><ele>33.0</ele><time>2026-03-29T08:52:59.295Z</time></trkpt><trkpt lat="40.9104733" lon="14.3836483"><ele>33.0</ele><time>2026-03-29T08:53:00.294Z</time></trkpt><trkpt lat="40.9104333" lon="14.3835733"><ele>33.0</ele><time>2026-03-29T08:53:01.295Z</time></trkpt><trkpt lat="40.9103967" lon="14.3834983"><ele>32.833333333333336</ele><time>2026-03-29T08:53:02.294Z</time></trkpt><trkpt lat="40.91036" lon="14.3834217"><ele>32.666666666666664</ele><time>2026-03-29T08:53:03.293Z</time></trkpt><trkpt lat="40.910325" lon="14.3833417"><ele>32.5</ele><time>2026-03-29T08:53:04.296Z</time></trkpt><trkpt lat="40.91029" lon="14.38327"><ele>32.33333333333333</ele><time>2026-03-29T08:53:05.293Z</time></trkpt><trkpt lat="40.91022" lon="14.3831167"><ele>32.166666666666664</ele><time>2026-03-29T08:53:07.293Z</time></trkpt><trkpt lat="40.910165" lon="14.3830083"><ele>32.0</ele><time>2026-03-29T08:53:09.297Z</time></trkpt><trkpt lat="40.9101567" lon="14.3829183"><ele>31.999999999999996</ele><time>2026-03-29T08:53:11.294Z</time></trkpt><trkpt lat="40.9101183" lon="14.3828033"><ele>32.0</ele><time>2026-03-29T08:53:13.294Z</time></trkpt><trkpt lat="40.910045" lon="14.3827117"><ele>32.0</ele><time>2026-03-29T08:53:15.293Z</time></trkpt><trkpt lat="40.9099883" lon="14.3826317"><ele>32.0</ele><time>2026-03-29T08:53:17.293Z</time></trkpt><trkpt lat="40.9099533" lon="14.3825467"><ele>31.999999999999996</ele><time>2026-03-29T08:53:20.294Z</time></trkpt><trkpt lat="40.9099017" lon="14.3824383"><ele>32.0</ele><time>2026-03-29T08:53:23.293Z</time></trkpt><trkpt lat="40.9098583" lon="14.3823383"><ele>32.0</ele><time>2026-03-29T08:53:25.293Z</time></trkpt><trkpt lat="40.9098133" lon="14.38222"><ele>32.0</ele><time>2026-03-29T08:53:27.294Z</time></trkpt><trkpt lat="40.9097683" lon="14.3820767"><ele>32.0</ele><time>2026-03-29T08:53:29.293Z</time></trkpt><trkpt lat="40.9097133" lon="14.3819333"><ele>32.0</ele><time>2026-03-29T08:53:31.293Z</time></trkpt><trkpt lat="40.9096533" lon="14.3817917"><ele>32.0</ele><time>2026-03-29T08:53:33.293Z</time></trkpt><trkpt lat="40.9096" lon="14.3816533"><ele>32.0</ele><time>2026-03-29T08:53:35.293Z</time></trkpt><trkpt lat="40.9095417" lon="14.3815217"><ele>32.0</ele><time>2026-03-29T08:53:37.293Z</time></trkpt><trkpt lat="40.909485" lon="14.3813867"><ele>32.0</ele><time>2026-03-29T08:53:39.293Z</time></trkpt><trkpt lat="40.90943" lon="14.3812517"><ele>31.833333333333332</ele><time>2026-03-29T08:53:41.294Z</time></trkpt><trkpt lat="40.9093733" lon="14.3811067"><ele>31.666666666666664</ele><time>2026-03-29T08:53:43.293Z</time></trkpt><trkpt lat="40.9093533" lon="14.3810267"><ele>31.5</ele><time>2026-03-29T08:53:44.294Z</time></trkpt><trkpt lat="40.9093367" lon="14.3808583"><ele>31.333333333333336</ele><time>2026-03-29T08:53:46.293Z</time></trkpt><trkpt lat="40.9093367" lon="14.380775"><ele>31.166666666666668</ele><time>2026-03-29T08:53:47.296Z</time></trkpt><trkpt lat="40.909335" lon="14.380685"><ele>31.0</ele><time>2026-03-29T08:53:48.293Z</time></trkpt><trkpt lat="40.9093267" lon="14.3806"><ele>31.0</ele><time>2026-03-29T08:53:49.293Z</time></trkpt><trkpt lat="40.909305" lon="14.380515"><ele>31.000000000000004</ele><time>2026-03-29T08:53:50.293Z</time></trkpt><trkpt lat="40.9092667" lon="14.380445"><ele>31.0</ele><time>2026-03-29T08:53:51.293Z</time></trkpt><trkpt lat="40.9092133" lon="14.3803917"><ele>31.0</ele><time>2026-03-29T08:53:52.294Z</time></trkpt><trkpt lat="40.90915" lon="14.38035"><ele>31.000000000000004</ele><time>2026-03-29T08:53:53.294Z</time></trkpt><trkpt lat="40.909085" lon="14.3803017"><ele>31.0</ele><time>2026-03-29T08:53:54.293Z</time></trkpt><trkpt lat="40.9090283" lon="14.3802333"><ele>31.0</ele><time>2026-03-29T08:53:55.293Z</time></trkpt><trkpt lat="40.9089883" lon="14.3801467"><ele>31.166666666666668</ele><time>2026-03-29T08:53:56.298Z</time></trkpt><trkpt lat="40.9089617" lon="14.3800533"><ele>31.333333333333336</ele><time>2026-03-29T08:53:57.294Z</time></trkpt><trkpt lat="40.9089333" lon="14.3799583"><ele>31.5</ele><time>2026-03-29T08:53:58.293Z</time></trkpt><trkpt lat="40.9089067" lon="14.37986"><ele>31.666666666666664</ele><time>2026-03-29T08:53:59.293Z</time></trkpt><trkpt lat="40.9088783" lon="14.37976"><ele>31.833333333333332</ele><time>2026-03-29T08:54:00.293Z</time></trkpt><trkpt lat="40.9088483" lon="14.37966"><ele>32.0</ele><time>2026-03-29T08:54:01.294Z</time></trkpt><trkpt lat="40.9088183" lon="14.3795583"><ele>31.499999999999996</ele><time>2026-03-29T08:54:02.293Z</time></trkpt><trkpt lat="40.9087917" lon="14.3794567"><ele>31.0</ele><time>2026-03-29T08:54:03.294Z</time></trkpt><trkpt lat="40.9087667" lon="14.3793533"><ele>30.5</ele><time>2026-03-29T08:54:04.294Z</time></trkpt><trkpt lat="40.9087383" lon="14.3792517"><ele>30.0</ele><time>2026-03-29T08:54:05.294Z</time></trkpt><trkpt lat="40.9087117" lon="14.3791483"><ele>29.499999999999996</ele><time>2026-03-29T08:54:06.294Z</time></trkpt><trkpt lat="40.90868" lon="14.3790517"><ele>29.0</ele><time>2026-03-29T08:54:07.294Z</time></trkpt><trkpt lat="40.9086483" lon="14.3789583"><ele>28.999999999999996</ele><time>2026-03-29T08:54:08.294Z</time></trkpt><trkpt lat="40.9086167" lon="14.378865"><ele>29.0</ele><time>2026-03-29T08:54:09.293Z</time></trkpt><trkpt lat="40.9085867" lon="14.378775"><ele>29.0</ele><time>2026-03-29T08:54:10.293Z</time></trkpt><trkpt lat="40.9085583" lon="14.3786817"><ele>29.0</ele><time>2026-03-29T08:54:11.294Z</time></trkpt><trkpt lat="40.9085333" lon="14.378585"><ele>28.999999999999996</ele><time>2026-03-29T08:54:12.293Z</time></trkpt><trkpt lat="40.9085133" lon="14.3784833"><ele>29.0</ele><time>2026-03-29T08:54:13.294Z</time></trkpt><trkpt lat="40.90849" lon="14.378385"><ele>29.166666666666664</ele><time>2026-03-29T08:54:14.295Z</time></trkpt><trkpt lat="40.9084667" lon="14.3782917"><ele>29.333333333333332</ele><time>2026-03-29T08:54:15.293Z</time></trkpt><trkpt lat="40.9084383" lon="14.3781933"><ele>29.5</ele><time>2026-03-29T08:54:16.296Z</time></trkpt><trkpt lat="40.90841" lon="14.378095"><ele>29.666666666666664</ele><time>2026-03-29T08:54:17.294Z</time></trkpt><trkpt lat="40.908385" lon="14.3779933"><ele>29.833333333333332</ele><time>2026-03-29T08:54:18.293Z</time></trkpt><trkpt lat="40.9083567" lon="14.3778933"><ele>30.0</ele><time>2026-03-29T08:54:19.294Z</time></trkpt><trkpt lat="40.9083267" lon="14.3777917"><ele>30.0</ele><time>2026-03-29T08:54:20.293Z</time></trkpt><trkpt lat="40.9083017" lon="14.3776917"><ele>30.0</ele><time>2026-03-29T08:54:21.293Z</time></trkpt><trkpt lat="40.9082783" lon="14.3775867"><ele>30.0</ele><time>2026-03-29T08:54:22.294Z</time></trkpt><trkpt lat="40.9082517" lon="14.37749"><ele>30.0</ele><time>2026-03-29T08:54:23.293Z</time></trkpt><trkpt lat="40.908225" lon="14.37739"><ele>30.0</ele><time>2026-03-29T08:54:24.293Z</time></trkpt><trkpt lat="40.908195" lon="14.377285"><ele>30.0</ele><time>2026-03-29T08:54:25.293Z</time></trkpt><trkpt lat="40.9081633" lon="14.3771883"><ele>29.666666666666668</ele><time>2026-03-29T08:54:26.293Z</time></trkpt><trkpt lat="40.90813" lon="14.377095"><ele>29.333333333333336</ele><time>2026-03-29T08:54:27.294Z</time></trkpt><trkpt lat="40.9080967" lon="14.3770033"><ele>29.0</ele><time>2026-03-29T08:54:28.293Z</time></trkpt><trkpt lat="40.908065" lon="14.3769133"><ele>28.666666666666668</ele><time>2026-03-29T08:54:29.294Z</time></trkpt><trkpt lat="40.9080383" lon="14.37682"><ele>28.333333333333336</ele><time>2026-03-29T08:54:30.293Z</time></trkpt><trkpt lat="40.9080183" lon="14.3767233"><ele>28.0</ele><time>2026-03-29T08:54:31.294Z</time></trkpt><trkpt lat="40.908" lon="14.3766233"><ele>28.000000000000004</ele><time>2026-03-29T08:54:32.294Z</time></trkpt><trkpt lat="40.907985" lon="14.3765233"><ele>28.0</ele><time>2026-03-29T08:54:33.294Z</time></trkpt><trkpt lat="40.9079717" lon="14.3764183"><ele>28.0</ele><time>2026-03-29T08:54:34.294Z</time></trkpt><trkpt lat="40.907965" lon="14.37631"><ele>28.0</ele><time>2026-03-29T08:54:35.295Z</time></trkpt><trkpt lat="40.90796" lon="14.376195"><ele>28.000000000000004</ele><time>2026-03-29T08:54:36.294Z</time></trkpt><trkpt lat="40.9079583" lon="14.3760817"><ele>28.0</ele><time>2026-03-29T08:54:37.293Z</time></trkpt><trkpt lat="40.90796" lon="14.37597"><ele>28.166666666666668</ele><time>2026-03-29T08:54:38.294Z</time></trkpt><trkpt lat="40.907965" lon="14.3758583"><ele>28.333333333333336</ele><time>2026-03-29T08:54:39.296Z</time></trkpt><trkpt lat="40.9079767" lon="14.3757533"><ele>28.5</ele><time>2026-03-29T08:54:40.294Z</time></trkpt><trkpt lat="40.9079867" lon="14.3756433"><ele>28.666666666666664</ele><time>2026-03-29T08:54:41.294Z</time></trkpt><trkpt lat="40.9079967" lon="14.37553"><ele>28.833333333333332</ele><time>2026-03-29T08:54:42.294Z</time></trkpt><trkpt lat="40.90801" lon="14.37542"><ele>29.0</ele><time>2026-03-29T08:54:43.294Z</time></trkpt><trkpt lat="40.9080217" lon="14.3753083"><ele>28.999999999999996</ele><time>2026-03-29T08:54:44.298Z</time></trkpt><trkpt lat="40.908025" lon="14.3752"><ele>29.0</ele><time>2026-03-29T08:54:45.293Z</time></trkpt><trkpt lat="40.908015" lon="14.37509"><ele>29.0</ele><time>2026-03-29T08:54:46.293Z</time></trkpt><trkpt lat="40.907995" lon="14.374985"><ele>29.0</ele><time>2026-03-29T08:54:47.294Z</time></trkpt><trkpt lat="40.9079617" lon="14.3748917"><ele>28.999999999999996</ele><time>2026-03-29T08:54:48.293Z</time></trkpt><trkpt lat="40.9079017" lon="14.3748233"><ele>29.0</ele><time>2026-03-29T08:54:49.293Z</time></trkpt><trkpt lat="40.9078283" lon="14.3747833"><ele>28.999999999999996</ele><time>2026-03-29T08:54:50.293Z</time></trkpt><trkpt lat="40.907745" lon="14.37477"><ele>29.0</ele><time>2026-03-29T08:54:51.293Z</time></trkpt><trkpt lat="40.9076617" lon="14.3747567"><ele>29.0</ele><time>2026-03-29T08:54:52.294Z</time></trkpt><trkpt lat="40.9075767" lon="14.3747367"><ele>29.0</ele><time>2026-03-29T08:54:53.294Z</time></trkpt><trkpt lat="40.9074917" lon="14.3747133"><ele>28.999999999999996</ele><time>2026-03-29T08:54:54.294Z</time></trkpt><trkpt lat="40.90741" lon="14.3746733"><ele>29.0</ele><time>2026-03-29T08:54:55.294Z</time></trkpt><trkpt lat="40.9073383" lon="14.3746117"><ele>28.999999999999996</ele><time>2026-03-29T08:54:56.294Z</time></trkpt><trkpt lat="40.907285" lon="14.37453"><ele>29.0</ele><time>2026-03-29T08:54:57.293Z</time></trkpt><trkpt lat="40.9072467" lon="14.374435"><ele>29.0</ele><time>2026-03-29T08:54:58.293Z</time></trkpt><trkpt lat="40.9072167" lon="14.3743367"><ele>29.0</ele><time>2026-03-29T08:54:59.294Z</time></trkpt><trkpt lat="40.9071883" lon="14.3742383"><ele>28.999999999999996</ele><time>2026-03-29T08:55:00.293Z</time></trkpt><trkpt lat="40.9071633" lon="14.3741383"><ele>29.0</ele><time>2026-03-29T08:55:01.294Z</time></trkpt><trkpt lat="40.90714" lon="14.3740383"><ele>28.999999999999996</ele><time>2026-03-29T08:55:02.293Z</time></trkpt><trkpt lat="40.9071183" lon="14.37394"><ele>29.0</ele><time>2026-03-29T08:55:03.293Z</time></trkpt><trkpt lat="40.907095" lon="14.37384"><ele>29.0</ele><time>2026-03-29T08:55:04.293Z</time></trkpt><trkpt lat="40.90707" lon="14.3737417"><ele>29.0</ele><time>2026-03-29T08:55:05.293Z</time></trkpt><trkpt lat="40.9070433" lon="14.37364"><ele>28.999999999999996</ele><time>2026-03-29T08:55:06.294Z</time></trkpt><trkpt lat="40.9070183" lon="14.3735367"><ele>29.0</ele><time>2026-03-29T08:55:07.294Z</time></trkpt><trkpt lat="40.9069933" lon="14.373435"><ele>29.166666666666664</ele><time>2026-03-29T08:55:08.293Z</time></trkpt><trkpt lat="40.9069633" lon="14.37334"><ele>29.333333333333332</ele><time>2026-03-29T08:55:09.293Z</time></trkpt><trkpt lat="40.9069383" lon="14.3732483"><ele>29.5</ele><time>2026-03-29T08:55:10.293Z</time></trkpt><trkpt lat="40.9069117" lon="14.373155"><ele>29.666666666666664</ele><time>2026-03-29T08:55:11.293Z</time></trkpt><trkpt lat="40.9068867" lon="14.3730583"><ele>29.833333333333332</ele><time>2026-03-29T08:55:12.294Z</time></trkpt><trkpt lat="40.9068633" lon="14.372955"><ele>30.0</ele><time>2026-03-29T08:55:13.293Z</time></trkpt><trkpt lat="40.9068333" lon="14.3728533"><ele>30.0</ele><time>2026-03-29T08:55:14.293Z</time></trkpt><trkpt lat="40.906805" lon="14.3727517"><ele>30.0</ele><time>2026-03-29T08:55:15.293Z</time></trkpt><trkpt lat="40.90678" lon="14.3726567"><ele>30.0</ele><time>2026-03-29T08:55:16.294Z</time></trkpt><trkpt lat="40.906755" lon="14.37256"><ele>30.0</ele><time>2026-03-29T08:55:17.294Z</time></trkpt><trkpt lat="40.9067283" lon="14.3724617"><ele>30.0</ele><time>2026-03-29T08:55:18.293Z</time></trkpt><trkpt lat="40.9067" lon="14.372365"><ele>30.0</ele><time>2026-03-29T08:55:19.294Z</time></trkpt><trkpt lat="40.9066717" lon="14.3722717"><ele>29.833333333333332</ele><time>2026-03-29T08:55:20.293Z</time></trkpt><trkpt lat="40.9066417" lon="14.3721767"><ele>29.666666666666664</ele><time>2026-03-29T08:55:21.293Z</time></trkpt><trkpt lat="40.9066083" lon="14.3720733"><ele>29.5</ele><time>2026-03-29T08:55:22.294Z</time></trkpt><trkpt lat="40.9065733" lon="14.37197"><ele>29.333333333333332</ele><time>2026-03-29T08:55:23.295Z</time></trkpt><trkpt lat="40.9065417" lon="14.3718667"><ele>29.166666666666664</ele><time>2026-03-29T08:55:24.293Z</time></trkpt><trkpt lat="40.9065133" lon="14.3717633"><ele>29.0</ele><time>2026-03-29T08:55:25.294Z</time></trkpt><trkpt lat="40.906485" lon="14.3716633"><ele>28.999999999999996</ele><time>2026-03-29T08:55:26.294Z</time></trkpt><trkpt lat="40.9064533" lon="14.3715617"><ele>29.0</ele><time>2026-03-29T08:55:27.295Z</time></trkpt><trkpt lat="40.9064233" lon="14.37146"><ele>29.0</ele><time>2026-03-29T08:55:28.295Z</time></trkpt><trkpt lat="40.906395" lon="14.3713567"><ele>29.0</ele><time>2026-03-29T08:55:29.293Z</time></trkpt><trkpt lat="40.9063667" lon="14.3712533"><ele>28.999999999999996</ele><time>2026-03-29T08:55:30.293Z</time></trkpt><trkpt lat="40.9063333" lon="14.371145"><ele>29.0</ele><time>2026-03-29T08:55:31.294Z</time></trkpt><trkpt lat="40.9063017" lon="14.3710383"><ele>28.999999999999996</ele><time>2026-03-29T08:55:32.295Z</time></trkpt><trkpt lat="40.9062683" lon="14.3709333"><ele>29.0</ele><time>2026-03-29T08:55:33.294Z</time></trkpt><trkpt lat="40.906235" lon="14.37083"><ele>29.0</ele><time>2026-03-29T08:55:34.294Z</time></trkpt><trkpt lat="40.9062" lon="14.370725"><ele>29.0</ele><time>2026-03-29T08:55:35.294Z</time></trkpt><trkpt lat="40.9061683" lon="14.3706167"><ele>28.999999999999996</ele><time>2026-03-29T08:55:36.294Z</time></trkpt><trkpt lat="40.9061383" lon="14.37051"><ele>29.0</ele><time>2026-03-29T08:55:37.294Z</time></trkpt><trkpt lat="40.90611" lon="14.3704033"><ele>28.833333333333332</ele><time>2026-03-29T08:55:38.294Z</time></trkpt><trkpt lat="40.90608" lon="14.3702967"><ele>28.666666666666664</ele><time>2026-03-29T08:55:39.294Z</time></trkpt><trkpt lat="40.90605" lon="14.3701917"><ele>28.5</ele><time>2026-03-29T08:55:40.294Z</time></trkpt><trkpt lat="40.9060183" lon="14.37009"><ele>28.333333333333336</ele><time>2026-03-29T08:55:41.294Z</time></trkpt><trkpt lat="40.90599" lon="14.3699867"><ele>28.166666666666668</ele><time>2026-03-29T08:55:42.294Z</time></trkpt><trkpt lat="40.9059633" lon="14.36989"><ele>28.0</ele><time>2026-03-29T08:55:43.293Z</time></trkpt><trkpt lat="40.9059367" lon="14.3698"><ele>28.000000000000004</ele><time>2026-03-29T08:55:44.293Z</time></trkpt><trkpt lat="40.90591" lon="14.369705"><ele>28.0</ele><time>2026-03-29T08:55:45.294Z</time></trkpt><trkpt lat="40.9058833" lon="14.3696117"><ele>28.0</ele><time>2026-03-29T08:55:46.293Z</time></trkpt><trkpt lat="40.90586" lon="14.3695167"><ele>28.0</ele><time>2026-03-29T08:55:47.294Z</time></trkpt><trkpt lat="40.9058367" lon="14.3694217"><ele>28.000000000000004</ele><time>2026-03-29T08:55:48.294Z</time></trkpt><trkpt lat="40.90581" lon="14.3693217"><ele>28.0</ele><time>2026-03-29T08:55:49.298Z</time></trkpt><trkpt lat="40.90578" lon="14.3692267"><ele>28.000000000000004</ele><time>2026-03-29T08:55:50.294Z</time></trkpt><trkpt lat="40.90575" lon="14.3691317"><ele>28.0</ele><time>2026-03-29T08:55:51.294Z</time></trkpt><trkpt lat="40.9057233" lon="14.3690333"><ele>28.0</ele><time>2026-03-29T08:55:52.294Z</time></trkpt><trkpt lat="40.9056967" lon="14.3689383"><ele>28.0</ele><time>2026-03-29T08:55:53.294Z</time></trkpt><trkpt lat="40.9056683" lon="14.36884"><ele>28.000000000000004</ele><time>2026-03-29T08:55:54.295Z</time></trkpt><trkpt lat="40.9056417" lon="14.3687383"><ele>28.0</ele><time>2026-03-29T08:55:55.293Z</time></trkpt><trkpt lat="40.905615" lon="14.36864"><ele>28.000000000000004</ele><time>2026-03-29T08:55:56.294Z</time></trkpt><trkpt lat="40.9055883" lon="14.3685383"><ele>28.0</ele><time>2026-03-29T08:55:57.294Z</time></trkpt><trkpt lat="40.9055633" lon="14.36844"><ele>28.0</ele><time>2026-03-29T08:55:58.293Z</time></trkpt><trkpt lat="40.90554" lon="14.368345"><ele>28.0</ele><time>2026-03-29T08:55:59.294Z</time></trkpt><trkpt lat="40.9055133" lon="14.368245"><ele>28.000000000000004</ele><time>2026-03-29T08:56:00.294Z</time></trkpt><trkpt lat="40.9054833" lon="14.3681417"><ele>28.0</ele><time>2026-03-29T08:56:01.294Z</time></trkpt><trkpt lat="40.905455" lon="14.36804"><ele>28.333333333333336</ele><time>2026-03-29T08:56:02.293Z</time></trkpt><trkpt lat="40.9054283" lon="14.3679383"><ele>28.666666666666668</ele><time>2026-03-29T08:56:03.293Z</time></trkpt><trkpt lat="40.9054033" lon="14.367835"><ele>29.0</ele><time>2026-03-29T08:56:04.293Z</time></trkpt><trkpt lat="40.9053733" lon="14.3677317"><ele>29.333333333333336</ele><time>2026-03-29T08:56:05.293Z</time></trkpt><trkpt lat="40.9053433" lon="14.3676283"><ele>29.666666666666668</ele><time>2026-03-29T08:56:06.294Z</time></trkpt><trkpt lat="40.90531" lon="14.3675233"><ele>30.0</ele><time>2026-03-29T08:56:07.294Z</time></trkpt><trkpt lat="40.9052783" lon="14.36742"><ele>30.0</ele><time>2026-03-29T08:56:08.294Z</time></trkpt><trkpt lat="40.9052467" lon="14.3673183"><ele>30.0</ele><time>2026-03-29T08:56:09.293Z</time></trkpt><trkpt lat="40.9052167" lon="14.3672167"><ele>30.0</ele><time>2026-03-29T08:56:10.293Z</time></trkpt><trkpt lat="40.9051867" lon="14.36712"><ele>30.0</ele><time>2026-03-29T08:56:11.294Z</time></trkpt><trkpt lat="40.90516" lon="14.3670233"><ele>30.0</ele><time>2026-03-29T08:56:12.295Z</time></trkpt><trkpt lat="40.9051283" lon="14.3669233"><ele>30.0</ele><time>2026-03-29T08:56:13.294Z</time></trkpt><trkpt lat="40.905095" lon="14.36682"><ele>29.833333333333332</ele><time>2026-03-29T08:56:14.293Z</time></trkpt><trkpt lat="40.9050633" lon="14.3667117"><ele>29.666666666666664</ele><time>2026-03-29T08:56:15.293Z</time></trkpt><trkpt lat="40.905035" lon="14.366605"><ele>29.5</ele><time>2026-03-29T08:56:16.293Z</time></trkpt><trkpt lat="40.9050067" lon="14.3665017"><ele>29.333333333333332</ele><time>2026-03-29T08:56:17.293Z</time></trkpt><trkpt lat="40.9049767" lon="14.3664017"><ele>29.166666666666664</ele><time>2026-03-29T08:56:18.294Z</time></trkpt><trkpt lat="40.9049467" lon="14.3663"><ele>29.0</ele><time>2026-03-29T08:56:19.293Z</time></trkpt><trkpt lat="40.90492" lon="14.3662017"><ele>28.999999999999996</ele><time>2026-03-29T08:56:20.294Z</time></trkpt><trkpt lat="40.90489" lon="14.3661033"><ele>29.0</ele><time>2026-03-29T08:56:21.293Z</time></trkpt><trkpt lat="40.90486" lon="14.366005"><ele>29.0</ele><time>2026-03-29T08:56:22.293Z</time></trkpt><trkpt lat="40.9048267" lon="14.36591"><ele>29.0</ele><time>2026-03-29T08:56:23.294Z</time></trkpt><trkpt lat="40.9047967" lon="14.365815"><ele>28.999999999999996</ele><time>2026-03-29T08:56:24.293Z</time></trkpt><trkpt lat="40.90477" lon="14.3657167"><ele>29.0</ele><time>2026-03-29T08:56:25.293Z</time></trkpt><trkpt lat="40.9047433" lon="14.3656183"><ele>29.166666666666664</ele><time>2026-03-29T08:56:26.293Z</time></trkpt><trkpt lat="40.904715" lon="14.36552"><ele>29.333333333333332</ele><time>2026-03-29T08:56:27.293Z</time></trkpt><trkpt lat="40.9046883" lon="14.3654217"><ele>29.5</ele><time>2026-03-29T08:56:28.295Z</time></trkpt><trkpt lat="40.9046617" lon="14.3653217"><ele>29.666666666666664</ele><time>2026-03-29T08:56:29.294Z</time></trkpt><trkpt lat="40.9046367" lon="14.3652217"><ele>29.833333333333332</ele><time>2026-03-29T08:56:30.294Z</time></trkpt><trkpt lat="40.90461" lon="14.365125"><ele>30.0</ele><time>2026-03-29T08:56:31.294Z</time></trkpt><trkpt lat="40.9045833" lon="14.36503"><ele>30.0</ele><time>2026-03-29T08:56:32.294Z</time></trkpt><trkpt lat="40.904555" lon="14.364935"><ele>30.0</ele><time>2026-03-29T08:56:33.293Z</time></trkpt><trkpt lat="40.9045267" lon="14.3648433"><ele>30.0</ele><time>2026-03-29T08:56:34.294Z</time></trkpt><trkpt lat="40.9045" lon="14.36475"><ele>30.0</ele><time>2026-03-29T08:56:35.295Z</time></trkpt><trkpt lat="40.9044717" lon="14.3646533"><ele>30.0</ele><time>2026-03-29T08:56:36.294Z</time></trkpt><trkpt lat="40.904445" lon="14.364555"><ele>30.0</ele><time>2026-03-29T08:56:37.293Z</time></trkpt><trkpt lat="40.9044183" lon="14.36446"><ele>29.833333333333332</ele><time>2026-03-29T08:56:38.293Z</time></trkpt><trkpt lat="40.90439" lon="14.3643633"><ele>29.666666666666664</ele><time>2026-03-29T08:56:39.293Z</time></trkpt><trkpt lat="40.904365" lon="14.3642683"><ele>29.5</ele><time>2026-03-29T08:56:40.294Z</time></trkpt><trkpt lat="40.9043417" lon="14.36417"><ele>29.333333333333332</ele><time>2026-03-29T08:56:41.293Z</time></trkpt><trkpt lat="40.9043183" lon="14.3640733"><ele>29.166666666666664</ele><time>2026-03-29T08:56:42.293Z</time></trkpt><trkpt lat="40.9042933" lon="14.36398"><ele>29.0</ele><time>2026-03-29T08:56:43.294Z</time></trkpt><trkpt lat="40.904265" lon="14.36389"><ele>29.571428571428577</ele><time>2026-03-29T08:56:44.293Z</time></trkpt><trkpt lat="40.9042383" lon="14.3637983"><ele>30.142857142857146</ele><time>2026-03-29T08:56:45.294Z</time></trkpt><trkpt lat="40.90421" lon="14.3637067"><ele>30.714285714285715</ele><time>2026-03-29T08:56:46.293Z</time></trkpt><trkpt lat="40.90418" lon="14.3636183"><ele>31.28571428571429</ele><time>2026-03-29T08:56:47.294Z</time></trkpt><trkpt lat="40.9041517" lon="14.36353"><ele>31.85714285714286</ele><time>2026-03-29T08:56:48.294Z</time></trkpt><trkpt lat="40.904125" lon="14.3634367"><ele>32.42857142857143</ele><time>2026-03-29T08:56:49.293Z</time></trkpt><trkpt lat="40.9041" lon="14.3633467"><ele>33.0</ele><time>2026-03-29T08:56:50.294Z</time></trkpt><trkpt lat="40.9040733" lon="14.3632533"><ele>33.0</ele><time>2026-03-29T08:56:51.293Z</time></trkpt><trkpt lat="40.9040433" lon="14.363165"><ele>33.0</ele><time>2026-03-29T08:56:52.294Z</time></trkpt><trkpt lat="40.9040167" lon="14.36308"><ele>33.0</ele><time>2026-03-29T08:56:53.294Z</time></trkpt><trkpt lat="40.90399" lon="14.3629917"><ele>33.0</ele><time>2026-03-29T08:56:54.294Z</time></trkpt><trkpt lat="40.9039617" lon="14.3629"><ele>33.0</ele><time>2026-03-29T08:56:55.294Z</time></trkpt><trkpt lat="40.903935" lon="14.3628033"><ele>33.0</ele><time>2026-03-29T08:56:56.294Z</time></trkpt><trkpt lat="40.9039133" lon="14.3627117"><ele>33.0</ele><time>2026-03-29T08:56:57.293Z</time></trkpt><trkpt lat="40.9038967" lon="14.3626267"><ele>33.0</ele><time>2026-03-29T08:56:58.294Z</time></trkpt><trkpt lat="40.9038783" lon="14.36254"><ele>33.0</ele><time>2026-03-29T08:56:59.294Z</time></trkpt><trkpt lat="40.9038583" lon="14.362455"><ele>33.0</ele><time>2026-03-29T08:57:00.293Z</time></trkpt><trkpt lat="40.9038417" lon="14.3623633"><ele>33.0</ele><time>2026-03-29T08:57:01.295Z</time></trkpt><trkpt lat="40.90382" lon="14.3622717"><ele>33.0</ele><time>2026-03-29T08:57:02.293Z</time></trkpt><trkpt lat="40.9037983" lon="14.3621833"><ele>33.0</ele><time>2026-03-29T08:57:03.293Z</time></trkpt><trkpt lat="40.9037733" lon="14.3620933"><ele>33.0</ele><time>2026-03-29T08:57:04.294Z</time></trkpt><trkpt lat="40.9037517" lon="14.3620033"><ele>33.285714285714285</ele><time>2026-03-29T08:57:05.294Z</time></trkpt><trkpt lat="40.9037333" lon="14.361915"><ele>33.57142857142857</ele><time>2026-03-29T08:57:06.294Z</time></trkpt><trkpt lat="40.90371" lon="14.3618267"><ele>33.85714285714286</ele><time>2026-03-29T08:57:07.294Z</time></trkpt><trkpt lat="40.9036867" lon="14.361745"><ele>34.14285714285714</ele><time>2026-03-29T08:57:08.294Z</time></trkpt><trkpt lat="40.9036633" lon="14.3616617"><ele>34.42857142857143</ele><time>2026-03-29T08:57:09.293Z</time></trkpt><trkpt lat="40.9036367" lon="14.36158"><ele>34.714285714285715</ele><time>2026-03-29T08:57:10.294Z</time></trkpt><trkpt lat="40.9036067" lon="14.3614983"><ele>35.0</ele><time>2026-03-29T08:57:11.295Z</time></trkpt><trkpt lat="40.9035783" lon="14.36142"><ele>35.2</ele><time>2026-03-29T08:57:12.295Z</time></trkpt><trkpt lat="40.9035567" lon="14.3613367"><ele>35.4</ele><time>2026-03-29T08:57:13.293Z</time></trkpt><trkpt lat="40.9035217" lon="14.3611817"><ele>35.6</ele><time>2026-03-29T08:57:15.293Z</time></trkpt><trkpt lat="40.90348" lon="14.36103"><ele>35.8</ele><time>2026-03-29T08:57:17.294Z</time></trkpt><trkpt lat="40.9034367" lon="14.360885"><ele>36.0</ele><time>2026-03-29T08:57:19.294Z</time></trkpt><trkpt lat="40.9034117" lon="14.3607983"><ele>36.0</ele><time>2026-03-29T08:57:20.294Z</time></trkpt><trkpt lat="40.9033783" lon="14.3607117"><ele>36.0</ele><time>2026-03-29T08:57:21.294Z</time></trkpt><trkpt lat="40.9033617" lon="14.3606283"><ele>36.0</ele><time>2026-03-29T08:57:22.294Z</time></trkpt><trkpt lat="40.90331" lon="14.36048"><ele>36.0</ele><time>2026-03-29T08:57:24.293Z</time></trkpt><trkpt lat="40.9032917" lon="14.3603983"><ele>36.0</ele><time>2026-03-29T08:57:25.294Z</time></trkpt><trkpt lat="40.9032733" lon="14.3603167"><ele>36.0</ele><time>2026-03-29T08:57:26.294Z</time></trkpt><trkpt lat="40.90325" lon="14.360235"><ele>35.85714285714286</ele><time>2026-03-29T08:57:27.293Z</time></trkpt><trkpt lat="40.9032217" lon="14.3601533"><ele>35.714285714285715</ele><time>2026-03-29T08:57:28.293Z</time></trkpt><trkpt lat="40.9031983" lon="14.3600683"><ele>35.57142857142857</ele><time>2026-03-29T08:57:29.294Z</time></trkpt><trkpt lat="40.9031733" lon="14.3599867"><ele>35.42857142857143</ele><time>2026-03-29T08:57:30.295Z</time></trkpt><trkpt lat="40.90315" lon="14.359905"><ele>35.285714285714285</ele><time>2026-03-29T08:57:31.295Z</time></trkpt><trkpt lat="40.9031267" lon="14.3598233"><ele>35.142857142857146</ele><time>2026-03-29T08:57:32.293Z</time></trkpt><trkpt lat="40.903105" lon="14.3597417"><ele>35.0</ele><time>2026-03-29T08:57:33.294Z</time></trkpt><trkpt lat="40.9030783" lon="14.35966"><ele>35.285714285714285</ele><time>2026-03-29T08:57:34.299Z</time></trkpt><trkpt lat="40.9030533" lon="14.3595733"><ele>35.57142857142857</ele><time>2026-03-29T08:57:35.294Z</time></trkpt><trkpt lat="40.903025" lon="14.359485"><ele>35.85714285714286</ele><time>2026-03-29T08:57:36.294Z</time></trkpt><trkpt lat="40.9030017" lon="14.3593933"><ele>36.14285714285714</ele><time>2026-03-29T08:57:37.294Z</time></trkpt><trkpt lat="40.9029783" lon="14.3593033"><ele>36.42857142857143</ele><time>2026-03-29T08:57:38.294Z</time></trkpt><trkpt lat="40.9029533" lon="14.3592133"><ele>36.714285714285715</ele><time>2026-03-29T08:57:39.294Z</time></trkpt><trkpt lat="40.9029267" lon="14.3591233"><ele>37.0</ele><time>2026-03-29T08:57:40.294Z</time></trkpt><trkpt lat="40.9029033" lon="14.3590317"><ele>37.0</ele><time>2026-03-29T08:57:41.295Z</time></trkpt><trkpt lat="40.90288" lon="14.35894"><ele>37.0</ele><time>2026-03-29T08:57:42.294Z</time></trkpt><trkpt lat="40.902855" lon="14.3588483"><ele>37.0</ele><time>2026-03-29T08:57:43.294Z</time></trkpt><trkpt lat="40.9028267" lon="14.3587567"><ele>37.0</ele><time>2026-03-29T08:57:44.294Z</time></trkpt><trkpt lat="40.9028" lon="14.358665"><ele>37.0</ele><time>2026-03-29T08:57:45.293Z</time></trkpt><trkpt lat="40.902775" lon="14.3585717"><ele>37.0</ele><time>2026-03-29T08:57:46.295Z</time></trkpt><trkpt lat="40.9027467" lon="14.35848"><ele>37.0</ele><time>2026-03-29T08:57:47.294Z</time></trkpt><trkpt lat="40.90272" lon="14.3583867"><ele>36.833333333333336</ele><time>2026-03-29T08:57:48.294Z</time></trkpt><trkpt lat="40.9026967" lon="14.358295"><ele>36.66666666666667</ele><time>2026-03-29T08:57:49.294Z</time></trkpt><trkpt lat="40.9026733" lon="14.3582"><ele>36.5</ele><time>2026-03-29T08:57:50.294Z</time></trkpt><trkpt lat="40.9026467" lon="14.3581067"><ele>36.333333333333336</ele><time>2026-03-29T08:57:51.293Z</time></trkpt><trkpt lat="40.9026167" lon="14.3580167"><ele>36.166666666666664</ele><time>2026-03-29T08:57:52.294Z</time></trkpt><trkpt lat="40.9025933" lon="14.3579217"><ele>36.0</ele><time>2026-03-29T08:57:53.294Z</time></trkpt><trkpt lat="40.9025683" lon="14.3578267"><ele>36.00000000000001</ele><time>2026-03-29T08:57:54.294Z</time></trkpt><trkpt lat="40.9025417" lon="14.3577333"><ele>36.0</ele><time>2026-03-29T08:57:55.294Z</time></trkpt><trkpt lat="40.9025183" lon="14.35764"><ele>36.0</ele><time>2026-03-29T08:57:56.294Z</time></trkpt><trkpt lat="40.9025" lon="14.3575433"><ele>36.0</ele><time>2026-03-29T08:57:57.295Z</time></trkpt><trkpt lat="40.9024917" lon="14.357445"><ele>36.0</ele><time>2026-03-29T08:57:58.295Z</time></trkpt><trkpt lat="40.9024867" lon="14.3573483"><ele>36.00000000000001</ele><time>2026-03-29T08:57:59.294Z</time></trkpt><trkpt lat="40.9024817" lon="14.3572483"><ele>36.0</ele><time>2026-03-29T08:58:00.294Z</time></trkpt><trkpt lat="40.902475" lon="14.3571467"><ele>35.666666666666664</ele><time>2026-03-29T08:58:01.294Z</time></trkpt><trkpt lat="40.902465" lon="14.3570367"><ele>35.333333333333336</ele><time>2026-03-29T08:58:02.294Z</time></trkpt><trkpt lat="40.902455" lon="14.35693"><ele>35.0</ele><time>2026-03-29T08:58:03.294Z</time></trkpt><trkpt lat="40.9024433" lon="14.356825"><ele>34.66666666666667</ele><time>2026-03-29T08:58:04.295Z</time></trkpt><trkpt lat="40.90243" lon="14.3567183"><ele>34.333333333333336</ele><time>2026-03-29T08:58:05.294Z</time></trkpt><trkpt lat="40.9024167" lon="14.3566133"><ele>34.0</ele><time>2026-03-29T08:58:06.294Z</time></trkpt><trkpt lat="40.902405" lon="14.35651"><ele>34.0</ele><time>2026-03-29T08:58:07.294Z</time></trkpt><trkpt lat="40.9023933" lon="14.356405"><ele>34.0</ele><time>2026-03-29T08:58:08.295Z</time></trkpt><trkpt lat="40.9023817" lon="14.3563"><ele>34.0</ele><time>2026-03-29T08:58:09.295Z</time></trkpt><trkpt lat="40.90237" lon="14.356195"><ele>34.0</ele><time>2026-03-29T08:58:10.294Z</time></trkpt><trkpt lat="40.9023633" lon="14.3560883"><ele>34.0</ele><time>2026-03-29T08:58:11.3Z</time></trkpt><trkpt lat="40.9023583" lon="14.355975"><ele>34.0</ele><time>2026-03-29T08:58:12.295Z</time></trkpt><trkpt lat="40.9023517" lon="14.3558667"><ele>33.833333333333336</ele><time>2026-03-29T08:58:13.294Z</time></trkpt><trkpt lat="40.9023417" lon="14.3557617"><ele>33.66666666666667</ele><time>2026-03-29T08:58:14.294Z</time></trkpt><trkpt lat="40.90233" lon="14.3556533"><ele>33.5</ele><time>2026-03-29T08:58:15.294Z</time></trkpt><trkpt lat="40.9023167" lon="14.3555467"><ele>33.333333333333336</ele><time>2026-03-29T08:58:16.294Z</time></trkpt><trkpt lat="40.9023017" lon="14.3554417"><ele>33.166666666666664</ele><time>2026-03-29T08:58:17.294Z</time></trkpt><trkpt lat="40.9022917" lon="14.355335"><ele>33.0</ele><time>2026-03-29T08:58:18.294Z</time></trkpt><trkpt lat="40.9022817" lon="14.3552333"><ele>33.166666666666664</ele><time>2026-03-29T08:58:19.294Z</time></trkpt><trkpt lat="40.9022733" lon="14.3551333"><ele>33.333333333333336</ele><time>2026-03-29T08:58:20.294Z</time></trkpt><trkpt lat="40.9022617" lon="14.355035"><ele>33.5</ele><time>2026-03-29T08:58:21.293Z</time></trkpt><trkpt lat="40.90225" lon="14.3549367"><ele>33.66666666666667</ele><time>2026-03-29T08:58:22.294Z</time></trkpt><trkpt lat="40.9022367" lon="14.3548383"><ele>33.833333333333336</ele><time>2026-03-29T08:58:23.294Z</time></trkpt><trkpt lat="40.9022217" lon="14.35474"><ele>34.0</ele><time>2026-03-29T08:58:24.294Z</time></trkpt><trkpt lat="40.9022117" lon="14.3546383"><ele>34.0</ele><time>2026-03-29T08:58:25.294Z</time></trkpt><trkpt lat="40.9021967" lon="14.3545383"><ele>34.0</ele><time>2026-03-29T08:58:26.294Z</time></trkpt><trkpt lat="40.9021867" lon="14.35444"><ele>34.0</ele><time>2026-03-29T08:58:27.293Z</time></trkpt><trkpt lat="40.9021767" lon="14.3543433"><ele>34.0</ele><time>2026-03-29T08:58:28.294Z</time></trkpt><trkpt lat="40.9021683" lon="14.3542417"><ele>34.0</ele><time>2026-03-29T08:58:29.295Z</time></trkpt><trkpt lat="40.90216" lon="14.3541433"><ele>34.0</ele><time>2026-03-29T08:58:30.294Z</time></trkpt><trkpt lat="40.902155" lon="14.35404"><ele>34.0</ele><time>2026-03-29T08:58:31.294Z</time></trkpt><trkpt lat="40.9021483" lon="14.3539383"><ele>34.0</ele><time>2026-03-29T08:58:32.294Z</time></trkpt><trkpt lat="40.9021383" lon="14.3538333"><ele>34.0</ele><time>2026-03-29T08:58:33.294Z</time></trkpt><trkpt lat="40.9021233" lon="14.3537317"><ele>34.0</ele><time>2026-03-29T08:58:34.294Z</time></trkpt><trkpt lat="40.9021117" lon="14.3536267"><ele>34.0</ele><time>2026-03-29T08:58:35.294Z</time></trkpt><trkpt lat="40.9021017" lon="14.3535233"><ele>34.0</ele><time>2026-03-29T08:58:36.294Z</time></trkpt><trkpt lat="40.9020933" lon="14.3534217"><ele>34.333333333333336</ele><time>2026-03-29T08:58:37.294Z</time></trkpt><trkpt lat="40.9020833" lon="14.3533183"><ele>34.66666666666667</ele><time>2026-03-29T08:58:38.294Z</time></trkpt><trkpt lat="40.9020733" lon="14.3532183"><ele>35.0</ele><time>2026-03-29T08:58:39.293Z</time></trkpt><trkpt lat="40.9020667" lon="14.3531167"><ele>35.333333333333336</ele><time>2026-03-29T08:58:40.294Z</time></trkpt><trkpt lat="40.9020583" lon="14.3530133"><ele>35.666666666666664</ele><time>2026-03-29T08:58:41.294Z</time></trkpt><trkpt lat="40.9020483" lon="14.3529067"><ele>36.0</ele><time>2026-03-29T08:58:42.294Z</time></trkpt><trkpt lat="40.9020383" lon="14.3528017"><ele>36.166666666666664</ele><time>2026-03-29T08:58:43.294Z</time></trkpt><trkpt lat="40.902025" lon="14.3526967"><ele>36.333333333333336</ele><time>2026-03-29T08:58:44.294Z</time></trkpt><trkpt lat="40.9020083" lon="14.352595"><ele>36.5</ele><time>2026-03-29T08:58:45.294Z</time></trkpt><trkpt lat="40.9019917" lon="14.35249"><ele>36.66666666666667</ele><time>2026-03-29T08:58:46.294Z</time></trkpt><trkpt lat="40.901985" lon="14.3523833"><ele>36.833333333333336</ele><time>2026-03-29T08:58:47.294Z</time></trkpt><trkpt lat="40.9019767" lon="14.352275"><ele>37.0</ele><time>2026-03-29T08:58:48.294Z</time></trkpt><trkpt lat="40.9019767" lon="14.35216"><ele>37.0</ele><time>2026-03-29T08:58:49.294Z</time></trkpt><trkpt lat="40.9019717" lon="14.3520483"><ele>37.0</ele><time>2026-03-29T08:58:50.294Z</time></trkpt><trkpt lat="40.90196" lon="14.3519417"><ele>37.0</ele><time>2026-03-29T08:58:51.293Z</time></trkpt><trkpt lat="40.9019617" lon="14.3518417"><ele>37.0</ele><time>2026-03-29T08:58:52.294Z</time></trkpt><trkpt lat="40.9019583" lon="14.3517583"><ele>37.0</ele><time>2026-03-29T08:58:53.294Z</time></trkpt><trkpt lat="40.9019617" lon="14.3516733"><ele>37.0</ele><time>2026-03-29T08:58:54.294Z</time></trkpt><trkpt lat="40.9019617" lon="14.351585"><ele>37.0</ele><time>2026-03-29T08:58:55.294Z</time></trkpt><trkpt lat="40.901955" lon="14.3514983"><ele>37.0</ele><time>2026-03-29T08:58:56.294Z</time></trkpt><trkpt lat="40.9019483" lon="14.3514083"><ele>37.0</ele><time>2026-03-29T08:58:57.294Z</time></trkpt><trkpt lat="40.90194" lon="14.3513183"><ele>37.0</ele><time>2026-03-29T08:58:58.294Z</time></trkpt><trkpt lat="40.90194" lon="14.3512233"><ele>37.0</ele><time>2026-03-29T08:58:59.296Z</time></trkpt><trkpt lat="40.90194" lon="14.3511383"><ele>37.0</ele><time>2026-03-29T08:59:00.294Z</time></trkpt><trkpt lat="40.9019667" lon="14.35105"><ele>37.0</ele><time>2026-03-29T08:59:01.294Z</time></trkpt><trkpt lat="40.9020033" lon="14.3509667"><ele>37.0</ele><time>2026-03-29T08:59:02.296Z</time></trkpt><trkpt lat="40.90203" lon="14.3508817"><ele>36.66666666666667</ele><time>2026-03-29T08:59:03.294Z</time></trkpt><trkpt lat="40.902035" lon="14.350795"><ele>36.333333333333336</ele><time>2026-03-29T08:59:04.295Z</time></trkpt><trkpt lat="40.9019983" lon="14.3507117"><ele>36.0</ele><time>2026-03-29T08:59:05.294Z</time></trkpt><trkpt lat="40.9019483" lon="14.3506317"><ele>35.666666666666664</ele><time>2026-03-29T08:59:06.294Z</time></trkpt><trkpt lat="40.9019083" lon="14.350545"><ele>35.33333333333333</ele><time>2026-03-29T08:59:07.295Z</time></trkpt><trkpt lat="40.9018767" lon="14.3504467"><ele>35.0</ele><time>2026-03-29T08:59:08.295Z</time></trkpt><trkpt lat="40.901855" lon="14.350345"><ele>35.0</ele><time>2026-03-29T08:59:09.294Z</time></trkpt><trkpt lat="40.9018333" lon="14.3502383"><ele>35.0</ele><time>2026-03-29T08:59:10.294Z</time></trkpt><trkpt lat="40.9018133" lon="14.350125"><ele>35.0</ele><time>2026-03-29T08:59:11.294Z</time></trkpt><trkpt lat="40.90179" lon="14.3500083"><ele>35.0</ele><time>2026-03-29T08:59:12.294Z</time></trkpt><trkpt lat="40.90177" lon="14.349895"><ele>35.0</ele><time>2026-03-29T08:59:13.294Z</time></trkpt><trkpt lat="40.901755" lon="14.3497817"><ele>35.0</ele><time>2026-03-29T08:59:14.303Z</time></trkpt><trkpt lat="40.9017467" lon="14.3496667"><ele>35.0</ele><time>2026-03-29T08:59:15.297Z</time></trkpt><trkpt lat="40.9017333" lon="14.3495533"><ele>35.0</ele><time>2026-03-29T08:59:16.294Z</time></trkpt><trkpt lat="40.9017217" lon="14.349435"><ele>35.0</ele><time>2026-03-29T08:59:17.297Z</time></trkpt><trkpt lat="40.901705" lon="14.34932"><ele>35.0</ele><time>2026-03-29T08:59:18.294Z</time></trkpt><trkpt lat="40.9016933" lon="14.3492067"><ele>35.0</ele><time>2026-03-29T08:59:19.294Z</time></trkpt><trkpt lat="40.901685" lon="14.3490933"><ele>35.0</ele><time>2026-03-29T08:59:20.294Z</time></trkpt><trkpt lat="40.9016783" lon="14.3489783"><ele>34.83333333333333</ele><time>2026-03-29T08:59:21.295Z</time></trkpt><trkpt lat="40.901675" lon="14.3488667"><ele>34.666666666666664</ele><time>2026-03-29T08:59:22.296Z</time></trkpt><trkpt lat="40.9016683" lon="14.348755"><ele>34.5</ele><time>2026-03-29T08:59:23.295Z</time></trkpt><trkpt lat="40.90166" lon="14.3486483"><ele>34.333333333333336</ele><time>2026-03-29T08:59:24.296Z</time></trkpt><trkpt lat="40.9016483" lon="14.34854"><ele>34.16666666666667</ele><time>2026-03-29T08:59:25.295Z</time></trkpt><trkpt lat="40.9016317" lon="14.348435"><ele>34.0</ele><time>2026-03-29T08:59:26.294Z</time></trkpt><trkpt lat="40.90162" lon="14.3483233"><ele>34.0</ele><time>2026-03-29T08:59:27.294Z</time></trkpt><trkpt lat="40.9016067" lon="14.3482133"><ele>34.0</ele><time>2026-03-29T08:59:28.296Z</time></trkpt><trkpt lat="40.9015917" lon="14.3481017"><ele>34.0</ele><time>2026-03-29T08:59:29.296Z</time></trkpt><trkpt lat="40.9015767" lon="14.34799"><ele>34.0</ele><time>2026-03-29T08:59:30.295Z</time></trkpt><trkpt lat="40.9015667" lon="14.347875"><ele>34.0</ele><time>2026-03-29T08:59:31.294Z</time></trkpt><trkpt lat="40.901555" lon="14.34776"><ele>34.0</ele><time>2026-03-29T08:59:32.295Z</time></trkpt><trkpt lat="40.9015417" lon="14.3476483"><ele>34.0</ele><time>2026-03-29T08:59:33.294Z</time></trkpt><trkpt lat="40.90153" lon="14.347535"><ele>34.0</ele><time>2026-03-29T08:59:34.296Z</time></trkpt><trkpt lat="40.9015167" lon="14.347425"><ele>34.0</ele><time>2026-03-29T08:59:35.294Z</time></trkpt><trkpt lat="40.9015033" lon="14.3473133"><ele>34.0</ele><time>2026-03-29T08:59:36.294Z</time></trkpt><trkpt lat="40.9014917" lon="14.3471983"><ele>34.0</ele><time>2026-03-29T08:59:37.295Z</time></trkpt><trkpt lat="40.9014817" lon="14.3470833"><ele>34.0</ele><time>2026-03-29T08:59:38.294Z</time></trkpt><trkpt lat="40.90147" lon="14.3469733"><ele>33.833333333333336</ele><time>2026-03-29T08:59:39.294Z</time></trkpt><trkpt lat="40.901465" lon="14.3468617"><ele>33.66666666666667</ele><time>2026-03-29T08:59:40.295Z</time></trkpt><trkpt lat="40.901455" lon="14.346745"><ele>33.5</ele><time>2026-03-29T08:59:41.294Z</time></trkpt><trkpt lat="40.9014433" lon="14.3466317"><ele>33.333333333333336</ele><time>2026-03-29T08:59:42.294Z</time></trkpt><trkpt lat="40.9014333" lon="14.3465167"><ele>33.166666666666664</ele><time>2026-03-29T08:59:43.294Z</time></trkpt><trkpt lat="40.90142" lon="14.346405"><ele>33.0</ele><time>2026-03-29T08:59:44.297Z</time></trkpt><trkpt lat="40.90141" lon="14.3462883"><ele>32.666666666666664</ele><time>2026-03-29T08:59:45.294Z</time></trkpt><trkpt lat="40.901405" lon="14.3461733"><ele>32.333333333333336</ele><time>2026-03-29T08:59:46.294Z</time></trkpt><trkpt lat="40.9014" lon="14.34606"><ele>32.0</ele><time>2026-03-29T08:59:47.294Z</time></trkpt><trkpt lat="40.9013983" lon="14.3459483"><ele>31.666666666666668</ele><time>2026-03-29T08:59:48.294Z</time></trkpt><trkpt lat="40.9014017" lon="14.34584"><ele>31.333333333333336</ele><time>2026-03-29T08:59:49.298Z</time></trkpt><trkpt lat="40.9013983" lon="14.3457317"><ele>31.0</ele><time>2026-03-29T08:59:50.294Z</time></trkpt><trkpt lat="40.9013933" lon="14.3456217"><ele>31.000000000000004</ele><time>2026-03-29T08:59:51.294Z</time></trkpt><trkpt lat="40.9013967" lon="14.34551"><ele>31.0</ele><time>2026-03-29T08:59:52.294Z</time></trkpt><trkpt lat="40.9014067" lon="14.3453983"><ele>31.0</ele><time>2026-03-29T08:59:53.294Z</time></trkpt><trkpt lat="40.9014167" lon="14.34529"><ele>31.0</ele><time>2026-03-29T08:59:54.298Z</time></trkpt><trkpt lat="40.9014217" lon="14.3451867"><ele>31.000000000000004</ele><time>2026-03-29T08:59:55.296Z</time></trkpt><trkpt lat="40.90143" lon="14.34509"><ele>31.0</ele><time>2026-03-29T08:59:56.294Z</time></trkpt><trkpt lat="40.9014483" lon="14.3449933"><ele>31.000000000000004</ele><time>2026-03-29T08:59:57.295Z</time></trkpt><trkpt lat="40.9014717" lon="14.3448967"><ele>31.0</ele><time>2026-03-29T08:59:58.294Z</time></trkpt><trkpt lat="40.9014967" lon="14.3448017"><ele>31.0</ele><time>2026-03-29T08:59:59.295Z</time></trkpt><trkpt lat="40.9015167" lon="14.3447017"><ele>31.0</ele><time>2026-03-29T09:00:00.294Z</time></trkpt><trkpt lat="40.9015333" lon="14.3446017"><ele>31.000000000000004</ele><time>2026-03-29T09:00:01.295Z</time></trkpt><trkpt lat="40.9015533" lon="14.3445017"><ele>31.0</ele><time>2026-03-29T09:00:02.294Z</time></trkpt><trkpt lat="40.9015683" lon="14.3444033"><ele>30.857142857142858</ele><time>2026-03-29T09:00:03.294Z</time></trkpt><trkpt lat="40.9015867" lon="14.3443067"><ele>30.714285714285715</ele><time>2026-03-29T09:00:04.294Z</time></trkpt><trkpt lat="40.90161" lon="14.3442117"><ele>30.571428571428573</ele><time>2026-03-29T09:00:05.294Z</time></trkpt><trkpt lat="40.9016283" lon="14.3441167"><ele>30.42857142857143</ele><time>2026-03-29T09:00:06.294Z</time></trkpt><trkpt lat="40.9016433" lon="14.3440233"><ele>30.285714285714285</ele><time>2026-03-29T09:00:07.294Z</time></trkpt><trkpt lat="40.9016633" lon="14.343935"><ele>30.142857142857146</ele><time>2026-03-29T09:00:08.294Z</time></trkpt><trkpt lat="40.9016817" lon="14.3438433"><ele>30.0</ele><time>2026-03-29T09:00:09.293Z</time></trkpt><trkpt lat="40.9017" lon="14.34375"><ele>30.0</ele><time>2026-03-29T09:00:10.294Z</time></trkpt><trkpt lat="40.9017117" lon="14.3436533"><ele>30.0</ele><time>2026-03-29T09:00:11.294Z</time></trkpt><trkpt lat="40.9017267" lon="14.34356"><ele>30.0</ele><time>2026-03-29T09:00:12.294Z</time></trkpt><trkpt lat="40.901745" lon="14.3434667"><ele>30.0</ele><time>2026-03-29T09:00:13.294Z</time></trkpt><trkpt lat="40.9017633" lon="14.3433783"><ele>30.0</ele><time>2026-03-29T09:00:14.295Z</time></trkpt><trkpt lat="40.9017817" lon="14.34329"><ele>30.0</ele><time>2026-03-29T09:00:15.294Z</time></trkpt><trkpt lat="40.901795" lon="14.3432017"><ele>30.0</ele><time>2026-03-29T09:00:16.295Z</time></trkpt><trkpt lat="40.9018033" lon="14.3431083"><ele>30.571428571428573</ele><time>2026-03-29T09:00:17.294Z</time></trkpt><trkpt lat="40.9018167" lon="14.343015"><ele>31.14285714285714</ele><time>2026-03-29T09:00:18.295Z</time></trkpt><trkpt lat="40.9018333" lon="14.3429217"><ele>31.71428571428571</ele><time>2026-03-29T09:00:19.294Z</time></trkpt><trkpt lat="40.9018483" lon="14.3428267"><ele>32.285714285714285</ele><time>2026-03-29T09:00:20.296Z</time></trkpt><trkpt lat="40.9018617" lon="14.3427333"><ele>32.857142857142854</ele><time>2026-03-29T09:00:21.295Z</time></trkpt><trkpt lat="40.9018767" lon="14.3426383"><ele>33.42857142857142</ele><time>2026-03-29T09:00:22.294Z</time></trkpt><trkpt lat="40.90189" lon="14.342545"><ele>34.0</ele><time>2026-03-29T09:00:23.294Z</time></trkpt><trkpt lat="40.9019067" lon="14.3424517"><ele>33.99999999999999</ele><time>2026-03-29T09:00:24.294Z</time></trkpt><trkpt lat="40.9019217" lon="14.3423583"><ele>34.0</ele><time>2026-03-29T09:00:25.294Z</time></trkpt><trkpt lat="40.9019383" lon="14.3422667"><ele>34.0</ele><time>2026-03-29T09:00:26.294Z</time></trkpt><trkpt lat="40.9019483" lon="14.3421733"><ele>34.0</ele><time>2026-03-29T09:00:27.294Z</time></trkpt><trkpt lat="40.9019583" lon="14.3420817"><ele>34.0</ele><time>2026-03-29T09:00:28.294Z</time></trkpt><trkpt lat="40.9019783" lon="14.3419867"><ele>33.99999999999999</ele><time>2026-03-29T09:00:29.294Z</time></trkpt><trkpt lat="40.902" lon="14.34189"><ele>34.0</ele><time>2026-03-29T09:00:30.294Z</time></trkpt><trkpt lat="40.9020167" lon="14.3417967"><ele>33.99999999999999</ele><time>2026-03-29T09:00:31.297Z</time></trkpt><trkpt lat="40.90203" lon="14.341705"><ele>34.0</ele><time>2026-03-29T09:00:32.294Z</time></trkpt><trkpt lat="40.9020483" lon="14.341615"><ele>34.0</ele><time>2026-03-29T09:00:33.293Z</time></trkpt><trkpt lat="40.9020683" lon="14.3415233"><ele>34.0</ele><time>2026-03-29T09:00:34.294Z</time></trkpt><trkpt lat="40.9020867" lon="14.3414283"><ele>34.0</ele><time>2026-03-29T09:00:35.294Z</time></trkpt><trkpt lat="40.90211" lon="14.341335"><ele>33.99999999999999</ele><time>2026-03-29T09:00:36.294Z</time></trkpt><trkpt lat="40.90213" lon="14.34124"><ele>34.0</ele><time>2026-03-29T09:00:37.295Z</time></trkpt><trkpt lat="40.9021467" lon="14.341145"><ele>33.71428571428571</ele><time>2026-03-29T09:00:38.294Z</time></trkpt><trkpt lat="40.90216" lon="14.3410467"><ele>33.42857142857143</ele><time>2026-03-29T09:00:39.294Z</time></trkpt><trkpt lat="40.9021733" lon="14.3409517"><ele>33.14285714285714</ele><time>2026-03-29T09:00:40.294Z</time></trkpt><trkpt lat="40.90219" lon="14.3408533"><ele>32.857142857142854</ele><time>2026-03-29T09:00:41.294Z</time></trkpt><trkpt lat="40.902205" lon="14.340755"><ele>32.57142857142857</ele><time>2026-03-29T09:00:42.294Z</time></trkpt><trkpt lat="40.90222" lon="14.34066"><ele>32.285714285714285</ele><time>2026-03-29T09:00:43.295Z</time></trkpt><trkpt lat="40.902235" lon="14.3405633"><ele>32.0</ele><time>2026-03-29T09:00:44.294Z</time></trkpt><trkpt lat="40.9022533" lon="14.340465"><ele>31.999999999999996</ele><time>2026-03-29T09:00:45.297Z</time></trkpt><trkpt lat="40.90227" lon="14.3403667"><ele>32.0</ele><time>2026-03-29T09:00:46.294Z</time></trkpt><trkpt lat="40.9022817" lon="14.34027"><ele>32.0</ele><time>2026-03-29T09:00:47.294Z</time></trkpt><trkpt lat="40.9022933" lon="14.3401733"><ele>32.0</ele><time>2026-03-29T09:00:48.294Z</time></trkpt><trkpt lat="40.90231" lon="14.3400767"><ele>31.999999999999996</ele><time>2026-03-29T09:00:49.294Z</time></trkpt><trkpt lat="40.9023233" lon="14.3399767"><ele>32.0</ele><time>2026-03-29T09:00:50.294Z</time></trkpt><trkpt lat="40.9023417" lon="14.339875"><ele>31.999999999999996</ele><time>2026-03-29T09:00:51.295Z</time></trkpt><trkpt lat="40.9023617" lon="14.3397783"><ele>32.0</ele><time>2026-03-29T09:00:52.294Z</time></trkpt><trkpt lat="40.90238" lon="14.339675"><ele>32.0</ele><time>2026-03-29T09:00:53.294Z</time></trkpt><trkpt lat="40.9023983" lon="14.3395683"><ele>32.0</ele><time>2026-03-29T09:00:54.294Z</time></trkpt><trkpt lat="40.902415" lon="14.3394633"><ele>31.999999999999996</ele><time>2026-03-29T09:00:55.293Z</time></trkpt><trkpt lat="40.902435" lon="14.33936"><ele>32.0</ele><time>2026-03-29T09:00:56.293Z</time></trkpt><trkpt lat="40.9024533" lon="14.3392583"><ele>31.833333333333332</ele><time>2026-03-29T09:00:57.293Z</time></trkpt><trkpt lat="40.90247" lon="14.33916"><ele>31.666666666666664</ele><time>2026-03-29T09:00:58.294Z</time></trkpt><trkpt lat="40.90249" lon="14.339055"><ele>31.5</ele><time>2026-03-29T09:00:59.293Z</time></trkpt><trkpt lat="40.9025067" lon="14.3389483"><ele>31.333333333333336</ele><time>2026-03-29T09:01:00.294Z</time></trkpt><trkpt lat="40.9025233" lon="14.3388533"><ele>31.166666666666668</ele><time>2026-03-29T09:01:01.294Z</time></trkpt><trkpt lat="40.9025333" lon="14.338755"><ele>31.0</ele><time>2026-03-29T09:01:02.294Z</time></trkpt><trkpt lat="40.9025483" lon="14.3386583"><ele>30.833333333333336</ele><time>2026-03-29T09:01:03.293Z</time></trkpt><trkpt lat="40.9025683" lon="14.33856"><ele>30.666666666666668</ele><time>2026-03-29T09:01:04.293Z</time></trkpt><trkpt lat="40.90259" lon="14.33846"><ele>30.5</ele><time>2026-03-29T09:01:05.295Z</time></trkpt><trkpt lat="40.90261" lon="14.338355"><ele>30.333333333333336</ele><time>2026-03-29T09:01:06.296Z</time></trkpt><trkpt lat="40.90263" lon="14.33825"><ele>30.166666666666668</ele><time>2026-03-29T09:01:07.295Z</time></trkpt><trkpt lat="40.9026483" lon="14.3381467"><ele>30.0</ele><time>2026-03-29T09:01:08.296Z</time></trkpt><trkpt lat="40.9026667" lon="14.3380383"><ele>30.333333333333332</ele><time>2026-03-29T09:01:09.293Z</time></trkpt><trkpt lat="40.9026867" lon="14.33793"><ele>30.666666666666664</ele><time>2026-03-29T09:01:10.293Z</time></trkpt><trkpt lat="40.902705" lon="14.3378217"><ele>31.0</ele><time>2026-03-29T09:01:11.294Z</time></trkpt><trkpt lat="40.9027183" lon="14.3377133"><ele>31.333333333333332</ele><time>2026-03-29T09:01:12.296Z</time></trkpt><trkpt lat="40.9027317" lon="14.3376"><ele>31.666666666666664</ele><time>2026-03-29T09:01:13.294Z</time></trkpt><trkpt lat="40.90274" lon="14.33749"><ele>32.0</ele><time>2026-03-29T09:01:14.295Z</time></trkpt><trkpt lat="40.9027467" lon="14.3373817"><ele>31.999999999999996</ele><time>2026-03-29T09:01:15.294Z</time></trkpt><trkpt lat="40.9027517" lon="14.3372717"><ele>32.0</ele><time>2026-03-29T09:01:16.293Z</time></trkpt><trkpt lat="40.90275" lon="14.33716"><ele>32.0</ele><time>2026-03-29T09:01:17.294Z</time></trkpt><trkpt lat="40.90275" lon="14.337045"><ele>32.0</ele><time>2026-03-29T09:01:18.293Z</time></trkpt><trkpt lat="40.9027417" lon="14.3369317"><ele>31.999999999999996</ele><time>2026-03-29T09:01:19.297Z</time></trkpt><trkpt lat="40.9027283" lon="14.3368183"><ele>32.0</ele><time>2026-03-29T09:01:20.293Z</time></trkpt><trkpt lat="40.90271" lon="14.3367067"><ele>32.2</ele><time>2026-03-29T09:01:21.293Z</time></trkpt><trkpt lat="40.9026917" lon="14.3365967"><ele>32.400000000000006</ele><time>2026-03-29T09:01:22.296Z</time></trkpt><trkpt lat="40.902665" lon="14.33649"><ele>32.599999999999994</ele><time>2026-03-29T09:01:23.396Z</time></trkpt><trkpt lat="40.9026017" lon="14.3362783"><ele>32.8</ele><time>2026-03-29T09:01:25.294Z</time></trkpt><trkpt lat="40.9025683" lon="14.33617"><ele>33.0</ele><time>2026-03-29T09:01:26.295Z</time></trkpt><trkpt lat="40.9025317" lon="14.336065"><ele>33.0</ele><time>2026-03-29T09:01:27.293Z</time></trkpt><trkpt lat="40.9024917" lon="14.335965"><ele>33.0</ele><time>2026-03-29T09:01:28.294Z</time></trkpt><trkpt lat="40.9024433" lon="14.335865"><ele>33.0</ele><time>2026-03-29T09:01:29.293Z</time></trkpt><trkpt lat="40.90239" lon="14.3357633"><ele>33.0</ele><time>2026-03-29T09:01:30.293Z</time></trkpt><trkpt lat="40.90234" lon="14.3356667"><ele>33.0</ele><time>2026-03-29T09:01:31.293Z</time></trkpt><trkpt lat="40.9022967" lon="14.3355717"><ele>33.0</ele><time>2026-03-29T09:01:32.293Z</time></trkpt><trkpt lat="40.90226" lon="14.335475"><ele>32.666666666666664</ele><time>2026-03-29T09:01:33.294Z</time></trkpt><trkpt lat="40.9022267" lon="14.3353783"><ele>32.333333333333336</ele><time>2026-03-29T09:01:34.293Z</time></trkpt><trkpt lat="40.9021833" lon="14.3352883"><ele>32.0</ele><time>2026-03-29T09:01:35.294Z</time></trkpt><trkpt lat="40.9021267" lon="14.3352133"><ele>31.666666666666668</ele><time>2026-03-29T09:01:36.293Z</time></trkpt><trkpt lat="40.9020617" lon="14.3351483"><ele>31.333333333333336</ele><time>2026-03-29T09:01:37.293Z</time></trkpt><trkpt lat="40.901995" lon="14.3350783"><ele>31.0</ele><time>2026-03-29T09:01:38.293Z</time></trkpt><trkpt lat="40.901935" lon="14.3349967"><ele>31.0</ele><time>2026-03-29T09:01:39.293Z</time></trkpt><trkpt lat="40.90188" lon="14.33491"><ele>31.0</ele><time>2026-03-29T09:01:40.295Z</time></trkpt><trkpt lat="40.901825" lon="14.3348183"><ele>31.0</ele><time>2026-03-29T09:01:41.293Z</time></trkpt><trkpt lat="40.9017633" lon="14.3347267"><ele>31.0</ele><time>2026-03-29T09:01:42.293Z</time></trkpt><trkpt lat="40.9017033" lon="14.33463"><ele>31.0</ele><time>2026-03-29T09:01:43.293Z</time></trkpt><trkpt lat="40.9016383" lon="14.3345417"><ele>30.6</ele><time>2026-03-29T09:01:44.294Z</time></trkpt><trkpt lat="40.90157" lon="14.334455"><ele>30.200000000000003</ele><time>2026-03-29T09:01:45.293Z</time></trkpt><trkpt lat="40.9014967" lon="14.33437"><ele>29.799999999999997</ele><time>2026-03-29T09:01:46.294Z</time></trkpt><trkpt lat="40.9014233" lon="14.3342883"><ele>29.4</ele><time>2026-03-29T09:01:47.293Z</time></trkpt><trkpt lat="40.90135" lon="14.3342083"><ele>29.0</ele><time>2026-03-29T09:01:48.293Z</time></trkpt><trkpt lat="40.9012667" lon="14.3341333"><ele>29.0</ele><time>2026-03-29T09:01:49.293Z</time></trkpt><trkpt lat="40.90118" lon="14.3340583"><ele>29.0</ele><time>2026-03-29T09:01:50.297Z</time></trkpt><trkpt lat="40.9010883" lon="14.3339917"><ele>29.0</ele><time>2026-03-29T09:01:51.293Z</time></trkpt><trkpt lat="40.9009933" lon="14.3339267"><ele>29.0</ele><time>2026-03-29T09:01:52.293Z</time></trkpt><trkpt lat="40.9009" lon="14.3338617"><ele>29.0</ele><time>2026-03-29T09:01:53.294Z</time></trkpt><trkpt lat="40.9008083" lon="14.333795"><ele>28.4</ele><time>2026-03-29T09:01:54.294Z</time></trkpt><trkpt lat="40.9007183" lon="14.3337333"><ele>27.799999999999997</ele><time>2026-03-29T09:01:55.297Z</time></trkpt><trkpt lat="40.9006267" lon="14.33368"><ele>27.200000000000003</ele><time>2026-03-29T09:01:56.295Z</time></trkpt><trkpt lat="40.9005383" lon="14.3336267"><ele>26.6</ele><time>2026-03-29T09:01:57.293Z</time></trkpt><trkpt lat="40.9004467" lon="14.3335567"><ele>26.0</ele><time>2026-03-29T09:01:58.293Z</time></trkpt><trkpt lat="40.9003483" lon="14.3335"><ele>26.0</ele><time>2026-03-29T09:01:59.293Z</time></trkpt><trkpt lat="40.9002517" lon="14.3334433"><ele>26.0</ele><time>2026-03-29T09:02:00.294Z</time></trkpt><trkpt lat="40.9001517" lon="14.33339"><ele>26.0</ele><time>2026-03-29T09:02:01.294Z</time></trkpt><trkpt lat="40.9000567" lon="14.333335"><ele>26.0</ele><time>2026-03-29T09:02:02.293Z</time></trkpt><trkpt lat="40.8999583" lon="14.3332817"><ele>26.0</ele><time>2026-03-29T09:02:03.293Z</time></trkpt><trkpt lat="40.8998617" lon="14.33323"><ele>25.4</ele><time>2026-03-29T09:02:04.293Z</time></trkpt><trkpt lat="40.8997667" lon="14.3331767"><ele>24.8</ele><time>2026-03-29T09:02:05.293Z</time></trkpt><trkpt lat="40.8996733" lon="14.3331267"><ele>24.2</ele><time>2026-03-29T09:02:06.293Z</time></trkpt><trkpt lat="40.899575" lon="14.3330767"><ele>23.599999999999998</ele><time>2026-03-29T09:02:07.293Z</time></trkpt><trkpt lat="40.8994817" lon="14.3330233"><ele>23.0</ele><time>2026-03-29T09:02:08.293Z</time></trkpt><trkpt lat="40.899385" lon="14.3329683"><ele>23.0</ele><time>2026-03-29T09:02:09.296Z</time></trkpt><trkpt lat="40.8992867" lon="14.3329117"><ele>23.0</ele><time>2026-03-29T09:02:10.293Z</time></trkpt><trkpt lat="40.89919" lon="14.3328567"><ele>23.0</ele><time>2026-03-29T09:02:11.295Z</time></trkpt><trkpt lat="40.8990933" lon="14.3328"><ele>23.0</ele><time>2026-03-29T09:02:12.293Z</time></trkpt><trkpt lat="40.8989983" lon="14.3327383"><ele>23.0</ele><time>2026-03-29T09:02:13.294Z</time></trkpt><trkpt lat="40.898905" lon="14.3326767"><ele>22.799999999999997</ele><time>2026-03-29T09:02:14.293Z</time></trkpt><trkpt lat="40.8988117" lon="14.3326167"><ele>22.6</ele><time>2026-03-29T09:02:15.297Z</time></trkpt><trkpt lat="40.8987217" lon="14.3325583"><ele>22.4</ele><time>2026-03-29T09:02:16.294Z</time></trkpt><trkpt lat="40.8986317" lon="14.3324967"><ele>22.200000000000003</ele><time>2026-03-29T09:02:17.295Z</time></trkpt><trkpt lat="40.8985433" lon="14.3324367"><ele>22.0</ele><time>2026-03-29T09:02:18.293Z</time></trkpt><trkpt lat="40.8984567" lon="14.332385"><ele>22.0</ele><time>2026-03-29T09:02:19.293Z</time></trkpt><trkpt lat="40.8983667" lon="14.3323283"><ele>22.0</ele><time>2026-03-29T09:02:20.294Z</time></trkpt><trkpt lat="40.898275" lon="14.3322733"><ele>22.0</ele><time>2026-03-29T09:02:21.293Z</time></trkpt><trkpt lat="40.8981883" lon="14.3322133"><ele>22.0</ele><time>2026-03-29T09:02:22.294Z</time></trkpt><trkpt lat="40.8981083" lon="14.3321333"><ele>22.0</ele><time>2026-03-29T09:02:23.293Z</time></trkpt><trkpt lat="40.8980233" lon="14.332065"><ele>22.200000000000003</ele><time>2026-03-29T09:02:24.293Z</time></trkpt><trkpt lat="40.89794" lon="14.331995"><ele>22.4</ele><time>2026-03-29T09:02:25.294Z</time></trkpt><trkpt lat="40.8978617" lon="14.3319217"><ele>22.6</ele><time>2026-03-29T09:02:26.297Z</time></trkpt><trkpt lat="40.8977883" lon="14.331835"><ele>22.799999999999997</ele><time>2026-03-29T09:02:27.293Z</time></trkpt><trkpt lat="40.8977217" lon="14.3317417"><ele>23.0</ele><time>2026-03-29T09:02:28.294Z</time></trkpt><trkpt lat="40.8976567" lon="14.331645"><ele>23.0</ele><time>2026-03-29T09:02:29.294Z</time></trkpt><trkpt lat="40.8975917" lon="14.3315467"><ele>23.0</ele><time>2026-03-29T09:02:30.294Z</time></trkpt><trkpt lat="40.8975233" lon="14.33145"><ele>23.0</ele><time>2026-03-29T09:02:31.294Z</time></trkpt><trkpt lat="40.8974533" lon="14.3313567"><ele>23.0</ele><time>2026-03-29T09:02:32.294Z</time></trkpt><trkpt lat="40.8973883" lon="14.3312633"><ele>23.0</ele><time>2026-03-29T09:02:33.293Z</time></trkpt><trkpt lat="40.8973233" lon="14.33117"><ele>22.599999999999998</ele><time>2026-03-29T09:02:34.294Z</time></trkpt><trkpt lat="40.89726" lon="14.33108"><ele>22.2</ele><time>2026-03-29T09:02:35.294Z</time></trkpt><trkpt lat="40.8972" lon="14.33099"><ele>21.8</ele><time>2026-03-29T09:02:36.293Z</time></trkpt><trkpt lat="40.8971433" lon="14.3309017"><ele>21.4</ele><time>2026-03-29T09:02:37.294Z</time></trkpt><trkpt lat="40.8970833" lon="14.3308117"><ele>21.0</ele><time>2026-03-29T09:02:38.293Z</time></trkpt><trkpt lat="40.89703" lon="14.330715"><ele>21.0</ele><time>2026-03-29T09:02:39.294Z</time></trkpt><trkpt lat="40.8969717" lon="14.3306167"><ele>21.0</ele><time>2026-03-29T09:02:40.294Z</time></trkpt><trkpt lat="40.8969067" lon="14.3305233"><ele>21.0</ele><time>2026-03-29T09:02:41.293Z</time></trkpt><trkpt lat="40.8968367" lon="14.3304383"><ele>21.0</ele><time>2026-03-29T09:02:42.294Z</time></trkpt><trkpt lat="40.8967717" lon="14.3303517"><ele>21.0</ele><time>2026-03-29T09:02:43.294Z</time></trkpt><trkpt lat="40.89671" lon="14.330265"><ele>21.166666666666668</ele><time>2026-03-29T09:02:44.295Z</time></trkpt><trkpt lat="40.896655" lon="14.330175"><ele>21.333333333333332</ele><time>2026-03-29T09:02:45.293Z</time></trkpt><trkpt lat="40.8965983" lon="14.330085"><ele>21.5</ele><time>2026-03-29T09:02:46.294Z</time></trkpt><trkpt lat="40.8965417" lon="14.329995"><ele>21.666666666666664</ele><time>2026-03-29T09:02:47.293Z</time></trkpt><trkpt lat="40.8964833" lon="14.3299033"><ele>21.833333333333332</ele><time>2026-03-29T09:02:48.295Z</time></trkpt><trkpt lat="40.896425" lon="14.329815"><ele>22.0</ele><time>2026-03-29T09:02:49.294Z</time></trkpt><trkpt lat="40.896365" lon="14.3297283"><ele>22.166666666666664</ele><time>2026-03-29T09:02:50.294Z</time></trkpt><trkpt lat="40.896305" lon="14.3296417"><ele>22.333333333333332</ele><time>2026-03-29T09:02:51.293Z</time></trkpt><trkpt lat="40.896245" lon="14.329555"><ele>22.5</ele><time>2026-03-29T09:02:52.294Z</time></trkpt><trkpt lat="40.8961817" lon="14.3294717"><ele>22.666666666666668</ele><time>2026-03-29T09:02:53.294Z</time></trkpt><trkpt lat="40.896125" lon="14.3293833"><ele>22.833333333333336</ele><time>2026-03-29T09:02:54.293Z</time></trkpt><trkpt lat="40.8960667" lon="14.3292933"><ele>23.0</ele><time>2026-03-29T09:02:55.294Z</time></trkpt><trkpt lat="40.8960083" lon="14.3292017"><ele>23.0</ele><time>2026-03-29T09:02:56.293Z</time></trkpt><trkpt lat="40.895945" lon="14.3291083"><ele>23.0</ele><time>2026-03-29T09:02:57.295Z</time></trkpt><trkpt lat="40.8958833" lon="14.3290233"><ele>23.0</ele><time>2026-03-29T09:02:58.294Z</time></trkpt><trkpt lat="40.8958217" lon="14.3289333"><ele>23.0</ele><time>2026-03-29T09:02:59.294Z</time></trkpt><trkpt lat="40.8957633" lon="14.3288417"><ele>23.0</ele><time>2026-03-29T09:03:00.293Z</time></trkpt><trkpt lat="40.8957017" lon="14.32875"><ele>23.333333333333336</ele><time>2026-03-29T09:03:01.295Z</time></trkpt><trkpt lat="40.89564" lon="14.3286633"><ele>23.666666666666668</ele><time>2026-03-29T09:03:02.294Z</time></trkpt><trkpt lat="40.8955833" lon="14.3285733"><ele>24.0</ele><time>2026-03-29T09:03:03.294Z</time></trkpt><trkpt lat="40.8955267" lon="14.32849"><ele>24.333333333333336</ele><time>2026-03-29T09:03:04.294Z</time></trkpt><trkpt lat="40.8954717" lon="14.3284067"><ele>24.666666666666668</ele><time>2026-03-29T09:03:05.294Z</time></trkpt><trkpt lat="40.8954133" lon="14.3283317"><ele>25.0</ele><time>2026-03-29T09:03:06.294Z</time></trkpt><trkpt lat="40.8953583" lon="14.3282517"><ele>25.000000000000004</ele><time>2026-03-29T09:03:07.293Z</time></trkpt><trkpt lat="40.8953017" lon="14.3281767"><ele>25.0</ele><time>2026-03-29T09:03:08.294Z</time></trkpt><trkpt lat="40.8952433" lon="14.3281033"><ele>25.0</ele><time>2026-03-29T09:03:09.294Z</time></trkpt><trkpt lat="40.8951867" lon="14.3280283"><ele>25.0</ele><time>2026-03-29T09:03:10.294Z</time></trkpt><trkpt lat="40.8951317" lon="14.3279567"><ele>25.000000000000004</ele><time>2026-03-29T09:03:11.294Z</time></trkpt><trkpt lat="40.89508" lon="14.3278867"><ele>25.0</ele><time>2026-03-29T09:03:12.293Z</time></trkpt><trkpt lat="40.8950267" lon="14.32781"><ele>24.500000000000004</ele><time>2026-03-29T09:03:13.293Z</time></trkpt><trkpt lat="40.8949733" lon="14.3277317"><ele>24.0</ele><time>2026-03-29T09:03:14.293Z</time></trkpt><trkpt lat="40.89492" lon="14.3276567"><ele>23.5</ele><time>2026-03-29T09:03:15.294Z</time></trkpt><trkpt lat="40.89487" lon="14.3275817"><ele>23.0</ele><time>2026-03-29T09:03:16.294Z</time></trkpt><trkpt lat="40.89482" lon="14.3275083"><ele>22.5</ele><time>2026-03-29T09:03:17.294Z</time></trkpt><trkpt lat="40.89477" lon="14.3274367"><ele>22.0</ele><time>2026-03-29T09:03:18.293Z</time></trkpt><trkpt lat="40.894725" lon="14.3273617"><ele>22.0</ele><time>2026-03-29T09:03:19.294Z</time></trkpt><trkpt lat="40.8946533" lon="14.3272517"><ele>22.0</ele><time>2026-03-29T09:03:21.294Z</time></trkpt><trkpt lat="40.8945883" lon="14.3271833"><ele>22.0</ele><time>2026-03-29T09:03:23.294Z</time></trkpt><trkpt lat="40.8945433" lon="14.3270667"><ele>22.0</ele><time>2026-03-29T09:03:25.294Z</time></trkpt><trkpt lat="40.894475" lon="14.3269417"><ele>22.0</ele><time>2026-03-29T09:03:27.294Z</time></trkpt><trkpt lat="40.894435" lon="14.3268767"><ele>22.285714285714285</ele><time>2026-03-29T09:03:28.293Z</time></trkpt><trkpt lat="40.89439" lon="14.32681"><ele>22.57142857142857</ele><time>2026-03-29T09:03:29.294Z</time></trkpt><trkpt lat="40.8943417" lon="14.32674"><ele>22.857142857142854</ele><time>2026-03-29T09:03:30.294Z</time></trkpt><trkpt lat="40.8942933" lon="14.32667"><ele>23.142857142857142</ele><time>2026-03-29T09:03:31.294Z</time></trkpt><trkpt lat="40.8942483" lon="14.3265967"><ele>23.428571428571427</ele><time>2026-03-29T09:03:32.294Z</time></trkpt><trkpt lat="40.8942033" lon="14.3265233"><ele>23.71428571428571</ele><time>2026-03-29T09:03:33.293Z</time></trkpt><trkpt lat="40.8941567" lon="14.3264467"><ele>24.0</ele><time>2026-03-29T09:03:34.294Z</time></trkpt><trkpt lat="40.8941133" lon="14.3263683"><ele>24.285714285714285</ele><time>2026-03-29T09:03:35.296Z</time></trkpt><trkpt lat="40.8940683" lon="14.3262917"><ele>24.57142857142857</ele><time>2026-03-29T09:03:36.294Z</time></trkpt><trkpt lat="40.8940267" lon="14.3262183"><ele>24.857142857142854</ele><time>2026-03-29T09:03:37.294Z</time></trkpt><trkpt lat="40.8939817" lon="14.3261467"><ele>25.142857142857142</ele><time>2026-03-29T09:03:38.294Z</time></trkpt><trkpt lat="40.8939367" lon="14.32607"><ele>25.42857142857143</ele><time>2026-03-29T09:03:39.294Z</time></trkpt><trkpt lat="40.8938883" lon="14.325995"><ele>25.71428571428571</ele><time>2026-03-29T09:03:40.294Z</time></trkpt><trkpt lat="40.8938417" lon="14.3259233"><ele>26.0</ele><time>2026-03-29T09:03:41.295Z</time></trkpt><trkpt lat="40.8938067" lon="14.32584"><ele>26.0</ele><time>2026-03-29T09:03:42.295Z</time></trkpt><trkpt lat="40.8937933" lon="14.3257567"><ele>26.0</ele><time>2026-03-29T09:03:43.294Z</time></trkpt><trkpt lat="40.893795" lon="14.325665"><ele>26.0</ele><time>2026-03-29T09:03:44.293Z</time></trkpt><trkpt lat="40.8938033" lon="14.3255733"><ele>26.0</ele><time>2026-03-29T09:03:45.296Z</time></trkpt><trkpt lat="40.8938167" lon="14.325485"><ele>26.0</ele><time>2026-03-29T09:03:46.294Z</time></trkpt><trkpt lat="40.893835" lon="14.3253983"><ele>26.0</ele><time>2026-03-29T09:03:47.296Z</time></trkpt><trkpt lat="40.8938533" lon="14.3253133"><ele>26.0</ele><time>2026-03-29T09:03:48.293Z</time></trkpt><trkpt lat="40.8938733" lon="14.3252283"><ele>26.333333333333332</ele><time>2026-03-29T09:03:49.294Z</time></trkpt><trkpt lat="40.8938883" lon="14.3251367"><ele>26.666666666666664</ele><time>2026-03-29T09:03:50.293Z</time></trkpt><trkpt lat="40.8939083" lon="14.325045"><ele>27.0</ele><time>2026-03-29T09:03:51.297Z</time></trkpt><trkpt lat="40.8939283" lon="14.32495"><ele>27.333333333333336</ele><time>2026-03-29T09:03:52.295Z</time></trkpt><trkpt lat="40.8939483" lon="14.324855"><ele>27.666666666666668</ele><time>2026-03-29T09:03:53.294Z</time></trkpt><trkpt lat="40.8939767" lon="14.32476"><ele>28.0</ele><time>2026-03-29T09:03:54.295Z</time></trkpt><trkpt lat="40.894015" lon="14.324665"><ele>28.166666666666668</ele><time>2026-03-29T09:03:55.294Z</time></trkpt><trkpt lat="40.8940567" lon="14.3245817"><ele>28.333333333333336</ele><time>2026-03-29T09:03:56.294Z</time></trkpt><trkpt lat="40.8941033" lon="14.3245117"><ele>28.5</ele><time>2026-03-29T09:03:57.293Z</time></trkpt><trkpt lat="40.8941633" lon="14.324445"><ele>28.666666666666664</ele><time>2026-03-29T09:03:58.294Z</time></trkpt><trkpt lat="40.8942267" lon="14.324385"><ele>28.833333333333332</ele><time>2026-03-29T09:03:59.294Z</time></trkpt><trkpt lat="40.8943" lon="14.324335"><ele>29.0</ele><time>2026-03-29T09:04:00.294Z</time></trkpt><trkpt lat="40.8943767" lon="14.3242917"><ele>28.999999999999996</ele><time>2026-03-29T09:04:01.294Z</time></trkpt><trkpt lat="40.8944533" lon="14.3242583"><ele>29.0</ele><time>2026-03-29T09:04:02.295Z</time></trkpt><trkpt lat="40.89453" lon="14.3242283"><ele>29.0</ele><time>2026-03-29T09:04:03.294Z</time></trkpt><trkpt lat="40.8946033" lon="14.324195"><ele>29.0</ele><time>2026-03-29T09:04:04.296Z</time></trkpt><trkpt lat="40.89468" lon="14.32416"><ele>28.999999999999996</ele><time>2026-03-29T09:04:05.294Z</time></trkpt><trkpt lat="40.8947567" lon="14.32412"><ele>29.0</ele><time>2026-03-29T09:04:06.295Z</time></trkpt><trkpt lat="40.8948317" lon="14.3240833"><ele>28.999999999999996</ele><time>2026-03-29T09:04:07.294Z</time></trkpt><trkpt lat="40.894905" lon="14.32404"><ele>29.0</ele><time>2026-03-29T09:04:08.294Z</time></trkpt><trkpt lat="40.8949783" lon="14.323995"><ele>29.0</ele><time>2026-03-29T09:04:09.293Z</time></trkpt><trkpt lat="40.8950483" lon="14.32395"><ele>29.0</ele><time>2026-03-29T09:04:10.294Z</time></trkpt><trkpt lat="40.8951167" lon="14.3239033"><ele>28.999999999999996</ele><time>2026-03-29T09:04:11.294Z</time></trkpt><trkpt lat="40.8951817" lon="14.3238583"><ele>29.0</ele><time>2026-03-29T09:04:12.294Z</time></trkpt><trkpt lat="40.8952483" lon="14.3238117"><ele>29.333333333333332</ele><time>2026-03-29T09:04:13.294Z</time></trkpt><trkpt lat="40.8953133" lon="14.3237633"><ele>29.666666666666664</ele><time>2026-03-29T09:04:14.294Z</time></trkpt><trkpt lat="40.89538" lon="14.323715"><ele>30.0</ele><time>2026-03-29T09:04:15.293Z</time></trkpt><trkpt lat="40.8954467" lon="14.3236667"><ele>30.333333333333336</ele><time>2026-03-29T09:04:16.294Z</time></trkpt><trkpt lat="40.895515" lon="14.3236183"><ele>30.666666666666668</ele><time>2026-03-29T09:04:17.294Z</time></trkpt><trkpt lat="40.8955817" lon="14.3235667"><ele>31.0</ele><time>2026-03-29T09:04:18.294Z</time></trkpt><trkpt lat="40.8956467" lon="14.3235133"><ele>31.0</ele><time>2026-03-29T09:04:19.294Z</time></trkpt><trkpt lat="40.8957083" lon="14.32346"><ele>31.000000000000004</ele><time>2026-03-29T09:04:20.294Z</time></trkpt><trkpt lat="40.89577" lon="14.3234067"><ele>31.0</ele><time>2026-03-29T09:04:21.293Z</time></trkpt><trkpt lat="40.8958267" lon="14.3233517"><ele>31.0</ele><time>2026-03-29T09:04:22.293Z</time></trkpt><trkpt lat="40.895885" lon="14.323295"><ele>31.000000000000004</ele><time>2026-03-29T09:04:23.294Z</time></trkpt><trkpt lat="40.8959333" lon="14.3232333"><ele>31.0</ele><time>2026-03-29T09:04:24.294Z</time></trkpt><trkpt lat="40.895985" lon="14.32317"><ele>31.0</ele><time>2026-03-29T09:04:25.294Z</time></trkpt><trkpt lat="40.89604" lon="14.32311"><ele>31.28571428571429</ele><time>2026-03-29T09:04:26.294Z</time></trkpt><trkpt lat="40.8960917" lon="14.3230517"><ele>31.571428571428577</ele><time>2026-03-29T09:04:27.294Z</time></trkpt><trkpt lat="40.896145" lon="14.3229933"><ele>31.857142857142858</ele><time>2026-03-29T09:04:28.294Z</time></trkpt><trkpt lat="40.8961933" lon="14.322935"><ele>32.142857142857146</ele><time>2026-03-29T09:04:29.294Z</time></trkpt><trkpt lat="40.8962433" lon="14.3228733"><ele>32.42857142857143</ele><time>2026-03-29T09:04:30.294Z</time></trkpt><trkpt lat="40.8962933" lon="14.3228117"><ele>32.714285714285715</ele><time>2026-03-29T09:04:31.294Z</time></trkpt><trkpt lat="40.89634" lon="14.3227517"><ele>33.0</ele><time>2026-03-29T09:04:32.294Z</time></trkpt><trkpt lat="40.8963867" lon="14.3226883"><ele>33.0</ele><time>2026-03-29T09:04:33.295Z</time></trkpt><trkpt lat="40.8964333" lon="14.322625"><ele>33.0</ele><time>2026-03-29T09:04:34.294Z</time></trkpt><trkpt lat="40.8964767" lon="14.3225567"><ele>33.0</ele><time>2026-03-29T09:04:35.295Z</time></trkpt><trkpt lat="40.8965183" lon="14.3224917"><ele>33.0</ele><time>2026-03-29T09:04:36.293Z</time></trkpt><trkpt lat="40.8965583" lon="14.322425"><ele>33.0</ele><time>2026-03-29T09:04:37.294Z</time></trkpt><trkpt lat="40.8966" lon="14.3223617"><ele>33.0</ele><time>2026-03-29T09:04:38.294Z</time></trkpt><trkpt lat="40.8966817" lon="14.3222367"><ele>33.5</ele><time>2026-03-29T09:04:40.294Z</time></trkpt><trkpt lat="40.896725" lon="14.32217"><ele>34.0</ele><time>2026-03-29T09:04:41.294Z</time></trkpt><trkpt lat="40.8967667" lon="14.3221033"><ele>34.5</ele><time>2026-03-29T09:04:42.294Z</time></trkpt><trkpt lat="40.89684" lon="14.32197"><ele>35.0</ele><time>2026-03-29T09:04:44.294Z</time></trkpt><trkpt lat="40.8969117" lon="14.3218367"><ele>35.5</ele><time>2026-03-29T09:04:46.294Z</time></trkpt><trkpt lat="40.8969467" lon="14.3217667"><ele>36.0</ele><time>2026-03-29T09:04:47.294Z</time></trkpt><trkpt lat="40.8969833" lon="14.321695"><ele>36.0</ele><time>2026-03-29T09:04:48.294Z</time></trkpt><trkpt lat="40.897015" lon="14.3216217"><ele>36.0</ele><time>2026-03-29T09:04:49.294Z</time></trkpt><trkpt lat="40.8970467" lon="14.3215467"><ele>36.0</ele><time>2026-03-29T09:04:50.294Z</time></trkpt><trkpt lat="40.897075" lon="14.3214717"><ele>36.0</ele><time>2026-03-29T09:04:51.293Z</time></trkpt><trkpt lat="40.8971033" lon="14.321395"><ele>36.0</ele><time>2026-03-29T09:04:52.294Z</time></trkpt><trkpt lat="40.89715" lon="14.32124"><ele>36.0</ele><time>2026-03-29T09:04:54.296Z</time></trkpt><trkpt lat="40.8971983" lon="14.3210833"><ele>36.28571428571429</ele><time>2026-03-29T09:04:56.294Z</time></trkpt><trkpt lat="40.8972233" lon="14.3210033"><ele>36.57142857142857</ele><time>2026-03-29T09:04:57.293Z</time></trkpt><trkpt lat="40.8972533" lon="14.3209267"><ele>36.85714285714286</ele><time>2026-03-29T09:04:58.296Z</time></trkpt><trkpt lat="40.8972833" lon="14.3208533"><ele>37.142857142857146</ele><time>2026-03-29T09:04:59.294Z</time></trkpt><trkpt lat="40.8973133" lon="14.3207767"><ele>37.42857142857143</ele><time>2026-03-29T09:05:00.294Z</time></trkpt><trkpt lat="40.8973383" lon="14.3206967"><ele>37.714285714285715</ele><time>2026-03-29T09:05:01.294Z</time></trkpt><trkpt lat="40.8973817" lon="14.3205483"><ele>38.0</ele><time>2026-03-29T09:05:03.294Z</time></trkpt><trkpt lat="40.89742" lon="14.3203883"><ele>38.285714285714285</ele><time>2026-03-29T09:05:05.294Z</time></trkpt><trkpt lat="40.897435" lon="14.3203017"><ele>38.57142857142858</ele><time>2026-03-29T09:05:06.294Z</time></trkpt><trkpt lat="40.8974483" lon="14.32021"><ele>38.85714285714286</ele><time>2026-03-29T09:05:07.294Z</time></trkpt><trkpt lat="40.8974567" lon="14.3201217"><ele>39.14285714285714</ele><time>2026-03-29T09:05:08.294Z</time></trkpt><trkpt lat="40.8974633" lon="14.320035"><ele>39.42857142857143</ele><time>2026-03-29T09:05:09.294Z</time></trkpt><trkpt lat="40.8974667" lon="14.3199433"><ele>39.714285714285715</ele><time>2026-03-29T09:05:10.294Z</time></trkpt><trkpt lat="40.8974683" lon="14.3198533"><ele>40.0</ele><time>2026-03-29T09:05:11.294Z</time></trkpt><trkpt lat="40.8974683" lon="14.3197633"><ele>40.285714285714285</ele><time>2026-03-29T09:05:12.294Z</time></trkpt><trkpt lat="40.897465" lon="14.3196767"><ele>40.57142857142857</ele><time>2026-03-29T09:05:13.294Z</time></trkpt><trkpt lat="40.897455" lon="14.3195867"><ele>40.85714285714286</ele><time>2026-03-29T09:05:14.294Z</time></trkpt><trkpt lat="40.89744" lon="14.3195"><ele>41.14285714285714</ele><time>2026-03-29T09:05:15.294Z</time></trkpt><trkpt lat="40.89742" lon="14.3194183"><ele>41.42857142857143</ele><time>2026-03-29T09:05:16.294Z</time></trkpt><trkpt lat="40.8973983" lon="14.319335"><ele>41.714285714285715</ele><time>2026-03-29T09:05:17.294Z</time></trkpt><trkpt lat="40.8973733" lon="14.31925"><ele>42.0</ele><time>2026-03-29T09:05:18.294Z</time></trkpt><trkpt lat="40.8973533" lon="14.319165"><ele>42.0</ele><time>2026-03-29T09:05:19.295Z</time></trkpt><trkpt lat="40.8973317" lon="14.3190833"><ele>42.0</ele><time>2026-03-29T09:05:20.294Z</time></trkpt><trkpt lat="40.8973083" lon="14.3189933"><ele>42.0</ele><time>2026-03-29T09:05:21.293Z</time></trkpt><trkpt lat="40.8972833" lon="14.31891"><ele>42.0</ele><time>2026-03-29T09:05:22.294Z</time></trkpt><trkpt lat="40.8972567" lon="14.3188283"><ele>42.0</ele><time>2026-03-29T09:05:23.294Z</time></trkpt><trkpt lat="40.8972217" lon="14.3186733"><ele>42.0</ele><time>2026-03-29T09:05:25.294Z</time></trkpt><trkpt lat="40.897185" lon="14.3185083"><ele>42.166666666666664</ele><time>2026-03-29T09:05:27.294Z</time></trkpt><trkpt lat="40.8971583" lon="14.3184167"><ele>42.333333333333336</ele><time>2026-03-29T09:05:28.294Z</time></trkpt><trkpt lat="40.8971183" lon="14.3183467"><ele>42.5</ele><time>2026-03-29T09:05:29.295Z</time></trkpt><trkpt lat="40.89704" lon="14.3182983"><ele>42.66666666666667</ele><time>2026-03-29T09:05:30.294Z</time></trkpt><trkpt lat="40.8970767" lon="14.318225"><ele>42.833333333333336</ele><time>2026-03-29T09:05:31.294Z</time></trkpt><trkpt lat="40.8970383" lon="14.318085"><ele>43.0</ele><time>2026-03-29T09:05:33.294Z</time></trkpt><trkpt lat="40.8970033" lon="14.3180033"><ele>43.714285714285715</ele><time>2026-03-29T09:05:34.294Z</time></trkpt><trkpt lat="40.896965" lon="14.3179133"><ele>44.42857142857143</ele><time>2026-03-29T09:05:35.294Z</time></trkpt><trkpt lat="40.8969317" lon="14.3178267"><ele>45.14285714285714</ele><time>2026-03-29T09:05:36.294Z</time></trkpt><trkpt lat="40.8969017" lon="14.3177433"><ele>45.85714285714286</ele><time>2026-03-29T09:05:37.294Z</time></trkpt><trkpt lat="40.8968717" lon="14.3176567"><ele>46.57142857142857</ele><time>2026-03-29T09:05:38.297Z</time></trkpt><trkpt lat="40.8968383" lon="14.3175717"><ele>47.285714285714285</ele><time>2026-03-29T09:05:39.294Z</time></trkpt><trkpt lat="40.8968017" lon="14.3174917"><ele>48.0</ele><time>2026-03-29T09:05:40.294Z</time></trkpt><trkpt lat="40.8967633" lon="14.3174117"><ele>48.14285714285714</ele><time>2026-03-29T09:05:41.295Z</time></trkpt><trkpt lat="40.8967183" lon="14.317335"><ele>48.285714285714285</ele><time>2026-03-29T09:05:42.294Z</time></trkpt><trkpt lat="40.8966767" lon="14.3172567"><ele>48.42857142857143</ele><time>2026-03-29T09:05:43.294Z</time></trkpt><trkpt lat="40.8966383" lon="14.3171783"><ele>48.57142857142857</ele><time>2026-03-29T09:05:44.294Z</time></trkpt><trkpt lat="40.8966067" lon="14.3170917"><ele>48.714285714285715</ele><time>2026-03-29T09:05:45.294Z</time></trkpt><trkpt lat="40.8965667" lon="14.3170067"><ele>48.857142857142854</ele><time>2026-03-29T09:05:46.294Z</time></trkpt><trkpt lat="40.8965333" lon="14.316925"><ele>49.0</ele><time>2026-03-29T09:05:47.295Z</time></trkpt><trkpt lat="40.89651" lon="14.3168383"><ele>49.0</ele><time>2026-03-29T09:05:48.294Z</time></trkpt><trkpt lat="40.8964917" lon="14.316745"><ele>49.0</ele><time>2026-03-29T09:05:49.294Z</time></trkpt><trkpt lat="40.89648" lon="14.3166617"><ele>49.0</ele><time>2026-03-29T09:05:50.294Z</time></trkpt><trkpt lat="40.8964667" lon="14.316575"><ele>49.0</ele><time>2026-03-29T09:05:51.293Z</time></trkpt><trkpt lat="40.8964717" lon="14.3164833"><ele>49.0</ele><time>2026-03-29T09:05:52.294Z</time></trkpt><trkpt lat="40.89648" lon="14.3163967"><ele>49.0</ele><time>2026-03-29T09:05:53.294Z</time></trkpt><trkpt lat="40.8964783" lon="14.3163117"><ele>49.0</ele><time>2026-03-29T09:05:54.294Z</time></trkpt><trkpt lat="40.8964817" lon="14.3161483"><ele>49.75</ele><time>2026-03-29T09:05:56.294Z</time></trkpt><trkpt lat="40.8964783" lon="14.315995"><ele>50.5</ele><time>2026-03-29T09:05:58.294Z</time></trkpt><trkpt lat="40.8964767" lon="14.3158467"><ele>51.25</ele><time>2026-03-29T09:06:00.294Z</time></trkpt><trkpt lat="40.8964717" lon="14.3156983"><ele>52.0</ele><time>2026-03-29T09:06:02.294Z</time></trkpt><trkpt lat="40.8964717" lon="14.3155417"><ele>52.0</ele><time>2026-03-29T09:06:04.294Z</time></trkpt><trkpt lat="40.8964683" lon="14.3153933"><ele>52.0</ele><time>2026-03-29T09:06:06.294Z</time></trkpt><trkpt lat="40.89646" lon="14.31525"><ele>52.0</ele><time>2026-03-29T09:06:08.294Z</time></trkpt><trkpt lat="40.8964533" lon="14.3150983"><ele>52.0</ele><time>2026-03-29T09:06:10.294Z</time></trkpt><trkpt lat="40.89644" lon="14.314945"><ele>52.0</ele><time>2026-03-29T09:06:12.294Z</time></trkpt><trkpt lat="40.8964333" lon="14.3147917"><ele>52.0</ele><time>2026-03-29T09:06:14.294Z</time></trkpt><trkpt lat="40.8964267" lon="14.3146333"><ele>52.0</ele><time>2026-03-29T09:06:16.294Z</time></trkpt><trkpt lat="40.8964133" lon="14.3144717"><ele>52.0</ele><time>2026-03-29T09:06:18.294Z</time></trkpt><trkpt lat="40.8964" lon="14.3143067"><ele>52.25</ele><time>2026-03-29T09:06:20.294Z</time></trkpt><trkpt lat="40.8963933" lon="14.3141483"><ele>52.5</ele><time>2026-03-29T09:06:22.294Z</time></trkpt><trkpt lat="40.8963867" lon="14.3139917"><ele>52.75</ele><time>2026-03-29T09:06:24.294Z</time></trkpt><trkpt lat="40.89638" lon="14.313845"><ele>53.0</ele><time>2026-03-29T09:06:26.294Z</time></trkpt><trkpt lat="40.8963767" lon="14.313695"><ele>53.25</ele><time>2026-03-29T09:06:28.294Z</time></trkpt><trkpt lat="40.896365" lon="14.3135533"><ele>53.5</ele><time>2026-03-29T09:06:30.294Z</time></trkpt><trkpt lat="40.8963583" lon="14.3134"><ele>53.75</ele><time>2026-03-29T09:06:32.295Z</time></trkpt><trkpt lat="40.8963533" lon="14.31325"><ele>54.0</ele><time>2026-03-29T09:06:34.294Z</time></trkpt><trkpt lat="40.8963533" lon="14.3130967"><ele>54.25</ele><time>2026-03-29T09:06:36.294Z</time></trkpt><trkpt lat="40.896355" lon="14.3129467"><ele>54.5</ele><time>2026-03-29T09:06:38.294Z</time></trkpt><trkpt lat="40.8963617" lon="14.312795"><ele>54.75</ele><time>2026-03-29T09:06:40.294Z</time></trkpt><trkpt lat="40.8963583" lon="14.31264"><ele>55.0</ele><time>2026-03-29T09:06:42.294Z</time></trkpt><trkpt lat="40.8963517" lon="14.3125017"><ele>55.0</ele><time>2026-03-29T09:06:44.294Z</time></trkpt><trkpt lat="40.89635" lon="14.3123633"><ele>55.0</ele><time>2026-03-29T09:06:46.294Z</time></trkpt><trkpt lat="40.8963517" lon="14.31222"><ele>55.0</ele><time>2026-03-29T09:06:48.294Z</time></trkpt><trkpt lat="40.8963533" lon="14.3120617"><ele>55.0</ele><time>2026-03-29T09:06:50.294Z</time></trkpt><trkpt lat="40.8963467" lon="14.31191"><ele>55.0</ele><time>2026-03-29T09:06:52.294Z</time></trkpt><trkpt lat="40.8963583" lon="14.3117567"><ele>55.25</ele><time>2026-03-29T09:06:54.295Z</time></trkpt><trkpt lat="40.8963667" lon="14.3116017"><ele>55.5</ele><time>2026-03-29T09:06:56.294Z</time></trkpt><trkpt lat="40.89637" lon="14.3114467"><ele>55.75</ele><time>2026-03-29T09:06:58.295Z</time></trkpt><trkpt lat="40.89637" lon="14.3113"><ele>56.0</ele><time>2026-03-29T09:07:00.294Z</time></trkpt><trkpt lat="40.8963733" lon="14.31115"><ele>56.5</ele><time>2026-03-29T09:07:02.294Z</time></trkpt><trkpt lat="40.8963717" lon="14.311"><ele>57.0</ele><time>2026-03-29T09:07:04.294Z</time></trkpt><trkpt lat="40.8963767" lon="14.31084"><ele>57.5</ele><time>2026-03-29T09:07:06.294Z</time></trkpt><trkpt lat="40.89638" lon="14.3106783"><ele>58.0</ele><time>2026-03-29T09:07:08.294Z</time></trkpt><trkpt lat="40.89638" lon="14.3105167"><ele>58.4</ele><time>2026-03-29T09:07:10.295Z</time></trkpt><trkpt lat="40.89638" lon="14.3103617"><ele>58.8</ele><time>2026-03-29T09:07:12.294Z</time></trkpt><trkpt lat="40.8963683" lon="14.3102017"><ele>59.2</ele><time>2026-03-29T09:07:14.294Z</time></trkpt><trkpt lat="40.8963717" lon="14.3101183"><ele>59.6</ele><time>2026-03-29T09:07:15.294Z</time></trkpt><trkpt lat="40.8963783" lon="14.3099683"><ele>60.0</ele><time>2026-03-29T09:07:17.294Z</time></trkpt><trkpt lat="40.8963867" lon="14.3098817"><ele>60.333333333333336</ele><time>2026-03-29T09:07:18.294Z</time></trkpt><trkpt lat="40.89639" lon="14.3097167"><ele>60.66666666666667</ele><time>2026-03-29T09:07:20.294Z</time></trkpt><trkpt lat="40.8963917" lon="14.30963"><ele>61.0</ele><time>2026-03-29T09:07:21.294Z</time></trkpt><trkpt lat="40.896395" lon="14.30954"><ele>61.333333333333336</ele><time>2026-03-29T09:07:22.294Z</time></trkpt><trkpt lat="40.896395" lon="14.3094517"><ele>61.66666666666667</ele><time>2026-03-29T09:07:23.294Z</time></trkpt><trkpt lat="40.8963983" lon="14.3093667"><ele>62.0</ele><time>2026-03-29T09:07:24.295Z</time></trkpt><trkpt lat="40.8963967" lon="14.30928"><ele>62.00000000000001</ele><time>2026-03-29T09:07:25.294Z</time></trkpt><trkpt lat="40.8963967" lon="14.3091917"><ele>62.0</ele><time>2026-03-29T09:07:26.293Z</time></trkpt><trkpt lat="40.896395" lon="14.3091067"><ele>62.0</ele><time>2026-03-29T09:07:27.294Z</time></trkpt><trkpt lat="40.8963983" lon="14.30902"><ele>62.0</ele><time>2026-03-29T09:07:28.293Z</time></trkpt><trkpt lat="40.896395" lon="14.3088567"><ele>62.00000000000001</ele><time>2026-03-29T09:07:30.295Z</time></trkpt><trkpt lat="40.8963967" lon="14.3086967"><ele>62.0</ele><time>2026-03-29T09:07:32.295Z</time></trkpt><trkpt lat="40.8963967" lon="14.3086117"><ele>62.16666666666667</ele><time>2026-03-29T09:07:33.294Z</time></trkpt><trkpt lat="40.8963983" lon="14.3085283"><ele>62.333333333333336</ele><time>2026-03-29T09:07:34.295Z</time></trkpt><trkpt lat="40.8963933" lon="14.3083617"><ele>62.5</ele><time>2026-03-29T09:07:36.294Z</time></trkpt><trkpt lat="40.89639" lon="14.3081917"><ele>62.66666666666667</ele><time>2026-03-29T09:07:38.293Z</time></trkpt><trkpt lat="40.8963883" lon="14.3081067"><ele>62.833333333333336</ele><time>2026-03-29T09:07:39.293Z</time></trkpt><trkpt lat="40.8963883" lon="14.3080217"><ele>63.0</ele><time>2026-03-29T09:07:40.293Z</time></trkpt><trkpt lat="40.8963867" lon="14.3079383"><ele>63.42857142857143</ele><time>2026-03-29T09:07:41.293Z</time></trkpt><trkpt lat="40.8963867" lon="14.307855"><ele>63.85714285714286</ele><time>2026-03-29T09:07:42.293Z</time></trkpt><trkpt lat="40.8963867" lon="14.3077667"><ele>64.28571428571428</ele><time>2026-03-29T09:07:43.294Z</time></trkpt><trkpt lat="40.896385" lon="14.3076833"><ele>64.71428571428572</ele><time>2026-03-29T09:07:44.293Z</time></trkpt><trkpt lat="40.8963817" lon="14.3076"><ele>65.14285714285714</ele><time>2026-03-29T09:07:45.293Z</time></trkpt><trkpt lat="40.8963883" lon="14.307435"><ele>65.57142857142857</ele><time>2026-03-29T09:07:47.294Z</time></trkpt><trkpt lat="40.896395" lon="14.30735"><ele>66.0</ele><time>2026-03-29T09:07:48.293Z</time></trkpt><trkpt lat="40.8963967" lon="14.307265"><ele>66.0</ele><time>2026-03-29T09:07:49.294Z</time></trkpt><trkpt lat="40.8964" lon="14.3071817"><ele>66.0</ele><time>2026-03-29T09:07:50.293Z</time></trkpt><trkpt lat="40.8964033" lon="14.3070933"><ele>66.0</ele><time>2026-03-29T09:07:51.294Z</time></trkpt><trkpt lat="40.8964033" lon="14.30701"><ele>66.0</ele><time>2026-03-29T09:07:52.293Z</time></trkpt><trkpt lat="40.896405" lon="14.3069267"><ele>66.0</ele><time>2026-03-29T09:07:53.293Z</time></trkpt><trkpt lat="40.8964067" lon="14.3068417"><ele>66.0</ele><time>2026-03-29T09:07:54.293Z</time></trkpt><trkpt lat="40.8964167" lon="14.3066783"><ele>66.0</ele><time>2026-03-29T09:07:56.294Z</time></trkpt><trkpt lat="40.8964267" lon="14.3065917"><ele>66.0</ele><time>2026-03-29T09:07:57.294Z</time></trkpt><trkpt lat="40.8964367" lon="14.3065017"><ele>66.0</ele><time>2026-03-29T09:07:58.294Z</time></trkpt><trkpt lat="40.8964517" lon="14.3064133"><ele>66.0</ele><time>2026-03-29T09:07:59.293Z</time></trkpt><trkpt lat="40.8964683" lon="14.306325"><ele>66.0</ele><time>2026-03-29T09:08:00.294Z</time></trkpt><trkpt lat="40.8964833" lon="14.30624"><ele>66.0</ele><time>2026-03-29T09:08:01.297Z</time></trkpt><trkpt lat="40.8964983" lon="14.306155"><ele>66.0</ele><time>2026-03-29T09:08:02.296Z</time></trkpt><trkpt lat="40.8965217" lon="14.3059883"><ele>66.0</ele><time>2026-03-29T09:08:04.293Z</time></trkpt><trkpt lat="40.8965367" lon="14.3059017"><ele>66.0</ele><time>2026-03-29T09:08:05.294Z</time></trkpt><trkpt lat="40.8965683" lon="14.30574"><ele>66.0</ele><time>2026-03-29T09:08:07.293Z</time></trkpt><trkpt lat="40.8965883" lon="14.3056533"><ele>66.0</ele><time>2026-03-29T09:08:08.293Z</time></trkpt><trkpt lat="40.8966067" lon="14.305565"><ele>66.0</ele><time>2026-03-29T09:08:09.293Z</time></trkpt><trkpt lat="40.8966267" lon="14.3054767"><ele>66.0</ele><time>2026-03-29T09:08:10.293Z</time></trkpt><trkpt lat="40.8966483" lon="14.3053867"><ele>66.0</ele><time>2026-03-29T09:08:11.294Z</time></trkpt><trkpt lat="40.8966683" lon="14.3052967"><ele>66.0</ele><time>2026-03-29T09:08:12.293Z</time></trkpt><trkpt lat="40.89669" lon="14.3052067"><ele>66.0</ele><time>2026-03-29T09:08:13.293Z</time></trkpt><trkpt lat="40.8967083" lon="14.305115"><ele>66.0</ele><time>2026-03-29T09:08:14.293Z</time></trkpt><trkpt lat="40.8967233" lon="14.3050217"><ele>66.0</ele><time>2026-03-29T09:08:15.293Z</time></trkpt><trkpt lat="40.8967333" lon="14.3049283"><ele>66.0</ele><time>2026-03-29T09:08:16.294Z</time></trkpt><trkpt lat="40.8967467" lon="14.304835"><ele>66.0</ele><time>2026-03-29T09:08:17.294Z</time></trkpt><trkpt lat="40.8967667" lon="14.3047467"><ele>66.14285714285714</ele><time>2026-03-29T09:08:18.294Z</time></trkpt><trkpt lat="40.8967833" lon="14.3046567"><ele>66.28571428571429</ele><time>2026-03-29T09:08:19.293Z</time></trkpt><trkpt lat="40.8967967" lon="14.304565"><ele>66.42857142857143</ele><time>2026-03-29T09:08:20.293Z</time></trkpt><trkpt lat="40.8968133" lon="14.30447"><ele>66.57142857142857</ele><time>2026-03-29T09:08:21.293Z</time></trkpt><trkpt lat="40.8968333" lon="14.3043767"><ele>66.71428571428571</ele><time>2026-03-29T09:08:22.294Z</time></trkpt><trkpt lat="40.8968533" lon="14.3042867"><ele>66.85714285714286</ele><time>2026-03-29T09:08:23.297Z</time></trkpt><trkpt lat="40.896865" lon="14.3041967"><ele>67.0</ele><time>2026-03-29T09:08:24.295Z</time></trkpt><trkpt lat="40.896875" lon="14.3041083"><ele>67.0</ele><time>2026-03-29T09:08:25.294Z</time></trkpt><trkpt lat="40.89689" lon="14.304025"><ele>67.0</ele><time>2026-03-29T09:08:26.293Z</time></trkpt><trkpt lat="40.896905" lon="14.3039433"><ele>67.0</ele><time>2026-03-29T09:08:27.294Z</time></trkpt><trkpt lat="40.8969183" lon="14.3038583"><ele>67.0</ele><time>2026-03-29T09:08:28.294Z</time></trkpt><trkpt lat="40.8969367" lon="14.303775"><ele>67.0</ele><time>2026-03-29T09:08:29.294Z</time></trkpt><trkpt lat="40.8969567" lon="14.303685"><ele>67.0</ele><time>2026-03-29T09:08:30.294Z</time></trkpt><trkpt lat="40.8969667" lon="14.3036017"><ele>67.0</ele><time>2026-03-29T09:08:31.294Z</time></trkpt><trkpt lat="40.89698" lon="14.303515"><ele>67.0</ele><time>2026-03-29T09:08:32.293Z</time></trkpt><trkpt lat="40.8969967" lon="14.3034333"><ele>67.0</ele><time>2026-03-29T09:08:33.293Z</time></trkpt><trkpt lat="40.8970117" lon="14.3033517"><ele>67.0</ele><time>2026-03-29T09:08:34.293Z</time></trkpt><trkpt lat="40.89703" lon="14.3032717"><ele>67.0</ele><time>2026-03-29T09:08:35.294Z</time></trkpt><trkpt lat="40.8970633" lon="14.3031033"><ele>67.0</ele><time>2026-03-29T09:08:37.294Z</time></trkpt><trkpt lat="40.8970867" lon="14.3030217"><ele>67.0</ele><time>2026-03-29T09:08:38.294Z</time></trkpt><trkpt lat="40.897115" lon="14.3029417"><ele>67.0</ele><time>2026-03-29T09:08:39.293Z</time></trkpt><trkpt lat="40.8971483" lon="14.302865"><ele>67.0</ele><time>2026-03-29T09:08:40.293Z</time></trkpt><trkpt lat="40.8971817" lon="14.3027917"><ele>67.0</ele><time>2026-03-29T09:08:41.294Z</time></trkpt><trkpt lat="40.8972483" lon="14.3026517"><ele>67.0</ele><time>2026-03-29T09:08:43.294Z</time></trkpt><trkpt lat="40.89732" lon="14.3025117"><ele>67.0</ele><time>2026-03-29T09:08:45.293Z</time></trkpt><trkpt lat="40.89736" lon="14.3024417"><ele>67.0</ele><time>2026-03-29T09:08:46.296Z</time></trkpt><trkpt lat="40.897405" lon="14.3023717"><ele>67.0</ele><time>2026-03-29T09:08:47.294Z</time></trkpt><trkpt lat="40.8974483" lon="14.302305"><ele>67.0</ele><time>2026-03-29T09:08:48.293Z</time></trkpt><trkpt lat="40.8975017" lon="14.3022467"><ele>67.0</ele><time>2026-03-29T09:08:49.296Z</time></trkpt><trkpt lat="40.8975583" lon="14.3021983"><ele>67.0</ele><time>2026-03-29T09:08:50.293Z</time></trkpt><trkpt lat="40.8976133" lon="14.3021517"><ele>67.0</ele><time>2026-03-29T09:08:51.293Z</time></trkpt><trkpt lat="40.8976683" lon="14.302105"><ele>67.0</ele><time>2026-03-29T09:08:52.294Z</time></trkpt><trkpt lat="40.8977267" lon="14.3020567"><ele>67.14285714285714</ele><time>2026-03-29T09:08:53.294Z</time></trkpt><trkpt lat="40.8977817" lon="14.3020067"><ele>67.28571428571428</ele><time>2026-03-29T09:08:54.293Z</time></trkpt><trkpt lat="40.8978383" lon="14.3019617"><ele>67.42857142857142</ele><time>2026-03-29T09:08:55.295Z</time></trkpt><trkpt lat="40.897895" lon="14.301915"><ele>67.57142857142857</ele><time>2026-03-29T09:08:56.293Z</time></trkpt><trkpt lat="40.89795" lon="14.3018667"><ele>67.71428571428571</ele><time>2026-03-29T09:08:57.293Z</time></trkpt><trkpt lat="40.8980033" lon="14.3018167"><ele>67.85714285714285</ele><time>2026-03-29T09:08:58.293Z</time></trkpt><trkpt lat="40.89806" lon="14.301765"><ele>68.0</ele><time>2026-03-29T09:08:59.295Z</time></trkpt><trkpt lat="40.8981183" lon="14.301715"><ele>67.99999999999999</ele><time>2026-03-29T09:09:00.293Z</time></trkpt><trkpt lat="40.8981767" lon="14.30167"><ele>68.0</ele><time>2026-03-29T09:09:01.294Z</time></trkpt><trkpt lat="40.8982317" lon="14.3016283"><ele>68.0</ele><time>2026-03-29T09:09:02.293Z</time></trkpt><trkpt lat="40.8982883" lon="14.3015917"><ele>68.0</ele><time>2026-03-29T09:09:03.293Z</time></trkpt><trkpt lat="40.8983467" lon="14.3015517"><ele>68.0</ele><time>2026-03-29T09:09:04.293Z</time></trkpt><trkpt lat="40.8984017" lon="14.3015067"><ele>67.99999999999999</ele><time>2026-03-29T09:09:05.294Z</time></trkpt><trkpt lat="40.898455" lon="14.3014533"><ele>68.0</ele><time>2026-03-29T09:09:06.294Z</time></trkpt><trkpt lat="40.8985067" lon="14.3014017"><ele>68.28571428571428</ele><time>2026-03-29T09:09:07.294Z</time></trkpt><trkpt lat="40.89856" lon="14.3013517"><ele>68.57142857142857</ele><time>2026-03-29T09:09:08.293Z</time></trkpt><trkpt lat="40.8986133" lon="14.3013017"><ele>68.85714285714286</ele><time>2026-03-29T09:09:09.293Z</time></trkpt><trkpt lat="40.8986683" lon="14.3012517"><ele>69.14285714285714</ele><time>2026-03-29T09:09:10.293Z</time></trkpt><trkpt lat="40.8987233" lon="14.3012017"><ele>69.42857142857143</ele><time>2026-03-29T09:09:11.294Z</time></trkpt><trkpt lat="40.89878" lon="14.3011567"><ele>69.71428571428571</ele><time>2026-03-29T09:09:12.293Z</time></trkpt><trkpt lat="40.89884" lon="14.301115"><ele>70.0</ele><time>2026-03-29T09:09:13.294Z</time></trkpt><trkpt lat="40.8989" lon="14.3010617"><ele>70.0</ele><time>2026-03-29T09:09:14.294Z</time></trkpt><trkpt lat="40.898965" lon="14.3010117"><ele>70.0</ele><time>2026-03-29T09:09:15.293Z</time></trkpt><trkpt lat="40.8990233" lon="14.3009533"><ele>70.0</ele><time>2026-03-29T09:09:16.295Z</time></trkpt><trkpt lat="40.8990833" lon="14.3008967"><ele>70.0</ele><time>2026-03-29T09:09:17.294Z</time></trkpt><trkpt lat="40.8991467" lon="14.3008417"><ele>70.0</ele><time>2026-03-29T09:09:18.293Z</time></trkpt><trkpt lat="40.89921" lon="14.3007917"><ele>70.0</ele><time>2026-03-29T09:09:19.295Z</time></trkpt><trkpt lat="40.8992733" lon="14.3007383"><ele>70.0</ele><time>2026-03-29T09:09:20.295Z</time></trkpt><trkpt lat="40.899325" lon="14.300685"><ele>69.71428571428571</ele><time>2026-03-29T09:09:21.293Z</time></trkpt><trkpt lat="40.8993783" lon="14.3006367"><ele>69.42857142857143</ele><time>2026-03-29T09:09:22.294Z</time></trkpt><trkpt lat="40.8994317" lon="14.3005833"><ele>69.14285714285714</ele><time>2026-03-29T09:09:23.294Z</time></trkpt><trkpt lat="40.8994883" lon="14.300535"><ele>68.85714285714286</ele><time>2026-03-29T09:09:24.293Z</time></trkpt><trkpt lat="40.8995433" lon="14.300475"><ele>68.57142857142857</ele><time>2026-03-29T09:09:25.293Z</time></trkpt><trkpt lat="40.8996" lon="14.3004183"><ele>68.28571428571428</ele><time>2026-03-29T09:09:26.295Z</time></trkpt><trkpt lat="40.8996583" lon="14.300365"><ele>68.0</ele><time>2026-03-29T09:09:27.293Z</time></trkpt><trkpt lat="40.89972" lon="14.3003067"><ele>68.0</ele><time>2026-03-29T09:09:28.294Z</time></trkpt><trkpt lat="40.899785" lon="14.300245"><ele>68.0</ele><time>2026-03-29T09:09:29.294Z</time></trkpt><trkpt lat="40.89985" lon="14.300185"><ele>68.0</ele><time>2026-03-29T09:09:30.293Z</time></trkpt><trkpt lat="40.8999133" lon="14.3001233"><ele>68.0</ele><time>2026-03-29T09:09:31.294Z</time></trkpt><trkpt lat="40.899975" lon="14.3000617"><ele>68.0</ele><time>2026-03-29T09:09:32.293Z</time></trkpt><trkpt lat="40.9000383" lon="14.3"><ele>68.0</ele><time>2026-03-29T09:09:33.293Z</time></trkpt><trkpt lat="40.9001" lon="14.29994"><ele>67.99999999999999</ele><time>2026-03-29T09:09:34.294Z</time></trkpt><trkpt lat="40.9001633" lon="14.2998817"><ele>68.0</ele><time>2026-03-29T09:09:35.295Z</time></trkpt><trkpt lat="40.9002233" lon="14.299825"><ele>68.0</ele><time>2026-03-29T09:09:36.294Z</time></trkpt><trkpt lat="40.900285" lon="14.29977"><ele>68.0</ele><time>2026-03-29T09:09:37.294Z</time></trkpt><trkpt lat="40.9003433" lon="14.29971"><ele>68.0</ele><time>2026-03-29T09:09:38.293Z</time></trkpt><trkpt lat="40.9003983" lon="14.29965"><ele>67.99999999999999</ele><time>2026-03-29T09:09:39.294Z</time></trkpt><trkpt lat="40.9004517" lon="14.2995883"><ele>68.0</ele><time>2026-03-29T09:09:40.294Z</time></trkpt><trkpt lat="40.9005" lon="14.2995233"><ele>68.0</ele><time>2026-03-29T09:09:41.294Z</time></trkpt><trkpt lat="40.9005483" lon="14.2994583"><ele>68.0</ele><time>2026-03-29T09:09:42.293Z</time></trkpt><trkpt lat="40.90059" lon="14.2993933"><ele>68.0</ele><time>2026-03-29T09:09:43.294Z</time></trkpt><trkpt lat="40.90063" lon="14.299325"><ele>68.0</ele><time>2026-03-29T09:09:44.294Z</time></trkpt><trkpt lat="40.900675" lon="14.299175"><ele>68.0</ele><time>2026-03-29T09:09:46.294Z</time></trkpt><trkpt lat="40.90067" lon="14.29909"><ele>68.0</ele><time>2026-03-29T09:09:47.295Z</time></trkpt><trkpt lat="40.9006483" lon="14.299005"><ele>67.99999999999999</ele><time>2026-03-29T09:09:48.294Z</time></trkpt><trkpt lat="40.90062" lon="14.2989217"><ele>68.0</ele><time>2026-03-29T09:09:49.294Z</time></trkpt><trkpt lat="40.9005867" lon="14.298845"><ele>68.0</ele><time>2026-03-29T09:09:50.293Z</time></trkpt><trkpt lat="40.9005517" lon="14.29876"><ele>68.0</ele><time>2026-03-29T09:09:51.293Z</time></trkpt><trkpt lat="40.9005083" lon="14.2986817"><ele>68.0</ele><time>2026-03-29T09:09:52.293Z</time></trkpt><trkpt lat="40.90047" lon="14.2986"><ele>67.99999999999999</ele><time>2026-03-29T09:09:53.294Z</time></trkpt><trkpt lat="40.9004483" lon="14.298505"><ele>68.0</ele><time>2026-03-29T09:09:54.294Z</time></trkpt><trkpt lat="40.90043" lon="14.2984033"><ele>68.0</ele><time>2026-03-29T09:09:55.294Z</time></trkpt><trkpt lat="40.900415" lon="14.2983"><ele>68.0</ele><time>2026-03-29T09:09:56.294Z</time></trkpt><trkpt lat="40.9003967" lon="14.2981967"><ele>68.0</ele><time>2026-03-29T09:09:57.299Z</time></trkpt><trkpt lat="40.90038" lon="14.2980983"><ele>68.0</ele><time>2026-03-29T09:09:58.294Z</time></trkpt><trkpt lat="40.90037" lon="14.2979983"><ele>68.0</ele><time>2026-03-29T09:09:59.294Z</time></trkpt><trkpt lat="40.9003583" lon="14.2979033"><ele>68.0</ele><time>2026-03-29T09:10:00.293Z</time></trkpt><trkpt lat="40.9003467" lon="14.2978117"><ele>67.99999999999999</ele><time>2026-03-29T09:10:01.295Z</time></trkpt><trkpt lat="40.900335" lon="14.2977167"><ele>68.0</ele><time>2026-03-29T09:10:02.293Z</time></trkpt><trkpt lat="40.9003233" lon="14.2976217"><ele>68.0</ele><time>2026-03-29T09:10:03.293Z</time></trkpt><trkpt lat="40.9003133" lon="14.2975267"><ele>68.0</ele><time>2026-03-29T09:10:04.295Z</time></trkpt><trkpt lat="40.9003017" lon="14.29743"><ele>68.0</ele><time>2026-03-29T09:10:05.294Z</time></trkpt><trkpt lat="40.9002933" lon="14.297335"><ele>67.99999999999999</ele><time>2026-03-29T09:10:06.293Z</time></trkpt><trkpt lat="40.9002833" lon="14.29724"><ele>68.0</ele><time>2026-03-29T09:10:07.293Z</time></trkpt><trkpt lat="40.9002717" lon="14.2971483"><ele>68.28571428571428</ele><time>2026-03-29T09:10:08.294Z</time></trkpt><trkpt lat="40.9002583" lon="14.2970583"><ele>68.57142857142857</ele><time>2026-03-29T09:10:09.293Z</time></trkpt><trkpt lat="40.9002467" lon="14.296965"><ele>68.85714285714286</ele><time>2026-03-29T09:10:10.293Z</time></trkpt><trkpt lat="40.9002317" lon="14.2968767"><ele>69.14285714285714</ele><time>2026-03-29T09:10:11.294Z</time></trkpt><trkpt lat="40.9002167" lon="14.29679"><ele>69.42857142857143</ele><time>2026-03-29T09:10:12.293Z</time></trkpt><trkpt lat="40.9002" lon="14.2967067"><ele>69.71428571428571</ele><time>2026-03-29T09:10:13.294Z</time></trkpt><trkpt lat="40.9001867" lon="14.29662"><ele>70.0</ele><time>2026-03-29T09:10:14.294Z</time></trkpt><trkpt lat="40.9001617" lon="14.2965417"><ele>70.0</ele><time>2026-03-29T09:10:15.295Z</time></trkpt><trkpt lat="40.9001367" lon="14.2964633"><ele>70.0</ele><time>2026-03-29T09:10:16.294Z</time></trkpt><trkpt lat="40.900095" lon="14.2963117"><ele>70.0</ele><time>2026-03-29T09:10:18.294Z</time></trkpt><trkpt lat="40.9000567" lon="14.2961667"><ele>70.0</ele><time>2026-03-29T09:10:20.294Z</time></trkpt><trkpt lat="40.9000133" lon="14.2960183"><ele>70.0</ele><time>2026-03-29T09:10:22.294Z</time></trkpt><trkpt lat="40.8999633" lon="14.2958683"><ele>70.33333333333333</ele><time>2026-03-29T09:10:24.293Z</time></trkpt><trkpt lat="40.8999417" lon="14.2957883"><ele>70.66666666666666</ele><time>2026-03-29T09:10:25.294Z</time></trkpt><trkpt lat="40.8998967" lon="14.29563"><ele>71.0</ele><time>2026-03-29T09:10:27.294Z</time></trkpt><trkpt lat="40.8998767" lon="14.29555"><ele>71.33333333333333</ele><time>2026-03-29T09:10:28.295Z</time></trkpt><trkpt lat="40.8998517" lon="14.2954733"><ele>71.66666666666667</ele><time>2026-03-29T09:10:29.294Z</time></trkpt><trkpt lat="40.8998067" lon="14.2953183"><ele>72.0</ele><time>2026-03-29T09:10:31.294Z</time></trkpt><trkpt lat="40.899785" lon="14.295235"><ele>72.0</ele><time>2026-03-29T09:10:32.294Z</time></trkpt><trkpt lat="40.8997633" lon="14.2951517"><ele>72.0</ele><time>2026-03-29T09:10:33.293Z</time></trkpt><trkpt lat="40.8997233" lon="14.295"><ele>72.0</ele><time>2026-03-29T09:10:35.294Z</time></trkpt><trkpt lat="40.899695" lon="14.2948567"><ele>72.0</ele><time>2026-03-29T09:10:37.297Z</time></trkpt><trkpt lat="40.8996733" lon="14.2947333"><ele>72.0</ele><time>2026-03-29T09:10:39.293Z</time></trkpt><trkpt lat="40.89967" lon="14.2946067"><ele>72.0</ele><time>2026-03-29T09:10:41.296Z</time></trkpt><trkpt lat="40.8996983" lon="14.2944933"><ele>72.0</ele><time>2026-03-29T09:10:43.295Z</time></trkpt><trkpt lat="40.8998033" lon="14.2944317"><ele>72.0</ele><time>2026-03-29T09:10:45.294Z</time></trkpt><trkpt lat="40.8999033" lon="14.294395"><ele>72.0</ele><time>2026-03-29T09:10:47.295Z</time></trkpt><trkpt lat="40.9000067" lon="14.2943883"><ele>72.0</ele><time>2026-03-29T09:10:49.294Z</time></trkpt><trkpt lat="40.900105" lon="14.2943833"><ele>72.0</ele><time>2026-03-29T09:10:51.294Z</time></trkpt><trkpt lat="40.90019" lon="14.29438"><ele>72.0</ele><time>2026-03-29T09:10:53.295Z</time></trkpt><trkpt lat="40.9002933" lon="14.2943567"><ele>72.0</ele><time>2026-03-29T09:10:55.294Z</time></trkpt><trkpt lat="40.9003967" lon="14.2943217"><ele>72.0</ele><time>2026-03-29T09:10:57.293Z</time></trkpt><trkpt lat="40.9004933" lon="14.2942683"><ele>72.0</ele><time>2026-03-29T09:10:59.295Z</time></trkpt><trkpt lat="40.9005817" lon="14.29422"><ele>72.0</ele><time>2026-03-29T09:11:01.295Z</time></trkpt><trkpt lat="40.9006683" lon="14.294175"><ele>72.0</ele><time>2026-03-29T09:11:03.293Z</time></trkpt><trkpt lat="40.900765" lon="14.2941233"><ele>72.0</ele><time>2026-03-29T09:11:05.296Z</time></trkpt><trkpt lat="40.9008667" lon="14.2940783"><ele>72.0</ele><time>2026-03-29T09:11:07.295Z</time></trkpt><trkpt lat="40.9009617" lon="14.2940433"><ele>72.0</ele><time>2026-03-29T09:11:09.293Z</time></trkpt><trkpt lat="40.9010667" lon="14.293995"><ele>72.0</ele><time>2026-03-29T09:11:11.294Z</time></trkpt><trkpt lat="40.9011733" lon="14.2939283"><ele>72.0</ele><time>2026-03-29T09:11:13.294Z</time></trkpt><trkpt lat="40.9012517" lon="14.2938333"><ele>72.0</ele><time>2026-03-29T09:11:15.295Z</time></trkpt><trkpt lat="40.901285" lon="14.2937"><ele>72.0</ele><time>2026-03-29T09:11:17.295Z</time></trkpt><trkpt lat="40.901225" lon="14.2935417"><ele>72.00000000000001</ele><time>2026-03-29T09:11:19.295Z</time></trkpt><trkpt lat="40.9011817" lon="14.2934783"><ele>72.0</ele><time>2026-03-29T09:11:20.294Z</time></trkpt><trkpt lat="40.9011367" lon="14.293415"><ele>72.0</ele><time>2026-03-29T09:11:21.295Z</time></trkpt><trkpt lat="40.9010933" lon="14.2933483"><ele>72.0</ele><time>2026-03-29T09:11:22.295Z</time></trkpt><trkpt lat="40.9010517" lon="14.293275"><ele>72.0</ele><time>2026-03-29T09:11:23.295Z</time></trkpt><trkpt lat="40.9010033" lon="14.2932033"><ele>72.00000000000001</ele><time>2026-03-29T09:11:24.294Z</time></trkpt><trkpt lat="40.9009683" lon="14.2931317"><ele>72.0</ele><time>2026-03-29T09:11:25.295Z</time></trkpt><trkpt lat="40.9009367" lon="14.2930583"><ele>72.4</ele><time>2026-03-29T09:11:26.294Z</time></trkpt><trkpt lat="40.9008983" lon="14.2929917"><ele>72.80000000000001</ele><time>2026-03-29T09:11:27.293Z</time></trkpt><trkpt lat="40.9008183" lon="14.2928583"><ele>73.2</ele><time>2026-03-29T09:11:29.295Z</time></trkpt><trkpt lat="40.9007617" lon="14.29273"><ele>73.60000000000001</ele><time>2026-03-29T09:11:31.294Z</time></trkpt><trkpt lat="40.9007" lon="14.2926067"><ele>74.0</ele><time>2026-03-29T09:11:33.294Z</time></trkpt><trkpt lat="40.9006367" lon="14.2924833"><ele>74.0</ele><time>2026-03-29T09:11:35.294Z</time></trkpt><trkpt lat="40.9005783" lon="14.29235"><ele>74.0</ele><time>2026-03-29T09:11:37.295Z</time></trkpt><trkpt lat="40.9005133" lon="14.2922167"><ele>74.0</ele><time>2026-03-29T09:11:39.294Z</time></trkpt><trkpt lat="40.90045" lon="14.292095"><ele>74.0</ele><time>2026-03-29T09:11:41.295Z</time></trkpt><trkpt lat="40.9003833" lon="14.2919667"><ele>74.4</ele><time>2026-03-29T09:11:43.296Z</time></trkpt><trkpt lat="40.9003167" lon="14.29184"><ele>74.80000000000001</ele><time>2026-03-29T09:11:45.296Z</time></trkpt><trkpt lat="40.9002767" lon="14.29172"><ele>75.19999999999999</ele><time>2026-03-29T09:11:47.295Z</time></trkpt><trkpt lat="40.90023" lon="14.2916017"><ele>75.6</ele><time>2026-03-29T09:11:49.294Z</time></trkpt><trkpt lat="40.9001783" lon="14.29147"><ele>76.0</ele><time>2026-03-29T09:11:51.295Z</time></trkpt><trkpt lat="40.900095" lon="14.2913583"><ele>76.39999999999999</ele><time>2026-03-29T09:11:53.295Z</time></trkpt><trkpt lat="40.900025" lon="14.2912417"><ele>76.8</ele><time>2026-03-29T09:11:55.294Z</time></trkpt><trkpt lat="40.899945" lon="14.2911383"><ele>77.19999999999999</ele><time>2026-03-29T09:11:57.294Z</time></trkpt><trkpt lat="40.8998633" lon="14.2910517"><ele>77.6</ele><time>2026-03-29T09:11:59.295Z</time></trkpt><trkpt lat="40.89982" lon="14.2909567"><ele>78.0</ele><time>2026-03-29T09:12:01.295Z</time></trkpt><trkpt lat="40.8997567" lon="14.2908367"><ele>78.0</ele><time>2026-03-29T09:12:03.293Z</time></trkpt><trkpt lat="40.8997117" lon="14.290695"><ele>78.0</ele><time>2026-03-29T09:12:05.295Z</time></trkpt><trkpt lat="40.8996567" lon="14.2905717"><ele>78.0</ele><time>2026-03-29T09:12:07.299Z</time></trkpt><trkpt lat="40.8996033" lon="14.2904567"><ele>78.0</ele><time>2026-03-29T09:12:09.294Z</time></trkpt><trkpt lat="40.8995583" lon="14.2903317"><ele>78.0</ele><time>2026-03-29T09:12:11.294Z</time></trkpt><trkpt lat="40.899525" lon="14.2902583"><ele>78.2</ele><time>2026-03-29T09:12:12.294Z</time></trkpt><trkpt lat="40.8994783" lon="14.290115"><ele>78.4</ele><time>2026-03-29T09:12:14.294Z</time></trkpt><trkpt lat="40.8994383" lon="14.28999"><ele>78.60000000000001</ele><time>2026-03-29T09:12:16.294Z</time></trkpt><trkpt lat="40.8993633" lon="14.2898567"><ele>78.8</ele><time>2026-03-29T09:12:18.294Z</time></trkpt><trkpt lat="40.8993283" lon="14.2897867"><ele>79.0</ele><time>2026-03-29T09:12:19.295Z</time></trkpt><trkpt lat="40.8992267" lon="14.289635"><ele>79.33333333333333</ele><time>2026-03-29T09:12:21.294Z</time></trkpt><trkpt lat="40.899185" lon="14.2895533"><ele>79.66666666666666</ele><time>2026-03-29T09:12:22.293Z</time></trkpt><trkpt lat="40.8991533" lon="14.2894667"><ele>80.0</ele><time>2026-03-29T09:12:23.294Z</time></trkpt><trkpt lat="40.8991183" lon="14.28939"><ele>80.33333333333333</ele><time>2026-03-29T09:12:24.294Z</time></trkpt><trkpt lat="40.8990917" lon="14.2893117"><ele>80.66666666666667</ele><time>2026-03-29T09:12:25.294Z</time></trkpt><trkpt lat="40.8990283" lon="14.2891783"><ele>81.0</ele><time>2026-03-29T09:12:27.295Z</time></trkpt><trkpt lat="40.8989767" lon="14.28904"><ele>81.0</ele><time>2026-03-29T09:12:29.294Z</time></trkpt><trkpt lat="40.898925" lon="14.2889117"><ele>81.0</ele><time>2026-03-29T09:12:31.294Z</time></trkpt><trkpt lat="40.89887" lon="14.2887867"><ele>81.0</ele><time>2026-03-29T09:12:33.294Z</time></trkpt><trkpt lat="40.8988183" lon="14.2886533"><ele>81.0</ele><time>2026-03-29T09:12:35.294Z</time></trkpt><trkpt lat="40.8987633" lon="14.28852"><ele>81.0</ele><time>2026-03-29T09:12:37.294Z</time></trkpt><trkpt lat="40.8987133" lon="14.288385"><ele>81.0</ele><time>2026-03-29T09:12:39.294Z</time></trkpt><trkpt lat="40.898665" lon="14.2882417"><ele>81.0</ele><time>2026-03-29T09:12:41.294Z</time></trkpt><trkpt lat="40.8986067" lon="14.2881083"><ele>81.0</ele><time>2026-03-29T09:12:43.294Z</time></trkpt><trkpt lat="40.8985767" lon="14.287955"><ele>81.0</ele><time>2026-03-29T09:12:45.294Z</time></trkpt><trkpt lat="40.8985733" lon="14.2878717"><ele>81.0</ele><time>2026-03-29T09:12:46.294Z</time></trkpt><trkpt lat="40.8985667" lon="14.2877867"><ele>81.0</ele><time>2026-03-29T09:12:47.294Z</time></trkpt><trkpt lat="40.8985617" lon="14.2877033"><ele>81.0</ele><time>2026-03-29T09:12:48.294Z</time></trkpt><trkpt lat="40.89856" lon="14.28762"><ele>81.0</ele><time>2026-03-29T09:12:49.294Z</time></trkpt><trkpt lat="40.89855" lon="14.2874583"><ele>81.0</ele><time>2026-03-29T09:12:51.294Z</time></trkpt><trkpt lat="40.89854" lon="14.2873033"><ele>81.0</ele><time>2026-03-29T09:12:53.294Z</time></trkpt><trkpt lat="40.8985" lon="14.28717"><ele>81.0</ele><time>2026-03-29T09:12:55.294Z</time></trkpt><trkpt lat="40.89844" lon="14.2870717"><ele>81.0</ele><time>2026-03-29T09:12:57.295Z</time></trkpt><trkpt lat="40.89835" lon="14.28701"><ele>81.0</ele><time>2026-03-29T09:12:59.294Z</time></trkpt><trkpt lat="40.8982517" lon="14.28696"><ele>81.0</ele><time>2026-03-29T09:13:01.295Z</time></trkpt><trkpt lat="40.8981417" lon="14.2869167"><ele>81.0</ele><time>2026-03-29T09:13:03.294Z</time></trkpt><trkpt lat="40.898035" lon="14.2868667"><ele>81.19999999999999</ele><time>2026-03-29T09:13:05.295Z</time></trkpt><trkpt lat="40.8979267" lon="14.28684"><ele>81.39999999999999</ele><time>2026-03-29T09:13:07.295Z</time></trkpt><trkpt lat="40.8978067" lon="14.286825"><ele>81.6</ele><time>2026-03-29T09:13:09.294Z</time></trkpt><trkpt lat="40.89772" lon="14.2868067"><ele>81.8</ele><time>2026-03-29T09:13:11.294Z</time></trkpt><trkpt lat="40.8976317" lon="14.28678"><ele>82.0</ele><time>2026-03-29T09:13:13.295Z</time></trkpt><trkpt lat="40.8975483" lon="14.2867433"><ele>81.6</ele><time>2026-03-29T09:13:15.294Z</time></trkpt><trkpt lat="40.8974583" lon="14.286695"><ele>81.19999999999999</ele><time>2026-03-29T09:13:17.297Z</time></trkpt><trkpt lat="40.89737" lon="14.2866583"><ele>80.8</ele><time>2026-03-29T09:13:19.3Z</time></trkpt><trkpt lat="40.8972767" lon="14.2866367"><ele>80.4</ele><time>2026-03-29T09:13:21.302Z</time></trkpt><trkpt lat="40.8971883" lon="14.2866183"><ele>80.0</ele><time>2026-03-29T09:13:23.294Z</time></trkpt><trkpt lat="40.89709" lon="14.286585"><ele>80.0</ele><time>2026-03-29T09:13:25.295Z</time></trkpt><trkpt lat="40.897" lon="14.286535"><ele>80.0</ele><time>2026-03-29T09:13:27.294Z</time></trkpt><trkpt lat="40.8969333" lon="14.286495"><ele>80.0</ele><time>2026-03-29T09:13:29.294Z</time></trkpt><trkpt lat="40.8968267" lon="14.2864317"><ele>80.0</ele><time>2026-03-29T09:13:32.294Z</time></trkpt></trkseg></trk></gpx>